<?xml version="1.0" encoding="UTF-8" standalone="no" ?>
<gpx xmlns="http://www.topografix.com/GPX/1/1" xmlns:xsi="http://www.w3.org/2001/XMLSchema-instance" xsi:schemaLocation="http://www.topografix.com/GPX/1/1 http://www.topografix.com/GPX/1/1/gpx.xsd" version="1.1" creator="VisuGPX - https://www.visugpx.com">
  <metadata>
    <name>Remiencourt, Estrées-sur-noye</name>
    <desc><![CDATA[un petit bugg de  lissage]]></desc>
  </metadata>
  <trk>
    <name><![CDATA[Remiencourt, Estrées-sur-noye_1]]></name>
    <trkseg>
      <trkpt lat="49.78183" lon="2.38203">
        <ele>46.8</ele>
        <time>2022-07-13T07:00:10Z</time>
      </trkpt>
      <trkpt lat="49.78183" lon="2.38204">
        <ele>46.8</ele>
        <time>2022-07-13T07:00:11Z</time>
      </trkpt>
      <trkpt lat="49.78183" lon="2.38204">
        <ele>46.8</ele>
        <time>2022-07-13T07:00:12Z</time>
      </trkpt>
      <trkpt lat="49.78183" lon="2.38206">
        <ele>46.8</ele>
        <time>2022-07-13T07:00:13Z</time>
      </trkpt>
      <trkpt lat="49.78183" lon="2.38207">
        <ele>46.8</ele>
        <time>2022-07-13T07:00:14Z</time>
      </trkpt>
      <trkpt lat="49.78183" lon="2.38208">
        <ele>46.8</ele>
        <time>2022-07-13T07:00:15Z</time>
      </trkpt>
      <trkpt lat="49.78182" lon="2.38213">
        <ele>46.8</ele>
        <time>2022-07-13T07:00:17Z</time>
      </trkpt>
      <trkpt lat="49.7818" lon="2.38221">
        <ele>46.8</ele>
        <time>2022-07-13T07:00:18Z</time>
      </trkpt>
      <trkpt lat="49.78177" lon="2.3822">
        <ele>46.8</ele>
        <time>2022-07-13T07:00:19Z</time>
      </trkpt>
      <trkpt lat="49.78175" lon="2.38218">
        <ele>46.8</ele>
        <time>2022-07-13T07:00:20Z</time>
      </trkpt>
      <trkpt lat="49.78173" lon="2.38216">
        <ele>46.8</ele>
        <time>2022-07-13T07:00:21Z</time>
      </trkpt>
      <trkpt lat="49.78173" lon="2.38214">
        <ele>46.8</ele>
        <time>2022-07-13T07:00:22Z</time>
      </trkpt>
      <trkpt lat="49.78173" lon="2.38212">
        <ele>46.8</ele>
        <time>2022-07-13T07:00:23Z</time>
      </trkpt>
      <trkpt lat="49.78175" lon="2.38206">
        <ele>46.8</ele>
        <time>2022-07-13T07:00:25Z</time>
      </trkpt>
      <trkpt lat="49.78175" lon="2.38204">
        <ele>46.8</ele>
        <time>2022-07-13T07:00:26Z</time>
      </trkpt>
      <trkpt lat="49.78176" lon="2.38203">
        <ele>46.8</ele>
        <time>2022-07-13T07:00:27Z</time>
      </trkpt>
      <trkpt lat="49.78176" lon="2.38203">
        <ele>46.8</ele>
        <time>2022-07-13T07:00:28Z</time>
      </trkpt>
      <trkpt lat="49.78178" lon="2.38203">
        <ele>46.8</ele>
        <time>2022-07-13T07:00:29Z</time>
      </trkpt>
      <trkpt lat="49.78179" lon="2.38204">
        <ele>46.9</ele>
        <time>2022-07-13T07:00:30Z</time>
      </trkpt>
      <trkpt lat="49.78183" lon="2.38206">
        <ele>46.9</ele>
        <time>2022-07-13T07:00:32Z</time>
      </trkpt>
      <trkpt lat="49.78184" lon="2.38206">
        <ele>46.9</ele>
        <time>2022-07-13T07:00:33Z</time>
      </trkpt>
      <trkpt lat="49.78185" lon="2.38206">
        <ele>46.9</ele>
        <time>2022-07-13T07:00:34Z</time>
      </trkpt>
      <trkpt lat="49.78186" lon="2.38205">
        <ele>46.9</ele>
        <time>2022-07-13T07:00:36Z</time>
      </trkpt>
      <trkpt lat="49.78186" lon="2.38204">
        <ele>46.9</ele>
        <time>2022-07-13T07:00:37Z</time>
      </trkpt>
      <trkpt lat="49.78187" lon="2.38204">
        <ele>46.9</ele>
        <time>2022-07-13T07:00:38Z</time>
      </trkpt>
      <trkpt lat="49.7819" lon="2.38207">
        <ele>46.9</ele>
        <time>2022-07-13T07:00:40Z</time>
      </trkpt>
      <trkpt lat="49.78194" lon="2.3821">
        <ele>46.9</ele>
        <time>2022-07-13T07:00:41Z</time>
      </trkpt>
      <trkpt lat="49.78198" lon="2.38211">
        <ele>46.8</ele>
        <time>2022-07-13T07:00:42Z</time>
      </trkpt>
      <trkpt lat="49.78199" lon="2.38211">
        <ele>46.8</ele>
        <time>2022-07-13T07:00:43Z</time>
      </trkpt>
      <trkpt lat="49.782" lon="2.38211">
        <ele>46.8</ele>
        <time>2022-07-13T07:00:44Z</time>
      </trkpt>
      <trkpt lat="49.78203" lon="2.38211">
        <ele>46.8</ele>
        <time>2022-07-13T07:00:45Z</time>
      </trkpt>
      <trkpt lat="49.78204" lon="2.3821">
        <ele>46.7</ele>
        <time>2022-07-13T07:00:47Z</time>
      </trkpt>
      <trkpt lat="49.78205" lon="2.3821">
        <ele>46.7</ele>
        <time>2022-07-13T07:00:48Z</time>
      </trkpt>
      <trkpt lat="49.78207" lon="2.38209">
        <ele>46.7</ele>
        <time>2022-07-13T07:00:49Z</time>
      </trkpt>
      <trkpt lat="49.78208" lon="2.38208">
        <ele>46.7</ele>
        <time>2022-07-13T07:00:50Z</time>
      </trkpt>
      <trkpt lat="49.7821" lon="2.38208">
        <ele>46.7</ele>
        <time>2022-07-13T07:00:51Z</time>
      </trkpt>
      <trkpt lat="49.7821" lon="2.38208">
        <ele>46.7</ele>
        <time>2022-07-13T07:00:52Z</time>
      </trkpt>
      <trkpt lat="49.78211" lon="2.38207">
        <ele>46.7</ele>
        <time>2022-07-13T07:00:53Z</time>
      </trkpt>
      <trkpt lat="49.78214" lon="2.38204">
        <ele>46.6</ele>
        <time>2022-07-13T07:00:55Z</time>
      </trkpt>
      <trkpt lat="49.78214" lon="2.38203">
        <ele>46.6</ele>
        <time>2022-07-13T07:00:56Z</time>
      </trkpt>
      <trkpt lat="49.78216" lon="2.38203">
        <ele>46.6</ele>
        <time>2022-07-13T07:00:57Z</time>
      </trkpt>
      <trkpt lat="49.78217" lon="2.38202">
        <ele>46.6</ele>
        <time>2022-07-13T07:00:58Z</time>
      </trkpt>
      <trkpt lat="49.78217" lon="2.38202">
        <ele>46.6</ele>
        <time>2022-07-13T07:00:59Z</time>
      </trkpt>
      <trkpt lat="49.78218" lon="2.38202">
        <ele>46.6</ele>
        <time>2022-07-13T07:01:00Z</time>
      </trkpt>
      <trkpt lat="49.78219" lon="2.38202">
        <ele>46.5</ele>
        <time>2022-07-13T07:01:02Z</time>
      </trkpt>
      <trkpt lat="49.78221" lon="2.38201">
        <ele>46.5</ele>
        <time>2022-07-13T07:01:03Z</time>
      </trkpt>
      <trkpt lat="49.78222" lon="2.38201">
        <ele>46.6</ele>
        <time>2022-07-13T07:01:04Z</time>
      </trkpt>
      <trkpt lat="49.78224" lon="2.382">
        <ele>46.6</ele>
        <time>2022-07-13T07:01:05Z</time>
      </trkpt>
      <trkpt lat="49.78225" lon="2.382">
        <ele>46.6</ele>
        <time>2022-07-13T07:01:06Z</time>
      </trkpt>
      <trkpt lat="49.78226" lon="2.382">
        <ele>46.6</ele>
        <time>2022-07-13T07:01:07Z</time>
      </trkpt>
      <trkpt lat="49.78229" lon="2.38199">
        <ele>46.6</ele>
        <time>2022-07-13T07:01:09Z</time>
      </trkpt>
      <trkpt lat="49.78229" lon="2.38199">
        <ele>46.7</ele>
        <time>2022-07-13T07:01:10Z</time>
      </trkpt>
      <trkpt lat="49.7823" lon="2.382">
        <ele>46.7</ele>
        <time>2022-07-13T07:01:11Z</time>
      </trkpt>
      <trkpt lat="49.7823" lon="2.382">
        <ele>46.7</ele>
        <time>2022-07-13T07:01:12Z</time>
      </trkpt>
      <trkpt lat="49.78231" lon="2.38201">
        <ele>46.7</ele>
        <time>2022-07-13T07:01:13Z</time>
      </trkpt>
      <trkpt lat="49.78232" lon="2.38201">
        <ele>46.7</ele>
        <time>2022-07-13T07:01:14Z</time>
      </trkpt>
      <trkpt lat="49.78232" lon="2.38201">
        <ele>46.7</ele>
        <time>2022-07-13T07:01:15Z</time>
      </trkpt>
      <trkpt lat="49.78233" lon="2.38202">
        <ele>46.7</ele>
        <time>2022-07-13T07:01:16Z</time>
      </trkpt>
      <trkpt lat="49.78234" lon="2.38202">
        <ele>46.7</ele>
        <time>2022-07-13T07:01:17Z</time>
      </trkpt>
      <trkpt lat="49.78235" lon="2.38202">
        <ele>46.7</ele>
        <time>2022-07-13T07:01:18Z</time>
      </trkpt>
      <trkpt lat="49.78236" lon="2.38202">
        <ele>46.7</ele>
        <time>2022-07-13T07:01:19Z</time>
      </trkpt>
      <trkpt lat="49.78237" lon="2.38199">
        <ele>46.7</ele>
        <time>2022-07-13T07:01:21Z</time>
      </trkpt>
      <trkpt lat="49.78238" lon="2.38198">
        <ele>46.7</ele>
        <time>2022-07-13T07:01:22Z</time>
      </trkpt>
      <trkpt lat="49.78239" lon="2.38197">
        <ele>46.7</ele>
        <time>2022-07-13T07:01:23Z</time>
      </trkpt>
      <trkpt lat="49.78239" lon="2.38196">
        <ele>46.7</ele>
        <time>2022-07-13T07:01:24Z</time>
      </trkpt>
      <trkpt lat="49.7824" lon="2.38196">
        <ele>46.6</ele>
        <time>2022-07-13T07:01:26Z</time>
      </trkpt>
      <trkpt lat="49.78241" lon="2.38197">
        <ele>46.6</ele>
        <time>2022-07-13T07:01:27Z</time>
      </trkpt>
      <trkpt lat="49.78242" lon="2.38197">
        <ele>46.6</ele>
        <time>2022-07-13T07:01:28Z</time>
      </trkpt>
      <trkpt lat="49.78243" lon="2.38197">
        <ele>46.6</ele>
        <time>2022-07-13T07:01:29Z</time>
      </trkpt>
      <trkpt lat="49.78244" lon="2.38197">
        <ele>46.5</ele>
        <time>2022-07-13T07:01:30Z</time>
      </trkpt>
      <trkpt lat="49.78245" lon="2.38197">
        <ele>46.5</ele>
        <time>2022-07-13T07:01:32Z</time>
      </trkpt>
      <trkpt lat="49.78246" lon="2.38197">
        <ele>46.5</ele>
        <time>2022-07-13T07:01:33Z</time>
      </trkpt>
      <trkpt lat="49.78248" lon="2.38197">
        <ele>46.5</ele>
        <time>2022-07-13T07:01:34Z</time>
      </trkpt>
      <trkpt lat="49.78249" lon="2.38198">
        <ele>46.4</ele>
        <time>2022-07-13T07:01:35Z</time>
      </trkpt>
      <trkpt lat="49.78251" lon="2.38198">
        <ele>46.4</ele>
        <time>2022-07-13T07:01:36Z</time>
      </trkpt>
      <trkpt lat="49.78251" lon="2.38198">
        <ele>46.3</ele>
        <time>2022-07-13T07:01:37Z</time>
      </trkpt>
      <trkpt lat="49.78252" lon="2.38198">
        <ele>46.3</ele>
        <time>2022-07-13T07:01:38Z</time>
      </trkpt>
      <trkpt lat="49.78254" lon="2.38198">
        <ele>46.2</ele>
        <time>2022-07-13T07:01:39Z</time>
      </trkpt>
      <trkpt lat="49.78255" lon="2.38198">
        <ele>46.1</ele>
        <time>2022-07-13T07:01:40Z</time>
      </trkpt>
      <trkpt lat="49.78256" lon="2.38199">
        <ele>46.1</ele>
        <time>2022-07-13T07:01:41Z</time>
      </trkpt>
      <trkpt lat="49.78258" lon="2.38199">
        <ele>45.9</ele>
        <time>2022-07-13T07:01:42Z</time>
      </trkpt>
      <trkpt lat="49.7826" lon="2.38199">
        <ele>45.8</ele>
        <time>2022-07-13T07:01:44Z</time>
      </trkpt>
      <trkpt lat="49.78261" lon="2.38199">
        <ele>45.8</ele>
        <time>2022-07-13T07:01:45Z</time>
      </trkpt>
      <trkpt lat="49.78262" lon="2.38199">
        <ele>45.7</ele>
        <time>2022-07-13T07:01:46Z</time>
      </trkpt>
      <trkpt lat="49.78264" lon="2.38198">
        <ele>45.6</ele>
        <time>2022-07-13T07:01:47Z</time>
      </trkpt>
      <trkpt lat="49.78266" lon="2.38198">
        <ele>45.5</ele>
        <time>2022-07-13T07:01:49Z</time>
      </trkpt>
      <trkpt lat="49.78267" lon="2.38198">
        <ele>45.4</ele>
        <time>2022-07-13T07:01:50Z</time>
      </trkpt>
      <trkpt lat="49.78269" lon="2.38198">
        <ele>45.4</ele>
        <time>2022-07-13T07:01:51Z</time>
      </trkpt>
      <trkpt lat="49.7827" lon="2.38198">
        <ele>45.3</ele>
        <time>2022-07-13T07:01:52Z</time>
      </trkpt>
      <trkpt lat="49.78272" lon="2.38198">
        <ele>45.2</ele>
        <time>2022-07-13T07:01:53Z</time>
      </trkpt>
      <trkpt lat="49.78274" lon="2.38198">
        <ele>45.1</ele>
        <time>2022-07-13T07:01:54Z</time>
      </trkpt>
      <trkpt lat="49.78275" lon="2.38198">
        <ele>45</ele>
        <time>2022-07-13T07:01:56Z</time>
      </trkpt>
      <trkpt lat="49.78276" lon="2.38198">
        <ele>45</ele>
        <time>2022-07-13T07:01:57Z</time>
      </trkpt>
      <trkpt lat="49.78277" lon="2.38197">
        <ele>44.9</ele>
        <time>2022-07-13T07:01:58Z</time>
      </trkpt>
      <trkpt lat="49.78278" lon="2.38197">
        <ele>44.9</ele>
        <time>2022-07-13T07:01:59Z</time>
      </trkpt>
      <trkpt lat="49.78279" lon="2.38196">
        <ele>44.8</ele>
        <time>2022-07-13T07:02:00Z</time>
      </trkpt>
      <trkpt lat="49.7828" lon="2.38196">
        <ele>44.8</ele>
        <time>2022-07-13T07:02:02Z</time>
      </trkpt>
      <trkpt lat="49.78282" lon="2.38195">
        <ele>44.7</ele>
        <time>2022-07-13T07:02:03Z</time>
      </trkpt>
      <trkpt lat="49.78282" lon="2.38196">
        <ele>44.7</ele>
        <time>2022-07-13T07:02:04Z</time>
      </trkpt>
      <trkpt lat="49.78283" lon="2.38196">
        <ele>44.6</ele>
        <time>2022-07-13T07:02:05Z</time>
      </trkpt>
      <trkpt lat="49.78284" lon="2.38197">
        <ele>44.6</ele>
        <time>2022-07-13T07:02:06Z</time>
      </trkpt>
      <trkpt lat="49.78285" lon="2.38197">
        <ele>44.5</ele>
        <time>2022-07-13T07:02:07Z</time>
      </trkpt>
      <trkpt lat="49.78286" lon="2.38197">
        <ele>44.5</ele>
        <time>2022-07-13T07:02:09Z</time>
      </trkpt>
      <trkpt lat="49.78286" lon="2.38197">
        <ele>44.5</ele>
        <time>2022-07-13T07:02:10Z</time>
      </trkpt>
      <trkpt lat="49.78287" lon="2.38196">
        <ele>44.4</ele>
        <time>2022-07-13T07:02:11Z</time>
      </trkpt>
      <trkpt lat="49.78287" lon="2.38196">
        <ele>44.4</ele>
        <time>2022-07-13T07:02:12Z</time>
      </trkpt>
      <trkpt lat="49.78287" lon="2.38196">
        <ele>44.4</ele>
        <time>2022-07-13T07:02:13Z</time>
      </trkpt>
      <trkpt lat="49.78289" lon="2.38196">
        <ele>44.3</ele>
        <time>2022-07-13T07:02:14Z</time>
      </trkpt>
      <trkpt lat="49.7829" lon="2.38196">
        <ele>44.2</ele>
        <time>2022-07-13T07:02:16Z</time>
      </trkpt>
      <trkpt lat="49.78291" lon="2.38195">
        <ele>44.2</ele>
        <time>2022-07-13T07:02:17Z</time>
      </trkpt>
      <trkpt lat="49.78293" lon="2.38195">
        <ele>44.1</ele>
        <time>2022-07-13T07:02:18Z</time>
      </trkpt>
      <trkpt lat="49.78294" lon="2.38195">
        <ele>44</ele>
        <time>2022-07-13T07:02:19Z</time>
      </trkpt>
      <trkpt lat="49.78297" lon="2.38194">
        <ele>43.9</ele>
        <time>2022-07-13T07:02:21Z</time>
      </trkpt>
      <trkpt lat="49.78298" lon="2.38194">
        <ele>43.9</ele>
        <time>2022-07-13T07:02:22Z</time>
      </trkpt>
      <trkpt lat="49.783" lon="2.38194">
        <ele>43.8</ele>
        <time>2022-07-13T07:02:23Z</time>
      </trkpt>
      <trkpt lat="49.78301" lon="2.38193">
        <ele>43.7</ele>
        <time>2022-07-13T07:02:24Z</time>
      </trkpt>
      <trkpt lat="49.78303" lon="2.38193">
        <ele>43.7</ele>
        <time>2022-07-13T07:02:26Z</time>
      </trkpt>
      <trkpt lat="49.78304" lon="2.38193">
        <ele>43.6</ele>
        <time>2022-07-13T07:02:27Z</time>
      </trkpt>
      <trkpt lat="49.78306" lon="2.38192">
        <ele>43.5</ele>
        <time>2022-07-13T07:02:28Z</time>
      </trkpt>
      <trkpt lat="49.78307" lon="2.38191">
        <ele>43.5</ele>
        <time>2022-07-13T07:02:29Z</time>
      </trkpt>
      <trkpt lat="49.78308" lon="2.38191">
        <ele>43.5</ele>
        <time>2022-07-13T07:02:30Z</time>
      </trkpt>
      <trkpt lat="49.7831" lon="2.38191">
        <ele>43.4</ele>
        <time>2022-07-13T07:02:32Z</time>
      </trkpt>
      <trkpt lat="49.78311" lon="2.38191">
        <ele>43.4</ele>
        <time>2022-07-13T07:02:33Z</time>
      </trkpt>
      <trkpt lat="49.78313" lon="2.38191">
        <ele>43.3</ele>
        <time>2022-07-13T07:02:34Z</time>
      </trkpt>
      <trkpt lat="49.78314" lon="2.3819">
        <ele>43.3</ele>
        <time>2022-07-13T07:02:35Z</time>
      </trkpt>
      <trkpt lat="49.78314" lon="2.3819">
        <ele>43.3</ele>
        <time>2022-07-13T07:02:36Z</time>
      </trkpt>
      <trkpt lat="49.78316" lon="2.3819">
        <ele>43.2</ele>
        <time>2022-07-13T07:02:38Z</time>
      </trkpt>
      <trkpt lat="49.78318" lon="2.3819">
        <ele>43.2</ele>
        <time>2022-07-13T07:02:39Z</time>
      </trkpt>
      <trkpt lat="49.78319" lon="2.3819">
        <ele>43.1</ele>
        <time>2022-07-13T07:02:40Z</time>
      </trkpt>
      <trkpt lat="49.78321" lon="2.3819">
        <ele>43.1</ele>
        <time>2022-07-13T07:02:41Z</time>
      </trkpt>
      <trkpt lat="49.78322" lon="2.38191">
        <ele>43</ele>
        <time>2022-07-13T07:02:42Z</time>
      </trkpt>
      <trkpt lat="49.78323" lon="2.38192">
        <ele>43</ele>
        <time>2022-07-13T07:02:43Z</time>
      </trkpt>
      <trkpt lat="49.78324" lon="2.38192">
        <ele>43</ele>
        <time>2022-07-13T07:02:44Z</time>
      </trkpt>
      <trkpt lat="49.78326" lon="2.38191">
        <ele>42.9</ele>
        <time>2022-07-13T07:02:45Z</time>
      </trkpt>
      <trkpt lat="49.78327" lon="2.38191">
        <ele>42.9</ele>
        <time>2022-07-13T07:02:46Z</time>
      </trkpt>
      <trkpt lat="49.78327" lon="2.3819">
        <ele>42.9</ele>
        <time>2022-07-13T07:02:47Z</time>
      </trkpt>
      <trkpt lat="49.78328" lon="2.3819">
        <ele>42.9</ele>
        <time>2022-07-13T07:02:48Z</time>
      </trkpt>
      <trkpt lat="49.78329" lon="2.38189">
        <ele>42.9</ele>
        <time>2022-07-13T07:02:49Z</time>
      </trkpt>
      <trkpt lat="49.7833" lon="2.38188">
        <ele>42.9</ele>
        <time>2022-07-13T07:02:50Z</time>
      </trkpt>
      <trkpt lat="49.78331" lon="2.38188">
        <ele>42.9</ele>
        <time>2022-07-13T07:02:51Z</time>
      </trkpt>
      <trkpt lat="49.78332" lon="2.38186">
        <ele>42.9</ele>
        <time>2022-07-13T07:02:52Z</time>
      </trkpt>
      <trkpt lat="49.78333" lon="2.38186">
        <ele>42.9</ele>
        <time>2022-07-13T07:02:53Z</time>
      </trkpt>
      <trkpt lat="49.78333" lon="2.38185">
        <ele>42.9</ele>
        <time>2022-07-13T07:02:55Z</time>
      </trkpt>
      <trkpt lat="49.78334" lon="2.38184">
        <ele>42.9</ele>
        <time>2022-07-13T07:02:56Z</time>
      </trkpt>
      <trkpt lat="49.78335" lon="2.38183">
        <ele>42.9</ele>
        <time>2022-07-13T07:02:57Z</time>
      </trkpt>
      <trkpt lat="49.78336" lon="2.38182">
        <ele>42.9</ele>
        <time>2022-07-13T07:02:58Z</time>
      </trkpt>
      <trkpt lat="49.78337" lon="2.38181">
        <ele>42.8</ele>
        <time>2022-07-13T07:02:59Z</time>
      </trkpt>
      <trkpt lat="49.78338" lon="2.3818">
        <ele>42.8</ele>
        <time>2022-07-13T07:03:00Z</time>
      </trkpt>
      <trkpt lat="49.78338" lon="2.38179">
        <ele>42.8</ele>
        <time>2022-07-13T07:03:01Z</time>
      </trkpt>
      <trkpt lat="49.78339" lon="2.38177">
        <ele>42.8</ele>
        <time>2022-07-13T07:03:02Z</time>
      </trkpt>
      <trkpt lat="49.7834" lon="2.38175">
        <ele>42.8</ele>
        <time>2022-07-13T07:03:03Z</time>
      </trkpt>
      <trkpt lat="49.7834" lon="2.38174">
        <ele>42.8</ele>
        <time>2022-07-13T07:03:04Z</time>
      </trkpt>
      <trkpt lat="49.78341" lon="2.38173">
        <ele>42.8</ele>
        <time>2022-07-13T07:03:05Z</time>
      </trkpt>
      <trkpt lat="49.78341" lon="2.38171">
        <ele>42.7</ele>
        <time>2022-07-13T07:03:07Z</time>
      </trkpt>
      <trkpt lat="49.78342" lon="2.38168">
        <ele>42.7</ele>
        <time>2022-07-13T07:03:08Z</time>
      </trkpt>
      <trkpt lat="49.78343" lon="2.38167">
        <ele>42.7</ele>
        <time>2022-07-13T07:03:09Z</time>
      </trkpt>
      <trkpt lat="49.78344" lon="2.38165">
        <ele>42.6</ele>
        <time>2022-07-13T07:03:10Z</time>
      </trkpt>
      <trkpt lat="49.78345" lon="2.38163">
        <ele>42.6</ele>
        <time>2022-07-13T07:03:11Z</time>
      </trkpt>
      <trkpt lat="49.78346" lon="2.38161">
        <ele>42.6</ele>
        <time>2022-07-13T07:03:12Z</time>
      </trkpt>
      <trkpt lat="49.78347" lon="2.3816">
        <ele>42.5</ele>
        <time>2022-07-13T07:03:13Z</time>
      </trkpt>
      <trkpt lat="49.78348" lon="2.38157">
        <ele>42.5</ele>
        <time>2022-07-13T07:03:14Z</time>
      </trkpt>
      <trkpt lat="49.78349" lon="2.38155">
        <ele>42.4</ele>
        <time>2022-07-13T07:03:15Z</time>
      </trkpt>
      <trkpt lat="49.7835" lon="2.38153">
        <ele>42.4</ele>
        <time>2022-07-13T07:03:16Z</time>
      </trkpt>
      <trkpt lat="49.78351" lon="2.38149">
        <ele>42.3</ele>
        <time>2022-07-13T07:03:17Z</time>
      </trkpt>
      <trkpt lat="49.78351" lon="2.38148">
        <ele>42.2</ele>
        <time>2022-07-13T07:03:18Z</time>
      </trkpt>
      <trkpt lat="49.78352" lon="2.38145">
        <ele>42.2</ele>
        <time>2022-07-13T07:03:19Z</time>
      </trkpt>
      <trkpt lat="49.78353" lon="2.38142">
        <ele>42.1</ele>
        <time>2022-07-13T07:03:21Z</time>
      </trkpt>
      <trkpt lat="49.78354" lon="2.38138">
        <ele>42</ele>
        <time>2022-07-13T07:03:22Z</time>
      </trkpt>
      <trkpt lat="49.78355" lon="2.38135">
        <ele>41.9</ele>
        <time>2022-07-13T07:03:23Z</time>
      </trkpt>
      <trkpt lat="49.78355" lon="2.38134">
        <ele>41.9</ele>
        <time>2022-07-13T07:03:24Z</time>
      </trkpt>
      <trkpt lat="49.78356" lon="2.38133">
        <ele>41.8</ele>
        <time>2022-07-13T07:03:25Z</time>
      </trkpt>
      <trkpt lat="49.78356" lon="2.38131">
        <ele>41.8</ele>
        <time>2022-07-13T07:03:26Z</time>
      </trkpt>
      <trkpt lat="49.78357" lon="2.38129">
        <ele>41.8</ele>
        <time>2022-07-13T07:03:27Z</time>
      </trkpt>
      <trkpt lat="49.78358" lon="2.38128">
        <ele>41.7</ele>
        <time>2022-07-13T07:03:28Z</time>
      </trkpt>
      <trkpt lat="49.78358" lon="2.38127">
        <ele>41.7</ele>
        <time>2022-07-13T07:03:29Z</time>
      </trkpt>
      <trkpt lat="49.78359" lon="2.38125">
        <ele>41.6</ele>
        <time>2022-07-13T07:03:31Z</time>
      </trkpt>
      <trkpt lat="49.7836" lon="2.38124">
        <ele>41.6</ele>
        <time>2022-07-13T07:03:32Z</time>
      </trkpt>
      <trkpt lat="49.7836" lon="2.38123">
        <ele>41.6</ele>
        <time>2022-07-13T07:03:33Z</time>
      </trkpt>
      <trkpt lat="49.78361" lon="2.3812">
        <ele>41.5</ele>
        <time>2022-07-13T07:03:35Z</time>
      </trkpt>
      <trkpt lat="49.78361" lon="2.38118">
        <ele>41.5</ele>
        <time>2022-07-13T07:03:36Z</time>
      </trkpt>
      <trkpt lat="49.78363" lon="2.38113">
        <ele>41.4</ele>
        <time>2022-07-13T07:03:37Z</time>
      </trkpt>
      <trkpt lat="49.78363" lon="2.38111">
        <ele>41.3</ele>
        <time>2022-07-13T07:03:38Z</time>
      </trkpt>
      <trkpt lat="49.78365" lon="2.38108">
        <ele>41.3</ele>
        <time>2022-07-13T07:03:39Z</time>
      </trkpt>
      <trkpt lat="49.78366" lon="2.38106">
        <ele>41.2</ele>
        <time>2022-07-13T07:03:41Z</time>
      </trkpt>
      <trkpt lat="49.78368" lon="2.38105">
        <ele>41.2</ele>
        <time>2022-07-13T07:03:42Z</time>
      </trkpt>
      <trkpt lat="49.78369" lon="2.38103">
        <ele>41.2</ele>
        <time>2022-07-13T07:03:43Z</time>
      </trkpt>
      <trkpt lat="49.78369" lon="2.38102">
        <ele>41.1</ele>
        <time>2022-07-13T07:03:44Z</time>
      </trkpt>
      <trkpt lat="49.7837" lon="2.38101">
        <ele>41.1</ele>
        <time>2022-07-13T07:03:45Z</time>
      </trkpt>
      <trkpt lat="49.78371" lon="2.38099">
        <ele>41.1</ele>
        <time>2022-07-13T07:03:46Z</time>
      </trkpt>
      <trkpt lat="49.78374" lon="2.38095">
        <ele>41</ele>
        <time>2022-07-13T07:03:48Z</time>
      </trkpt>
      <trkpt lat="49.78374" lon="2.38095">
        <ele>41</ele>
        <time>2022-07-13T07:03:49Z</time>
      </trkpt>
      <trkpt lat="49.78375" lon="2.38094">
        <ele>41</ele>
        <time>2022-07-13T07:03:50Z</time>
      </trkpt>
      <trkpt lat="49.78376" lon="2.38093">
        <ele>41</ele>
        <time>2022-07-13T07:03:51Z</time>
      </trkpt>
      <trkpt lat="49.78377" lon="2.38093">
        <ele>41</ele>
        <time>2022-07-13T07:03:52Z</time>
      </trkpt>
      <trkpt lat="49.7838" lon="2.38091">
        <ele>41</ele>
        <time>2022-07-13T07:03:53Z</time>
      </trkpt>
      <trkpt lat="49.78381" lon="2.3809">
        <ele>40.9</ele>
        <time>2022-07-13T07:03:55Z</time>
      </trkpt>
      <trkpt lat="49.78383" lon="2.3809">
        <ele>40.9</ele>
        <time>2022-07-13T07:03:56Z</time>
      </trkpt>
      <trkpt lat="49.78384" lon="2.38089">
        <ele>40.9</ele>
        <time>2022-07-13T07:03:57Z</time>
      </trkpt>
      <trkpt lat="49.78385" lon="2.38089">
        <ele>40.9</ele>
        <time>2022-07-13T07:03:58Z</time>
      </trkpt>
      <trkpt lat="49.78385" lon="2.38089">
        <ele>40.9</ele>
        <time>2022-07-13T07:03:59Z</time>
      </trkpt>
      <trkpt lat="49.78386" lon="2.38089">
        <ele>40.9</ele>
        <time>2022-07-13T07:04:00Z</time>
      </trkpt>
      <trkpt lat="49.78387" lon="2.38088">
        <ele>40.9</ele>
        <time>2022-07-13T07:04:01Z</time>
      </trkpt>
      <trkpt lat="49.78389" lon="2.38088">
        <ele>40.9</ele>
        <time>2022-07-13T07:04:02Z</time>
      </trkpt>
      <trkpt lat="49.78391" lon="2.38089">
        <ele>40.8</ele>
        <time>2022-07-13T07:04:03Z</time>
      </trkpt>
      <trkpt lat="49.78391" lon="2.38089">
        <ele>40.8</ele>
        <time>2022-07-13T07:04:04Z</time>
      </trkpt>
      <trkpt lat="49.78392" lon="2.38089">
        <ele>40.8</ele>
        <time>2022-07-13T07:04:05Z</time>
      </trkpt>
      <trkpt lat="49.78393" lon="2.38089">
        <ele>40.8</ele>
        <time>2022-07-13T07:04:06Z</time>
      </trkpt>
      <trkpt lat="49.78394" lon="2.3809">
        <ele>40.8</ele>
        <time>2022-07-13T07:04:07Z</time>
      </trkpt>
      <trkpt lat="49.78397" lon="2.38091">
        <ele>40.8</ele>
        <time>2022-07-13T07:04:08Z</time>
      </trkpt>
      <trkpt lat="49.78397" lon="2.38091">
        <ele>40.8</ele>
        <time>2022-07-13T07:04:09Z</time>
      </trkpt>
      <trkpt lat="49.78398" lon="2.38091">
        <ele>40.8</ele>
        <time>2022-07-13T07:04:10Z</time>
      </trkpt>
      <trkpt lat="49.78399" lon="2.38092">
        <ele>40.8</ele>
        <time>2022-07-13T07:04:11Z</time>
      </trkpt>
      <trkpt lat="49.784" lon="2.38092">
        <ele>40.8</ele>
        <time>2022-07-13T07:04:12Z</time>
      </trkpt>
      <trkpt lat="49.78402" lon="2.38093">
        <ele>40.7</ele>
        <time>2022-07-13T07:04:13Z</time>
      </trkpt>
      <trkpt lat="49.78403" lon="2.38093">
        <ele>40.7</ele>
        <time>2022-07-13T07:04:14Z</time>
      </trkpt>
      <trkpt lat="49.78404" lon="2.38094">
        <ele>40.7</ele>
        <time>2022-07-13T07:04:16Z</time>
      </trkpt>
      <trkpt lat="49.78406" lon="2.38094">
        <ele>40.7</ele>
        <time>2022-07-13T07:04:17Z</time>
      </trkpt>
      <trkpt lat="49.78407" lon="2.38095">
        <ele>40.7</ele>
        <time>2022-07-13T07:04:19Z</time>
      </trkpt>
      <trkpt lat="49.78409" lon="2.38095">
        <ele>40.7</ele>
        <time>2022-07-13T07:04:20Z</time>
      </trkpt>
      <trkpt lat="49.7841" lon="2.38096">
        <ele>40.7</ele>
        <time>2022-07-13T07:04:21Z</time>
      </trkpt>
      <trkpt lat="49.78411" lon="2.38096">
        <ele>40.7</ele>
        <time>2022-07-13T07:04:22Z</time>
      </trkpt>
      <trkpt lat="49.78412" lon="2.38098">
        <ele>40.7</ele>
        <time>2022-07-13T07:04:23Z</time>
      </trkpt>
      <trkpt lat="49.78414" lon="2.38098">
        <ele>40.7</ele>
        <time>2022-07-13T07:04:25Z</time>
      </trkpt>
      <trkpt lat="49.78415" lon="2.38099">
        <ele>40.6</ele>
        <time>2022-07-13T07:04:26Z</time>
      </trkpt>
      <trkpt lat="49.78416" lon="2.381">
        <ele>40.6</ele>
        <time>2022-07-13T07:04:27Z</time>
      </trkpt>
      <trkpt lat="49.78418" lon="2.38101">
        <ele>40.6</ele>
        <time>2022-07-13T07:04:29Z</time>
      </trkpt>
      <trkpt lat="49.78419" lon="2.38103">
        <ele>40.6</ele>
        <time>2022-07-13T07:04:30Z</time>
      </trkpt>
      <trkpt lat="49.78419" lon="2.38104">
        <ele>40.6</ele>
        <time>2022-07-13T07:04:31Z</time>
      </trkpt>
      <trkpt lat="49.7842" lon="2.38105">
        <ele>40.6</ele>
        <time>2022-07-13T07:04:32Z</time>
      </trkpt>
      <trkpt lat="49.7842" lon="2.38106">
        <ele>40.6</ele>
        <time>2022-07-13T07:04:33Z</time>
      </trkpt>
      <trkpt lat="49.78421" lon="2.38109">
        <ele>40.6</ele>
        <time>2022-07-13T07:04:34Z</time>
      </trkpt>
      <trkpt lat="49.78422" lon="2.38109">
        <ele>40.6</ele>
        <time>2022-07-13T07:04:36Z</time>
      </trkpt>
      <trkpt lat="49.78423" lon="2.3811">
        <ele>40.6</ele>
        <time>2022-07-13T07:04:37Z</time>
      </trkpt>
      <trkpt lat="49.78424" lon="2.3811">
        <ele>40.6</ele>
        <time>2022-07-13T07:04:38Z</time>
      </trkpt>
      <trkpt lat="49.78425" lon="2.3811">
        <ele>40.6</ele>
        <time>2022-07-13T07:04:39Z</time>
      </trkpt>
      <trkpt lat="49.78426" lon="2.38109">
        <ele>40.6</ele>
        <time>2022-07-13T07:04:40Z</time>
      </trkpt>
      <trkpt lat="49.78427" lon="2.38107">
        <ele>40.6</ele>
        <time>2022-07-13T07:04:41Z</time>
      </trkpt>
      <trkpt lat="49.78428" lon="2.38106">
        <ele>40.5</ele>
        <time>2022-07-13T07:04:42Z</time>
      </trkpt>
      <trkpt lat="49.78428" lon="2.38101">
        <ele>40.5</ele>
        <time>2022-07-13T07:04:43Z</time>
      </trkpt>
      <trkpt lat="49.7843" lon="2.38097">
        <ele>40.5</ele>
        <time>2022-07-13T07:04:44Z</time>
      </trkpt>
      <trkpt lat="49.78431" lon="2.38097">
        <ele>40.5</ele>
        <time>2022-07-13T07:04:45Z</time>
      </trkpt>
      <trkpt lat="49.78434" lon="2.38097">
        <ele>40.5</ele>
        <time>2022-07-13T07:04:47Z</time>
      </trkpt>
      <trkpt lat="49.78435" lon="2.38097">
        <ele>40.5</ele>
        <time>2022-07-13T07:04:49Z</time>
      </trkpt>
      <trkpt lat="49.78437" lon="2.38097">
        <ele>40.5</ele>
        <time>2022-07-13T07:04:50Z</time>
      </trkpt>
      <trkpt lat="49.78438" lon="2.38098">
        <ele>40.5</ele>
        <time>2022-07-13T07:04:51Z</time>
      </trkpt>
      <trkpt lat="49.7844" lon="2.38098">
        <ele>40.5</ele>
        <time>2022-07-13T07:04:52Z</time>
      </trkpt>
      <trkpt lat="49.78441" lon="2.38098">
        <ele>40.5</ele>
        <time>2022-07-13T07:04:53Z</time>
      </trkpt>
      <trkpt lat="49.78443" lon="2.38099">
        <ele>40.5</ele>
        <time>2022-07-13T07:04:54Z</time>
      </trkpt>
      <trkpt lat="49.78444" lon="2.38099">
        <ele>40.5</ele>
        <time>2022-07-13T07:04:56Z</time>
      </trkpt>
      <trkpt lat="49.78445" lon="2.38099">
        <ele>40.5</ele>
        <time>2022-07-13T07:04:57Z</time>
      </trkpt>
      <trkpt lat="49.78446" lon="2.38099">
        <ele>40.5</ele>
        <time>2022-07-13T07:04:58Z</time>
      </trkpt>
      <trkpt lat="49.78446" lon="2.38099">
        <ele>40.5</ele>
        <time>2022-07-13T07:04:59Z</time>
      </trkpt>
      <trkpt lat="49.78448" lon="2.381">
        <ele>40.5</ele>
        <time>2022-07-13T07:05:00Z</time>
      </trkpt>
      <trkpt lat="49.78449" lon="2.381">
        <ele>40.5</ele>
        <time>2022-07-13T07:05:01Z</time>
      </trkpt>
      <trkpt lat="49.78451" lon="2.38101">
        <ele>40.5</ele>
        <time>2022-07-13T07:05:03Z</time>
      </trkpt>
      <trkpt lat="49.78454" lon="2.38102">
        <ele>40.5</ele>
        <time>2022-07-13T07:05:04Z</time>
      </trkpt>
      <trkpt lat="49.78455" lon="2.38102">
        <ele>40.5</ele>
        <time>2022-07-13T07:05:05Z</time>
      </trkpt>
      <trkpt lat="49.78457" lon="2.38103">
        <ele>40.5</ele>
        <time>2022-07-13T07:05:06Z</time>
      </trkpt>
      <trkpt lat="49.78458" lon="2.38104">
        <ele>40.4</ele>
        <time>2022-07-13T07:05:07Z</time>
      </trkpt>
      <trkpt lat="49.78461" lon="2.38106">
        <ele>40.4</ele>
        <time>2022-07-13T07:05:08Z</time>
      </trkpt>
      <trkpt lat="49.78462" lon="2.38106">
        <ele>40.4</ele>
        <time>2022-07-13T07:05:09Z</time>
      </trkpt>
      <trkpt lat="49.78464" lon="2.38108">
        <ele>40.4</ele>
        <time>2022-07-13T07:05:10Z</time>
      </trkpt>
      <trkpt lat="49.78465" lon="2.38109">
        <ele>40.4</ele>
        <time>2022-07-13T07:05:11Z</time>
      </trkpt>
      <trkpt lat="49.78468" lon="2.3811">
        <ele>40.4</ele>
        <time>2022-07-13T07:05:13Z</time>
      </trkpt>
      <trkpt lat="49.78469" lon="2.3811">
        <ele>40.4</ele>
        <time>2022-07-13T07:05:14Z</time>
      </trkpt>
      <trkpt lat="49.7847" lon="2.3811">
        <ele>40.4</ele>
        <time>2022-07-13T07:05:15Z</time>
      </trkpt>
      <trkpt lat="49.78471" lon="2.3811">
        <ele>40.4</ele>
        <time>2022-07-13T07:05:16Z</time>
      </trkpt>
      <trkpt lat="49.78472" lon="2.3811">
        <ele>40.4</ele>
        <time>2022-07-13T07:05:17Z</time>
      </trkpt>
      <trkpt lat="49.78473" lon="2.38111">
        <ele>40.4</ele>
        <time>2022-07-13T07:05:18Z</time>
      </trkpt>
      <trkpt lat="49.78474" lon="2.38111">
        <ele>40.4</ele>
        <time>2022-07-13T07:05:19Z</time>
      </trkpt>
      <trkpt lat="49.78475" lon="2.3811">
        <ele>40.4</ele>
        <time>2022-07-13T07:05:20Z</time>
      </trkpt>
      <trkpt lat="49.78477" lon="2.38108">
        <ele>40.4</ele>
        <time>2022-07-13T07:05:21Z</time>
      </trkpt>
      <trkpt lat="49.78477" lon="2.38108">
        <ele>40.4</ele>
        <time>2022-07-13T07:05:23Z</time>
      </trkpt>
      <trkpt lat="49.78478" lon="2.38108">
        <ele>40.4</ele>
        <time>2022-07-13T07:05:24Z</time>
      </trkpt>
      <trkpt lat="49.78479" lon="2.38108">
        <ele>40.4</ele>
        <time>2022-07-13T07:05:25Z</time>
      </trkpt>
      <trkpt lat="49.7848" lon="2.38109">
        <ele>40.4</ele>
        <time>2022-07-13T07:05:26Z</time>
      </trkpt>
      <trkpt lat="49.78482" lon="2.38109">
        <ele>40.4</ele>
        <time>2022-07-13T07:05:28Z</time>
      </trkpt>
      <trkpt lat="49.78484" lon="2.38109">
        <ele>40.4</ele>
        <time>2022-07-13T07:05:29Z</time>
      </trkpt>
      <trkpt lat="49.78485" lon="2.38109">
        <ele>40.4</ele>
        <time>2022-07-13T07:05:30Z</time>
      </trkpt>
      <trkpt lat="49.78486" lon="2.38109">
        <ele>40.4</ele>
        <time>2022-07-13T07:05:31Z</time>
      </trkpt>
      <trkpt lat="49.78487" lon="2.3811">
        <ele>40.3</ele>
        <time>2022-07-13T07:05:32Z</time>
      </trkpt>
      <trkpt lat="49.78488" lon="2.3811">
        <ele>40.3</ele>
        <time>2022-07-13T07:05:34Z</time>
      </trkpt>
      <trkpt lat="49.78489" lon="2.38111">
        <ele>40.3</ele>
        <time>2022-07-13T07:05:35Z</time>
      </trkpt>
      <trkpt lat="49.7849" lon="2.38112">
        <ele>40.3</ele>
        <time>2022-07-13T07:05:36Z</time>
      </trkpt>
      <trkpt lat="49.78491" lon="2.38113">
        <ele>40.3</ele>
        <time>2022-07-13T07:05:37Z</time>
      </trkpt>
      <trkpt lat="49.78492" lon="2.38113">
        <ele>40.3</ele>
        <time>2022-07-13T07:05:38Z</time>
      </trkpt>
      <trkpt lat="49.78493" lon="2.38112">
        <ele>40.3</ele>
        <time>2022-07-13T07:05:39Z</time>
      </trkpt>
      <trkpt lat="49.78494" lon="2.38112">
        <ele>40.3</ele>
        <time>2022-07-13T07:05:40Z</time>
      </trkpt>
      <trkpt lat="49.78496" lon="2.38113">
        <ele>40.3</ele>
        <time>2022-07-13T07:05:41Z</time>
      </trkpt>
      <trkpt lat="49.78497" lon="2.38113">
        <ele>40.3</ele>
        <time>2022-07-13T07:05:42Z</time>
      </trkpt>
      <trkpt lat="49.78498" lon="2.38113">
        <ele>40.3</ele>
        <time>2022-07-13T07:05:43Z</time>
      </trkpt>
      <trkpt lat="49.78499" lon="2.38113">
        <ele>40.3</ele>
        <time>2022-07-13T07:05:44Z</time>
      </trkpt>
      <trkpt lat="49.78499" lon="2.38114">
        <ele>40.3</ele>
        <time>2022-07-13T07:05:45Z</time>
      </trkpt>
      <trkpt lat="49.785" lon="2.38114">
        <ele>40.3</ele>
        <time>2022-07-13T07:05:46Z</time>
      </trkpt>
      <trkpt lat="49.785" lon="2.38115">
        <ele>40.3</ele>
        <time>2022-07-13T07:05:47Z</time>
      </trkpt>
      <trkpt lat="49.78501" lon="2.38115">
        <ele>40.3</ele>
        <time>2022-07-13T07:05:49Z</time>
      </trkpt>
      <trkpt lat="49.78502" lon="2.38115">
        <ele>40.3</ele>
        <time>2022-07-13T07:05:50Z</time>
      </trkpt>
      <trkpt lat="49.78503" lon="2.38115">
        <ele>40.3</ele>
        <time>2022-07-13T07:05:51Z</time>
      </trkpt>
      <trkpt lat="49.78505" lon="2.38115">
        <ele>40.3</ele>
        <time>2022-07-13T07:05:52Z</time>
      </trkpt>
      <trkpt lat="49.78506" lon="2.38115">
        <ele>40.3</ele>
        <time>2022-07-13T07:05:53Z</time>
      </trkpt>
      <trkpt lat="49.78508" lon="2.38115">
        <ele>40.3</ele>
        <time>2022-07-13T07:05:54Z</time>
      </trkpt>
      <trkpt lat="49.78509" lon="2.38115">
        <ele>40.3</ele>
        <time>2022-07-13T07:05:55Z</time>
      </trkpt>
      <trkpt lat="49.78511" lon="2.38115">
        <ele>40.3</ele>
        <time>2022-07-13T07:05:56Z</time>
      </trkpt>
      <trkpt lat="49.78513" lon="2.38115">
        <ele>40.2</ele>
        <time>2022-07-13T07:05:58Z</time>
      </trkpt>
      <trkpt lat="49.78515" lon="2.38114">
        <ele>40.2</ele>
        <time>2022-07-13T07:05:59Z</time>
      </trkpt>
      <trkpt lat="49.78516" lon="2.38114">
        <ele>40.2</ele>
        <time>2022-07-13T07:06:00Z</time>
      </trkpt>
      <trkpt lat="49.78518" lon="2.38114">
        <ele>40.2</ele>
        <time>2022-07-13T07:06:01Z</time>
      </trkpt>
      <trkpt lat="49.78519" lon="2.38115">
        <ele>40.2</ele>
        <time>2022-07-13T07:06:02Z</time>
      </trkpt>
      <trkpt lat="49.78521" lon="2.38115">
        <ele>40.2</ele>
        <time>2022-07-13T07:06:04Z</time>
      </trkpt>
      <trkpt lat="49.78522" lon="2.38115">
        <ele>40.2</ele>
        <time>2022-07-13T07:06:05Z</time>
      </trkpt>
      <trkpt lat="49.78523" lon="2.38116">
        <ele>40.2</ele>
        <time>2022-07-13T07:06:06Z</time>
      </trkpt>
      <trkpt lat="49.78524" lon="2.38116">
        <ele>40.2</ele>
        <time>2022-07-13T07:06:07Z</time>
      </trkpt>
      <trkpt lat="49.78526" lon="2.38116">
        <ele>40.2</ele>
        <time>2022-07-13T07:06:08Z</time>
      </trkpt>
      <trkpt lat="49.78527" lon="2.38116">
        <ele>40.2</ele>
        <time>2022-07-13T07:06:09Z</time>
      </trkpt>
      <trkpt lat="49.78528" lon="2.38116">
        <ele>40.2</ele>
        <time>2022-07-13T07:06:10Z</time>
      </trkpt>
      <trkpt lat="49.7853" lon="2.38117">
        <ele>40.2</ele>
        <time>2022-07-13T07:06:11Z</time>
      </trkpt>
      <trkpt lat="49.78532" lon="2.38117">
        <ele>40.2</ele>
        <time>2022-07-13T07:06:13Z</time>
      </trkpt>
      <trkpt lat="49.78533" lon="2.38117">
        <ele>40.2</ele>
        <time>2022-07-13T07:06:14Z</time>
      </trkpt>
      <trkpt lat="49.78534" lon="2.38117">
        <ele>40.2</ele>
        <time>2022-07-13T07:06:15Z</time>
      </trkpt>
      <trkpt lat="49.78535" lon="2.38118">
        <ele>40.2</ele>
        <time>2022-07-13T07:06:16Z</time>
      </trkpt>
      <trkpt lat="49.78537" lon="2.38118">
        <ele>40.2</ele>
        <time>2022-07-13T07:06:17Z</time>
      </trkpt>
      <trkpt lat="49.78538" lon="2.38118">
        <ele>40.2</ele>
        <time>2022-07-13T07:06:18Z</time>
      </trkpt>
      <trkpt lat="49.78541" lon="2.3812">
        <ele>40.2</ele>
        <time>2022-07-13T07:06:20Z</time>
      </trkpt>
      <trkpt lat="49.78541" lon="2.38121">
        <ele>40.2</ele>
        <time>2022-07-13T07:06:21Z</time>
      </trkpt>
      <trkpt lat="49.78544" lon="2.38123">
        <ele>40.2</ele>
        <time>2022-07-13T07:06:23Z</time>
      </trkpt>
      <trkpt lat="49.78545" lon="2.38124">
        <ele>40.2</ele>
        <time>2022-07-13T07:06:24Z</time>
      </trkpt>
      <trkpt lat="49.78547" lon="2.38125">
        <ele>40.2</ele>
        <time>2022-07-13T07:06:25Z</time>
      </trkpt>
      <trkpt lat="49.7855" lon="2.38126">
        <ele>40.2</ele>
        <time>2022-07-13T07:06:27Z</time>
      </trkpt>
      <trkpt lat="49.7855" lon="2.38126">
        <ele>40.2</ele>
        <time>2022-07-13T07:06:28Z</time>
      </trkpt>
      <trkpt lat="49.78552" lon="2.38127">
        <ele>40.2</ele>
        <time>2022-07-13T07:06:29Z</time>
      </trkpt>
      <trkpt lat="49.78553" lon="2.38127">
        <ele>40.2</ele>
        <time>2022-07-13T07:06:30Z</time>
      </trkpt>
      <trkpt lat="49.78556" lon="2.38128">
        <ele>40.1</ele>
        <time>2022-07-13T07:06:31Z</time>
      </trkpt>
      <trkpt lat="49.78557" lon="2.38128">
        <ele>40.1</ele>
        <time>2022-07-13T07:06:32Z</time>
      </trkpt>
      <trkpt lat="49.78559" lon="2.38129">
        <ele>40.1</ele>
        <time>2022-07-13T07:06:34Z</time>
      </trkpt>
      <trkpt lat="49.7856" lon="2.3813">
        <ele>40.1</ele>
        <time>2022-07-13T07:06:35Z</time>
      </trkpt>
      <trkpt lat="49.78562" lon="2.38131">
        <ele>40.1</ele>
        <time>2022-07-13T07:06:36Z</time>
      </trkpt>
      <trkpt lat="49.78564" lon="2.38132">
        <ele>40.1</ele>
        <time>2022-07-13T07:06:38Z</time>
      </trkpt>
      <trkpt lat="49.78565" lon="2.38133">
        <ele>40</ele>
        <time>2022-07-13T07:06:39Z</time>
      </trkpt>
      <trkpt lat="49.78567" lon="2.38134">
        <ele>40</ele>
        <time>2022-07-13T07:06:40Z</time>
      </trkpt>
      <trkpt lat="49.7857" lon="2.38135">
        <ele>40</ele>
        <time>2022-07-13T07:06:42Z</time>
      </trkpt>
      <trkpt lat="49.78571" lon="2.38135">
        <ele>40</ele>
        <time>2022-07-13T07:06:43Z</time>
      </trkpt>
      <trkpt lat="49.78572" lon="2.38135">
        <ele>40</ele>
        <time>2022-07-13T07:06:44Z</time>
      </trkpt>
      <trkpt lat="49.78573" lon="2.38135">
        <ele>40</ele>
        <time>2022-07-13T07:06:45Z</time>
      </trkpt>
      <trkpt lat="49.78574" lon="2.38136">
        <ele>39.9</ele>
        <time>2022-07-13T07:06:46Z</time>
      </trkpt>
      <trkpt lat="49.78576" lon="2.38136">
        <ele>39.9</ele>
        <time>2022-07-13T07:06:47Z</time>
      </trkpt>
      <trkpt lat="49.78578" lon="2.38136">
        <ele>39.9</ele>
        <time>2022-07-13T07:06:48Z</time>
      </trkpt>
      <trkpt lat="49.78579" lon="2.38137">
        <ele>39.9</ele>
        <time>2022-07-13T07:06:49Z</time>
      </trkpt>
      <trkpt lat="49.78579" lon="2.38137">
        <ele>39.9</ele>
        <time>2022-07-13T07:06:50Z</time>
      </trkpt>
      <trkpt lat="49.7858" lon="2.38138">
        <ele>39.9</ele>
        <time>2022-07-13T07:06:51Z</time>
      </trkpt>
      <trkpt lat="49.78582" lon="2.38138">
        <ele>39.9</ele>
        <time>2022-07-13T07:06:53Z</time>
      </trkpt>
      <trkpt lat="49.78584" lon="2.38139">
        <ele>39.9</ele>
        <time>2022-07-13T07:06:54Z</time>
      </trkpt>
      <trkpt lat="49.78585" lon="2.38139">
        <ele>39.8</ele>
        <time>2022-07-13T07:06:55Z</time>
      </trkpt>
      <trkpt lat="49.78585" lon="2.38139">
        <ele>39.8</ele>
        <time>2022-07-13T07:06:56Z</time>
      </trkpt>
      <trkpt lat="49.78588" lon="2.38139">
        <ele>39.8</ele>
        <time>2022-07-13T07:06:57Z</time>
      </trkpt>
      <trkpt lat="49.78588" lon="2.38139">
        <ele>39.8</ele>
        <time>2022-07-13T07:06:58Z</time>
      </trkpt>
      <trkpt lat="49.78589" lon="2.3814">
        <ele>39.8</ele>
        <time>2022-07-13T07:06:59Z</time>
      </trkpt>
      <trkpt lat="49.7859" lon="2.3814">
        <ele>39.8</ele>
        <time>2022-07-13T07:07:00Z</time>
      </trkpt>
      <trkpt lat="49.78592" lon="2.3814">
        <ele>39.8</ele>
        <time>2022-07-13T07:07:02Z</time>
      </trkpt>
      <trkpt lat="49.78593" lon="2.3814">
        <ele>39.8</ele>
        <time>2022-07-13T07:07:03Z</time>
      </trkpt>
      <trkpt lat="49.78595" lon="2.3814">
        <ele>39.8</ele>
        <time>2022-07-13T07:07:04Z</time>
      </trkpt>
      <trkpt lat="49.78596" lon="2.38139">
        <ele>39.8</ele>
        <time>2022-07-13T07:07:05Z</time>
      </trkpt>
      <trkpt lat="49.78597" lon="2.38139">
        <ele>39.7</ele>
        <time>2022-07-13T07:07:06Z</time>
      </trkpt>
      <trkpt lat="49.78598" lon="2.38139">
        <ele>39.7</ele>
        <time>2022-07-13T07:07:07Z</time>
      </trkpt>
      <trkpt lat="49.786" lon="2.3814">
        <ele>39.7</ele>
        <time>2022-07-13T07:07:08Z</time>
      </trkpt>
      <trkpt lat="49.78601" lon="2.3814">
        <ele>39.7</ele>
        <time>2022-07-13T07:07:09Z</time>
      </trkpt>
      <trkpt lat="49.78602" lon="2.38139">
        <ele>39.7</ele>
        <time>2022-07-13T07:07:10Z</time>
      </trkpt>
      <trkpt lat="49.78604" lon="2.38139">
        <ele>39.7</ele>
        <time>2022-07-13T07:07:11Z</time>
      </trkpt>
      <trkpt lat="49.78606" lon="2.38138">
        <ele>39.7</ele>
        <time>2022-07-13T07:07:13Z</time>
      </trkpt>
      <trkpt lat="49.78607" lon="2.38137">
        <ele>39.7</ele>
        <time>2022-07-13T07:07:14Z</time>
      </trkpt>
      <trkpt lat="49.78608" lon="2.38137">
        <ele>39.7</ele>
        <time>2022-07-13T07:07:15Z</time>
      </trkpt>
      <trkpt lat="49.78609" lon="2.38136">
        <ele>39.7</ele>
        <time>2022-07-13T07:07:16Z</time>
      </trkpt>
      <trkpt lat="49.78613" lon="2.38137">
        <ele>39.7</ele>
        <time>2022-07-13T07:07:17Z</time>
      </trkpt>
      <trkpt lat="49.78612" lon="2.38138">
        <ele>39.6</ele>
        <time>2022-07-13T07:07:18Z</time>
      </trkpt>
      <trkpt lat="49.78613" lon="2.38137">
        <ele>39.6</ele>
        <time>2022-07-13T07:07:20Z</time>
      </trkpt>
      <trkpt lat="49.78615" lon="2.38136">
        <ele>39.6</ele>
        <time>2022-07-13T07:07:21Z</time>
      </trkpt>
      <trkpt lat="49.78615" lon="2.38135">
        <ele>39.6</ele>
        <time>2022-07-13T07:07:22Z</time>
      </trkpt>
      <trkpt lat="49.78616" lon="2.3813">
        <ele>39.6</ele>
        <time>2022-07-13T07:07:23Z</time>
      </trkpt>
      <trkpt lat="49.78616" lon="2.38126">
        <ele>39.6</ele>
        <time>2022-07-13T07:07:24Z</time>
      </trkpt>
      <trkpt lat="49.78616" lon="2.38124">
        <ele>39.6</ele>
        <time>2022-07-13T07:07:25Z</time>
      </trkpt>
      <trkpt lat="49.78617" lon="2.38122">
        <ele>39.6</ele>
        <time>2022-07-13T07:07:26Z</time>
      </trkpt>
      <trkpt lat="49.78618" lon="2.3812">
        <ele>39.6</ele>
        <time>2022-07-13T07:07:27Z</time>
      </trkpt>
      <trkpt lat="49.78619" lon="2.38119">
        <ele>39.6</ele>
        <time>2022-07-13T07:07:28Z</time>
      </trkpt>
      <trkpt lat="49.7862" lon="2.38118">
        <ele>39.6</ele>
        <time>2022-07-13T07:07:30Z</time>
      </trkpt>
      <trkpt lat="49.78622" lon="2.38115">
        <ele>39.6</ele>
        <time>2022-07-13T07:07:31Z</time>
      </trkpt>
      <trkpt lat="49.78622" lon="2.38114">
        <ele>39.6</ele>
        <time>2022-07-13T07:07:33Z</time>
      </trkpt>
      <trkpt lat="49.78623" lon="2.38113">
        <ele>39.6</ele>
        <time>2022-07-13T07:07:34Z</time>
      </trkpt>
      <trkpt lat="49.78624" lon="2.38112">
        <ele>39.6</ele>
        <time>2022-07-13T07:07:35Z</time>
      </trkpt>
      <trkpt lat="49.78625" lon="2.38111">
        <ele>39.6</ele>
        <time>2022-07-13T07:07:36Z</time>
      </trkpt>
      <trkpt lat="49.78626" lon="2.38108">
        <ele>39.5</ele>
        <time>2022-07-13T07:07:37Z</time>
      </trkpt>
      <trkpt lat="49.78627" lon="2.38107">
        <ele>39.5</ele>
        <time>2022-07-13T07:07:38Z</time>
      </trkpt>
      <trkpt lat="49.78627" lon="2.38106">
        <ele>39.5</ele>
        <time>2022-07-13T07:07:39Z</time>
      </trkpt>
      <trkpt lat="49.78628" lon="2.38104">
        <ele>39.5</ele>
        <time>2022-07-13T07:07:40Z</time>
      </trkpt>
      <trkpt lat="49.78629" lon="2.38102">
        <ele>39.5</ele>
        <time>2022-07-13T07:07:41Z</time>
      </trkpt>
      <trkpt lat="49.78631" lon="2.38099">
        <ele>39.5</ele>
        <time>2022-07-13T07:07:42Z</time>
      </trkpt>
      <trkpt lat="49.78632" lon="2.38098">
        <ele>39.5</ele>
        <time>2022-07-13T07:07:44Z</time>
      </trkpt>
      <trkpt lat="49.78633" lon="2.38097">
        <ele>39.5</ele>
        <time>2022-07-13T07:07:45Z</time>
      </trkpt>
      <trkpt lat="49.78634" lon="2.38096">
        <ele>39.5</ele>
        <time>2022-07-13T07:07:46Z</time>
      </trkpt>
      <trkpt lat="49.78636" lon="2.38094">
        <ele>39.5</ele>
        <time>2022-07-13T07:07:47Z</time>
      </trkpt>
      <trkpt lat="49.78637" lon="2.38092">
        <ele>39.5</ele>
        <time>2022-07-13T07:07:48Z</time>
      </trkpt>
      <trkpt lat="49.78638" lon="2.3809">
        <ele>39.5</ele>
        <time>2022-07-13T07:07:50Z</time>
      </trkpt>
      <trkpt lat="49.78639" lon="2.38088">
        <ele>39.5</ele>
        <time>2022-07-13T07:07:51Z</time>
      </trkpt>
      <trkpt lat="49.7864" lon="2.38086">
        <ele>39.5</ele>
        <time>2022-07-13T07:07:52Z</time>
      </trkpt>
      <trkpt lat="49.78641" lon="2.38084">
        <ele>39.5</ele>
        <time>2022-07-13T07:07:53Z</time>
      </trkpt>
      <trkpt lat="49.78642" lon="2.38082">
        <ele>39.5</ele>
        <time>2022-07-13T07:07:54Z</time>
      </trkpt>
      <trkpt lat="49.78643" lon="2.38081">
        <ele>39.5</ele>
        <time>2022-07-13T07:07:55Z</time>
      </trkpt>
      <trkpt lat="49.78644" lon="2.38079">
        <ele>39.5</ele>
        <time>2022-07-13T07:07:57Z</time>
      </trkpt>
      <trkpt lat="49.78645" lon="2.38077">
        <ele>39.4</ele>
        <time>2022-07-13T07:07:58Z</time>
      </trkpt>
      <trkpt lat="49.78646" lon="2.38076">
        <ele>39.4</ele>
        <time>2022-07-13T07:07:59Z</time>
      </trkpt>
      <trkpt lat="49.78647" lon="2.38074">
        <ele>39.4</ele>
        <time>2022-07-13T07:08:00Z</time>
      </trkpt>
      <trkpt lat="49.78648" lon="2.38073">
        <ele>39.4</ele>
        <time>2022-07-13T07:08:01Z</time>
      </trkpt>
      <trkpt lat="49.78649" lon="2.38073">
        <ele>39.4</ele>
        <time>2022-07-13T07:08:02Z</time>
      </trkpt>
      <trkpt lat="49.7865" lon="2.3807">
        <ele>39.4</ele>
        <time>2022-07-13T07:08:03Z</time>
      </trkpt>
      <trkpt lat="49.78651" lon="2.38069">
        <ele>39.4</ele>
        <time>2022-07-13T07:08:04Z</time>
      </trkpt>
      <trkpt lat="49.78651" lon="2.38068">
        <ele>39.4</ele>
        <time>2022-07-13T07:08:05Z</time>
      </trkpt>
      <trkpt lat="49.78652" lon="2.38066">
        <ele>39.4</ele>
        <time>2022-07-13T07:08:06Z</time>
      </trkpt>
      <trkpt lat="49.78653" lon="2.38065">
        <ele>39.4</ele>
        <time>2022-07-13T07:08:07Z</time>
      </trkpt>
      <trkpt lat="49.78654" lon="2.38063">
        <ele>39.4</ele>
        <time>2022-07-13T07:08:08Z</time>
      </trkpt>
      <trkpt lat="49.78655" lon="2.38061">
        <ele>39.3</ele>
        <time>2022-07-13T07:08:09Z</time>
      </trkpt>
      <trkpt lat="49.78656" lon="2.3806">
        <ele>39.3</ele>
        <time>2022-07-13T07:08:11Z</time>
      </trkpt>
      <trkpt lat="49.78657" lon="2.38058">
        <ele>39.3</ele>
        <time>2022-07-13T07:08:12Z</time>
      </trkpt>
      <trkpt lat="49.78657" lon="2.38055">
        <ele>39.3</ele>
        <time>2022-07-13T07:08:13Z</time>
      </trkpt>
      <trkpt lat="49.78657" lon="2.38055">
        <ele>39.3</ele>
        <time>2022-07-13T07:08:14Z</time>
      </trkpt>
      <trkpt lat="49.78657" lon="2.38054">
        <ele>39.3</ele>
        <time>2022-07-13T07:08:15Z</time>
      </trkpt>
      <trkpt lat="49.78659" lon="2.38051">
        <ele>39.2</ele>
        <time>2022-07-13T07:08:16Z</time>
      </trkpt>
      <trkpt lat="49.7866" lon="2.38049">
        <ele>39.2</ele>
        <time>2022-07-13T07:08:17Z</time>
      </trkpt>
      <trkpt lat="49.78661" lon="2.38048">
        <ele>39.2</ele>
        <time>2022-07-13T07:08:18Z</time>
      </trkpt>
      <trkpt lat="49.78662" lon="2.38047">
        <ele>39.2</ele>
        <time>2022-07-13T07:08:19Z</time>
      </trkpt>
      <trkpt lat="49.78663" lon="2.38045">
        <ele>39.2</ele>
        <time>2022-07-13T07:08:21Z</time>
      </trkpt>
      <trkpt lat="49.78664" lon="2.38044">
        <ele>39.2</ele>
        <time>2022-07-13T07:08:22Z</time>
      </trkpt>
      <trkpt lat="49.78665" lon="2.38042">
        <ele>39.1</ele>
        <time>2022-07-13T07:08:23Z</time>
      </trkpt>
      <trkpt lat="49.78666" lon="2.38041">
        <ele>39.1</ele>
        <time>2022-07-13T07:08:24Z</time>
      </trkpt>
      <trkpt lat="49.78666" lon="2.3804">
        <ele>39.1</ele>
        <time>2022-07-13T07:08:25Z</time>
      </trkpt>
      <trkpt lat="49.78667" lon="2.38038">
        <ele>39.1</ele>
        <time>2022-07-13T07:08:26Z</time>
      </trkpt>
      <trkpt lat="49.78668" lon="2.38035">
        <ele>39.1</ele>
        <time>2022-07-13T07:08:28Z</time>
      </trkpt>
      <trkpt lat="49.78669" lon="2.38033">
        <ele>39</ele>
        <time>2022-07-13T07:08:29Z</time>
      </trkpt>
      <trkpt lat="49.7867" lon="2.38032">
        <ele>39</ele>
        <time>2022-07-13T07:08:30Z</time>
      </trkpt>
      <trkpt lat="49.7867" lon="2.38031">
        <ele>39</ele>
        <time>2022-07-13T07:08:31Z</time>
      </trkpt>
      <trkpt lat="49.78671" lon="2.3803">
        <ele>39</ele>
        <time>2022-07-13T07:08:32Z</time>
      </trkpt>
      <trkpt lat="49.78671" lon="2.38029">
        <ele>39</ele>
        <time>2022-07-13T07:08:33Z</time>
      </trkpt>
      <trkpt lat="49.78672" lon="2.38028">
        <ele>39</ele>
        <time>2022-07-13T07:08:34Z</time>
      </trkpt>
      <trkpt lat="49.78672" lon="2.38026">
        <ele>39</ele>
        <time>2022-07-13T07:08:36Z</time>
      </trkpt>
      <trkpt lat="49.78673" lon="2.38025">
        <ele>39</ele>
        <time>2022-07-13T07:08:37Z</time>
      </trkpt>
      <trkpt lat="49.78674" lon="2.38022">
        <ele>39</ele>
        <time>2022-07-13T07:08:38Z</time>
      </trkpt>
      <trkpt lat="49.78674" lon="2.38021">
        <ele>38.9</ele>
        <time>2022-07-13T07:08:39Z</time>
      </trkpt>
      <trkpt lat="49.78675" lon="2.38019">
        <ele>38.9</ele>
        <time>2022-07-13T07:08:40Z</time>
      </trkpt>
      <trkpt lat="49.78675" lon="2.38018">
        <ele>38.9</ele>
        <time>2022-07-13T07:08:41Z</time>
      </trkpt>
      <trkpt lat="49.78676" lon="2.38016">
        <ele>38.9</ele>
        <time>2022-07-13T07:08:43Z</time>
      </trkpt>
      <trkpt lat="49.78677" lon="2.38013">
        <ele>38.9</ele>
        <time>2022-07-13T07:08:44Z</time>
      </trkpt>
      <trkpt lat="49.78679" lon="2.38011">
        <ele>38.9</ele>
        <time>2022-07-13T07:08:45Z</time>
      </trkpt>
      <trkpt lat="49.78679" lon="2.3801">
        <ele>38.9</ele>
        <time>2022-07-13T07:08:46Z</time>
      </trkpt>
      <trkpt lat="49.7868" lon="2.38009">
        <ele>38.9</ele>
        <time>2022-07-13T07:08:47Z</time>
      </trkpt>
      <trkpt lat="49.78681" lon="2.38007">
        <ele>38.9</ele>
        <time>2022-07-13T07:08:48Z</time>
      </trkpt>
      <trkpt lat="49.78682" lon="2.38005">
        <ele>38.9</ele>
        <time>2022-07-13T07:08:50Z</time>
      </trkpt>
      <trkpt lat="49.78683" lon="2.38003">
        <ele>38.9</ele>
        <time>2022-07-13T07:08:51Z</time>
      </trkpt>
      <trkpt lat="49.78683" lon="2.38001">
        <ele>38.9</ele>
        <time>2022-07-13T07:08:52Z</time>
      </trkpt>
      <trkpt lat="49.78685" lon="2.37999">
        <ele>38.9</ele>
        <time>2022-07-13T07:08:53Z</time>
      </trkpt>
      <trkpt lat="49.78685" lon="2.37999">
        <ele>38.9</ele>
        <time>2022-07-13T07:08:54Z</time>
      </trkpt>
      <trkpt lat="49.78686" lon="2.37999">
        <ele>38.9</ele>
        <time>2022-07-13T07:08:55Z</time>
      </trkpt>
      <trkpt lat="49.78686" lon="2.37998">
        <ele>38.9</ele>
        <time>2022-07-13T07:08:56Z</time>
      </trkpt>
      <trkpt lat="49.78687" lon="2.37996">
        <ele>38.9</ele>
        <time>2022-07-13T07:08:58Z</time>
      </trkpt>
      <trkpt lat="49.78688" lon="2.37994">
        <ele>38.8</ele>
        <time>2022-07-13T07:08:59Z</time>
      </trkpt>
      <trkpt lat="49.78689" lon="2.37992">
        <ele>38.8</ele>
        <time>2022-07-13T07:09:00Z</time>
      </trkpt>
      <trkpt lat="49.78689" lon="2.3799">
        <ele>38.8</ele>
        <time>2022-07-13T07:09:01Z</time>
      </trkpt>
      <trkpt lat="49.78689" lon="2.37989">
        <ele>38.8</ele>
        <time>2022-07-13T07:09:02Z</time>
      </trkpt>
      <trkpt lat="49.7869" lon="2.37987">
        <ele>38.8</ele>
        <time>2022-07-13T07:09:03Z</time>
      </trkpt>
      <trkpt lat="49.7869" lon="2.37985">
        <ele>38.8</ele>
        <time>2022-07-13T07:09:04Z</time>
      </trkpt>
      <trkpt lat="49.7869" lon="2.37983">
        <ele>38.8</ele>
        <time>2022-07-13T07:09:05Z</time>
      </trkpt>
      <trkpt lat="49.78691" lon="2.3798">
        <ele>38.8</ele>
        <time>2022-07-13T07:09:07Z</time>
      </trkpt>
      <trkpt lat="49.78692" lon="2.37978">
        <ele>38.8</ele>
        <time>2022-07-13T07:09:08Z</time>
      </trkpt>
      <trkpt lat="49.78692" lon="2.37976">
        <ele>38.8</ele>
        <time>2022-07-13T07:09:09Z</time>
      </trkpt>
      <trkpt lat="49.78693" lon="2.37972">
        <ele>38.8</ele>
        <time>2022-07-13T07:09:10Z</time>
      </trkpt>
      <trkpt lat="49.78693" lon="2.37971">
        <ele>38.8</ele>
        <time>2022-07-13T07:09:11Z</time>
      </trkpt>
      <trkpt lat="49.78693" lon="2.37969">
        <ele>38.8</ele>
        <time>2022-07-13T07:09:12Z</time>
      </trkpt>
      <trkpt lat="49.78694" lon="2.37967">
        <ele>38.8</ele>
        <time>2022-07-13T07:09:13Z</time>
      </trkpt>
      <trkpt lat="49.78694" lon="2.37965">
        <ele>38.8</ele>
        <time>2022-07-13T07:09:15Z</time>
      </trkpt>
      <trkpt lat="49.78695" lon="2.37963">
        <ele>38.8</ele>
        <time>2022-07-13T07:09:16Z</time>
      </trkpt>
      <trkpt lat="49.78695" lon="2.37961">
        <ele>38.8</ele>
        <time>2022-07-13T07:09:17Z</time>
      </trkpt>
      <trkpt lat="49.78695" lon="2.37959">
        <ele>38.8</ele>
        <time>2022-07-13T07:09:18Z</time>
      </trkpt>
      <trkpt lat="49.78696" lon="2.37956">
        <ele>38.8</ele>
        <time>2022-07-13T07:09:19Z</time>
      </trkpt>
      <trkpt lat="49.78696" lon="2.37955">
        <ele>38.8</ele>
        <time>2022-07-13T07:09:20Z</time>
      </trkpt>
      <trkpt lat="49.78697" lon="2.37954">
        <ele>38.8</ele>
        <time>2022-07-13T07:09:21Z</time>
      </trkpt>
      <trkpt lat="49.78697" lon="2.37952">
        <ele>38.8</ele>
        <time>2022-07-13T07:09:23Z</time>
      </trkpt>
      <trkpt lat="49.78697" lon="2.3795">
        <ele>38.8</ele>
        <time>2022-07-13T07:09:24Z</time>
      </trkpt>
      <trkpt lat="49.78698" lon="2.37947">
        <ele>38.8</ele>
        <time>2022-07-13T07:09:25Z</time>
      </trkpt>
      <trkpt lat="49.78698" lon="2.37944">
        <ele>38.8</ele>
        <time>2022-07-13T07:09:26Z</time>
      </trkpt>
      <trkpt lat="49.78698" lon="2.37942">
        <ele>38.8</ele>
        <time>2022-07-13T07:09:28Z</time>
      </trkpt>
      <trkpt lat="49.78698" lon="2.3794">
        <ele>38.9</ele>
        <time>2022-07-13T07:09:29Z</time>
      </trkpt>
      <trkpt lat="49.78698" lon="2.37937">
        <ele>38.9</ele>
        <time>2022-07-13T07:09:30Z</time>
      </trkpt>
      <trkpt lat="49.78698" lon="2.37935">
        <ele>38.9</ele>
        <time>2022-07-13T07:09:31Z</time>
      </trkpt>
      <trkpt lat="49.78698" lon="2.37934">
        <ele>38.9</ele>
        <time>2022-07-13T07:09:32Z</time>
      </trkpt>
      <trkpt lat="49.78699" lon="2.37932">
        <ele>38.9</ele>
        <time>2022-07-13T07:09:33Z</time>
      </trkpt>
      <trkpt lat="49.78699" lon="2.3793">
        <ele>38.9</ele>
        <time>2022-07-13T07:09:34Z</time>
      </trkpt>
      <trkpt lat="49.78699" lon="2.37928">
        <ele>38.9</ele>
        <time>2022-07-13T07:09:35Z</time>
      </trkpt>
      <trkpt lat="49.78699" lon="2.37926">
        <ele>38.9</ele>
        <time>2022-07-13T07:09:36Z</time>
      </trkpt>
      <trkpt lat="49.78699" lon="2.37924">
        <ele>38.9</ele>
        <time>2022-07-13T07:09:37Z</time>
      </trkpt>
      <trkpt lat="49.78699" lon="2.37923">
        <ele>38.9</ele>
        <time>2022-07-13T07:09:38Z</time>
      </trkpt>
      <trkpt lat="49.78699" lon="2.3792">
        <ele>38.9</ele>
        <time>2022-07-13T07:09:39Z</time>
      </trkpt>
      <trkpt lat="49.78699" lon="2.37917">
        <ele>38.9</ele>
        <time>2022-07-13T07:09:41Z</time>
      </trkpt>
      <trkpt lat="49.78699" lon="2.37914">
        <ele>38.9</ele>
        <time>2022-07-13T07:09:42Z</time>
      </trkpt>
      <trkpt lat="49.78699" lon="2.37911">
        <ele>38.9</ele>
        <time>2022-07-13T07:09:44Z</time>
      </trkpt>
      <trkpt lat="49.78699" lon="2.37908">
        <ele>38.9</ele>
        <time>2022-07-13T07:09:45Z</time>
      </trkpt>
      <trkpt lat="49.787" lon="2.37904">
        <ele>38.9</ele>
        <time>2022-07-13T07:09:47Z</time>
      </trkpt>
      <trkpt lat="49.787" lon="2.37902">
        <ele>38.9</ele>
        <time>2022-07-13T07:09:49Z</time>
      </trkpt>
      <trkpt lat="49.78701" lon="2.379">
        <ele>39</ele>
        <time>2022-07-13T07:09:50Z</time>
      </trkpt>
      <trkpt lat="49.78701" lon="2.37897">
        <ele>39</ele>
        <time>2022-07-13T07:09:51Z</time>
      </trkpt>
      <trkpt lat="49.78701" lon="2.37895">
        <ele>39</ele>
        <time>2022-07-13T07:09:52Z</time>
      </trkpt>
      <trkpt lat="49.787" lon="2.37892">
        <ele>39</ele>
        <time>2022-07-13T07:09:53Z</time>
      </trkpt>
      <trkpt lat="49.787" lon="2.3789">
        <ele>39</ele>
        <time>2022-07-13T07:09:54Z</time>
      </trkpt>
      <trkpt lat="49.787" lon="2.37889">
        <ele>39</ele>
        <time>2022-07-13T07:09:55Z</time>
      </trkpt>
      <trkpt lat="49.78701" lon="2.37886">
        <ele>39</ele>
        <time>2022-07-13T07:09:57Z</time>
      </trkpt>
      <trkpt lat="49.78701" lon="2.37884">
        <ele>39</ele>
        <time>2022-07-13T07:09:58Z</time>
      </trkpt>
      <trkpt lat="49.78702" lon="2.37881">
        <ele>39</ele>
        <time>2022-07-13T07:09:59Z</time>
      </trkpt>
      <trkpt lat="49.78703" lon="2.37879">
        <ele>39.1</ele>
        <time>2022-07-13T07:10:00Z</time>
      </trkpt>
      <trkpt lat="49.78704" lon="2.37877">
        <ele>39.1</ele>
        <time>2022-07-13T07:10:02Z</time>
      </trkpt>
      <trkpt lat="49.78705" lon="2.37876">
        <ele>39.1</ele>
        <time>2022-07-13T07:10:03Z</time>
      </trkpt>
      <trkpt lat="49.78706" lon="2.37876">
        <ele>39.1</ele>
        <time>2022-07-13T07:10:04Z</time>
      </trkpt>
      <trkpt lat="49.78707" lon="2.37874">
        <ele>39.1</ele>
        <time>2022-07-13T07:10:05Z</time>
      </trkpt>
      <trkpt lat="49.78708" lon="2.37874">
        <ele>39.1</ele>
        <time>2022-07-13T07:10:06Z</time>
      </trkpt>
      <trkpt lat="49.78709" lon="2.37873">
        <ele>39.1</ele>
        <time>2022-07-13T07:10:07Z</time>
      </trkpt>
      <trkpt lat="49.78711" lon="2.37871">
        <ele>39</ele>
        <time>2022-07-13T07:10:09Z</time>
      </trkpt>
      <trkpt lat="49.78713" lon="2.3787">
        <ele>39</ele>
        <time>2022-07-13T07:10:10Z</time>
      </trkpt>
      <trkpt lat="49.78713" lon="2.37869">
        <ele>39</ele>
        <time>2022-07-13T07:10:12Z</time>
      </trkpt>
      <trkpt lat="49.78714" lon="2.37868">
        <ele>39</ele>
        <time>2022-07-13T07:10:13Z</time>
      </trkpt>
      <trkpt lat="49.78715" lon="2.37867">
        <ele>39</ele>
        <time>2022-07-13T07:10:14Z</time>
      </trkpt>
      <trkpt lat="49.78715" lon="2.37864">
        <ele>39</ele>
        <time>2022-07-13T07:10:15Z</time>
      </trkpt>
      <trkpt lat="49.78716" lon="2.37864">
        <ele>39</ele>
        <time>2022-07-13T07:10:17Z</time>
      </trkpt>
      <trkpt lat="49.78716" lon="2.37863">
        <ele>39</ele>
        <time>2022-07-13T07:10:18Z</time>
      </trkpt>
      <trkpt lat="49.78717" lon="2.37861">
        <ele>39</ele>
        <time>2022-07-13T07:10:19Z</time>
      </trkpt>
      <trkpt lat="49.78717" lon="2.3786">
        <ele>39</ele>
        <time>2022-07-13T07:10:20Z</time>
      </trkpt>
      <trkpt lat="49.78718" lon="2.37859">
        <ele>39</ele>
        <time>2022-07-13T07:10:21Z</time>
      </trkpt>
      <trkpt lat="49.78719" lon="2.37857">
        <ele>39</ele>
        <time>2022-07-13T07:10:22Z</time>
      </trkpt>
      <trkpt lat="49.78719" lon="2.37856">
        <ele>39</ele>
        <time>2022-07-13T07:10:24Z</time>
      </trkpt>
      <trkpt lat="49.7872" lon="2.37854">
        <ele>39</ele>
        <time>2022-07-13T07:10:25Z</time>
      </trkpt>
      <trkpt lat="49.78721" lon="2.37853">
        <ele>39</ele>
        <time>2022-07-13T07:10:26Z</time>
      </trkpt>
      <trkpt lat="49.78721" lon="2.37851">
        <ele>39</ele>
        <time>2022-07-13T07:10:27Z</time>
      </trkpt>
      <trkpt lat="49.78722" lon="2.3785">
        <ele>38.9</ele>
        <time>2022-07-13T07:10:28Z</time>
      </trkpt>
      <trkpt lat="49.78722" lon="2.37848">
        <ele>38.9</ele>
        <time>2022-07-13T07:10:29Z</time>
      </trkpt>
      <trkpt lat="49.78723" lon="2.37846">
        <ele>38.9</ele>
        <time>2022-07-13T07:10:31Z</time>
      </trkpt>
      <trkpt lat="49.78724" lon="2.37845">
        <ele>38.9</ele>
        <time>2022-07-13T07:10:32Z</time>
      </trkpt>
      <trkpt lat="49.78725" lon="2.37844">
        <ele>38.9</ele>
        <time>2022-07-13T07:10:33Z</time>
      </trkpt>
      <trkpt lat="49.78725" lon="2.37843">
        <ele>38.9</ele>
        <time>2022-07-13T07:10:34Z</time>
      </trkpt>
      <trkpt lat="49.78726" lon="2.37841">
        <ele>38.9</ele>
        <time>2022-07-13T07:10:35Z</time>
      </trkpt>
      <trkpt lat="49.78727" lon="2.3784">
        <ele>38.9</ele>
        <time>2022-07-13T07:10:36Z</time>
      </trkpt>
      <trkpt lat="49.78728" lon="2.37839">
        <ele>38.9</ele>
        <time>2022-07-13T07:10:37Z</time>
      </trkpt>
      <trkpt lat="49.78729" lon="2.37837">
        <ele>38.9</ele>
        <time>2022-07-13T07:10:38Z</time>
      </trkpt>
      <trkpt lat="49.7873" lon="2.37836">
        <ele>38.9</ele>
        <time>2022-07-13T07:10:40Z</time>
      </trkpt>
      <trkpt lat="49.78731" lon="2.37834">
        <ele>38.9</ele>
        <time>2022-07-13T07:10:41Z</time>
      </trkpt>
      <trkpt lat="49.78732" lon="2.37833">
        <ele>38.9</ele>
        <time>2022-07-13T07:10:42Z</time>
      </trkpt>
      <trkpt lat="49.78734" lon="2.3783">
        <ele>39</ele>
        <time>2022-07-13T07:10:44Z</time>
      </trkpt>
      <trkpt lat="49.78735" lon="2.37829">
        <ele>39</ele>
        <time>2022-07-13T07:10:45Z</time>
      </trkpt>
      <trkpt lat="49.78736" lon="2.37826">
        <ele>39</ele>
        <time>2022-07-13T07:10:46Z</time>
      </trkpt>
      <trkpt lat="49.78736" lon="2.37825">
        <ele>39</ele>
        <time>2022-07-13T07:10:47Z</time>
      </trkpt>
      <trkpt lat="49.78737" lon="2.37824">
        <ele>39</ele>
        <time>2022-07-13T07:10:48Z</time>
      </trkpt>
      <trkpt lat="49.78737" lon="2.37823">
        <ele>39</ele>
        <time>2022-07-13T07:10:49Z</time>
      </trkpt>
      <trkpt lat="49.78739" lon="2.3782">
        <ele>39</ele>
        <time>2022-07-13T07:10:51Z</time>
      </trkpt>
      <trkpt lat="49.7874" lon="2.37819">
        <ele>39</ele>
        <time>2022-07-13T07:10:52Z</time>
      </trkpt>
      <trkpt lat="49.7874" lon="2.37817">
        <ele>39</ele>
        <time>2022-07-13T07:10:53Z</time>
      </trkpt>
      <trkpt lat="49.78741" lon="2.37815">
        <ele>39</ele>
        <time>2022-07-13T07:10:54Z</time>
      </trkpt>
      <trkpt lat="49.78742" lon="2.37814">
        <ele>39.1</ele>
        <time>2022-07-13T07:10:56Z</time>
      </trkpt>
      <trkpt lat="49.78744" lon="2.37811">
        <ele>39.1</ele>
        <time>2022-07-13T07:10:57Z</time>
      </trkpt>
      <trkpt lat="49.78744" lon="2.37809">
        <ele>39.1</ele>
        <time>2022-07-13T07:10:58Z</time>
      </trkpt>
      <trkpt lat="49.78745" lon="2.37808">
        <ele>39.1</ele>
        <time>2022-07-13T07:10:59Z</time>
      </trkpt>
      <trkpt lat="49.78746" lon="2.37806">
        <ele>39.1</ele>
        <time>2022-07-13T07:11:00Z</time>
      </trkpt>
      <trkpt lat="49.78746" lon="2.37805">
        <ele>39.2</ele>
        <time>2022-07-13T07:11:02Z</time>
      </trkpt>
      <trkpt lat="49.78748" lon="2.37803">
        <ele>39.2</ele>
        <time>2022-07-13T07:11:03Z</time>
      </trkpt>
      <trkpt lat="49.78749" lon="2.37802">
        <ele>39.2</ele>
        <time>2022-07-13T07:11:04Z</time>
      </trkpt>
      <trkpt lat="49.78751" lon="2.37796">
        <ele>39.3</ele>
        <time>2022-07-13T07:11:06Z</time>
      </trkpt>
      <trkpt lat="49.78751" lon="2.37795">
        <ele>39.3</ele>
        <time>2022-07-13T07:11:07Z</time>
      </trkpt>
      <trkpt lat="49.78752" lon="2.37794">
        <ele>39.3</ele>
        <time>2022-07-13T07:11:08Z</time>
      </trkpt>
      <trkpt lat="49.78752" lon="2.37792">
        <ele>39.3</ele>
        <time>2022-07-13T07:11:09Z</time>
      </trkpt>
      <trkpt lat="49.78753" lon="2.37789">
        <ele>39.4</ele>
        <time>2022-07-13T07:11:10Z</time>
      </trkpt>
      <trkpt lat="49.78753" lon="2.37787">
        <ele>39.4</ele>
        <time>2022-07-13T07:11:11Z</time>
      </trkpt>
      <trkpt lat="49.78753" lon="2.37786">
        <ele>39.4</ele>
        <time>2022-07-13T07:11:12Z</time>
      </trkpt>
      <trkpt lat="49.78753" lon="2.37784">
        <ele>39.5</ele>
        <time>2022-07-13T07:11:13Z</time>
      </trkpt>
      <trkpt lat="49.78754" lon="2.37781">
        <ele>39.5</ele>
        <time>2022-07-13T07:11:14Z</time>
      </trkpt>
      <trkpt lat="49.78754" lon="2.37778">
        <ele>39.6</ele>
        <time>2022-07-13T07:11:16Z</time>
      </trkpt>
      <trkpt lat="49.78754" lon="2.37776">
        <ele>39.6</ele>
        <time>2022-07-13T07:11:17Z</time>
      </trkpt>
      <trkpt lat="49.78754" lon="2.37773">
        <ele>39.6</ele>
        <time>2022-07-13T07:11:18Z</time>
      </trkpt>
      <trkpt lat="49.78755" lon="2.37771">
        <ele>39.7</ele>
        <time>2022-07-13T07:11:19Z</time>
      </trkpt>
      <trkpt lat="49.78755" lon="2.37769">
        <ele>39.7</ele>
        <time>2022-07-13T07:11:20Z</time>
      </trkpt>
      <trkpt lat="49.78755" lon="2.37767">
        <ele>39.8</ele>
        <time>2022-07-13T07:11:21Z</time>
      </trkpt>
      <trkpt lat="49.78756" lon="2.37764">
        <ele>39.8</ele>
        <time>2022-07-13T07:11:22Z</time>
      </trkpt>
      <trkpt lat="49.78756" lon="2.37762">
        <ele>39.8</ele>
        <time>2022-07-13T07:11:23Z</time>
      </trkpt>
      <trkpt lat="49.78756" lon="2.37761">
        <ele>39.9</ele>
        <time>2022-07-13T07:11:24Z</time>
      </trkpt>
      <trkpt lat="49.78756" lon="2.37757">
        <ele>39.9</ele>
        <time>2022-07-13T07:11:25Z</time>
      </trkpt>
      <trkpt lat="49.78757" lon="2.37756">
        <ele>39.9</ele>
        <time>2022-07-13T07:11:26Z</time>
      </trkpt>
      <trkpt lat="49.78757" lon="2.37755">
        <ele>40</ele>
        <time>2022-07-13T07:11:27Z</time>
      </trkpt>
      <trkpt lat="49.78757" lon="2.37753">
        <ele>40</ele>
        <time>2022-07-13T07:11:29Z</time>
      </trkpt>
      <trkpt lat="49.78756" lon="2.37753">
        <ele>40</ele>
        <time>2022-07-13T07:11:30Z</time>
      </trkpt>
      <trkpt lat="49.78755" lon="2.37751">
        <ele>40</ele>
        <time>2022-07-13T07:11:31Z</time>
      </trkpt>
      <trkpt lat="49.78754" lon="2.37751">
        <ele>40.1</ele>
        <time>2022-07-13T07:11:32Z</time>
      </trkpt>
      <trkpt lat="49.78754" lon="2.37749">
        <ele>40.1</ele>
        <time>2022-07-13T07:11:33Z</time>
      </trkpt>
      <trkpt lat="49.78754" lon="2.37747">
        <ele>40.1</ele>
        <time>2022-07-13T07:11:35Z</time>
      </trkpt>
      <trkpt lat="49.78754" lon="2.37743">
        <ele>40.2</ele>
        <time>2022-07-13T07:11:36Z</time>
      </trkpt>
      <trkpt lat="49.78754" lon="2.37742">
        <ele>40.2</ele>
        <time>2022-07-13T07:11:37Z</time>
      </trkpt>
      <trkpt lat="49.78754" lon="2.37741">
        <ele>40.2</ele>
        <time>2022-07-13T07:11:38Z</time>
      </trkpt>
      <trkpt lat="49.78754" lon="2.37739">
        <ele>40.3</ele>
        <time>2022-07-13T07:11:39Z</time>
      </trkpt>
      <trkpt lat="49.78754" lon="2.37737">
        <ele>40.3</ele>
        <time>2022-07-13T07:11:40Z</time>
      </trkpt>
      <trkpt lat="49.78754" lon="2.37735">
        <ele>40.3</ele>
        <time>2022-07-13T07:11:42Z</time>
      </trkpt>
      <trkpt lat="49.78754" lon="2.37732">
        <ele>40.4</ele>
        <time>2022-07-13T07:11:43Z</time>
      </trkpt>
      <trkpt lat="49.78754" lon="2.3773">
        <ele>40.4</ele>
        <time>2022-07-13T07:11:44Z</time>
      </trkpt>
      <trkpt lat="49.78754" lon="2.37727">
        <ele>40.5</ele>
        <time>2022-07-13T07:11:45Z</time>
      </trkpt>
      <trkpt lat="49.78754" lon="2.37725">
        <ele>40.5</ele>
        <time>2022-07-13T07:11:47Z</time>
      </trkpt>
      <trkpt lat="49.78754" lon="2.37723">
        <ele>40.5</ele>
        <time>2022-07-13T07:11:48Z</time>
      </trkpt>
      <trkpt lat="49.78754" lon="2.37722">
        <ele>40.6</ele>
        <time>2022-07-13T07:11:49Z</time>
      </trkpt>
      <trkpt lat="49.78754" lon="2.3772">
        <ele>40.6</ele>
        <time>2022-07-13T07:11:50Z</time>
      </trkpt>
      <trkpt lat="49.78754" lon="2.37717">
        <ele>40.6</ele>
        <time>2022-07-13T07:11:51Z</time>
      </trkpt>
      <trkpt lat="49.78754" lon="2.37716">
        <ele>40.7</ele>
        <time>2022-07-13T07:11:52Z</time>
      </trkpt>
      <trkpt lat="49.78754" lon="2.37714">
        <ele>40.7</ele>
        <time>2022-07-13T07:11:54Z</time>
      </trkpt>
      <trkpt lat="49.78755" lon="2.37712">
        <ele>40.7</ele>
        <time>2022-07-13T07:11:55Z</time>
      </trkpt>
      <trkpt lat="49.78755" lon="2.37708">
        <ele>40.8</ele>
        <time>2022-07-13T07:11:56Z</time>
      </trkpt>
      <trkpt lat="49.78756" lon="2.37707">
        <ele>40.8</ele>
        <time>2022-07-13T07:11:57Z</time>
      </trkpt>
      <trkpt lat="49.78756" lon="2.37706">
        <ele>40.8</ele>
        <time>2022-07-13T07:11:58Z</time>
      </trkpt>
      <trkpt lat="49.78757" lon="2.37703">
        <ele>40.9</ele>
        <time>2022-07-13T07:11:59Z</time>
      </trkpt>
      <trkpt lat="49.78757" lon="2.37701">
        <ele>40.9</ele>
        <time>2022-07-13T07:12:00Z</time>
      </trkpt>
      <trkpt lat="49.78757" lon="2.377">
        <ele>40.9</ele>
        <time>2022-07-13T07:12:01Z</time>
      </trkpt>
      <trkpt lat="49.78758" lon="2.37697">
        <ele>41</ele>
        <time>2022-07-13T07:12:03Z</time>
      </trkpt>
      <trkpt lat="49.78759" lon="2.37695">
        <ele>41</ele>
        <time>2022-07-13T07:12:04Z</time>
      </trkpt>
      <trkpt lat="49.78759" lon="2.37694">
        <ele>41</ele>
        <time>2022-07-13T07:12:05Z</time>
      </trkpt>
      <trkpt lat="49.7876" lon="2.37692">
        <ele>41.1</ele>
        <time>2022-07-13T07:12:06Z</time>
      </trkpt>
      <trkpt lat="49.7876" lon="2.37691">
        <ele>41.1</ele>
        <time>2022-07-13T07:12:07Z</time>
      </trkpt>
      <trkpt lat="49.78761" lon="2.37689">
        <ele>41.1</ele>
        <time>2022-07-13T07:12:08Z</time>
      </trkpt>
      <trkpt lat="49.78761" lon="2.37688">
        <ele>41.2</ele>
        <time>2022-07-13T07:12:09Z</time>
      </trkpt>
      <trkpt lat="49.78762" lon="2.37686">
        <ele>41.2</ele>
        <time>2022-07-13T07:12:10Z</time>
      </trkpt>
      <trkpt lat="49.78763" lon="2.37683">
        <ele>41.2</ele>
        <time>2022-07-13T07:12:12Z</time>
      </trkpt>
      <trkpt lat="49.78764" lon="2.37681">
        <ele>41.3</ele>
        <time>2022-07-13T07:12:13Z</time>
      </trkpt>
      <trkpt lat="49.78765" lon="2.3768">
        <ele>41.3</ele>
        <time>2022-07-13T07:12:14Z</time>
      </trkpt>
      <trkpt lat="49.78765" lon="2.37679">
        <ele>41.4</ele>
        <time>2022-07-13T07:12:15Z</time>
      </trkpt>
      <trkpt lat="49.78766" lon="2.37676">
        <ele>41.4</ele>
        <time>2022-07-13T07:12:16Z</time>
      </trkpt>
      <trkpt lat="49.78767" lon="2.37675">
        <ele>41.5</ele>
        <time>2022-07-13T07:12:17Z</time>
      </trkpt>
      <trkpt lat="49.78768" lon="2.37672">
        <ele>41.5</ele>
        <time>2022-07-13T07:12:18Z</time>
      </trkpt>
      <trkpt lat="49.78768" lon="2.37671">
        <ele>41.6</ele>
        <time>2022-07-13T07:12:19Z</time>
      </trkpt>
      <trkpt lat="49.78769" lon="2.3767">
        <ele>41.6</ele>
        <time>2022-07-13T07:12:20Z</time>
      </trkpt>
      <trkpt lat="49.7877" lon="2.37666">
        <ele>41.7</ele>
        <time>2022-07-13T07:12:21Z</time>
      </trkpt>
      <trkpt lat="49.78771" lon="2.37665">
        <ele>41.7</ele>
        <time>2022-07-13T07:12:23Z</time>
      </trkpt>
      <trkpt lat="49.78771" lon="2.37663">
        <ele>41.8</ele>
        <time>2022-07-13T07:12:24Z</time>
      </trkpt>
      <trkpt lat="49.78772" lon="2.37662">
        <ele>41.8</ele>
        <time>2022-07-13T07:12:25Z</time>
      </trkpt>
      <trkpt lat="49.78772" lon="2.37661">
        <ele>41.8</ele>
        <time>2022-07-13T07:12:26Z</time>
      </trkpt>
      <trkpt lat="49.78773" lon="2.37659">
        <ele>41.9</ele>
        <time>2022-07-13T07:12:27Z</time>
      </trkpt>
      <trkpt lat="49.78774" lon="2.37657">
        <ele>41.9</ele>
        <time>2022-07-13T07:12:28Z</time>
      </trkpt>
      <trkpt lat="49.78774" lon="2.37656">
        <ele>42</ele>
        <time>2022-07-13T07:12:29Z</time>
      </trkpt>
      <trkpt lat="49.78774" lon="2.37655">
        <ele>42</ele>
        <time>2022-07-13T07:12:30Z</time>
      </trkpt>
      <trkpt lat="49.78774" lon="2.37655">
        <ele>42</ele>
        <time>2022-07-13T07:12:31Z</time>
      </trkpt>
      <trkpt lat="49.78775" lon="2.37654">
        <ele>42</ele>
        <time>2022-07-13T07:12:33Z</time>
      </trkpt>
      <trkpt lat="49.78775" lon="2.37652">
        <ele>42.1</ele>
        <time>2022-07-13T07:12:34Z</time>
      </trkpt>
      <trkpt lat="49.78776" lon="2.37651">
        <ele>42.2</ele>
        <time>2022-07-13T07:12:35Z</time>
      </trkpt>
      <trkpt lat="49.78777" lon="2.37648">
        <ele>42.2</ele>
        <time>2022-07-13T07:12:36Z</time>
      </trkpt>
      <trkpt lat="49.78777" lon="2.37647">
        <ele>42.3</ele>
        <time>2022-07-13T07:12:37Z</time>
      </trkpt>
      <trkpt lat="49.78778" lon="2.37645">
        <ele>42.3</ele>
        <time>2022-07-13T07:12:39Z</time>
      </trkpt>
      <trkpt lat="49.78778" lon="2.37644">
        <ele>42.4</ele>
        <time>2022-07-13T07:12:40Z</time>
      </trkpt>
      <trkpt lat="49.78779" lon="2.37641">
        <ele>42.5</ele>
        <time>2022-07-13T07:12:41Z</time>
      </trkpt>
      <trkpt lat="49.78779" lon="2.3764">
        <ele>42.5</ele>
        <time>2022-07-13T07:12:42Z</time>
      </trkpt>
      <trkpt lat="49.7878" lon="2.37637">
        <ele>42.6</ele>
        <time>2022-07-13T07:12:43Z</time>
      </trkpt>
      <trkpt lat="49.7878" lon="2.37635">
        <ele>42.7</ele>
        <time>2022-07-13T07:12:45Z</time>
      </trkpt>
      <trkpt lat="49.7878" lon="2.37633">
        <ele>42.7</ele>
        <time>2022-07-13T07:12:46Z</time>
      </trkpt>
      <trkpt lat="49.78781" lon="2.37632">
        <ele>42.8</ele>
        <time>2022-07-13T07:12:47Z</time>
      </trkpt>
      <trkpt lat="49.78781" lon="2.3763">
        <ele>42.9</ele>
        <time>2022-07-13T07:12:48Z</time>
      </trkpt>
      <trkpt lat="49.78781" lon="2.37628">
        <ele>42.9</ele>
        <time>2022-07-13T07:12:50Z</time>
      </trkpt>
      <trkpt lat="49.78781" lon="2.37624">
        <ele>43.1</ele>
        <time>2022-07-13T07:12:51Z</time>
      </trkpt>
      <trkpt lat="49.7878" lon="2.37622">
        <ele>43.2</ele>
        <time>2022-07-13T07:12:53Z</time>
      </trkpt>
      <trkpt lat="49.7878" lon="2.37619">
        <ele>43.4</ele>
        <time>2022-07-13T07:12:54Z</time>
      </trkpt>
      <trkpt lat="49.7878" lon="2.37618">
        <ele>43.4</ele>
        <time>2022-07-13T07:12:55Z</time>
      </trkpt>
      <trkpt lat="49.7878" lon="2.37616">
        <ele>43.5</ele>
        <time>2022-07-13T07:12:56Z</time>
      </trkpt>
      <trkpt lat="49.7878" lon="2.37615">
        <ele>43.6</ele>
        <time>2022-07-13T07:12:57Z</time>
      </trkpt>
      <trkpt lat="49.78781" lon="2.37613">
        <ele>43.6</ele>
        <time>2022-07-13T07:12:58Z</time>
      </trkpt>
      <trkpt lat="49.78781" lon="2.37611">
        <ele>43.8</ele>
        <time>2022-07-13T07:13:00Z</time>
      </trkpt>
      <trkpt lat="49.78781" lon="2.37608">
        <ele>43.9</ele>
        <time>2022-07-13T07:13:01Z</time>
      </trkpt>
      <trkpt lat="49.78781" lon="2.37606">
        <ele>44</ele>
        <time>2022-07-13T07:13:03Z</time>
      </trkpt>
      <trkpt lat="49.78782" lon="2.37604">
        <ele>44.2</ele>
        <time>2022-07-13T07:13:04Z</time>
      </trkpt>
      <trkpt lat="49.78782" lon="2.37602">
        <ele>44.3</ele>
        <time>2022-07-13T07:13:05Z</time>
      </trkpt>
      <trkpt lat="49.78781" lon="2.37601">
        <ele>44.4</ele>
        <time>2022-07-13T07:13:07Z</time>
      </trkpt>
      <trkpt lat="49.7878" lon="2.37601">
        <ele>44.5</ele>
        <time>2022-07-13T07:13:08Z</time>
      </trkpt>
      <trkpt lat="49.78779" lon="2.37601">
        <ele>44.6</ele>
        <time>2022-07-13T07:13:09Z</time>
      </trkpt>
      <trkpt lat="49.78778" lon="2.37601">
        <ele>44.7</ele>
        <time>2022-07-13T07:13:10Z</time>
      </trkpt>
      <trkpt lat="49.78778" lon="2.376">
        <ele>44.7</ele>
        <time>2022-07-13T07:13:11Z</time>
      </trkpt>
      <trkpt lat="49.78778" lon="2.37598">
        <ele>44.8</ele>
        <time>2022-07-13T07:13:13Z</time>
      </trkpt>
      <trkpt lat="49.78778" lon="2.37596">
        <ele>44.9</ele>
        <time>2022-07-13T07:13:14Z</time>
      </trkpt>
      <trkpt lat="49.78778" lon="2.37595">
        <ele>45</ele>
        <time>2022-07-13T07:13:15Z</time>
      </trkpt>
      <trkpt lat="49.78778" lon="2.37594">
        <ele>45</ele>
        <time>2022-07-13T07:13:16Z</time>
      </trkpt>
      <trkpt lat="49.78778" lon="2.37595">
        <ele>45.1</ele>
        <time>2022-07-13T07:13:18Z</time>
      </trkpt>
      <trkpt lat="49.78778" lon="2.37594">
        <ele>45.2</ele>
        <time>2022-07-13T07:13:19Z</time>
      </trkpt>
      <trkpt lat="49.78779" lon="2.37592">
        <ele>45.3</ele>
        <time>2022-07-13T07:13:20Z</time>
      </trkpt>
      <trkpt lat="49.7878" lon="2.3759">
        <ele>45.4</ele>
        <time>2022-07-13T07:13:22Z</time>
      </trkpt>
      <trkpt lat="49.7878" lon="2.37588">
        <ele>45.5</ele>
        <time>2022-07-13T07:13:23Z</time>
      </trkpt>
      <trkpt lat="49.78781" lon="2.37585">
        <ele>45.7</ele>
        <time>2022-07-13T07:13:24Z</time>
      </trkpt>
      <trkpt lat="49.78781" lon="2.37583">
        <ele>45.8</ele>
        <time>2022-07-13T07:13:25Z</time>
      </trkpt>
      <trkpt lat="49.78781" lon="2.37582">
        <ele>45.9</ele>
        <time>2022-07-13T07:13:26Z</time>
      </trkpt>
      <trkpt lat="49.78782" lon="2.37581">
        <ele>46</ele>
        <time>2022-07-13T07:13:28Z</time>
      </trkpt>
      <trkpt lat="49.78782" lon="2.3758">
        <ele>46.1</ele>
        <time>2022-07-13T07:13:29Z</time>
      </trkpt>
      <trkpt lat="49.78782" lon="2.37578">
        <ele>46.2</ele>
        <time>2022-07-13T07:13:30Z</time>
      </trkpt>
      <trkpt lat="49.78783" lon="2.37576">
        <ele>46.3</ele>
        <time>2022-07-13T07:13:31Z</time>
      </trkpt>
      <trkpt lat="49.78784" lon="2.37574">
        <ele>46.4</ele>
        <time>2022-07-13T07:13:32Z</time>
      </trkpt>
      <trkpt lat="49.78784" lon="2.37573">
        <ele>46.6</ele>
        <time>2022-07-13T07:13:34Z</time>
      </trkpt>
      <trkpt lat="49.78785" lon="2.3757">
        <ele>46.7</ele>
        <time>2022-07-13T07:13:35Z</time>
      </trkpt>
      <trkpt lat="49.78785" lon="2.37568">
        <ele>46.8</ele>
        <time>2022-07-13T07:13:37Z</time>
      </trkpt>
      <trkpt lat="49.78786" lon="2.37567">
        <ele>46.9</ele>
        <time>2022-07-13T07:13:38Z</time>
      </trkpt>
      <trkpt lat="49.78786" lon="2.37566">
        <ele>47</ele>
        <time>2022-07-13T07:13:39Z</time>
      </trkpt>
      <trkpt lat="49.78787" lon="2.37565">
        <ele>47.1</ele>
        <time>2022-07-13T07:13:41Z</time>
      </trkpt>
      <trkpt lat="49.78787" lon="2.37563">
        <ele>47.2</ele>
        <time>2022-07-13T07:13:42Z</time>
      </trkpt>
      <trkpt lat="49.78787" lon="2.37562">
        <ele>47.3</ele>
        <time>2022-07-13T07:13:43Z</time>
      </trkpt>
      <trkpt lat="49.78788" lon="2.37561">
        <ele>47.4</ele>
        <time>2022-07-13T07:13:44Z</time>
      </trkpt>
      <trkpt lat="49.78788" lon="2.3756">
        <ele>47.5</ele>
        <time>2022-07-13T07:13:45Z</time>
      </trkpt>
      <trkpt lat="49.78789" lon="2.37557">
        <ele>47.7</ele>
        <time>2022-07-13T07:13:47Z</time>
      </trkpt>
      <trkpt lat="49.78789" lon="2.37556">
        <ele>47.7</ele>
        <time>2022-07-13T07:13:48Z</time>
      </trkpt>
      <trkpt lat="49.7879" lon="2.37554">
        <ele>47.9</ele>
        <time>2022-07-13T07:13:49Z</time>
      </trkpt>
      <trkpt lat="49.7879" lon="2.37552">
        <ele>48</ele>
        <time>2022-07-13T07:13:50Z</time>
      </trkpt>
      <trkpt lat="49.7879" lon="2.37549">
        <ele>48.2</ele>
        <time>2022-07-13T07:13:52Z</time>
      </trkpt>
      <trkpt lat="49.7879" lon="2.37548">
        <ele>48.3</ele>
        <time>2022-07-13T07:13:53Z</time>
      </trkpt>
      <trkpt lat="49.78791" lon="2.37546">
        <ele>48.4</ele>
        <time>2022-07-13T07:13:54Z</time>
      </trkpt>
      <trkpt lat="49.78791" lon="2.37545">
        <ele>48.5</ele>
        <time>2022-07-13T07:13:55Z</time>
      </trkpt>
      <trkpt lat="49.78792" lon="2.37543">
        <ele>48.6</ele>
        <time>2022-07-13T07:13:57Z</time>
      </trkpt>
      <trkpt lat="49.78792" lon="2.37542">
        <ele>48.7</ele>
        <time>2022-07-13T07:13:58Z</time>
      </trkpt>
      <trkpt lat="49.78792" lon="2.37541">
        <ele>48.8</ele>
        <time>2022-07-13T07:13:59Z</time>
      </trkpt>
      <trkpt lat="49.78793" lon="2.3754">
        <ele>48.8</ele>
        <time>2022-07-13T07:14:00Z</time>
      </trkpt>
      <trkpt lat="49.78793" lon="2.37538">
        <ele>49</ele>
        <time>2022-07-13T07:14:02Z</time>
      </trkpt>
      <trkpt lat="49.78794" lon="2.37537">
        <ele>49.1</ele>
        <time>2022-07-13T07:14:03Z</time>
      </trkpt>
      <trkpt lat="49.78794" lon="2.37535">
        <ele>49.2</ele>
        <time>2022-07-13T07:14:04Z</time>
      </trkpt>
      <trkpt lat="49.78795" lon="2.37533">
        <ele>49.3</ele>
        <time>2022-07-13T07:14:05Z</time>
      </trkpt>
      <trkpt lat="49.78795" lon="2.3753">
        <ele>49.6</ele>
        <time>2022-07-13T07:14:07Z</time>
      </trkpt>
      <trkpt lat="49.78796" lon="2.37529">
        <ele>49.7</ele>
        <time>2022-07-13T07:14:08Z</time>
      </trkpt>
      <trkpt lat="49.78797" lon="2.37526">
        <ele>49.9</ele>
        <time>2022-07-13T07:14:10Z</time>
      </trkpt>
      <trkpt lat="49.78797" lon="2.37524">
        <ele>50</ele>
        <time>2022-07-13T07:14:11Z</time>
      </trkpt>
      <trkpt lat="49.78798" lon="2.37523">
        <ele>50.1</ele>
        <time>2022-07-13T07:14:12Z</time>
      </trkpt>
      <trkpt lat="49.78798" lon="2.37522">
        <ele>50.2</ele>
        <time>2022-07-13T07:14:13Z</time>
      </trkpt>
      <trkpt lat="49.78798" lon="2.3752">
        <ele>50.3</ele>
        <time>2022-07-13T07:14:14Z</time>
      </trkpt>
      <trkpt lat="49.78799" lon="2.37517">
        <ele>50.5</ele>
        <time>2022-07-13T07:14:16Z</time>
      </trkpt>
      <trkpt lat="49.788" lon="2.37515">
        <ele>50.7</ele>
        <time>2022-07-13T07:14:17Z</time>
      </trkpt>
      <trkpt lat="49.788" lon="2.37513">
        <ele>50.8</ele>
        <time>2022-07-13T07:14:18Z</time>
      </trkpt>
      <trkpt lat="49.788" lon="2.37511">
        <ele>51</ele>
        <time>2022-07-13T07:14:20Z</time>
      </trkpt>
      <trkpt lat="49.78801" lon="2.37509">
        <ele>51.1</ele>
        <time>2022-07-13T07:14:21Z</time>
      </trkpt>
      <trkpt lat="49.78801" lon="2.37506">
        <ele>51.3</ele>
        <time>2022-07-13T07:14:22Z</time>
      </trkpt>
      <trkpt lat="49.78801" lon="2.37505">
        <ele>51.4</ele>
        <time>2022-07-13T07:14:23Z</time>
      </trkpt>
      <trkpt lat="49.788" lon="2.37502">
        <ele>51.6</ele>
        <time>2022-07-13T07:14:24Z</time>
      </trkpt>
      <trkpt lat="49.788" lon="2.37501">
        <ele>51.7</ele>
        <time>2022-07-13T07:14:26Z</time>
      </trkpt>
      <trkpt lat="49.78799" lon="2.375">
        <ele>51.8</ele>
        <time>2022-07-13T07:14:27Z</time>
      </trkpt>
      <trkpt lat="49.78799" lon="2.37499">
        <ele>51.9</ele>
        <time>2022-07-13T07:14:28Z</time>
      </trkpt>
      <trkpt lat="49.78799" lon="2.37498">
        <ele>52</ele>
        <time>2022-07-13T07:14:29Z</time>
      </trkpt>
      <trkpt lat="49.78799" lon="2.37496">
        <ele>52.1</ele>
        <time>2022-07-13T07:14:30Z</time>
      </trkpt>
      <trkpt lat="49.78799" lon="2.37494">
        <ele>52.3</ele>
        <time>2022-07-13T07:14:32Z</time>
      </trkpt>
      <trkpt lat="49.78799" lon="2.37492">
        <ele>52.4</ele>
        <time>2022-07-13T07:14:33Z</time>
      </trkpt>
      <trkpt lat="49.78799" lon="2.37491">
        <ele>52.5</ele>
        <time>2022-07-13T07:14:34Z</time>
      </trkpt>
      <trkpt lat="49.78799" lon="2.3749">
        <ele>52.6</ele>
        <time>2022-07-13T07:14:35Z</time>
      </trkpt>
      <trkpt lat="49.78799" lon="2.37488">
        <ele>52.7</ele>
        <time>2022-07-13T07:14:36Z</time>
      </trkpt>
      <trkpt lat="49.78799" lon="2.37486">
        <ele>52.9</ele>
        <time>2022-07-13T07:14:37Z</time>
      </trkpt>
      <trkpt lat="49.78799" lon="2.37485">
        <ele>53</ele>
        <time>2022-07-13T07:14:39Z</time>
      </trkpt>
      <trkpt lat="49.78798" lon="2.37484">
        <ele>53.1</ele>
        <time>2022-07-13T07:14:40Z</time>
      </trkpt>
      <trkpt lat="49.78798" lon="2.37484">
        <ele>53.1</ele>
        <time>2022-07-13T07:14:41Z</time>
      </trkpt>
      <trkpt lat="49.78797" lon="2.37484">
        <ele>53.2</ele>
        <time>2022-07-13T07:14:42Z</time>
      </trkpt>
      <trkpt lat="49.78797" lon="2.37484">
        <ele>53.2</ele>
        <time>2022-07-13T07:14:43Z</time>
      </trkpt>
      <trkpt lat="49.78797" lon="2.37483">
        <ele>53.3</ele>
        <time>2022-07-13T07:14:44Z</time>
      </trkpt>
      <trkpt lat="49.78797" lon="2.37482">
        <ele>53.4</ele>
        <time>2022-07-13T07:14:45Z</time>
      </trkpt>
      <trkpt lat="49.78797" lon="2.3748">
        <ele>53.5</ele>
        <time>2022-07-13T07:14:46Z</time>
      </trkpt>
      <trkpt lat="49.78797" lon="2.37478">
        <ele>53.7</ele>
        <time>2022-07-13T07:14:47Z</time>
      </trkpt>
      <trkpt lat="49.78798" lon="2.37476">
        <ele>53.8</ele>
        <time>2022-07-13T07:14:48Z</time>
      </trkpt>
      <trkpt lat="49.78798" lon="2.37474">
        <ele>54</ele>
        <time>2022-07-13T07:14:50Z</time>
      </trkpt>
      <trkpt lat="49.78798" lon="2.37472">
        <ele>54.1</ele>
        <time>2022-07-13T07:14:51Z</time>
      </trkpt>
      <trkpt lat="49.78798" lon="2.37469">
        <ele>54.3</ele>
        <time>2022-07-13T07:14:52Z</time>
      </trkpt>
      <trkpt lat="49.78798" lon="2.37468">
        <ele>54.4</ele>
        <time>2022-07-13T07:14:53Z</time>
      </trkpt>
      <trkpt lat="49.78799" lon="2.37467">
        <ele>54.5</ele>
        <time>2022-07-13T07:14:54Z</time>
      </trkpt>
      <trkpt lat="49.78798" lon="2.37465">
        <ele>54.7</ele>
        <time>2022-07-13T07:14:56Z</time>
      </trkpt>
      <trkpt lat="49.78798" lon="2.37462">
        <ele>54.9</ele>
        <time>2022-07-13T07:14:57Z</time>
      </trkpt>
      <trkpt lat="49.78798" lon="2.37461">
        <ele>55</ele>
        <time>2022-07-13T07:14:58Z</time>
      </trkpt>
      <trkpt lat="49.78798" lon="2.3746">
        <ele>55.1</ele>
        <time>2022-07-13T07:14:59Z</time>
      </trkpt>
      <trkpt lat="49.78797" lon="2.37458">
        <ele>55.2</ele>
        <time>2022-07-13T07:15:00Z</time>
      </trkpt>
      <trkpt lat="49.78797" lon="2.37457">
        <ele>55.3</ele>
        <time>2022-07-13T07:15:01Z</time>
      </trkpt>
      <trkpt lat="49.78797" lon="2.37454">
        <ele>55.5</ele>
        <time>2022-07-13T07:15:03Z</time>
      </trkpt>
      <trkpt lat="49.78797" lon="2.37452">
        <ele>55.6</ele>
        <time>2022-07-13T07:15:04Z</time>
      </trkpt>
      <trkpt lat="49.78797" lon="2.3745">
        <ele>55.7</ele>
        <time>2022-07-13T07:15:05Z</time>
      </trkpt>
      <trkpt lat="49.78797" lon="2.37449">
        <ele>55.9</ele>
        <time>2022-07-13T07:15:06Z</time>
      </trkpt>
      <trkpt lat="49.78797" lon="2.37446">
        <ele>56</ele>
        <time>2022-07-13T07:15:07Z</time>
      </trkpt>
      <trkpt lat="49.78797" lon="2.37444">
        <ele>56.2</ele>
        <time>2022-07-13T07:15:09Z</time>
      </trkpt>
      <trkpt lat="49.78797" lon="2.37442">
        <ele>56.4</ele>
        <time>2022-07-13T07:15:11Z</time>
      </trkpt>
      <trkpt lat="49.78797" lon="2.37439">
        <ele>56.6</ele>
        <time>2022-07-13T07:15:12Z</time>
      </trkpt>
      <trkpt lat="49.78796" lon="2.37438">
        <ele>56.7</ele>
        <time>2022-07-13T07:15:13Z</time>
      </trkpt>
      <trkpt lat="49.78796" lon="2.37436">
        <ele>56.8</ele>
        <time>2022-07-13T07:15:14Z</time>
      </trkpt>
      <trkpt lat="49.78796" lon="2.37434">
        <ele>56.9</ele>
        <time>2022-07-13T07:15:15Z</time>
      </trkpt>
      <trkpt lat="49.78796" lon="2.37432">
        <ele>57.1</ele>
        <time>2022-07-13T07:15:17Z</time>
      </trkpt>
      <trkpt lat="49.78796" lon="2.3743">
        <ele>57.2</ele>
        <time>2022-07-13T07:15:18Z</time>
      </trkpt>
      <trkpt lat="49.78796" lon="2.37428">
        <ele>57.4</ele>
        <time>2022-07-13T07:15:19Z</time>
      </trkpt>
      <trkpt lat="49.78796" lon="2.37427">
        <ele>57.5</ele>
        <time>2022-07-13T07:15:20Z</time>
      </trkpt>
      <trkpt lat="49.78795" lon="2.37425">
        <ele>57.6</ele>
        <time>2022-07-13T07:15:21Z</time>
      </trkpt>
      <trkpt lat="49.78795" lon="2.37422">
        <ele>57.8</ele>
        <time>2022-07-13T07:15:23Z</time>
      </trkpt>
      <trkpt lat="49.78795" lon="2.37421">
        <ele>57.9</ele>
        <time>2022-07-13T07:15:24Z</time>
      </trkpt>
      <trkpt lat="49.78794" lon="2.37419">
        <ele>58</ele>
        <time>2022-07-13T07:15:25Z</time>
      </trkpt>
      <trkpt lat="49.78794" lon="2.37418">
        <ele>58.1</ele>
        <time>2022-07-13T07:15:26Z</time>
      </trkpt>
      <trkpt lat="49.78793" lon="2.37419">
        <ele>58.2</ele>
        <time>2022-07-13T07:15:28Z</time>
      </trkpt>
      <trkpt lat="49.78794" lon="2.37419">
        <ele>58.3</ele>
        <time>2022-07-13T07:15:29Z</time>
      </trkpt>
      <trkpt lat="49.78794" lon="2.37417">
        <ele>58.4</ele>
        <time>2022-07-13T07:15:30Z</time>
      </trkpt>
      <trkpt lat="49.78794" lon="2.37416">
        <ele>58.5</ele>
        <time>2022-07-13T07:15:31Z</time>
      </trkpt>
      <trkpt lat="49.78795" lon="2.37415">
        <ele>58.6</ele>
        <time>2022-07-13T07:15:32Z</time>
      </trkpt>
      <trkpt lat="49.78795" lon="2.37414">
        <ele>58.7</ele>
        <time>2022-07-13T07:15:33Z</time>
      </trkpt>
      <trkpt lat="49.78796" lon="2.37413">
        <ele>58.8</ele>
        <time>2022-07-13T07:15:34Z</time>
      </trkpt>
      <trkpt lat="49.78796" lon="2.37411">
        <ele>58.9</ele>
        <time>2022-07-13T07:15:35Z</time>
      </trkpt>
      <trkpt lat="49.78796" lon="2.3741">
        <ele>58.9</ele>
        <time>2022-07-13T07:15:36Z</time>
      </trkpt>
      <trkpt lat="49.78796" lon="2.37411">
        <ele>59</ele>
        <time>2022-07-13T07:15:38Z</time>
      </trkpt>
      <trkpt lat="49.78796" lon="2.37411">
        <ele>59.1</ele>
        <time>2022-07-13T07:15:39Z</time>
      </trkpt>
      <trkpt lat="49.78796" lon="2.3741">
        <ele>59.1</ele>
        <time>2022-07-13T07:15:40Z</time>
      </trkpt>
      <trkpt lat="49.78796" lon="2.37409">
        <ele>59.2</ele>
        <time>2022-07-13T07:15:41Z</time>
      </trkpt>
      <trkpt lat="49.78797" lon="2.37407">
        <ele>59.4</ele>
        <time>2022-07-13T07:15:43Z</time>
      </trkpt>
      <trkpt lat="49.78798" lon="2.37405">
        <ele>59.5</ele>
        <time>2022-07-13T07:15:44Z</time>
      </trkpt>
      <trkpt lat="49.78798" lon="2.37404">
        <ele>59.6</ele>
        <time>2022-07-13T07:15:45Z</time>
      </trkpt>
      <trkpt lat="49.78798" lon="2.37402">
        <ele>59.7</ele>
        <time>2022-07-13T07:15:46Z</time>
      </trkpt>
      <trkpt lat="49.78798" lon="2.374">
        <ele>59.9</ele>
        <time>2022-07-13T07:15:47Z</time>
      </trkpt>
      <trkpt lat="49.78798" lon="2.37399">
        <ele>59.9</ele>
        <time>2022-07-13T07:15:49Z</time>
      </trkpt>
      <trkpt lat="49.78798" lon="2.37397">
        <ele>60.1</ele>
        <time>2022-07-13T07:15:50Z</time>
      </trkpt>
      <trkpt lat="49.78798" lon="2.37395">
        <ele>60.2</ele>
        <time>2022-07-13T07:15:51Z</time>
      </trkpt>
      <trkpt lat="49.78798" lon="2.37392">
        <ele>60.4</ele>
        <time>2022-07-13T07:15:52Z</time>
      </trkpt>
      <trkpt lat="49.78799" lon="2.3739">
        <ele>60.6</ele>
        <time>2022-07-13T07:15:53Z</time>
      </trkpt>
      <trkpt lat="49.78799" lon="2.37388">
        <ele>60.7</ele>
        <time>2022-07-13T07:15:55Z</time>
      </trkpt>
      <trkpt lat="49.78799" lon="2.37387">
        <ele>60.8</ele>
        <time>2022-07-13T07:15:56Z</time>
      </trkpt>
      <trkpt lat="49.788" lon="2.37383">
        <ele>61</ele>
        <time>2022-07-13T07:15:58Z</time>
      </trkpt>
      <trkpt lat="49.788" lon="2.37382">
        <ele>61.1</ele>
        <time>2022-07-13T07:15:59Z</time>
      </trkpt>
      <trkpt lat="49.78801" lon="2.37378">
        <ele>61.4</ele>
        <time>2022-07-13T07:16:00Z</time>
      </trkpt>
      <trkpt lat="49.78801" lon="2.37377">
        <ele>61.5</ele>
        <time>2022-07-13T07:16:01Z</time>
      </trkpt>
      <trkpt lat="49.78801" lon="2.37375">
        <ele>61.6</ele>
        <time>2022-07-13T07:16:02Z</time>
      </trkpt>
      <trkpt lat="49.78801" lon="2.37374">
        <ele>61.7</ele>
        <time>2022-07-13T07:16:04Z</time>
      </trkpt>
      <trkpt lat="49.78801" lon="2.37372">
        <ele>61.8</ele>
        <time>2022-07-13T07:16:05Z</time>
      </trkpt>
      <trkpt lat="49.78801" lon="2.3737">
        <ele>61.9</ele>
        <time>2022-07-13T07:16:06Z</time>
      </trkpt>
      <trkpt lat="49.78801" lon="2.37367">
        <ele>62.1</ele>
        <time>2022-07-13T07:16:08Z</time>
      </trkpt>
      <trkpt lat="49.78801" lon="2.37365">
        <ele>62.2</ele>
        <time>2022-07-13T07:16:09Z</time>
      </trkpt>
      <trkpt lat="49.788" lon="2.37362">
        <ele>62.4</ele>
        <time>2022-07-13T07:16:10Z</time>
      </trkpt>
      <trkpt lat="49.788" lon="2.3736">
        <ele>62.5</ele>
        <time>2022-07-13T07:16:12Z</time>
      </trkpt>
      <trkpt lat="49.788" lon="2.37359">
        <ele>62.6</ele>
        <time>2022-07-13T07:16:13Z</time>
      </trkpt>
      <trkpt lat="49.788" lon="2.37357">
        <ele>62.8</ele>
        <time>2022-07-13T07:16:14Z</time>
      </trkpt>
      <trkpt lat="49.78799" lon="2.37355">
        <ele>62.9</ele>
        <time>2022-07-13T07:16:15Z</time>
      </trkpt>
      <trkpt lat="49.78798" lon="2.37353">
        <ele>63.1</ele>
        <time>2022-07-13T07:16:17Z</time>
      </trkpt>
      <trkpt lat="49.78797" lon="2.37351">
        <ele>63.3</ele>
        <time>2022-07-13T07:16:18Z</time>
      </trkpt>
      <trkpt lat="49.78796" lon="2.37349">
        <ele>63.4</ele>
        <time>2022-07-13T07:16:19Z</time>
      </trkpt>
      <trkpt lat="49.78795" lon="2.37348">
        <ele>63.5</ele>
        <time>2022-07-13T07:16:20Z</time>
      </trkpt>
      <trkpt lat="49.78795" lon="2.37346">
        <ele>63.7</ele>
        <time>2022-07-13T07:16:21Z</time>
      </trkpt>
      <trkpt lat="49.78794" lon="2.37343">
        <ele>63.9</ele>
        <time>2022-07-13T07:16:23Z</time>
      </trkpt>
      <trkpt lat="49.78793" lon="2.37342">
        <ele>64</ele>
        <time>2022-07-13T07:16:24Z</time>
      </trkpt>
      <trkpt lat="49.78793" lon="2.3734">
        <ele>64.1</ele>
        <time>2022-07-13T07:16:25Z</time>
      </trkpt>
      <trkpt lat="49.78792" lon="2.37338">
        <ele>64.2</ele>
        <time>2022-07-13T07:16:26Z</time>
      </trkpt>
      <trkpt lat="49.78792" lon="2.37335">
        <ele>64.5</ele>
        <time>2022-07-13T07:16:27Z</time>
      </trkpt>
      <trkpt lat="49.78792" lon="2.37334">
        <ele>64.5</ele>
        <time>2022-07-13T07:16:28Z</time>
      </trkpt>
      <trkpt lat="49.78792" lon="2.37334">
        <ele>64.6</ele>
        <time>2022-07-13T07:16:30Z</time>
      </trkpt>
      <trkpt lat="49.78792" lon="2.37333">
        <ele>64.6</ele>
        <time>2022-07-13T07:16:31Z</time>
      </trkpt>
      <trkpt lat="49.78792" lon="2.37333">
        <ele>64.6</ele>
        <time>2022-07-13T07:16:32Z</time>
      </trkpt>
      <trkpt lat="49.78792" lon="2.37332">
        <ele>64.7</ele>
        <time>2022-07-13T07:16:33Z</time>
      </trkpt>
      <trkpt lat="49.78792" lon="2.3733">
        <ele>64.8</ele>
        <time>2022-07-13T07:16:34Z</time>
      </trkpt>
      <trkpt lat="49.78792" lon="2.37328">
        <ele>65</ele>
        <time>2022-07-13T07:16:35Z</time>
      </trkpt>
      <trkpt lat="49.78793" lon="2.37326">
        <ele>65.2</ele>
        <time>2022-07-13T07:16:37Z</time>
      </trkpt>
      <trkpt lat="49.78793" lon="2.37323">
        <ele>65.4</ele>
        <time>2022-07-13T07:16:38Z</time>
      </trkpt>
      <trkpt lat="49.78793" lon="2.37321">
        <ele>65.5</ele>
        <time>2022-07-13T07:16:39Z</time>
      </trkpt>
      <trkpt lat="49.78793" lon="2.37319">
        <ele>65.6</ele>
        <time>2022-07-13T07:16:40Z</time>
      </trkpt>
      <trkpt lat="49.78793" lon="2.37318">
        <ele>65.7</ele>
        <time>2022-07-13T07:16:41Z</time>
      </trkpt>
      <trkpt lat="49.78792" lon="2.37318">
        <ele>65.8</ele>
        <time>2022-07-13T07:16:43Z</time>
      </trkpt>
      <trkpt lat="49.78792" lon="2.37316">
        <ele>65.9</ele>
        <time>2022-07-13T07:16:44Z</time>
      </trkpt>
      <trkpt lat="49.78792" lon="2.37315">
        <ele>66</ele>
        <time>2022-07-13T07:16:45Z</time>
      </trkpt>
      <trkpt lat="49.78792" lon="2.37313">
        <ele>66.2</ele>
        <time>2022-07-13T07:16:46Z</time>
      </trkpt>
      <trkpt lat="49.78791" lon="2.3731">
        <ele>66.4</ele>
        <time>2022-07-13T07:16:47Z</time>
      </trkpt>
      <trkpt lat="49.78791" lon="2.37309">
        <ele>66.5</ele>
        <time>2022-07-13T07:16:49Z</time>
      </trkpt>
      <trkpt lat="49.78791" lon="2.37307">
        <ele>66.6</ele>
        <time>2022-07-13T07:16:50Z</time>
      </trkpt>
      <trkpt lat="49.78791" lon="2.37305">
        <ele>66.8</ele>
        <time>2022-07-13T07:16:51Z</time>
      </trkpt>
      <trkpt lat="49.7879" lon="2.37304">
        <ele>66.9</ele>
        <time>2022-07-13T07:16:52Z</time>
      </trkpt>
      <trkpt lat="49.78789" lon="2.37301">
        <ele>67.1</ele>
        <time>2022-07-13T07:16:53Z</time>
      </trkpt>
      <trkpt lat="49.78789" lon="2.37299">
        <ele>67.3</ele>
        <time>2022-07-13T07:16:54Z</time>
      </trkpt>
      <trkpt lat="49.78789" lon="2.373">
        <ele>67.3</ele>
        <time>2022-07-13T07:16:56Z</time>
      </trkpt>
      <trkpt lat="49.78789" lon="2.37301">
        <ele>67.4</ele>
        <time>2022-07-13T07:16:57Z</time>
      </trkpt>
      <trkpt lat="49.78789" lon="2.373">
        <ele>67.5</ele>
        <time>2022-07-13T07:16:58Z</time>
      </trkpt>
      <trkpt lat="49.78789" lon="2.37299">
        <ele>67.5</ele>
        <time>2022-07-13T07:16:59Z</time>
      </trkpt>
      <trkpt lat="49.78789" lon="2.37298">
        <ele>67.7</ele>
        <time>2022-07-13T07:17:00Z</time>
      </trkpt>
      <trkpt lat="49.78788" lon="2.37296">
        <ele>67.8</ele>
        <time>2022-07-13T07:17:01Z</time>
      </trkpt>
      <trkpt lat="49.78788" lon="2.37293">
        <ele>68.1</ele>
        <time>2022-07-13T07:17:03Z</time>
      </trkpt>
      <trkpt lat="49.78788" lon="2.37292">
        <ele>68.2</ele>
        <time>2022-07-13T07:17:04Z</time>
      </trkpt>
      <trkpt lat="49.78787" lon="2.37288">
        <ele>68.5</ele>
        <time>2022-07-13T07:17:05Z</time>
      </trkpt>
      <trkpt lat="49.78787" lon="2.37287">
        <ele>68.6</ele>
        <time>2022-07-13T07:17:06Z</time>
      </trkpt>
      <trkpt lat="49.78787" lon="2.37286">
        <ele>68.7</ele>
        <time>2022-07-13T07:17:07Z</time>
      </trkpt>
      <trkpt lat="49.78786" lon="2.37284">
        <ele>68.8</ele>
        <time>2022-07-13T07:17:08Z</time>
      </trkpt>
      <trkpt lat="49.78786" lon="2.37284">
        <ele>68.9</ele>
        <time>2022-07-13T07:17:09Z</time>
      </trkpt>
      <trkpt lat="49.78785" lon="2.37283">
        <ele>69</ele>
        <time>2022-07-13T07:17:10Z</time>
      </trkpt>
      <trkpt lat="49.78785" lon="2.37283">
        <ele>69.1</ele>
        <time>2022-07-13T07:17:11Z</time>
      </trkpt>
      <trkpt lat="49.78784" lon="2.37283">
        <ele>69.1</ele>
        <time>2022-07-13T07:17:12Z</time>
      </trkpt>
      <trkpt lat="49.78784" lon="2.37281">
        <ele>69.3</ele>
        <time>2022-07-13T07:17:13Z</time>
      </trkpt>
      <trkpt lat="49.78783" lon="2.37279">
        <ele>69.4</ele>
        <time>2022-07-13T07:17:14Z</time>
      </trkpt>
      <trkpt lat="49.78783" lon="2.37279">
        <ele>69.5</ele>
        <time>2022-07-13T07:17:15Z</time>
      </trkpt>
      <trkpt lat="49.78782" lon="2.37278">
        <ele>69.6</ele>
        <time>2022-07-13T07:17:16Z</time>
      </trkpt>
      <trkpt lat="49.78782" lon="2.37277">
        <ele>69.7</ele>
        <time>2022-07-13T07:17:17Z</time>
      </trkpt>
      <trkpt lat="49.78781" lon="2.37276">
        <ele>69.8</ele>
        <time>2022-07-13T07:17:18Z</time>
      </trkpt>
      <trkpt lat="49.78781" lon="2.37275">
        <ele>69.9</ele>
        <time>2022-07-13T07:17:20Z</time>
      </trkpt>
      <trkpt lat="49.7878" lon="2.37274">
        <ele>70</ele>
        <time>2022-07-13T07:17:21Z</time>
      </trkpt>
      <trkpt lat="49.78779" lon="2.37272">
        <ele>70.2</ele>
        <time>2022-07-13T07:17:22Z</time>
      </trkpt>
      <trkpt lat="49.78778" lon="2.3727">
        <ele>70.5</ele>
        <time>2022-07-13T07:17:23Z</time>
      </trkpt>
      <trkpt lat="49.78777" lon="2.37268">
        <ele>70.7</ele>
        <time>2022-07-13T07:17:24Z</time>
      </trkpt>
      <trkpt lat="49.78777" lon="2.37267">
        <ele>70.8</ele>
        <time>2022-07-13T07:17:25Z</time>
      </trkpt>
      <trkpt lat="49.78777" lon="2.37265">
        <ele>71</ele>
        <time>2022-07-13T07:17:26Z</time>
      </trkpt>
      <trkpt lat="49.78776" lon="2.37263">
        <ele>71.1</ele>
        <time>2022-07-13T07:17:27Z</time>
      </trkpt>
      <trkpt lat="49.78779" lon="2.37262">
        <ele>71.5</ele>
        <time>2022-07-13T07:17:29Z</time>
      </trkpt>
      <trkpt lat="49.7878" lon="2.37261">
        <ele>71.6</ele>
        <time>2022-07-13T07:17:30Z</time>
      </trkpt>
      <trkpt lat="49.7878" lon="2.37261">
        <ele>71.7</ele>
        <time>2022-07-13T07:17:31Z</time>
      </trkpt>
      <trkpt lat="49.78781" lon="2.3726">
        <ele>71.8</ele>
        <time>2022-07-13T07:17:32Z</time>
      </trkpt>
      <trkpt lat="49.7878" lon="2.37259">
        <ele>71.9</ele>
        <time>2022-07-13T07:17:33Z</time>
      </trkpt>
      <trkpt lat="49.78781" lon="2.37259">
        <ele>72</ele>
        <time>2022-07-13T07:17:34Z</time>
      </trkpt>
      <trkpt lat="49.78781" lon="2.37258">
        <ele>72.1</ele>
        <time>2022-07-13T07:17:35Z</time>
      </trkpt>
      <trkpt lat="49.78781" lon="2.37257">
        <ele>72.2</ele>
        <time>2022-07-13T07:17:37Z</time>
      </trkpt>
      <trkpt lat="49.78782" lon="2.37256">
        <ele>72.3</ele>
        <time>2022-07-13T07:17:38Z</time>
      </trkpt>
      <trkpt lat="49.78782" lon="2.37255">
        <ele>72.4</ele>
        <time>2022-07-13T07:17:39Z</time>
      </trkpt>
      <trkpt lat="49.78783" lon="2.37253">
        <ele>72.7</ele>
        <time>2022-07-13T07:17:40Z</time>
      </trkpt>
      <trkpt lat="49.78783" lon="2.37252">
        <ele>72.8</ele>
        <time>2022-07-13T07:17:41Z</time>
      </trkpt>
      <trkpt lat="49.78784" lon="2.3725">
        <ele>72.9</ele>
        <time>2022-07-13T07:17:42Z</time>
      </trkpt>
      <trkpt lat="49.78784" lon="2.37249">
        <ele>73</ele>
        <time>2022-07-13T07:17:43Z</time>
      </trkpt>
      <trkpt lat="49.78785" lon="2.37248">
        <ele>73.1</ele>
        <time>2022-07-13T07:17:45Z</time>
      </trkpt>
      <trkpt lat="49.78785" lon="2.37246">
        <ele>73.3</ele>
        <time>2022-07-13T07:17:46Z</time>
      </trkpt>
      <trkpt lat="49.78785" lon="2.37246">
        <ele>73.3</ele>
        <time>2022-07-13T07:17:47Z</time>
      </trkpt>
      <trkpt lat="49.78785" lon="2.37246">
        <ele>73.4</ele>
        <time>2022-07-13T07:17:49Z</time>
      </trkpt>
      <trkpt lat="49.78786" lon="2.37245">
        <ele>73.7</ele>
        <time>2022-07-13T07:17:50Z</time>
      </trkpt>
      <trkpt lat="49.78786" lon="2.37244">
        <ele>74</ele>
        <time>2022-07-13T07:17:51Z</time>
      </trkpt>
      <trkpt lat="49.78787" lon="2.37242">
        <ele>74</ele>
        <time>2022-07-13T07:17:53Z</time>
      </trkpt>
      <trkpt lat="49.78787" lon="2.37241">
        <ele>74</ele>
        <time>2022-07-13T07:17:54Z</time>
      </trkpt>
      <trkpt lat="49.78788" lon="2.3724">
        <ele>74.4</ele>
        <time>2022-07-13T07:17:55Z</time>
      </trkpt>
      <trkpt lat="49.78788" lon="2.37239">
        <ele>74.4</ele>
        <time>2022-07-13T07:17:57Z</time>
      </trkpt>
      <trkpt lat="49.78789" lon="2.37238">
        <ele>74.7</ele>
        <time>2022-07-13T07:17:58Z</time>
      </trkpt>
      <trkpt lat="49.7879" lon="2.37237">
        <ele>74.7</ele>
        <time>2022-07-13T07:17:59Z</time>
      </trkpt>
      <trkpt lat="49.7879" lon="2.37235">
        <ele>75.1</ele>
        <time>2022-07-13T07:18:01Z</time>
      </trkpt>
      <trkpt lat="49.78791" lon="2.37234">
        <ele>75.1</ele>
        <time>2022-07-13T07:18:02Z</time>
      </trkpt>
      <trkpt lat="49.78792" lon="2.37232">
        <ele>75.8</ele>
        <time>2022-07-13T07:18:03Z</time>
      </trkpt>
      <trkpt lat="49.78792" lon="2.37231">
        <ele>75.8</ele>
        <time>2022-07-13T07:18:05Z</time>
      </trkpt>
      <trkpt lat="49.78792" lon="2.37231">
        <ele>75.8</ele>
        <time>2022-07-13T07:18:06Z</time>
      </trkpt>
      <trkpt lat="49.78793" lon="2.3723">
        <ele>75.8</ele>
        <time>2022-07-13T07:18:07Z</time>
      </trkpt>
      <trkpt lat="49.78794" lon="2.37229">
        <ele>75.8</ele>
        <time>2022-07-13T07:18:09Z</time>
      </trkpt>
      <trkpt lat="49.78794" lon="2.37228">
        <ele>75.8</ele>
        <time>2022-07-13T07:18:10Z</time>
      </trkpt>
      <trkpt lat="49.78795" lon="2.37226">
        <ele>76.5</ele>
        <time>2022-07-13T07:18:11Z</time>
      </trkpt>
      <trkpt lat="49.78795" lon="2.37226">
        <ele>76.5</ele>
        <time>2022-07-13T07:18:12Z</time>
      </trkpt>
      <trkpt lat="49.78795" lon="2.37224">
        <ele>76.5</ele>
        <time>2022-07-13T07:18:13Z</time>
      </trkpt>
      <trkpt lat="49.78796" lon="2.37224">
        <ele>76.5</ele>
        <time>2022-07-13T07:18:14Z</time>
      </trkpt>
      <trkpt lat="49.78796" lon="2.37223">
        <ele>77</ele>
        <time>2022-07-13T07:18:16Z</time>
      </trkpt>
      <trkpt lat="49.78797" lon="2.37222">
        <ele>77.4</ele>
        <time>2022-07-13T07:18:17Z</time>
      </trkpt>
      <trkpt lat="49.78798" lon="2.3722">
        <ele>77.4</ele>
        <time>2022-07-13T07:18:18Z</time>
      </trkpt>
      <trkpt lat="49.78798" lon="2.37219">
        <ele>77.4</ele>
        <time>2022-07-13T07:18:20Z</time>
      </trkpt>
      <trkpt lat="49.78799" lon="2.37218">
        <ele>77.8</ele>
        <time>2022-07-13T07:18:21Z</time>
      </trkpt>
      <trkpt lat="49.788" lon="2.37217">
        <ele>77.8</ele>
        <time>2022-07-13T07:18:22Z</time>
      </trkpt>
      <trkpt lat="49.788" lon="2.37215">
        <ele>78.7</ele>
        <time>2022-07-13T07:18:23Z</time>
      </trkpt>
      <trkpt lat="49.788" lon="2.37214">
        <ele>78.7</ele>
        <time>2022-07-13T07:18:24Z</time>
      </trkpt>
      <trkpt lat="49.78801" lon="2.37213">
        <ele>78.7</ele>
        <time>2022-07-13T07:18:25Z</time>
      </trkpt>
      <trkpt lat="49.78801" lon="2.37211">
        <ele>78.7</ele>
        <time>2022-07-13T07:18:26Z</time>
      </trkpt>
      <trkpt lat="49.78802" lon="2.37209">
        <ele>79.1</ele>
        <time>2022-07-13T07:18:28Z</time>
      </trkpt>
      <trkpt lat="49.78802" lon="2.37207">
        <ele>79.1</ele>
        <time>2022-07-13T07:18:29Z</time>
      </trkpt>
      <trkpt lat="49.78803" lon="2.37206">
        <ele>79.5</ele>
        <time>2022-07-13T07:18:30Z</time>
      </trkpt>
      <trkpt lat="49.78803" lon="2.37204">
        <ele>80</ele>
        <time>2022-07-13T07:18:31Z</time>
      </trkpt>
      <trkpt lat="49.78803" lon="2.37202">
        <ele>80</ele>
        <time>2022-07-13T07:18:32Z</time>
      </trkpt>
      <trkpt lat="49.78804" lon="2.372">
        <ele>80.4</ele>
        <time>2022-07-13T07:18:34Z</time>
      </trkpt>
      <trkpt lat="49.78804" lon="2.37199">
        <ele>80.4</ele>
        <time>2022-07-13T07:18:35Z</time>
      </trkpt>
      <trkpt lat="49.78804" lon="2.37198">
        <ele>80.4</ele>
        <time>2022-07-13T07:18:36Z</time>
      </trkpt>
      <trkpt lat="49.78804" lon="2.37196">
        <ele>80.8</ele>
        <time>2022-07-13T07:18:37Z</time>
      </trkpt>
      <trkpt lat="49.78805" lon="2.37195">
        <ele>80.8</ele>
        <time>2022-07-13T07:18:38Z</time>
      </trkpt>
      <trkpt lat="49.78805" lon="2.37193">
        <ele>80.8</ele>
        <time>2022-07-13T07:18:40Z</time>
      </trkpt>
      <trkpt lat="49.78805" lon="2.37192">
        <ele>81.3</ele>
        <time>2022-07-13T07:18:41Z</time>
      </trkpt>
      <trkpt lat="49.78805" lon="2.3719">
        <ele>81.3</ele>
        <time>2022-07-13T07:18:42Z</time>
      </trkpt>
      <trkpt lat="49.78805" lon="2.37188">
        <ele>82.4</ele>
        <time>2022-07-13T07:18:43Z</time>
      </trkpt>
      <trkpt lat="49.78805" lon="2.37187">
        <ele>81.7</ele>
        <time>2022-07-13T07:18:45Z</time>
      </trkpt>
      <trkpt lat="49.78805" lon="2.37185">
        <ele>82.4</ele>
        <time>2022-07-13T07:18:46Z</time>
      </trkpt>
      <trkpt lat="49.78805" lon="2.37184">
        <ele>82.9</ele>
        <time>2022-07-13T07:18:47Z</time>
      </trkpt>
      <trkpt lat="49.78806" lon="2.37181">
        <ele>82.9</ele>
        <time>2022-07-13T07:18:49Z</time>
      </trkpt>
      <trkpt lat="49.78806" lon="2.3718">
        <ele>83.4</ele>
        <time>2022-07-13T07:18:50Z</time>
      </trkpt>
      <trkpt lat="49.78806" lon="2.37179">
        <ele>83.4</ele>
        <time>2022-07-13T07:18:51Z</time>
      </trkpt>
      <trkpt lat="49.78804" lon="2.37178">
        <ele>82.7</ele>
        <time>2022-07-13T07:18:52Z</time>
      </trkpt>
      <trkpt lat="49.78804" lon="2.37176">
        <ele>82.7</ele>
        <time>2022-07-13T07:18:53Z</time>
      </trkpt>
      <trkpt lat="49.78804" lon="2.37175">
        <ele>83.3</ele>
        <time>2022-07-13T07:18:55Z</time>
      </trkpt>
      <trkpt lat="49.78804" lon="2.37174">
        <ele>83.3</ele>
        <time>2022-07-13T07:18:56Z</time>
      </trkpt>
      <trkpt lat="49.78805" lon="2.37172">
        <ele>83.3</ele>
        <time>2022-07-13T07:18:57Z</time>
      </trkpt>
      <trkpt lat="49.78805" lon="2.3717">
        <ele>83.9</ele>
        <time>2022-07-13T07:18:59Z</time>
      </trkpt>
      <trkpt lat="49.78805" lon="2.37169">
        <ele>84.6</ele>
        <time>2022-07-13T07:19:00Z</time>
      </trkpt>
      <trkpt lat="49.78806" lon="2.37167">
        <ele>85.3</ele>
        <time>2022-07-13T07:19:01Z</time>
      </trkpt>
      <trkpt lat="49.78805" lon="2.37166">
        <ele>84.6</ele>
        <time>2022-07-13T07:19:03Z</time>
      </trkpt>
      <trkpt lat="49.78804" lon="2.37164">
        <ele>84.6</ele>
        <time>2022-07-13T07:19:04Z</time>
      </trkpt>
      <trkpt lat="49.78804" lon="2.37163">
        <ele>85.2</ele>
        <time>2022-07-13T07:19:05Z</time>
      </trkpt>
      <trkpt lat="49.78804" lon="2.37162">
        <ele>85.2</ele>
        <time>2022-07-13T07:19:07Z</time>
      </trkpt>
      <trkpt lat="49.78805" lon="2.3716">
        <ele>85.2</ele>
        <time>2022-07-13T07:19:08Z</time>
      </trkpt>
      <trkpt lat="49.78805" lon="2.37159">
        <ele>85.8</ele>
        <time>2022-07-13T07:19:09Z</time>
      </trkpt>
      <trkpt lat="49.78805" lon="2.37158">
        <ele>85.8</ele>
        <time>2022-07-13T07:19:10Z</time>
      </trkpt>
      <trkpt lat="49.78805" lon="2.37157">
        <ele>86.4</ele>
        <time>2022-07-13T07:19:11Z</time>
      </trkpt>
      <trkpt lat="49.78806" lon="2.37156">
        <ele>86.4</ele>
        <time>2022-07-13T07:19:12Z</time>
      </trkpt>
      <trkpt lat="49.78806" lon="2.37153">
        <ele>87</ele>
        <time>2022-07-13T07:19:14Z</time>
      </trkpt>
      <trkpt lat="49.78807" lon="2.37151">
        <ele>87</ele>
        <time>2022-07-13T07:19:15Z</time>
      </trkpt>
      <trkpt lat="49.78807" lon="2.3715">
        <ele>87.5</ele>
        <time>2022-07-13T07:19:16Z</time>
      </trkpt>
      <trkpt lat="49.78808" lon="2.37149">
        <ele>87.5</ele>
        <time>2022-07-13T07:19:17Z</time>
      </trkpt>
      <trkpt lat="49.78808" lon="2.37148">
        <ele>88.1</ele>
        <time>2022-07-13T07:19:18Z</time>
      </trkpt>
      <trkpt lat="49.78808" lon="2.37147">
        <ele>88.1</ele>
        <time>2022-07-13T07:19:19Z</time>
      </trkpt>
      <trkpt lat="49.78809" lon="2.37146">
        <ele>88.5</ele>
        <time>2022-07-13T07:19:21Z</time>
      </trkpt>
      <trkpt lat="49.78809" lon="2.37145">
        <ele>88.5</ele>
        <time>2022-07-13T07:19:22Z</time>
      </trkpt>
      <trkpt lat="49.7881" lon="2.37142">
        <ele>88.5</ele>
        <time>2022-07-13T07:19:24Z</time>
      </trkpt>
      <trkpt lat="49.78811" lon="2.37141">
        <ele>89.6</ele>
        <time>2022-07-13T07:19:25Z</time>
      </trkpt>
      <trkpt lat="49.78812" lon="2.3714">
        <ele>89.6</ele>
        <time>2022-07-13T07:19:26Z</time>
      </trkpt>
      <trkpt lat="49.78811" lon="2.37138">
        <ele>89.6</ele>
        <time>2022-07-13T07:19:28Z</time>
      </trkpt>
      <trkpt lat="49.78811" lon="2.37136">
        <ele>90.1</ele>
        <time>2022-07-13T07:19:29Z</time>
      </trkpt>
      <trkpt lat="49.78811" lon="2.37134">
        <ele>90.1</ele>
        <time>2022-07-13T07:19:30Z</time>
      </trkpt>
      <trkpt lat="49.78812" lon="2.37132">
        <ele>90.6</ele>
        <time>2022-07-13T07:19:32Z</time>
      </trkpt>
      <trkpt lat="49.78812" lon="2.37131">
        <ele>90.6</ele>
        <time>2022-07-13T07:19:33Z</time>
      </trkpt>
      <trkpt lat="49.78813" lon="2.37129">
        <ele>90.6</ele>
        <time>2022-07-13T07:19:34Z</time>
      </trkpt>
      <trkpt lat="49.78814" lon="2.37128">
        <ele>91.6</ele>
        <time>2022-07-13T07:19:36Z</time>
      </trkpt>
      <trkpt lat="49.78815" lon="2.37126">
        <ele>91.6</ele>
        <time>2022-07-13T07:19:37Z</time>
      </trkpt>
      <trkpt lat="49.78815" lon="2.37125">
        <ele>91.6</ele>
        <time>2022-07-13T07:19:38Z</time>
      </trkpt>
      <trkpt lat="49.78816" lon="2.37124">
        <ele>92.1</ele>
        <time>2022-07-13T07:19:40Z</time>
      </trkpt>
      <trkpt lat="49.78817" lon="2.37123">
        <ele>92.6</ele>
        <time>2022-07-13T07:19:41Z</time>
      </trkpt>
      <trkpt lat="49.78817" lon="2.37122">
        <ele>92.6</ele>
        <time>2022-07-13T07:19:42Z</time>
      </trkpt>
      <trkpt lat="49.78818" lon="2.3712">
        <ele>93.2</ele>
        <time>2022-07-13T07:19:44Z</time>
      </trkpt>
      <trkpt lat="49.78819" lon="2.37119">
        <ele>93.2</ele>
        <time>2022-07-13T07:19:45Z</time>
      </trkpt>
      <trkpt lat="49.78819" lon="2.37118">
        <ele>93.6</ele>
        <time>2022-07-13T07:19:46Z</time>
      </trkpt>
      <trkpt lat="49.7882" lon="2.37116">
        <ele>93.6</ele>
        <time>2022-07-13T07:19:48Z</time>
      </trkpt>
      <trkpt lat="49.78821" lon="2.37114">
        <ele>94.1</ele>
        <time>2022-07-13T07:19:49Z</time>
      </trkpt>
      <trkpt lat="49.78821" lon="2.37113">
        <ele>94.1</ele>
        <time>2022-07-13T07:19:50Z</time>
      </trkpt>
      <trkpt lat="49.78821" lon="2.37112">
        <ele>94.1</ele>
        <time>2022-07-13T07:19:51Z</time>
      </trkpt>
      <trkpt lat="49.78821" lon="2.37111">
        <ele>94.5</ele>
        <time>2022-07-13T07:19:52Z</time>
      </trkpt>
      <trkpt lat="49.78822" lon="2.37109">
        <ele>95</ele>
        <time>2022-07-13T07:19:54Z</time>
      </trkpt>
      <trkpt lat="49.78823" lon="2.37108">
        <ele>95</ele>
        <time>2022-07-13T07:19:55Z</time>
      </trkpt>
      <trkpt lat="49.78823" lon="2.37107">
        <ele>95.3</ele>
        <time>2022-07-13T07:19:57Z</time>
      </trkpt>
      <trkpt lat="49.78824" lon="2.37106">
        <ele>95.3</ele>
        <time>2022-07-13T07:19:58Z</time>
      </trkpt>
      <trkpt lat="49.78824" lon="2.37104">
        <ele>95.3</ele>
        <time>2022-07-13T07:19:59Z</time>
      </trkpt>
      <trkpt lat="49.78824" lon="2.37103">
        <ele>95.3</ele>
        <time>2022-07-13T07:20:01Z</time>
      </trkpt>
      <trkpt lat="49.78824" lon="2.37102">
        <ele>95.5</ele>
        <time>2022-07-13T07:20:02Z</time>
      </trkpt>
      <trkpt lat="49.78825" lon="2.37101">
        <ele>95.9</ele>
        <time>2022-07-13T07:20:03Z</time>
      </trkpt>
      <trkpt lat="49.78825" lon="2.371">
        <ele>95.9</ele>
        <time>2022-07-13T07:20:04Z</time>
      </trkpt>
      <trkpt lat="49.78826" lon="2.37099">
        <ele>95.9</ele>
        <time>2022-07-13T07:20:05Z</time>
      </trkpt>
      <trkpt lat="49.78826" lon="2.37099">
        <ele>96.1</ele>
        <time>2022-07-13T07:20:06Z</time>
      </trkpt>
      <trkpt lat="49.78826" lon="2.37098">
        <ele>96.1</ele>
        <time>2022-07-13T07:20:07Z</time>
      </trkpt>
      <trkpt lat="49.78828" lon="2.37096">
        <ele>96.4</ele>
        <time>2022-07-13T07:20:09Z</time>
      </trkpt>
      <trkpt lat="49.78828" lon="2.37096">
        <ele>96.4</ele>
        <time>2022-07-13T07:20:10Z</time>
      </trkpt>
      <trkpt lat="49.78828" lon="2.37095">
        <ele>96.4</ele>
        <time>2022-07-13T07:20:11Z</time>
      </trkpt>
      <trkpt lat="49.78828" lon="2.37095">
        <ele>96.4</ele>
        <time>2022-07-13T07:20:13Z</time>
      </trkpt>
      <trkpt lat="49.78829" lon="2.37095">
        <ele>96.4</ele>
        <time>2022-07-13T07:20:14Z</time>
      </trkpt>
      <trkpt lat="49.78829" lon="2.37094">
        <ele>96.6</ele>
        <time>2022-07-13T07:20:15Z</time>
      </trkpt>
      <trkpt lat="49.78829" lon="2.37094">
        <ele>96.6</ele>
        <time>2022-07-13T07:20:16Z</time>
      </trkpt>
      <trkpt lat="49.78829" lon="2.37093">
        <ele>96.6</ele>
        <time>2022-07-13T07:20:17Z</time>
      </trkpt>
      <trkpt lat="49.7883" lon="2.37092">
        <ele>96.6</ele>
        <time>2022-07-13T07:20:18Z</time>
      </trkpt>
      <trkpt lat="49.78831" lon="2.3709">
        <ele>97</ele>
        <time>2022-07-13T07:20:19Z</time>
      </trkpt>
      <trkpt lat="49.78831" lon="2.37089">
        <ele>97</ele>
        <time>2022-07-13T07:20:20Z</time>
      </trkpt>
      <trkpt lat="49.78831" lon="2.37088">
        <ele>97</ele>
        <time>2022-07-13T07:20:21Z</time>
      </trkpt>
      <trkpt lat="49.78831" lon="2.37087">
        <ele>97</ele>
        <time>2022-07-13T07:20:23Z</time>
      </trkpt>
      <trkpt lat="49.78832" lon="2.37085">
        <ele>97.2</ele>
        <time>2022-07-13T07:20:24Z</time>
      </trkpt>
      <trkpt lat="49.78833" lon="2.37082">
        <ele>97.6</ele>
        <time>2022-07-13T07:20:25Z</time>
      </trkpt>
      <trkpt lat="49.78833" lon="2.37081">
        <ele>97.7</ele>
        <time>2022-07-13T07:20:27Z</time>
      </trkpt>
      <trkpt lat="49.78834" lon="2.3708">
        <ele>97.7</ele>
        <time>2022-07-13T07:20:28Z</time>
      </trkpt>
      <trkpt lat="49.78834" lon="2.37079">
        <ele>97.7</ele>
        <time>2022-07-13T07:20:29Z</time>
      </trkpt>
      <trkpt lat="49.78835" lon="2.37077">
        <ele>97.9</ele>
        <time>2022-07-13T07:20:30Z</time>
      </trkpt>
      <trkpt lat="49.78835" lon="2.37076">
        <ele>97.9</ele>
        <time>2022-07-13T07:20:31Z</time>
      </trkpt>
      <trkpt lat="49.78835" lon="2.37075">
        <ele>97.9</ele>
        <time>2022-07-13T07:20:32Z</time>
      </trkpt>
      <trkpt lat="49.78836" lon="2.37074">
        <ele>98.6</ele>
        <time>2022-07-13T07:20:33Z</time>
      </trkpt>
      <trkpt lat="49.78836" lon="2.37073">
        <ele>98.6</ele>
        <time>2022-07-13T07:20:34Z</time>
      </trkpt>
      <trkpt lat="49.78837" lon="2.37073">
        <ele>98.7</ele>
        <time>2022-07-13T07:20:35Z</time>
      </trkpt>
      <trkpt lat="49.78837" lon="2.37072">
        <ele>98.7</ele>
        <time>2022-07-13T07:20:37Z</time>
      </trkpt>
      <trkpt lat="49.78836" lon="2.37071">
        <ele>98.7</ele>
        <time>2022-07-13T07:20:38Z</time>
      </trkpt>
      <trkpt lat="49.78837" lon="2.37069">
        <ele>98.7</ele>
        <time>2022-07-13T07:20:39Z</time>
      </trkpt>
      <trkpt lat="49.78837" lon="2.37068">
        <ele>98.9</ele>
        <time>2022-07-13T07:20:41Z</time>
      </trkpt>
      <trkpt lat="49.78838" lon="2.37067">
        <ele>98.9</ele>
        <time>2022-07-13T07:20:42Z</time>
      </trkpt>
      <trkpt lat="49.78838" lon="2.37065">
        <ele>98.9</ele>
        <time>2022-07-13T07:20:43Z</time>
      </trkpt>
      <trkpt lat="49.7884" lon="2.37062">
        <ele>99.4</ele>
        <time>2022-07-13T07:20:45Z</time>
      </trkpt>
      <trkpt lat="49.78841" lon="2.37059">
        <ele>99.6</ele>
        <time>2022-07-13T07:20:47Z</time>
      </trkpt>
      <trkpt lat="49.78841" lon="2.37058">
        <ele>99.9</ele>
        <time>2022-07-13T07:20:48Z</time>
      </trkpt>
      <trkpt lat="49.78842" lon="2.37057">
        <ele>99.9</ele>
        <time>2022-07-13T07:20:49Z</time>
      </trkpt>
      <trkpt lat="49.78842" lon="2.37056">
        <ele>99.9</ele>
        <time>2022-07-13T07:20:50Z</time>
      </trkpt>
      <trkpt lat="49.78843" lon="2.37055">
        <ele>100.1</ele>
        <time>2022-07-13T07:20:52Z</time>
      </trkpt>
      <trkpt lat="49.78844" lon="2.37054">
        <ele>100.1</ele>
        <time>2022-07-13T07:20:53Z</time>
      </trkpt>
      <trkpt lat="49.78844" lon="2.37052">
        <ele>100.4</ele>
        <time>2022-07-13T07:20:54Z</time>
      </trkpt>
      <trkpt lat="49.78844" lon="2.3705">
        <ele>100.6</ele>
        <time>2022-07-13T07:20:55Z</time>
      </trkpt>
      <trkpt lat="49.78845" lon="2.37049">
        <ele>100.6</ele>
        <time>2022-07-13T07:20:56Z</time>
      </trkpt>
      <trkpt lat="49.78846" lon="2.37046">
        <ele>100.8</ele>
        <time>2022-07-13T07:20:58Z</time>
      </trkpt>
      <trkpt lat="49.78846" lon="2.37045">
        <ele>100.8</ele>
        <time>2022-07-13T07:20:59Z</time>
      </trkpt>
      <trkpt lat="49.78847" lon="2.37044">
        <ele>100.8</ele>
        <time>2022-07-13T07:21:00Z</time>
      </trkpt>
      <trkpt lat="49.78847" lon="2.37043">
        <ele>101.1</ele>
        <time>2022-07-13T07:21:01Z</time>
      </trkpt>
      <trkpt lat="49.78848" lon="2.37042">
        <ele>101.3</ele>
        <time>2022-07-13T07:21:02Z</time>
      </trkpt>
      <trkpt lat="49.78848" lon="2.37041">
        <ele>101.3</ele>
        <time>2022-07-13T07:21:03Z</time>
      </trkpt>
      <trkpt lat="49.78849" lon="2.37038">
        <ele>101.5</ele>
        <time>2022-07-13T07:21:05Z</time>
      </trkpt>
      <trkpt lat="49.7885" lon="2.37037">
        <ele>101.5</ele>
        <time>2022-07-13T07:21:06Z</time>
      </trkpt>
      <trkpt lat="49.7885" lon="2.37036">
        <ele>101.8</ele>
        <time>2022-07-13T07:21:07Z</time>
      </trkpt>
      <trkpt lat="49.7885" lon="2.37036">
        <ele>101.8</ele>
        <time>2022-07-13T07:21:08Z</time>
      </trkpt>
      <trkpt lat="49.78851" lon="2.37035">
        <ele>101.8</ele>
        <time>2022-07-13T07:21:09Z</time>
      </trkpt>
      <trkpt lat="49.78851" lon="2.37034">
        <ele>102.1</ele>
        <time>2022-07-13T07:21:10Z</time>
      </trkpt>
      <trkpt lat="49.78852" lon="2.37033">
        <ele>102.1</ele>
        <time>2022-07-13T07:21:12Z</time>
      </trkpt>
      <trkpt lat="49.78853" lon="2.37032">
        <ele>102.5</ele>
        <time>2022-07-13T07:21:13Z</time>
      </trkpt>
      <trkpt lat="49.78853" lon="2.3703">
        <ele>102.5</ele>
        <time>2022-07-13T07:21:14Z</time>
      </trkpt>
      <trkpt lat="49.78854" lon="2.37029">
        <ele>102.8</ele>
        <time>2022-07-13T07:21:15Z</time>
      </trkpt>
      <trkpt lat="49.78855" lon="2.37028">
        <ele>102.8</ele>
        <time>2022-07-13T07:21:17Z</time>
      </trkpt>
      <trkpt lat="49.78856" lon="2.37027">
        <ele>103.2</ele>
        <time>2022-07-13T07:21:18Z</time>
      </trkpt>
      <trkpt lat="49.78857" lon="2.37026">
        <ele>103.5</ele>
        <time>2022-07-13T07:21:19Z</time>
      </trkpt>
      <trkpt lat="49.78858" lon="2.37024">
        <ele>103.5</ele>
        <time>2022-07-13T07:21:20Z</time>
      </trkpt>
      <trkpt lat="49.78858" lon="2.37024">
        <ele>103.9</ele>
        <time>2022-07-13T07:21:22Z</time>
      </trkpt>
      <trkpt lat="49.78859" lon="2.37023">
        <ele>103.9</ele>
        <time>2022-07-13T07:21:23Z</time>
      </trkpt>
      <trkpt lat="49.78859" lon="2.37023">
        <ele>103.9</ele>
        <time>2022-07-13T07:21:24Z</time>
      </trkpt>
      <trkpt lat="49.7886" lon="2.37022">
        <ele>103.9</ele>
        <time>2022-07-13T07:21:25Z</time>
      </trkpt>
      <trkpt lat="49.7886" lon="2.37022">
        <ele>103.9</ele>
        <time>2022-07-13T07:21:26Z</time>
      </trkpt>
      <trkpt lat="49.78861" lon="2.37021">
        <ele>104.6</ele>
        <time>2022-07-13T07:21:27Z</time>
      </trkpt>
      <trkpt lat="49.78862" lon="2.37019">
        <ele>104.6</ele>
        <time>2022-07-13T07:21:28Z</time>
      </trkpt>
      <trkpt lat="49.78863" lon="2.37018">
        <ele>104.6</ele>
        <time>2022-07-13T07:21:30Z</time>
      </trkpt>
      <trkpt lat="49.78864" lon="2.37016">
        <ele>105.2</ele>
        <time>2022-07-13T07:21:31Z</time>
      </trkpt>
      <trkpt lat="49.78865" lon="2.37014">
        <ele>105.2</ele>
        <time>2022-07-13T07:21:32Z</time>
      </trkpt>
      <trkpt lat="49.78865" lon="2.37012">
        <ele>105.5</ele>
        <time>2022-07-13T07:21:33Z</time>
      </trkpt>
      <trkpt lat="49.78866" lon="2.37011">
        <ele>105.5</ele>
        <time>2022-07-13T07:21:34Z</time>
      </trkpt>
      <trkpt lat="49.78867" lon="2.37009">
        <ele>105.8</ele>
        <time>2022-07-13T07:21:36Z</time>
      </trkpt>
      <trkpt lat="49.78867" lon="2.37007">
        <ele>106</ele>
        <time>2022-07-13T07:21:37Z</time>
      </trkpt>
      <trkpt lat="49.78868" lon="2.37004">
        <ele>106.2</ele>
        <time>2022-07-13T07:21:38Z</time>
      </trkpt>
      <trkpt lat="49.78869" lon="2.37003">
        <ele>106.2</ele>
        <time>2022-07-13T07:21:39Z</time>
      </trkpt>
      <trkpt lat="49.78869" lon="2.37001">
        <ele>106.5</ele>
        <time>2022-07-13T07:21:40Z</time>
      </trkpt>
      <trkpt lat="49.7887" lon="2.36998">
        <ele>106.6</ele>
        <time>2022-07-13T07:21:42Z</time>
      </trkpt>
      <trkpt lat="49.7887" lon="2.36997">
        <ele>106.6</ele>
        <time>2022-07-13T07:21:43Z</time>
      </trkpt>
      <trkpt lat="49.78871" lon="2.36996">
        <ele>106.8</ele>
        <time>2022-07-13T07:21:44Z</time>
      </trkpt>
      <trkpt lat="49.78872" lon="2.36993">
        <ele>106.8</ele>
        <time>2022-07-13T07:21:45Z</time>
      </trkpt>
      <trkpt lat="49.78872" lon="2.36992">
        <ele>107</ele>
        <time>2022-07-13T07:21:46Z</time>
      </trkpt>
      <trkpt lat="49.78872" lon="2.36988">
        <ele>107.2</ele>
        <time>2022-07-13T07:21:48Z</time>
      </trkpt>
      <trkpt lat="49.78872" lon="2.36987">
        <ele>107.4</ele>
        <time>2022-07-13T07:21:49Z</time>
      </trkpt>
      <trkpt lat="49.78872" lon="2.36985">
        <ele>107.4</ele>
        <time>2022-07-13T07:21:50Z</time>
      </trkpt>
      <trkpt lat="49.78872" lon="2.36984">
        <ele>107.4</ele>
        <time>2022-07-13T07:21:51Z</time>
      </trkpt>
      <trkpt lat="49.78873" lon="2.36982">
        <ele>107.6</ele>
        <time>2022-07-13T07:21:53Z</time>
      </trkpt>
      <trkpt lat="49.78873" lon="2.36981">
        <ele>107.6</ele>
        <time>2022-07-13T07:21:54Z</time>
      </trkpt>
      <trkpt lat="49.78874" lon="2.36978">
        <ele>107.9</ele>
        <time>2022-07-13T07:21:55Z</time>
      </trkpt>
      <trkpt lat="49.78875" lon="2.36976">
        <ele>108.1</ele>
        <time>2022-07-13T07:21:57Z</time>
      </trkpt>
      <trkpt lat="49.78875" lon="2.36974">
        <ele>108.1</ele>
        <time>2022-07-13T07:21:58Z</time>
      </trkpt>
      <trkpt lat="49.78876" lon="2.36972">
        <ele>108.4</ele>
        <time>2022-07-13T07:22:00Z</time>
      </trkpt>
      <trkpt lat="49.78877" lon="2.3697">
        <ele>108.4</ele>
        <time>2022-07-13T07:22:01Z</time>
      </trkpt>
      <trkpt lat="49.78877" lon="2.36969">
        <ele>108.7</ele>
        <time>2022-07-13T07:22:02Z</time>
      </trkpt>
      <trkpt lat="49.78877" lon="2.36966">
        <ele>109</ele>
        <time>2022-07-13T07:22:03Z</time>
      </trkpt>
      <trkpt lat="49.78878" lon="2.36965">
        <ele>109.3</ele>
        <time>2022-07-13T07:22:04Z</time>
      </trkpt>
      <trkpt lat="49.78878" lon="2.36964">
        <ele>109.3</ele>
        <time>2022-07-13T07:22:05Z</time>
      </trkpt>
      <trkpt lat="49.78879" lon="2.36962">
        <ele>109.3</ele>
        <time>2022-07-13T07:22:07Z</time>
      </trkpt>
      <trkpt lat="49.78879" lon="2.36961">
        <ele>109.7</ele>
        <time>2022-07-13T07:22:08Z</time>
      </trkpt>
      <trkpt lat="49.7888" lon="2.3696">
        <ele>109.7</ele>
        <time>2022-07-13T07:22:09Z</time>
      </trkpt>
      <trkpt lat="49.7888" lon="2.36958">
        <ele>110</ele>
        <time>2022-07-13T07:22:10Z</time>
      </trkpt>
      <trkpt lat="49.78881" lon="2.36957">
        <ele>110</ele>
        <time>2022-07-13T07:22:11Z</time>
      </trkpt>
      <trkpt lat="49.78881" lon="2.36956">
        <ele>110.4</ele>
        <time>2022-07-13T07:22:13Z</time>
      </trkpt>
      <trkpt lat="49.78882" lon="2.36955">
        <ele>110.4</ele>
        <time>2022-07-13T07:22:14Z</time>
      </trkpt>
      <trkpt lat="49.78883" lon="2.36953">
        <ele>110.4</ele>
        <time>2022-07-13T07:22:15Z</time>
      </trkpt>
      <trkpt lat="49.78883" lon="2.3695">
        <ele>111.1</ele>
        <time>2022-07-13T07:22:16Z</time>
      </trkpt>
      <trkpt lat="49.78883" lon="2.36949">
        <ele>111.1</ele>
        <time>2022-07-13T07:22:17Z</time>
      </trkpt>
      <trkpt lat="49.78883" lon="2.36947">
        <ele>111.6</ele>
        <time>2022-07-13T07:22:18Z</time>
      </trkpt>
      <trkpt lat="49.78884" lon="2.36945">
        <ele>111.6</ele>
        <time>2022-07-13T07:22:20Z</time>
      </trkpt>
      <trkpt lat="49.78884" lon="2.36943">
        <ele>112</ele>
        <time>2022-07-13T07:22:21Z</time>
      </trkpt>
      <trkpt lat="49.78885" lon="2.36942">
        <ele>112</ele>
        <time>2022-07-13T07:22:22Z</time>
      </trkpt>
      <trkpt lat="49.78886" lon="2.3694">
        <ele>112.3</ele>
        <time>2022-07-13T07:22:23Z</time>
      </trkpt>
      <trkpt lat="49.78886" lon="2.36939">
        <ele>112.7</ele>
        <time>2022-07-13T07:22:24Z</time>
      </trkpt>
      <trkpt lat="49.78888" lon="2.36936">
        <ele>112.7</ele>
        <time>2022-07-13T07:22:26Z</time>
      </trkpt>
      <trkpt lat="49.78888" lon="2.36935">
        <ele>113</ele>
        <time>2022-07-13T07:22:27Z</time>
      </trkpt>
      <trkpt lat="49.78889" lon="2.36934">
        <ele>113.3</ele>
        <time>2022-07-13T07:22:28Z</time>
      </trkpt>
      <trkpt lat="49.78889" lon="2.36933">
        <ele>113.3</ele>
        <time>2022-07-13T07:22:29Z</time>
      </trkpt>
      <trkpt lat="49.7889" lon="2.36931">
        <ele>113.6</ele>
        <time>2022-07-13T07:22:31Z</time>
      </trkpt>
      <trkpt lat="49.78891" lon="2.3693">
        <ele>113.6</ele>
        <time>2022-07-13T07:22:32Z</time>
      </trkpt>
      <trkpt lat="49.78891" lon="2.36928">
        <ele>113.9</ele>
        <time>2022-07-13T07:22:33Z</time>
      </trkpt>
      <trkpt lat="49.78892" lon="2.36927">
        <ele>114.2</ele>
        <time>2022-07-13T07:22:34Z</time>
      </trkpt>
      <trkpt lat="49.78893" lon="2.36925">
        <ele>114.2</ele>
        <time>2022-07-13T07:22:35Z</time>
      </trkpt>
      <trkpt lat="49.78894" lon="2.36924">
        <ele>114.2</ele>
        <time>2022-07-13T07:22:37Z</time>
      </trkpt>
      <trkpt lat="49.78894" lon="2.36923">
        <ele>114.7</ele>
        <time>2022-07-13T07:22:38Z</time>
      </trkpt>
      <trkpt lat="49.78895" lon="2.36921">
        <ele>114.7</ele>
        <time>2022-07-13T07:22:39Z</time>
      </trkpt>
      <trkpt lat="49.78896" lon="2.36919">
        <ele>114.7</ele>
        <time>2022-07-13T07:22:41Z</time>
      </trkpt>
      <trkpt lat="49.78897" lon="2.36918">
        <ele>115.3</ele>
        <time>2022-07-13T07:22:42Z</time>
      </trkpt>
      <trkpt lat="49.78898" lon="2.36917">
        <ele>115.2</ele>
        <time>2022-07-13T07:22:43Z</time>
      </trkpt>
      <trkpt lat="49.78898" lon="2.36916">
        <ele>115.2</ele>
        <time>2022-07-13T07:22:44Z</time>
      </trkpt>
      <trkpt lat="49.789" lon="2.36913">
        <ele>115.8</ele>
        <time>2022-07-13T07:22:46Z</time>
      </trkpt>
      <trkpt lat="49.789" lon="2.36912">
        <ele>115.8</ele>
        <time>2022-07-13T07:22:47Z</time>
      </trkpt>
      <trkpt lat="49.78901" lon="2.36911">
        <ele>115.8</ele>
        <time>2022-07-13T07:22:48Z</time>
      </trkpt>
      <trkpt lat="49.789" lon="2.3691">
        <ele>116</ele>
        <time>2022-07-13T07:22:49Z</time>
      </trkpt>
      <trkpt lat="49.789" lon="2.36908">
        <ele>116</ele>
        <time>2022-07-13T07:22:50Z</time>
      </trkpt>
      <trkpt lat="49.789" lon="2.36907">
        <ele>115.9</ele>
        <time>2022-07-13T07:22:52Z</time>
      </trkpt>
      <trkpt lat="49.78901" lon="2.36905">
        <ele>116.3</ele>
        <time>2022-07-13T07:22:53Z</time>
      </trkpt>
      <trkpt lat="49.78902" lon="2.36904">
        <ele>116.3</ele>
        <time>2022-07-13T07:22:54Z</time>
      </trkpt>
      <trkpt lat="49.78903" lon="2.369">
        <ele>116.7</ele>
        <time>2022-07-13T07:22:56Z</time>
      </trkpt>
      <trkpt lat="49.78904" lon="2.36899">
        <ele>116.7</ele>
        <time>2022-07-13T07:22:57Z</time>
      </trkpt>
      <trkpt lat="49.78904" lon="2.36898">
        <ele>116.7</ele>
        <time>2022-07-13T07:22:59Z</time>
      </trkpt>
      <trkpt lat="49.78905" lon="2.36896">
        <ele>117</ele>
        <time>2022-07-13T07:23:00Z</time>
      </trkpt>
      <trkpt lat="49.78905" lon="2.36893">
        <ele>117.1</ele>
        <time>2022-07-13T07:23:01Z</time>
      </trkpt>
      <trkpt lat="49.78906" lon="2.36892">
        <ele>117.3</ele>
        <time>2022-07-13T07:23:02Z</time>
      </trkpt>
      <trkpt lat="49.78906" lon="2.36891">
        <ele>117.3</ele>
        <time>2022-07-13T07:23:03Z</time>
      </trkpt>
      <trkpt lat="49.78906" lon="2.3689">
        <ele>117.3</ele>
        <time>2022-07-13T07:23:04Z</time>
      </trkpt>
      <trkpt lat="49.78908" lon="2.36886">
        <ele>117.5</ele>
        <time>2022-07-13T07:23:06Z</time>
      </trkpt>
      <trkpt lat="49.78908" lon="2.36885">
        <ele>117.6</ele>
        <time>2022-07-13T07:23:07Z</time>
      </trkpt>
      <trkpt lat="49.78908" lon="2.36883">
        <ele>117.7</ele>
        <time>2022-07-13T07:23:09Z</time>
      </trkpt>
      <trkpt lat="49.78909" lon="2.36882">
        <ele>117.7</ele>
        <time>2022-07-13T07:23:10Z</time>
      </trkpt>
      <trkpt lat="49.7891" lon="2.36879">
        <ele>117.8</ele>
        <time>2022-07-13T07:23:11Z</time>
      </trkpt>
      <trkpt lat="49.7891" lon="2.36878">
        <ele>117.8</ele>
        <time>2022-07-13T07:23:12Z</time>
      </trkpt>
      <trkpt lat="49.78911" lon="2.36877">
        <ele>117.8</ele>
        <time>2022-07-13T07:23:13Z</time>
      </trkpt>
      <trkpt lat="49.78911" lon="2.36876">
        <ele>117.7</ele>
        <time>2022-07-13T07:23:14Z</time>
      </trkpt>
      <trkpt lat="49.78913" lon="2.36873">
        <ele>117.9</ele>
        <time>2022-07-13T07:23:16Z</time>
      </trkpt>
      <trkpt lat="49.78914" lon="2.36872">
        <ele>117.9</ele>
        <time>2022-07-13T07:23:17Z</time>
      </trkpt>
      <trkpt lat="49.78915" lon="2.36871">
        <ele>118</ele>
        <time>2022-07-13T07:23:19Z</time>
      </trkpt>
      <trkpt lat="49.78916" lon="2.3687">
        <ele>118</ele>
        <time>2022-07-13T07:23:20Z</time>
      </trkpt>
      <trkpt lat="49.78917" lon="2.36869">
        <ele>118</ele>
        <time>2022-07-13T07:23:21Z</time>
      </trkpt>
      <trkpt lat="49.78916" lon="2.36867">
        <ele>117.9</ele>
        <time>2022-07-13T07:23:22Z</time>
      </trkpt>
      <trkpt lat="49.78916" lon="2.36866">
        <ele>118</ele>
        <time>2022-07-13T07:23:23Z</time>
      </trkpt>
      <trkpt lat="49.78915" lon="2.36865">
        <ele>117.9</ele>
        <time>2022-07-13T07:23:24Z</time>
      </trkpt>
      <trkpt lat="49.78915" lon="2.36864">
        <ele>117.9</ele>
        <time>2022-07-13T07:23:25Z</time>
      </trkpt>
      <trkpt lat="49.78915" lon="2.36864">
        <ele>117.9</ele>
        <time>2022-07-13T07:23:26Z</time>
      </trkpt>
      <trkpt lat="49.78915" lon="2.36864">
        <ele>117.8</ele>
        <time>2022-07-13T07:23:27Z</time>
      </trkpt>
      <trkpt lat="49.78915" lon="2.36865">
        <ele>117.8</ele>
        <time>2022-07-13T07:23:28Z</time>
      </trkpt>
      <trkpt lat="49.78915" lon="2.36865">
        <ele>117.7</ele>
        <time>2022-07-13T07:23:29Z</time>
      </trkpt>
      <trkpt lat="49.78915" lon="2.36865">
        <ele>117.7</ele>
        <time>2022-07-13T07:23:30Z</time>
      </trkpt>
      <trkpt lat="49.78915" lon="2.36865">
        <ele>117.7</ele>
        <time>2022-07-13T07:23:32Z</time>
      </trkpt>
      <trkpt lat="49.78915" lon="2.36865">
        <ele>117.6</ele>
        <time>2022-07-13T07:23:33Z</time>
      </trkpt>
      <trkpt lat="49.78915" lon="2.36865">
        <ele>117.6</ele>
        <time>2022-07-13T07:23:34Z</time>
      </trkpt>
      <trkpt lat="49.78915" lon="2.36865">
        <ele>117.5</ele>
        <time>2022-07-13T07:23:35Z</time>
      </trkpt>
      <trkpt lat="49.78915" lon="2.36865">
        <ele>117.5</ele>
        <time>2022-07-13T07:23:37Z</time>
      </trkpt>
      <trkpt lat="49.78915" lon="2.36865">
        <ele>117.5</ele>
        <time>2022-07-13T07:23:38Z</time>
      </trkpt>
      <trkpt lat="49.78915" lon="2.36865">
        <ele>117.4</ele>
        <time>2022-07-13T07:23:39Z</time>
      </trkpt>
      <trkpt lat="49.78915" lon="2.36865">
        <ele>117.4</ele>
        <time>2022-07-13T07:23:40Z</time>
      </trkpt>
      <trkpt lat="49.78915" lon="2.36865">
        <ele>117.4</ele>
        <time>2022-07-13T07:23:41Z</time>
      </trkpt>
      <trkpt lat="49.78915" lon="2.36865">
        <ele>117.3</ele>
        <time>2022-07-13T07:23:42Z</time>
      </trkpt>
      <trkpt lat="49.78915" lon="2.36865">
        <ele>117.3</ele>
        <time>2022-07-13T07:23:43Z</time>
      </trkpt>
      <trkpt lat="49.78915" lon="2.36865">
        <ele>117.2</ele>
        <time>2022-07-13T07:23:44Z</time>
      </trkpt>
      <trkpt lat="49.78915" lon="2.36865">
        <ele>117.2</ele>
        <time>2022-07-13T07:23:45Z</time>
      </trkpt>
      <trkpt lat="49.78915" lon="2.36865">
        <ele>117.2</ele>
        <time>2022-07-13T07:23:46Z</time>
      </trkpt>
      <trkpt lat="49.78915" lon="2.36865">
        <ele>117.1</ele>
        <time>2022-07-13T07:23:47Z</time>
      </trkpt>
      <trkpt lat="49.78915" lon="2.36865">
        <ele>117.1</ele>
        <time>2022-07-13T07:23:48Z</time>
      </trkpt>
      <trkpt lat="49.78915" lon="2.36865">
        <ele>117</ele>
        <time>2022-07-13T07:23:49Z</time>
      </trkpt>
      <trkpt lat="49.78915" lon="2.36865">
        <ele>117</ele>
        <time>2022-07-13T07:23:50Z</time>
      </trkpt>
      <trkpt lat="49.78915" lon="2.36865">
        <ele>117</ele>
        <time>2022-07-13T07:23:51Z</time>
      </trkpt>
      <trkpt lat="49.78915" lon="2.36865">
        <ele>116.9</ele>
        <time>2022-07-13T07:23:52Z</time>
      </trkpt>
      <trkpt lat="49.78915" lon="2.36865">
        <ele>116.9</ele>
        <time>2022-07-13T07:23:53Z</time>
      </trkpt>
      <trkpt lat="49.78915" lon="2.36865">
        <ele>116.8</ele>
        <time>2022-07-13T07:23:54Z</time>
      </trkpt>
      <trkpt lat="49.78915" lon="2.36865">
        <ele>116.8</ele>
        <time>2022-07-13T07:23:55Z</time>
      </trkpt>
      <trkpt lat="49.78915" lon="2.36865">
        <ele>116.8</ele>
        <time>2022-07-13T07:23:56Z</time>
      </trkpt>
      <trkpt lat="49.78915" lon="2.36865">
        <ele>116.7</ele>
        <time>2022-07-13T07:23:57Z</time>
      </trkpt>
      <trkpt lat="49.78915" lon="2.36865">
        <ele>116.7</ele>
        <time>2022-07-13T07:23:58Z</time>
      </trkpt>
      <trkpt lat="49.78914" lon="2.36865">
        <ele>116.6</ele>
        <time>2022-07-13T07:23:59Z</time>
      </trkpt>
      <trkpt lat="49.78914" lon="2.36865">
        <ele>116.6</ele>
        <time>2022-07-13T07:24:00Z</time>
      </trkpt>
      <trkpt lat="49.78914" lon="2.36865">
        <ele>116.6</ele>
        <time>2022-07-13T07:24:01Z</time>
      </trkpt>
      <trkpt lat="49.78914" lon="2.36865">
        <ele>116.5</ele>
        <time>2022-07-13T07:24:02Z</time>
      </trkpt>
      <trkpt lat="49.78914" lon="2.36865">
        <ele>116.5</ele>
        <time>2022-07-13T07:24:03Z</time>
      </trkpt>
      <trkpt lat="49.78914" lon="2.36865">
        <ele>116.5</ele>
        <time>2022-07-13T07:24:04Z</time>
      </trkpt>
      <trkpt lat="49.78914" lon="2.36865">
        <ele>116.4</ele>
        <time>2022-07-13T07:24:05Z</time>
      </trkpt>
      <trkpt lat="49.78914" lon="2.36865">
        <ele>116.4</ele>
        <time>2022-07-13T07:24:06Z</time>
      </trkpt>
      <trkpt lat="49.78914" lon="2.36865">
        <ele>116.3</ele>
        <time>2022-07-13T07:24:07Z</time>
      </trkpt>
      <trkpt lat="49.78914" lon="2.36865">
        <ele>116.3</ele>
        <time>2022-07-13T07:24:08Z</time>
      </trkpt>
      <trkpt lat="49.78914" lon="2.36866">
        <ele>116.3</ele>
        <time>2022-07-13T07:24:09Z</time>
      </trkpt>
      <trkpt lat="49.78914" lon="2.36866">
        <ele>116.2</ele>
        <time>2022-07-13T07:24:10Z</time>
      </trkpt>
      <trkpt lat="49.78914" lon="2.36866">
        <ele>116.2</ele>
        <time>2022-07-13T07:24:11Z</time>
      </trkpt>
      <trkpt lat="49.78914" lon="2.36866">
        <ele>116.1</ele>
        <time>2022-07-13T07:24:12Z</time>
      </trkpt>
      <trkpt lat="49.78914" lon="2.36866">
        <ele>116.1</ele>
        <time>2022-07-13T07:24:13Z</time>
      </trkpt>
      <trkpt lat="49.78914" lon="2.36866">
        <ele>116.1</ele>
        <time>2022-07-13T07:24:14Z</time>
      </trkpt>
      <trkpt lat="49.78914" lon="2.36866">
        <ele>116</ele>
        <time>2022-07-13T07:24:15Z</time>
      </trkpt>
      <trkpt lat="49.78914" lon="2.36866">
        <ele>116</ele>
        <time>2022-07-13T07:24:16Z</time>
      </trkpt>
      <trkpt lat="49.78914" lon="2.36866">
        <ele>115.9</ele>
        <time>2022-07-13T07:24:17Z</time>
      </trkpt>
      <trkpt lat="49.78914" lon="2.36866">
        <ele>115.9</ele>
        <time>2022-07-13T07:24:18Z</time>
      </trkpt>
      <trkpt lat="49.78914" lon="2.36866">
        <ele>115.9</ele>
        <time>2022-07-13T07:24:19Z</time>
      </trkpt>
      <trkpt lat="49.78914" lon="2.36866">
        <ele>115.8</ele>
        <time>2022-07-13T07:24:20Z</time>
      </trkpt>
      <trkpt lat="49.78914" lon="2.36866">
        <ele>115.8</ele>
        <time>2022-07-13T07:24:21Z</time>
      </trkpt>
      <trkpt lat="49.78914" lon="2.36866">
        <ele>115.8</ele>
        <time>2022-07-13T07:24:22Z</time>
      </trkpt>
      <trkpt lat="49.78914" lon="2.36866">
        <ele>115.7</ele>
        <time>2022-07-13T07:24:23Z</time>
      </trkpt>
      <trkpt lat="49.78914" lon="2.36866">
        <ele>115.7</ele>
        <time>2022-07-13T07:24:24Z</time>
      </trkpt>
      <trkpt lat="49.78914" lon="2.36866">
        <ele>115.6</ele>
        <time>2022-07-13T07:24:25Z</time>
      </trkpt>
      <trkpt lat="49.78914" lon="2.36866">
        <ele>115.6</ele>
        <time>2022-07-13T07:24:26Z</time>
      </trkpt>
      <trkpt lat="49.78914" lon="2.36866">
        <ele>115.6</ele>
        <time>2022-07-13T07:24:27Z</time>
      </trkpt>
      <trkpt lat="49.78914" lon="2.36866">
        <ele>115.5</ele>
        <time>2022-07-13T07:24:28Z</time>
      </trkpt>
      <trkpt lat="49.78914" lon="2.36866">
        <ele>115.5</ele>
        <time>2022-07-13T07:24:29Z</time>
      </trkpt>
      <trkpt lat="49.78914" lon="2.36866">
        <ele>115.4</ele>
        <time>2022-07-13T07:24:30Z</time>
      </trkpt>
      <trkpt lat="49.78914" lon="2.36866">
        <ele>115.4</ele>
        <time>2022-07-13T07:24:31Z</time>
      </trkpt>
      <trkpt lat="49.78914" lon="2.36866">
        <ele>115.4</ele>
        <time>2022-07-13T07:24:32Z</time>
      </trkpt>
      <trkpt lat="49.78914" lon="2.36866">
        <ele>115.4</ele>
        <time>2022-07-13T07:24:33Z</time>
      </trkpt>
      <trkpt lat="49.78914" lon="2.36866">
        <ele>115.4</ele>
        <time>2022-07-13T07:24:34Z</time>
      </trkpt>
      <trkpt lat="49.78914" lon="2.36866">
        <ele>115.4</ele>
        <time>2022-07-13T07:24:35Z</time>
      </trkpt>
      <trkpt lat="49.78914" lon="2.36866">
        <ele>115.4</ele>
        <time>2022-07-13T07:24:36Z</time>
      </trkpt>
      <trkpt lat="49.78914" lon="2.36866">
        <ele>115.4</ele>
        <time>2022-07-13T07:24:37Z</time>
      </trkpt>
      <trkpt lat="49.78914" lon="2.36866">
        <ele>115.4</ele>
        <time>2022-07-13T07:24:38Z</time>
      </trkpt>
      <trkpt lat="49.78914" lon="2.36866">
        <ele>115.4</ele>
        <time>2022-07-13T07:24:39Z</time>
      </trkpt>
      <trkpt lat="49.78914" lon="2.36866">
        <ele>115.4</ele>
        <time>2022-07-13T07:24:40Z</time>
      </trkpt>
      <trkpt lat="49.78914" lon="2.36866">
        <ele>115.4</ele>
        <time>2022-07-13T07:24:41Z</time>
      </trkpt>
      <trkpt lat="49.78914" lon="2.36866">
        <ele>115.4</ele>
        <time>2022-07-13T07:24:42Z</time>
      </trkpt>
      <trkpt lat="49.78914" lon="2.36866">
        <ele>115.4</ele>
        <time>2022-07-13T07:24:43Z</time>
      </trkpt>
      <trkpt lat="49.78914" lon="2.36866">
        <ele>115.4</ele>
        <time>2022-07-13T07:24:44Z</time>
      </trkpt>
      <trkpt lat="49.78914" lon="2.36866">
        <ele>115.4</ele>
        <time>2022-07-13T07:24:45Z</time>
      </trkpt>
      <trkpt lat="49.78914" lon="2.36866">
        <ele>115.4</ele>
        <time>2022-07-13T07:24:46Z</time>
      </trkpt>
      <trkpt lat="49.78914" lon="2.36867">
        <ele>115.4</ele>
        <time>2022-07-13T07:24:47Z</time>
      </trkpt>
      <trkpt lat="49.78914" lon="2.36867">
        <ele>115.4</ele>
        <time>2022-07-13T07:24:48Z</time>
      </trkpt>
      <trkpt lat="49.78914" lon="2.36867">
        <ele>115.4</ele>
        <time>2022-07-13T07:24:49Z</time>
      </trkpt>
      <trkpt lat="49.78914" lon="2.36867">
        <ele>115.4</ele>
        <time>2022-07-13T07:24:50Z</time>
      </trkpt>
      <trkpt lat="49.78914" lon="2.36867">
        <ele>115.4</ele>
        <time>2022-07-13T07:24:51Z</time>
      </trkpt>
      <trkpt lat="49.78914" lon="2.36867">
        <ele>115.4</ele>
        <time>2022-07-13T07:24:52Z</time>
      </trkpt>
      <trkpt lat="49.78914" lon="2.36867">
        <ele>115.4</ele>
        <time>2022-07-13T07:24:53Z</time>
      </trkpt>
      <trkpt lat="49.78914" lon="2.36867">
        <ele>115.4</ele>
        <time>2022-07-13T07:24:54Z</time>
      </trkpt>
      <trkpt lat="49.78914" lon="2.36867">
        <ele>115.4</ele>
        <time>2022-07-13T07:24:55Z</time>
      </trkpt>
      <trkpt lat="49.78914" lon="2.36867">
        <ele>115.4</ele>
        <time>2022-07-13T07:24:56Z</time>
      </trkpt>
      <trkpt lat="49.78914" lon="2.36867">
        <ele>115.4</ele>
        <time>2022-07-13T07:24:57Z</time>
      </trkpt>
      <trkpt lat="49.78914" lon="2.36867">
        <ele>115.4</ele>
        <time>2022-07-13T07:24:58Z</time>
      </trkpt>
      <trkpt lat="49.78914" lon="2.36867">
        <ele>115.4</ele>
        <time>2022-07-13T07:24:59Z</time>
      </trkpt>
      <trkpt lat="49.78914" lon="2.36867">
        <ele>115.4</ele>
        <time>2022-07-13T07:25:00Z</time>
      </trkpt>
      <trkpt lat="49.78914" lon="2.36867">
        <ele>115.4</ele>
        <time>2022-07-13T07:25:01Z</time>
      </trkpt>
      <trkpt lat="49.78914" lon="2.36867">
        <ele>115.4</ele>
        <time>2022-07-13T07:25:02Z</time>
      </trkpt>
      <trkpt lat="49.78914" lon="2.36867">
        <ele>115.4</ele>
        <time>2022-07-13T07:25:03Z</time>
      </trkpt>
      <trkpt lat="49.78913" lon="2.36867">
        <ele>115.4</ele>
        <time>2022-07-13T07:25:04Z</time>
      </trkpt>
      <trkpt lat="49.78913" lon="2.36867">
        <ele>115.4</ele>
        <time>2022-07-13T07:25:05Z</time>
      </trkpt>
      <trkpt lat="49.78913" lon="2.36867">
        <ele>115.2</ele>
        <time>2022-07-13T07:25:06Z</time>
      </trkpt>
      <trkpt lat="49.78913" lon="2.36867">
        <ele>115.2</ele>
        <time>2022-07-13T07:25:07Z</time>
      </trkpt>
      <trkpt lat="49.78913" lon="2.36867">
        <ele>115.2</ele>
        <time>2022-07-13T07:25:08Z</time>
      </trkpt>
      <trkpt lat="49.78913" lon="2.36867">
        <ele>115.2</ele>
        <time>2022-07-13T07:25:09Z</time>
      </trkpt>
      <trkpt lat="49.78913" lon="2.36867">
        <ele>115.2</ele>
        <time>2022-07-13T07:25:10Z</time>
      </trkpt>
      <trkpt lat="49.78913" lon="2.36867">
        <ele>115.2</ele>
        <time>2022-07-13T07:25:11Z</time>
      </trkpt>
      <trkpt lat="49.78913" lon="2.36867">
        <ele>115.2</ele>
        <time>2022-07-13T07:25:12Z</time>
      </trkpt>
      <trkpt lat="49.78913" lon="2.36867">
        <ele>115.2</ele>
        <time>2022-07-13T07:25:13Z</time>
      </trkpt>
      <trkpt lat="49.78913" lon="2.36867">
        <ele>115.2</ele>
        <time>2022-07-13T07:25:14Z</time>
      </trkpt>
      <trkpt lat="49.78913" lon="2.36867">
        <ele>115.2</ele>
        <time>2022-07-13T07:25:15Z</time>
      </trkpt>
      <trkpt lat="49.78913" lon="2.36867">
        <ele>115.2</ele>
        <time>2022-07-13T07:25:16Z</time>
      </trkpt>
      <trkpt lat="49.78913" lon="2.36867">
        <ele>115.2</ele>
        <time>2022-07-13T07:25:17Z</time>
      </trkpt>
      <trkpt lat="49.78913" lon="2.36867">
        <ele>115.2</ele>
        <time>2022-07-13T07:25:18Z</time>
      </trkpt>
      <trkpt lat="49.78913" lon="2.36867">
        <ele>115.2</ele>
        <time>2022-07-13T07:25:19Z</time>
      </trkpt>
      <trkpt lat="49.78913" lon="2.36867">
        <ele>115.2</ele>
        <time>2022-07-13T07:25:20Z</time>
      </trkpt>
      <trkpt lat="49.78913" lon="2.36867">
        <ele>115.2</ele>
        <time>2022-07-13T07:25:21Z</time>
      </trkpt>
      <trkpt lat="49.78913" lon="2.36867">
        <ele>115.2</ele>
        <time>2022-07-13T07:25:22Z</time>
      </trkpt>
      <trkpt lat="49.78913" lon="2.36867">
        <ele>115.2</ele>
        <time>2022-07-13T07:25:23Z</time>
      </trkpt>
      <trkpt lat="49.78913" lon="2.36867">
        <ele>115.2</ele>
        <time>2022-07-13T07:25:24Z</time>
      </trkpt>
      <trkpt lat="49.78913" lon="2.36868">
        <ele>115.2</ele>
        <time>2022-07-13T07:25:25Z</time>
      </trkpt>
      <trkpt lat="49.78913" lon="2.36868">
        <ele>115.2</ele>
        <time>2022-07-13T07:25:26Z</time>
      </trkpt>
      <trkpt lat="49.78913" lon="2.36868">
        <ele>115.2</ele>
        <time>2022-07-13T07:25:27Z</time>
      </trkpt>
      <trkpt lat="49.78913" lon="2.36868">
        <ele>115.2</ele>
        <time>2022-07-13T07:25:28Z</time>
      </trkpt>
      <trkpt lat="49.78913" lon="2.36868">
        <ele>115.2</ele>
        <time>2022-07-13T07:25:29Z</time>
      </trkpt>
      <trkpt lat="49.78913" lon="2.36868">
        <ele>115.2</ele>
        <time>2022-07-13T07:25:30Z</time>
      </trkpt>
      <trkpt lat="49.78913" lon="2.36868">
        <ele>115.2</ele>
        <time>2022-07-13T07:25:31Z</time>
      </trkpt>
      <trkpt lat="49.78913" lon="2.36868">
        <ele>115.2</ele>
        <time>2022-07-13T07:25:32Z</time>
      </trkpt>
      <trkpt lat="49.78913" lon="2.36868">
        <ele>115.2</ele>
        <time>2022-07-13T07:25:33Z</time>
      </trkpt>
      <trkpt lat="49.78913" lon="2.36868">
        <ele>115.2</ele>
        <time>2022-07-13T07:25:34Z</time>
      </trkpt>
      <trkpt lat="49.78913" lon="2.36868">
        <ele>115.2</ele>
        <time>2022-07-13T07:25:35Z</time>
      </trkpt>
      <trkpt lat="49.78913" lon="2.36868">
        <ele>115.2</ele>
        <time>2022-07-13T07:25:36Z</time>
      </trkpt>
      <trkpt lat="49.78913" lon="2.36868">
        <ele>115.2</ele>
        <time>2022-07-13T07:25:37Z</time>
      </trkpt>
      <trkpt lat="49.78913" lon="2.36868">
        <ele>115.2</ele>
        <time>2022-07-13T07:25:38Z</time>
      </trkpt>
      <trkpt lat="49.78913" lon="2.36868">
        <ele>115.2</ele>
        <time>2022-07-13T07:25:39Z</time>
      </trkpt>
      <trkpt lat="49.78913" lon="2.36868">
        <ele>115.2</ele>
        <time>2022-07-13T07:25:40Z</time>
      </trkpt>
      <trkpt lat="49.78913" lon="2.36868">
        <ele>115.2</ele>
        <time>2022-07-13T07:25:41Z</time>
      </trkpt>
      <trkpt lat="49.78913" lon="2.36868">
        <ele>115.2</ele>
        <time>2022-07-13T07:25:42Z</time>
      </trkpt>
      <trkpt lat="49.78913" lon="2.36868">
        <ele>115.2</ele>
        <time>2022-07-13T07:25:43Z</time>
      </trkpt>
      <trkpt lat="49.78913" lon="2.36868">
        <ele>115.2</ele>
        <time>2022-07-13T07:25:44Z</time>
      </trkpt>
      <trkpt lat="49.78913" lon="2.36868">
        <ele>115.2</ele>
        <time>2022-07-13T07:25:45Z</time>
      </trkpt>
      <trkpt lat="49.78913" lon="2.36868">
        <ele>115.2</ele>
        <time>2022-07-13T07:25:46Z</time>
      </trkpt>
      <trkpt lat="49.78913" lon="2.36868">
        <ele>115.2</ele>
        <time>2022-07-13T07:25:47Z</time>
      </trkpt>
      <trkpt lat="49.78913" lon="2.36868">
        <ele>115.2</ele>
        <time>2022-07-13T07:25:48Z</time>
      </trkpt>
      <trkpt lat="49.78913" lon="2.36868">
        <ele>115.2</ele>
        <time>2022-07-13T07:25:49Z</time>
      </trkpt>
      <trkpt lat="49.78913" lon="2.36868">
        <ele>115.2</ele>
        <time>2022-07-13T07:25:50Z</time>
      </trkpt>
      <trkpt lat="49.78913" lon="2.36868">
        <ele>115.2</ele>
        <time>2022-07-13T07:25:51Z</time>
      </trkpt>
      <trkpt lat="49.78913" lon="2.36868">
        <ele>115.2</ele>
        <time>2022-07-13T07:25:52Z</time>
      </trkpt>
      <trkpt lat="49.78913" lon="2.36868">
        <ele>115.2</ele>
        <time>2022-07-13T07:25:53Z</time>
      </trkpt>
      <trkpt lat="49.78913" lon="2.36868">
        <ele>115.2</ele>
        <time>2022-07-13T07:25:54Z</time>
      </trkpt>
      <trkpt lat="49.78913" lon="2.36868">
        <ele>115.2</ele>
        <time>2022-07-13T07:25:55Z</time>
      </trkpt>
      <trkpt lat="49.78913" lon="2.36868">
        <ele>115.2</ele>
        <time>2022-07-13T07:25:56Z</time>
      </trkpt>
      <trkpt lat="49.78913" lon="2.36868">
        <ele>115.2</ele>
        <time>2022-07-13T07:25:57Z</time>
      </trkpt>
      <trkpt lat="49.78913" lon="2.36868">
        <ele>115.2</ele>
        <time>2022-07-13T07:25:58Z</time>
      </trkpt>
      <trkpt lat="49.78913" lon="2.36868">
        <ele>115.2</ele>
        <time>2022-07-13T07:25:59Z</time>
      </trkpt>
      <trkpt lat="49.78913" lon="2.36868">
        <ele>115.2</ele>
        <time>2022-07-13T07:26:00Z</time>
      </trkpt>
      <trkpt lat="49.78913" lon="2.36868">
        <ele>115.2</ele>
        <time>2022-07-13T07:26:01Z</time>
      </trkpt>
      <trkpt lat="49.78913" lon="2.36868">
        <ele>115.2</ele>
        <time>2022-07-13T07:26:02Z</time>
      </trkpt>
      <trkpt lat="49.78913" lon="2.36868">
        <ele>115.2</ele>
        <time>2022-07-13T07:26:03Z</time>
      </trkpt>
      <trkpt lat="49.78913" lon="2.36869">
        <ele>115.2</ele>
        <time>2022-07-13T07:26:04Z</time>
      </trkpt>
      <trkpt lat="49.78913" lon="2.36869">
        <ele>115.2</ele>
        <time>2022-07-13T07:26:05Z</time>
      </trkpt>
      <trkpt lat="49.78913" lon="2.36869">
        <ele>115.2</ele>
        <time>2022-07-13T07:26:06Z</time>
      </trkpt>
      <trkpt lat="49.78913" lon="2.36869">
        <ele>115.2</ele>
        <time>2022-07-13T07:26:07Z</time>
      </trkpt>
      <trkpt lat="49.78913" lon="2.36869">
        <ele>115.2</ele>
        <time>2022-07-13T07:26:08Z</time>
      </trkpt>
      <trkpt lat="49.78912" lon="2.36869">
        <ele>115.2</ele>
        <time>2022-07-13T07:26:09Z</time>
      </trkpt>
      <trkpt lat="49.78912" lon="2.36869">
        <ele>115.2</ele>
        <time>2022-07-13T07:26:10Z</time>
      </trkpt>
      <trkpt lat="49.78912" lon="2.36869">
        <ele>115.2</ele>
        <time>2022-07-13T07:26:11Z</time>
      </trkpt>
      <trkpt lat="49.78912" lon="2.36869">
        <ele>115.2</ele>
        <time>2022-07-13T07:26:12Z</time>
      </trkpt>
      <trkpt lat="49.78912" lon="2.36869">
        <ele>115.2</ele>
        <time>2022-07-13T07:26:13Z</time>
      </trkpt>
      <trkpt lat="49.78912" lon="2.36869">
        <ele>115.2</ele>
        <time>2022-07-13T07:26:14Z</time>
      </trkpt>
      <trkpt lat="49.78912" lon="2.36869">
        <ele>115.2</ele>
        <time>2022-07-13T07:26:15Z</time>
      </trkpt>
      <trkpt lat="49.78912" lon="2.36869">
        <ele>115.2</ele>
        <time>2022-07-13T07:26:16Z</time>
      </trkpt>
      <trkpt lat="49.78912" lon="2.36869">
        <ele>115.2</ele>
        <time>2022-07-13T07:26:17Z</time>
      </trkpt>
      <trkpt lat="49.78912" lon="2.36869">
        <ele>115.2</ele>
        <time>2022-07-13T07:26:18Z</time>
      </trkpt>
      <trkpt lat="49.78912" lon="2.36869">
        <ele>115.2</ele>
        <time>2022-07-13T07:26:19Z</time>
      </trkpt>
      <trkpt lat="49.78912" lon="2.36869">
        <ele>115.2</ele>
        <time>2022-07-13T07:26:20Z</time>
      </trkpt>
      <trkpt lat="49.78912" lon="2.36869">
        <ele>115.2</ele>
        <time>2022-07-13T07:26:21Z</time>
      </trkpt>
      <trkpt lat="49.78912" lon="2.36869">
        <ele>115.2</ele>
        <time>2022-07-13T07:26:22Z</time>
      </trkpt>
      <trkpt lat="49.78912" lon="2.36869">
        <ele>115.2</ele>
        <time>2022-07-13T07:26:23Z</time>
      </trkpt>
      <trkpt lat="49.78912" lon="2.36869">
        <ele>115.2</ele>
        <time>2022-07-13T07:26:24Z</time>
      </trkpt>
      <trkpt lat="49.78912" lon="2.36869">
        <ele>115.2</ele>
        <time>2022-07-13T07:26:25Z</time>
      </trkpt>
      <trkpt lat="49.78912" lon="2.36869">
        <ele>115.2</ele>
        <time>2022-07-13T07:26:26Z</time>
      </trkpt>
      <trkpt lat="49.78912" lon="2.36869">
        <ele>115.2</ele>
        <time>2022-07-13T07:26:27Z</time>
      </trkpt>
      <trkpt lat="49.78912" lon="2.36869">
        <ele>115.2</ele>
        <time>2022-07-13T07:26:28Z</time>
      </trkpt>
      <trkpt lat="49.78912" lon="2.36869">
        <ele>115.2</ele>
        <time>2022-07-13T07:26:29Z</time>
      </trkpt>
      <trkpt lat="49.78912" lon="2.36869">
        <ele>115.2</ele>
        <time>2022-07-13T07:26:30Z</time>
      </trkpt>
      <trkpt lat="49.78912" lon="2.36869">
        <ele>115.2</ele>
        <time>2022-07-13T07:26:31Z</time>
      </trkpt>
      <trkpt lat="49.78912" lon="2.36869">
        <ele>115.2</ele>
        <time>2022-07-13T07:26:32Z</time>
      </trkpt>
      <trkpt lat="49.78912" lon="2.36869">
        <ele>115.2</ele>
        <time>2022-07-13T07:26:33Z</time>
      </trkpt>
      <trkpt lat="49.78912" lon="2.36869">
        <ele>115.2</ele>
        <time>2022-07-13T07:26:34Z</time>
      </trkpt>
      <trkpt lat="49.78911" lon="2.36871">
        <ele>115.2</ele>
        <time>2022-07-13T07:26:35Z</time>
      </trkpt>
      <trkpt lat="49.78911" lon="2.36871">
        <ele>115.2</ele>
        <time>2022-07-13T07:26:36Z</time>
      </trkpt>
      <trkpt lat="49.78911" lon="2.36871">
        <ele>115.2</ele>
        <time>2022-07-13T07:26:38Z</time>
      </trkpt>
      <trkpt lat="49.78911" lon="2.36871">
        <ele>115.2</ele>
        <time>2022-07-13T07:26:39Z</time>
      </trkpt>
      <trkpt lat="49.78911" lon="2.36871">
        <ele>115</ele>
        <time>2022-07-13T07:26:40Z</time>
      </trkpt>
      <trkpt lat="49.78911" lon="2.36871">
        <ele>115</ele>
        <time>2022-07-13T07:26:41Z</time>
      </trkpt>
      <trkpt lat="49.78911" lon="2.36872">
        <ele>115</ele>
        <time>2022-07-13T07:26:42Z</time>
      </trkpt>
      <trkpt lat="49.78911" lon="2.36872">
        <ele>115</ele>
        <time>2022-07-13T07:26:43Z</time>
      </trkpt>
      <trkpt lat="49.78911" lon="2.36872">
        <ele>115</ele>
        <time>2022-07-13T07:26:44Z</time>
      </trkpt>
      <trkpt lat="49.78911" lon="2.36872">
        <ele>115</ele>
        <time>2022-07-13T07:26:45Z</time>
      </trkpt>
      <trkpt lat="49.78911" lon="2.36872">
        <ele>115</ele>
        <time>2022-07-13T07:26:46Z</time>
      </trkpt>
      <trkpt lat="49.78911" lon="2.36872">
        <ele>115</ele>
        <time>2022-07-13T07:26:47Z</time>
      </trkpt>
      <trkpt lat="49.78911" lon="2.36872">
        <ele>115</ele>
        <time>2022-07-13T07:26:48Z</time>
      </trkpt>
      <trkpt lat="49.78911" lon="2.36872">
        <ele>115</ele>
        <time>2022-07-13T07:26:49Z</time>
      </trkpt>
      <trkpt lat="49.78911" lon="2.36872">
        <ele>115</ele>
        <time>2022-07-13T07:26:50Z</time>
      </trkpt>
      <trkpt lat="49.78911" lon="2.36872">
        <ele>115</ele>
        <time>2022-07-13T07:26:51Z</time>
      </trkpt>
      <trkpt lat="49.78911" lon="2.36872">
        <ele>115</ele>
        <time>2022-07-13T07:26:52Z</time>
      </trkpt>
      <trkpt lat="49.78911" lon="2.36872">
        <ele>115</ele>
        <time>2022-07-13T07:26:53Z</time>
      </trkpt>
      <trkpt lat="49.78911" lon="2.36871">
        <ele>115</ele>
        <time>2022-07-13T07:26:54Z</time>
      </trkpt>
      <trkpt lat="49.7891" lon="2.36871">
        <ele>115.1</ele>
        <time>2022-07-13T07:26:55Z</time>
      </trkpt>
      <trkpt lat="49.78909" lon="2.36871">
        <ele>115.1</ele>
        <time>2022-07-13T07:26:56Z</time>
      </trkpt>
      <trkpt lat="49.78909" lon="2.36871">
        <ele>115.1</ele>
        <time>2022-07-13T07:26:57Z</time>
      </trkpt>
      <trkpt lat="49.78908" lon="2.3687">
        <ele>115.1</ele>
        <time>2022-07-13T07:26:58Z</time>
      </trkpt>
      <trkpt lat="49.78908" lon="2.3687">
        <ele>115.1</ele>
        <time>2022-07-13T07:26:59Z</time>
      </trkpt>
      <trkpt lat="49.78908" lon="2.36871">
        <ele>115.1</ele>
        <time>2022-07-13T07:27:00Z</time>
      </trkpt>
      <trkpt lat="49.78907" lon="2.36872">
        <ele>114.9</ele>
        <time>2022-07-13T07:27:01Z</time>
      </trkpt>
      <trkpt lat="49.78907" lon="2.36872">
        <ele>114.9</ele>
        <time>2022-07-13T07:27:02Z</time>
      </trkpt>
      <trkpt lat="49.78906" lon="2.36872">
        <ele>114.9</ele>
        <time>2022-07-13T07:27:03Z</time>
      </trkpt>
      <trkpt lat="49.78905" lon="2.36873">
        <ele>114.9</ele>
        <time>2022-07-13T07:27:04Z</time>
      </trkpt>
      <trkpt lat="49.78905" lon="2.36871">
        <ele>114.9</ele>
        <time>2022-07-13T07:27:06Z</time>
      </trkpt>
      <trkpt lat="49.78904" lon="2.3687">
        <ele>115</ele>
        <time>2022-07-13T07:27:07Z</time>
      </trkpt>
      <trkpt lat="49.78904" lon="2.36869">
        <ele>115</ele>
        <time>2022-07-13T07:27:08Z</time>
      </trkpt>
      <trkpt lat="49.78906" lon="2.36866">
        <ele>115.3</ele>
        <time>2022-07-13T07:27:09Z</time>
      </trkpt>
      <trkpt lat="49.78906" lon="2.36863">
        <ele>115.3</ele>
        <time>2022-07-13T07:27:11Z</time>
      </trkpt>
      <trkpt lat="49.78906" lon="2.36861">
        <ele>115.4</ele>
        <time>2022-07-13T07:27:12Z</time>
      </trkpt>
      <trkpt lat="49.78906" lon="2.36859">
        <ele>115.4</ele>
        <time>2022-07-13T07:27:13Z</time>
      </trkpt>
      <trkpt lat="49.78906" lon="2.36858">
        <ele>115.6</ele>
        <time>2022-07-13T07:27:14Z</time>
      </trkpt>
      <trkpt lat="49.78906" lon="2.36857">
        <ele>115.6</ele>
        <time>2022-07-13T07:27:15Z</time>
      </trkpt>
      <trkpt lat="49.78906" lon="2.36856">
        <ele>115.6</ele>
        <time>2022-07-13T07:27:17Z</time>
      </trkpt>
      <trkpt lat="49.78906" lon="2.36854">
        <ele>115.8</ele>
        <time>2022-07-13T07:27:18Z</time>
      </trkpt>
      <trkpt lat="49.78907" lon="2.36853">
        <ele>115.8</ele>
        <time>2022-07-13T07:27:19Z</time>
      </trkpt>
      <trkpt lat="49.78908" lon="2.36852">
        <ele>115.8</ele>
        <time>2022-07-13T07:27:20Z</time>
      </trkpt>
      <trkpt lat="49.78909" lon="2.36851">
        <ele>115.8</ele>
        <time>2022-07-13T07:27:21Z</time>
      </trkpt>
      <trkpt lat="49.78911" lon="2.36851">
        <ele>115.8</ele>
        <time>2022-07-13T07:27:22Z</time>
      </trkpt>
      <trkpt lat="49.78914" lon="2.36851">
        <ele>115.9</ele>
        <time>2022-07-13T07:27:24Z</time>
      </trkpt>
      <trkpt lat="49.78917" lon="2.36851">
        <ele>115.9</ele>
        <time>2022-07-13T07:27:25Z</time>
      </trkpt>
      <trkpt lat="49.78918" lon="2.36851">
        <ele>115.9</ele>
        <time>2022-07-13T07:27:26Z</time>
      </trkpt>
      <trkpt lat="49.78919" lon="2.36851">
        <ele>115.9</ele>
        <time>2022-07-13T07:27:27Z</time>
      </trkpt>
      <trkpt lat="49.7892" lon="2.36849">
        <ele>116</ele>
        <time>2022-07-13T07:27:28Z</time>
      </trkpt>
      <trkpt lat="49.78921" lon="2.36848">
        <ele>116</ele>
        <time>2022-07-13T07:27:30Z</time>
      </trkpt>
      <trkpt lat="49.78922" lon="2.36847">
        <ele>116</ele>
        <time>2022-07-13T07:27:31Z</time>
      </trkpt>
      <trkpt lat="49.78923" lon="2.36846">
        <ele>116</ele>
        <time>2022-07-13T07:27:32Z</time>
      </trkpt>
      <trkpt lat="49.78924" lon="2.36843">
        <ele>116.2</ele>
        <time>2022-07-13T07:27:33Z</time>
      </trkpt>
      <trkpt lat="49.78925" lon="2.36842">
        <ele>116.1</ele>
        <time>2022-07-13T07:27:34Z</time>
      </trkpt>
      <trkpt lat="49.78925" lon="2.36841">
        <ele>116.3</ele>
        <time>2022-07-13T07:27:36Z</time>
      </trkpt>
      <trkpt lat="49.78926" lon="2.3684">
        <ele>116.3</ele>
        <time>2022-07-13T07:27:37Z</time>
      </trkpt>
      <trkpt lat="49.78926" lon="2.36838">
        <ele>116.3</ele>
        <time>2022-07-13T07:27:38Z</time>
      </trkpt>
      <trkpt lat="49.78927" lon="2.36836">
        <ele>116.3</ele>
        <time>2022-07-13T07:27:39Z</time>
      </trkpt>
      <trkpt lat="49.78927" lon="2.36835">
        <ele>116.3</ele>
        <time>2022-07-13T07:27:40Z</time>
      </trkpt>
      <trkpt lat="49.78927" lon="2.36834">
        <ele>116.3</ele>
        <time>2022-07-13T07:27:41Z</time>
      </trkpt>
      <trkpt lat="49.78927" lon="2.36833">
        <ele>116.3</ele>
        <time>2022-07-13T07:27:43Z</time>
      </trkpt>
      <trkpt lat="49.78928" lon="2.36832">
        <ele>116.4</ele>
        <time>2022-07-13T07:27:44Z</time>
      </trkpt>
      <trkpt lat="49.78928" lon="2.36831">
        <ele>116.4</ele>
        <time>2022-07-13T07:27:45Z</time>
      </trkpt>
      <trkpt lat="49.78929" lon="2.3683">
        <ele>116.4</ele>
        <time>2022-07-13T07:27:46Z</time>
      </trkpt>
      <trkpt lat="49.7893" lon="2.36828">
        <ele>116.5</ele>
        <time>2022-07-13T07:27:47Z</time>
      </trkpt>
      <trkpt lat="49.7893" lon="2.36827">
        <ele>116.5</ele>
        <time>2022-07-13T07:27:48Z</time>
      </trkpt>
      <trkpt lat="49.78931" lon="2.36826">
        <ele>116.5</ele>
        <time>2022-07-13T07:27:50Z</time>
      </trkpt>
      <trkpt lat="49.78932" lon="2.36825">
        <ele>116.5</ele>
        <time>2022-07-13T07:27:51Z</time>
      </trkpt>
      <trkpt lat="49.78933" lon="2.36824">
        <ele>116.5</ele>
        <time>2022-07-13T07:27:52Z</time>
      </trkpt>
      <trkpt lat="49.78933" lon="2.36823">
        <ele>116.5</ele>
        <time>2022-07-13T07:27:53Z</time>
      </trkpt>
      <trkpt lat="49.78934" lon="2.36822">
        <ele>116.5</ele>
        <time>2022-07-13T07:27:54Z</time>
      </trkpt>
      <trkpt lat="49.78934" lon="2.3682">
        <ele>116.5</ele>
        <time>2022-07-13T07:27:55Z</time>
      </trkpt>
      <trkpt lat="49.78935" lon="2.36819">
        <ele>116.6</ele>
        <time>2022-07-13T07:27:57Z</time>
      </trkpt>
      <trkpt lat="49.78935" lon="2.36818">
        <ele>116.6</ele>
        <time>2022-07-13T07:27:58Z</time>
      </trkpt>
      <trkpt lat="49.78936" lon="2.36817">
        <ele>116.6</ele>
        <time>2022-07-13T07:27:59Z</time>
      </trkpt>
      <trkpt lat="49.78936" lon="2.36816">
        <ele>116.6</ele>
        <time>2022-07-13T07:28:00Z</time>
      </trkpt>
      <trkpt lat="49.78937" lon="2.36815">
        <ele>116.7</ele>
        <time>2022-07-13T07:28:01Z</time>
      </trkpt>
      <trkpt lat="49.78937" lon="2.36814">
        <ele>116.7</ele>
        <time>2022-07-13T07:28:02Z</time>
      </trkpt>
      <trkpt lat="49.78937" lon="2.36814">
        <ele>116.7</ele>
        <time>2022-07-13T07:28:03Z</time>
      </trkpt>
      <trkpt lat="49.78938" lon="2.36813">
        <ele>116.7</ele>
        <time>2022-07-13T07:28:05Z</time>
      </trkpt>
      <trkpt lat="49.78938" lon="2.36812">
        <ele>116.7</ele>
        <time>2022-07-13T07:28:06Z</time>
      </trkpt>
      <trkpt lat="49.78939" lon="2.3681">
        <ele>116.7</ele>
        <time>2022-07-13T07:28:07Z</time>
      </trkpt>
      <trkpt lat="49.7894" lon="2.36809">
        <ele>116.7</ele>
        <time>2022-07-13T07:28:08Z</time>
      </trkpt>
      <trkpt lat="49.78941" lon="2.36807">
        <ele>116.7</ele>
        <time>2022-07-13T07:28:10Z</time>
      </trkpt>
      <trkpt lat="49.78942" lon="2.36806">
        <ele>116.8</ele>
        <time>2022-07-13T07:28:11Z</time>
      </trkpt>
      <trkpt lat="49.78943" lon="2.36804">
        <ele>116.8</ele>
        <time>2022-07-13T07:28:12Z</time>
      </trkpt>
      <trkpt lat="49.78944" lon="2.36803">
        <ele>116.8</ele>
        <time>2022-07-13T07:28:13Z</time>
      </trkpt>
      <trkpt lat="49.78945" lon="2.36801">
        <ele>116.8</ele>
        <time>2022-07-13T07:28:14Z</time>
      </trkpt>
      <trkpt lat="49.78946" lon="2.368">
        <ele>116.8</ele>
        <time>2022-07-13T07:28:15Z</time>
      </trkpt>
      <trkpt lat="49.78946" lon="2.36799">
        <ele>116.8</ele>
        <time>2022-07-13T07:28:16Z</time>
      </trkpt>
      <trkpt lat="49.78947" lon="2.36797">
        <ele>116.9</ele>
        <time>2022-07-13T07:28:17Z</time>
      </trkpt>
      <trkpt lat="49.78948" lon="2.36796">
        <ele>116.9</ele>
        <time>2022-07-13T07:28:19Z</time>
      </trkpt>
      <trkpt lat="49.78949" lon="2.36794">
        <ele>116.9</ele>
        <time>2022-07-13T07:28:20Z</time>
      </trkpt>
      <trkpt lat="49.7895" lon="2.36792">
        <ele>116.9</ele>
        <time>2022-07-13T07:28:21Z</time>
      </trkpt>
      <trkpt lat="49.78952" lon="2.36789">
        <ele>117</ele>
        <time>2022-07-13T07:28:22Z</time>
      </trkpt>
      <trkpt lat="49.78953" lon="2.36788">
        <ele>116.9</ele>
        <time>2022-07-13T07:28:23Z</time>
      </trkpt>
      <trkpt lat="49.78953" lon="2.36786">
        <ele>116.9</ele>
        <time>2022-07-13T07:28:24Z</time>
      </trkpt>
      <trkpt lat="49.78954" lon="2.36785">
        <ele>117</ele>
        <time>2022-07-13T07:28:26Z</time>
      </trkpt>
      <trkpt lat="49.78956" lon="2.36782">
        <ele>116.9</ele>
        <time>2022-07-13T07:28:27Z</time>
      </trkpt>
      <trkpt lat="49.78956" lon="2.36781">
        <ele>116.9</ele>
        <time>2022-07-13T07:28:28Z</time>
      </trkpt>
      <trkpt lat="49.78957" lon="2.3678">
        <ele>116.9</ele>
        <time>2022-07-13T07:28:29Z</time>
      </trkpt>
      <trkpt lat="49.78958" lon="2.36779">
        <ele>116.9</ele>
        <time>2022-07-13T07:28:30Z</time>
      </trkpt>
      <trkpt lat="49.78959" lon="2.36776">
        <ele>116.8</ele>
        <time>2022-07-13T07:28:32Z</time>
      </trkpt>
      <trkpt lat="49.7896" lon="2.36775">
        <ele>116.8</ele>
        <time>2022-07-13T07:28:33Z</time>
      </trkpt>
      <trkpt lat="49.78961" lon="2.36774">
        <ele>116.6</ele>
        <time>2022-07-13T07:28:34Z</time>
      </trkpt>
      <trkpt lat="49.78961" lon="2.36772">
        <ele>116.6</ele>
        <time>2022-07-13T07:28:36Z</time>
      </trkpt>
      <trkpt lat="49.78963" lon="2.3677">
        <ele>116.6</ele>
        <time>2022-07-13T07:28:37Z</time>
      </trkpt>
      <trkpt lat="49.78963" lon="2.36768">
        <ele>116.5</ele>
        <time>2022-07-13T07:28:38Z</time>
      </trkpt>
      <trkpt lat="49.78964" lon="2.36765">
        <ele>116.5</ele>
        <time>2022-07-13T07:28:39Z</time>
      </trkpt>
      <trkpt lat="49.78965" lon="2.36764">
        <ele>116.5</ele>
        <time>2022-07-13T07:28:40Z</time>
      </trkpt>
      <trkpt lat="49.78965" lon="2.36763">
        <ele>116.5</ele>
        <time>2022-07-13T07:28:41Z</time>
      </trkpt>
      <trkpt lat="49.78966" lon="2.3676">
        <ele>116.3</ele>
        <time>2022-07-13T07:28:42Z</time>
      </trkpt>
      <trkpt lat="49.78967" lon="2.36757">
        <ele>116.3</ele>
        <time>2022-07-13T07:28:44Z</time>
      </trkpt>
      <trkpt lat="49.78968" lon="2.36755">
        <ele>116.4</ele>
        <time>2022-07-13T07:28:45Z</time>
      </trkpt>
      <trkpt lat="49.78968" lon="2.36753">
        <ele>116.4</ele>
        <time>2022-07-13T07:28:46Z</time>
      </trkpt>
      <trkpt lat="49.7897" lon="2.36751">
        <ele>116.3</ele>
        <time>2022-07-13T07:28:48Z</time>
      </trkpt>
      <trkpt lat="49.7897" lon="2.36749">
        <ele>116.3</ele>
        <time>2022-07-13T07:28:49Z</time>
      </trkpt>
      <trkpt lat="49.78971" lon="2.36747">
        <ele>116.3</ele>
        <time>2022-07-13T07:28:50Z</time>
      </trkpt>
      <trkpt lat="49.78972" lon="2.36745">
        <ele>116.4</ele>
        <time>2022-07-13T07:28:51Z</time>
      </trkpt>
      <trkpt lat="49.78973" lon="2.36741">
        <ele>116.2</ele>
        <time>2022-07-13T07:28:52Z</time>
      </trkpt>
      <trkpt lat="49.78974" lon="2.3674">
        <ele>116.2</ele>
        <time>2022-07-13T07:28:53Z</time>
      </trkpt>
      <trkpt lat="49.78974" lon="2.36738">
        <ele>116.3</ele>
        <time>2022-07-13T07:28:54Z</time>
      </trkpt>
      <trkpt lat="49.78975" lon="2.36736">
        <ele>116</ele>
        <time>2022-07-13T07:28:56Z</time>
      </trkpt>
      <trkpt lat="49.78977" lon="2.36733">
        <ele>116.1</ele>
        <time>2022-07-13T07:28:57Z</time>
      </trkpt>
      <trkpt lat="49.78977" lon="2.36732">
        <ele>115.8</ele>
        <time>2022-07-13T07:28:58Z</time>
      </trkpt>
      <trkpt lat="49.78978" lon="2.36729">
        <ele>115.8</ele>
        <time>2022-07-13T07:28:59Z</time>
      </trkpt>
      <trkpt lat="49.78979" lon="2.36727">
        <ele>115.8</ele>
        <time>2022-07-13T07:29:00Z</time>
      </trkpt>
      <trkpt lat="49.78981" lon="2.36724">
        <ele>115.4</ele>
        <time>2022-07-13T07:29:01Z</time>
      </trkpt>
      <trkpt lat="49.78981" lon="2.36723">
        <ele>115.4</ele>
        <time>2022-07-13T07:29:02Z</time>
      </trkpt>
      <trkpt lat="49.78982" lon="2.36721">
        <ele>115.4</ele>
        <time>2022-07-13T07:29:03Z</time>
      </trkpt>
      <trkpt lat="49.78983" lon="2.36719">
        <ele>115.1</ele>
        <time>2022-07-13T07:29:04Z</time>
      </trkpt>
      <trkpt lat="49.78984" lon="2.36718">
        <ele>115.1</ele>
        <time>2022-07-13T07:29:05Z</time>
      </trkpt>
      <trkpt lat="49.78985" lon="2.36716">
        <ele>115</ele>
        <time>2022-07-13T07:29:06Z</time>
      </trkpt>
      <trkpt lat="49.78986" lon="2.36714">
        <ele>114.7</ele>
        <time>2022-07-13T07:29:08Z</time>
      </trkpt>
      <trkpt lat="49.78986" lon="2.36712">
        <ele>114.6</ele>
        <time>2022-07-13T07:29:09Z</time>
      </trkpt>
      <trkpt lat="49.78987" lon="2.3671">
        <ele>114.6</ele>
        <time>2022-07-13T07:29:10Z</time>
      </trkpt>
      <trkpt lat="49.78989" lon="2.36706">
        <ele>114.3</ele>
        <time>2022-07-13T07:29:12Z</time>
      </trkpt>
      <trkpt lat="49.78989" lon="2.36703">
        <ele>114.3</ele>
        <time>2022-07-13T07:29:13Z</time>
      </trkpt>
      <trkpt lat="49.7899" lon="2.36702">
        <ele>114.3</ele>
        <time>2022-07-13T07:29:14Z</time>
      </trkpt>
      <trkpt lat="49.7899" lon="2.367">
        <ele>114.3</ele>
        <time>2022-07-13T07:29:15Z</time>
      </trkpt>
      <trkpt lat="49.7899" lon="2.36695">
        <ele>114.4</ele>
        <time>2022-07-13T07:29:17Z</time>
      </trkpt>
      <trkpt lat="49.78991" lon="2.36693">
        <ele>114.4</ele>
        <time>2022-07-13T07:29:18Z</time>
      </trkpt>
      <trkpt lat="49.78992" lon="2.36691">
        <ele>114.1</ele>
        <time>2022-07-13T07:29:20Z</time>
      </trkpt>
      <trkpt lat="49.78992" lon="2.36689">
        <ele>114.1</ele>
        <time>2022-07-13T07:29:21Z</time>
      </trkpt>
      <trkpt lat="49.78993" lon="2.36687">
        <ele>114.2</ele>
        <time>2022-07-13T07:29:22Z</time>
      </trkpt>
      <trkpt lat="49.78994" lon="2.36684">
        <ele>114.2</ele>
        <time>2022-07-13T07:29:23Z</time>
      </trkpt>
      <trkpt lat="49.78994" lon="2.36682">
        <ele>114</ele>
        <time>2022-07-13T07:29:24Z</time>
      </trkpt>
      <trkpt lat="49.78994" lon="2.36681">
        <ele>114</ele>
        <time>2022-07-13T07:29:25Z</time>
      </trkpt>
      <trkpt lat="49.78995" lon="2.36679">
        <ele>114</ele>
        <time>2022-07-13T07:29:26Z</time>
      </trkpt>
      <trkpt lat="49.78995" lon="2.36677">
        <ele>114</ele>
        <time>2022-07-13T07:29:28Z</time>
      </trkpt>
      <trkpt lat="49.78995" lon="2.36675">
        <ele>114</ele>
        <time>2022-07-13T07:29:29Z</time>
      </trkpt>
      <trkpt lat="49.78995" lon="2.36673">
        <ele>114.1</ele>
        <time>2022-07-13T07:29:30Z</time>
      </trkpt>
      <trkpt lat="49.78995" lon="2.36672">
        <ele>114.1</ele>
        <time>2022-07-13T07:29:31Z</time>
      </trkpt>
      <trkpt lat="49.78994" lon="2.36669">
        <ele>114.1</ele>
        <time>2022-07-13T07:29:32Z</time>
      </trkpt>
      <trkpt lat="49.78994" lon="2.36668">
        <ele>114.1</ele>
        <time>2022-07-13T07:29:33Z</time>
      </trkpt>
      <trkpt lat="49.78993" lon="2.36667">
        <ele>114.4</ele>
        <time>2022-07-13T07:29:35Z</time>
      </trkpt>
      <trkpt lat="49.78992" lon="2.36663">
        <ele>114.4</ele>
        <time>2022-07-13T07:29:36Z</time>
      </trkpt>
      <trkpt lat="49.78992" lon="2.36662">
        <ele>114.4</ele>
        <time>2022-07-13T07:29:37Z</time>
      </trkpt>
      <trkpt lat="49.78992" lon="2.3666">
        <ele>114.4</ele>
        <time>2022-07-13T07:29:38Z</time>
      </trkpt>
      <trkpt lat="49.78991" lon="2.36659">
        <ele>114.4</ele>
        <time>2022-07-13T07:29:39Z</time>
      </trkpt>
      <trkpt lat="49.78991" lon="2.36657">
        <ele>114.6</ele>
        <time>2022-07-13T07:29:40Z</time>
      </trkpt>
      <trkpt lat="49.7899" lon="2.36655">
        <ele>114.6</ele>
        <time>2022-07-13T07:29:42Z</time>
      </trkpt>
      <trkpt lat="49.7899" lon="2.36653">
        <ele>114.6</ele>
        <time>2022-07-13T07:29:43Z</time>
      </trkpt>
      <trkpt lat="49.78989" lon="2.36652">
        <ele>114.6</ele>
        <time>2022-07-13T07:29:44Z</time>
      </trkpt>
      <trkpt lat="49.78989" lon="2.3665">
        <ele>114.6</ele>
        <time>2022-07-13T07:29:45Z</time>
      </trkpt>
      <trkpt lat="49.78988" lon="2.36648">
        <ele>114.6</ele>
        <time>2022-07-13T07:29:46Z</time>
      </trkpt>
      <trkpt lat="49.78988" lon="2.36646">
        <ele>114.8</ele>
        <time>2022-07-13T07:29:47Z</time>
      </trkpt>
      <trkpt lat="49.78987" lon="2.36643">
        <ele>114.8</ele>
        <time>2022-07-13T07:29:48Z</time>
      </trkpt>
      <trkpt lat="49.78986" lon="2.36641">
        <ele>114.8</ele>
        <time>2022-07-13T07:29:49Z</time>
      </trkpt>
      <trkpt lat="49.78986" lon="2.36639">
        <ele>114.8</ele>
        <time>2022-07-13T07:29:51Z</time>
      </trkpt>
      <trkpt lat="49.78986" lon="2.36637">
        <ele>114.8</ele>
        <time>2022-07-13T07:29:52Z</time>
      </trkpt>
      <trkpt lat="49.78985" lon="2.36635">
        <ele>115</ele>
        <time>2022-07-13T07:29:53Z</time>
      </trkpt>
      <trkpt lat="49.78984" lon="2.36632">
        <ele>115</ele>
        <time>2022-07-13T07:29:54Z</time>
      </trkpt>
      <trkpt lat="49.78984" lon="2.36631">
        <ele>115</ele>
        <time>2022-07-13T07:29:55Z</time>
      </trkpt>
      <trkpt lat="49.78984" lon="2.3663">
        <ele>115</ele>
        <time>2022-07-13T07:29:56Z</time>
      </trkpt>
      <trkpt lat="49.78984" lon="2.36628">
        <ele>115</ele>
        <time>2022-07-13T07:29:57Z</time>
      </trkpt>
      <trkpt lat="49.78983" lon="2.36625">
        <ele>115</ele>
        <time>2022-07-13T07:29:58Z</time>
      </trkpt>
      <trkpt lat="49.78983" lon="2.36622">
        <ele>115</ele>
        <time>2022-07-13T07:29:59Z</time>
      </trkpt>
      <trkpt lat="49.78983" lon="2.3662">
        <ele>115.2</ele>
        <time>2022-07-13T07:30:01Z</time>
      </trkpt>
      <trkpt lat="49.78982" lon="2.36619">
        <ele>115.2</ele>
        <time>2022-07-13T07:30:02Z</time>
      </trkpt>
      <trkpt lat="49.78982" lon="2.36616">
        <ele>115.2</ele>
        <time>2022-07-13T07:30:03Z</time>
      </trkpt>
      <trkpt lat="49.78983" lon="2.36615">
        <ele>115</ele>
        <time>2022-07-13T07:30:04Z</time>
      </trkpt>
      <trkpt lat="49.78983" lon="2.36614">
        <ele>115</ele>
        <time>2022-07-13T07:30:05Z</time>
      </trkpt>
      <trkpt lat="49.78984" lon="2.36611">
        <ele>115</ele>
        <time>2022-07-13T07:30:06Z</time>
      </trkpt>
      <trkpt lat="49.78985" lon="2.3661">
        <ele>115</ele>
        <time>2022-07-13T07:30:07Z</time>
      </trkpt>
      <trkpt lat="49.78986" lon="2.36609">
        <ele>115</ele>
        <time>2022-07-13T07:30:08Z</time>
      </trkpt>
      <trkpt lat="49.78989" lon="2.36608">
        <ele>114.8</ele>
        <time>2022-07-13T07:30:09Z</time>
      </trkpt>
      <trkpt lat="49.7899" lon="2.36608">
        <ele>114.8</ele>
        <time>2022-07-13T07:30:11Z</time>
      </trkpt>
      <trkpt lat="49.78991" lon="2.36608">
        <ele>114.8</ele>
        <time>2022-07-13T07:30:12Z</time>
      </trkpt>
      <trkpt lat="49.78992" lon="2.36608">
        <ele>114.7</ele>
        <time>2022-07-13T07:30:13Z</time>
      </trkpt>
      <trkpt lat="49.78993" lon="2.36607">
        <ele>114.7</ele>
        <time>2022-07-13T07:30:14Z</time>
      </trkpt>
      <trkpt lat="49.78994" lon="2.36607">
        <ele>114.7</ele>
        <time>2022-07-13T07:30:15Z</time>
      </trkpt>
      <trkpt lat="49.78995" lon="2.36606">
        <ele>114.6</ele>
        <time>2022-07-13T07:30:16Z</time>
      </trkpt>
      <trkpt lat="49.78996" lon="2.36605">
        <ele>114.7</ele>
        <time>2022-07-13T07:30:18Z</time>
      </trkpt>
      <trkpt lat="49.78997" lon="2.36603">
        <ele>114.6</ele>
        <time>2022-07-13T07:30:19Z</time>
      </trkpt>
      <trkpt lat="49.78998" lon="2.36602">
        <ele>114.6</ele>
        <time>2022-07-13T07:30:20Z</time>
      </trkpt>
      <trkpt lat="49.78998" lon="2.36601">
        <ele>114.6</ele>
        <time>2022-07-13T07:30:21Z</time>
      </trkpt>
      <trkpt lat="49.79" lon="2.36599">
        <ele>114.5</ele>
        <time>2022-07-13T07:30:22Z</time>
      </trkpt>
      <trkpt lat="49.79001" lon="2.36598">
        <ele>114.5</ele>
        <time>2022-07-13T07:30:23Z</time>
      </trkpt>
      <trkpt lat="49.79001" lon="2.36596">
        <ele>114.6</ele>
        <time>2022-07-13T07:30:24Z</time>
      </trkpt>
      <trkpt lat="49.79002" lon="2.36594">
        <ele>114.5</ele>
        <time>2022-07-13T07:30:25Z</time>
      </trkpt>
      <trkpt lat="49.79003" lon="2.36593">
        <ele>114.5</ele>
        <time>2022-07-13T07:30:27Z</time>
      </trkpt>
      <trkpt lat="49.79003" lon="2.36593">
        <ele>114.5</ele>
        <time>2022-07-13T07:30:28Z</time>
      </trkpt>
      <trkpt lat="49.79004" lon="2.36592">
        <ele>114.6</ele>
        <time>2022-07-13T07:30:29Z</time>
      </trkpt>
      <trkpt lat="49.79005" lon="2.36591">
        <ele>114.5</ele>
        <time>2022-07-13T07:30:30Z</time>
      </trkpt>
      <trkpt lat="49.79006" lon="2.36589">
        <ele>114.5</ele>
        <time>2022-07-13T07:30:31Z</time>
      </trkpt>
      <trkpt lat="49.79006" lon="2.36588">
        <ele>114.6</ele>
        <time>2022-07-13T07:30:33Z</time>
      </trkpt>
      <trkpt lat="49.79007" lon="2.36586">
        <ele>114.6</ele>
        <time>2022-07-13T07:30:34Z</time>
      </trkpt>
      <trkpt lat="49.79007" lon="2.36585">
        <ele>114.6</ele>
        <time>2022-07-13T07:30:35Z</time>
      </trkpt>
      <trkpt lat="49.79007" lon="2.36583">
        <ele>114.6</ele>
        <time>2022-07-13T07:30:36Z</time>
      </trkpt>
      <trkpt lat="49.79008" lon="2.3658">
        <ele>114.6</ele>
        <time>2022-07-13T07:30:37Z</time>
      </trkpt>
      <trkpt lat="49.79009" lon="2.36579">
        <ele>114.7</ele>
        <time>2022-07-13T07:30:38Z</time>
      </trkpt>
      <trkpt lat="49.7901" lon="2.36577">
        <ele>114.7</ele>
        <time>2022-07-13T07:30:39Z</time>
      </trkpt>
      <trkpt lat="49.7901" lon="2.36575">
        <ele>114.7</ele>
        <time>2022-07-13T07:30:40Z</time>
      </trkpt>
      <trkpt lat="49.7901" lon="2.36573">
        <ele>114.7</ele>
        <time>2022-07-13T07:30:41Z</time>
      </trkpt>
      <trkpt lat="49.79009" lon="2.36572">
        <ele>114.7</ele>
        <time>2022-07-13T07:30:43Z</time>
      </trkpt>
      <trkpt lat="49.79009" lon="2.3657">
        <ele>114.8</ele>
        <time>2022-07-13T07:30:44Z</time>
      </trkpt>
      <trkpt lat="49.79009" lon="2.36569">
        <ele>114.8</ele>
        <time>2022-07-13T07:30:45Z</time>
      </trkpt>
      <trkpt lat="49.79009" lon="2.36567">
        <ele>114.8</ele>
        <time>2022-07-13T07:30:46Z</time>
      </trkpt>
      <trkpt lat="49.79009" lon="2.36565">
        <ele>114.9</ele>
        <time>2022-07-13T07:30:48Z</time>
      </trkpt>
      <trkpt lat="49.7901" lon="2.36563">
        <ele>114.9</ele>
        <time>2022-07-13T07:30:49Z</time>
      </trkpt>
      <trkpt lat="49.79011" lon="2.36563">
        <ele>114.8</ele>
        <time>2022-07-13T07:30:50Z</time>
      </trkpt>
      <trkpt lat="49.79011" lon="2.36561">
        <ele>114.9</ele>
        <time>2022-07-13T07:30:51Z</time>
      </trkpt>
      <trkpt lat="49.79012" lon="2.36558">
        <ele>114.9</ele>
        <time>2022-07-13T07:30:52Z</time>
      </trkpt>
      <trkpt lat="49.79012" lon="2.36557">
        <ele>115</ele>
        <time>2022-07-13T07:30:54Z</time>
      </trkpt>
      <trkpt lat="49.79013" lon="2.36556">
        <ele>115</ele>
        <time>2022-07-13T07:30:55Z</time>
      </trkpt>
      <trkpt lat="49.79014" lon="2.36553">
        <ele>115</ele>
        <time>2022-07-13T07:30:56Z</time>
      </trkpt>
      <trkpt lat="49.79014" lon="2.36552">
        <ele>115</ele>
        <time>2022-07-13T07:30:57Z</time>
      </trkpt>
      <trkpt lat="49.79015" lon="2.3655">
        <ele>115</ele>
        <time>2022-07-13T07:30:58Z</time>
      </trkpt>
      <trkpt lat="49.79016" lon="2.36548">
        <ele>115.1</ele>
        <time>2022-07-13T07:30:59Z</time>
      </trkpt>
      <trkpt lat="49.79016" lon="2.36546">
        <ele>115.1</ele>
        <time>2022-07-13T07:31:00Z</time>
      </trkpt>
      <trkpt lat="49.79017" lon="2.36545">
        <ele>115.1</ele>
        <time>2022-07-13T07:31:01Z</time>
      </trkpt>
      <trkpt lat="49.79018" lon="2.36544">
        <ele>115.1</ele>
        <time>2022-07-13T07:31:02Z</time>
      </trkpt>
      <trkpt lat="49.79019" lon="2.36543">
        <ele>115.1</ele>
        <time>2022-07-13T07:31:04Z</time>
      </trkpt>
      <trkpt lat="49.7902" lon="2.36541">
        <ele>115.1</ele>
        <time>2022-07-13T07:31:05Z</time>
      </trkpt>
      <trkpt lat="49.7902" lon="2.36539">
        <ele>115.1</ele>
        <time>2022-07-13T07:31:06Z</time>
      </trkpt>
      <trkpt lat="49.79021" lon="2.36536">
        <ele>115.2</ele>
        <time>2022-07-13T07:31:07Z</time>
      </trkpt>
      <trkpt lat="49.79021" lon="2.36535">
        <ele>115.2</ele>
        <time>2022-07-13T07:31:08Z</time>
      </trkpt>
      <trkpt lat="49.79021" lon="2.36533">
        <ele>115.2</ele>
        <time>2022-07-13T07:31:09Z</time>
      </trkpt>
      <trkpt lat="49.79022" lon="2.36532">
        <ele>115.1</ele>
        <time>2022-07-13T07:31:10Z</time>
      </trkpt>
      <trkpt lat="49.79022" lon="2.36531">
        <ele>115.1</ele>
        <time>2022-07-13T07:31:12Z</time>
      </trkpt>
      <trkpt lat="49.79023" lon="2.36529">
        <ele>115.1</ele>
        <time>2022-07-13T07:31:13Z</time>
      </trkpt>
      <trkpt lat="49.79024" lon="2.36526">
        <ele>115</ele>
        <time>2022-07-13T07:31:14Z</time>
      </trkpt>
      <trkpt lat="49.79025" lon="2.36525">
        <ele>115</ele>
        <time>2022-07-13T07:31:15Z</time>
      </trkpt>
      <trkpt lat="49.79025" lon="2.36524">
        <ele>115</ele>
        <time>2022-07-13T07:31:16Z</time>
      </trkpt>
      <trkpt lat="49.79025" lon="2.36522">
        <ele>115</ele>
        <time>2022-07-13T07:31:17Z</time>
      </trkpt>
      <trkpt lat="49.79026" lon="2.3652">
        <ele>115</ele>
        <time>2022-07-13T07:31:18Z</time>
      </trkpt>
      <trkpt lat="49.79026" lon="2.36518">
        <ele>115</ele>
        <time>2022-07-13T07:31:20Z</time>
      </trkpt>
      <trkpt lat="49.79027" lon="2.36516">
        <ele>115</ele>
        <time>2022-07-13T07:31:21Z</time>
      </trkpt>
      <trkpt lat="49.79027" lon="2.36514">
        <ele>115</ele>
        <time>2022-07-13T07:31:22Z</time>
      </trkpt>
      <trkpt lat="49.79027" lon="2.36513">
        <ele>115</ele>
        <time>2022-07-13T07:31:23Z</time>
      </trkpt>
      <trkpt lat="49.79028" lon="2.3651">
        <ele>114.9</ele>
        <time>2022-07-13T07:31:24Z</time>
      </trkpt>
      <trkpt lat="49.79028" lon="2.36509">
        <ele>114.9</ele>
        <time>2022-07-13T07:31:25Z</time>
      </trkpt>
      <trkpt lat="49.79028" lon="2.36508">
        <ele>114.9</ele>
        <time>2022-07-13T07:31:26Z</time>
      </trkpt>
      <trkpt lat="49.79029" lon="2.36505">
        <ele>114.9</ele>
        <time>2022-07-13T07:31:28Z</time>
      </trkpt>
      <trkpt lat="49.7903" lon="2.36503">
        <ele>114.8</ele>
        <time>2022-07-13T07:31:29Z</time>
      </trkpt>
      <trkpt lat="49.79031" lon="2.36502">
        <ele>114.8</ele>
        <time>2022-07-13T07:31:30Z</time>
      </trkpt>
      <trkpt lat="49.79031" lon="2.36501">
        <ele>114.8</ele>
        <time>2022-07-13T07:31:31Z</time>
      </trkpt>
      <trkpt lat="49.79032" lon="2.36501">
        <ele>114.8</ele>
        <time>2022-07-13T07:31:32Z</time>
      </trkpt>
      <trkpt lat="49.79032" lon="2.365">
        <ele>114.8</ele>
        <time>2022-07-13T07:31:33Z</time>
      </trkpt>
      <trkpt lat="49.79033" lon="2.36499">
        <ele>114.8</ele>
        <time>2022-07-13T07:31:35Z</time>
      </trkpt>
      <trkpt lat="49.79033" lon="2.36498">
        <ele>114.7</ele>
        <time>2022-07-13T07:31:36Z</time>
      </trkpt>
      <trkpt lat="49.79034" lon="2.36497">
        <ele>114.7</ele>
        <time>2022-07-13T07:31:37Z</time>
      </trkpt>
      <trkpt lat="49.79034" lon="2.36496">
        <ele>114.7</ele>
        <time>2022-07-13T07:31:39Z</time>
      </trkpt>
      <trkpt lat="49.79035" lon="2.36494">
        <ele>114.7</ele>
        <time>2022-07-13T07:31:40Z</time>
      </trkpt>
      <trkpt lat="49.79035" lon="2.36494">
        <ele>114.7</ele>
        <time>2022-07-13T07:31:41Z</time>
      </trkpt>
      <trkpt lat="49.79035" lon="2.36493">
        <ele>114.7</ele>
        <time>2022-07-13T07:31:42Z</time>
      </trkpt>
      <trkpt lat="49.79035" lon="2.36493">
        <ele>114.7</ele>
        <time>2022-07-13T07:31:43Z</time>
      </trkpt>
      <trkpt lat="49.79035" lon="2.36493">
        <ele>114.7</ele>
        <time>2022-07-13T07:31:44Z</time>
      </trkpt>
      <trkpt lat="49.79034" lon="2.36493">
        <ele>114.7</ele>
        <time>2022-07-13T07:31:46Z</time>
      </trkpt>
      <trkpt lat="49.79034" lon="2.36493">
        <ele>114.7</ele>
        <time>2022-07-13T07:31:47Z</time>
      </trkpt>
      <trkpt lat="49.79035" lon="2.36493">
        <ele>114.7</ele>
        <time>2022-07-13T07:31:48Z</time>
      </trkpt>
      <trkpt lat="49.79035" lon="2.36492">
        <ele>114.7</ele>
        <time>2022-07-13T07:31:49Z</time>
      </trkpt>
      <trkpt lat="49.79035" lon="2.36492">
        <ele>114.7</ele>
        <time>2022-07-13T07:31:50Z</time>
      </trkpt>
      <trkpt lat="49.79035" lon="2.36491">
        <ele>114.7</ele>
        <time>2022-07-13T07:31:51Z</time>
      </trkpt>
      <trkpt lat="49.79036" lon="2.36491">
        <ele>114.7</ele>
        <time>2022-07-13T07:31:52Z</time>
      </trkpt>
      <trkpt lat="49.79036" lon="2.36491">
        <ele>114.7</ele>
        <time>2022-07-13T07:31:53Z</time>
      </trkpt>
      <trkpt lat="49.79036" lon="2.3649">
        <ele>114.7</ele>
        <time>2022-07-13T07:31:55Z</time>
      </trkpt>
      <trkpt lat="49.79036" lon="2.3649">
        <ele>114.7</ele>
        <time>2022-07-13T07:31:56Z</time>
      </trkpt>
      <trkpt lat="49.79036" lon="2.36489">
        <ele>114.6</ele>
        <time>2022-07-13T07:31:58Z</time>
      </trkpt>
      <trkpt lat="49.79037" lon="2.36487">
        <ele>114.6</ele>
        <time>2022-07-13T07:31:59Z</time>
      </trkpt>
      <trkpt lat="49.79038" lon="2.36486">
        <ele>114.6</ele>
        <time>2022-07-13T07:32:00Z</time>
      </trkpt>
      <trkpt lat="49.79038" lon="2.36485">
        <ele>114.6</ele>
        <time>2022-07-13T07:32:01Z</time>
      </trkpt>
      <trkpt lat="49.79039" lon="2.36484">
        <ele>114.6</ele>
        <time>2022-07-13T07:32:02Z</time>
      </trkpt>
      <trkpt lat="49.79039" lon="2.36483">
        <ele>114.6</ele>
        <time>2022-07-13T07:32:04Z</time>
      </trkpt>
      <trkpt lat="49.79041" lon="2.36482">
        <ele>114.6</ele>
        <time>2022-07-13T07:32:05Z</time>
      </trkpt>
      <trkpt lat="49.79041" lon="2.3648">
        <ele>114.5</ele>
        <time>2022-07-13T07:32:06Z</time>
      </trkpt>
      <trkpt lat="49.79043" lon="2.36478">
        <ele>114.5</ele>
        <time>2022-07-13T07:32:07Z</time>
      </trkpt>
      <trkpt lat="49.79044" lon="2.36477">
        <ele>114.5</ele>
        <time>2022-07-13T07:32:08Z</time>
      </trkpt>
      <trkpt lat="49.79045" lon="2.36476">
        <ele>114.4</ele>
        <time>2022-07-13T07:32:09Z</time>
      </trkpt>
      <trkpt lat="49.79045" lon="2.36475">
        <ele>114.4</ele>
        <time>2022-07-13T07:32:11Z</time>
      </trkpt>
      <trkpt lat="49.79046" lon="2.36474">
        <ele>114.4</ele>
        <time>2022-07-13T07:32:12Z</time>
      </trkpt>
      <trkpt lat="49.79047" lon="2.36474">
        <ele>114.4</ele>
        <time>2022-07-13T07:32:13Z</time>
      </trkpt>
      <trkpt lat="49.79048" lon="2.36473">
        <ele>114.4</ele>
        <time>2022-07-13T07:32:14Z</time>
      </trkpt>
      <trkpt lat="49.79049" lon="2.36472">
        <ele>114.3</ele>
        <time>2022-07-13T07:32:15Z</time>
      </trkpt>
      <trkpt lat="49.79049" lon="2.36472">
        <ele>114.3</ele>
        <time>2022-07-13T07:32:16Z</time>
      </trkpt>
      <trkpt lat="49.79049" lon="2.36471">
        <ele>114.3</ele>
        <time>2022-07-13T07:32:17Z</time>
      </trkpt>
      <trkpt lat="49.7905" lon="2.3647">
        <ele>114.3</ele>
        <time>2022-07-13T07:32:19Z</time>
      </trkpt>
      <trkpt lat="49.7905" lon="2.36468">
        <ele>114.3</ele>
        <time>2022-07-13T07:32:20Z</time>
      </trkpt>
      <trkpt lat="49.79051" lon="2.36467">
        <ele>114.3</ele>
        <time>2022-07-13T07:32:21Z</time>
      </trkpt>
      <trkpt lat="49.79051" lon="2.36466">
        <ele>114.3</ele>
        <time>2022-07-13T07:32:22Z</time>
      </trkpt>
      <trkpt lat="49.79051" lon="2.36464">
        <ele>114.3</ele>
        <time>2022-07-13T07:32:23Z</time>
      </trkpt>
      <trkpt lat="49.79052" lon="2.36463">
        <ele>114.2</ele>
        <time>2022-07-13T07:32:24Z</time>
      </trkpt>
      <trkpt lat="49.79052" lon="2.36462">
        <ele>114.2</ele>
        <time>2022-07-13T07:32:25Z</time>
      </trkpt>
      <trkpt lat="49.79051" lon="2.36461">
        <ele>114.2</ele>
        <time>2022-07-13T07:32:27Z</time>
      </trkpt>
      <trkpt lat="49.79052" lon="2.36461">
        <ele>114.2</ele>
        <time>2022-07-13T07:32:28Z</time>
      </trkpt>
      <trkpt lat="49.79052" lon="2.3646">
        <ele>114.2</ele>
        <time>2022-07-13T07:32:29Z</time>
      </trkpt>
      <trkpt lat="49.79053" lon="2.36459">
        <ele>114.1</ele>
        <time>2022-07-13T07:32:30Z</time>
      </trkpt>
      <trkpt lat="49.79054" lon="2.36457">
        <ele>114.1</ele>
        <time>2022-07-13T07:32:32Z</time>
      </trkpt>
      <trkpt lat="49.79055" lon="2.36456">
        <ele>114.1</ele>
        <time>2022-07-13T07:32:33Z</time>
      </trkpt>
      <trkpt lat="49.79056" lon="2.36455">
        <ele>114.1</ele>
        <time>2022-07-13T07:32:34Z</time>
      </trkpt>
      <trkpt lat="49.79057" lon="2.36454">
        <ele>114.1</ele>
        <time>2022-07-13T07:32:35Z</time>
      </trkpt>
      <trkpt lat="49.79058" lon="2.36452">
        <ele>114</ele>
        <time>2022-07-13T07:32:36Z</time>
      </trkpt>
      <trkpt lat="49.79059" lon="2.36451">
        <ele>114</ele>
        <time>2022-07-13T07:32:38Z</time>
      </trkpt>
      <trkpt lat="49.7906" lon="2.3645">
        <ele>114</ele>
        <time>2022-07-13T07:32:39Z</time>
      </trkpt>
      <trkpt lat="49.79061" lon="2.36448">
        <ele>113.9</ele>
        <time>2022-07-13T07:32:40Z</time>
      </trkpt>
      <trkpt lat="49.79062" lon="2.36448">
        <ele>113.9</ele>
        <time>2022-07-13T07:32:41Z</time>
      </trkpt>
      <trkpt lat="49.79063" lon="2.36447">
        <ele>113.9</ele>
        <time>2022-07-13T07:32:42Z</time>
      </trkpt>
      <trkpt lat="49.79065" lon="2.36446">
        <ele>113.9</ele>
        <time>2022-07-13T07:32:43Z</time>
      </trkpt>
      <trkpt lat="49.79066" lon="2.36445">
        <ele>113.8</ele>
        <time>2022-07-13T07:32:45Z</time>
      </trkpt>
      <trkpt lat="49.79067" lon="2.36445">
        <ele>113.8</ele>
        <time>2022-07-13T07:32:46Z</time>
      </trkpt>
      <trkpt lat="49.79069" lon="2.36445">
        <ele>113.8</ele>
        <time>2022-07-13T07:32:47Z</time>
      </trkpt>
      <trkpt lat="49.79069" lon="2.36445">
        <ele>113.8</ele>
        <time>2022-07-13T07:32:48Z</time>
      </trkpt>
      <trkpt lat="49.7907" lon="2.36445">
        <ele>113.8</ele>
        <time>2022-07-13T07:32:49Z</time>
      </trkpt>
      <trkpt lat="49.79071" lon="2.36444">
        <ele>113.8</ele>
        <time>2022-07-13T07:32:50Z</time>
      </trkpt>
      <trkpt lat="49.79072" lon="2.36443">
        <ele>113.8</ele>
        <time>2022-07-13T07:32:51Z</time>
      </trkpt>
      <trkpt lat="49.79073" lon="2.36443">
        <ele>113.8</ele>
        <time>2022-07-13T07:32:52Z</time>
      </trkpt>
      <trkpt lat="49.79074" lon="2.36442">
        <ele>113.7</ele>
        <time>2022-07-13T07:32:54Z</time>
      </trkpt>
      <trkpt lat="49.79076" lon="2.36441">
        <ele>113.7</ele>
        <time>2022-07-13T07:32:55Z</time>
      </trkpt>
      <trkpt lat="49.79077" lon="2.3644">
        <ele>113.7</ele>
        <time>2022-07-13T07:32:56Z</time>
      </trkpt>
      <trkpt lat="49.79078" lon="2.3644">
        <ele>113.7</ele>
        <time>2022-07-13T07:32:57Z</time>
      </trkpt>
      <trkpt lat="49.79079" lon="2.36439">
        <ele>113.7</ele>
        <time>2022-07-13T07:32:58Z</time>
      </trkpt>
      <trkpt lat="49.79081" lon="2.36439">
        <ele>113.7</ele>
        <time>2022-07-13T07:32:59Z</time>
      </trkpt>
      <trkpt lat="49.79082" lon="2.36438">
        <ele>113.7</ele>
        <time>2022-07-13T07:33:00Z</time>
      </trkpt>
      <trkpt lat="49.79083" lon="2.36438">
        <ele>113.7</ele>
        <time>2022-07-13T07:33:01Z</time>
      </trkpt>
      <trkpt lat="49.79084" lon="2.36438">
        <ele>113.6</ele>
        <time>2022-07-13T07:33:02Z</time>
      </trkpt>
      <trkpt lat="49.79085" lon="2.36437">
        <ele>113.6</ele>
        <time>2022-07-13T07:33:04Z</time>
      </trkpt>
      <trkpt lat="49.79087" lon="2.36436">
        <ele>113.6</ele>
        <time>2022-07-13T07:33:05Z</time>
      </trkpt>
      <trkpt lat="49.79088" lon="2.36435">
        <ele>113.6</ele>
        <time>2022-07-13T07:33:06Z</time>
      </trkpt>
      <trkpt lat="49.79089" lon="2.36434">
        <ele>113.7</ele>
        <time>2022-07-13T07:33:07Z</time>
      </trkpt>
      <trkpt lat="49.7909" lon="2.36433">
        <ele>113.6</ele>
        <time>2022-07-13T07:33:09Z</time>
      </trkpt>
      <trkpt lat="49.79091" lon="2.36433">
        <ele>113.6</ele>
        <time>2022-07-13T07:33:10Z</time>
      </trkpt>
      <trkpt lat="49.79092" lon="2.36433">
        <ele>113.6</ele>
        <time>2022-07-13T07:33:11Z</time>
      </trkpt>
      <trkpt lat="49.79093" lon="2.36432">
        <ele>113.6</ele>
        <time>2022-07-13T07:33:12Z</time>
      </trkpt>
      <trkpt lat="49.79093" lon="2.36431">
        <ele>113.6</ele>
        <time>2022-07-13T07:33:13Z</time>
      </trkpt>
      <trkpt lat="49.79093" lon="2.3643">
        <ele>113.6</ele>
        <time>2022-07-13T07:33:14Z</time>
      </trkpt>
      <trkpt lat="49.79093" lon="2.36429">
        <ele>113.6</ele>
        <time>2022-07-13T07:33:15Z</time>
      </trkpt>
      <trkpt lat="49.79093" lon="2.36428">
        <ele>113.6</ele>
        <time>2022-07-13T07:33:16Z</time>
      </trkpt>
      <trkpt lat="49.79094" lon="2.36427">
        <ele>113.6</ele>
        <time>2022-07-13T07:33:18Z</time>
      </trkpt>
      <trkpt lat="49.79095" lon="2.36426">
        <ele>113.6</ele>
        <time>2022-07-13T07:33:19Z</time>
      </trkpt>
      <trkpt lat="49.79097" lon="2.36424">
        <ele>113.6</ele>
        <time>2022-07-13T07:33:20Z</time>
      </trkpt>
      <trkpt lat="49.79098" lon="2.36424">
        <ele>113.6</ele>
        <time>2022-07-13T07:33:21Z</time>
      </trkpt>
      <trkpt lat="49.79098" lon="2.36423">
        <ele>113.6</ele>
        <time>2022-07-13T07:33:22Z</time>
      </trkpt>
      <trkpt lat="49.79099" lon="2.36421">
        <ele>113.6</ele>
        <time>2022-07-13T07:33:23Z</time>
      </trkpt>
      <trkpt lat="49.791" lon="2.3642">
        <ele>113.6</ele>
        <time>2022-07-13T07:33:24Z</time>
      </trkpt>
      <trkpt lat="49.79101" lon="2.36418">
        <ele>113.6</ele>
        <time>2022-07-13T07:33:26Z</time>
      </trkpt>
      <trkpt lat="49.79102" lon="2.36418">
        <ele>113.6</ele>
        <time>2022-07-13T07:33:27Z</time>
      </trkpt>
      <trkpt lat="49.79102" lon="2.36416">
        <ele>113.6</ele>
        <time>2022-07-13T07:33:28Z</time>
      </trkpt>
      <trkpt lat="49.79103" lon="2.36415">
        <ele>113.6</ele>
        <time>2022-07-13T07:33:29Z</time>
      </trkpt>
      <trkpt lat="49.79104" lon="2.36414">
        <ele>113.6</ele>
        <time>2022-07-13T07:33:31Z</time>
      </trkpt>
      <trkpt lat="49.79106" lon="2.36413">
        <ele>113.7</ele>
        <time>2022-07-13T07:33:32Z</time>
      </trkpt>
      <trkpt lat="49.79107" lon="2.36412">
        <ele>113.7</ele>
        <time>2022-07-13T07:33:33Z</time>
      </trkpt>
      <trkpt lat="49.79108" lon="2.36411">
        <ele>113.7</ele>
        <time>2022-07-13T07:33:34Z</time>
      </trkpt>
      <trkpt lat="49.79109" lon="2.36411">
        <ele>113.7</ele>
        <time>2022-07-13T07:33:35Z</time>
      </trkpt>
      <trkpt lat="49.7911" lon="2.3641">
        <ele>113.7</ele>
        <time>2022-07-13T07:33:37Z</time>
      </trkpt>
      <trkpt lat="49.79111" lon="2.36409">
        <ele>113.7</ele>
        <time>2022-07-13T07:33:38Z</time>
      </trkpt>
      <trkpt lat="49.79111" lon="2.36408">
        <ele>113.7</ele>
        <time>2022-07-13T07:33:39Z</time>
      </trkpt>
      <trkpt lat="49.79112" lon="2.36408">
        <ele>113.7</ele>
        <time>2022-07-13T07:33:40Z</time>
      </trkpt>
      <trkpt lat="49.79113" lon="2.36407">
        <ele>113.7</ele>
        <time>2022-07-13T07:33:41Z</time>
      </trkpt>
      <trkpt lat="49.79114" lon="2.36407">
        <ele>113.7</ele>
        <time>2022-07-13T07:33:42Z</time>
      </trkpt>
      <trkpt lat="49.79116" lon="2.36405">
        <ele>113.8</ele>
        <time>2022-07-13T07:33:43Z</time>
      </trkpt>
      <trkpt lat="49.79117" lon="2.36405">
        <ele>113.8</ele>
        <time>2022-07-13T07:33:45Z</time>
      </trkpt>
      <trkpt lat="49.79118" lon="2.36404">
        <ele>113.8</ele>
        <time>2022-07-13T07:33:46Z</time>
      </trkpt>
      <trkpt lat="49.79119" lon="2.36404">
        <ele>113.8</ele>
        <time>2022-07-13T07:33:47Z</time>
      </trkpt>
      <trkpt lat="49.7912" lon="2.36404">
        <ele>113.8</ele>
        <time>2022-07-13T07:33:48Z</time>
      </trkpt>
      <trkpt lat="49.79121" lon="2.36403">
        <ele>113.8</ele>
        <time>2022-07-13T07:33:50Z</time>
      </trkpt>
      <trkpt lat="49.79123" lon="2.36402">
        <ele>113.8</ele>
        <time>2022-07-13T07:33:51Z</time>
      </trkpt>
      <trkpt lat="49.79124" lon="2.36402">
        <ele>113.9</ele>
        <time>2022-07-13T07:33:52Z</time>
      </trkpt>
      <trkpt lat="49.79124" lon="2.36402">
        <ele>113.9</ele>
        <time>2022-07-13T07:33:53Z</time>
      </trkpt>
      <trkpt lat="49.79125" lon="2.36402">
        <ele>113.9</ele>
        <time>2022-07-13T07:33:54Z</time>
      </trkpt>
      <trkpt lat="49.79126" lon="2.36401">
        <ele>113.9</ele>
        <time>2022-07-13T07:33:55Z</time>
      </trkpt>
      <trkpt lat="49.79127" lon="2.364">
        <ele>113.9</ele>
        <time>2022-07-13T07:33:56Z</time>
      </trkpt>
      <trkpt lat="49.79128" lon="2.36399">
        <ele>113.9</ele>
        <time>2022-07-13T07:33:57Z</time>
      </trkpt>
      <trkpt lat="49.79129" lon="2.36398">
        <ele>113.9</ele>
        <time>2022-07-13T07:33:59Z</time>
      </trkpt>
      <trkpt lat="49.7913" lon="2.36397">
        <ele>113.9</ele>
        <time>2022-07-13T07:34:00Z</time>
      </trkpt>
      <trkpt lat="49.79132" lon="2.36396">
        <ele>113.9</ele>
        <time>2022-07-13T07:34:01Z</time>
      </trkpt>
      <trkpt lat="49.79132" lon="2.36395">
        <ele>113.9</ele>
        <time>2022-07-13T07:34:02Z</time>
      </trkpt>
      <trkpt lat="49.79134" lon="2.36393">
        <ele>113.9</ele>
        <time>2022-07-13T07:34:03Z</time>
      </trkpt>
      <trkpt lat="49.79134" lon="2.36392">
        <ele>113.9</ele>
        <time>2022-07-13T07:34:04Z</time>
      </trkpt>
      <trkpt lat="49.79135" lon="2.36391">
        <ele>113.9</ele>
        <time>2022-07-13T07:34:05Z</time>
      </trkpt>
      <trkpt lat="49.79136" lon="2.36388">
        <ele>113.9</ele>
        <time>2022-07-13T07:34:06Z</time>
      </trkpt>
      <trkpt lat="49.79137" lon="2.36388">
        <ele>113.9</ele>
        <time>2022-07-13T07:34:08Z</time>
      </trkpt>
      <trkpt lat="49.79137" lon="2.36387">
        <ele>113.9</ele>
        <time>2022-07-13T07:34:09Z</time>
      </trkpt>
      <trkpt lat="49.79139" lon="2.36386">
        <ele>113.9</ele>
        <time>2022-07-13T07:34:10Z</time>
      </trkpt>
      <trkpt lat="49.7914" lon="2.36384">
        <ele>113.9</ele>
        <time>2022-07-13T07:34:11Z</time>
      </trkpt>
      <trkpt lat="49.79141" lon="2.36383">
        <ele>113.9</ele>
        <time>2022-07-13T07:34:12Z</time>
      </trkpt>
      <trkpt lat="49.79142" lon="2.36382">
        <ele>113.9</ele>
        <time>2022-07-13T07:34:13Z</time>
      </trkpt>
      <trkpt lat="49.79143" lon="2.36381">
        <ele>113.9</ele>
        <time>2022-07-13T07:34:14Z</time>
      </trkpt>
      <trkpt lat="49.79144" lon="2.36381">
        <ele>113.9</ele>
        <time>2022-07-13T07:34:15Z</time>
      </trkpt>
      <trkpt lat="49.79146" lon="2.36379">
        <ele>113.9</ele>
        <time>2022-07-13T07:34:16Z</time>
      </trkpt>
      <trkpt lat="49.79147" lon="2.36377">
        <ele>113.9</ele>
        <time>2022-07-13T07:34:18Z</time>
      </trkpt>
      <trkpt lat="49.79148" lon="2.36377">
        <ele>113.9</ele>
        <time>2022-07-13T07:34:19Z</time>
      </trkpt>
      <trkpt lat="49.79148" lon="2.36376">
        <ele>113.9</ele>
        <time>2022-07-13T07:34:20Z</time>
      </trkpt>
      <trkpt lat="49.7915" lon="2.36374">
        <ele>113.9</ele>
        <time>2022-07-13T07:34:21Z</time>
      </trkpt>
      <trkpt lat="49.79151" lon="2.36373">
        <ele>113.8</ele>
        <time>2022-07-13T07:34:22Z</time>
      </trkpt>
      <trkpt lat="49.79152" lon="2.36372">
        <ele>113.8</ele>
        <time>2022-07-13T07:34:23Z</time>
      </trkpt>
      <trkpt lat="49.79153" lon="2.36371">
        <ele>113.8</ele>
        <time>2022-07-13T07:34:24Z</time>
      </trkpt>
      <trkpt lat="49.79156" lon="2.36369">
        <ele>113.7</ele>
        <time>2022-07-13T07:34:26Z</time>
      </trkpt>
      <trkpt lat="49.79158" lon="2.36368">
        <ele>113.7</ele>
        <time>2022-07-13T07:34:27Z</time>
      </trkpt>
      <trkpt lat="49.79158" lon="2.36367">
        <ele>113.7</ele>
        <time>2022-07-13T07:34:28Z</time>
      </trkpt>
      <trkpt lat="49.79159" lon="2.36366">
        <ele>113.7</ele>
        <time>2022-07-13T07:34:29Z</time>
      </trkpt>
      <trkpt lat="49.7916" lon="2.36365">
        <ele>113.6</ele>
        <time>2022-07-13T07:34:30Z</time>
      </trkpt>
      <trkpt lat="49.79162" lon="2.36364">
        <ele>113.5</ele>
        <time>2022-07-13T07:34:31Z</time>
      </trkpt>
      <trkpt lat="49.79164" lon="2.36363">
        <ele>113.5</ele>
        <time>2022-07-13T07:34:33Z</time>
      </trkpt>
      <trkpt lat="49.79164" lon="2.36362">
        <ele>113.5</ele>
        <time>2022-07-13T07:34:34Z</time>
      </trkpt>
      <trkpt lat="49.79165" lon="2.36361">
        <ele>113.5</ele>
        <time>2022-07-13T07:34:35Z</time>
      </trkpt>
      <trkpt lat="49.79166" lon="2.36359">
        <ele>113.3</ele>
        <time>2022-07-13T07:34:36Z</time>
      </trkpt>
      <trkpt lat="49.79167" lon="2.36358">
        <ele>113.3</ele>
        <time>2022-07-13T07:34:37Z</time>
      </trkpt>
      <trkpt lat="49.79168" lon="2.36356">
        <ele>113.2</ele>
        <time>2022-07-13T07:34:38Z</time>
      </trkpt>
      <trkpt lat="49.79169" lon="2.36355">
        <ele>113.2</ele>
        <time>2022-07-13T07:34:39Z</time>
      </trkpt>
      <trkpt lat="49.79169" lon="2.36354">
        <ele>113.2</ele>
        <time>2022-07-13T07:34:40Z</time>
      </trkpt>
      <trkpt lat="49.79171" lon="2.36351">
        <ele>113.1</ele>
        <time>2022-07-13T07:34:41Z</time>
      </trkpt>
      <trkpt lat="49.79172" lon="2.3635">
        <ele>113.1</ele>
        <time>2022-07-13T07:34:43Z</time>
      </trkpt>
      <trkpt lat="49.79173" lon="2.36348">
        <ele>113.1</ele>
        <time>2022-07-13T07:34:44Z</time>
      </trkpt>
      <trkpt lat="49.79174" lon="2.36347">
        <ele>113.1</ele>
        <time>2022-07-13T07:34:45Z</time>
      </trkpt>
      <trkpt lat="49.79175" lon="2.36346">
        <ele>113</ele>
        <time>2022-07-13T07:34:46Z</time>
      </trkpt>
      <trkpt lat="49.79175" lon="2.36343">
        <ele>113</ele>
        <time>2022-07-13T07:34:48Z</time>
      </trkpt>
      <trkpt lat="49.79176" lon="2.36342">
        <ele>113</ele>
        <time>2022-07-13T07:34:49Z</time>
      </trkpt>
      <trkpt lat="49.79176" lon="2.3634">
        <ele>113</ele>
        <time>2022-07-13T07:34:50Z</time>
      </trkpt>
      <trkpt lat="49.79177" lon="2.36338">
        <ele>113.1</ele>
        <time>2022-07-13T07:34:51Z</time>
      </trkpt>
      <trkpt lat="49.79178" lon="2.36338">
        <ele>113.1</ele>
        <time>2022-07-13T07:34:52Z</time>
      </trkpt>
      <trkpt lat="49.79178" lon="2.36337">
        <ele>113.1</ele>
        <time>2022-07-13T07:34:53Z</time>
      </trkpt>
      <trkpt lat="49.79178" lon="2.36337">
        <ele>113.1</ele>
        <time>2022-07-13T07:34:54Z</time>
      </trkpt>
      <trkpt lat="49.79179" lon="2.36336">
        <ele>113.1</ele>
        <time>2022-07-13T07:34:55Z</time>
      </trkpt>
      <trkpt lat="49.79179" lon="2.36336">
        <ele>113.1</ele>
        <time>2022-07-13T07:34:56Z</time>
      </trkpt>
      <trkpt lat="49.79179" lon="2.36336">
        <ele>113.1</ele>
        <time>2022-07-13T07:34:57Z</time>
      </trkpt>
      <trkpt lat="49.7918" lon="2.36335">
        <ele>113</ele>
        <time>2022-07-13T07:34:58Z</time>
      </trkpt>
      <trkpt lat="49.79179" lon="2.36335">
        <ele>113.1</ele>
        <time>2022-07-13T07:34:59Z</time>
      </trkpt>
      <trkpt lat="49.79179" lon="2.36336">
        <ele>113.1</ele>
        <time>2022-07-13T07:35:00Z</time>
      </trkpt>
      <trkpt lat="49.79179" lon="2.36336">
        <ele>113.1</ele>
        <time>2022-07-13T07:35:01Z</time>
      </trkpt>
      <trkpt lat="49.79179" lon="2.36336">
        <ele>113.1</ele>
        <time>2022-07-13T07:35:03Z</time>
      </trkpt>
      <trkpt lat="49.79179" lon="2.36336">
        <ele>113.1</ele>
        <time>2022-07-13T07:35:05Z</time>
      </trkpt>
      <trkpt lat="49.79179" lon="2.36337">
        <ele>113.1</ele>
        <time>2022-07-13T07:35:06Z</time>
      </trkpt>
      <trkpt lat="49.79178" lon="2.36337">
        <ele>113.1</ele>
        <time>2022-07-13T07:35:07Z</time>
      </trkpt>
      <trkpt lat="49.79179" lon="2.36338">
        <ele>113.1</ele>
        <time>2022-07-13T07:35:08Z</time>
      </trkpt>
      <trkpt lat="49.79179" lon="2.36338">
        <ele>113.1</ele>
        <time>2022-07-13T07:35:09Z</time>
      </trkpt>
      <trkpt lat="49.79179" lon="2.36337">
        <ele>113.1</ele>
        <time>2022-07-13T07:35:10Z</time>
      </trkpt>
      <trkpt lat="49.7918" lon="2.36337">
        <ele>113</ele>
        <time>2022-07-13T07:35:12Z</time>
      </trkpt>
      <trkpt lat="49.7918" lon="2.36337">
        <ele>113</ele>
        <time>2022-07-13T07:35:13Z</time>
      </trkpt>
      <trkpt lat="49.7918" lon="2.36336">
        <ele>113</ele>
        <time>2022-07-13T07:35:14Z</time>
      </trkpt>
      <trkpt lat="49.7918" lon="2.36334">
        <ele>113.1</ele>
        <time>2022-07-13T07:35:16Z</time>
      </trkpt>
      <trkpt lat="49.7918" lon="2.36333">
        <ele>113.1</ele>
        <time>2022-07-13T07:35:17Z</time>
      </trkpt>
      <trkpt lat="49.7918" lon="2.3633">
        <ele>113.2</ele>
        <time>2022-07-13T07:35:18Z</time>
      </trkpt>
      <trkpt lat="49.7918" lon="2.36328">
        <ele>113.2</ele>
        <time>2022-07-13T07:35:19Z</time>
      </trkpt>
      <trkpt lat="49.7918" lon="2.36327">
        <ele>113.2</ele>
        <time>2022-07-13T07:35:20Z</time>
      </trkpt>
      <trkpt lat="49.7918" lon="2.36325">
        <ele>113.2</ele>
        <time>2022-07-13T07:35:22Z</time>
      </trkpt>
      <trkpt lat="49.7918" lon="2.36322">
        <ele>113.2</ele>
        <time>2022-07-13T07:35:23Z</time>
      </trkpt>
      <trkpt lat="49.79181" lon="2.36319">
        <ele>113.2</ele>
        <time>2022-07-13T07:35:24Z</time>
      </trkpt>
      <trkpt lat="49.79182" lon="2.36317">
        <ele>113.2</ele>
        <time>2022-07-13T07:35:25Z</time>
      </trkpt>
      <trkpt lat="49.79182" lon="2.36316">
        <ele>113.2</ele>
        <time>2022-07-13T07:35:26Z</time>
      </trkpt>
      <trkpt lat="49.79184" lon="2.36312">
        <ele>113.1</ele>
        <time>2022-07-13T07:35:27Z</time>
      </trkpt>
      <trkpt lat="49.79185" lon="2.36311">
        <ele>113.1</ele>
        <time>2022-07-13T07:35:28Z</time>
      </trkpt>
      <trkpt lat="49.79186" lon="2.36309">
        <ele>113.1</ele>
        <time>2022-07-13T07:35:30Z</time>
      </trkpt>
      <trkpt lat="49.79187" lon="2.36307">
        <ele>113.1</ele>
        <time>2022-07-13T07:35:31Z</time>
      </trkpt>
      <trkpt lat="49.79188" lon="2.36305">
        <ele>113</ele>
        <time>2022-07-13T07:35:32Z</time>
      </trkpt>
      <trkpt lat="49.79189" lon="2.36302">
        <ele>113</ele>
        <time>2022-07-13T07:35:33Z</time>
      </trkpt>
      <trkpt lat="49.7919" lon="2.36301">
        <ele>113</ele>
        <time>2022-07-13T07:35:34Z</time>
      </trkpt>
      <trkpt lat="49.7919" lon="2.363">
        <ele>112.9</ele>
        <time>2022-07-13T07:35:35Z</time>
      </trkpt>
      <trkpt lat="49.79191" lon="2.36298">
        <ele>112.9</ele>
        <time>2022-07-13T07:35:36Z</time>
      </trkpt>
      <trkpt lat="49.79192" lon="2.36297">
        <ele>112.9</ele>
        <time>2022-07-13T07:35:37Z</time>
      </trkpt>
      <trkpt lat="49.79192" lon="2.36295">
        <ele>112.7</ele>
        <time>2022-07-13T07:35:38Z</time>
      </trkpt>
      <trkpt lat="49.79193" lon="2.36294">
        <ele>112.7</ele>
        <time>2022-07-13T07:35:39Z</time>
      </trkpt>
      <trkpt lat="49.79194" lon="2.36291">
        <ele>112.6</ele>
        <time>2022-07-13T07:35:41Z</time>
      </trkpt>
      <trkpt lat="49.79195" lon="2.3629">
        <ele>112.6</ele>
        <time>2022-07-13T07:35:42Z</time>
      </trkpt>
      <trkpt lat="49.79195" lon="2.36289">
        <ele>112.6</ele>
        <time>2022-07-13T07:35:43Z</time>
      </trkpt>
      <trkpt lat="49.79196" lon="2.36287">
        <ele>112.4</ele>
        <time>2022-07-13T07:35:44Z</time>
      </trkpt>
      <trkpt lat="49.79197" lon="2.36287">
        <ele>112.4</ele>
        <time>2022-07-13T07:35:45Z</time>
      </trkpt>
      <trkpt lat="49.79198" lon="2.36286">
        <ele>112.4</ele>
        <time>2022-07-13T07:35:46Z</time>
      </trkpt>
      <trkpt lat="49.79199" lon="2.36285">
        <ele>112.3</ele>
        <time>2022-07-13T07:35:47Z</time>
      </trkpt>
      <trkpt lat="49.792" lon="2.36284">
        <ele>112.3</ele>
        <time>2022-07-13T07:35:49Z</time>
      </trkpt>
      <trkpt lat="49.79201" lon="2.36283">
        <ele>112.1</ele>
        <time>2022-07-13T07:35:50Z</time>
      </trkpt>
      <trkpt lat="49.79203" lon="2.36281">
        <ele>112</ele>
        <time>2022-07-13T07:35:51Z</time>
      </trkpt>
      <trkpt lat="49.79203" lon="2.3628">
        <ele>112</ele>
        <time>2022-07-13T07:35:52Z</time>
      </trkpt>
      <trkpt lat="49.79204" lon="2.36279">
        <ele>112</ele>
        <time>2022-07-13T07:35:53Z</time>
      </trkpt>
      <trkpt lat="49.79206" lon="2.36277">
        <ele>111.7</ele>
        <time>2022-07-13T07:35:54Z</time>
      </trkpt>
      <trkpt lat="49.79206" lon="2.36276">
        <ele>111.7</ele>
        <time>2022-07-13T07:35:55Z</time>
      </trkpt>
      <trkpt lat="49.79207" lon="2.36275">
        <ele>111.7</ele>
        <time>2022-07-13T07:35:56Z</time>
      </trkpt>
      <trkpt lat="49.79208" lon="2.36273">
        <ele>111.3</ele>
        <time>2022-07-13T07:35:58Z</time>
      </trkpt>
      <trkpt lat="49.79209" lon="2.36272">
        <ele>111.3</ele>
        <time>2022-07-13T07:35:59Z</time>
      </trkpt>
      <trkpt lat="49.79211" lon="2.36269">
        <ele>111</ele>
        <time>2022-07-13T07:36:00Z</time>
      </trkpt>
      <trkpt lat="49.79212" lon="2.36268">
        <ele>111</ele>
        <time>2022-07-13T07:36:01Z</time>
      </trkpt>
      <trkpt lat="49.79215" lon="2.36265">
        <ele>110.7</ele>
        <time>2022-07-13T07:36:02Z</time>
      </trkpt>
      <trkpt lat="49.79216" lon="2.36264">
        <ele>110.5</ele>
        <time>2022-07-13T07:36:03Z</time>
      </trkpt>
      <trkpt lat="49.79216" lon="2.36263">
        <ele>110.5</ele>
        <time>2022-07-13T07:36:05Z</time>
      </trkpt>
      <trkpt lat="49.79217" lon="2.36262">
        <ele>110.5</ele>
        <time>2022-07-13T07:36:06Z</time>
      </trkpt>
      <trkpt lat="49.79218" lon="2.36261">
        <ele>110.2</ele>
        <time>2022-07-13T07:36:07Z</time>
      </trkpt>
      <trkpt lat="49.7922" lon="2.36259">
        <ele>110.2</ele>
        <time>2022-07-13T07:36:08Z</time>
      </trkpt>
      <trkpt lat="49.7922" lon="2.36258">
        <ele>110.2</ele>
        <time>2022-07-13T07:36:09Z</time>
      </trkpt>
      <trkpt lat="49.7922" lon="2.36257">
        <ele>110.1</ele>
        <time>2022-07-13T07:36:10Z</time>
      </trkpt>
      <trkpt lat="49.7922" lon="2.36256">
        <ele>110.1</ele>
        <time>2022-07-13T07:36:11Z</time>
      </trkpt>
      <trkpt lat="49.79221" lon="2.36256">
        <ele>109.9</ele>
        <time>2022-07-13T07:36:12Z</time>
      </trkpt>
      <trkpt lat="49.79222" lon="2.36254">
        <ele>109.9</ele>
        <time>2022-07-13T07:36:13Z</time>
      </trkpt>
      <trkpt lat="49.79222" lon="2.36253">
        <ele>109.9</ele>
        <time>2022-07-13T07:36:14Z</time>
      </trkpt>
      <trkpt lat="49.79222" lon="2.36252">
        <ele>109.9</ele>
        <time>2022-07-13T07:36:15Z</time>
      </trkpt>
      <trkpt lat="49.79222" lon="2.36251">
        <ele>109.9</ele>
        <time>2022-07-13T07:36:16Z</time>
      </trkpt>
      <trkpt lat="49.79222" lon="2.3625">
        <ele>109.9</ele>
        <time>2022-07-13T07:36:17Z</time>
      </trkpt>
      <trkpt lat="49.79222" lon="2.3625">
        <ele>109.9</ele>
        <time>2022-07-13T07:36:18Z</time>
      </trkpt>
      <trkpt lat="49.79222" lon="2.3625">
        <ele>109.9</ele>
        <time>2022-07-13T07:36:19Z</time>
      </trkpt>
      <trkpt lat="49.79222" lon="2.3625">
        <ele>109.9</ele>
        <time>2022-07-13T07:36:20Z</time>
      </trkpt>
      <trkpt lat="49.79222" lon="2.3625">
        <ele>109.9</ele>
        <time>2022-07-13T07:36:21Z</time>
      </trkpt>
      <trkpt lat="49.79222" lon="2.3625">
        <ele>109.9</ele>
        <time>2022-07-13T07:36:22Z</time>
      </trkpt>
      <trkpt lat="49.79222" lon="2.3625">
        <ele>109.9</ele>
        <time>2022-07-13T07:36:23Z</time>
      </trkpt>
      <trkpt lat="49.79222" lon="2.3625">
        <ele>109.9</ele>
        <time>2022-07-13T07:36:24Z</time>
      </trkpt>
      <trkpt lat="49.79222" lon="2.3625">
        <ele>109.9</ele>
        <time>2022-07-13T07:36:25Z</time>
      </trkpt>
      <trkpt lat="49.79222" lon="2.3625">
        <ele>109.9</ele>
        <time>2022-07-13T07:36:26Z</time>
      </trkpt>
      <trkpt lat="49.79222" lon="2.3625">
        <ele>109.9</ele>
        <time>2022-07-13T07:36:27Z</time>
      </trkpt>
      <trkpt lat="49.79223" lon="2.3625">
        <ele>109.9</ele>
        <time>2022-07-13T07:36:28Z</time>
      </trkpt>
      <trkpt lat="49.79223" lon="2.3625">
        <ele>109.9</ele>
        <time>2022-07-13T07:36:29Z</time>
      </trkpt>
      <trkpt lat="49.79223" lon="2.3625">
        <ele>109.9</ele>
        <time>2022-07-13T07:36:30Z</time>
      </trkpt>
      <trkpt lat="49.79223" lon="2.3625">
        <ele>109.9</ele>
        <time>2022-07-13T07:36:31Z</time>
      </trkpt>
      <trkpt lat="49.79223" lon="2.3625">
        <ele>109.9</ele>
        <time>2022-07-13T07:36:32Z</time>
      </trkpt>
      <trkpt lat="49.79223" lon="2.3625">
        <ele>109.9</ele>
        <time>2022-07-13T07:36:33Z</time>
      </trkpt>
      <trkpt lat="49.79223" lon="2.3625">
        <ele>109.9</ele>
        <time>2022-07-13T07:36:34Z</time>
      </trkpt>
      <trkpt lat="49.79223" lon="2.3625">
        <ele>109.9</ele>
        <time>2022-07-13T07:36:35Z</time>
      </trkpt>
      <trkpt lat="49.79223" lon="2.3625">
        <ele>109.9</ele>
        <time>2022-07-13T07:36:36Z</time>
      </trkpt>
      <trkpt lat="49.79223" lon="2.3625">
        <ele>109.9</ele>
        <time>2022-07-13T07:36:37Z</time>
      </trkpt>
      <trkpt lat="49.79223" lon="2.3625">
        <ele>109.9</ele>
        <time>2022-07-13T07:36:38Z</time>
      </trkpt>
      <trkpt lat="49.79223" lon="2.3625">
        <ele>109.9</ele>
        <time>2022-07-13T07:36:39Z</time>
      </trkpt>
      <trkpt lat="49.79223" lon="2.3625">
        <ele>109.9</ele>
        <time>2022-07-13T07:36:40Z</time>
      </trkpt>
      <trkpt lat="49.79223" lon="2.3625">
        <ele>109.9</ele>
        <time>2022-07-13T07:36:41Z</time>
      </trkpt>
      <trkpt lat="49.79223" lon="2.3625">
        <ele>109.9</ele>
        <time>2022-07-13T07:36:42Z</time>
      </trkpt>
      <trkpt lat="49.79223" lon="2.3625">
        <ele>109.9</ele>
        <time>2022-07-13T07:36:43Z</time>
      </trkpt>
      <trkpt lat="49.79223" lon="2.3625">
        <ele>109.9</ele>
        <time>2022-07-13T07:36:44Z</time>
      </trkpt>
      <trkpt lat="49.79223" lon="2.3625">
        <ele>109.9</ele>
        <time>2022-07-13T07:36:45Z</time>
      </trkpt>
      <trkpt lat="49.79223" lon="2.3625">
        <ele>109.9</ele>
        <time>2022-07-13T07:36:46Z</time>
      </trkpt>
      <trkpt lat="49.79223" lon="2.36247">
        <ele>109.8</ele>
        <time>2022-07-13T07:36:47Z</time>
      </trkpt>
      <trkpt lat="49.79224" lon="2.36246">
        <ele>109.8</ele>
        <time>2022-07-13T07:36:49Z</time>
      </trkpt>
      <trkpt lat="49.79224" lon="2.36246">
        <ele>109.7</ele>
        <time>2022-07-13T07:36:50Z</time>
      </trkpt>
      <trkpt lat="49.79225" lon="2.36245">
        <ele>109.7</ele>
        <time>2022-07-13T07:36:51Z</time>
      </trkpt>
      <trkpt lat="49.79226" lon="2.36242">
        <ele>109.6</ele>
        <time>2022-07-13T07:36:52Z</time>
      </trkpt>
      <trkpt lat="49.79227" lon="2.36241">
        <ele>109.6</ele>
        <time>2022-07-13T07:36:53Z</time>
      </trkpt>
      <trkpt lat="49.79228" lon="2.3624">
        <ele>109.7</ele>
        <time>2022-07-13T07:36:54Z</time>
      </trkpt>
      <trkpt lat="49.79229" lon="2.36239">
        <ele>109.7</ele>
        <time>2022-07-13T07:36:56Z</time>
      </trkpt>
      <trkpt lat="49.79229" lon="2.36237">
        <ele>109.5</ele>
        <time>2022-07-13T07:36:57Z</time>
      </trkpt>
      <trkpt lat="49.7923" lon="2.36235">
        <ele>109.7</ele>
        <time>2022-07-13T07:36:58Z</time>
      </trkpt>
      <trkpt lat="49.79231" lon="2.36233">
        <ele>109.7</ele>
        <time>2022-07-13T07:36:59Z</time>
      </trkpt>
      <trkpt lat="49.79232" lon="2.36231">
        <ele>109.8</ele>
        <time>2022-07-13T07:37:00Z</time>
      </trkpt>
      <trkpt lat="49.79232" lon="2.3623">
        <ele>109.7</ele>
        <time>2022-07-13T07:37:01Z</time>
      </trkpt>
      <trkpt lat="49.79233" lon="2.36228">
        <ele>109.7</ele>
        <time>2022-07-13T07:37:02Z</time>
      </trkpt>
      <trkpt lat="49.79234" lon="2.36225">
        <ele>109.7</ele>
        <time>2022-07-13T07:37:03Z</time>
      </trkpt>
      <trkpt lat="49.79234" lon="2.36224">
        <ele>109.7</ele>
        <time>2022-07-13T07:37:04Z</time>
      </trkpt>
      <trkpt lat="49.79234" lon="2.36222">
        <ele>109.7</ele>
        <time>2022-07-13T07:37:05Z</time>
      </trkpt>
      <trkpt lat="49.79234" lon="2.3622">
        <ele>109.7</ele>
        <time>2022-07-13T07:37:06Z</time>
      </trkpt>
      <trkpt lat="49.79235" lon="2.36218">
        <ele>109.6</ele>
        <time>2022-07-13T07:37:08Z</time>
      </trkpt>
      <trkpt lat="49.79235" lon="2.36215">
        <ele>109.6</ele>
        <time>2022-07-13T07:37:09Z</time>
      </trkpt>
      <trkpt lat="49.79235" lon="2.36214">
        <ele>109.6</ele>
        <time>2022-07-13T07:37:10Z</time>
      </trkpt>
      <trkpt lat="49.79235" lon="2.36212">
        <ele>109.6</ele>
        <time>2022-07-13T07:37:11Z</time>
      </trkpt>
      <trkpt lat="49.79235" lon="2.36211">
        <ele>109.6</ele>
        <time>2022-07-13T07:37:12Z</time>
      </trkpt>
      <trkpt lat="49.79235" lon="2.36208">
        <ele>109.6</ele>
        <time>2022-07-13T07:37:13Z</time>
      </trkpt>
      <trkpt lat="49.79236" lon="2.36205">
        <ele>109.6</ele>
        <time>2022-07-13T07:37:15Z</time>
      </trkpt>
      <trkpt lat="49.79236" lon="2.36204">
        <ele>109.6</ele>
        <time>2022-07-13T07:37:16Z</time>
      </trkpt>
      <trkpt lat="49.79237" lon="2.36202">
        <ele>109.6</ele>
        <time>2022-07-13T07:37:17Z</time>
      </trkpt>
      <trkpt lat="49.79237" lon="2.36199">
        <ele>109.6</ele>
        <time>2022-07-13T07:37:18Z</time>
      </trkpt>
      <trkpt lat="49.79237" lon="2.36198">
        <ele>109.6</ele>
        <time>2022-07-13T07:37:19Z</time>
      </trkpt>
      <trkpt lat="49.79237" lon="2.36196">
        <ele>109.6</ele>
        <time>2022-07-13T07:37:20Z</time>
      </trkpt>
      <trkpt lat="49.79238" lon="2.36195">
        <ele>109.6</ele>
        <time>2022-07-13T07:37:21Z</time>
      </trkpt>
      <trkpt lat="49.79238" lon="2.36193">
        <ele>109.6</ele>
        <time>2022-07-13T07:37:22Z</time>
      </trkpt>
      <trkpt lat="49.79238" lon="2.3619">
        <ele>109.6</ele>
        <time>2022-07-13T07:37:23Z</time>
      </trkpt>
      <trkpt lat="49.79239" lon="2.36188">
        <ele>109.6</ele>
        <time>2022-07-13T07:37:24Z</time>
      </trkpt>
      <trkpt lat="49.79239" lon="2.36187">
        <ele>109.6</ele>
        <time>2022-07-13T07:37:25Z</time>
      </trkpt>
      <trkpt lat="49.79239" lon="2.36185">
        <ele>109.6</ele>
        <time>2022-07-13T07:37:26Z</time>
      </trkpt>
      <trkpt lat="49.7924" lon="2.36183">
        <ele>109.6</ele>
        <time>2022-07-13T07:37:27Z</time>
      </trkpt>
      <trkpt lat="49.7924" lon="2.3618">
        <ele>109.6</ele>
        <time>2022-07-13T07:37:29Z</time>
      </trkpt>
      <trkpt lat="49.79241" lon="2.36179">
        <ele>109.6</ele>
        <time>2022-07-13T07:37:30Z</time>
      </trkpt>
      <trkpt lat="49.79241" lon="2.36177">
        <ele>109.6</ele>
        <time>2022-07-13T07:37:31Z</time>
      </trkpt>
      <trkpt lat="49.79242" lon="2.36174">
        <ele>109.6</ele>
        <time>2022-07-13T07:37:32Z</time>
      </trkpt>
      <trkpt lat="49.79242" lon="2.36172">
        <ele>109.6</ele>
        <time>2022-07-13T07:37:33Z</time>
      </trkpt>
      <trkpt lat="49.79243" lon="2.3617">
        <ele>109.6</ele>
        <time>2022-07-13T07:37:34Z</time>
      </trkpt>
      <trkpt lat="49.79243" lon="2.36168">
        <ele>109.6</ele>
        <time>2022-07-13T07:37:35Z</time>
      </trkpt>
      <trkpt lat="49.79244" lon="2.36165">
        <ele>109.6</ele>
        <time>2022-07-13T07:37:37Z</time>
      </trkpt>
      <trkpt lat="49.79245" lon="2.36163">
        <ele>109.6</ele>
        <time>2022-07-13T07:37:38Z</time>
      </trkpt>
      <trkpt lat="49.79245" lon="2.36161">
        <ele>109.6</ele>
        <time>2022-07-13T07:37:39Z</time>
      </trkpt>
      <trkpt lat="49.79246" lon="2.36157">
        <ele>109.6</ele>
        <time>2022-07-13T07:37:40Z</time>
      </trkpt>
      <trkpt lat="49.79247" lon="2.36156">
        <ele>109.6</ele>
        <time>2022-07-13T07:37:41Z</time>
      </trkpt>
      <trkpt lat="49.79247" lon="2.36154">
        <ele>109.6</ele>
        <time>2022-07-13T07:37:42Z</time>
      </trkpt>
      <trkpt lat="49.79248" lon="2.36152">
        <ele>109.6</ele>
        <time>2022-07-13T07:37:43Z</time>
      </trkpt>
      <trkpt lat="49.79248" lon="2.3615">
        <ele>109.6</ele>
        <time>2022-07-13T07:37:44Z</time>
      </trkpt>
      <trkpt lat="49.79249" lon="2.36148">
        <ele>109.6</ele>
        <time>2022-07-13T07:37:45Z</time>
      </trkpt>
      <trkpt lat="49.7925" lon="2.36145">
        <ele>109.6</ele>
        <time>2022-07-13T07:37:46Z</time>
      </trkpt>
      <trkpt lat="49.7925" lon="2.36143">
        <ele>109.6</ele>
        <time>2022-07-13T07:37:47Z</time>
      </trkpt>
      <trkpt lat="49.79251" lon="2.36142">
        <ele>109.6</ele>
        <time>2022-07-13T07:37:48Z</time>
      </trkpt>
      <trkpt lat="49.79251" lon="2.3614">
        <ele>109.6</ele>
        <time>2022-07-13T07:37:49Z</time>
      </trkpt>
      <trkpt lat="49.79252" lon="2.36138">
        <ele>109.6</ele>
        <time>2022-07-13T07:37:50Z</time>
      </trkpt>
      <trkpt lat="49.79253" lon="2.36134">
        <ele>109.6</ele>
        <time>2022-07-13T07:37:51Z</time>
      </trkpt>
      <trkpt lat="49.79254" lon="2.36133">
        <ele>109.6</ele>
        <time>2022-07-13T07:37:53Z</time>
      </trkpt>
      <trkpt lat="49.79254" lon="2.36131">
        <ele>109.6</ele>
        <time>2022-07-13T07:37:54Z</time>
      </trkpt>
      <trkpt lat="49.79254" lon="2.3613">
        <ele>109.6</ele>
        <time>2022-07-13T07:37:55Z</time>
      </trkpt>
      <trkpt lat="49.79255" lon="2.36128">
        <ele>109.6</ele>
        <time>2022-07-13T07:37:56Z</time>
      </trkpt>
      <trkpt lat="49.79255" lon="2.36126">
        <ele>109.6</ele>
        <time>2022-07-13T07:37:57Z</time>
      </trkpt>
      <trkpt lat="49.79255" lon="2.36125">
        <ele>109.6</ele>
        <time>2022-07-13T07:37:58Z</time>
      </trkpt>
      <trkpt lat="49.79256" lon="2.36124">
        <ele>109.6</ele>
        <time>2022-07-13T07:37:59Z</time>
      </trkpt>
      <trkpt lat="49.79256" lon="2.36122">
        <ele>109.6</ele>
        <time>2022-07-13T07:38:00Z</time>
      </trkpt>
      <trkpt lat="49.79256" lon="2.3612">
        <ele>109.6</ele>
        <time>2022-07-13T07:38:01Z</time>
      </trkpt>
      <trkpt lat="49.79256" lon="2.36119">
        <ele>109.6</ele>
        <time>2022-07-13T07:38:02Z</time>
      </trkpt>
      <trkpt lat="49.79256" lon="2.36117">
        <ele>109.6</ele>
        <time>2022-07-13T07:38:03Z</time>
      </trkpt>
      <trkpt lat="49.79256" lon="2.36115">
        <ele>109.6</ele>
        <time>2022-07-13T07:38:05Z</time>
      </trkpt>
      <trkpt lat="49.79256" lon="2.36112">
        <ele>109.6</ele>
        <time>2022-07-13T07:38:06Z</time>
      </trkpt>
      <trkpt lat="49.79256" lon="2.3611">
        <ele>109.6</ele>
        <time>2022-07-13T07:38:07Z</time>
      </trkpt>
      <trkpt lat="49.79256" lon="2.36109">
        <ele>109.6</ele>
        <time>2022-07-13T07:38:08Z</time>
      </trkpt>
      <trkpt lat="49.79255" lon="2.36107">
        <ele>109.6</ele>
        <time>2022-07-13T07:38:09Z</time>
      </trkpt>
      <trkpt lat="49.79255" lon="2.36105">
        <ele>109.6</ele>
        <time>2022-07-13T07:38:10Z</time>
      </trkpt>
      <trkpt lat="49.79255" lon="2.36102">
        <ele>109.6</ele>
        <time>2022-07-13T07:38:12Z</time>
      </trkpt>
      <trkpt lat="49.79255" lon="2.361">
        <ele>109.6</ele>
        <time>2022-07-13T07:38:13Z</time>
      </trkpt>
      <trkpt lat="49.79255" lon="2.36099">
        <ele>109.6</ele>
        <time>2022-07-13T07:38:14Z</time>
      </trkpt>
      <trkpt lat="49.79255" lon="2.36097">
        <ele>109.6</ele>
        <time>2022-07-13T07:38:15Z</time>
      </trkpt>
      <trkpt lat="49.79256" lon="2.36094">
        <ele>109.5</ele>
        <time>2022-07-13T07:38:16Z</time>
      </trkpt>
      <trkpt lat="49.79256" lon="2.36092">
        <ele>109.5</ele>
        <time>2022-07-13T07:38:17Z</time>
      </trkpt>
      <trkpt lat="49.79256" lon="2.36091">
        <ele>109.5</ele>
        <time>2022-07-13T07:38:18Z</time>
      </trkpt>
      <trkpt lat="49.79256" lon="2.36089">
        <ele>109.5</ele>
        <time>2022-07-13T07:38:19Z</time>
      </trkpt>
      <trkpt lat="49.79257" lon="2.36087">
        <ele>109.5</ele>
        <time>2022-07-13T07:38:21Z</time>
      </trkpt>
      <trkpt lat="49.79257" lon="2.36084">
        <ele>109.5</ele>
        <time>2022-07-13T07:38:22Z</time>
      </trkpt>
      <trkpt lat="49.79258" lon="2.36082">
        <ele>109.5</ele>
        <time>2022-07-13T07:38:23Z</time>
      </trkpt>
      <trkpt lat="49.79259" lon="2.36079">
        <ele>109.5</ele>
        <time>2022-07-13T07:38:24Z</time>
      </trkpt>
      <trkpt lat="49.79259" lon="2.36078">
        <ele>109.5</ele>
        <time>2022-07-13T07:38:25Z</time>
      </trkpt>
      <trkpt lat="49.79259" lon="2.36076">
        <ele>109.5</ele>
        <time>2022-07-13T07:38:26Z</time>
      </trkpt>
      <trkpt lat="49.7926" lon="2.36075">
        <ele>109.5</ele>
        <time>2022-07-13T07:38:27Z</time>
      </trkpt>
      <trkpt lat="49.7926" lon="2.36074">
        <ele>109.5</ele>
        <time>2022-07-13T07:38:28Z</time>
      </trkpt>
      <trkpt lat="49.7926" lon="2.36072">
        <ele>109.4</ele>
        <time>2022-07-13T07:38:29Z</time>
      </trkpt>
      <trkpt lat="49.7926" lon="2.3607">
        <ele>109.4</ele>
        <time>2022-07-13T07:38:31Z</time>
      </trkpt>
      <trkpt lat="49.79261" lon="2.36068">
        <ele>109.4</ele>
        <time>2022-07-13T07:38:32Z</time>
      </trkpt>
      <trkpt lat="49.79261" lon="2.36066">
        <ele>109.4</ele>
        <time>2022-07-13T07:38:33Z</time>
      </trkpt>
      <trkpt lat="49.79261" lon="2.36064">
        <ele>109.4</ele>
        <time>2022-07-13T07:38:34Z</time>
      </trkpt>
      <trkpt lat="49.79262" lon="2.36062">
        <ele>109.4</ele>
        <time>2022-07-13T07:38:35Z</time>
      </trkpt>
      <trkpt lat="49.79262" lon="2.36059">
        <ele>109.4</ele>
        <time>2022-07-13T07:38:36Z</time>
      </trkpt>
      <trkpt lat="49.79262" lon="2.36057">
        <ele>109.4</ele>
        <time>2022-07-13T07:38:37Z</time>
      </trkpt>
      <trkpt lat="49.79262" lon="2.36056">
        <ele>109.4</ele>
        <time>2022-07-13T07:38:38Z</time>
      </trkpt>
      <trkpt lat="49.79262" lon="2.36054">
        <ele>109.4</ele>
        <time>2022-07-13T07:38:40Z</time>
      </trkpt>
      <trkpt lat="49.79263" lon="2.36052">
        <ele>109.4</ele>
        <time>2022-07-13T07:38:41Z</time>
      </trkpt>
      <trkpt lat="49.79263" lon="2.36049">
        <ele>109.4</ele>
        <time>2022-07-13T07:38:42Z</time>
      </trkpt>
      <trkpt lat="49.79263" lon="2.36048">
        <ele>109.4</ele>
        <time>2022-07-13T07:38:43Z</time>
      </trkpt>
      <trkpt lat="49.79263" lon="2.36044">
        <ele>109.4</ele>
        <time>2022-07-13T07:38:44Z</time>
      </trkpt>
      <trkpt lat="49.79263" lon="2.36043">
        <ele>109.3</ele>
        <time>2022-07-13T07:38:45Z</time>
      </trkpt>
      <trkpt lat="49.79263" lon="2.36041">
        <ele>109.3</ele>
        <time>2022-07-13T07:38:46Z</time>
      </trkpt>
      <trkpt lat="49.79263" lon="2.3604">
        <ele>109.3</ele>
        <time>2022-07-13T07:38:47Z</time>
      </trkpt>
      <trkpt lat="49.79263" lon="2.36038">
        <ele>109.3</ele>
        <time>2022-07-13T07:38:49Z</time>
      </trkpt>
      <trkpt lat="49.79263" lon="2.36036">
        <ele>109.3</ele>
        <time>2022-07-13T07:38:50Z</time>
      </trkpt>
      <trkpt lat="49.79263" lon="2.36032">
        <ele>109.3</ele>
        <time>2022-07-13T07:38:51Z</time>
      </trkpt>
      <trkpt lat="49.79263" lon="2.3603">
        <ele>109.3</ele>
        <time>2022-07-13T07:38:53Z</time>
      </trkpt>
      <trkpt lat="49.79264" lon="2.36027">
        <ele>109.3</ele>
        <time>2022-07-13T07:38:54Z</time>
      </trkpt>
      <trkpt lat="49.79264" lon="2.36026">
        <ele>109.3</ele>
        <time>2022-07-13T07:38:55Z</time>
      </trkpt>
      <trkpt lat="49.79264" lon="2.36024">
        <ele>109.3</ele>
        <time>2022-07-13T07:38:56Z</time>
      </trkpt>
      <trkpt lat="49.79264" lon="2.36023">
        <ele>109.3</ele>
        <time>2022-07-13T07:38:57Z</time>
      </trkpt>
      <trkpt lat="49.79264" lon="2.36021">
        <ele>109.3</ele>
        <time>2022-07-13T07:38:58Z</time>
      </trkpt>
      <trkpt lat="49.79264" lon="2.36019">
        <ele>109.3</ele>
        <time>2022-07-13T07:38:59Z</time>
      </trkpt>
      <trkpt lat="49.79264" lon="2.36017">
        <ele>109.2</ele>
        <time>2022-07-13T07:39:00Z</time>
      </trkpt>
      <trkpt lat="49.79264" lon="2.36014">
        <ele>109.2</ele>
        <time>2022-07-13T07:39:01Z</time>
      </trkpt>
      <trkpt lat="49.79264" lon="2.36012">
        <ele>109.2</ele>
        <time>2022-07-13T07:39:03Z</time>
      </trkpt>
      <trkpt lat="49.79264" lon="2.36011">
        <ele>109.2</ele>
        <time>2022-07-13T07:39:04Z</time>
      </trkpt>
      <trkpt lat="49.79265" lon="2.36009">
        <ele>109.2</ele>
        <time>2022-07-13T07:39:05Z</time>
      </trkpt>
      <trkpt lat="49.79265" lon="2.36005">
        <ele>109.2</ele>
        <time>2022-07-13T07:39:06Z</time>
      </trkpt>
      <trkpt lat="49.79265" lon="2.36004">
        <ele>109.2</ele>
        <time>2022-07-13T07:39:07Z</time>
      </trkpt>
      <trkpt lat="49.79266" lon="2.36003">
        <ele>109.2</ele>
        <time>2022-07-13T07:39:08Z</time>
      </trkpt>
      <trkpt lat="49.79266" lon="2.36001">
        <ele>109.2</ele>
        <time>2022-07-13T07:39:09Z</time>
      </trkpt>
      <trkpt lat="49.79267" lon="2.35999">
        <ele>109.2</ele>
        <time>2022-07-13T07:39:11Z</time>
      </trkpt>
      <trkpt lat="49.79267" lon="2.35998">
        <ele>109.2</ele>
        <time>2022-07-13T07:39:12Z</time>
      </trkpt>
      <trkpt lat="49.79268" lon="2.35996">
        <ele>109.2</ele>
        <time>2022-07-13T07:39:13Z</time>
      </trkpt>
      <trkpt lat="49.79268" lon="2.35995">
        <ele>109.1</ele>
        <time>2022-07-13T07:39:14Z</time>
      </trkpt>
      <trkpt lat="49.79269" lon="2.35993">
        <ele>109.1</ele>
        <time>2022-07-13T07:39:15Z</time>
      </trkpt>
      <trkpt lat="49.79269" lon="2.35992">
        <ele>109.1</ele>
        <time>2022-07-13T07:39:16Z</time>
      </trkpt>
      <trkpt lat="49.7927" lon="2.3599">
        <ele>109.1</ele>
        <time>2022-07-13T07:39:17Z</time>
      </trkpt>
      <trkpt lat="49.7927" lon="2.35989">
        <ele>109.1</ele>
        <time>2022-07-13T07:39:18Z</time>
      </trkpt>
      <trkpt lat="49.79271" lon="2.35987">
        <ele>109.1</ele>
        <time>2022-07-13T07:39:19Z</time>
      </trkpt>
      <trkpt lat="49.79271" lon="2.35986">
        <ele>109.1</ele>
        <time>2022-07-13T07:39:20Z</time>
      </trkpt>
      <trkpt lat="49.79272" lon="2.35983">
        <ele>109.1</ele>
        <time>2022-07-13T07:39:22Z</time>
      </trkpt>
      <trkpt lat="49.79273" lon="2.3598">
        <ele>109.1</ele>
        <time>2022-07-13T07:39:23Z</time>
      </trkpt>
      <trkpt lat="49.79274" lon="2.35979">
        <ele>109.1</ele>
        <time>2022-07-13T07:39:24Z</time>
      </trkpt>
      <trkpt lat="49.79274" lon="2.35978">
        <ele>109.1</ele>
        <time>2022-07-13T07:39:25Z</time>
      </trkpt>
      <trkpt lat="49.79275" lon="2.35976">
        <ele>109.1</ele>
        <time>2022-07-13T07:39:26Z</time>
      </trkpt>
      <trkpt lat="49.79275" lon="2.35974">
        <ele>109.1</ele>
        <time>2022-07-13T07:39:27Z</time>
      </trkpt>
      <trkpt lat="49.79276" lon="2.35973">
        <ele>109.1</ele>
        <time>2022-07-13T07:39:28Z</time>
      </trkpt>
      <trkpt lat="49.79276" lon="2.35971">
        <ele>109</ele>
        <time>2022-07-13T07:39:29Z</time>
      </trkpt>
      <trkpt lat="49.79277" lon="2.35969">
        <ele>109</ele>
        <time>2022-07-13T07:39:31Z</time>
      </trkpt>
      <trkpt lat="49.79277" lon="2.35967">
        <ele>109</ele>
        <time>2022-07-13T07:39:32Z</time>
      </trkpt>
      <trkpt lat="49.79278" lon="2.35966">
        <ele>109</ele>
        <time>2022-07-13T07:39:33Z</time>
      </trkpt>
      <trkpt lat="49.79278" lon="2.35964">
        <ele>109</ele>
        <time>2022-07-13T07:39:34Z</time>
      </trkpt>
      <trkpt lat="49.79279" lon="2.35963">
        <ele>109</ele>
        <time>2022-07-13T07:39:35Z</time>
      </trkpt>
      <trkpt lat="49.79279" lon="2.35961">
        <ele>109</ele>
        <time>2022-07-13T07:39:36Z</time>
      </trkpt>
      <trkpt lat="49.7928" lon="2.35958">
        <ele>109</ele>
        <time>2022-07-13T07:39:37Z</time>
      </trkpt>
      <trkpt lat="49.7928" lon="2.35957">
        <ele>109</ele>
        <time>2022-07-13T07:39:38Z</time>
      </trkpt>
      <trkpt lat="49.7928" lon="2.35955">
        <ele>108.9</ele>
        <time>2022-07-13T07:39:39Z</time>
      </trkpt>
      <trkpt lat="49.79281" lon="2.35954">
        <ele>108.9</ele>
        <time>2022-07-13T07:39:40Z</time>
      </trkpt>
      <trkpt lat="49.79281" lon="2.35951">
        <ele>108.9</ele>
        <time>2022-07-13T07:39:42Z</time>
      </trkpt>
      <trkpt lat="49.79282" lon="2.35949">
        <ele>108.9</ele>
        <time>2022-07-13T07:39:43Z</time>
      </trkpt>
      <trkpt lat="49.79282" lon="2.35948">
        <ele>108.9</ele>
        <time>2022-07-13T07:39:44Z</time>
      </trkpt>
      <trkpt lat="49.79283" lon="2.35946">
        <ele>108.9</ele>
        <time>2022-07-13T07:39:45Z</time>
      </trkpt>
      <trkpt lat="49.79284" lon="2.35943">
        <ele>108.9</ele>
        <time>2022-07-13T07:39:47Z</time>
      </trkpt>
      <trkpt lat="49.79284" lon="2.35942">
        <ele>108.9</ele>
        <time>2022-07-13T07:39:48Z</time>
      </trkpt>
      <trkpt lat="49.79286" lon="2.35939">
        <ele>108.8</ele>
        <time>2022-07-13T07:39:49Z</time>
      </trkpt>
      <trkpt lat="49.79286" lon="2.35938">
        <ele>108.8</ele>
        <time>2022-07-13T07:39:50Z</time>
      </trkpt>
      <trkpt lat="49.79287" lon="2.35937">
        <ele>108.8</ele>
        <time>2022-07-13T07:39:51Z</time>
      </trkpt>
      <trkpt lat="49.79287" lon="2.35936">
        <ele>108.8</ele>
        <time>2022-07-13T07:39:52Z</time>
      </trkpt>
      <trkpt lat="49.79288" lon="2.35934">
        <ele>108.8</ele>
        <time>2022-07-13T07:39:53Z</time>
      </trkpt>
      <trkpt lat="49.79288" lon="2.35933">
        <ele>108.8</ele>
        <time>2022-07-13T07:39:54Z</time>
      </trkpt>
      <trkpt lat="49.79289" lon="2.35931">
        <ele>108.8</ele>
        <time>2022-07-13T07:39:55Z</time>
      </trkpt>
      <trkpt lat="49.7929" lon="2.35929">
        <ele>108.8</ele>
        <time>2022-07-13T07:39:57Z</time>
      </trkpt>
      <trkpt lat="49.7929" lon="2.35927">
        <ele>108.8</ele>
        <time>2022-07-13T07:39:58Z</time>
      </trkpt>
      <trkpt lat="49.7929" lon="2.35926">
        <ele>108.7</ele>
        <time>2022-07-13T07:39:59Z</time>
      </trkpt>
      <trkpt lat="49.79291" lon="2.35924">
        <ele>108.7</ele>
        <time>2022-07-13T07:40:00Z</time>
      </trkpt>
      <trkpt lat="49.79291" lon="2.35923">
        <ele>108.7</ele>
        <time>2022-07-13T07:40:01Z</time>
      </trkpt>
      <trkpt lat="49.79292" lon="2.35921">
        <ele>108.7</ele>
        <time>2022-07-13T07:40:02Z</time>
      </trkpt>
      <trkpt lat="49.79292" lon="2.35919">
        <ele>108.7</ele>
        <time>2022-07-13T07:40:03Z</time>
      </trkpt>
      <trkpt lat="49.79292" lon="2.35916">
        <ele>108.7</ele>
        <time>2022-07-13T07:40:04Z</time>
      </trkpt>
      <trkpt lat="49.79292" lon="2.35915">
        <ele>108.7</ele>
        <time>2022-07-13T07:40:05Z</time>
      </trkpt>
      <trkpt lat="49.79293" lon="2.35914">
        <ele>108.6</ele>
        <time>2022-07-13T07:40:06Z</time>
      </trkpt>
      <trkpt lat="49.79293" lon="2.3591">
        <ele>108.6</ele>
        <time>2022-07-13T07:40:07Z</time>
      </trkpt>
      <trkpt lat="49.79293" lon="2.35909">
        <ele>108.6</ele>
        <time>2022-07-13T07:40:08Z</time>
      </trkpt>
      <trkpt lat="49.79294" lon="2.35908">
        <ele>108.6</ele>
        <time>2022-07-13T07:40:09Z</time>
      </trkpt>
      <trkpt lat="49.79294" lon="2.35904">
        <ele>108.6</ele>
        <time>2022-07-13T07:40:11Z</time>
      </trkpt>
      <trkpt lat="49.79295" lon="2.35902">
        <ele>108.6</ele>
        <time>2022-07-13T07:40:12Z</time>
      </trkpt>
      <trkpt lat="49.79295" lon="2.35899">
        <ele>108.5</ele>
        <time>2022-07-13T07:40:13Z</time>
      </trkpt>
      <trkpt lat="49.79295" lon="2.35898">
        <ele>108.5</ele>
        <time>2022-07-13T07:40:14Z</time>
      </trkpt>
      <trkpt lat="49.79296" lon="2.35897">
        <ele>108.5</ele>
        <time>2022-07-13T07:40:15Z</time>
      </trkpt>
      <trkpt lat="49.79296" lon="2.35895">
        <ele>108.5</ele>
        <time>2022-07-13T07:40:16Z</time>
      </trkpt>
      <trkpt lat="49.79297" lon="2.35892">
        <ele>108.5</ele>
        <time>2022-07-13T07:40:17Z</time>
      </trkpt>
      <trkpt lat="49.79297" lon="2.3589">
        <ele>108.5</ele>
        <time>2022-07-13T07:40:18Z</time>
      </trkpt>
      <trkpt lat="49.79298" lon="2.35888">
        <ele>108.4</ele>
        <time>2022-07-13T07:40:20Z</time>
      </trkpt>
      <trkpt lat="49.79298" lon="2.35886">
        <ele>108.4</ele>
        <time>2022-07-13T07:40:21Z</time>
      </trkpt>
      <trkpt lat="49.79299" lon="2.35884">
        <ele>108.4</ele>
        <time>2022-07-13T07:40:22Z</time>
      </trkpt>
      <trkpt lat="49.79299" lon="2.35882">
        <ele>108.4</ele>
        <time>2022-07-13T07:40:23Z</time>
      </trkpt>
      <trkpt lat="49.793" lon="2.35881">
        <ele>108.4</ele>
        <time>2022-07-13T07:40:24Z</time>
      </trkpt>
      <trkpt lat="49.79301" lon="2.35879">
        <ele>108.4</ele>
        <time>2022-07-13T07:40:25Z</time>
      </trkpt>
      <trkpt lat="49.79301" lon="2.35878">
        <ele>108.4</ele>
        <time>2022-07-13T07:40:26Z</time>
      </trkpt>
      <trkpt lat="49.79302" lon="2.35875">
        <ele>108.3</ele>
        <time>2022-07-13T07:40:27Z</time>
      </trkpt>
      <trkpt lat="49.79303" lon="2.35872">
        <ele>108.3</ele>
        <time>2022-07-13T07:40:29Z</time>
      </trkpt>
      <trkpt lat="49.79303" lon="2.35871">
        <ele>108.3</ele>
        <time>2022-07-13T07:40:30Z</time>
      </trkpt>
      <trkpt lat="49.79304" lon="2.3587">
        <ele>108.3</ele>
        <time>2022-07-13T07:40:31Z</time>
      </trkpt>
      <trkpt lat="49.79305" lon="2.35867">
        <ele>108.3</ele>
        <time>2022-07-13T07:40:32Z</time>
      </trkpt>
      <trkpt lat="49.79305" lon="2.35865">
        <ele>108.3</ele>
        <time>2022-07-13T07:40:33Z</time>
      </trkpt>
      <trkpt lat="49.79305" lon="2.35864">
        <ele>108.2</ele>
        <time>2022-07-13T07:40:34Z</time>
      </trkpt>
      <trkpt lat="49.79305" lon="2.35862">
        <ele>108.2</ele>
        <time>2022-07-13T07:40:35Z</time>
      </trkpt>
      <trkpt lat="49.79307" lon="2.35858">
        <ele>108.2</ele>
        <time>2022-07-13T07:40:37Z</time>
      </trkpt>
      <trkpt lat="49.79307" lon="2.35856">
        <ele>108.2</ele>
        <time>2022-07-13T07:40:38Z</time>
      </trkpt>
      <trkpt lat="49.79307" lon="2.35855">
        <ele>108.2</ele>
        <time>2022-07-13T07:40:39Z</time>
      </trkpt>
      <trkpt lat="49.79307" lon="2.35853">
        <ele>108.1</ele>
        <time>2022-07-13T07:40:40Z</time>
      </trkpt>
      <trkpt lat="49.79308" lon="2.35852">
        <ele>108.1</ele>
        <time>2022-07-13T07:40:41Z</time>
      </trkpt>
      <trkpt lat="49.79309" lon="2.35849">
        <ele>108.1</ele>
        <time>2022-07-13T07:40:42Z</time>
      </trkpt>
      <trkpt lat="49.7931" lon="2.35846">
        <ele>108.1</ele>
        <time>2022-07-13T07:40:44Z</time>
      </trkpt>
      <trkpt lat="49.7931" lon="2.35845">
        <ele>108</ele>
        <time>2022-07-13T07:40:45Z</time>
      </trkpt>
      <trkpt lat="49.79311" lon="2.35844">
        <ele>108</ele>
        <time>2022-07-13T07:40:46Z</time>
      </trkpt>
      <trkpt lat="49.79312" lon="2.35842">
        <ele>108</ele>
        <time>2022-07-13T07:40:47Z</time>
      </trkpt>
      <trkpt lat="49.79313" lon="2.3584">
        <ele>108</ele>
        <time>2022-07-13T07:40:48Z</time>
      </trkpt>
      <trkpt lat="49.79314" lon="2.35839">
        <ele>108</ele>
        <time>2022-07-13T07:40:49Z</time>
      </trkpt>
      <trkpt lat="49.79315" lon="2.35838">
        <ele>107.9</ele>
        <time>2022-07-13T07:40:50Z</time>
      </trkpt>
      <trkpt lat="49.79315" lon="2.35836">
        <ele>107.9</ele>
        <time>2022-07-13T07:40:51Z</time>
      </trkpt>
      <trkpt lat="49.79317" lon="2.35833">
        <ele>107.9</ele>
        <time>2022-07-13T07:40:52Z</time>
      </trkpt>
      <trkpt lat="49.79318" lon="2.35831">
        <ele>107.8</ele>
        <time>2022-07-13T07:40:54Z</time>
      </trkpt>
      <trkpt lat="49.79319" lon="2.3583">
        <ele>107.8</ele>
        <time>2022-07-13T07:40:55Z</time>
      </trkpt>
      <trkpt lat="49.79319" lon="2.35828">
        <ele>107.8</ele>
        <time>2022-07-13T07:40:56Z</time>
      </trkpt>
      <trkpt lat="49.7932" lon="2.35827">
        <ele>107.8</ele>
        <time>2022-07-13T07:40:57Z</time>
      </trkpt>
      <trkpt lat="49.79321" lon="2.35824">
        <ele>107.7</ele>
        <time>2022-07-13T07:40:58Z</time>
      </trkpt>
      <trkpt lat="49.79322" lon="2.35823">
        <ele>107.7</ele>
        <time>2022-07-13T07:41:00Z</time>
      </trkpt>
      <trkpt lat="49.79322" lon="2.35822">
        <ele>107.7</ele>
        <time>2022-07-13T07:41:01Z</time>
      </trkpt>
      <trkpt lat="49.79324" lon="2.35819">
        <ele>107.3</ele>
        <time>2022-07-13T07:41:02Z</time>
      </trkpt>
      <trkpt lat="49.79324" lon="2.35818">
        <ele>107.3</ele>
        <time>2022-07-13T07:41:03Z</time>
      </trkpt>
      <trkpt lat="49.79325" lon="2.35817">
        <ele>107.3</ele>
        <time>2022-07-13T07:41:04Z</time>
      </trkpt>
      <trkpt lat="49.79326" lon="2.35815">
        <ele>107.2</ele>
        <time>2022-07-13T07:41:05Z</time>
      </trkpt>
      <trkpt lat="49.79327" lon="2.35812">
        <ele>107.2</ele>
        <time>2022-07-13T07:41:07Z</time>
      </trkpt>
      <trkpt lat="49.79328" lon="2.35811">
        <ele>107.2</ele>
        <time>2022-07-13T07:41:08Z</time>
      </trkpt>
      <trkpt lat="49.79328" lon="2.35809">
        <ele>107.1</ele>
        <time>2022-07-13T07:41:09Z</time>
      </trkpt>
      <trkpt lat="49.79329" lon="2.35808">
        <ele>107.1</ele>
        <time>2022-07-13T07:41:10Z</time>
      </trkpt>
      <trkpt lat="49.79329" lon="2.35804">
        <ele>107</ele>
        <time>2022-07-13T07:41:11Z</time>
      </trkpt>
      <trkpt lat="49.7933" lon="2.35802">
        <ele>107</ele>
        <time>2022-07-13T07:41:12Z</time>
      </trkpt>
      <trkpt lat="49.7933" lon="2.35799">
        <ele>106.9</ele>
        <time>2022-07-13T07:41:13Z</time>
      </trkpt>
      <trkpt lat="49.7933" lon="2.35797">
        <ele>106.8</ele>
        <time>2022-07-13T07:41:14Z</time>
      </trkpt>
      <trkpt lat="49.7933" lon="2.35796">
        <ele>106.8</ele>
        <time>2022-07-13T07:41:15Z</time>
      </trkpt>
      <trkpt lat="49.79331" lon="2.35792">
        <ele>106.7</ele>
        <time>2022-07-13T07:41:17Z</time>
      </trkpt>
      <trkpt lat="49.79331" lon="2.3579">
        <ele>106.7</ele>
        <time>2022-07-13T07:41:18Z</time>
      </trkpt>
      <trkpt lat="49.79331" lon="2.35788">
        <ele>106.6</ele>
        <time>2022-07-13T07:41:19Z</time>
      </trkpt>
      <trkpt lat="49.79331" lon="2.35786">
        <ele>106.5</ele>
        <time>2022-07-13T07:41:20Z</time>
      </trkpt>
      <trkpt lat="49.79331" lon="2.35784">
        <ele>106.5</ele>
        <time>2022-07-13T07:41:21Z</time>
      </trkpt>
      <trkpt lat="49.79332" lon="2.35781">
        <ele>106.4</ele>
        <time>2022-07-13T07:41:22Z</time>
      </trkpt>
      <trkpt lat="49.79332" lon="2.35779">
        <ele>106.3</ele>
        <time>2022-07-13T07:41:24Z</time>
      </trkpt>
      <trkpt lat="49.79333" lon="2.35776">
        <ele>106.2</ele>
        <time>2022-07-13T07:41:25Z</time>
      </trkpt>
      <trkpt lat="49.79333" lon="2.35774">
        <ele>106.1</ele>
        <time>2022-07-13T07:41:26Z</time>
      </trkpt>
      <trkpt lat="49.79333" lon="2.35771">
        <ele>106</ele>
        <time>2022-07-13T07:41:27Z</time>
      </trkpt>
      <trkpt lat="49.79333" lon="2.35769">
        <ele>106</ele>
        <time>2022-07-13T07:41:28Z</time>
      </trkpt>
      <trkpt lat="49.79333" lon="2.35767">
        <ele>105.9</ele>
        <time>2022-07-13T07:41:29Z</time>
      </trkpt>
      <trkpt lat="49.79332" lon="2.35765">
        <ele>105.8</ele>
        <time>2022-07-13T07:41:31Z</time>
      </trkpt>
      <trkpt lat="49.79332" lon="2.35763">
        <ele>105.7</ele>
        <time>2022-07-13T07:41:32Z</time>
      </trkpt>
      <trkpt lat="49.79332" lon="2.3576">
        <ele>105.6</ele>
        <time>2022-07-13T07:41:33Z</time>
      </trkpt>
      <trkpt lat="49.79331" lon="2.35757">
        <ele>105.5</ele>
        <time>2022-07-13T07:41:34Z</time>
      </trkpt>
      <trkpt lat="49.79331" lon="2.35755">
        <ele>105.4</ele>
        <time>2022-07-13T07:41:35Z</time>
      </trkpt>
      <trkpt lat="49.79331" lon="2.35754">
        <ele>105.4</ele>
        <time>2022-07-13T07:41:36Z</time>
      </trkpt>
      <trkpt lat="49.79331" lon="2.35751">
        <ele>105.2</ele>
        <time>2022-07-13T07:41:37Z</time>
      </trkpt>
      <trkpt lat="49.7933" lon="2.3575">
        <ele>105.2</ele>
        <time>2022-07-13T07:41:38Z</time>
      </trkpt>
      <trkpt lat="49.7933" lon="2.35746">
        <ele>105</ele>
        <time>2022-07-13T07:41:39Z</time>
      </trkpt>
      <trkpt lat="49.79329" lon="2.35745">
        <ele>105</ele>
        <time>2022-07-13T07:41:40Z</time>
      </trkpt>
      <trkpt lat="49.79329" lon="2.35744">
        <ele>104.9</ele>
        <time>2022-07-13T07:41:41Z</time>
      </trkpt>
      <trkpt lat="49.79328" lon="2.35741">
        <ele>104.8</ele>
        <time>2022-07-13T07:41:42Z</time>
      </trkpt>
      <trkpt lat="49.79327" lon="2.35739">
        <ele>104.7</ele>
        <time>2022-07-13T07:41:44Z</time>
      </trkpt>
      <trkpt lat="49.79326" lon="2.35737">
        <ele>104.6</ele>
        <time>2022-07-13T07:41:45Z</time>
      </trkpt>
      <trkpt lat="49.79326" lon="2.35735">
        <ele>104.5</ele>
        <time>2022-07-13T07:41:46Z</time>
      </trkpt>
      <trkpt lat="49.79324" lon="2.35732">
        <ele>104.4</ele>
        <time>2022-07-13T07:41:47Z</time>
      </trkpt>
      <trkpt lat="49.79323" lon="2.3573">
        <ele>104.3</ele>
        <time>2022-07-13T07:41:48Z</time>
      </trkpt>
      <trkpt lat="49.79322" lon="2.35728">
        <ele>104.2</ele>
        <time>2022-07-13T07:41:49Z</time>
      </trkpt>
      <trkpt lat="49.79321" lon="2.35727">
        <ele>104.1</ele>
        <time>2022-07-13T07:41:50Z</time>
      </trkpt>
      <trkpt lat="49.7932" lon="2.35726">
        <ele>104.1</ele>
        <time>2022-07-13T07:41:51Z</time>
      </trkpt>
      <trkpt lat="49.79319" lon="2.35724">
        <ele>104</ele>
        <time>2022-07-13T07:41:52Z</time>
      </trkpt>
      <trkpt lat="49.79318" lon="2.35723">
        <ele>103.9</ele>
        <time>2022-07-13T07:41:53Z</time>
      </trkpt>
      <trkpt lat="49.79316" lon="2.35721">
        <ele>103.8</ele>
        <time>2022-07-13T07:41:54Z</time>
      </trkpt>
      <trkpt lat="49.79316" lon="2.3572">
        <ele>103.7</ele>
        <time>2022-07-13T07:41:55Z</time>
      </trkpt>
      <trkpt lat="49.79315" lon="2.35719">
        <ele>103.7</ele>
        <time>2022-07-13T07:41:56Z</time>
      </trkpt>
      <trkpt lat="49.79313" lon="2.35717">
        <ele>103.6</ele>
        <time>2022-07-13T07:41:58Z</time>
      </trkpt>
      <trkpt lat="49.79313" lon="2.35717">
        <ele>103.5</ele>
        <time>2022-07-13T07:41:59Z</time>
      </trkpt>
      <trkpt lat="49.79312" lon="2.35716">
        <ele>103.5</ele>
        <time>2022-07-13T07:42:00Z</time>
      </trkpt>
      <trkpt lat="49.79311" lon="2.35714">
        <ele>103.4</ele>
        <time>2022-07-13T07:42:01Z</time>
      </trkpt>
      <trkpt lat="49.7931" lon="2.35713">
        <ele>103.4</ele>
        <time>2022-07-13T07:42:02Z</time>
      </trkpt>
      <trkpt lat="49.79309" lon="2.35712">
        <ele>103.3</ele>
        <time>2022-07-13T07:42:03Z</time>
      </trkpt>
      <trkpt lat="49.79308" lon="2.35711">
        <ele>103.3</ele>
        <time>2022-07-13T07:42:04Z</time>
      </trkpt>
      <trkpt lat="49.79307" lon="2.35709">
        <ele>103.2</ele>
        <time>2022-07-13T07:42:05Z</time>
      </trkpt>
      <trkpt lat="49.79306" lon="2.35707">
        <ele>103.1</ele>
        <time>2022-07-13T07:42:06Z</time>
      </trkpt>
      <trkpt lat="49.79305" lon="2.35705">
        <ele>103.1</ele>
        <time>2022-07-13T07:42:07Z</time>
      </trkpt>
      <trkpt lat="49.79304" lon="2.35704">
        <ele>103</ele>
        <time>2022-07-13T07:42:08Z</time>
      </trkpt>
      <trkpt lat="49.79304" lon="2.35703">
        <ele>103</ele>
        <time>2022-07-13T07:42:09Z</time>
      </trkpt>
      <trkpt lat="49.79303" lon="2.35702">
        <ele>102.9</ele>
        <time>2022-07-13T07:42:10Z</time>
      </trkpt>
      <trkpt lat="49.79302" lon="2.35701">
        <ele>102.9</ele>
        <time>2022-07-13T07:42:11Z</time>
      </trkpt>
      <trkpt lat="49.793" lon="2.35698">
        <ele>102.8</ele>
        <time>2022-07-13T07:42:13Z</time>
      </trkpt>
      <trkpt lat="49.79299" lon="2.35697">
        <ele>102.7</ele>
        <time>2022-07-13T07:42:14Z</time>
      </trkpt>
      <trkpt lat="49.79299" lon="2.35696">
        <ele>102.7</ele>
        <time>2022-07-13T07:42:15Z</time>
      </trkpt>
      <trkpt lat="49.79298" lon="2.35695">
        <ele>102.7</ele>
        <time>2022-07-13T07:42:16Z</time>
      </trkpt>
      <trkpt lat="49.79297" lon="2.35694">
        <ele>102.6</ele>
        <time>2022-07-13T07:42:17Z</time>
      </trkpt>
      <trkpt lat="49.79296" lon="2.35691">
        <ele>102.5</ele>
        <time>2022-07-13T07:42:19Z</time>
      </trkpt>
      <trkpt lat="49.79295" lon="2.3569">
        <ele>102.5</ele>
        <time>2022-07-13T07:42:20Z</time>
      </trkpt>
      <trkpt lat="49.79295" lon="2.35689">
        <ele>102.5</ele>
        <time>2022-07-13T07:42:21Z</time>
      </trkpt>
      <trkpt lat="49.79295" lon="2.35688">
        <ele>102.4</ele>
        <time>2022-07-13T07:42:22Z</time>
      </trkpt>
      <trkpt lat="49.79294" lon="2.35686">
        <ele>102.4</ele>
        <time>2022-07-13T07:42:23Z</time>
      </trkpt>
      <trkpt lat="49.79293" lon="2.35685">
        <ele>102.3</ele>
        <time>2022-07-13T07:42:24Z</time>
      </trkpt>
      <trkpt lat="49.79292" lon="2.35682">
        <ele>102.2</ele>
        <time>2022-07-13T07:42:25Z</time>
      </trkpt>
      <trkpt lat="49.79292" lon="2.35681">
        <ele>102.2</ele>
        <time>2022-07-13T07:42:27Z</time>
      </trkpt>
      <trkpt lat="49.79291" lon="2.35679">
        <ele>102.2</ele>
        <time>2022-07-13T07:42:28Z</time>
      </trkpt>
      <trkpt lat="49.79291" lon="2.35677">
        <ele>102.1</ele>
        <time>2022-07-13T07:42:29Z</time>
      </trkpt>
      <trkpt lat="49.7929" lon="2.35676">
        <ele>102.1</ele>
        <time>2022-07-13T07:42:30Z</time>
      </trkpt>
      <trkpt lat="49.7929" lon="2.35675">
        <ele>102</ele>
        <time>2022-07-13T07:42:31Z</time>
      </trkpt>
      <trkpt lat="49.7929" lon="2.35674">
        <ele>102</ele>
        <time>2022-07-13T07:42:32Z</time>
      </trkpt>
      <trkpt lat="49.79289" lon="2.3567">
        <ele>101.9</ele>
        <time>2022-07-13T07:42:33Z</time>
      </trkpt>
      <trkpt lat="49.79289" lon="2.35669">
        <ele>101.9</ele>
        <time>2022-07-13T07:42:34Z</time>
      </trkpt>
      <trkpt lat="49.79289" lon="2.35668">
        <ele>101.8</ele>
        <time>2022-07-13T07:42:35Z</time>
      </trkpt>
      <trkpt lat="49.79289" lon="2.35666">
        <ele>101.8</ele>
        <time>2022-07-13T07:42:36Z</time>
      </trkpt>
      <trkpt lat="49.79289" lon="2.35665">
        <ele>101.7</ele>
        <time>2022-07-13T07:42:37Z</time>
      </trkpt>
      <trkpt lat="49.79288" lon="2.35662">
        <ele>101.7</ele>
        <time>2022-07-13T07:42:39Z</time>
      </trkpt>
      <trkpt lat="49.79288" lon="2.3566">
        <ele>101.6</ele>
        <time>2022-07-13T07:42:40Z</time>
      </trkpt>
      <trkpt lat="49.79288" lon="2.35659">
        <ele>101.6</ele>
        <time>2022-07-13T07:42:41Z</time>
      </trkpt>
      <trkpt lat="49.79287" lon="2.35657">
        <ele>101.5</ele>
        <time>2022-07-13T07:42:42Z</time>
      </trkpt>
      <trkpt lat="49.79287" lon="2.35653">
        <ele>101.4</ele>
        <time>2022-07-13T07:42:43Z</time>
      </trkpt>
      <trkpt lat="49.79287" lon="2.35653">
        <ele>101.3</ele>
        <time>2022-07-13T07:42:44Z</time>
      </trkpt>
      <trkpt lat="49.79286" lon="2.35652">
        <ele>101.3</ele>
        <time>2022-07-13T07:42:45Z</time>
      </trkpt>
      <trkpt lat="49.79286" lon="2.35648">
        <ele>101.2</ele>
        <time>2022-07-13T07:42:46Z</time>
      </trkpt>
      <trkpt lat="49.79286" lon="2.35647">
        <ele>101.1</ele>
        <time>2022-07-13T07:42:47Z</time>
      </trkpt>
      <trkpt lat="49.79285" lon="2.35645">
        <ele>101.1</ele>
        <time>2022-07-13T07:42:48Z</time>
      </trkpt>
      <trkpt lat="49.79285" lon="2.35643">
        <ele>101</ele>
        <time>2022-07-13T07:42:49Z</time>
      </trkpt>
      <trkpt lat="49.79284" lon="2.35641">
        <ele>100.9</ele>
        <time>2022-07-13T07:42:51Z</time>
      </trkpt>
      <trkpt lat="49.79284" lon="2.3564">
        <ele>100.9</ele>
        <time>2022-07-13T07:42:52Z</time>
      </trkpt>
      <trkpt lat="49.79283" lon="2.35637">
        <ele>100.8</ele>
        <time>2022-07-13T07:42:53Z</time>
      </trkpt>
      <trkpt lat="49.79283" lon="2.35636">
        <ele>100.7</ele>
        <time>2022-07-13T07:42:54Z</time>
      </trkpt>
      <trkpt lat="49.79282" lon="2.35633">
        <ele>100.6</ele>
        <time>2022-07-13T07:42:55Z</time>
      </trkpt>
      <trkpt lat="49.79281" lon="2.35632">
        <ele>100.5</ele>
        <time>2022-07-13T07:42:56Z</time>
      </trkpt>
      <trkpt lat="49.79281" lon="2.3563">
        <ele>100.5</ele>
        <time>2022-07-13T07:42:57Z</time>
      </trkpt>
      <trkpt lat="49.7928" lon="2.35627">
        <ele>100.3</ele>
        <time>2022-07-13T07:42:58Z</time>
      </trkpt>
      <trkpt lat="49.79279" lon="2.35626">
        <ele>100.3</ele>
        <time>2022-07-13T07:42:59Z</time>
      </trkpt>
      <trkpt lat="49.79279" lon="2.35624">
        <ele>100.2</ele>
        <time>2022-07-13T07:43:00Z</time>
      </trkpt>
      <trkpt lat="49.79278" lon="2.35622">
        <ele>100.1</ele>
        <time>2022-07-13T07:43:02Z</time>
      </trkpt>
      <trkpt lat="49.79278" lon="2.35618">
        <ele>100</ele>
        <time>2022-07-13T07:43:03Z</time>
      </trkpt>
      <trkpt lat="49.79277" lon="2.35617">
        <ele>99.9</ele>
        <time>2022-07-13T07:43:04Z</time>
      </trkpt>
      <trkpt lat="49.79276" lon="2.35614">
        <ele>99.8</ele>
        <time>2022-07-13T07:43:05Z</time>
      </trkpt>
      <trkpt lat="49.79276" lon="2.35612">
        <ele>99.7</ele>
        <time>2022-07-13T07:43:06Z</time>
      </trkpt>
      <trkpt lat="49.79276" lon="2.35611">
        <ele>99.7</ele>
        <time>2022-07-13T07:43:07Z</time>
      </trkpt>
      <trkpt lat="49.79276" lon="2.35608">
        <ele>99.6</ele>
        <time>2022-07-13T07:43:09Z</time>
      </trkpt>
      <trkpt lat="49.79275" lon="2.35607">
        <ele>99.5</ele>
        <time>2022-07-13T07:43:10Z</time>
      </trkpt>
      <trkpt lat="49.79275" lon="2.35603">
        <ele>99.4</ele>
        <time>2022-07-13T07:43:11Z</time>
      </trkpt>
      <trkpt lat="49.79274" lon="2.35602">
        <ele>99.3</ele>
        <time>2022-07-13T07:43:12Z</time>
      </trkpt>
      <trkpt lat="49.79274" lon="2.356">
        <ele>99.3</ele>
        <time>2022-07-13T07:43:13Z</time>
      </trkpt>
      <trkpt lat="49.79274" lon="2.35599">
        <ele>99.2</ele>
        <time>2022-07-13T07:43:14Z</time>
      </trkpt>
      <trkpt lat="49.79273" lon="2.35597">
        <ele>99.1</ele>
        <time>2022-07-13T07:43:15Z</time>
      </trkpt>
      <trkpt lat="49.79273" lon="2.35596">
        <ele>99.1</ele>
        <time>2022-07-13T07:43:16Z</time>
      </trkpt>
      <trkpt lat="49.79273" lon="2.35594">
        <ele>99</ele>
        <time>2022-07-13T07:43:18Z</time>
      </trkpt>
      <trkpt lat="49.79273" lon="2.35591">
        <ele>98.9</ele>
        <time>2022-07-13T07:43:19Z</time>
      </trkpt>
      <trkpt lat="49.79273" lon="2.3559">
        <ele>98.9</ele>
        <time>2022-07-13T07:43:20Z</time>
      </trkpt>
      <trkpt lat="49.79272" lon="2.35588">
        <ele>98.8</ele>
        <time>2022-07-13T07:43:21Z</time>
      </trkpt>
      <trkpt lat="49.79272" lon="2.35586">
        <ele>98.7</ele>
        <time>2022-07-13T07:43:22Z</time>
      </trkpt>
      <trkpt lat="49.79272" lon="2.35583">
        <ele>98.6</ele>
        <time>2022-07-13T07:43:23Z</time>
      </trkpt>
      <trkpt lat="49.79272" lon="2.35581">
        <ele>98.6</ele>
        <time>2022-07-13T07:43:24Z</time>
      </trkpt>
      <trkpt lat="49.79271" lon="2.3558">
        <ele>98.5</ele>
        <time>2022-07-13T07:43:25Z</time>
      </trkpt>
      <trkpt lat="49.79271" lon="2.35578">
        <ele>98.4</ele>
        <time>2022-07-13T07:43:26Z</time>
      </trkpt>
      <trkpt lat="49.79271" lon="2.35576">
        <ele>98.3</ele>
        <time>2022-07-13T07:43:27Z</time>
      </trkpt>
      <trkpt lat="49.79271" lon="2.35573">
        <ele>98.2</ele>
        <time>2022-07-13T07:43:29Z</time>
      </trkpt>
      <trkpt lat="49.79271" lon="2.35572">
        <ele>98.2</ele>
        <time>2022-07-13T07:43:30Z</time>
      </trkpt>
      <trkpt lat="49.7927" lon="2.35568">
        <ele>98</ele>
        <time>2022-07-13T07:43:31Z</time>
      </trkpt>
      <trkpt lat="49.7927" lon="2.35567">
        <ele>98</ele>
        <time>2022-07-13T07:43:32Z</time>
      </trkpt>
      <trkpt lat="49.7927" lon="2.35565">
        <ele>97.9</ele>
        <time>2022-07-13T07:43:33Z</time>
      </trkpt>
      <trkpt lat="49.7927" lon="2.35563">
        <ele>97.9</ele>
        <time>2022-07-13T07:43:34Z</time>
      </trkpt>
      <trkpt lat="49.7927" lon="2.35562">
        <ele>97.8</ele>
        <time>2022-07-13T07:43:35Z</time>
      </trkpt>
      <trkpt lat="49.79269" lon="2.3556">
        <ele>97.7</ele>
        <time>2022-07-13T07:43:36Z</time>
      </trkpt>
      <trkpt lat="49.79269" lon="2.35558">
        <ele>97.7</ele>
        <time>2022-07-13T07:43:37Z</time>
      </trkpt>
      <trkpt lat="49.79269" lon="2.35556">
        <ele>97.6</ele>
        <time>2022-07-13T07:43:39Z</time>
      </trkpt>
      <trkpt lat="49.79269" lon="2.35554">
        <ele>97.5</ele>
        <time>2022-07-13T07:43:40Z</time>
      </trkpt>
      <trkpt lat="49.79269" lon="2.35552">
        <ele>97.4</ele>
        <time>2022-07-13T07:43:41Z</time>
      </trkpt>
      <trkpt lat="49.79269" lon="2.3555">
        <ele>97.3</ele>
        <time>2022-07-13T07:43:42Z</time>
      </trkpt>
      <trkpt lat="49.79269" lon="2.35548">
        <ele>97.3</ele>
        <time>2022-07-13T07:43:43Z</time>
      </trkpt>
      <trkpt lat="49.79268" lon="2.35546">
        <ele>97.2</ele>
        <time>2022-07-13T07:43:44Z</time>
      </trkpt>
      <trkpt lat="49.79268" lon="2.35544">
        <ele>97.1</ele>
        <time>2022-07-13T07:43:45Z</time>
      </trkpt>
      <trkpt lat="49.79268" lon="2.35543">
        <ele>97.1</ele>
        <time>2022-07-13T07:43:46Z</time>
      </trkpt>
      <trkpt lat="49.79268" lon="2.35541">
        <ele>97</ele>
        <time>2022-07-13T07:43:47Z</time>
      </trkpt>
      <trkpt lat="49.79267" lon="2.35538">
        <ele>96.9</ele>
        <time>2022-07-13T07:43:48Z</time>
      </trkpt>
      <trkpt lat="49.79267" lon="2.35537">
        <ele>96.8</ele>
        <time>2022-07-13T07:43:49Z</time>
      </trkpt>
      <trkpt lat="49.79266" lon="2.35534">
        <ele>96.7</ele>
        <time>2022-07-13T07:43:50Z</time>
      </trkpt>
      <trkpt lat="49.79266" lon="2.35532">
        <ele>96.7</ele>
        <time>2022-07-13T07:43:52Z</time>
      </trkpt>
      <trkpt lat="49.79265" lon="2.3553">
        <ele>96.6</ele>
        <time>2022-07-13T07:43:53Z</time>
      </trkpt>
      <trkpt lat="49.79265" lon="2.35529">
        <ele>96.6</ele>
        <time>2022-07-13T07:43:54Z</time>
      </trkpt>
      <trkpt lat="49.79265" lon="2.35528">
        <ele>96.5</ele>
        <time>2022-07-13T07:43:55Z</time>
      </trkpt>
      <trkpt lat="49.79265" lon="2.35526">
        <ele>96.5</ele>
        <time>2022-07-13T07:43:56Z</time>
      </trkpt>
      <trkpt lat="49.79264" lon="2.35524">
        <ele>96.4</ele>
        <time>2022-07-13T07:43:58Z</time>
      </trkpt>
      <trkpt lat="49.79264" lon="2.35521">
        <ele>96.3</ele>
        <time>2022-07-13T07:43:59Z</time>
      </trkpt>
      <trkpt lat="49.79264" lon="2.3552">
        <ele>96.3</ele>
        <time>2022-07-13T07:44:00Z</time>
      </trkpt>
      <trkpt lat="49.79263" lon="2.35518">
        <ele>96.2</ele>
        <time>2022-07-13T07:44:01Z</time>
      </trkpt>
      <trkpt lat="49.79263" lon="2.35517">
        <ele>96.2</ele>
        <time>2022-07-13T07:44:02Z</time>
      </trkpt>
      <trkpt lat="49.79262" lon="2.35516">
        <ele>96.1</ele>
        <time>2022-07-13T07:44:03Z</time>
      </trkpt>
      <trkpt lat="49.79261" lon="2.35514">
        <ele>96.1</ele>
        <time>2022-07-13T07:44:04Z</time>
      </trkpt>
      <trkpt lat="49.79261" lon="2.35513">
        <ele>96</ele>
        <time>2022-07-13T07:44:05Z</time>
      </trkpt>
      <trkpt lat="49.7926" lon="2.35509">
        <ele>95.9</ele>
        <time>2022-07-13T07:44:06Z</time>
      </trkpt>
      <trkpt lat="49.7926" lon="2.35508">
        <ele>95.9</ele>
        <time>2022-07-13T07:44:07Z</time>
      </trkpt>
      <trkpt lat="49.7926" lon="2.35506">
        <ele>95.8</ele>
        <time>2022-07-13T07:44:08Z</time>
      </trkpt>
      <trkpt lat="49.7926" lon="2.35503">
        <ele>95.7</ele>
        <time>2022-07-13T07:44:10Z</time>
      </trkpt>
      <trkpt lat="49.79259" lon="2.35501">
        <ele>95.7</ele>
        <time>2022-07-13T07:44:11Z</time>
      </trkpt>
      <trkpt lat="49.79259" lon="2.35496">
        <ele>95.5</ele>
        <time>2022-07-13T07:44:13Z</time>
      </trkpt>
      <trkpt lat="49.79259" lon="2.35494">
        <ele>95.5</ele>
        <time>2022-07-13T07:44:14Z</time>
      </trkpt>
      <trkpt lat="49.79258" lon="2.35491">
        <ele>95.4</ele>
        <time>2022-07-13T07:44:15Z</time>
      </trkpt>
      <trkpt lat="49.79258" lon="2.35489">
        <ele>95.4</ele>
        <time>2022-07-13T07:44:16Z</time>
      </trkpt>
      <trkpt lat="49.79258" lon="2.35488">
        <ele>95.4</ele>
        <time>2022-07-13T07:44:17Z</time>
      </trkpt>
      <trkpt lat="49.79258" lon="2.35482">
        <ele>95.2</ele>
        <time>2022-07-13T07:44:19Z</time>
      </trkpt>
      <trkpt lat="49.79258" lon="2.35481">
        <ele>95.2</ele>
        <time>2022-07-13T07:44:20Z</time>
      </trkpt>
      <trkpt lat="49.79257" lon="2.3548">
        <ele>95.1</ele>
        <time>2022-07-13T07:44:21Z</time>
      </trkpt>
      <trkpt lat="49.79257" lon="2.35478">
        <ele>95.1</ele>
        <time>2022-07-13T07:44:22Z</time>
      </trkpt>
      <trkpt lat="49.79257" lon="2.35475">
        <ele>95</ele>
        <time>2022-07-13T07:44:23Z</time>
      </trkpt>
      <trkpt lat="49.79257" lon="2.35474">
        <ele>94.9</ele>
        <time>2022-07-13T07:44:25Z</time>
      </trkpt>
      <trkpt lat="49.79257" lon="2.35472">
        <ele>94.9</ele>
        <time>2022-07-13T07:44:26Z</time>
      </trkpt>
      <trkpt lat="49.79257" lon="2.3547">
        <ele>94.8</ele>
        <time>2022-07-13T07:44:27Z</time>
      </trkpt>
      <trkpt lat="49.79256" lon="2.35468">
        <ele>94.8</ele>
        <time>2022-07-13T07:44:28Z</time>
      </trkpt>
      <trkpt lat="49.79256" lon="2.35466">
        <ele>94.7</ele>
        <time>2022-07-13T07:44:29Z</time>
      </trkpt>
      <trkpt lat="49.79257" lon="2.35464">
        <ele>94.6</ele>
        <time>2022-07-13T07:44:30Z</time>
      </trkpt>
      <trkpt lat="49.79257" lon="2.3546">
        <ele>94.5</ele>
        <time>2022-07-13T07:44:31Z</time>
      </trkpt>
      <trkpt lat="49.79257" lon="2.35459">
        <ele>94.4</ele>
        <time>2022-07-13T07:44:32Z</time>
      </trkpt>
      <trkpt lat="49.79258" lon="2.35457">
        <ele>94.4</ele>
        <time>2022-07-13T07:44:33Z</time>
      </trkpt>
      <trkpt lat="49.79258" lon="2.35455">
        <ele>94.3</ele>
        <time>2022-07-13T07:44:34Z</time>
      </trkpt>
      <trkpt lat="49.79258" lon="2.35453">
        <ele>94.2</ele>
        <time>2022-07-13T07:44:35Z</time>
      </trkpt>
      <trkpt lat="49.79259" lon="2.35451">
        <ele>94.2</ele>
        <time>2022-07-13T07:44:37Z</time>
      </trkpt>
      <trkpt lat="49.79259" lon="2.35449">
        <ele>94.2</ele>
        <time>2022-07-13T07:44:38Z</time>
      </trkpt>
      <trkpt lat="49.79259" lon="2.35446">
        <ele>94</ele>
        <time>2022-07-13T07:44:39Z</time>
      </trkpt>
      <trkpt lat="49.79259" lon="2.35444">
        <ele>94</ele>
        <time>2022-07-13T07:44:40Z</time>
      </trkpt>
      <trkpt lat="49.79259" lon="2.35442">
        <ele>93.9</ele>
        <time>2022-07-13T07:44:41Z</time>
      </trkpt>
      <trkpt lat="49.79259" lon="2.35441">
        <ele>93.9</ele>
        <time>2022-07-13T07:44:42Z</time>
      </trkpt>
      <trkpt lat="49.79259" lon="2.35438">
        <ele>93.8</ele>
        <time>2022-07-13T07:44:43Z</time>
      </trkpt>
      <trkpt lat="49.7926" lon="2.35437">
        <ele>93.7</ele>
        <time>2022-07-13T07:44:44Z</time>
      </trkpt>
      <trkpt lat="49.7926" lon="2.35436">
        <ele>93.7</ele>
        <time>2022-07-13T07:44:45Z</time>
      </trkpt>
      <trkpt lat="49.7926" lon="2.35435">
        <ele>93.7</ele>
        <time>2022-07-13T07:44:46Z</time>
      </trkpt>
      <trkpt lat="49.7926" lon="2.35433">
        <ele>93.6</ele>
        <time>2022-07-13T07:44:48Z</time>
      </trkpt>
      <trkpt lat="49.7926" lon="2.35431">
        <ele>93.5</ele>
        <time>2022-07-13T07:44:49Z</time>
      </trkpt>
      <trkpt lat="49.79261" lon="2.3543">
        <ele>93.4</ele>
        <time>2022-07-13T07:44:50Z</time>
      </trkpt>
      <trkpt lat="49.7926" lon="2.3543">
        <ele>93.4</ele>
        <time>2022-07-13T07:44:51Z</time>
      </trkpt>
      <trkpt lat="49.7926" lon="2.3543">
        <ele>93.4</ele>
        <time>2022-07-13T07:44:52Z</time>
      </trkpt>
      <trkpt lat="49.7926" lon="2.35428">
        <ele>93.3</ele>
        <time>2022-07-13T07:44:54Z</time>
      </trkpt>
      <trkpt lat="49.7926" lon="2.35426">
        <ele>93.3</ele>
        <time>2022-07-13T07:44:55Z</time>
      </trkpt>
      <trkpt lat="49.7926" lon="2.35425">
        <ele>93.2</ele>
        <time>2022-07-13T07:44:56Z</time>
      </trkpt>
      <trkpt lat="49.7926" lon="2.35424">
        <ele>93.2</ele>
        <time>2022-07-13T07:44:57Z</time>
      </trkpt>
      <trkpt lat="49.7926" lon="2.35423">
        <ele>93.1</ele>
        <time>2022-07-13T07:44:58Z</time>
      </trkpt>
      <trkpt lat="49.7926" lon="2.35421">
        <ele>93.1</ele>
        <time>2022-07-13T07:44:59Z</time>
      </trkpt>
      <trkpt lat="49.7926" lon="2.3542">
        <ele>93</ele>
        <time>2022-07-13T07:45:00Z</time>
      </trkpt>
      <trkpt lat="49.79259" lon="2.35419">
        <ele>93</ele>
        <time>2022-07-13T07:45:01Z</time>
      </trkpt>
      <trkpt lat="49.79259" lon="2.35419">
        <ele>92.9</ele>
        <time>2022-07-13T07:45:02Z</time>
      </trkpt>
      <trkpt lat="49.79259" lon="2.35419">
        <ele>92.9</ele>
        <time>2022-07-13T07:45:03Z</time>
      </trkpt>
      <trkpt lat="49.79259" lon="2.35419">
        <ele>92.9</ele>
        <time>2022-07-13T07:45:04Z</time>
      </trkpt>
      <trkpt lat="49.79259" lon="2.35419">
        <ele>92.9</ele>
        <time>2022-07-13T07:45:05Z</time>
      </trkpt>
      <trkpt lat="49.79259" lon="2.3542">
        <ele>92.9</ele>
        <time>2022-07-13T07:45:06Z</time>
      </trkpt>
      <trkpt lat="49.79259" lon="2.3542">
        <ele>92.8</ele>
        <time>2022-07-13T07:45:07Z</time>
      </trkpt>
      <trkpt lat="49.79259" lon="2.35421">
        <ele>92.8</ele>
        <time>2022-07-13T07:45:08Z</time>
      </trkpt>
      <trkpt lat="49.79259" lon="2.35422">
        <ele>92.8</ele>
        <time>2022-07-13T07:45:09Z</time>
      </trkpt>
      <trkpt lat="49.79259" lon="2.35422">
        <ele>92.8</ele>
        <time>2022-07-13T07:45:10Z</time>
      </trkpt>
      <trkpt lat="49.79259" lon="2.35422">
        <ele>92.7</ele>
        <time>2022-07-13T07:45:11Z</time>
      </trkpt>
      <trkpt lat="49.79259" lon="2.35422">
        <ele>92.8</ele>
        <time>2022-07-13T07:45:12Z</time>
      </trkpt>
      <trkpt lat="49.79259" lon="2.35423">
        <ele>92.8</ele>
        <time>2022-07-13T07:45:13Z</time>
      </trkpt>
      <trkpt lat="49.79259" lon="2.35423">
        <ele>92.8</ele>
        <time>2022-07-13T07:45:14Z</time>
      </trkpt>
      <trkpt lat="49.79259" lon="2.35423">
        <ele>92.8</ele>
        <time>2022-07-13T07:45:15Z</time>
      </trkpt>
      <trkpt lat="49.79259" lon="2.35423">
        <ele>92.8</ele>
        <time>2022-07-13T07:45:16Z</time>
      </trkpt>
      <trkpt lat="49.79259" lon="2.35423">
        <ele>92.8</ele>
        <time>2022-07-13T07:45:17Z</time>
      </trkpt>
      <trkpt lat="49.79258" lon="2.35424">
        <ele>92.8</ele>
        <time>2022-07-13T07:45:18Z</time>
      </trkpt>
      <trkpt lat="49.79258" lon="2.35425">
        <ele>92.7</ele>
        <time>2022-07-13T07:45:19Z</time>
      </trkpt>
      <trkpt lat="49.79258" lon="2.35424">
        <ele>92.7</ele>
        <time>2022-07-13T07:45:20Z</time>
      </trkpt>
      <trkpt lat="49.79258" lon="2.35424">
        <ele>92.7</ele>
        <time>2022-07-13T07:45:21Z</time>
      </trkpt>
      <trkpt lat="49.79258" lon="2.35423">
        <ele>92.7</ele>
        <time>2022-07-13T07:45:22Z</time>
      </trkpt>
      <trkpt lat="49.79258" lon="2.35423">
        <ele>92.6</ele>
        <time>2022-07-13T07:45:23Z</time>
      </trkpt>
      <trkpt lat="49.79259" lon="2.35422">
        <ele>92.6</ele>
        <time>2022-07-13T07:45:24Z</time>
      </trkpt>
      <trkpt lat="49.79259" lon="2.35422">
        <ele>92.6</ele>
        <time>2022-07-13T07:45:25Z</time>
      </trkpt>
      <trkpt lat="49.79259" lon="2.35421">
        <ele>92.6</ele>
        <time>2022-07-13T07:45:26Z</time>
      </trkpt>
      <trkpt lat="49.79259" lon="2.35421">
        <ele>92.5</ele>
        <time>2022-07-13T07:45:27Z</time>
      </trkpt>
      <trkpt lat="49.79259" lon="2.3542">
        <ele>92.5</ele>
        <time>2022-07-13T07:45:28Z</time>
      </trkpt>
      <trkpt lat="49.79259" lon="2.3542">
        <ele>92.5</ele>
        <time>2022-07-13T07:45:29Z</time>
      </trkpt>
      <trkpt lat="49.79259" lon="2.35419">
        <ele>92.5</ele>
        <time>2022-07-13T07:45:30Z</time>
      </trkpt>
      <trkpt lat="49.79259" lon="2.35419">
        <ele>92.4</ele>
        <time>2022-07-13T07:45:31Z</time>
      </trkpt>
      <trkpt lat="49.79259" lon="2.35418">
        <ele>92.5</ele>
        <time>2022-07-13T07:45:33Z</time>
      </trkpt>
      <trkpt lat="49.79259" lon="2.35418">
        <ele>92.5</ele>
        <time>2022-07-13T07:45:34Z</time>
      </trkpt>
      <trkpt lat="49.79259" lon="2.35417">
        <ele>92.5</ele>
        <time>2022-07-13T07:45:35Z</time>
      </trkpt>
      <trkpt lat="49.79259" lon="2.35417">
        <ele>92.5</ele>
        <time>2022-07-13T07:45:36Z</time>
      </trkpt>
      <trkpt lat="49.79259" lon="2.35416">
        <ele>92.4</ele>
        <time>2022-07-13T07:45:37Z</time>
      </trkpt>
      <trkpt lat="49.79259" lon="2.35416">
        <ele>92.4</ele>
        <time>2022-07-13T07:45:39Z</time>
      </trkpt>
      <trkpt lat="49.79259" lon="2.35415">
        <ele>92.4</ele>
        <time>2022-07-13T07:45:40Z</time>
      </trkpt>
      <trkpt lat="49.79259" lon="2.35415">
        <ele>92.4</ele>
        <time>2022-07-13T07:45:41Z</time>
      </trkpt>
      <trkpt lat="49.79259" lon="2.35414">
        <ele>92.3</ele>
        <time>2022-07-13T07:45:42Z</time>
      </trkpt>
      <trkpt lat="49.7926" lon="2.35411">
        <ele>92.2</ele>
        <time>2022-07-13T07:45:43Z</time>
      </trkpt>
      <trkpt lat="49.7926" lon="2.3541">
        <ele>92.1</ele>
        <time>2022-07-13T07:45:44Z</time>
      </trkpt>
      <trkpt lat="49.7926" lon="2.35409">
        <ele>92.1</ele>
        <time>2022-07-13T07:45:45Z</time>
      </trkpt>
      <trkpt lat="49.79261" lon="2.35406">
        <ele>92</ele>
        <time>2022-07-13T07:45:47Z</time>
      </trkpt>
      <trkpt lat="49.79261" lon="2.35404">
        <ele>91.9</ele>
        <time>2022-07-13T07:45:48Z</time>
      </trkpt>
      <trkpt lat="49.79262" lon="2.35401">
        <ele>91.7</ele>
        <time>2022-07-13T07:45:49Z</time>
      </trkpt>
      <trkpt lat="49.79262" lon="2.354">
        <ele>91.7</ele>
        <time>2022-07-13T07:45:50Z</time>
      </trkpt>
      <trkpt lat="49.79262" lon="2.35398">
        <ele>91.6</ele>
        <time>2022-07-13T07:45:51Z</time>
      </trkpt>
      <trkpt lat="49.79263" lon="2.35395">
        <ele>91.5</ele>
        <time>2022-07-13T07:45:52Z</time>
      </trkpt>
      <trkpt lat="49.79263" lon="2.35394">
        <ele>91.4</ele>
        <time>2022-07-13T07:45:53Z</time>
      </trkpt>
      <trkpt lat="49.79263" lon="2.35392">
        <ele>91.4</ele>
        <time>2022-07-13T07:45:54Z</time>
      </trkpt>
      <trkpt lat="49.79263" lon="2.3539">
        <ele>91.3</ele>
        <time>2022-07-13T07:45:55Z</time>
      </trkpt>
      <trkpt lat="49.79263" lon="2.35389">
        <ele>91.3</ele>
        <time>2022-07-13T07:45:56Z</time>
      </trkpt>
      <trkpt lat="49.79263" lon="2.35387">
        <ele>91.2</ele>
        <time>2022-07-13T07:45:57Z</time>
      </trkpt>
      <trkpt lat="49.79263" lon="2.35383">
        <ele>91.1</ele>
        <time>2022-07-13T07:45:58Z</time>
      </trkpt>
      <trkpt lat="49.79262" lon="2.35382">
        <ele>91</ele>
        <time>2022-07-13T07:46:00Z</time>
      </trkpt>
      <trkpt lat="49.79262" lon="2.3538">
        <ele>91</ele>
        <time>2022-07-13T07:46:01Z</time>
      </trkpt>
      <trkpt lat="49.79262" lon="2.35378">
        <ele>90.9</ele>
        <time>2022-07-13T07:46:02Z</time>
      </trkpt>
      <trkpt lat="49.79262" lon="2.35377">
        <ele>90.9</ele>
        <time>2022-07-13T07:46:03Z</time>
      </trkpt>
      <trkpt lat="49.79262" lon="2.35376">
        <ele>90.9</ele>
        <time>2022-07-13T07:46:04Z</time>
      </trkpt>
      <trkpt lat="49.79262" lon="2.35374">
        <ele>90.8</ele>
        <time>2022-07-13T07:46:05Z</time>
      </trkpt>
      <trkpt lat="49.79262" lon="2.35372">
        <ele>90.8</ele>
        <time>2022-07-13T07:46:06Z</time>
      </trkpt>
      <trkpt lat="49.79262" lon="2.3537">
        <ele>90.8</ele>
        <time>2022-07-13T07:46:07Z</time>
      </trkpt>
      <trkpt lat="49.79263" lon="2.35369">
        <ele>90.7</ele>
        <time>2022-07-13T07:46:08Z</time>
      </trkpt>
      <trkpt lat="49.79263" lon="2.35367">
        <ele>90.7</ele>
        <time>2022-07-13T07:46:09Z</time>
      </trkpt>
      <trkpt lat="49.79263" lon="2.35365">
        <ele>90.7</ele>
        <time>2022-07-13T07:46:10Z</time>
      </trkpt>
      <trkpt lat="49.79264" lon="2.35362">
        <ele>90.6</ele>
        <time>2022-07-13T07:46:11Z</time>
      </trkpt>
      <trkpt lat="49.79264" lon="2.35361">
        <ele>90.6</ele>
        <time>2022-07-13T07:46:13Z</time>
      </trkpt>
      <trkpt lat="49.79264" lon="2.35359">
        <ele>90.6</ele>
        <time>2022-07-13T07:46:14Z</time>
      </trkpt>
      <trkpt lat="49.79265" lon="2.35357">
        <ele>90.6</ele>
        <time>2022-07-13T07:46:15Z</time>
      </trkpt>
      <trkpt lat="49.79265" lon="2.35354">
        <ele>90.5</ele>
        <time>2022-07-13T07:46:16Z</time>
      </trkpt>
      <trkpt lat="49.79265" lon="2.35352">
        <ele>90.5</ele>
        <time>2022-07-13T07:46:17Z</time>
      </trkpt>
      <trkpt lat="49.79266" lon="2.35351">
        <ele>90.5</ele>
        <time>2022-07-13T07:46:18Z</time>
      </trkpt>
      <trkpt lat="49.79267" lon="2.35347">
        <ele>90.5</ele>
        <time>2022-07-13T07:46:20Z</time>
      </trkpt>
      <trkpt lat="49.79267" lon="2.35345">
        <ele>90.5</ele>
        <time>2022-07-13T07:46:21Z</time>
      </trkpt>
      <trkpt lat="49.79267" lon="2.35343">
        <ele>90.5</ele>
        <time>2022-07-13T07:46:22Z</time>
      </trkpt>
      <trkpt lat="49.79268" lon="2.35341">
        <ele>90.5</ele>
        <time>2022-07-13T07:46:23Z</time>
      </trkpt>
      <trkpt lat="49.79268" lon="2.35338">
        <ele>90.5</ele>
        <time>2022-07-13T07:46:24Z</time>
      </trkpt>
      <trkpt lat="49.79269" lon="2.35336">
        <ele>90.5</ele>
        <time>2022-07-13T07:46:26Z</time>
      </trkpt>
      <trkpt lat="49.79269" lon="2.35333">
        <ele>90.5</ele>
        <time>2022-07-13T07:46:27Z</time>
      </trkpt>
      <trkpt lat="49.7927" lon="2.3533">
        <ele>90.5</ele>
        <time>2022-07-13T07:46:28Z</time>
      </trkpt>
      <trkpt lat="49.7927" lon="2.35328">
        <ele>90.6</ele>
        <time>2022-07-13T07:46:29Z</time>
      </trkpt>
      <trkpt lat="49.7927" lon="2.35326">
        <ele>90.6</ele>
        <time>2022-07-13T07:46:30Z</time>
      </trkpt>
      <trkpt lat="49.79271" lon="2.35323">
        <ele>90.6</ele>
        <time>2022-07-13T07:46:31Z</time>
      </trkpt>
      <trkpt lat="49.79271" lon="2.35321">
        <ele>90.7</ele>
        <time>2022-07-13T07:46:32Z</time>
      </trkpt>
      <trkpt lat="49.79272" lon="2.35319">
        <ele>90.7</ele>
        <time>2022-07-13T07:46:33Z</time>
      </trkpt>
      <trkpt lat="49.79272" lon="2.35316">
        <ele>90.7</ele>
        <time>2022-07-13T07:46:34Z</time>
      </trkpt>
      <trkpt lat="49.79273" lon="2.35314">
        <ele>90.8</ele>
        <time>2022-07-13T07:46:35Z</time>
      </trkpt>
      <trkpt lat="49.79273" lon="2.35312">
        <ele>90.8</ele>
        <time>2022-07-13T07:46:36Z</time>
      </trkpt>
      <trkpt lat="49.79274" lon="2.35309">
        <ele>90.8</ele>
        <time>2022-07-13T07:46:37Z</time>
      </trkpt>
      <trkpt lat="49.79274" lon="2.35308">
        <ele>90.9</ele>
        <time>2022-07-13T07:46:38Z</time>
      </trkpt>
      <trkpt lat="49.79274" lon="2.35307">
        <ele>90.9</ele>
        <time>2022-07-13T07:46:39Z</time>
      </trkpt>
      <trkpt lat="49.79274" lon="2.35304">
        <ele>91</ele>
        <time>2022-07-13T07:46:41Z</time>
      </trkpt>
      <trkpt lat="49.79275" lon="2.35302">
        <ele>91</ele>
        <time>2022-07-13T07:46:42Z</time>
      </trkpt>
      <trkpt lat="49.79275" lon="2.353">
        <ele>91.1</ele>
        <time>2022-07-13T07:46:43Z</time>
      </trkpt>
      <trkpt lat="49.79276" lon="2.35298">
        <ele>91.1</ele>
        <time>2022-07-13T07:46:44Z</time>
      </trkpt>
      <trkpt lat="49.79276" lon="2.35296">
        <ele>91.2</ele>
        <time>2022-07-13T07:46:45Z</time>
      </trkpt>
      <trkpt lat="49.79277" lon="2.35294">
        <ele>91.2</ele>
        <time>2022-07-13T07:46:46Z</time>
      </trkpt>
      <trkpt lat="49.79277" lon="2.35292">
        <ele>91.3</ele>
        <time>2022-07-13T07:46:47Z</time>
      </trkpt>
      <trkpt lat="49.79278" lon="2.3529">
        <ele>91.3</ele>
        <time>2022-07-13T07:46:48Z</time>
      </trkpt>
      <trkpt lat="49.79278" lon="2.35288">
        <ele>91.4</ele>
        <time>2022-07-13T07:46:49Z</time>
      </trkpt>
      <trkpt lat="49.79279" lon="2.35286">
        <ele>91.5</ele>
        <time>2022-07-13T07:46:50Z</time>
      </trkpt>
      <trkpt lat="49.7928" lon="2.35284">
        <ele>91.5</ele>
        <time>2022-07-13T07:46:52Z</time>
      </trkpt>
      <trkpt lat="49.79281" lon="2.35282">
        <ele>91.6</ele>
        <time>2022-07-13T07:46:53Z</time>
      </trkpt>
      <trkpt lat="49.79281" lon="2.3528">
        <ele>91.7</ele>
        <time>2022-07-13T07:46:54Z</time>
      </trkpt>
      <trkpt lat="49.79282" lon="2.35278">
        <ele>91.7</ele>
        <time>2022-07-13T07:46:55Z</time>
      </trkpt>
      <trkpt lat="49.79283" lon="2.35276">
        <ele>91.8</ele>
        <time>2022-07-13T07:46:56Z</time>
      </trkpt>
      <trkpt lat="49.79284" lon="2.35274">
        <ele>91.9</ele>
        <time>2022-07-13T07:46:57Z</time>
      </trkpt>
      <trkpt lat="49.79285" lon="2.35271">
        <ele>92</ele>
        <time>2022-07-13T07:46:59Z</time>
      </trkpt>
      <trkpt lat="49.79285" lon="2.3527">
        <ele>92</ele>
        <time>2022-07-13T07:47:00Z</time>
      </trkpt>
      <trkpt lat="49.79286" lon="2.35269">
        <ele>92.1</ele>
        <time>2022-07-13T07:47:01Z</time>
      </trkpt>
      <trkpt lat="49.79286" lon="2.35266">
        <ele>92.2</ele>
        <time>2022-07-13T07:47:02Z</time>
      </trkpt>
      <trkpt lat="49.79287" lon="2.35264">
        <ele>92.2</ele>
        <time>2022-07-13T07:47:03Z</time>
      </trkpt>
      <trkpt lat="49.79287" lon="2.35263">
        <ele>92.2</ele>
        <time>2022-07-13T07:47:04Z</time>
      </trkpt>
      <trkpt lat="49.79287" lon="2.3526">
        <ele>92.3</ele>
        <time>2022-07-13T07:47:05Z</time>
      </trkpt>
      <trkpt lat="49.79287" lon="2.35259">
        <ele>92.4</ele>
        <time>2022-07-13T07:47:06Z</time>
      </trkpt>
      <trkpt lat="49.79287" lon="2.35257">
        <ele>92.4</ele>
        <time>2022-07-13T07:47:07Z</time>
      </trkpt>
      <trkpt lat="49.79287" lon="2.35255">
        <ele>92.5</ele>
        <time>2022-07-13T07:47:08Z</time>
      </trkpt>
      <trkpt lat="49.79287" lon="2.35253">
        <ele>92.5</ele>
        <time>2022-07-13T07:47:09Z</time>
      </trkpt>
      <trkpt lat="49.79286" lon="2.35251">
        <ele>92.6</ele>
        <time>2022-07-13T07:47:11Z</time>
      </trkpt>
      <trkpt lat="49.79286" lon="2.35248">
        <ele>92.6</ele>
        <time>2022-07-13T07:47:12Z</time>
      </trkpt>
      <trkpt lat="49.79285" lon="2.35246">
        <ele>92.7</ele>
        <time>2022-07-13T07:47:13Z</time>
      </trkpt>
      <trkpt lat="49.79284" lon="2.35244">
        <ele>92.8</ele>
        <time>2022-07-13T07:47:14Z</time>
      </trkpt>
      <trkpt lat="49.79283" lon="2.3524">
        <ele>92.9</ele>
        <time>2022-07-13T07:47:15Z</time>
      </trkpt>
      <trkpt lat="49.79282" lon="2.35238">
        <ele>92.9</ele>
        <time>2022-07-13T07:47:16Z</time>
      </trkpt>
      <trkpt lat="49.79281" lon="2.35236">
        <ele>93</ele>
        <time>2022-07-13T07:47:17Z</time>
      </trkpt>
      <trkpt lat="49.7928" lon="2.35234">
        <ele>93</ele>
        <time>2022-07-13T07:47:18Z</time>
      </trkpt>
      <trkpt lat="49.79279" lon="2.35232">
        <ele>93</ele>
        <time>2022-07-13T07:47:19Z</time>
      </trkpt>
      <trkpt lat="49.79278" lon="2.35229">
        <ele>93.1</ele>
        <time>2022-07-13T07:47:21Z</time>
      </trkpt>
      <trkpt lat="49.79277" lon="2.35227">
        <ele>93.2</ele>
        <time>2022-07-13T07:47:22Z</time>
      </trkpt>
      <trkpt lat="49.79276" lon="2.35225">
        <ele>93.2</ele>
        <time>2022-07-13T07:47:23Z</time>
      </trkpt>
      <trkpt lat="49.79275" lon="2.35223">
        <ele>93.2</ele>
        <time>2022-07-13T07:47:24Z</time>
      </trkpt>
      <trkpt lat="49.79274" lon="2.35221">
        <ele>93.3</ele>
        <time>2022-07-13T07:47:25Z</time>
      </trkpt>
      <trkpt lat="49.79274" lon="2.35219">
        <ele>93.3</ele>
        <time>2022-07-13T07:47:27Z</time>
      </trkpt>
      <trkpt lat="49.79273" lon="2.35217">
        <ele>93.3</ele>
        <time>2022-07-13T07:47:28Z</time>
      </trkpt>
      <trkpt lat="49.79274" lon="2.35215">
        <ele>93.3</ele>
        <time>2022-07-13T07:47:29Z</time>
      </trkpt>
      <trkpt lat="49.79274" lon="2.35212">
        <ele>93.4</ele>
        <time>2022-07-13T07:47:30Z</time>
      </trkpt>
      <trkpt lat="49.79275" lon="2.35211">
        <ele>93.4</ele>
        <time>2022-07-13T07:47:31Z</time>
      </trkpt>
      <trkpt lat="49.79275" lon="2.3521">
        <ele>93.4</ele>
        <time>2022-07-13T07:47:32Z</time>
      </trkpt>
      <trkpt lat="49.79276" lon="2.35208">
        <ele>93.4</ele>
        <time>2022-07-13T07:47:34Z</time>
      </trkpt>
      <trkpt lat="49.79276" lon="2.35206">
        <ele>93.4</ele>
        <time>2022-07-13T07:47:35Z</time>
      </trkpt>
      <trkpt lat="49.79276" lon="2.35204">
        <ele>93.4</ele>
        <time>2022-07-13T07:47:36Z</time>
      </trkpt>
      <trkpt lat="49.79277" lon="2.35203">
        <ele>93.4</ele>
        <time>2022-07-13T07:47:37Z</time>
      </trkpt>
      <trkpt lat="49.79277" lon="2.35201">
        <ele>93.5</ele>
        <time>2022-07-13T07:47:38Z</time>
      </trkpt>
      <trkpt lat="49.79278" lon="2.35199">
        <ele>93.5</ele>
        <time>2022-07-13T07:47:40Z</time>
      </trkpt>
      <trkpt lat="49.79279" lon="2.35198">
        <ele>93.5</ele>
        <time>2022-07-13T07:47:41Z</time>
      </trkpt>
      <trkpt lat="49.79279" lon="2.35197">
        <ele>93.5</ele>
        <time>2022-07-13T07:47:42Z</time>
      </trkpt>
      <trkpt lat="49.7928" lon="2.35195">
        <ele>93.4</ele>
        <time>2022-07-13T07:47:44Z</time>
      </trkpt>
      <trkpt lat="49.79281" lon="2.35194">
        <ele>93.4</ele>
        <time>2022-07-13T07:47:45Z</time>
      </trkpt>
      <trkpt lat="49.79282" lon="2.35193">
        <ele>93.4</ele>
        <time>2022-07-13T07:47:46Z</time>
      </trkpt>
      <trkpt lat="49.79282" lon="2.35191">
        <ele>93.4</ele>
        <time>2022-07-13T07:47:47Z</time>
      </trkpt>
      <trkpt lat="49.79283" lon="2.3519">
        <ele>93.4</ele>
        <time>2022-07-13T07:47:48Z</time>
      </trkpt>
      <trkpt lat="49.79284" lon="2.35189">
        <ele>93.4</ele>
        <time>2022-07-13T07:47:49Z</time>
      </trkpt>
      <trkpt lat="49.79284" lon="2.35188">
        <ele>93.4</ele>
        <time>2022-07-13T07:47:50Z</time>
      </trkpt>
      <trkpt lat="49.79285" lon="2.35186">
        <ele>93.4</ele>
        <time>2022-07-13T07:47:52Z</time>
      </trkpt>
      <trkpt lat="49.79286" lon="2.35185">
        <ele>93.4</ele>
        <time>2022-07-13T07:47:53Z</time>
      </trkpt>
      <trkpt lat="49.79287" lon="2.35182">
        <ele>93.3</ele>
        <time>2022-07-13T07:47:54Z</time>
      </trkpt>
      <trkpt lat="49.79288" lon="2.35181">
        <ele>93.3</ele>
        <time>2022-07-13T07:47:55Z</time>
      </trkpt>
      <trkpt lat="49.79288" lon="2.3518">
        <ele>93.3</ele>
        <time>2022-07-13T07:47:56Z</time>
      </trkpt>
      <trkpt lat="49.79289" lon="2.35177">
        <ele>93.3</ele>
        <time>2022-07-13T07:47:57Z</time>
      </trkpt>
      <trkpt lat="49.79289" lon="2.35176">
        <ele>93.3</ele>
        <time>2022-07-13T07:47:58Z</time>
      </trkpt>
      <trkpt lat="49.7929" lon="2.35175">
        <ele>93.3</ele>
        <time>2022-07-13T07:47:59Z</time>
      </trkpt>
      <trkpt lat="49.7929" lon="2.35172">
        <ele>93.2</ele>
        <time>2022-07-13T07:48:00Z</time>
      </trkpt>
      <trkpt lat="49.79291" lon="2.3517">
        <ele>93.2</ele>
        <time>2022-07-13T07:48:01Z</time>
      </trkpt>
      <trkpt lat="49.79291" lon="2.35169">
        <ele>93.2</ele>
        <time>2022-07-13T07:48:02Z</time>
      </trkpt>
      <trkpt lat="49.79291" lon="2.35167">
        <ele>93.2</ele>
        <time>2022-07-13T07:48:03Z</time>
      </trkpt>
      <trkpt lat="49.7929" lon="2.35166">
        <ele>93.2</ele>
        <time>2022-07-13T07:48:04Z</time>
      </trkpt>
      <trkpt lat="49.79291" lon="2.35164">
        <ele>93.2</ele>
        <time>2022-07-13T07:48:05Z</time>
      </trkpt>
      <trkpt lat="49.79291" lon="2.35162">
        <ele>93.1</ele>
        <time>2022-07-13T07:48:07Z</time>
      </trkpt>
      <trkpt lat="49.79291" lon="2.3516">
        <ele>93.1</ele>
        <time>2022-07-13T07:48:08Z</time>
      </trkpt>
      <trkpt lat="49.79292" lon="2.35157">
        <ele>93.1</ele>
        <time>2022-07-13T07:48:09Z</time>
      </trkpt>
      <trkpt lat="49.79292" lon="2.35155">
        <ele>93</ele>
        <time>2022-07-13T07:48:10Z</time>
      </trkpt>
      <trkpt lat="49.79292" lon="2.35154">
        <ele>93</ele>
        <time>2022-07-13T07:48:11Z</time>
      </trkpt>
      <trkpt lat="49.79293" lon="2.35151">
        <ele>93</ele>
        <time>2022-07-13T07:48:13Z</time>
      </trkpt>
      <trkpt lat="49.79293" lon="2.35149">
        <ele>93</ele>
        <time>2022-07-13T07:48:14Z</time>
      </trkpt>
      <trkpt lat="49.79293" lon="2.35146">
        <ele>92.9</ele>
        <time>2022-07-13T07:48:15Z</time>
      </trkpt>
      <trkpt lat="49.79294" lon="2.35145">
        <ele>92.9</ele>
        <time>2022-07-13T07:48:16Z</time>
      </trkpt>
      <trkpt lat="49.79294" lon="2.35144">
        <ele>92.9</ele>
        <time>2022-07-13T07:48:17Z</time>
      </trkpt>
      <trkpt lat="49.79294" lon="2.35142">
        <ele>92.8</ele>
        <time>2022-07-13T07:48:18Z</time>
      </trkpt>
      <trkpt lat="49.79294" lon="2.3514">
        <ele>92.8</ele>
        <time>2022-07-13T07:48:19Z</time>
      </trkpt>
      <trkpt lat="49.79294" lon="2.35138">
        <ele>92.8</ele>
        <time>2022-07-13T07:48:21Z</time>
      </trkpt>
      <trkpt lat="49.79294" lon="2.35137">
        <ele>92.7</ele>
        <time>2022-07-13T07:48:22Z</time>
      </trkpt>
      <trkpt lat="49.79295" lon="2.35135">
        <ele>92.7</ele>
        <time>2022-07-13T07:48:23Z</time>
      </trkpt>
      <trkpt lat="49.79295" lon="2.35133">
        <ele>92.7</ele>
        <time>2022-07-13T07:48:24Z</time>
      </trkpt>
      <trkpt lat="49.79296" lon="2.35131">
        <ele>92.6</ele>
        <time>2022-07-13T07:48:25Z</time>
      </trkpt>
      <trkpt lat="49.79296" lon="2.3513">
        <ele>92.6</ele>
        <time>2022-07-13T07:48:26Z</time>
      </trkpt>
      <trkpt lat="49.79297" lon="2.35128">
        <ele>92.6</ele>
        <time>2022-07-13T07:48:27Z</time>
      </trkpt>
      <trkpt lat="49.79298" lon="2.35127">
        <ele>92.5</ele>
        <time>2022-07-13T07:48:28Z</time>
      </trkpt>
      <trkpt lat="49.79299" lon="2.35124">
        <ele>92.5</ele>
        <time>2022-07-13T07:48:29Z</time>
      </trkpt>
      <trkpt lat="49.79299" lon="2.35123">
        <ele>92.4</ele>
        <time>2022-07-13T07:48:30Z</time>
      </trkpt>
      <trkpt lat="49.793" lon="2.35121">
        <ele>92.4</ele>
        <time>2022-07-13T07:48:31Z</time>
      </trkpt>
      <trkpt lat="49.793" lon="2.3512">
        <ele>92.3</ele>
        <time>2022-07-13T07:48:32Z</time>
      </trkpt>
      <trkpt lat="49.79301" lon="2.35117">
        <ele>92.3</ele>
        <time>2022-07-13T07:48:34Z</time>
      </trkpt>
      <trkpt lat="49.79301" lon="2.35115">
        <ele>92.2</ele>
        <time>2022-07-13T07:48:35Z</time>
      </trkpt>
      <trkpt lat="49.79302" lon="2.35112">
        <ele>92.1</ele>
        <time>2022-07-13T07:48:37Z</time>
      </trkpt>
      <trkpt lat="49.79302" lon="2.35111">
        <ele>92.1</ele>
        <time>2022-07-13T07:48:38Z</time>
      </trkpt>
      <trkpt lat="49.79303" lon="2.3511">
        <ele>92.1</ele>
        <time>2022-07-13T07:48:39Z</time>
      </trkpt>
      <trkpt lat="49.79303" lon="2.35108">
        <ele>92</ele>
        <time>2022-07-13T07:48:40Z</time>
      </trkpt>
      <trkpt lat="49.79304" lon="2.35107">
        <ele>92</ele>
        <time>2022-07-13T07:48:41Z</time>
      </trkpt>
      <trkpt lat="49.79304" lon="2.35105">
        <ele>91.9</ele>
        <time>2022-07-13T07:48:42Z</time>
      </trkpt>
      <trkpt lat="49.79305" lon="2.35102">
        <ele>91.8</ele>
        <time>2022-07-13T07:48:44Z</time>
      </trkpt>
      <trkpt lat="49.79306" lon="2.35101">
        <ele>91.8</ele>
        <time>2022-07-13T07:48:45Z</time>
      </trkpt>
      <trkpt lat="49.79306" lon="2.351">
        <ele>91.7</ele>
        <time>2022-07-13T07:48:46Z</time>
      </trkpt>
      <trkpt lat="49.79306" lon="2.35098">
        <ele>91.7</ele>
        <time>2022-07-13T07:48:47Z</time>
      </trkpt>
      <trkpt lat="49.79306" lon="2.35097">
        <ele>91.6</ele>
        <time>2022-07-13T07:48:48Z</time>
      </trkpt>
      <trkpt lat="49.79307" lon="2.35094">
        <ele>91.6</ele>
        <time>2022-07-13T07:48:50Z</time>
      </trkpt>
      <trkpt lat="49.79307" lon="2.35093">
        <ele>91.5</ele>
        <time>2022-07-13T07:48:51Z</time>
      </trkpt>
      <trkpt lat="49.79308" lon="2.35091">
        <ele>91.4</ele>
        <time>2022-07-13T07:48:52Z</time>
      </trkpt>
      <trkpt lat="49.79308" lon="2.35089">
        <ele>91.4</ele>
        <time>2022-07-13T07:48:53Z</time>
      </trkpt>
      <trkpt lat="49.79309" lon="2.35086">
        <ele>91.3</ele>
        <time>2022-07-13T07:48:55Z</time>
      </trkpt>
      <trkpt lat="49.79309" lon="2.35085">
        <ele>91.2</ele>
        <time>2022-07-13T07:48:56Z</time>
      </trkpt>
      <trkpt lat="49.79309" lon="2.35084">
        <ele>91.2</ele>
        <time>2022-07-13T07:48:57Z</time>
      </trkpt>
      <trkpt lat="49.79309" lon="2.35082">
        <ele>91.1</ele>
        <time>2022-07-13T07:48:58Z</time>
      </trkpt>
      <trkpt lat="49.7931" lon="2.3508">
        <ele>91</ele>
        <time>2022-07-13T07:48:59Z</time>
      </trkpt>
      <trkpt lat="49.7931" lon="2.35078">
        <ele>91</ele>
        <time>2022-07-13T07:49:00Z</time>
      </trkpt>
      <trkpt lat="49.7931" lon="2.35075">
        <ele>90.9</ele>
        <time>2022-07-13T07:49:01Z</time>
      </trkpt>
      <trkpt lat="49.79311" lon="2.35074">
        <ele>90.8</ele>
        <time>2022-07-13T07:49:03Z</time>
      </trkpt>
      <trkpt lat="49.79311" lon="2.35073">
        <ele>90.8</ele>
        <time>2022-07-13T07:49:04Z</time>
      </trkpt>
      <trkpt lat="49.79311" lon="2.35071">
        <ele>90.7</ele>
        <time>2022-07-13T07:49:05Z</time>
      </trkpt>
      <trkpt lat="49.79312" lon="2.35069">
        <ele>90.6</ele>
        <time>2022-07-13T07:49:06Z</time>
      </trkpt>
      <trkpt lat="49.79313" lon="2.35066">
        <ele>90.5</ele>
        <time>2022-07-13T07:49:07Z</time>
      </trkpt>
      <trkpt lat="49.79313" lon="2.35064">
        <ele>90.4</ele>
        <time>2022-07-13T07:49:08Z</time>
      </trkpt>
      <trkpt lat="49.79314" lon="2.35062">
        <ele>90.3</ele>
        <time>2022-07-13T07:49:10Z</time>
      </trkpt>
      <trkpt lat="49.79315" lon="2.3506">
        <ele>90.2</ele>
        <time>2022-07-13T07:49:11Z</time>
      </trkpt>
      <trkpt lat="49.79316" lon="2.35057">
        <ele>90.1</ele>
        <time>2022-07-13T07:49:12Z</time>
      </trkpt>
      <trkpt lat="49.79316" lon="2.35056">
        <ele>90</ele>
        <time>2022-07-13T07:49:13Z</time>
      </trkpt>
      <trkpt lat="49.79317" lon="2.35055">
        <ele>90</ele>
        <time>2022-07-13T07:49:14Z</time>
      </trkpt>
      <trkpt lat="49.79318" lon="2.35052">
        <ele>89.8</ele>
        <time>2022-07-13T07:49:15Z</time>
      </trkpt>
      <trkpt lat="49.79318" lon="2.3505">
        <ele>89.7</ele>
        <time>2022-07-13T07:49:17Z</time>
      </trkpt>
      <trkpt lat="49.79319" lon="2.35049">
        <ele>89.7</ele>
        <time>2022-07-13T07:49:18Z</time>
      </trkpt>
      <trkpt lat="49.79319" lon="2.35047">
        <ele>89.6</ele>
        <time>2022-07-13T07:49:19Z</time>
      </trkpt>
      <trkpt lat="49.79319" lon="2.35045">
        <ele>89.5</ele>
        <time>2022-07-13T07:49:20Z</time>
      </trkpt>
      <trkpt lat="49.7932" lon="2.35042">
        <ele>89.4</ele>
        <time>2022-07-13T07:49:21Z</time>
      </trkpt>
      <trkpt lat="49.7932" lon="2.35041">
        <ele>89.3</ele>
        <time>2022-07-13T07:49:23Z</time>
      </trkpt>
      <trkpt lat="49.79321" lon="2.3504">
        <ele>89.2</ele>
        <time>2022-07-13T07:49:24Z</time>
      </trkpt>
      <trkpt lat="49.79321" lon="2.35038">
        <ele>89.2</ele>
        <time>2022-07-13T07:49:25Z</time>
      </trkpt>
      <trkpt lat="49.79322" lon="2.35036">
        <ele>89.1</ele>
        <time>2022-07-13T07:49:26Z</time>
      </trkpt>
      <trkpt lat="49.79322" lon="2.35035">
        <ele>89</ele>
        <time>2022-07-13T07:49:27Z</time>
      </trkpt>
      <trkpt lat="49.79323" lon="2.35032">
        <ele>88.9</ele>
        <time>2022-07-13T07:49:28Z</time>
      </trkpt>
      <trkpt lat="49.79324" lon="2.35031">
        <ele>88.8</ele>
        <time>2022-07-13T07:49:30Z</time>
      </trkpt>
      <trkpt lat="49.79324" lon="2.3503">
        <ele>88.7</ele>
        <time>2022-07-13T07:49:31Z</time>
      </trkpt>
      <trkpt lat="49.79325" lon="2.35027">
        <ele>88.6</ele>
        <time>2022-07-13T07:49:32Z</time>
      </trkpt>
      <trkpt lat="49.79326" lon="2.35026">
        <ele>88.5</ele>
        <time>2022-07-13T07:49:33Z</time>
      </trkpt>
      <trkpt lat="49.79326" lon="2.35025">
        <ele>88.4</ele>
        <time>2022-07-13T07:49:34Z</time>
      </trkpt>
      <trkpt lat="49.79327" lon="2.35023">
        <ele>88.3</ele>
        <time>2022-07-13T07:49:36Z</time>
      </trkpt>
      <trkpt lat="49.79328" lon="2.35021">
        <ele>88.2</ele>
        <time>2022-07-13T07:49:37Z</time>
      </trkpt>
      <trkpt lat="49.79329" lon="2.35019">
        <ele>88.1</ele>
        <time>2022-07-13T07:49:38Z</time>
      </trkpt>
      <trkpt lat="49.79329" lon="2.35018">
        <ele>88</ele>
        <time>2022-07-13T07:49:39Z</time>
      </trkpt>
      <trkpt lat="49.7933" lon="2.35016">
        <ele>87.9</ele>
        <time>2022-07-13T07:49:40Z</time>
      </trkpt>
      <trkpt lat="49.79331" lon="2.35014">
        <ele>87.8</ele>
        <time>2022-07-13T07:49:41Z</time>
      </trkpt>
      <trkpt lat="49.79332" lon="2.35013">
        <ele>87.7</ele>
        <time>2022-07-13T07:49:42Z</time>
      </trkpt>
      <trkpt lat="49.79332" lon="2.35011">
        <ele>87.6</ele>
        <time>2022-07-13T07:49:44Z</time>
      </trkpt>
      <trkpt lat="49.79332" lon="2.3501">
        <ele>87.5</ele>
        <time>2022-07-13T07:49:45Z</time>
      </trkpt>
      <trkpt lat="49.79333" lon="2.35009">
        <ele>87.4</ele>
        <time>2022-07-13T07:49:46Z</time>
      </trkpt>
      <trkpt lat="49.79333" lon="2.35007">
        <ele>87.3</ele>
        <time>2022-07-13T07:49:47Z</time>
      </trkpt>
      <trkpt lat="49.79334" lon="2.35004">
        <ele>87.2</ele>
        <time>2022-07-13T07:49:48Z</time>
      </trkpt>
      <trkpt lat="49.79335" lon="2.35003">
        <ele>87.1</ele>
        <time>2022-07-13T07:49:49Z</time>
      </trkpt>
      <trkpt lat="49.79335" lon="2.35002">
        <ele>87</ele>
        <time>2022-07-13T07:49:50Z</time>
      </trkpt>
      <trkpt lat="49.79336" lon="2.34999">
        <ele>86.8</ele>
        <time>2022-07-13T07:49:51Z</time>
      </trkpt>
      <trkpt lat="49.79336" lon="2.34998">
        <ele>86.7</ele>
        <time>2022-07-13T07:49:53Z</time>
      </trkpt>
      <trkpt lat="49.79337" lon="2.34996">
        <ele>86.7</ele>
        <time>2022-07-13T07:49:54Z</time>
      </trkpt>
      <trkpt lat="49.79338" lon="2.34993">
        <ele>86.5</ele>
        <time>2022-07-13T07:49:55Z</time>
      </trkpt>
      <trkpt lat="49.79338" lon="2.34992">
        <ele>86.4</ele>
        <time>2022-07-13T07:49:56Z</time>
      </trkpt>
      <trkpt lat="49.79339" lon="2.34991">
        <ele>86.3</ele>
        <time>2022-07-13T07:49:57Z</time>
      </trkpt>
      <trkpt lat="49.79339" lon="2.34989">
        <ele>86.2</ele>
        <time>2022-07-13T07:49:58Z</time>
      </trkpt>
      <trkpt lat="49.7934" lon="2.34988">
        <ele>86.1</ele>
        <time>2022-07-13T07:49:59Z</time>
      </trkpt>
      <trkpt lat="49.7934" lon="2.34987">
        <ele>86</ele>
        <time>2022-07-13T07:50:00Z</time>
      </trkpt>
      <trkpt lat="49.79341" lon="2.34984">
        <ele>85.9</ele>
        <time>2022-07-13T07:50:02Z</time>
      </trkpt>
      <trkpt lat="49.79342" lon="2.34983">
        <ele>85.8</ele>
        <time>2022-07-13T07:50:03Z</time>
      </trkpt>
      <trkpt lat="49.79343" lon="2.3498">
        <ele>85.6</ele>
        <time>2022-07-13T07:50:04Z</time>
      </trkpt>
      <trkpt lat="49.79343" lon="2.34979">
        <ele>85.5</ele>
        <time>2022-07-13T07:50:06Z</time>
      </trkpt>
      <trkpt lat="49.79344" lon="2.34978">
        <ele>85.4</ele>
        <time>2022-07-13T07:50:07Z</time>
      </trkpt>
      <trkpt lat="49.79345" lon="2.34976">
        <ele>85.3</ele>
        <time>2022-07-13T07:50:08Z</time>
      </trkpt>
      <trkpt lat="49.79345" lon="2.34975">
        <ele>85.2</ele>
        <time>2022-07-13T07:50:09Z</time>
      </trkpt>
      <trkpt lat="49.79346" lon="2.34974">
        <ele>85.1</ele>
        <time>2022-07-13T07:50:10Z</time>
      </trkpt>
      <trkpt lat="49.79347" lon="2.34972">
        <ele>84.9</ele>
        <time>2022-07-13T07:50:12Z</time>
      </trkpt>
      <trkpt lat="49.79348" lon="2.3497">
        <ele>84.8</ele>
        <time>2022-07-13T07:50:13Z</time>
      </trkpt>
      <trkpt lat="49.7935" lon="2.34968">
        <ele>84.6</ele>
        <time>2022-07-13T07:50:14Z</time>
      </trkpt>
      <trkpt lat="49.7935" lon="2.34967">
        <ele>84.6</ele>
        <time>2022-07-13T07:50:15Z</time>
      </trkpt>
      <trkpt lat="49.79351" lon="2.34966">
        <ele>84.5</ele>
        <time>2022-07-13T07:50:16Z</time>
      </trkpt>
      <trkpt lat="49.79352" lon="2.34965">
        <ele>84.4</ele>
        <time>2022-07-13T07:50:17Z</time>
      </trkpt>
      <trkpt lat="49.79353" lon="2.34963">
        <ele>84.2</ele>
        <time>2022-07-13T07:50:19Z</time>
      </trkpt>
      <trkpt lat="49.79354" lon="2.34962">
        <ele>84.1</ele>
        <time>2022-07-13T07:50:20Z</time>
      </trkpt>
      <trkpt lat="49.79355" lon="2.3496">
        <ele>84</ele>
        <time>2022-07-13T07:50:21Z</time>
      </trkpt>
      <trkpt lat="49.79355" lon="2.34959">
        <ele>83.9</ele>
        <time>2022-07-13T07:50:22Z</time>
      </trkpt>
      <trkpt lat="49.79357" lon="2.34957">
        <ele>83.7</ele>
        <time>2022-07-13T07:50:23Z</time>
      </trkpt>
      <trkpt lat="49.79357" lon="2.34956">
        <ele>83.7</ele>
        <time>2022-07-13T07:50:25Z</time>
      </trkpt>
      <trkpt lat="49.79358" lon="2.34955">
        <ele>83.6</ele>
        <time>2022-07-13T07:50:26Z</time>
      </trkpt>
      <trkpt lat="49.79359" lon="2.34953">
        <ele>83.5</ele>
        <time>2022-07-13T07:50:27Z</time>
      </trkpt>
      <trkpt lat="49.79359" lon="2.34952">
        <ele>83.4</ele>
        <time>2022-07-13T07:50:29Z</time>
      </trkpt>
      <trkpt lat="49.7936" lon="2.3495">
        <ele>83.3</ele>
        <time>2022-07-13T07:50:30Z</time>
      </trkpt>
      <trkpt lat="49.7936" lon="2.34949">
        <ele>83.2</ele>
        <time>2022-07-13T07:50:31Z</time>
      </trkpt>
      <trkpt lat="49.79361" lon="2.34948">
        <ele>83.1</ele>
        <time>2022-07-13T07:50:32Z</time>
      </trkpt>
      <trkpt lat="49.79361" lon="2.34946">
        <ele>83</ele>
        <time>2022-07-13T07:50:33Z</time>
      </trkpt>
      <trkpt lat="49.79362" lon="2.34945">
        <ele>82.9</ele>
        <time>2022-07-13T07:50:35Z</time>
      </trkpt>
      <trkpt lat="49.79363" lon="2.34944">
        <ele>82.8</ele>
        <time>2022-07-13T07:50:36Z</time>
      </trkpt>
      <trkpt lat="49.79364" lon="2.34942">
        <ele>82.7</ele>
        <time>2022-07-13T07:50:37Z</time>
      </trkpt>
      <trkpt lat="49.79364" lon="2.34941">
        <ele>82.7</ele>
        <time>2022-07-13T07:50:38Z</time>
      </trkpt>
      <trkpt lat="49.79364" lon="2.3494">
        <ele>82.6</ele>
        <time>2022-07-13T07:50:39Z</time>
      </trkpt>
      <trkpt lat="49.79364" lon="2.34939">
        <ele>82.5</ele>
        <time>2022-07-13T07:50:40Z</time>
      </trkpt>
      <trkpt lat="49.79364" lon="2.34937">
        <ele>82.4</ele>
        <time>2022-07-13T07:50:42Z</time>
      </trkpt>
      <trkpt lat="49.79364" lon="2.34936">
        <ele>82.4</ele>
        <time>2022-07-13T07:50:43Z</time>
      </trkpt>
      <trkpt lat="49.79364" lon="2.34935">
        <ele>82.3</ele>
        <time>2022-07-13T07:50:44Z</time>
      </trkpt>
      <trkpt lat="49.79364" lon="2.34933">
        <ele>82.3</ele>
        <time>2022-07-13T07:50:46Z</time>
      </trkpt>
      <trkpt lat="49.79364" lon="2.34932">
        <ele>82.2</ele>
        <time>2022-07-13T07:50:47Z</time>
      </trkpt>
      <trkpt lat="49.79363" lon="2.34932">
        <ele>82.1</ele>
        <time>2022-07-13T07:50:48Z</time>
      </trkpt>
      <trkpt lat="49.79362" lon="2.34931">
        <ele>82.1</ele>
        <time>2022-07-13T07:50:49Z</time>
      </trkpt>
      <trkpt lat="49.79361" lon="2.34931">
        <ele>82</ele>
        <time>2022-07-13T07:50:50Z</time>
      </trkpt>
      <trkpt lat="49.7936" lon="2.34931">
        <ele>81.9</ele>
        <time>2022-07-13T07:50:51Z</time>
      </trkpt>
      <trkpt lat="49.7936" lon="2.34931">
        <ele>81.9</ele>
        <time>2022-07-13T07:50:52Z</time>
      </trkpt>
      <trkpt lat="49.79359" lon="2.34932">
        <ele>81.9</ele>
        <time>2022-07-13T07:50:53Z</time>
      </trkpt>
      <trkpt lat="49.79359" lon="2.34932">
        <ele>81.8</ele>
        <time>2022-07-13T07:50:54Z</time>
      </trkpt>
      <trkpt lat="49.79359" lon="2.34932">
        <ele>81.8</ele>
        <time>2022-07-13T07:50:55Z</time>
      </trkpt>
      <trkpt lat="49.79359" lon="2.34932">
        <ele>81.8</ele>
        <time>2022-07-13T07:50:56Z</time>
      </trkpt>
      <trkpt lat="49.79358" lon="2.34933">
        <ele>81.8</ele>
        <time>2022-07-13T07:50:57Z</time>
      </trkpt>
      <trkpt lat="49.79358" lon="2.34933">
        <ele>81.8</ele>
        <time>2022-07-13T07:50:58Z</time>
      </trkpt>
      <trkpt lat="49.79358" lon="2.34933">
        <ele>81.8</ele>
        <time>2022-07-13T07:50:59Z</time>
      </trkpt>
      <trkpt lat="49.79358" lon="2.34933">
        <ele>81.7</ele>
        <time>2022-07-13T07:51:00Z</time>
      </trkpt>
      <trkpt lat="49.79358" lon="2.34933">
        <ele>81.7</ele>
        <time>2022-07-13T07:51:01Z</time>
      </trkpt>
      <trkpt lat="49.79358" lon="2.34933">
        <ele>81.7</ele>
        <time>2022-07-13T07:51:02Z</time>
      </trkpt>
      <trkpt lat="49.79358" lon="2.34933">
        <ele>81.7</ele>
        <time>2022-07-13T07:51:03Z</time>
      </trkpt>
      <trkpt lat="49.79358" lon="2.34933">
        <ele>81.7</ele>
        <time>2022-07-13T07:51:04Z</time>
      </trkpt>
      <trkpt lat="49.79358" lon="2.34934">
        <ele>81.7</ele>
        <time>2022-07-13T07:51:05Z</time>
      </trkpt>
      <trkpt lat="49.79358" lon="2.34934">
        <ele>81.7</ele>
        <time>2022-07-13T07:51:06Z</time>
      </trkpt>
      <trkpt lat="49.79358" lon="2.34934">
        <ele>81.7</ele>
        <time>2022-07-13T07:51:07Z</time>
      </trkpt>
      <trkpt lat="49.79358" lon="2.34935">
        <ele>81.7</ele>
        <time>2022-07-13T07:51:08Z</time>
      </trkpt>
      <trkpt lat="49.79358" lon="2.34935">
        <ele>81.7</ele>
        <time>2022-07-13T07:51:09Z</time>
      </trkpt>
      <trkpt lat="49.79358" lon="2.34935">
        <ele>81.7</ele>
        <time>2022-07-13T07:51:10Z</time>
      </trkpt>
      <trkpt lat="49.79358" lon="2.34935">
        <ele>81.7</ele>
        <time>2022-07-13T07:51:11Z</time>
      </trkpt>
      <trkpt lat="49.79358" lon="2.34935">
        <ele>81.7</ele>
        <time>2022-07-13T07:51:12Z</time>
      </trkpt>
      <trkpt lat="49.79358" lon="2.34935">
        <ele>81.7</ele>
        <time>2022-07-13T07:51:13Z</time>
      </trkpt>
      <trkpt lat="49.79358" lon="2.34935">
        <ele>81.7</ele>
        <time>2022-07-13T07:51:14Z</time>
      </trkpt>
      <trkpt lat="49.79358" lon="2.34935">
        <ele>81.6</ele>
        <time>2022-07-13T07:51:15Z</time>
      </trkpt>
      <trkpt lat="49.79358" lon="2.34935">
        <ele>81.6</ele>
        <time>2022-07-13T07:51:16Z</time>
      </trkpt>
      <trkpt lat="49.79358" lon="2.34935">
        <ele>81.6</ele>
        <time>2022-07-13T07:51:17Z</time>
      </trkpt>
      <trkpt lat="49.79358" lon="2.34935">
        <ele>81.6</ele>
        <time>2022-07-13T07:51:18Z</time>
      </trkpt>
      <trkpt lat="49.79358" lon="2.34935">
        <ele>81.6</ele>
        <time>2022-07-13T07:51:19Z</time>
      </trkpt>
      <trkpt lat="49.79358" lon="2.34935">
        <ele>81.6</ele>
        <time>2022-07-13T07:51:20Z</time>
      </trkpt>
      <trkpt lat="49.79358" lon="2.34935">
        <ele>81.6</ele>
        <time>2022-07-13T07:51:21Z</time>
      </trkpt>
      <trkpt lat="49.79358" lon="2.34935">
        <ele>81.6</ele>
        <time>2022-07-13T07:51:22Z</time>
      </trkpt>
      <trkpt lat="49.79358" lon="2.34935">
        <ele>81.6</ele>
        <time>2022-07-13T07:51:23Z</time>
      </trkpt>
      <trkpt lat="49.79358" lon="2.34935">
        <ele>81.6</ele>
        <time>2022-07-13T07:51:24Z</time>
      </trkpt>
      <trkpt lat="49.79358" lon="2.34935">
        <ele>81.6</ele>
        <time>2022-07-13T07:51:25Z</time>
      </trkpt>
      <trkpt lat="49.79358" lon="2.34935">
        <ele>81.6</ele>
        <time>2022-07-13T07:51:26Z</time>
      </trkpt>
      <trkpt lat="49.79358" lon="2.34935">
        <ele>81.6</ele>
        <time>2022-07-13T07:51:27Z</time>
      </trkpt>
      <trkpt lat="49.79358" lon="2.34935">
        <ele>81.6</ele>
        <time>2022-07-13T07:51:28Z</time>
      </trkpt>
      <trkpt lat="49.79358" lon="2.34935">
        <ele>81.6</ele>
        <time>2022-07-13T07:51:29Z</time>
      </trkpt>
      <trkpt lat="49.79358" lon="2.34935">
        <ele>81.6</ele>
        <time>2022-07-13T07:51:30Z</time>
      </trkpt>
      <trkpt lat="49.79358" lon="2.34935">
        <ele>81.6</ele>
        <time>2022-07-13T07:51:31Z</time>
      </trkpt>
      <trkpt lat="49.79358" lon="2.34935">
        <ele>81.6</ele>
        <time>2022-07-13T07:51:32Z</time>
      </trkpt>
      <trkpt lat="49.79358" lon="2.34935">
        <ele>81.6</ele>
        <time>2022-07-13T07:51:33Z</time>
      </trkpt>
      <trkpt lat="49.79358" lon="2.34935">
        <ele>81.6</ele>
        <time>2022-07-13T07:51:34Z</time>
      </trkpt>
      <trkpt lat="49.79358" lon="2.34935">
        <ele>81.6</ele>
        <time>2022-07-13T07:51:35Z</time>
      </trkpt>
      <trkpt lat="49.79358" lon="2.34935">
        <ele>81.6</ele>
        <time>2022-07-13T07:51:36Z</time>
      </trkpt>
      <trkpt lat="49.79358" lon="2.34935">
        <ele>81.6</ele>
        <time>2022-07-13T07:51:37Z</time>
      </trkpt>
      <trkpt lat="49.79358" lon="2.34935">
        <ele>81.6</ele>
        <time>2022-07-13T07:51:38Z</time>
      </trkpt>
      <trkpt lat="49.79358" lon="2.34935">
        <ele>81.6</ele>
        <time>2022-07-13T07:51:39Z</time>
      </trkpt>
      <trkpt lat="49.79358" lon="2.34935">
        <ele>81.6</ele>
        <time>2022-07-13T07:51:40Z</time>
      </trkpt>
      <trkpt lat="49.79356" lon="2.34938">
        <ele>81.5</ele>
        <time>2022-07-13T07:51:41Z</time>
      </trkpt>
      <trkpt lat="49.79356" lon="2.34938">
        <ele>81.4</ele>
        <time>2022-07-13T07:51:42Z</time>
      </trkpt>
      <trkpt lat="49.79355" lon="2.34938">
        <ele>81.4</ele>
        <time>2022-07-13T07:51:43Z</time>
      </trkpt>
      <trkpt lat="49.79355" lon="2.34937">
        <ele>81.3</ele>
        <time>2022-07-13T07:51:44Z</time>
      </trkpt>
      <trkpt lat="49.79355" lon="2.34936">
        <ele>81.3</ele>
        <time>2022-07-13T07:51:45Z</time>
      </trkpt>
      <trkpt lat="49.79355" lon="2.34935">
        <ele>81.3</ele>
        <time>2022-07-13T07:51:47Z</time>
      </trkpt>
      <trkpt lat="49.79355" lon="2.34934">
        <ele>81.3</ele>
        <time>2022-07-13T07:51:48Z</time>
      </trkpt>
      <trkpt lat="49.79355" lon="2.34933">
        <ele>81.3</ele>
        <time>2022-07-13T07:51:49Z</time>
      </trkpt>
      <trkpt lat="49.79354" lon="2.3493">
        <ele>81.3</ele>
        <time>2022-07-13T07:51:51Z</time>
      </trkpt>
      <trkpt lat="49.79354" lon="2.34929">
        <ele>81.3</ele>
        <time>2022-07-13T07:51:52Z</time>
      </trkpt>
      <trkpt lat="49.79354" lon="2.34927">
        <ele>81.3</ele>
        <time>2022-07-13T07:51:53Z</time>
      </trkpt>
      <trkpt lat="49.79354" lon="2.34927">
        <ele>81.3</ele>
        <time>2022-07-13T07:51:54Z</time>
      </trkpt>
      <trkpt lat="49.79354" lon="2.34926">
        <ele>81.3</ele>
        <time>2022-07-13T07:51:55Z</time>
      </trkpt>
      <trkpt lat="49.79354" lon="2.34926">
        <ele>81.3</ele>
        <time>2022-07-13T07:51:56Z</time>
      </trkpt>
      <trkpt lat="49.79354" lon="2.34927">
        <ele>81.3</ele>
        <time>2022-07-13T07:51:57Z</time>
      </trkpt>
      <trkpt lat="49.79354" lon="2.34927">
        <ele>81.3</ele>
        <time>2022-07-13T07:51:58Z</time>
      </trkpt>
      <trkpt lat="49.79354" lon="2.34927">
        <ele>81.3</ele>
        <time>2022-07-13T07:51:59Z</time>
      </trkpt>
      <trkpt lat="49.79354" lon="2.34927">
        <ele>81.3</ele>
        <time>2022-07-13T07:52:00Z</time>
      </trkpt>
      <trkpt lat="49.79354" lon="2.34928">
        <ele>81.3</ele>
        <time>2022-07-13T07:52:01Z</time>
      </trkpt>
      <trkpt lat="49.79354" lon="2.34928">
        <ele>81.3</ele>
        <time>2022-07-13T07:52:02Z</time>
      </trkpt>
      <trkpt lat="49.79354" lon="2.34928">
        <ele>81.3</ele>
        <time>2022-07-13T07:52:03Z</time>
      </trkpt>
      <trkpt lat="49.79354" lon="2.34928">
        <ele>81.3</ele>
        <time>2022-07-13T07:52:04Z</time>
      </trkpt>
      <trkpt lat="49.79354" lon="2.34928">
        <ele>81.3</ele>
        <time>2022-07-13T07:52:05Z</time>
      </trkpt>
      <trkpt lat="49.79354" lon="2.34928">
        <ele>81.3</ele>
        <time>2022-07-13T07:52:06Z</time>
      </trkpt>
      <trkpt lat="49.79354" lon="2.34928">
        <ele>81.3</ele>
        <time>2022-07-13T07:52:07Z</time>
      </trkpt>
      <trkpt lat="49.79354" lon="2.34928">
        <ele>81.3</ele>
        <time>2022-07-13T07:52:08Z</time>
      </trkpt>
      <trkpt lat="49.79354" lon="2.34928">
        <ele>81.3</ele>
        <time>2022-07-13T07:52:09Z</time>
      </trkpt>
      <trkpt lat="49.79354" lon="2.34929">
        <ele>81.3</ele>
        <time>2022-07-13T07:52:10Z</time>
      </trkpt>
      <trkpt lat="49.79354" lon="2.34929">
        <ele>81.3</ele>
        <time>2022-07-13T07:52:11Z</time>
      </trkpt>
      <trkpt lat="49.79354" lon="2.34929">
        <ele>81.3</ele>
        <time>2022-07-13T07:52:12Z</time>
      </trkpt>
      <trkpt lat="49.79354" lon="2.34929">
        <ele>81.3</ele>
        <time>2022-07-13T07:52:13Z</time>
      </trkpt>
      <trkpt lat="49.79354" lon="2.34929">
        <ele>81.3</ele>
        <time>2022-07-13T07:52:14Z</time>
      </trkpt>
      <trkpt lat="49.79354" lon="2.34929">
        <ele>81.3</ele>
        <time>2022-07-13T07:52:15Z</time>
      </trkpt>
      <trkpt lat="49.79354" lon="2.34929">
        <ele>81.3</ele>
        <time>2022-07-13T07:52:16Z</time>
      </trkpt>
      <trkpt lat="49.79354" lon="2.34929">
        <ele>81.3</ele>
        <time>2022-07-13T07:52:17Z</time>
      </trkpt>
      <trkpt lat="49.79354" lon="2.34929">
        <ele>81.3</ele>
        <time>2022-07-13T07:52:18Z</time>
      </trkpt>
      <trkpt lat="49.79354" lon="2.34929">
        <ele>81.3</ele>
        <time>2022-07-13T07:52:19Z</time>
      </trkpt>
      <trkpt lat="49.79354" lon="2.34929">
        <ele>81.3</ele>
        <time>2022-07-13T07:52:20Z</time>
      </trkpt>
      <trkpt lat="49.79354" lon="2.34929">
        <ele>81.3</ele>
        <time>2022-07-13T07:52:21Z</time>
      </trkpt>
      <trkpt lat="49.79354" lon="2.34929">
        <ele>81.3</ele>
        <time>2022-07-13T07:52:22Z</time>
      </trkpt>
      <trkpt lat="49.79354" lon="2.34929">
        <ele>81.3</ele>
        <time>2022-07-13T07:52:23Z</time>
      </trkpt>
      <trkpt lat="49.79354" lon="2.34929">
        <ele>81.3</ele>
        <time>2022-07-13T07:52:24Z</time>
      </trkpt>
      <trkpt lat="49.79354" lon="2.34929">
        <ele>81.3</ele>
        <time>2022-07-13T07:52:25Z</time>
      </trkpt>
      <trkpt lat="49.79354" lon="2.34929">
        <ele>81.3</ele>
        <time>2022-07-13T07:52:26Z</time>
      </trkpt>
      <trkpt lat="49.79354" lon="2.34929">
        <ele>81.3</ele>
        <time>2022-07-13T07:52:27Z</time>
      </trkpt>
      <trkpt lat="49.79354" lon="2.34929">
        <ele>81.3</ele>
        <time>2022-07-13T07:52:28Z</time>
      </trkpt>
      <trkpt lat="49.79354" lon="2.34929">
        <ele>81.3</ele>
        <time>2022-07-13T07:52:29Z</time>
      </trkpt>
      <trkpt lat="49.79354" lon="2.34929">
        <ele>81.3</ele>
        <time>2022-07-13T07:52:30Z</time>
      </trkpt>
      <trkpt lat="49.79354" lon="2.34929">
        <ele>81.3</ele>
        <time>2022-07-13T07:52:31Z</time>
      </trkpt>
      <trkpt lat="49.79354" lon="2.34929">
        <ele>81.3</ele>
        <time>2022-07-13T07:52:32Z</time>
      </trkpt>
      <trkpt lat="49.79354" lon="2.34929">
        <ele>81.3</ele>
        <time>2022-07-13T07:52:33Z</time>
      </trkpt>
      <trkpt lat="49.79354" lon="2.34929">
        <ele>81.3</ele>
        <time>2022-07-13T07:52:34Z</time>
      </trkpt>
      <trkpt lat="49.79354" lon="2.34929">
        <ele>81.3</ele>
        <time>2022-07-13T07:52:35Z</time>
      </trkpt>
      <trkpt lat="49.79354" lon="2.34929">
        <ele>81.3</ele>
        <time>2022-07-13T07:52:36Z</time>
      </trkpt>
      <trkpt lat="49.79354" lon="2.34929">
        <ele>81.3</ele>
        <time>2022-07-13T07:52:37Z</time>
      </trkpt>
      <trkpt lat="49.79354" lon="2.34929">
        <ele>81.3</ele>
        <time>2022-07-13T07:52:38Z</time>
      </trkpt>
      <trkpt lat="49.79354" lon="2.34929">
        <ele>81.3</ele>
        <time>2022-07-13T07:52:39Z</time>
      </trkpt>
      <trkpt lat="49.79354" lon="2.34929">
        <ele>81.3</ele>
        <time>2022-07-13T07:52:40Z</time>
      </trkpt>
      <trkpt lat="49.79354" lon="2.34929">
        <ele>81.3</ele>
        <time>2022-07-13T07:52:41Z</time>
      </trkpt>
      <trkpt lat="49.79354" lon="2.34929">
        <ele>81.3</ele>
        <time>2022-07-13T07:52:42Z</time>
      </trkpt>
      <trkpt lat="49.79354" lon="2.34929">
        <ele>81.3</ele>
        <time>2022-07-13T07:52:43Z</time>
      </trkpt>
      <trkpt lat="49.79354" lon="2.34929">
        <ele>81.3</ele>
        <time>2022-07-13T07:52:44Z</time>
      </trkpt>
      <trkpt lat="49.79354" lon="2.34929">
        <ele>81.3</ele>
        <time>2022-07-13T07:52:45Z</time>
      </trkpt>
      <trkpt lat="49.79354" lon="2.34929">
        <ele>81.3</ele>
        <time>2022-07-13T07:52:46Z</time>
      </trkpt>
      <trkpt lat="49.79354" lon="2.34929">
        <ele>81.3</ele>
        <time>2022-07-13T07:52:47Z</time>
      </trkpt>
      <trkpt lat="49.79354" lon="2.34929">
        <ele>81.3</ele>
        <time>2022-07-13T07:52:48Z</time>
      </trkpt>
      <trkpt lat="49.79354" lon="2.34929">
        <ele>81.3</ele>
        <time>2022-07-13T07:52:49Z</time>
      </trkpt>
      <trkpt lat="49.79354" lon="2.34929">
        <ele>81.3</ele>
        <time>2022-07-13T07:52:50Z</time>
      </trkpt>
      <trkpt lat="49.79354" lon="2.34929">
        <ele>81.3</ele>
        <time>2022-07-13T07:52:51Z</time>
      </trkpt>
      <trkpt lat="49.79354" lon="2.34929">
        <ele>81.3</ele>
        <time>2022-07-13T07:52:52Z</time>
      </trkpt>
      <trkpt lat="49.79354" lon="2.34929">
        <ele>81.3</ele>
        <time>2022-07-13T07:52:53Z</time>
      </trkpt>
      <trkpt lat="49.79354" lon="2.34929">
        <ele>81.3</ele>
        <time>2022-07-13T07:52:54Z</time>
      </trkpt>
      <trkpt lat="49.79354" lon="2.34929">
        <ele>81.3</ele>
        <time>2022-07-13T07:52:55Z</time>
      </trkpt>
      <trkpt lat="49.79354" lon="2.34929">
        <ele>81.3</ele>
        <time>2022-07-13T07:52:56Z</time>
      </trkpt>
      <trkpt lat="49.79354" lon="2.34929">
        <ele>81.3</ele>
        <time>2022-07-13T07:52:57Z</time>
      </trkpt>
      <trkpt lat="49.79354" lon="2.34929">
        <ele>81.3</ele>
        <time>2022-07-13T07:52:58Z</time>
      </trkpt>
      <trkpt lat="49.79354" lon="2.34929">
        <ele>81.3</ele>
        <time>2022-07-13T07:52:59Z</time>
      </trkpt>
      <trkpt lat="49.79354" lon="2.34929">
        <ele>81.3</ele>
        <time>2022-07-13T07:53:00Z</time>
      </trkpt>
      <trkpt lat="49.79354" lon="2.34929">
        <ele>81.3</ele>
        <time>2022-07-13T07:53:01Z</time>
      </trkpt>
      <trkpt lat="49.79354" lon="2.34929">
        <ele>81.3</ele>
        <time>2022-07-13T07:53:02Z</time>
      </trkpt>
      <trkpt lat="49.79354" lon="2.34929">
        <ele>81.3</ele>
        <time>2022-07-13T07:53:03Z</time>
      </trkpt>
      <trkpt lat="49.79354" lon="2.34929">
        <ele>81.3</ele>
        <time>2022-07-13T07:53:04Z</time>
      </trkpt>
      <trkpt lat="49.79354" lon="2.34929">
        <ele>81.3</ele>
        <time>2022-07-13T07:53:05Z</time>
      </trkpt>
      <trkpt lat="49.79354" lon="2.34929">
        <ele>81.3</ele>
        <time>2022-07-13T07:53:06Z</time>
      </trkpt>
      <trkpt lat="49.79354" lon="2.34929">
        <ele>81.3</ele>
        <time>2022-07-13T07:53:07Z</time>
      </trkpt>
      <trkpt lat="49.79354" lon="2.34929">
        <ele>81.3</ele>
        <time>2022-07-13T07:53:08Z</time>
      </trkpt>
      <trkpt lat="49.79354" lon="2.34929">
        <ele>81.3</ele>
        <time>2022-07-13T07:53:09Z</time>
      </trkpt>
      <trkpt lat="49.79354" lon="2.34929">
        <ele>81.3</ele>
        <time>2022-07-13T07:53:10Z</time>
      </trkpt>
      <trkpt lat="49.79354" lon="2.34929">
        <ele>81.3</ele>
        <time>2022-07-13T07:53:11Z</time>
      </trkpt>
      <trkpt lat="49.79354" lon="2.34929">
        <ele>81.3</ele>
        <time>2022-07-13T07:53:12Z</time>
      </trkpt>
      <trkpt lat="49.79354" lon="2.34929">
        <ele>81.3</ele>
        <time>2022-07-13T07:53:13Z</time>
      </trkpt>
      <trkpt lat="49.79354" lon="2.34929">
        <ele>81.3</ele>
        <time>2022-07-13T07:53:14Z</time>
      </trkpt>
      <trkpt lat="49.79354" lon="2.34929">
        <ele>81.3</ele>
        <time>2022-07-13T07:53:15Z</time>
      </trkpt>
      <trkpt lat="49.79354" lon="2.34929">
        <ele>81.3</ele>
        <time>2022-07-13T07:53:16Z</time>
      </trkpt>
      <trkpt lat="49.79354" lon="2.34929">
        <ele>81.3</ele>
        <time>2022-07-13T07:53:17Z</time>
      </trkpt>
      <trkpt lat="49.79354" lon="2.34929">
        <ele>81.3</ele>
        <time>2022-07-13T07:53:18Z</time>
      </trkpt>
      <trkpt lat="49.79354" lon="2.34929">
        <ele>81.3</ele>
        <time>2022-07-13T07:53:19Z</time>
      </trkpt>
      <trkpt lat="49.79354" lon="2.34929">
        <ele>81.3</ele>
        <time>2022-07-13T07:53:20Z</time>
      </trkpt>
      <trkpt lat="49.79354" lon="2.34929">
        <ele>81.3</ele>
        <time>2022-07-13T07:53:21Z</time>
      </trkpt>
      <trkpt lat="49.79354" lon="2.34929">
        <ele>81.3</ele>
        <time>2022-07-13T07:53:22Z</time>
      </trkpt>
      <trkpt lat="49.79354" lon="2.34929">
        <ele>81.3</ele>
        <time>2022-07-13T07:53:23Z</time>
      </trkpt>
      <trkpt lat="49.79354" lon="2.34929">
        <ele>81.3</ele>
        <time>2022-07-13T07:53:24Z</time>
      </trkpt>
      <trkpt lat="49.79354" lon="2.34929">
        <ele>81.3</ele>
        <time>2022-07-13T07:53:25Z</time>
      </trkpt>
      <trkpt lat="49.79354" lon="2.34929">
        <ele>81.3</ele>
        <time>2022-07-13T07:53:26Z</time>
      </trkpt>
      <trkpt lat="49.79354" lon="2.34929">
        <ele>81.3</ele>
        <time>2022-07-13T07:53:27Z</time>
      </trkpt>
      <trkpt lat="49.79354" lon="2.34929">
        <ele>81.3</ele>
        <time>2022-07-13T07:53:28Z</time>
      </trkpt>
      <trkpt lat="49.79354" lon="2.34929">
        <ele>81.3</ele>
        <time>2022-07-13T07:53:29Z</time>
      </trkpt>
      <trkpt lat="49.79354" lon="2.34929">
        <ele>81.3</ele>
        <time>2022-07-13T07:53:30Z</time>
      </trkpt>
      <trkpt lat="49.79354" lon="2.34929">
        <ele>81.3</ele>
        <time>2022-07-13T07:53:31Z</time>
      </trkpt>
      <trkpt lat="49.79354" lon="2.34929">
        <ele>81.3</ele>
        <time>2022-07-13T07:53:32Z</time>
      </trkpt>
      <trkpt lat="49.79354" lon="2.34929">
        <ele>81.3</ele>
        <time>2022-07-13T07:53:33Z</time>
      </trkpt>
      <trkpt lat="49.79354" lon="2.34929">
        <ele>81.3</ele>
        <time>2022-07-13T07:53:34Z</time>
      </trkpt>
      <trkpt lat="49.79354" lon="2.34929">
        <ele>81.3</ele>
        <time>2022-07-13T07:53:35Z</time>
      </trkpt>
      <trkpt lat="49.79354" lon="2.34929">
        <ele>81.3</ele>
        <time>2022-07-13T07:53:36Z</time>
      </trkpt>
      <trkpt lat="49.79354" lon="2.34929">
        <ele>81.3</ele>
        <time>2022-07-13T07:53:37Z</time>
      </trkpt>
      <trkpt lat="49.79354" lon="2.34929">
        <ele>81.3</ele>
        <time>2022-07-13T07:53:38Z</time>
      </trkpt>
      <trkpt lat="49.79354" lon="2.34929">
        <ele>81.3</ele>
        <time>2022-07-13T07:53:39Z</time>
      </trkpt>
      <trkpt lat="49.79354" lon="2.34929">
        <ele>81.3</ele>
        <time>2022-07-13T07:53:40Z</time>
      </trkpt>
      <trkpt lat="49.79354" lon="2.34929">
        <ele>81.3</ele>
        <time>2022-07-13T07:53:41Z</time>
      </trkpt>
      <trkpt lat="49.79354" lon="2.34929">
        <ele>81.3</ele>
        <time>2022-07-13T07:53:42Z</time>
      </trkpt>
      <trkpt lat="49.79354" lon="2.34929">
        <ele>81.3</ele>
        <time>2022-07-13T07:53:43Z</time>
      </trkpt>
      <trkpt lat="49.79354" lon="2.34929">
        <ele>81.3</ele>
        <time>2022-07-13T07:53:44Z</time>
      </trkpt>
      <trkpt lat="49.79354" lon="2.34929">
        <ele>81.3</ele>
        <time>2022-07-13T07:53:45Z</time>
      </trkpt>
      <trkpt lat="49.79354" lon="2.34929">
        <ele>81.3</ele>
        <time>2022-07-13T07:53:46Z</time>
      </trkpt>
      <trkpt lat="49.79354" lon="2.34929">
        <ele>81.3</ele>
        <time>2022-07-13T07:53:47Z</time>
      </trkpt>
      <trkpt lat="49.79354" lon="2.34929">
        <ele>81.3</ele>
        <time>2022-07-13T07:53:48Z</time>
      </trkpt>
      <trkpt lat="49.79354" lon="2.34929">
        <ele>81.3</ele>
        <time>2022-07-13T07:53:49Z</time>
      </trkpt>
      <trkpt lat="49.79354" lon="2.34929">
        <ele>81.3</ele>
        <time>2022-07-13T07:53:50Z</time>
      </trkpt>
      <trkpt lat="49.79354" lon="2.34929">
        <ele>81.3</ele>
        <time>2022-07-13T07:53:51Z</time>
      </trkpt>
      <trkpt lat="49.79354" lon="2.34929">
        <ele>81.3</ele>
        <time>2022-07-13T07:53:52Z</time>
      </trkpt>
      <trkpt lat="49.79354" lon="2.34929">
        <ele>81.3</ele>
        <time>2022-07-13T07:53:53Z</time>
      </trkpt>
      <trkpt lat="49.79354" lon="2.34929">
        <ele>81.3</ele>
        <time>2022-07-13T07:53:54Z</time>
      </trkpt>
      <trkpt lat="49.79354" lon="2.34929">
        <ele>81.3</ele>
        <time>2022-07-13T07:53:55Z</time>
      </trkpt>
      <trkpt lat="49.79354" lon="2.34929">
        <ele>81.3</ele>
        <time>2022-07-13T07:53:56Z</time>
      </trkpt>
      <trkpt lat="49.79354" lon="2.34929">
        <ele>81.3</ele>
        <time>2022-07-13T07:53:57Z</time>
      </trkpt>
      <trkpt lat="49.79354" lon="2.34929">
        <ele>81.3</ele>
        <time>2022-07-13T07:53:58Z</time>
      </trkpt>
      <trkpt lat="49.79354" lon="2.34929">
        <ele>81.3</ele>
        <time>2022-07-13T07:53:59Z</time>
      </trkpt>
      <trkpt lat="49.79354" lon="2.34929">
        <ele>81.3</ele>
        <time>2022-07-13T07:54:00Z</time>
      </trkpt>
      <trkpt lat="49.79354" lon="2.34929">
        <ele>81.3</ele>
        <time>2022-07-13T07:54:01Z</time>
      </trkpt>
      <trkpt lat="49.79354" lon="2.34929">
        <ele>81.3</ele>
        <time>2022-07-13T07:54:02Z</time>
      </trkpt>
      <trkpt lat="49.79354" lon="2.34929">
        <ele>81.3</ele>
        <time>2022-07-13T07:54:03Z</time>
      </trkpt>
      <trkpt lat="49.79354" lon="2.34929">
        <ele>81.3</ele>
        <time>2022-07-13T07:54:04Z</time>
      </trkpt>
      <trkpt lat="49.79354" lon="2.34929">
        <ele>81.3</ele>
        <time>2022-07-13T07:54:05Z</time>
      </trkpt>
      <trkpt lat="49.79354" lon="2.34929">
        <ele>81.3</ele>
        <time>2022-07-13T07:54:06Z</time>
      </trkpt>
      <trkpt lat="49.79354" lon="2.34929">
        <ele>81.3</ele>
        <time>2022-07-13T07:54:07Z</time>
      </trkpt>
      <trkpt lat="49.79354" lon="2.34929">
        <ele>81.3</ele>
        <time>2022-07-13T07:54:08Z</time>
      </trkpt>
      <trkpt lat="49.79354" lon="2.34929">
        <ele>81.3</ele>
        <time>2022-07-13T07:54:09Z</time>
      </trkpt>
      <trkpt lat="49.79354" lon="2.34929">
        <ele>81.3</ele>
        <time>2022-07-13T07:54:10Z</time>
      </trkpt>
      <trkpt lat="49.79354" lon="2.34929">
        <ele>81.3</ele>
        <time>2022-07-13T07:54:11Z</time>
      </trkpt>
      <trkpt lat="49.79354" lon="2.34929">
        <ele>81.3</ele>
        <time>2022-07-13T07:54:12Z</time>
      </trkpt>
      <trkpt lat="49.79354" lon="2.34929">
        <ele>81.3</ele>
        <time>2022-07-13T07:54:13Z</time>
      </trkpt>
      <trkpt lat="49.79354" lon="2.34929">
        <ele>81.3</ele>
        <time>2022-07-13T07:54:14Z</time>
      </trkpt>
      <trkpt lat="49.79354" lon="2.34929">
        <ele>81.3</ele>
        <time>2022-07-13T07:54:15Z</time>
      </trkpt>
      <trkpt lat="49.79354" lon="2.34929">
        <ele>81.3</ele>
        <time>2022-07-13T07:54:16Z</time>
      </trkpt>
      <trkpt lat="49.79354" lon="2.34929">
        <ele>81.3</ele>
        <time>2022-07-13T07:54:17Z</time>
      </trkpt>
      <trkpt lat="49.79354" lon="2.34929">
        <ele>81.3</ele>
        <time>2022-07-13T07:54:18Z</time>
      </trkpt>
      <trkpt lat="49.79354" lon="2.34929">
        <ele>81.3</ele>
        <time>2022-07-13T07:54:19Z</time>
      </trkpt>
      <trkpt lat="49.79354" lon="2.34929">
        <ele>81.3</ele>
        <time>2022-07-13T07:54:20Z</time>
      </trkpt>
      <trkpt lat="49.79354" lon="2.34929">
        <ele>81.3</ele>
        <time>2022-07-13T07:54:21Z</time>
      </trkpt>
      <trkpt lat="49.79354" lon="2.34929">
        <ele>81.3</ele>
        <time>2022-07-13T07:54:22Z</time>
      </trkpt>
      <trkpt lat="49.79354" lon="2.34929">
        <ele>81.3</ele>
        <time>2022-07-13T07:54:23Z</time>
      </trkpt>
      <trkpt lat="49.79354" lon="2.34929">
        <ele>81.3</ele>
        <time>2022-07-13T07:54:24Z</time>
      </trkpt>
      <trkpt lat="49.79354" lon="2.34929">
        <ele>81.3</ele>
        <time>2022-07-13T07:54:25Z</time>
      </trkpt>
      <trkpt lat="49.79354" lon="2.34929">
        <ele>81.3</ele>
        <time>2022-07-13T07:54:26Z</time>
      </trkpt>
      <trkpt lat="49.79354" lon="2.34929">
        <ele>81.3</ele>
        <time>2022-07-13T07:54:27Z</time>
      </trkpt>
      <trkpt lat="49.79354" lon="2.34929">
        <ele>81.3</ele>
        <time>2022-07-13T07:54:28Z</time>
      </trkpt>
      <trkpt lat="49.79354" lon="2.34929">
        <ele>81.3</ele>
        <time>2022-07-13T07:54:29Z</time>
      </trkpt>
      <trkpt lat="49.79354" lon="2.34929">
        <ele>81.3</ele>
        <time>2022-07-13T07:54:30Z</time>
      </trkpt>
      <trkpt lat="49.79354" lon="2.34929">
        <ele>81.3</ele>
        <time>2022-07-13T07:54:31Z</time>
      </trkpt>
      <trkpt lat="49.79354" lon="2.34929">
        <ele>81.3</ele>
        <time>2022-07-13T07:54:32Z</time>
      </trkpt>
      <trkpt lat="49.79356" lon="2.34932">
        <ele>81.3</ele>
        <time>2022-07-13T07:54:33Z</time>
      </trkpt>
      <trkpt lat="49.79357" lon="2.34933">
        <ele>81.3</ele>
        <time>2022-07-13T07:54:34Z</time>
      </trkpt>
      <trkpt lat="49.79357" lon="2.34933">
        <ele>81.3</ele>
        <time>2022-07-13T07:54:35Z</time>
      </trkpt>
      <trkpt lat="49.79358" lon="2.34933">
        <ele>81.3</ele>
        <time>2022-07-13T07:54:36Z</time>
      </trkpt>
      <trkpt lat="49.79358" lon="2.34933">
        <ele>81.3</ele>
        <time>2022-07-13T07:54:37Z</time>
      </trkpt>
      <trkpt lat="49.79358" lon="2.34933">
        <ele>81.3</ele>
        <time>2022-07-13T07:54:38Z</time>
      </trkpt>
      <trkpt lat="49.79358" lon="2.34933">
        <ele>81.3</ele>
        <time>2022-07-13T07:54:39Z</time>
      </trkpt>
      <trkpt lat="49.79358" lon="2.34933">
        <ele>81.3</ele>
        <time>2022-07-13T07:54:40Z</time>
      </trkpt>
      <trkpt lat="49.79358" lon="2.34933">
        <ele>81.3</ele>
        <time>2022-07-13T07:54:41Z</time>
      </trkpt>
      <trkpt lat="49.79358" lon="2.34933">
        <ele>81.3</ele>
        <time>2022-07-13T07:54:42Z</time>
      </trkpt>
      <trkpt lat="49.79358" lon="2.34933">
        <ele>81.3</ele>
        <time>2022-07-13T07:54:43Z</time>
      </trkpt>
      <trkpt lat="49.79358" lon="2.34933">
        <ele>81.3</ele>
        <time>2022-07-13T07:54:44Z</time>
      </trkpt>
      <trkpt lat="49.79358" lon="2.34933">
        <ele>81.3</ele>
        <time>2022-07-13T07:54:45Z</time>
      </trkpt>
      <trkpt lat="49.79358" lon="2.34933">
        <ele>81.3</ele>
        <time>2022-07-13T07:54:46Z</time>
      </trkpt>
      <trkpt lat="49.79358" lon="2.34933">
        <ele>81.3</ele>
        <time>2022-07-13T07:54:47Z</time>
      </trkpt>
      <trkpt lat="49.79358" lon="2.34933">
        <ele>81.3</ele>
        <time>2022-07-13T07:54:48Z</time>
      </trkpt>
      <trkpt lat="49.79358" lon="2.34933">
        <ele>81.3</ele>
        <time>2022-07-13T07:54:49Z</time>
      </trkpt>
      <trkpt lat="49.79358" lon="2.34933">
        <ele>81.3</ele>
        <time>2022-07-13T07:54:50Z</time>
      </trkpt>
      <trkpt lat="49.79358" lon="2.34933">
        <ele>81.3</ele>
        <time>2022-07-13T07:54:51Z</time>
      </trkpt>
      <trkpt lat="49.79358" lon="2.34933">
        <ele>81.3</ele>
        <time>2022-07-13T07:54:52Z</time>
      </trkpt>
      <trkpt lat="49.79358" lon="2.34933">
        <ele>81.3</ele>
        <time>2022-07-13T07:54:53Z</time>
      </trkpt>
      <trkpt lat="49.79358" lon="2.34933">
        <ele>81.3</ele>
        <time>2022-07-13T07:54:54Z</time>
      </trkpt>
      <trkpt lat="49.79358" lon="2.34933">
        <ele>81.3</ele>
        <time>2022-07-13T07:54:55Z</time>
      </trkpt>
      <trkpt lat="49.79358" lon="2.34933">
        <ele>81.3</ele>
        <time>2022-07-13T07:54:56Z</time>
      </trkpt>
      <trkpt lat="49.79358" lon="2.34933">
        <ele>81.3</ele>
        <time>2022-07-13T07:54:57Z</time>
      </trkpt>
      <trkpt lat="49.79358" lon="2.34933">
        <ele>81.3</ele>
        <time>2022-07-13T07:54:58Z</time>
      </trkpt>
      <trkpt lat="49.79358" lon="2.34933">
        <ele>81.3</ele>
        <time>2022-07-13T07:54:59Z</time>
      </trkpt>
      <trkpt lat="49.79358" lon="2.34933">
        <ele>81.3</ele>
        <time>2022-07-13T07:55:00Z</time>
      </trkpt>
      <trkpt lat="49.79358" lon="2.34933">
        <ele>81.3</ele>
        <time>2022-07-13T07:55:01Z</time>
      </trkpt>
      <trkpt lat="49.79358" lon="2.34933">
        <ele>81.3</ele>
        <time>2022-07-13T07:55:02Z</time>
      </trkpt>
      <trkpt lat="49.79358" lon="2.34933">
        <ele>81.3</ele>
        <time>2022-07-13T07:55:03Z</time>
      </trkpt>
      <trkpt lat="49.79358" lon="2.34933">
        <ele>81.3</ele>
        <time>2022-07-13T07:55:04Z</time>
      </trkpt>
      <trkpt lat="49.79358" lon="2.34933">
        <ele>81.3</ele>
        <time>2022-07-13T07:55:05Z</time>
      </trkpt>
      <trkpt lat="49.79358" lon="2.34933">
        <ele>81.3</ele>
        <time>2022-07-13T07:55:06Z</time>
      </trkpt>
      <trkpt lat="49.79358" lon="2.34933">
        <ele>81.3</ele>
        <time>2022-07-13T07:55:07Z</time>
      </trkpt>
      <trkpt lat="49.79358" lon="2.34933">
        <ele>81.3</ele>
        <time>2022-07-13T07:55:08Z</time>
      </trkpt>
      <trkpt lat="49.79358" lon="2.34933">
        <ele>81.3</ele>
        <time>2022-07-13T07:55:09Z</time>
      </trkpt>
      <trkpt lat="49.79358" lon="2.34933">
        <ele>81.3</ele>
        <time>2022-07-13T07:55:10Z</time>
      </trkpt>
      <trkpt lat="49.79358" lon="2.34933">
        <ele>81.3</ele>
        <time>2022-07-13T07:55:11Z</time>
      </trkpt>
      <trkpt lat="49.79358" lon="2.34933">
        <ele>81.3</ele>
        <time>2022-07-13T07:55:12Z</time>
      </trkpt>
      <trkpt lat="49.79358" lon="2.34933">
        <ele>81.3</ele>
        <time>2022-07-13T07:55:13Z</time>
      </trkpt>
      <trkpt lat="49.79358" lon="2.34933">
        <ele>81.3</ele>
        <time>2022-07-13T07:55:14Z</time>
      </trkpt>
      <trkpt lat="49.79358" lon="2.34933">
        <ele>81.3</ele>
        <time>2022-07-13T07:55:15Z</time>
      </trkpt>
      <trkpt lat="49.79358" lon="2.34933">
        <ele>81.3</ele>
        <time>2022-07-13T07:55:16Z</time>
      </trkpt>
      <trkpt lat="49.79358" lon="2.34933">
        <ele>81.3</ele>
        <time>2022-07-13T07:55:17Z</time>
      </trkpt>
      <trkpt lat="49.79358" lon="2.34933">
        <ele>81.3</ele>
        <time>2022-07-13T07:55:18Z</time>
      </trkpt>
      <trkpt lat="49.79358" lon="2.34933">
        <ele>81.3</ele>
        <time>2022-07-13T07:55:19Z</time>
      </trkpt>
      <trkpt lat="49.79358" lon="2.34933">
        <ele>81.3</ele>
        <time>2022-07-13T07:55:20Z</time>
      </trkpt>
      <trkpt lat="49.79358" lon="2.34933">
        <ele>81.3</ele>
        <time>2022-07-13T07:55:21Z</time>
      </trkpt>
      <trkpt lat="49.79358" lon="2.34933">
        <ele>81.3</ele>
        <time>2022-07-13T07:55:22Z</time>
      </trkpt>
      <trkpt lat="49.79358" lon="2.34933">
        <ele>81.3</ele>
        <time>2022-07-13T07:55:23Z</time>
      </trkpt>
      <trkpt lat="49.79358" lon="2.34933">
        <ele>81.3</ele>
        <time>2022-07-13T07:55:24Z</time>
      </trkpt>
      <trkpt lat="49.79358" lon="2.34933">
        <ele>81.3</ele>
        <time>2022-07-13T07:55:25Z</time>
      </trkpt>
      <trkpt lat="49.79358" lon="2.34933">
        <ele>81.3</ele>
        <time>2022-07-13T07:55:26Z</time>
      </trkpt>
      <trkpt lat="49.79358" lon="2.34933">
        <ele>81.3</ele>
        <time>2022-07-13T07:55:27Z</time>
      </trkpt>
      <trkpt lat="49.79358" lon="2.34933">
        <ele>81.3</ele>
        <time>2022-07-13T07:55:28Z</time>
      </trkpt>
      <trkpt lat="49.79359" lon="2.34931">
        <ele>81.3</ele>
        <time>2022-07-13T07:55:29Z</time>
      </trkpt>
      <trkpt lat="49.7936" lon="2.3493">
        <ele>81.3</ele>
        <time>2022-07-13T07:55:30Z</time>
      </trkpt>
      <trkpt lat="49.7936" lon="2.34929">
        <ele>81.3</ele>
        <time>2022-07-13T07:55:31Z</time>
      </trkpt>
      <trkpt lat="49.7936" lon="2.34929">
        <ele>81.3</ele>
        <time>2022-07-13T07:55:32Z</time>
      </trkpt>
      <trkpt lat="49.7936" lon="2.34928">
        <ele>81.3</ele>
        <time>2022-07-13T07:55:33Z</time>
      </trkpt>
      <trkpt lat="49.7936" lon="2.34928">
        <ele>81.3</ele>
        <time>2022-07-13T07:55:34Z</time>
      </trkpt>
      <trkpt lat="49.7936" lon="2.34927">
        <ele>81.3</ele>
        <time>2022-07-13T07:55:35Z</time>
      </trkpt>
      <trkpt lat="49.7936" lon="2.34926">
        <ele>81.3</ele>
        <time>2022-07-13T07:55:36Z</time>
      </trkpt>
      <trkpt lat="49.79359" lon="2.34926">
        <ele>81.3</ele>
        <time>2022-07-13T07:55:37Z</time>
      </trkpt>
      <trkpt lat="49.79359" lon="2.34925">
        <ele>81.3</ele>
        <time>2022-07-13T07:55:38Z</time>
      </trkpt>
      <trkpt lat="49.79359" lon="2.34925">
        <ele>81.3</ele>
        <time>2022-07-13T07:55:39Z</time>
      </trkpt>
      <trkpt lat="49.79359" lon="2.34924">
        <ele>81.3</ele>
        <time>2022-07-13T07:55:40Z</time>
      </trkpt>
      <trkpt lat="49.79359" lon="2.34924">
        <ele>81.3</ele>
        <time>2022-07-13T07:55:41Z</time>
      </trkpt>
      <trkpt lat="49.79359" lon="2.34923">
        <ele>81.4</ele>
        <time>2022-07-13T07:55:42Z</time>
      </trkpt>
      <trkpt lat="49.79359" lon="2.34922">
        <ele>81.4</ele>
        <time>2022-07-13T07:55:43Z</time>
      </trkpt>
      <trkpt lat="49.79359" lon="2.34921">
        <ele>81.4</ele>
        <time>2022-07-13T07:55:44Z</time>
      </trkpt>
      <trkpt lat="49.79359" lon="2.34922">
        <ele>81.4</ele>
        <time>2022-07-13T07:55:46Z</time>
      </trkpt>
      <trkpt lat="49.79358" lon="2.3492">
        <ele>81.4</ele>
        <time>2022-07-13T07:55:47Z</time>
      </trkpt>
      <trkpt lat="49.79358" lon="2.34918">
        <ele>81.4</ele>
        <time>2022-07-13T07:55:48Z</time>
      </trkpt>
      <trkpt lat="49.79358" lon="2.34917">
        <ele>81.4</ele>
        <time>2022-07-13T07:55:50Z</time>
      </trkpt>
      <trkpt lat="49.79357" lon="2.34916">
        <ele>81.4</ele>
        <time>2022-07-13T07:55:51Z</time>
      </trkpt>
      <trkpt lat="49.79356" lon="2.34914">
        <ele>81.4</ele>
        <time>2022-07-13T07:55:52Z</time>
      </trkpt>
      <trkpt lat="49.79355" lon="2.34913">
        <ele>81.4</ele>
        <time>2022-07-13T07:55:53Z</time>
      </trkpt>
      <trkpt lat="49.79355" lon="2.34912">
        <ele>81.4</ele>
        <time>2022-07-13T07:55:54Z</time>
      </trkpt>
      <trkpt lat="49.79354" lon="2.3491">
        <ele>81.4</ele>
        <time>2022-07-13T07:55:55Z</time>
      </trkpt>
      <trkpt lat="49.79353" lon="2.34907">
        <ele>81.4</ele>
        <time>2022-07-13T07:55:57Z</time>
      </trkpt>
      <trkpt lat="49.79352" lon="2.34905">
        <ele>81.4</ele>
        <time>2022-07-13T07:55:58Z</time>
      </trkpt>
      <trkpt lat="49.7935" lon="2.34903">
        <ele>81.4</ele>
        <time>2022-07-13T07:55:59Z</time>
      </trkpt>
      <trkpt lat="49.7935" lon="2.34902">
        <ele>81.5</ele>
        <time>2022-07-13T07:56:00Z</time>
      </trkpt>
      <trkpt lat="49.79349" lon="2.349">
        <ele>81.5</ele>
        <time>2022-07-13T07:56:01Z</time>
      </trkpt>
      <trkpt lat="49.79347" lon="2.34898">
        <ele>81.5</ele>
        <time>2022-07-13T07:56:02Z</time>
      </trkpt>
      <trkpt lat="49.79346" lon="2.34896">
        <ele>81.5</ele>
        <time>2022-07-13T07:56:03Z</time>
      </trkpt>
      <trkpt lat="49.79345" lon="2.34895">
        <ele>81.5</ele>
        <time>2022-07-13T07:56:04Z</time>
      </trkpt>
      <trkpt lat="49.79344" lon="2.34893">
        <ele>81.5</ele>
        <time>2022-07-13T07:56:05Z</time>
      </trkpt>
      <trkpt lat="49.79343" lon="2.34891">
        <ele>81.5</ele>
        <time>2022-07-13T07:56:07Z</time>
      </trkpt>
      <trkpt lat="49.79342" lon="2.34889">
        <ele>81.5</ele>
        <time>2022-07-13T07:56:08Z</time>
      </trkpt>
      <trkpt lat="49.79341" lon="2.34887">
        <ele>81.5</ele>
        <time>2022-07-13T07:56:09Z</time>
      </trkpt>
      <trkpt lat="49.7934" lon="2.34887">
        <ele>81.5</ele>
        <time>2022-07-13T07:56:10Z</time>
      </trkpt>
      <trkpt lat="49.79339" lon="2.34886">
        <ele>81.6</ele>
        <time>2022-07-13T07:56:11Z</time>
      </trkpt>
      <trkpt lat="49.79338" lon="2.34885">
        <ele>81.6</ele>
        <time>2022-07-13T07:56:12Z</time>
      </trkpt>
      <trkpt lat="49.79336" lon="2.34884">
        <ele>81.6</ele>
        <time>2022-07-13T07:56:13Z</time>
      </trkpt>
      <trkpt lat="49.79335" lon="2.34883">
        <ele>81.6</ele>
        <time>2022-07-13T07:56:14Z</time>
      </trkpt>
      <trkpt lat="49.79333" lon="2.34883">
        <ele>81.6</ele>
        <time>2022-07-13T07:56:16Z</time>
      </trkpt>
      <trkpt lat="49.79332" lon="2.34882">
        <ele>81.6</ele>
        <time>2022-07-13T07:56:17Z</time>
      </trkpt>
      <trkpt lat="49.7933" lon="2.34881">
        <ele>81.7</ele>
        <time>2022-07-13T07:56:18Z</time>
      </trkpt>
      <trkpt lat="49.79328" lon="2.3488">
        <ele>81.7</ele>
        <time>2022-07-13T07:56:19Z</time>
      </trkpt>
      <trkpt lat="49.79327" lon="2.34879">
        <ele>81.7</ele>
        <time>2022-07-13T07:56:20Z</time>
      </trkpt>
      <trkpt lat="49.79327" lon="2.34878">
        <ele>81.7</ele>
        <time>2022-07-13T07:56:21Z</time>
      </trkpt>
      <trkpt lat="49.79325" lon="2.34877">
        <ele>81.7</ele>
        <time>2022-07-13T07:56:22Z</time>
      </trkpt>
      <trkpt lat="49.79324" lon="2.34876">
        <ele>81.7</ele>
        <time>2022-07-13T07:56:24Z</time>
      </trkpt>
      <trkpt lat="49.79322" lon="2.34875">
        <ele>81.7</ele>
        <time>2022-07-13T07:56:25Z</time>
      </trkpt>
      <trkpt lat="49.79321" lon="2.34874">
        <ele>81.8</ele>
        <time>2022-07-13T07:56:26Z</time>
      </trkpt>
      <trkpt lat="49.7932" lon="2.34873">
        <ele>81.8</ele>
        <time>2022-07-13T07:56:27Z</time>
      </trkpt>
      <trkpt lat="49.79319" lon="2.34873">
        <ele>81.8</ele>
        <time>2022-07-13T07:56:28Z</time>
      </trkpt>
      <trkpt lat="49.79317" lon="2.34872">
        <ele>81.8</ele>
        <time>2022-07-13T07:56:29Z</time>
      </trkpt>
      <trkpt lat="49.79316" lon="2.34871">
        <ele>81.8</ele>
        <time>2022-07-13T07:56:30Z</time>
      </trkpt>
      <trkpt lat="49.79314" lon="2.34871">
        <ele>81.8</ele>
        <time>2022-07-13T07:56:31Z</time>
      </trkpt>
      <trkpt lat="49.79313" lon="2.3487">
        <ele>81.8</ele>
        <time>2022-07-13T07:56:32Z</time>
      </trkpt>
      <trkpt lat="49.79311" lon="2.3487">
        <ele>81.9</ele>
        <time>2022-07-13T07:56:33Z</time>
      </trkpt>
      <trkpt lat="49.7931" lon="2.34869">
        <ele>81.9</ele>
        <time>2022-07-13T07:56:34Z</time>
      </trkpt>
      <trkpt lat="49.79309" lon="2.34869">
        <ele>81.9</ele>
        <time>2022-07-13T07:56:35Z</time>
      </trkpt>
      <trkpt lat="49.79307" lon="2.34869">
        <ele>81.9</ele>
        <time>2022-07-13T07:56:37Z</time>
      </trkpt>
      <trkpt lat="49.79306" lon="2.34868">
        <ele>81.9</ele>
        <time>2022-07-13T07:56:38Z</time>
      </trkpt>
      <trkpt lat="49.79304" lon="2.34867">
        <ele>81.9</ele>
        <time>2022-07-13T07:56:39Z</time>
      </trkpt>
      <trkpt lat="49.79303" lon="2.34866">
        <ele>82</ele>
        <time>2022-07-13T07:56:40Z</time>
      </trkpt>
      <trkpt lat="49.79301" lon="2.34865">
        <ele>82</ele>
        <time>2022-07-13T07:56:41Z</time>
      </trkpt>
      <trkpt lat="49.793" lon="2.34864">
        <ele>82</ele>
        <time>2022-07-13T07:56:42Z</time>
      </trkpt>
      <trkpt lat="49.79299" lon="2.34863">
        <ele>82</ele>
        <time>2022-07-13T07:56:43Z</time>
      </trkpt>
      <trkpt lat="49.79297" lon="2.34862">
        <ele>82.1</ele>
        <time>2022-07-13T07:56:44Z</time>
      </trkpt>
      <trkpt lat="49.79296" lon="2.34861">
        <ele>82.1</ele>
        <time>2022-07-13T07:56:45Z</time>
      </trkpt>
      <trkpt lat="49.79294" lon="2.3486">
        <ele>82.1</ele>
        <time>2022-07-13T07:56:46Z</time>
      </trkpt>
      <trkpt lat="49.79293" lon="2.34859">
        <ele>82.1</ele>
        <time>2022-07-13T07:56:47Z</time>
      </trkpt>
      <trkpt lat="49.79292" lon="2.34858">
        <ele>82.1</ele>
        <time>2022-07-13T07:56:48Z</time>
      </trkpt>
      <trkpt lat="49.7929" lon="2.34855">
        <ele>82.2</ele>
        <time>2022-07-13T07:56:49Z</time>
      </trkpt>
      <trkpt lat="49.79289" lon="2.34854">
        <ele>82.2</ele>
        <time>2022-07-13T07:56:50Z</time>
      </trkpt>
      <trkpt lat="49.79288" lon="2.34853">
        <ele>82.2</ele>
        <time>2022-07-13T07:56:52Z</time>
      </trkpt>
      <trkpt lat="49.79286" lon="2.34852">
        <ele>82.2</ele>
        <time>2022-07-13T07:56:53Z</time>
      </trkpt>
      <trkpt lat="49.79285" lon="2.34851">
        <ele>82.3</ele>
        <time>2022-07-13T07:56:54Z</time>
      </trkpt>
      <trkpt lat="49.79283" lon="2.34849">
        <ele>82.3</ele>
        <time>2022-07-13T07:56:55Z</time>
      </trkpt>
      <trkpt lat="49.79282" lon="2.34848">
        <ele>82.3</ele>
        <time>2022-07-13T07:56:56Z</time>
      </trkpt>
      <trkpt lat="49.79281" lon="2.34847">
        <ele>82.3</ele>
        <time>2022-07-13T07:56:57Z</time>
      </trkpt>
      <trkpt lat="49.7928" lon="2.34846">
        <ele>82.3</ele>
        <time>2022-07-13T07:56:58Z</time>
      </trkpt>
      <trkpt lat="49.79278" lon="2.34844">
        <ele>82.4</ele>
        <time>2022-07-13T07:57:00Z</time>
      </trkpt>
      <trkpt lat="49.79277" lon="2.34843">
        <ele>82.4</ele>
        <time>2022-07-13T07:57:01Z</time>
      </trkpt>
      <trkpt lat="49.79276" lon="2.34842">
        <ele>82.4</ele>
        <time>2022-07-13T07:57:02Z</time>
      </trkpt>
      <trkpt lat="49.79274" lon="2.3484">
        <ele>82.4</ele>
        <time>2022-07-13T07:57:03Z</time>
      </trkpt>
      <trkpt lat="49.79274" lon="2.34839">
        <ele>82.4</ele>
        <time>2022-07-13T07:57:04Z</time>
      </trkpt>
      <trkpt lat="49.79273" lon="2.34838">
        <ele>82.4</ele>
        <time>2022-07-13T07:57:05Z</time>
      </trkpt>
      <trkpt lat="49.79271" lon="2.34836">
        <ele>82.5</ele>
        <time>2022-07-13T07:57:07Z</time>
      </trkpt>
      <trkpt lat="49.79271" lon="2.34836">
        <ele>82.5</ele>
        <time>2022-07-13T07:57:08Z</time>
      </trkpt>
      <trkpt lat="49.7927" lon="2.34835">
        <ele>82.5</ele>
        <time>2022-07-13T07:57:09Z</time>
      </trkpt>
      <trkpt lat="49.79269" lon="2.34834">
        <ele>82.5</ele>
        <time>2022-07-13T07:57:10Z</time>
      </trkpt>
      <trkpt lat="49.79268" lon="2.34833">
        <ele>82.5</ele>
        <time>2022-07-13T07:57:11Z</time>
      </trkpt>
      <trkpt lat="49.79267" lon="2.34831">
        <ele>82.5</ele>
        <time>2022-07-13T07:57:13Z</time>
      </trkpt>
      <trkpt lat="49.79266" lon="2.3483">
        <ele>82.6</ele>
        <time>2022-07-13T07:57:14Z</time>
      </trkpt>
      <trkpt lat="49.79265" lon="2.34829">
        <ele>82.6</ele>
        <time>2022-07-13T07:57:15Z</time>
      </trkpt>
      <trkpt lat="49.79265" lon="2.34828">
        <ele>82.6</ele>
        <time>2022-07-13T07:57:16Z</time>
      </trkpt>
      <trkpt lat="49.79264" lon="2.34826">
        <ele>82.6</ele>
        <time>2022-07-13T07:57:17Z</time>
      </trkpt>
      <trkpt lat="49.79263" lon="2.34825">
        <ele>82.6</ele>
        <time>2022-07-13T07:57:18Z</time>
      </trkpt>
      <trkpt lat="49.79262" lon="2.34823">
        <ele>82.7</ele>
        <time>2022-07-13T07:57:19Z</time>
      </trkpt>
      <trkpt lat="49.79261" lon="2.34821">
        <ele>82.7</ele>
        <time>2022-07-13T07:57:20Z</time>
      </trkpt>
      <trkpt lat="49.79259" lon="2.34819">
        <ele>82.7</ele>
        <time>2022-07-13T07:57:21Z</time>
      </trkpt>
      <trkpt lat="49.79259" lon="2.34818">
        <ele>82.7</ele>
        <time>2022-07-13T07:57:23Z</time>
      </trkpt>
      <trkpt lat="49.79258" lon="2.34816">
        <ele>82.8</ele>
        <time>2022-07-13T07:57:24Z</time>
      </trkpt>
      <trkpt lat="49.79257" lon="2.34815">
        <ele>82.8</ele>
        <time>2022-07-13T07:57:25Z</time>
      </trkpt>
      <trkpt lat="49.79256" lon="2.34814">
        <ele>82.8</ele>
        <time>2022-07-13T07:57:26Z</time>
      </trkpt>
      <trkpt lat="49.79254" lon="2.34812">
        <ele>82.9</ele>
        <time>2022-07-13T07:57:27Z</time>
      </trkpt>
      <trkpt lat="49.79254" lon="2.3481">
        <ele>82.9</ele>
        <time>2022-07-13T07:57:28Z</time>
      </trkpt>
      <trkpt lat="49.79253" lon="2.34809">
        <ele>82.9</ele>
        <time>2022-07-13T07:57:29Z</time>
      </trkpt>
      <trkpt lat="49.79252" lon="2.34808">
        <ele>82.9</ele>
        <time>2022-07-13T07:57:31Z</time>
      </trkpt>
      <trkpt lat="49.79251" lon="2.34806">
        <ele>82.9</ele>
        <time>2022-07-13T07:57:32Z</time>
      </trkpt>
      <trkpt lat="49.7925" lon="2.34804">
        <ele>83</ele>
        <time>2022-07-13T07:57:33Z</time>
      </trkpt>
      <trkpt lat="49.79249" lon="2.34803">
        <ele>83</ele>
        <time>2022-07-13T07:57:34Z</time>
      </trkpt>
      <trkpt lat="49.79247" lon="2.34801">
        <ele>83</ele>
        <time>2022-07-13T07:57:35Z</time>
      </trkpt>
      <trkpt lat="49.79247" lon="2.348">
        <ele>83</ele>
        <time>2022-07-13T07:57:36Z</time>
      </trkpt>
      <trkpt lat="49.79246" lon="2.34799">
        <ele>83.1</ele>
        <time>2022-07-13T07:57:37Z</time>
      </trkpt>
      <trkpt lat="49.79246" lon="2.34799">
        <ele>83.1</ele>
        <time>2022-07-13T07:57:38Z</time>
      </trkpt>
      <trkpt lat="49.79245" lon="2.34798">
        <ele>83.1</ele>
        <time>2022-07-13T07:57:40Z</time>
      </trkpt>
      <trkpt lat="49.79245" lon="2.34797">
        <ele>83.1</ele>
        <time>2022-07-13T07:57:41Z</time>
      </trkpt>
      <trkpt lat="49.79244" lon="2.34796">
        <ele>83.1</ele>
        <time>2022-07-13T07:57:42Z</time>
      </trkpt>
      <trkpt lat="49.79243" lon="2.34795">
        <ele>83.1</ele>
        <time>2022-07-13T07:57:43Z</time>
      </trkpt>
      <trkpt lat="49.79242" lon="2.34794">
        <ele>83.2</ele>
        <time>2022-07-13T07:57:44Z</time>
      </trkpt>
      <trkpt lat="49.79241" lon="2.34793">
        <ele>83.2</ele>
        <time>2022-07-13T07:57:45Z</time>
      </trkpt>
      <trkpt lat="49.7924" lon="2.34792">
        <ele>83.2</ele>
        <time>2022-07-13T07:57:46Z</time>
      </trkpt>
      <trkpt lat="49.7924" lon="2.34792">
        <ele>83.2</ele>
        <time>2022-07-13T07:57:47Z</time>
      </trkpt>
      <trkpt lat="49.79239" lon="2.34792">
        <ele>83.2</ele>
        <time>2022-07-13T07:57:48Z</time>
      </trkpt>
      <trkpt lat="49.79238" lon="2.34791">
        <ele>83.2</ele>
        <time>2022-07-13T07:57:50Z</time>
      </trkpt>
      <trkpt lat="49.79237" lon="2.3479">
        <ele>83.3</ele>
        <time>2022-07-13T07:57:51Z</time>
      </trkpt>
      <trkpt lat="49.79235" lon="2.34789">
        <ele>83.3</ele>
        <time>2022-07-13T07:57:52Z</time>
      </trkpt>
      <trkpt lat="49.79234" lon="2.34788">
        <ele>83.3</ele>
        <time>2022-07-13T07:57:53Z</time>
      </trkpt>
      <trkpt lat="49.79233" lon="2.34787">
        <ele>83.4</ele>
        <time>2022-07-13T07:57:54Z</time>
      </trkpt>
      <trkpt lat="49.79232" lon="2.34786">
        <ele>83.4</ele>
        <time>2022-07-13T07:57:55Z</time>
      </trkpt>
      <trkpt lat="49.79231" lon="2.34785">
        <ele>83.4</ele>
        <time>2022-07-13T07:57:56Z</time>
      </trkpt>
      <trkpt lat="49.7923" lon="2.34784">
        <ele>83.4</ele>
        <time>2022-07-13T07:57:57Z</time>
      </trkpt>
      <trkpt lat="49.79229" lon="2.34784">
        <ele>83.4</ele>
        <time>2022-07-13T07:57:58Z</time>
      </trkpt>
      <trkpt lat="49.79228" lon="2.34782">
        <ele>83.5</ele>
        <time>2022-07-13T07:57:59Z</time>
      </trkpt>
      <trkpt lat="49.79227" lon="2.34781">
        <ele>83.5</ele>
        <time>2022-07-13T07:58:01Z</time>
      </trkpt>
      <trkpt lat="49.79226" lon="2.34781">
        <ele>83.5</ele>
        <time>2022-07-13T07:58:02Z</time>
      </trkpt>
      <trkpt lat="49.79225" lon="2.3478">
        <ele>83.5</ele>
        <time>2022-07-13T07:58:03Z</time>
      </trkpt>
      <trkpt lat="49.79225" lon="2.34778">
        <ele>83.6</ele>
        <time>2022-07-13T07:58:04Z</time>
      </trkpt>
      <trkpt lat="49.79224" lon="2.34777">
        <ele>83.6</ele>
        <time>2022-07-13T07:58:05Z</time>
      </trkpt>
      <trkpt lat="49.79223" lon="2.34776">
        <ele>83.6</ele>
        <time>2022-07-13T07:58:06Z</time>
      </trkpt>
      <trkpt lat="49.79222" lon="2.34775">
        <ele>83.6</ele>
        <time>2022-07-13T07:58:07Z</time>
      </trkpt>
      <trkpt lat="49.79222" lon="2.34774">
        <ele>83.7</ele>
        <time>2022-07-13T07:58:08Z</time>
      </trkpt>
      <trkpt lat="49.7922" lon="2.34772">
        <ele>83.7</ele>
        <time>2022-07-13T07:58:10Z</time>
      </trkpt>
      <trkpt lat="49.79219" lon="2.34772">
        <ele>83.7</ele>
        <time>2022-07-13T07:58:11Z</time>
      </trkpt>
      <trkpt lat="49.79218" lon="2.34771">
        <ele>83.7</ele>
        <time>2022-07-13T07:58:12Z</time>
      </trkpt>
      <trkpt lat="49.79217" lon="2.34769">
        <ele>83.8</ele>
        <time>2022-07-13T07:58:13Z</time>
      </trkpt>
      <trkpt lat="49.79216" lon="2.34768">
        <ele>83.8</ele>
        <time>2022-07-13T07:58:14Z</time>
      </trkpt>
      <trkpt lat="49.79216" lon="2.34767">
        <ele>83.8</ele>
        <time>2022-07-13T07:58:15Z</time>
      </trkpt>
      <trkpt lat="49.79215" lon="2.34766">
        <ele>83.8</ele>
        <time>2022-07-13T07:58:16Z</time>
      </trkpt>
      <trkpt lat="49.79214" lon="2.34765">
        <ele>83.9</ele>
        <time>2022-07-13T07:58:17Z</time>
      </trkpt>
      <trkpt lat="49.79213" lon="2.34763">
        <ele>83.9</ele>
        <time>2022-07-13T07:58:19Z</time>
      </trkpt>
      <trkpt lat="49.79212" lon="2.34762">
        <ele>83.9</ele>
        <time>2022-07-13T07:58:20Z</time>
      </trkpt>
      <trkpt lat="49.79211" lon="2.3476">
        <ele>84</ele>
        <time>2022-07-13T07:58:21Z</time>
      </trkpt>
      <trkpt lat="49.79211" lon="2.34758">
        <ele>84</ele>
        <time>2022-07-13T07:58:22Z</time>
      </trkpt>
      <trkpt lat="49.7921" lon="2.34757">
        <ele>84.1</ele>
        <time>2022-07-13T07:58:23Z</time>
      </trkpt>
      <trkpt lat="49.79208" lon="2.34754">
        <ele>84.1</ele>
        <time>2022-07-13T07:58:24Z</time>
      </trkpt>
      <trkpt lat="49.79208" lon="2.34754">
        <ele>84.1</ele>
        <time>2022-07-13T07:58:25Z</time>
      </trkpt>
      <trkpt lat="49.79207" lon="2.34753">
        <ele>84.2</ele>
        <time>2022-07-13T07:58:26Z</time>
      </trkpt>
      <trkpt lat="49.79206" lon="2.34751">
        <ele>84.2</ele>
        <time>2022-07-13T07:58:28Z</time>
      </trkpt>
      <trkpt lat="49.79205" lon="2.3475">
        <ele>84.2</ele>
        <time>2022-07-13T07:58:29Z</time>
      </trkpt>
      <trkpt lat="49.79204" lon="2.34747">
        <ele>84.3</ele>
        <time>2022-07-13T07:58:30Z</time>
      </trkpt>
      <trkpt lat="49.79203" lon="2.34746">
        <ele>84.3</ele>
        <time>2022-07-13T07:58:31Z</time>
      </trkpt>
      <trkpt lat="49.79202" lon="2.34746">
        <ele>84.4</ele>
        <time>2022-07-13T07:58:32Z</time>
      </trkpt>
      <trkpt lat="49.79201" lon="2.34745">
        <ele>84.4</ele>
        <time>2022-07-13T07:58:33Z</time>
      </trkpt>
      <trkpt lat="49.792" lon="2.34743">
        <ele>84.4</ele>
        <time>2022-07-13T07:58:34Z</time>
      </trkpt>
      <trkpt lat="49.79199" lon="2.34742">
        <ele>84.4</ele>
        <time>2022-07-13T07:58:35Z</time>
      </trkpt>
      <trkpt lat="49.79198" lon="2.3474">
        <ele>84.5</ele>
        <time>2022-07-13T07:58:36Z</time>
      </trkpt>
      <trkpt lat="49.79198" lon="2.34739">
        <ele>84.5</ele>
        <time>2022-07-13T07:58:37Z</time>
      </trkpt>
      <trkpt lat="49.79197" lon="2.34738">
        <ele>84.5</ele>
        <time>2022-07-13T07:58:39Z</time>
      </trkpt>
      <trkpt lat="49.79195" lon="2.34736">
        <ele>84.6</ele>
        <time>2022-07-13T07:58:40Z</time>
      </trkpt>
      <trkpt lat="49.79194" lon="2.34736">
        <ele>84.6</ele>
        <time>2022-07-13T07:58:41Z</time>
      </trkpt>
      <trkpt lat="49.79194" lon="2.34735">
        <ele>84.7</ele>
        <time>2022-07-13T07:58:42Z</time>
      </trkpt>
      <trkpt lat="49.79193" lon="2.34734">
        <ele>84.7</ele>
        <time>2022-07-13T07:58:43Z</time>
      </trkpt>
      <trkpt lat="49.79192" lon="2.34733">
        <ele>84.7</ele>
        <time>2022-07-13T07:58:44Z</time>
      </trkpt>
      <trkpt lat="49.79191" lon="2.34732">
        <ele>84.8</ele>
        <time>2022-07-13T07:58:45Z</time>
      </trkpt>
      <trkpt lat="49.7919" lon="2.34731">
        <ele>84.8</ele>
        <time>2022-07-13T07:58:46Z</time>
      </trkpt>
      <trkpt lat="49.79189" lon="2.3473">
        <ele>84.8</ele>
        <time>2022-07-13T07:58:48Z</time>
      </trkpt>
      <trkpt lat="49.79188" lon="2.34728">
        <ele>84.8</ele>
        <time>2022-07-13T07:58:49Z</time>
      </trkpt>
      <trkpt lat="49.79189" lon="2.34728">
        <ele>84.9</ele>
        <time>2022-07-13T07:58:50Z</time>
      </trkpt>
      <trkpt lat="49.79189" lon="2.34727">
        <ele>84.9</ele>
        <time>2022-07-13T07:58:51Z</time>
      </trkpt>
      <trkpt lat="49.79188" lon="2.34726">
        <ele>84.9</ele>
        <time>2022-07-13T07:58:52Z</time>
      </trkpt>
      <trkpt lat="49.79188" lon="2.34725">
        <ele>84.9</ele>
        <time>2022-07-13T07:58:53Z</time>
      </trkpt>
      <trkpt lat="49.79187" lon="2.34725">
        <ele>84.9</ele>
        <time>2022-07-13T07:58:54Z</time>
      </trkpt>
      <trkpt lat="49.79187" lon="2.34723">
        <ele>85</ele>
        <time>2022-07-13T07:58:56Z</time>
      </trkpt>
      <trkpt lat="49.79185" lon="2.34721">
        <ele>85</ele>
        <time>2022-07-13T07:58:57Z</time>
      </trkpt>
      <trkpt lat="49.79185" lon="2.3472">
        <ele>85</ele>
        <time>2022-07-13T07:58:58Z</time>
      </trkpt>
      <trkpt lat="49.79184" lon="2.34719">
        <ele>85.1</ele>
        <time>2022-07-13T07:58:59Z</time>
      </trkpt>
      <trkpt lat="49.79183" lon="2.34718">
        <ele>85.1</ele>
        <time>2022-07-13T07:59:00Z</time>
      </trkpt>
      <trkpt lat="49.79182" lon="2.34716">
        <ele>85.1</ele>
        <time>2022-07-13T07:59:01Z</time>
      </trkpt>
      <trkpt lat="49.79181" lon="2.34715">
        <ele>85.2</ele>
        <time>2022-07-13T07:59:02Z</time>
      </trkpt>
      <trkpt lat="49.7918" lon="2.34713">
        <ele>85.2</ele>
        <time>2022-07-13T07:59:03Z</time>
      </trkpt>
      <trkpt lat="49.79179" lon="2.34711">
        <ele>85.3</ele>
        <time>2022-07-13T07:59:05Z</time>
      </trkpt>
      <trkpt lat="49.79178" lon="2.3471">
        <ele>85.3</ele>
        <time>2022-07-13T07:59:06Z</time>
      </trkpt>
      <trkpt lat="49.79178" lon="2.34709">
        <ele>85.3</ele>
        <time>2022-07-13T07:59:07Z</time>
      </trkpt>
      <trkpt lat="49.79177" lon="2.34707">
        <ele>85.4</ele>
        <time>2022-07-13T07:59:08Z</time>
      </trkpt>
      <trkpt lat="49.79176" lon="2.34705">
        <ele>85.4</ele>
        <time>2022-07-13T07:59:09Z</time>
      </trkpt>
      <trkpt lat="49.79175" lon="2.34704">
        <ele>85.4</ele>
        <time>2022-07-13T07:59:10Z</time>
      </trkpt>
      <trkpt lat="49.79174" lon="2.34702">
        <ele>85.5</ele>
        <time>2022-07-13T07:59:11Z</time>
      </trkpt>
      <trkpt lat="49.79172" lon="2.34699">
        <ele>85.5</ele>
        <time>2022-07-13T07:59:12Z</time>
      </trkpt>
      <trkpt lat="49.79171" lon="2.34698">
        <ele>85.6</ele>
        <time>2022-07-13T07:59:14Z</time>
      </trkpt>
      <trkpt lat="49.7917" lon="2.34697">
        <ele>85.6</ele>
        <time>2022-07-13T07:59:15Z</time>
      </trkpt>
      <trkpt lat="49.7917" lon="2.34696">
        <ele>85.6</ele>
        <time>2022-07-13T07:59:16Z</time>
      </trkpt>
      <trkpt lat="49.79169" lon="2.34694">
        <ele>85.6</ele>
        <time>2022-07-13T07:59:17Z</time>
      </trkpt>
      <trkpt lat="49.79167" lon="2.34692">
        <ele>85.7</ele>
        <time>2022-07-13T07:59:18Z</time>
      </trkpt>
      <trkpt lat="49.79167" lon="2.34691">
        <ele>85.7</ele>
        <time>2022-07-13T07:59:19Z</time>
      </trkpt>
      <trkpt lat="49.79166" lon="2.34691">
        <ele>85.7</ele>
        <time>2022-07-13T07:59:20Z</time>
      </trkpt>
      <trkpt lat="49.79165" lon="2.34689">
        <ele>85.8</ele>
        <time>2022-07-13T07:59:22Z</time>
      </trkpt>
      <trkpt lat="49.79164" lon="2.34687">
        <ele>85.8</ele>
        <time>2022-07-13T07:59:23Z</time>
      </trkpt>
      <trkpt lat="49.79163" lon="2.34686">
        <ele>85.9</ele>
        <time>2022-07-13T07:59:24Z</time>
      </trkpt>
      <trkpt lat="49.79162" lon="2.34685">
        <ele>85.9</ele>
        <time>2022-07-13T07:59:25Z</time>
      </trkpt>
      <trkpt lat="49.79161" lon="2.34683">
        <ele>85.9</ele>
        <time>2022-07-13T07:59:27Z</time>
      </trkpt>
      <trkpt lat="49.7916" lon="2.34681">
        <ele>86</ele>
        <time>2022-07-13T07:59:28Z</time>
      </trkpt>
      <trkpt lat="49.7916" lon="2.3468">
        <ele>86</ele>
        <time>2022-07-13T07:59:29Z</time>
      </trkpt>
      <trkpt lat="49.79159" lon="2.34679">
        <ele>86</ele>
        <time>2022-07-13T07:59:30Z</time>
      </trkpt>
      <trkpt lat="49.79159" lon="2.34677">
        <ele>86.1</ele>
        <time>2022-07-13T07:59:31Z</time>
      </trkpt>
      <trkpt lat="49.79158" lon="2.34676">
        <ele>86.1</ele>
        <time>2022-07-13T07:59:32Z</time>
      </trkpt>
      <trkpt lat="49.79157" lon="2.34674">
        <ele>86.1</ele>
        <time>2022-07-13T07:59:34Z</time>
      </trkpt>
      <trkpt lat="49.79157" lon="2.34673">
        <ele>86.2</ele>
        <time>2022-07-13T07:59:35Z</time>
      </trkpt>
      <trkpt lat="49.79156" lon="2.34672">
        <ele>86.2</ele>
        <time>2022-07-13T07:59:36Z</time>
      </trkpt>
      <trkpt lat="49.79155" lon="2.34671">
        <ele>86.2</ele>
        <time>2022-07-13T07:59:37Z</time>
      </trkpt>
      <trkpt lat="49.79154" lon="2.34669">
        <ele>86.3</ele>
        <time>2022-07-13T07:59:38Z</time>
      </trkpt>
      <trkpt lat="49.79153" lon="2.34668">
        <ele>86.3</ele>
        <time>2022-07-13T07:59:39Z</time>
      </trkpt>
      <trkpt lat="49.79152" lon="2.34667">
        <ele>86.3</ele>
        <time>2022-07-13T07:59:40Z</time>
      </trkpt>
      <trkpt lat="49.79151" lon="2.34666">
        <ele>86.4</ele>
        <time>2022-07-13T07:59:41Z</time>
      </trkpt>
      <trkpt lat="49.7915" lon="2.34665">
        <ele>86.4</ele>
        <time>2022-07-13T07:59:43Z</time>
      </trkpt>
      <trkpt lat="49.7915" lon="2.34664">
        <ele>86.4</ele>
        <time>2022-07-13T07:59:44Z</time>
      </trkpt>
      <trkpt lat="49.79149" lon="2.34663">
        <ele>86.5</ele>
        <time>2022-07-13T07:59:45Z</time>
      </trkpt>
      <trkpt lat="49.79148" lon="2.34662">
        <ele>86.5</ele>
        <time>2022-07-13T07:59:46Z</time>
      </trkpt>
      <trkpt lat="49.79147" lon="2.3466">
        <ele>86.5</ele>
        <time>2022-07-13T07:59:47Z</time>
      </trkpt>
      <trkpt lat="49.79146" lon="2.34658">
        <ele>86.6</ele>
        <time>2022-07-13T07:59:48Z</time>
      </trkpt>
      <trkpt lat="49.79145" lon="2.34658">
        <ele>86.6</ele>
        <time>2022-07-13T07:59:49Z</time>
      </trkpt>
      <trkpt lat="49.79144" lon="2.34657">
        <ele>86.6</ele>
        <time>2022-07-13T07:59:50Z</time>
      </trkpt>
      <trkpt lat="49.79143" lon="2.34657">
        <ele>86.7</ele>
        <time>2022-07-13T07:59:52Z</time>
      </trkpt>
      <trkpt lat="49.79143" lon="2.34656">
        <ele>86.7</ele>
        <time>2022-07-13T07:59:53Z</time>
      </trkpt>
      <trkpt lat="49.79142" lon="2.34655">
        <ele>86.7</ele>
        <time>2022-07-13T07:59:54Z</time>
      </trkpt>
      <trkpt lat="49.79141" lon="2.34654">
        <ele>86.7</ele>
        <time>2022-07-13T07:59:55Z</time>
      </trkpt>
      <trkpt lat="49.7914" lon="2.34654">
        <ele>86.8</ele>
        <time>2022-07-13T07:59:56Z</time>
      </trkpt>
      <trkpt lat="49.79138" lon="2.34653">
        <ele>86.8</ele>
        <time>2022-07-13T07:59:57Z</time>
      </trkpt>
      <trkpt lat="49.79137" lon="2.34652">
        <ele>86.8</ele>
        <time>2022-07-13T07:59:58Z</time>
      </trkpt>
      <trkpt lat="49.79136" lon="2.34651">
        <ele>86.9</ele>
        <time>2022-07-13T07:59:59Z</time>
      </trkpt>
      <trkpt lat="49.79135" lon="2.3465">
        <ele>86.9</ele>
        <time>2022-07-13T08:00:00Z</time>
      </trkpt>
      <trkpt lat="49.79134" lon="2.3465">
        <ele>87</ele>
        <time>2022-07-13T08:00:01Z</time>
      </trkpt>
      <trkpt lat="49.79133" lon="2.3465">
        <ele>87</ele>
        <time>2022-07-13T08:00:03Z</time>
      </trkpt>
      <trkpt lat="49.79132" lon="2.34649">
        <ele>87</ele>
        <time>2022-07-13T08:00:04Z</time>
      </trkpt>
      <trkpt lat="49.79132" lon="2.34648">
        <ele>87</ele>
        <time>2022-07-13T08:00:05Z</time>
      </trkpt>
      <trkpt lat="49.79131" lon="2.34647">
        <ele>87.1</ele>
        <time>2022-07-13T08:00:06Z</time>
      </trkpt>
      <trkpt lat="49.7913" lon="2.34647">
        <ele>87.1</ele>
        <time>2022-07-13T08:00:07Z</time>
      </trkpt>
      <trkpt lat="49.79129" lon="2.34645">
        <ele>87.1</ele>
        <time>2022-07-13T08:00:08Z</time>
      </trkpt>
      <trkpt lat="49.79128" lon="2.34645">
        <ele>87.1</ele>
        <time>2022-07-13T08:00:09Z</time>
      </trkpt>
      <trkpt lat="49.79128" lon="2.34644">
        <ele>87.2</ele>
        <time>2022-07-13T08:00:10Z</time>
      </trkpt>
      <trkpt lat="49.79127" lon="2.34643">
        <ele>87.2</ele>
        <time>2022-07-13T08:00:11Z</time>
      </trkpt>
      <trkpt lat="49.79124" lon="2.34641">
        <ele>87.3</ele>
        <time>2022-07-13T08:00:13Z</time>
      </trkpt>
      <trkpt lat="49.79124" lon="2.3464">
        <ele>87.3</ele>
        <time>2022-07-13T08:00:14Z</time>
      </trkpt>
      <trkpt lat="49.79122" lon="2.34639">
        <ele>87.3</ele>
        <time>2022-07-13T08:00:15Z</time>
      </trkpt>
      <trkpt lat="49.79121" lon="2.34638">
        <ele>87.4</ele>
        <time>2022-07-13T08:00:16Z</time>
      </trkpt>
      <trkpt lat="49.79119" lon="2.34636">
        <ele>87.5</ele>
        <time>2022-07-13T08:00:17Z</time>
      </trkpt>
      <trkpt lat="49.79118" lon="2.34635">
        <ele>87.5</ele>
        <time>2022-07-13T08:00:19Z</time>
      </trkpt>
      <trkpt lat="49.79118" lon="2.34633">
        <ele>87.5</ele>
        <time>2022-07-13T08:00:20Z</time>
      </trkpt>
      <trkpt lat="49.79117" lon="2.34632">
        <ele>87.6</ele>
        <time>2022-07-13T08:00:21Z</time>
      </trkpt>
      <trkpt lat="49.79116" lon="2.34631">
        <ele>87.6</ele>
        <time>2022-07-13T08:00:22Z</time>
      </trkpt>
      <trkpt lat="49.79114" lon="2.34627">
        <ele>87.7</ele>
        <time>2022-07-13T08:00:23Z</time>
      </trkpt>
      <trkpt lat="49.79113" lon="2.34627">
        <ele>87.7</ele>
        <time>2022-07-13T08:00:24Z</time>
      </trkpt>
      <trkpt lat="49.79113" lon="2.34625">
        <ele>87.7</ele>
        <time>2022-07-13T08:00:25Z</time>
      </trkpt>
      <trkpt lat="49.79112" lon="2.34623">
        <ele>87.8</ele>
        <time>2022-07-13T08:00:26Z</time>
      </trkpt>
      <trkpt lat="49.7911" lon="2.3462">
        <ele>87.9</ele>
        <time>2022-07-13T08:00:28Z</time>
      </trkpt>
      <trkpt lat="49.79109" lon="2.34619">
        <ele>87.9</ele>
        <time>2022-07-13T08:00:29Z</time>
      </trkpt>
      <trkpt lat="49.79108" lon="2.34616">
        <ele>88</ele>
        <time>2022-07-13T08:00:30Z</time>
      </trkpt>
      <trkpt lat="49.79107" lon="2.34615">
        <ele>88</ele>
        <time>2022-07-13T08:00:31Z</time>
      </trkpt>
      <trkpt lat="49.79107" lon="2.34614">
        <ele>88</ele>
        <time>2022-07-13T08:00:32Z</time>
      </trkpt>
      <trkpt lat="49.79105" lon="2.34612">
        <ele>88.1</ele>
        <time>2022-07-13T08:00:33Z</time>
      </trkpt>
      <trkpt lat="49.79104" lon="2.34611">
        <ele>88.1</ele>
        <time>2022-07-13T08:00:34Z</time>
      </trkpt>
      <trkpt lat="49.79103" lon="2.3461">
        <ele>88.2</ele>
        <time>2022-07-13T08:00:35Z</time>
      </trkpt>
      <trkpt lat="49.79102" lon="2.34609">
        <ele>88.2</ele>
        <time>2022-07-13T08:00:36Z</time>
      </trkpt>
      <trkpt lat="49.79101" lon="2.34608">
        <ele>88.2</ele>
        <time>2022-07-13T08:00:37Z</time>
      </trkpt>
      <trkpt lat="49.791" lon="2.34606">
        <ele>88.3</ele>
        <time>2022-07-13T08:00:39Z</time>
      </trkpt>
      <trkpt lat="49.79099" lon="2.34605">
        <ele>88.3</ele>
        <time>2022-07-13T08:00:40Z</time>
      </trkpt>
      <trkpt lat="49.79097" lon="2.34603">
        <ele>88.4</ele>
        <time>2022-07-13T08:00:41Z</time>
      </trkpt>
      <trkpt lat="49.79096" lon="2.34602">
        <ele>88.4</ele>
        <time>2022-07-13T08:00:42Z</time>
      </trkpt>
      <trkpt lat="49.79095" lon="2.34601">
        <ele>88.5</ele>
        <time>2022-07-13T08:00:43Z</time>
      </trkpt>
      <trkpt lat="49.79095" lon="2.34601">
        <ele>88.5</ele>
        <time>2022-07-13T08:00:44Z</time>
      </trkpt>
      <trkpt lat="49.79094" lon="2.346">
        <ele>88.5</ele>
        <time>2022-07-13T08:00:45Z</time>
      </trkpt>
      <trkpt lat="49.79093" lon="2.34599">
        <ele>88.6</ele>
        <time>2022-07-13T08:00:46Z</time>
      </trkpt>
      <trkpt lat="49.79092" lon="2.34598">
        <ele>88.6</ele>
        <time>2022-07-13T08:00:48Z</time>
      </trkpt>
      <trkpt lat="49.79091" lon="2.34597">
        <ele>88.6</ele>
        <time>2022-07-13T08:00:49Z</time>
      </trkpt>
      <trkpt lat="49.79091" lon="2.34596">
        <ele>88.7</ele>
        <time>2022-07-13T08:00:50Z</time>
      </trkpt>
      <trkpt lat="49.79089" lon="2.34595">
        <ele>88.7</ele>
        <time>2022-07-13T08:00:51Z</time>
      </trkpt>
      <trkpt lat="49.79088" lon="2.34594">
        <ele>88.8</ele>
        <time>2022-07-13T08:00:52Z</time>
      </trkpt>
      <trkpt lat="49.79087" lon="2.34593">
        <ele>88.8</ele>
        <time>2022-07-13T08:00:53Z</time>
      </trkpt>
      <trkpt lat="49.79086" lon="2.34593">
        <ele>88.8</ele>
        <time>2022-07-13T08:00:54Z</time>
      </trkpt>
      <trkpt lat="49.79085" lon="2.34592">
        <ele>88.9</ele>
        <time>2022-07-13T08:00:55Z</time>
      </trkpt>
      <trkpt lat="49.79084" lon="2.34591">
        <ele>88.9</ele>
        <time>2022-07-13T08:00:56Z</time>
      </trkpt>
      <trkpt lat="49.79084" lon="2.3459">
        <ele>89</ele>
        <time>2022-07-13T08:00:58Z</time>
      </trkpt>
      <trkpt lat="49.79082" lon="2.34589">
        <ele>89</ele>
        <time>2022-07-13T08:00:59Z</time>
      </trkpt>
      <trkpt lat="49.79082" lon="2.34588">
        <ele>89.1</ele>
        <time>2022-07-13T08:01:00Z</time>
      </trkpt>
      <trkpt lat="49.79081" lon="2.34587">
        <ele>89.1</ele>
        <time>2022-07-13T08:01:01Z</time>
      </trkpt>
      <trkpt lat="49.7908" lon="2.34586">
        <ele>89.1</ele>
        <time>2022-07-13T08:01:02Z</time>
      </trkpt>
      <trkpt lat="49.79079" lon="2.34585">
        <ele>89.2</ele>
        <time>2022-07-13T08:01:03Z</time>
      </trkpt>
      <trkpt lat="49.79078" lon="2.34585">
        <ele>89.3</ele>
        <time>2022-07-13T08:01:04Z</time>
      </trkpt>
      <trkpt lat="49.79077" lon="2.34584">
        <ele>89.3</ele>
        <time>2022-07-13T08:01:05Z</time>
      </trkpt>
      <trkpt lat="49.79076" lon="2.34583">
        <ele>89.4</ele>
        <time>2022-07-13T08:01:06Z</time>
      </trkpt>
      <trkpt lat="49.79075" lon="2.34583">
        <ele>89.4</ele>
        <time>2022-07-13T08:01:07Z</time>
      </trkpt>
      <trkpt lat="49.79075" lon="2.34582">
        <ele>89.4</ele>
        <time>2022-07-13T08:01:08Z</time>
      </trkpt>
      <trkpt lat="49.79074" lon="2.34581">
        <ele>89.5</ele>
        <time>2022-07-13T08:01:10Z</time>
      </trkpt>
      <trkpt lat="49.79073" lon="2.34581">
        <ele>89.5</ele>
        <time>2022-07-13T08:01:11Z</time>
      </trkpt>
      <trkpt lat="49.79071" lon="2.3458">
        <ele>89.6</ele>
        <time>2022-07-13T08:01:12Z</time>
      </trkpt>
      <trkpt lat="49.7907" lon="2.3458">
        <ele>89.7</ele>
        <time>2022-07-13T08:01:13Z</time>
      </trkpt>
      <trkpt lat="49.79069" lon="2.34579">
        <ele>89.7</ele>
        <time>2022-07-13T08:01:14Z</time>
      </trkpt>
      <trkpt lat="49.79068" lon="2.34579">
        <ele>89.8</ele>
        <time>2022-07-13T08:01:15Z</time>
      </trkpt>
      <trkpt lat="49.79067" lon="2.34579">
        <ele>89.8</ele>
        <time>2022-07-13T08:01:16Z</time>
      </trkpt>
      <trkpt lat="49.79066" lon="2.34578">
        <ele>89.9</ele>
        <time>2022-07-13T08:01:17Z</time>
      </trkpt>
      <trkpt lat="49.79065" lon="2.34577">
        <ele>90</ele>
        <time>2022-07-13T08:01:18Z</time>
      </trkpt>
      <trkpt lat="49.79064" lon="2.34577">
        <ele>90</ele>
        <time>2022-07-13T08:01:20Z</time>
      </trkpt>
      <trkpt lat="49.79063" lon="2.34576">
        <ele>90.1</ele>
        <time>2022-07-13T08:01:21Z</time>
      </trkpt>
      <trkpt lat="49.79061" lon="2.34575">
        <ele>90.2</ele>
        <time>2022-07-13T08:01:22Z</time>
      </trkpt>
      <trkpt lat="49.79061" lon="2.34574">
        <ele>90.2</ele>
        <time>2022-07-13T08:01:23Z</time>
      </trkpt>
      <trkpt lat="49.7906" lon="2.34573">
        <ele>90.3</ele>
        <time>2022-07-13T08:01:24Z</time>
      </trkpt>
      <trkpt lat="49.79059" lon="2.34571">
        <ele>90.4</ele>
        <time>2022-07-13T08:01:25Z</time>
      </trkpt>
      <trkpt lat="49.79058" lon="2.3457">
        <ele>90.4</ele>
        <time>2022-07-13T08:01:26Z</time>
      </trkpt>
      <trkpt lat="49.79058" lon="2.34569">
        <ele>90.5</ele>
        <time>2022-07-13T08:01:27Z</time>
      </trkpt>
      <trkpt lat="49.79058" lon="2.34569">
        <ele>90.5</ele>
        <time>2022-07-13T08:01:28Z</time>
      </trkpt>
      <trkpt lat="49.79057" lon="2.34568">
        <ele>90.5</ele>
        <time>2022-07-13T08:01:30Z</time>
      </trkpt>
      <trkpt lat="49.79056" lon="2.34567">
        <ele>90.6</ele>
        <time>2022-07-13T08:01:31Z</time>
      </trkpt>
      <trkpt lat="49.79055" lon="2.34566">
        <ele>90.7</ele>
        <time>2022-07-13T08:01:32Z</time>
      </trkpt>
      <trkpt lat="49.79054" lon="2.34565">
        <ele>90.8</ele>
        <time>2022-07-13T08:01:33Z</time>
      </trkpt>
      <trkpt lat="49.79053" lon="2.34564">
        <ele>90.8</ele>
        <time>2022-07-13T08:01:34Z</time>
      </trkpt>
      <trkpt lat="49.79052" lon="2.34564">
        <ele>90.9</ele>
        <time>2022-07-13T08:01:35Z</time>
      </trkpt>
      <trkpt lat="49.79051" lon="2.34563">
        <ele>90.9</ele>
        <time>2022-07-13T08:01:36Z</time>
      </trkpt>
      <trkpt lat="49.7905" lon="2.34563">
        <ele>91</ele>
        <time>2022-07-13T08:01:37Z</time>
      </trkpt>
      <trkpt lat="49.79049" lon="2.34562">
        <ele>91</ele>
        <time>2022-07-13T08:01:39Z</time>
      </trkpt>
      <trkpt lat="49.79048" lon="2.34562">
        <ele>91.1</ele>
        <time>2022-07-13T08:01:40Z</time>
      </trkpt>
      <trkpt lat="49.79048" lon="2.34561">
        <ele>91.1</ele>
        <time>2022-07-13T08:01:41Z</time>
      </trkpt>
      <trkpt lat="49.79047" lon="2.34561">
        <ele>91.2</ele>
        <time>2022-07-13T08:01:42Z</time>
      </trkpt>
      <trkpt lat="49.79046" lon="2.34561">
        <ele>91.2</ele>
        <time>2022-07-13T08:01:43Z</time>
      </trkpt>
      <trkpt lat="49.79043" lon="2.34559">
        <ele>91.3</ele>
        <time>2022-07-13T08:01:44Z</time>
      </trkpt>
      <trkpt lat="49.79043" lon="2.34559">
        <ele>91.4</ele>
        <time>2022-07-13T08:01:45Z</time>
      </trkpt>
      <trkpt lat="49.79042" lon="2.34559">
        <ele>91.4</ele>
        <time>2022-07-13T08:01:46Z</time>
      </trkpt>
      <trkpt lat="49.79041" lon="2.34558">
        <ele>91.5</ele>
        <time>2022-07-13T08:01:47Z</time>
      </trkpt>
      <trkpt lat="49.79039" lon="2.34557">
        <ele>91.6</ele>
        <time>2022-07-13T08:01:49Z</time>
      </trkpt>
      <trkpt lat="49.79038" lon="2.34556">
        <ele>91.6</ele>
        <time>2022-07-13T08:01:50Z</time>
      </trkpt>
      <trkpt lat="49.79037" lon="2.34555">
        <ele>91.7</ele>
        <time>2022-07-13T08:01:51Z</time>
      </trkpt>
      <trkpt lat="49.79036" lon="2.34554">
        <ele>91.8</ele>
        <time>2022-07-13T08:01:52Z</time>
      </trkpt>
      <trkpt lat="49.79035" lon="2.34553">
        <ele>91.8</ele>
        <time>2022-07-13T08:01:53Z</time>
      </trkpt>
      <trkpt lat="49.79034" lon="2.34552">
        <ele>91.9</ele>
        <time>2022-07-13T08:01:54Z</time>
      </trkpt>
      <trkpt lat="49.79033" lon="2.34551">
        <ele>92</ele>
        <time>2022-07-13T08:01:55Z</time>
      </trkpt>
      <trkpt lat="49.79032" lon="2.34549">
        <ele>92</ele>
        <time>2022-07-13T08:01:56Z</time>
      </trkpt>
      <trkpt lat="49.79032" lon="2.34548">
        <ele>92.1</ele>
        <time>2022-07-13T08:01:58Z</time>
      </trkpt>
      <trkpt lat="49.7903" lon="2.34547">
        <ele>92.1</ele>
        <time>2022-07-13T08:01:59Z</time>
      </trkpt>
      <trkpt lat="49.79029" lon="2.34546">
        <ele>92.2</ele>
        <time>2022-07-13T08:02:00Z</time>
      </trkpt>
      <trkpt lat="49.79028" lon="2.34545">
        <ele>92.3</ele>
        <time>2022-07-13T08:02:01Z</time>
      </trkpt>
      <trkpt lat="49.79027" lon="2.34544">
        <ele>92.3</ele>
        <time>2022-07-13T08:02:02Z</time>
      </trkpt>
      <trkpt lat="49.79026" lon="2.34543">
        <ele>92.4</ele>
        <time>2022-07-13T08:02:03Z</time>
      </trkpt>
      <trkpt lat="49.79026" lon="2.34541">
        <ele>92.4</ele>
        <time>2022-07-13T08:02:04Z</time>
      </trkpt>
      <trkpt lat="49.79025" lon="2.3454">
        <ele>92.5</ele>
        <time>2022-07-13T08:02:06Z</time>
      </trkpt>
      <trkpt lat="49.79024" lon="2.34539">
        <ele>92.5</ele>
        <time>2022-07-13T08:02:07Z</time>
      </trkpt>
      <trkpt lat="49.79023" lon="2.34538">
        <ele>92.6</ele>
        <time>2022-07-13T08:02:08Z</time>
      </trkpt>
      <trkpt lat="49.79021" lon="2.34537">
        <ele>92.6</ele>
        <time>2022-07-13T08:02:09Z</time>
      </trkpt>
      <trkpt lat="49.7902" lon="2.34536">
        <ele>92.7</ele>
        <time>2022-07-13T08:02:10Z</time>
      </trkpt>
      <trkpt lat="49.79019" lon="2.34535">
        <ele>92.7</ele>
        <time>2022-07-13T08:02:11Z</time>
      </trkpt>
      <trkpt lat="49.79018" lon="2.34534">
        <ele>92.8</ele>
        <time>2022-07-13T08:02:12Z</time>
      </trkpt>
      <trkpt lat="49.79017" lon="2.34533">
        <ele>92.9</ele>
        <time>2022-07-13T08:02:13Z</time>
      </trkpt>
      <trkpt lat="49.79016" lon="2.34531">
        <ele>92.9</ele>
        <time>2022-07-13T08:02:14Z</time>
      </trkpt>
      <trkpt lat="49.79015" lon="2.3453">
        <ele>93</ele>
        <time>2022-07-13T08:02:16Z</time>
      </trkpt>
      <trkpt lat="49.79013" lon="2.34529">
        <ele>93.1</ele>
        <time>2022-07-13T08:02:17Z</time>
      </trkpt>
      <trkpt lat="49.79012" lon="2.34528">
        <ele>93.2</ele>
        <time>2022-07-13T08:02:18Z</time>
      </trkpt>
      <trkpt lat="49.7901" lon="2.34527">
        <ele>93.3</ele>
        <time>2022-07-13T08:02:19Z</time>
      </trkpt>
      <trkpt lat="49.79009" lon="2.34526">
        <ele>93.3</ele>
        <time>2022-07-13T08:02:20Z</time>
      </trkpt>
      <trkpt lat="49.79008" lon="2.34525">
        <ele>93.4</ele>
        <time>2022-07-13T08:02:21Z</time>
      </trkpt>
      <trkpt lat="49.79007" lon="2.34525">
        <ele>93.4</ele>
        <time>2022-07-13T08:02:22Z</time>
      </trkpt>
      <trkpt lat="49.79004" lon="2.34523">
        <ele>93.6</ele>
        <time>2022-07-13T08:02:23Z</time>
      </trkpt>
      <trkpt lat="49.79003" lon="2.34522">
        <ele>93.7</ele>
        <time>2022-07-13T08:02:25Z</time>
      </trkpt>
      <trkpt lat="49.79002" lon="2.34522">
        <ele>93.7</ele>
        <time>2022-07-13T08:02:26Z</time>
      </trkpt>
      <trkpt lat="49.79001" lon="2.34521">
        <ele>93.8</ele>
        <time>2022-07-13T08:02:27Z</time>
      </trkpt>
      <trkpt lat="49.79" lon="2.34521">
        <ele>93.8</ele>
        <time>2022-07-13T08:02:28Z</time>
      </trkpt>
      <trkpt lat="49.78998" lon="2.3452">
        <ele>94</ele>
        <time>2022-07-13T08:02:29Z</time>
      </trkpt>
      <trkpt lat="49.78997" lon="2.34519">
        <ele>94</ele>
        <time>2022-07-13T08:02:30Z</time>
      </trkpt>
      <trkpt lat="49.78996" lon="2.34519">
        <ele>94.1</ele>
        <time>2022-07-13T08:02:31Z</time>
      </trkpt>
      <trkpt lat="49.78995" lon="2.34518">
        <ele>94.1</ele>
        <time>2022-07-13T08:02:32Z</time>
      </trkpt>
      <trkpt lat="49.78994" lon="2.34516">
        <ele>94.3</ele>
        <time>2022-07-13T08:02:34Z</time>
      </trkpt>
      <trkpt lat="49.78993" lon="2.34515">
        <ele>94.3</ele>
        <time>2022-07-13T08:02:35Z</time>
      </trkpt>
      <trkpt lat="49.78992" lon="2.34514">
        <ele>94.4</ele>
        <time>2022-07-13T08:02:36Z</time>
      </trkpt>
      <trkpt lat="49.78991" lon="2.34513">
        <ele>94.4</ele>
        <time>2022-07-13T08:02:37Z</time>
      </trkpt>
      <trkpt lat="49.7899" lon="2.34512">
        <ele>94.5</ele>
        <time>2022-07-13T08:02:38Z</time>
      </trkpt>
      <trkpt lat="49.78988" lon="2.3451">
        <ele>94.6</ele>
        <time>2022-07-13T08:02:39Z</time>
      </trkpt>
      <trkpt lat="49.78988" lon="2.3451">
        <ele>94.7</ele>
        <time>2022-07-13T08:02:40Z</time>
      </trkpt>
      <trkpt lat="49.78987" lon="2.34509">
        <ele>94.7</ele>
        <time>2022-07-13T08:02:42Z</time>
      </trkpt>
      <trkpt lat="49.78985" lon="2.34508">
        <ele>94.8</ele>
        <time>2022-07-13T08:02:43Z</time>
      </trkpt>
      <trkpt lat="49.78983" lon="2.34505">
        <ele>94.9</ele>
        <time>2022-07-13T08:02:44Z</time>
      </trkpt>
      <trkpt lat="49.78983" lon="2.34504">
        <ele>95</ele>
        <time>2022-07-13T08:02:45Z</time>
      </trkpt>
      <trkpt lat="49.78983" lon="2.34504">
        <ele>95</ele>
        <time>2022-07-13T08:02:46Z</time>
      </trkpt>
      <trkpt lat="49.78981" lon="2.34502">
        <ele>95.1</ele>
        <time>2022-07-13T08:02:47Z</time>
      </trkpt>
      <trkpt lat="49.7898" lon="2.34501">
        <ele>95.2</ele>
        <time>2022-07-13T08:02:48Z</time>
      </trkpt>
      <trkpt lat="49.78979" lon="2.345">
        <ele>95.2</ele>
        <time>2022-07-13T08:02:49Z</time>
      </trkpt>
      <trkpt lat="49.78978" lon="2.345">
        <ele>95.3</ele>
        <time>2022-07-13T08:02:51Z</time>
      </trkpt>
      <trkpt lat="49.78978" lon="2.34499">
        <ele>95.3</ele>
        <time>2022-07-13T08:02:52Z</time>
      </trkpt>
      <trkpt lat="49.78977" lon="2.34498">
        <ele>95.4</ele>
        <time>2022-07-13T08:02:53Z</time>
      </trkpt>
      <trkpt lat="49.78975" lon="2.34497">
        <ele>95.5</ele>
        <time>2022-07-13T08:02:54Z</time>
      </trkpt>
      <trkpt lat="49.78974" lon="2.34496">
        <ele>95.5</ele>
        <time>2022-07-13T08:02:55Z</time>
      </trkpt>
      <trkpt lat="49.78973" lon="2.34496">
        <ele>95.6</ele>
        <time>2022-07-13T08:02:56Z</time>
      </trkpt>
      <trkpt lat="49.78972" lon="2.34495">
        <ele>95.6</ele>
        <time>2022-07-13T08:02:57Z</time>
      </trkpt>
      <trkpt lat="49.78971" lon="2.34495">
        <ele>95.7</ele>
        <time>2022-07-13T08:02:58Z</time>
      </trkpt>
      <trkpt lat="49.78969" lon="2.34494">
        <ele>95.8</ele>
        <time>2022-07-13T08:03:00Z</time>
      </trkpt>
      <trkpt lat="49.78968" lon="2.34494">
        <ele>95.8</ele>
        <time>2022-07-13T08:03:01Z</time>
      </trkpt>
      <trkpt lat="49.78966" lon="2.34493">
        <ele>95.9</ele>
        <time>2022-07-13T08:03:02Z</time>
      </trkpt>
      <trkpt lat="49.78965" lon="2.34492">
        <ele>96</ele>
        <time>2022-07-13T08:03:03Z</time>
      </trkpt>
      <trkpt lat="49.78964" lon="2.34492">
        <ele>96</ele>
        <time>2022-07-13T08:03:04Z</time>
      </trkpt>
      <trkpt lat="49.78964" lon="2.34491">
        <ele>96.1</ele>
        <time>2022-07-13T08:03:05Z</time>
      </trkpt>
      <trkpt lat="49.78962" lon="2.34491">
        <ele>96.1</ele>
        <time>2022-07-13T08:03:06Z</time>
      </trkpt>
      <trkpt lat="49.78961" lon="2.3449">
        <ele>96.2</ele>
        <time>2022-07-13T08:03:07Z</time>
      </trkpt>
      <trkpt lat="49.7896" lon="2.3449">
        <ele>96.2</ele>
        <time>2022-07-13T08:03:08Z</time>
      </trkpt>
      <trkpt lat="49.78958" lon="2.3449">
        <ele>96.3</ele>
        <time>2022-07-13T08:03:10Z</time>
      </trkpt>
      <trkpt lat="49.78957" lon="2.34489">
        <ele>96.4</ele>
        <time>2022-07-13T08:03:11Z</time>
      </trkpt>
      <trkpt lat="49.78956" lon="2.34489">
        <ele>96.4</ele>
        <time>2022-07-13T08:03:12Z</time>
      </trkpt>
      <trkpt lat="49.78955" lon="2.34488">
        <ele>96.5</ele>
        <time>2022-07-13T08:03:13Z</time>
      </trkpt>
      <trkpt lat="49.78953" lon="2.34488">
        <ele>96.6</ele>
        <time>2022-07-13T08:03:14Z</time>
      </trkpt>
      <trkpt lat="49.78952" lon="2.34487">
        <ele>96.6</ele>
        <time>2022-07-13T08:03:15Z</time>
      </trkpt>
      <trkpt lat="49.78952" lon="2.34486">
        <ele>96.7</ele>
        <time>2022-07-13T08:03:16Z</time>
      </trkpt>
      <trkpt lat="49.78952" lon="2.34485">
        <ele>96.7</ele>
        <time>2022-07-13T08:03:18Z</time>
      </trkpt>
      <trkpt lat="49.78951" lon="2.34483">
        <ele>96.8</ele>
        <time>2022-07-13T08:03:19Z</time>
      </trkpt>
      <trkpt lat="49.7895" lon="2.34482">
        <ele>96.9</ele>
        <time>2022-07-13T08:03:20Z</time>
      </trkpt>
      <trkpt lat="49.78949" lon="2.34481">
        <ele>96.9</ele>
        <time>2022-07-13T08:03:21Z</time>
      </trkpt>
      <trkpt lat="49.78948" lon="2.3448">
        <ele>97</ele>
        <time>2022-07-13T08:03:22Z</time>
      </trkpt>
      <trkpt lat="49.78947" lon="2.34479">
        <ele>97</ele>
        <time>2022-07-13T08:03:23Z</time>
      </trkpt>
      <trkpt lat="49.78945" lon="2.34478">
        <ele>97.1</ele>
        <time>2022-07-13T08:03:24Z</time>
      </trkpt>
      <trkpt lat="49.78944" lon="2.34478">
        <ele>97.2</ele>
        <time>2022-07-13T08:03:25Z</time>
      </trkpt>
      <trkpt lat="49.78943" lon="2.34477">
        <ele>97.2</ele>
        <time>2022-07-13T08:03:27Z</time>
      </trkpt>
      <trkpt lat="49.78942" lon="2.34476">
        <ele>97.3</ele>
        <time>2022-07-13T08:03:28Z</time>
      </trkpt>
      <trkpt lat="49.7894" lon="2.34476">
        <ele>97.4</ele>
        <time>2022-07-13T08:03:29Z</time>
      </trkpt>
      <trkpt lat="49.78939" lon="2.34475">
        <ele>97.4</ele>
        <time>2022-07-13T08:03:30Z</time>
      </trkpt>
      <trkpt lat="49.78938" lon="2.34475">
        <ele>97.5</ele>
        <time>2022-07-13T08:03:31Z</time>
      </trkpt>
      <trkpt lat="49.78937" lon="2.34474">
        <ele>97.6</ele>
        <time>2022-07-13T08:03:32Z</time>
      </trkpt>
      <trkpt lat="49.78936" lon="2.34474">
        <ele>97.6</ele>
        <time>2022-07-13T08:03:33Z</time>
      </trkpt>
      <trkpt lat="49.78934" lon="2.34473">
        <ele>97.7</ele>
        <time>2022-07-13T08:03:34Z</time>
      </trkpt>
      <trkpt lat="49.78934" lon="2.34473">
        <ele>97.7</ele>
        <time>2022-07-13T08:03:36Z</time>
      </trkpt>
      <trkpt lat="49.78933" lon="2.34472">
        <ele>97.8</ele>
        <time>2022-07-13T08:03:37Z</time>
      </trkpt>
      <trkpt lat="49.78931" lon="2.34471">
        <ele>97.9</ele>
        <time>2022-07-13T08:03:38Z</time>
      </trkpt>
      <trkpt lat="49.7893" lon="2.3447">
        <ele>97.9</ele>
        <time>2022-07-13T08:03:39Z</time>
      </trkpt>
      <trkpt lat="49.78929" lon="2.3447">
        <ele>98</ele>
        <time>2022-07-13T08:03:40Z</time>
      </trkpt>
      <trkpt lat="49.78928" lon="2.34469">
        <ele>98</ele>
        <time>2022-07-13T08:03:41Z</time>
      </trkpt>
      <trkpt lat="49.78927" lon="2.34469">
        <ele>98.1</ele>
        <time>2022-07-13T08:03:42Z</time>
      </trkpt>
      <trkpt lat="49.78926" lon="2.34468">
        <ele>98.1</ele>
        <time>2022-07-13T08:03:43Z</time>
      </trkpt>
      <trkpt lat="49.78924" lon="2.34468">
        <ele>98.2</ele>
        <time>2022-07-13T08:03:44Z</time>
      </trkpt>
      <trkpt lat="49.78923" lon="2.34467">
        <ele>98.2</ele>
        <time>2022-07-13T08:03:45Z</time>
      </trkpt>
      <trkpt lat="49.78922" lon="2.34467">
        <ele>98.3</ele>
        <time>2022-07-13T08:03:47Z</time>
      </trkpt>
      <trkpt lat="49.78921" lon="2.34467">
        <ele>98.4</ele>
        <time>2022-07-13T08:03:48Z</time>
      </trkpt>
      <trkpt lat="49.78919" lon="2.34466">
        <ele>98.4</ele>
        <time>2022-07-13T08:03:49Z</time>
      </trkpt>
      <trkpt lat="49.78918" lon="2.34465">
        <ele>98.5</ele>
        <time>2022-07-13T08:03:50Z</time>
      </trkpt>
      <trkpt lat="49.78917" lon="2.34465">
        <ele>98.6</ele>
        <time>2022-07-13T08:03:51Z</time>
      </trkpt>
      <trkpt lat="49.78915" lon="2.34464">
        <ele>98.7</ele>
        <time>2022-07-13T08:03:52Z</time>
      </trkpt>
      <trkpt lat="49.78914" lon="2.34463">
        <ele>98.7</ele>
        <time>2022-07-13T08:03:53Z</time>
      </trkpt>
      <trkpt lat="49.78913" lon="2.34462">
        <ele>98.7</ele>
        <time>2022-07-13T08:03:54Z</time>
      </trkpt>
      <trkpt lat="49.78912" lon="2.34462">
        <ele>98.8</ele>
        <time>2022-07-13T08:03:56Z</time>
      </trkpt>
      <trkpt lat="49.78911" lon="2.34461">
        <ele>98.8</ele>
        <time>2022-07-13T08:03:57Z</time>
      </trkpt>
      <trkpt lat="49.7891" lon="2.3446">
        <ele>98.9</ele>
        <time>2022-07-13T08:03:58Z</time>
      </trkpt>
      <trkpt lat="49.78909" lon="2.34459">
        <ele>99</ele>
        <time>2022-07-13T08:03:59Z</time>
      </trkpt>
      <trkpt lat="49.78908" lon="2.34458">
        <ele>99</ele>
        <time>2022-07-13T08:04:00Z</time>
      </trkpt>
      <trkpt lat="49.78906" lon="2.34456">
        <ele>99.1</ele>
        <time>2022-07-13T08:04:01Z</time>
      </trkpt>
      <trkpt lat="49.78906" lon="2.34456">
        <ele>99.2</ele>
        <time>2022-07-13T08:04:02Z</time>
      </trkpt>
      <trkpt lat="49.78905" lon="2.34455">
        <ele>99.2</ele>
        <time>2022-07-13T08:04:03Z</time>
      </trkpt>
      <trkpt lat="49.78903" lon="2.34453">
        <ele>99.3</ele>
        <time>2022-07-13T08:04:04Z</time>
      </trkpt>
      <trkpt lat="49.78902" lon="2.34452">
        <ele>99.4</ele>
        <time>2022-07-13T08:04:06Z</time>
      </trkpt>
      <trkpt lat="49.78901" lon="2.34452">
        <ele>99.4</ele>
        <time>2022-07-13T08:04:07Z</time>
      </trkpt>
      <trkpt lat="49.789" lon="2.34451">
        <ele>99.5</ele>
        <time>2022-07-13T08:04:08Z</time>
      </trkpt>
      <trkpt lat="49.78899" lon="2.3445">
        <ele>99.5</ele>
        <time>2022-07-13T08:04:09Z</time>
      </trkpt>
      <trkpt lat="49.78898" lon="2.34449">
        <ele>99.6</ele>
        <time>2022-07-13T08:04:10Z</time>
      </trkpt>
      <trkpt lat="49.78897" lon="2.34448">
        <ele>99.7</ele>
        <time>2022-07-13T08:04:11Z</time>
      </trkpt>
      <trkpt lat="49.78896" lon="2.34448">
        <ele>99.7</ele>
        <time>2022-07-13T08:04:12Z</time>
      </trkpt>
      <trkpt lat="49.78895" lon="2.34447">
        <ele>99.7</ele>
        <time>2022-07-13T08:04:13Z</time>
      </trkpt>
      <trkpt lat="49.78893" lon="2.34446">
        <ele>99.8</ele>
        <time>2022-07-13T08:04:15Z</time>
      </trkpt>
      <trkpt lat="49.78893" lon="2.34445">
        <ele>99.9</ele>
        <time>2022-07-13T08:04:16Z</time>
      </trkpt>
      <trkpt lat="49.78892" lon="2.34444">
        <ele>99.9</ele>
        <time>2022-07-13T08:04:17Z</time>
      </trkpt>
      <trkpt lat="49.78891" lon="2.34443">
        <ele>100</ele>
        <time>2022-07-13T08:04:18Z</time>
      </trkpt>
      <trkpt lat="49.7889" lon="2.34443">
        <ele>100</ele>
        <time>2022-07-13T08:04:19Z</time>
      </trkpt>
      <trkpt lat="49.78888" lon="2.34441">
        <ele>100.1</ele>
        <time>2022-07-13T08:04:20Z</time>
      </trkpt>
      <trkpt lat="49.78888" lon="2.3444">
        <ele>100.2</ele>
        <time>2022-07-13T08:04:21Z</time>
      </trkpt>
      <trkpt lat="49.78887" lon="2.34439">
        <ele>100.2</ele>
        <time>2022-07-13T08:04:22Z</time>
      </trkpt>
      <trkpt lat="49.78886" lon="2.34438">
        <ele>100.3</ele>
        <time>2022-07-13T08:04:24Z</time>
      </trkpt>
      <trkpt lat="49.78885" lon="2.34436">
        <ele>100.4</ele>
        <time>2022-07-13T08:04:25Z</time>
      </trkpt>
      <trkpt lat="49.78884" lon="2.34436">
        <ele>100.4</ele>
        <time>2022-07-13T08:04:26Z</time>
      </trkpt>
      <trkpt lat="49.78883" lon="2.34435">
        <ele>100.5</ele>
        <time>2022-07-13T08:04:27Z</time>
      </trkpt>
      <trkpt lat="49.78883" lon="2.34434">
        <ele>100.5</ele>
        <time>2022-07-13T08:04:28Z</time>
      </trkpt>
      <trkpt lat="49.78882" lon="2.34433">
        <ele>100.6</ele>
        <time>2022-07-13T08:04:29Z</time>
      </trkpt>
      <trkpt lat="49.78881" lon="2.34431">
        <ele>100.6</ele>
        <time>2022-07-13T08:04:30Z</time>
      </trkpt>
      <trkpt lat="49.7888" lon="2.34431">
        <ele>100.7</ele>
        <time>2022-07-13T08:04:31Z</time>
      </trkpt>
      <trkpt lat="49.7888" lon="2.3443">
        <ele>100.7</ele>
        <time>2022-07-13T08:04:33Z</time>
      </trkpt>
      <trkpt lat="49.78879" lon="2.34429">
        <ele>100.8</ele>
        <time>2022-07-13T08:04:34Z</time>
      </trkpt>
      <trkpt lat="49.78877" lon="2.34428">
        <ele>100.8</ele>
        <time>2022-07-13T08:04:35Z</time>
      </trkpt>
      <trkpt lat="49.78877" lon="2.34427">
        <ele>100.9</ele>
        <time>2022-07-13T08:04:36Z</time>
      </trkpt>
      <trkpt lat="49.78876" lon="2.34427">
        <ele>100.9</ele>
        <time>2022-07-13T08:04:37Z</time>
      </trkpt>
      <trkpt lat="49.78875" lon="2.34426">
        <ele>101</ele>
        <time>2022-07-13T08:04:38Z</time>
      </trkpt>
      <trkpt lat="49.78874" lon="2.34425">
        <ele>101</ele>
        <time>2022-07-13T08:04:39Z</time>
      </trkpt>
      <trkpt lat="49.78873" lon="2.34425">
        <ele>101.1</ele>
        <time>2022-07-13T08:04:40Z</time>
      </trkpt>
      <trkpt lat="49.78873" lon="2.34424">
        <ele>101.1</ele>
        <time>2022-07-13T08:04:42Z</time>
      </trkpt>
      <trkpt lat="49.78872" lon="2.34424">
        <ele>101.1</ele>
        <time>2022-07-13T08:04:43Z</time>
      </trkpt>
      <trkpt lat="49.78871" lon="2.34424">
        <ele>101.2</ele>
        <time>2022-07-13T08:04:44Z</time>
      </trkpt>
      <trkpt lat="49.7887" lon="2.34423">
        <ele>101.2</ele>
        <time>2022-07-13T08:04:45Z</time>
      </trkpt>
      <trkpt lat="49.78869" lon="2.34422">
        <ele>101.3</ele>
        <time>2022-07-13T08:04:46Z</time>
      </trkpt>
      <trkpt lat="49.78868" lon="2.34421">
        <ele>101.3</ele>
        <time>2022-07-13T08:04:48Z</time>
      </trkpt>
      <trkpt lat="49.78867" lon="2.34421">
        <ele>101.4</ele>
        <time>2022-07-13T08:04:49Z</time>
      </trkpt>
      <trkpt lat="49.78866" lon="2.34421">
        <ele>101.4</ele>
        <time>2022-07-13T08:04:50Z</time>
      </trkpt>
      <trkpt lat="49.78865" lon="2.34421">
        <ele>101.5</ele>
        <time>2022-07-13T08:04:51Z</time>
      </trkpt>
      <trkpt lat="49.78864" lon="2.3442">
        <ele>101.5</ele>
        <time>2022-07-13T08:04:52Z</time>
      </trkpt>
      <trkpt lat="49.78863" lon="2.3442">
        <ele>101.6</ele>
        <time>2022-07-13T08:04:54Z</time>
      </trkpt>
      <trkpt lat="49.78861" lon="2.34419">
        <ele>101.6</ele>
        <time>2022-07-13T08:04:55Z</time>
      </trkpt>
      <trkpt lat="49.7886" lon="2.34418">
        <ele>101.7</ele>
        <time>2022-07-13T08:04:56Z</time>
      </trkpt>
      <trkpt lat="49.78859" lon="2.34417">
        <ele>101.8</ele>
        <time>2022-07-13T08:04:57Z</time>
      </trkpt>
      <trkpt lat="49.78858" lon="2.34416">
        <ele>101.8</ele>
        <time>2022-07-13T08:04:59Z</time>
      </trkpt>
      <trkpt lat="49.78857" lon="2.34416">
        <ele>101.9</ele>
        <time>2022-07-13T08:05:00Z</time>
      </trkpt>
      <trkpt lat="49.78856" lon="2.34415">
        <ele>101.9</ele>
        <time>2022-07-13T08:05:01Z</time>
      </trkpt>
      <trkpt lat="49.78855" lon="2.34414">
        <ele>102</ele>
        <time>2022-07-13T08:05:02Z</time>
      </trkpt>
      <trkpt lat="49.78853" lon="2.34412">
        <ele>102</ele>
        <time>2022-07-13T08:05:03Z</time>
      </trkpt>
      <trkpt lat="49.78852" lon="2.34412">
        <ele>102.1</ele>
        <time>2022-07-13T08:05:04Z</time>
      </trkpt>
      <trkpt lat="49.78852" lon="2.34411">
        <ele>102.1</ele>
        <time>2022-07-13T08:05:05Z</time>
      </trkpt>
      <trkpt lat="49.78851" lon="2.3441">
        <ele>102.1</ele>
        <time>2022-07-13T08:05:06Z</time>
      </trkpt>
      <trkpt lat="49.7885" lon="2.3441">
        <ele>102.2</ele>
        <time>2022-07-13T08:05:07Z</time>
      </trkpt>
      <trkpt lat="49.78849" lon="2.34409">
        <ele>102.2</ele>
        <time>2022-07-13T08:05:08Z</time>
      </trkpt>
      <trkpt lat="49.78845" lon="2.34405">
        <ele>102.4</ele>
        <time>2022-07-13T08:05:10Z</time>
      </trkpt>
      <trkpt lat="49.78845" lon="2.34404">
        <ele>102.4</ele>
        <time>2022-07-13T08:05:11Z</time>
      </trkpt>
      <trkpt lat="49.78844" lon="2.34403">
        <ele>102.4</ele>
        <time>2022-07-13T08:05:12Z</time>
      </trkpt>
      <trkpt lat="49.78843" lon="2.34402">
        <ele>102.5</ele>
        <time>2022-07-13T08:05:13Z</time>
      </trkpt>
      <trkpt lat="49.78842" lon="2.344">
        <ele>102.5</ele>
        <time>2022-07-13T08:05:15Z</time>
      </trkpt>
      <trkpt lat="49.78841" lon="2.34399">
        <ele>102.6</ele>
        <time>2022-07-13T08:05:16Z</time>
      </trkpt>
      <trkpt lat="49.7884" lon="2.34396">
        <ele>102.6</ele>
        <time>2022-07-13T08:05:17Z</time>
      </trkpt>
      <trkpt lat="49.78839" lon="2.34395">
        <ele>102.6</ele>
        <time>2022-07-13T08:05:18Z</time>
      </trkpt>
      <trkpt lat="49.78839" lon="2.34394">
        <ele>102.7</ele>
        <time>2022-07-13T08:05:19Z</time>
      </trkpt>
      <trkpt lat="49.78837" lon="2.34392">
        <ele>102.7</ele>
        <time>2022-07-13T08:05:20Z</time>
      </trkpt>
      <trkpt lat="49.78837" lon="2.34391">
        <ele>102.8</ele>
        <time>2022-07-13T08:05:21Z</time>
      </trkpt>
      <trkpt lat="49.78836" lon="2.34389">
        <ele>102.8</ele>
        <time>2022-07-13T08:05:22Z</time>
      </trkpt>
      <trkpt lat="49.78835" lon="2.34388">
        <ele>102.8</ele>
        <time>2022-07-13T08:05:23Z</time>
      </trkpt>
      <trkpt lat="49.78834" lon="2.34387">
        <ele>102.8</ele>
        <time>2022-07-13T08:05:25Z</time>
      </trkpt>
      <trkpt lat="49.78833" lon="2.34385">
        <ele>102.9</ele>
        <time>2022-07-13T08:05:26Z</time>
      </trkpt>
      <trkpt lat="49.78832" lon="2.34384">
        <ele>102.9</ele>
        <time>2022-07-13T08:05:27Z</time>
      </trkpt>
      <trkpt lat="49.78831" lon="2.34381">
        <ele>103</ele>
        <time>2022-07-13T08:05:28Z</time>
      </trkpt>
      <trkpt lat="49.7883" lon="2.3438">
        <ele>103</ele>
        <time>2022-07-13T08:05:29Z</time>
      </trkpt>
      <trkpt lat="49.7883" lon="2.34379">
        <ele>103</ele>
        <time>2022-07-13T08:05:30Z</time>
      </trkpt>
      <trkpt lat="49.78829" lon="2.34378">
        <ele>103</ele>
        <time>2022-07-13T08:05:31Z</time>
      </trkpt>
      <trkpt lat="49.78828" lon="2.34377">
        <ele>103.1</ele>
        <time>2022-07-13T08:05:32Z</time>
      </trkpt>
      <trkpt lat="49.78827" lon="2.34375">
        <ele>103.1</ele>
        <time>2022-07-13T08:05:33Z</time>
      </trkpt>
      <trkpt lat="49.78827" lon="2.34374">
        <ele>103.1</ele>
        <time>2022-07-13T08:05:34Z</time>
      </trkpt>
      <trkpt lat="49.78825" lon="2.34372">
        <ele>103.1</ele>
        <time>2022-07-13T08:05:35Z</time>
      </trkpt>
      <trkpt lat="49.78825" lon="2.34371">
        <ele>103.2</ele>
        <time>2022-07-13T08:05:36Z</time>
      </trkpt>
      <trkpt lat="49.78824" lon="2.34369">
        <ele>103.2</ele>
        <time>2022-07-13T08:05:38Z</time>
      </trkpt>
      <trkpt lat="49.78823" lon="2.34368">
        <ele>103.2</ele>
        <time>2022-07-13T08:05:39Z</time>
      </trkpt>
      <trkpt lat="49.78822" lon="2.34366">
        <ele>103.3</ele>
        <time>2022-07-13T08:05:40Z</time>
      </trkpt>
      <trkpt lat="49.78821" lon="2.34364">
        <ele>103.3</ele>
        <time>2022-07-13T08:05:41Z</time>
      </trkpt>
      <trkpt lat="49.7882" lon="2.34364">
        <ele>103.3</ele>
        <time>2022-07-13T08:05:42Z</time>
      </trkpt>
      <trkpt lat="49.7882" lon="2.34363">
        <ele>103.3</ele>
        <time>2022-07-13T08:05:43Z</time>
      </trkpt>
      <trkpt lat="49.78819" lon="2.34362">
        <ele>103.4</ele>
        <time>2022-07-13T08:05:44Z</time>
      </trkpt>
      <trkpt lat="49.78817" lon="2.34359">
        <ele>103.3</ele>
        <time>2022-07-13T08:05:45Z</time>
      </trkpt>
      <trkpt lat="49.78816" lon="2.34358">
        <ele>103.4</ele>
        <time>2022-07-13T08:05:46Z</time>
      </trkpt>
      <trkpt lat="49.78815" lon="2.34357">
        <ele>103.4</ele>
        <time>2022-07-13T08:05:47Z</time>
      </trkpt>
      <trkpt lat="49.78814" lon="2.34356">
        <ele>103.4</ele>
        <time>2022-07-13T08:05:48Z</time>
      </trkpt>
      <trkpt lat="49.78813" lon="2.34354">
        <ele>103.5</ele>
        <time>2022-07-13T08:05:50Z</time>
      </trkpt>
      <trkpt lat="49.78813" lon="2.34353">
        <ele>103.5</ele>
        <time>2022-07-13T08:05:51Z</time>
      </trkpt>
      <trkpt lat="49.78813" lon="2.34353">
        <ele>103.5</ele>
        <time>2022-07-13T08:05:52Z</time>
      </trkpt>
      <trkpt lat="49.78812" lon="2.34352">
        <ele>103.5</ele>
        <time>2022-07-13T08:05:53Z</time>
      </trkpt>
      <trkpt lat="49.78812" lon="2.34351">
        <ele>103.5</ele>
        <time>2022-07-13T08:05:54Z</time>
      </trkpt>
      <trkpt lat="49.78811" lon="2.3435">
        <ele>103.6</ele>
        <time>2022-07-13T08:05:55Z</time>
      </trkpt>
      <trkpt lat="49.7881" lon="2.34349">
        <ele>103.6</ele>
        <time>2022-07-13T08:05:56Z</time>
      </trkpt>
      <trkpt lat="49.78809" lon="2.34347">
        <ele>103.7</ele>
        <time>2022-07-13T08:05:57Z</time>
      </trkpt>
      <trkpt lat="49.78808" lon="2.34347">
        <ele>103.7</ele>
        <time>2022-07-13T08:05:58Z</time>
      </trkpt>
      <trkpt lat="49.78807" lon="2.34346">
        <ele>103.7</ele>
        <time>2022-07-13T08:06:00Z</time>
      </trkpt>
      <trkpt lat="49.78806" lon="2.34344">
        <ele>103.8</ele>
        <time>2022-07-13T08:06:01Z</time>
      </trkpt>
      <trkpt lat="49.78805" lon="2.34342">
        <ele>103.8</ele>
        <time>2022-07-13T08:06:02Z</time>
      </trkpt>
      <trkpt lat="49.78805" lon="2.34342">
        <ele>103.8</ele>
        <time>2022-07-13T08:06:03Z</time>
      </trkpt>
      <trkpt lat="49.78804" lon="2.34341">
        <ele>103.9</ele>
        <time>2022-07-13T08:06:04Z</time>
      </trkpt>
      <trkpt lat="49.78802" lon="2.34339">
        <ele>103.9</ele>
        <time>2022-07-13T08:06:05Z</time>
      </trkpt>
      <trkpt lat="49.78802" lon="2.34338">
        <ele>104</ele>
        <time>2022-07-13T08:06:06Z</time>
      </trkpt>
      <trkpt lat="49.78801" lon="2.34338">
        <ele>104</ele>
        <time>2022-07-13T08:06:07Z</time>
      </trkpt>
      <trkpt lat="49.78799" lon="2.34337">
        <ele>104</ele>
        <time>2022-07-13T08:06:08Z</time>
      </trkpt>
      <trkpt lat="49.78799" lon="2.34337">
        <ele>104.1</ele>
        <time>2022-07-13T08:06:10Z</time>
      </trkpt>
      <trkpt lat="49.78798" lon="2.34336">
        <ele>104.1</ele>
        <time>2022-07-13T08:06:11Z</time>
      </trkpt>
      <trkpt lat="49.78797" lon="2.34336">
        <ele>104.1</ele>
        <time>2022-07-13T08:06:12Z</time>
      </trkpt>
      <trkpt lat="49.78796" lon="2.34335">
        <ele>104.1</ele>
        <time>2022-07-13T08:06:13Z</time>
      </trkpt>
      <trkpt lat="49.78795" lon="2.34334">
        <ele>104.1</ele>
        <time>2022-07-13T08:06:14Z</time>
      </trkpt>
      <trkpt lat="49.78794" lon="2.34334">
        <ele>104.2</ele>
        <time>2022-07-13T08:06:15Z</time>
      </trkpt>
      <trkpt lat="49.78793" lon="2.34333">
        <ele>104.2</ele>
        <time>2022-07-13T08:06:16Z</time>
      </trkpt>
      <trkpt lat="49.78792" lon="2.34332">
        <ele>104.2</ele>
        <time>2022-07-13T08:06:17Z</time>
      </trkpt>
      <trkpt lat="49.7879" lon="2.34331">
        <ele>104.3</ele>
        <time>2022-07-13T08:06:19Z</time>
      </trkpt>
      <trkpt lat="49.78789" lon="2.3433">
        <ele>104.3</ele>
        <time>2022-07-13T08:06:20Z</time>
      </trkpt>
      <trkpt lat="49.78788" lon="2.34329">
        <ele>104.4</ele>
        <time>2022-07-13T08:06:21Z</time>
      </trkpt>
      <trkpt lat="49.78787" lon="2.34329">
        <ele>104.4</ele>
        <time>2022-07-13T08:06:22Z</time>
      </trkpt>
      <trkpt lat="49.78786" lon="2.34327">
        <ele>104.4</ele>
        <time>2022-07-13T08:06:24Z</time>
      </trkpt>
      <trkpt lat="49.78785" lon="2.34326">
        <ele>104.5</ele>
        <time>2022-07-13T08:06:25Z</time>
      </trkpt>
      <trkpt lat="49.78784" lon="2.34325">
        <ele>104.5</ele>
        <time>2022-07-13T08:06:26Z</time>
      </trkpt>
      <trkpt lat="49.78783" lon="2.34324">
        <ele>104.5</ele>
        <time>2022-07-13T08:06:27Z</time>
      </trkpt>
      <trkpt lat="49.78783" lon="2.34323">
        <ele>104.5</ele>
        <time>2022-07-13T08:06:28Z</time>
      </trkpt>
      <trkpt lat="49.78782" lon="2.34322">
        <ele>104.6</ele>
        <time>2022-07-13T08:06:29Z</time>
      </trkpt>
      <trkpt lat="49.78781" lon="2.34321">
        <ele>104.6</ele>
        <time>2022-07-13T08:06:31Z</time>
      </trkpt>
      <trkpt lat="49.7878" lon="2.3432">
        <ele>104.6</ele>
        <time>2022-07-13T08:06:32Z</time>
      </trkpt>
      <trkpt lat="49.78779" lon="2.34318">
        <ele>104.7</ele>
        <time>2022-07-13T08:06:33Z</time>
      </trkpt>
      <trkpt lat="49.78778" lon="2.34317">
        <ele>104.7</ele>
        <time>2022-07-13T08:06:34Z</time>
      </trkpt>
      <trkpt lat="49.78777" lon="2.34316">
        <ele>104.7</ele>
        <time>2022-07-13T08:06:35Z</time>
      </trkpt>
      <trkpt lat="49.78777" lon="2.34315">
        <ele>104.8</ele>
        <time>2022-07-13T08:06:36Z</time>
      </trkpt>
      <trkpt lat="49.78776" lon="2.34314">
        <ele>104.8</ele>
        <time>2022-07-13T08:06:37Z</time>
      </trkpt>
      <trkpt lat="49.78774" lon="2.34312">
        <ele>104.8</ele>
        <time>2022-07-13T08:06:38Z</time>
      </trkpt>
      <trkpt lat="49.78773" lon="2.34311">
        <ele>104.9</ele>
        <time>2022-07-13T08:06:39Z</time>
      </trkpt>
      <trkpt lat="49.78773" lon="2.34311">
        <ele>104.9</ele>
        <time>2022-07-13T08:06:40Z</time>
      </trkpt>
      <trkpt lat="49.78772" lon="2.34308">
        <ele>104.9</ele>
        <time>2022-07-13T08:06:42Z</time>
      </trkpt>
      <trkpt lat="49.78771" lon="2.34307">
        <ele>105</ele>
        <time>2022-07-13T08:06:43Z</time>
      </trkpt>
      <trkpt lat="49.78771" lon="2.34306">
        <ele>105</ele>
        <time>2022-07-13T08:06:44Z</time>
      </trkpt>
      <trkpt lat="49.78769" lon="2.34303">
        <ele>105</ele>
        <time>2022-07-13T08:06:45Z</time>
      </trkpt>
      <trkpt lat="49.78769" lon="2.34302">
        <ele>105.1</ele>
        <time>2022-07-13T08:06:46Z</time>
      </trkpt>
      <trkpt lat="49.78768" lon="2.34301">
        <ele>105.1</ele>
        <time>2022-07-13T08:06:47Z</time>
      </trkpt>
      <trkpt lat="49.78766" lon="2.34299">
        <ele>105.2</ele>
        <time>2022-07-13T08:06:48Z</time>
      </trkpt>
      <trkpt lat="49.78766" lon="2.34298">
        <ele>105.2</ele>
        <time>2022-07-13T08:06:49Z</time>
      </trkpt>
      <trkpt lat="49.78764" lon="2.34296">
        <ele>105.2</ele>
        <time>2022-07-13T08:06:50Z</time>
      </trkpt>
      <trkpt lat="49.78763" lon="2.34295">
        <ele>105.3</ele>
        <time>2022-07-13T08:06:52Z</time>
      </trkpt>
      <trkpt lat="49.78762" lon="2.34294">
        <ele>105.3</ele>
        <time>2022-07-13T08:06:53Z</time>
      </trkpt>
      <trkpt lat="49.78762" lon="2.34293">
        <ele>105.3</ele>
        <time>2022-07-13T08:06:54Z</time>
      </trkpt>
      <trkpt lat="49.78761" lon="2.34291">
        <ele>105.4</ele>
        <time>2022-07-13T08:06:55Z</time>
      </trkpt>
      <trkpt lat="49.7876" lon="2.3429">
        <ele>105.4</ele>
        <time>2022-07-13T08:06:56Z</time>
      </trkpt>
      <trkpt lat="49.78759" lon="2.34288">
        <ele>105.4</ele>
        <time>2022-07-13T08:06:57Z</time>
      </trkpt>
      <trkpt lat="49.78758" lon="2.34286">
        <ele>105.5</ele>
        <time>2022-07-13T08:06:58Z</time>
      </trkpt>
      <trkpt lat="49.78757" lon="2.34285">
        <ele>105.5</ele>
        <time>2022-07-13T08:06:59Z</time>
      </trkpt>
      <trkpt lat="49.78756" lon="2.34284">
        <ele>105.5</ele>
        <time>2022-07-13T08:07:00Z</time>
      </trkpt>
      <trkpt lat="49.78756" lon="2.34282">
        <ele>105.5</ele>
        <time>2022-07-13T08:07:02Z</time>
      </trkpt>
      <trkpt lat="49.78754" lon="2.3428">
        <ele>105.6</ele>
        <time>2022-07-13T08:07:03Z</time>
      </trkpt>
      <trkpt lat="49.78754" lon="2.34279">
        <ele>105.6</ele>
        <time>2022-07-13T08:07:04Z</time>
      </trkpt>
      <trkpt lat="49.78752" lon="2.34277">
        <ele>105.6</ele>
        <time>2022-07-13T08:07:05Z</time>
      </trkpt>
      <trkpt lat="49.78752" lon="2.34276">
        <ele>105.6</ele>
        <time>2022-07-13T08:07:06Z</time>
      </trkpt>
      <trkpt lat="49.78751" lon="2.34275">
        <ele>105.6</ele>
        <time>2022-07-13T08:07:07Z</time>
      </trkpt>
      <trkpt lat="49.78749" lon="2.34272">
        <ele>105.7</ele>
        <time>2022-07-13T08:07:08Z</time>
      </trkpt>
      <trkpt lat="49.78749" lon="2.34271">
        <ele>105.7</ele>
        <time>2022-07-13T08:07:09Z</time>
      </trkpt>
      <trkpt lat="49.78748" lon="2.34271">
        <ele>105.7</ele>
        <time>2022-07-13T08:07:10Z</time>
      </trkpt>
      <trkpt lat="49.78748" lon="2.3427">
        <ele>105.7</ele>
        <time>2022-07-13T08:07:12Z</time>
      </trkpt>
      <trkpt lat="49.78746" lon="2.34268">
        <ele>105.7</ele>
        <time>2022-07-13T08:07:13Z</time>
      </trkpt>
      <trkpt lat="49.78746" lon="2.34267">
        <ele>105.7</ele>
        <time>2022-07-13T08:07:14Z</time>
      </trkpt>
      <trkpt lat="49.78745" lon="2.34266">
        <ele>105.8</ele>
        <time>2022-07-13T08:07:15Z</time>
      </trkpt>
      <trkpt lat="49.78744" lon="2.34265">
        <ele>105.8</ele>
        <time>2022-07-13T08:07:16Z</time>
      </trkpt>
      <trkpt lat="49.78743" lon="2.34264">
        <ele>105.8</ele>
        <time>2022-07-13T08:07:17Z</time>
      </trkpt>
      <trkpt lat="49.78743" lon="2.34263">
        <ele>105.8</ele>
        <time>2022-07-13T08:07:18Z</time>
      </trkpt>
      <trkpt lat="49.78742" lon="2.34262">
        <ele>105.8</ele>
        <time>2022-07-13T08:07:19Z</time>
      </trkpt>
      <trkpt lat="49.7874" lon="2.3426">
        <ele>105.8</ele>
        <time>2022-07-13T08:07:20Z</time>
      </trkpt>
      <trkpt lat="49.7874" lon="2.34259">
        <ele>105.9</ele>
        <time>2022-07-13T08:07:22Z</time>
      </trkpt>
      <trkpt lat="49.78739" lon="2.34257">
        <ele>105.9</ele>
        <time>2022-07-13T08:07:23Z</time>
      </trkpt>
      <trkpt lat="49.78738" lon="2.34257">
        <ele>105.9</ele>
        <time>2022-07-13T08:07:24Z</time>
      </trkpt>
      <trkpt lat="49.78737" lon="2.34256">
        <ele>105.9</ele>
        <time>2022-07-13T08:07:25Z</time>
      </trkpt>
      <trkpt lat="49.78737" lon="2.34254">
        <ele>105.9</ele>
        <time>2022-07-13T08:07:26Z</time>
      </trkpt>
      <trkpt lat="49.78736" lon="2.34253">
        <ele>105.9</ele>
        <time>2022-07-13T08:07:28Z</time>
      </trkpt>
      <trkpt lat="49.78735" lon="2.34251">
        <ele>106</ele>
        <time>2022-07-13T08:07:29Z</time>
      </trkpt>
      <trkpt lat="49.78734" lon="2.3425">
        <ele>106</ele>
        <time>2022-07-13T08:07:30Z</time>
      </trkpt>
      <trkpt lat="49.78733" lon="2.34248">
        <ele>106</ele>
        <time>2022-07-13T08:07:31Z</time>
      </trkpt>
      <trkpt lat="49.78732" lon="2.34245">
        <ele>106.1</ele>
        <time>2022-07-13T08:07:33Z</time>
      </trkpt>
      <trkpt lat="49.78731" lon="2.34244">
        <ele>106.1</ele>
        <time>2022-07-13T08:07:34Z</time>
      </trkpt>
      <trkpt lat="49.7873" lon="2.34243">
        <ele>106.1</ele>
        <time>2022-07-13T08:07:35Z</time>
      </trkpt>
      <trkpt lat="49.78729" lon="2.34241">
        <ele>106.1</ele>
        <time>2022-07-13T08:07:36Z</time>
      </trkpt>
      <trkpt lat="49.78728" lon="2.34239">
        <ele>106.1</ele>
        <time>2022-07-13T08:07:37Z</time>
      </trkpt>
      <trkpt lat="49.78727" lon="2.34237">
        <ele>106.1</ele>
        <time>2022-07-13T08:07:38Z</time>
      </trkpt>
      <trkpt lat="49.78727" lon="2.34236">
        <ele>106.1</ele>
        <time>2022-07-13T08:07:39Z</time>
      </trkpt>
      <trkpt lat="49.78726" lon="2.34234">
        <ele>106.2</ele>
        <time>2022-07-13T08:07:40Z</time>
      </trkpt>
      <trkpt lat="49.78725" lon="2.34233">
        <ele>106.2</ele>
        <time>2022-07-13T08:07:42Z</time>
      </trkpt>
      <trkpt lat="49.78724" lon="2.34231">
        <ele>106.2</ele>
        <time>2022-07-13T08:07:43Z</time>
      </trkpt>
      <trkpt lat="49.78723" lon="2.3423">
        <ele>106.2</ele>
        <time>2022-07-13T08:07:44Z</time>
      </trkpt>
      <trkpt lat="49.78722" lon="2.34228">
        <ele>106.2</ele>
        <time>2022-07-13T08:07:45Z</time>
      </trkpt>
      <trkpt lat="49.78722" lon="2.34228">
        <ele>106.2</ele>
        <time>2022-07-13T08:07:46Z</time>
      </trkpt>
      <trkpt lat="49.78721" lon="2.34227">
        <ele>106.2</ele>
        <time>2022-07-13T08:07:47Z</time>
      </trkpt>
      <trkpt lat="49.7872" lon="2.34225">
        <ele>106.2</ele>
        <time>2022-07-13T08:07:48Z</time>
      </trkpt>
      <trkpt lat="49.78719" lon="2.34224">
        <ele>106.2</ele>
        <time>2022-07-13T08:07:49Z</time>
      </trkpt>
      <trkpt lat="49.78719" lon="2.34223">
        <ele>106.2</ele>
        <time>2022-07-13T08:07:50Z</time>
      </trkpt>
      <trkpt lat="49.78718" lon="2.34222">
        <ele>106.2</ele>
        <time>2022-07-13T08:07:51Z</time>
      </trkpt>
      <trkpt lat="49.78717" lon="2.34221">
        <ele>106.3</ele>
        <time>2022-07-13T08:07:52Z</time>
      </trkpt>
      <trkpt lat="49.78716" lon="2.3422">
        <ele>106.3</ele>
        <time>2022-07-13T08:07:53Z</time>
      </trkpt>
      <trkpt lat="49.78715" lon="2.34219">
        <ele>106.3</ele>
        <time>2022-07-13T08:07:54Z</time>
      </trkpt>
      <trkpt lat="49.78714" lon="2.34218">
        <ele>106.3</ele>
        <time>2022-07-13T08:07:56Z</time>
      </trkpt>
      <trkpt lat="49.78713" lon="2.34217">
        <ele>106.3</ele>
        <time>2022-07-13T08:07:57Z</time>
      </trkpt>
      <trkpt lat="49.78712" lon="2.34216">
        <ele>106.3</ele>
        <time>2022-07-13T08:07:58Z</time>
      </trkpt>
      <trkpt lat="49.78711" lon="2.34214">
        <ele>106.3</ele>
        <time>2022-07-13T08:07:59Z</time>
      </trkpt>
      <trkpt lat="49.7871" lon="2.34213">
        <ele>106.3</ele>
        <time>2022-07-13T08:08:00Z</time>
      </trkpt>
      <trkpt lat="49.78709" lon="2.34212">
        <ele>106.3</ele>
        <time>2022-07-13T08:08:01Z</time>
      </trkpt>
      <trkpt lat="49.78708" lon="2.34211">
        <ele>106.3</ele>
        <time>2022-07-13T08:08:02Z</time>
      </trkpt>
      <trkpt lat="49.78707" lon="2.34208">
        <ele>106.3</ele>
        <time>2022-07-13T08:08:03Z</time>
      </trkpt>
      <trkpt lat="49.78707" lon="2.34208">
        <ele>106.3</ele>
        <time>2022-07-13T08:08:04Z</time>
      </trkpt>
      <trkpt lat="49.78706" lon="2.34206">
        <ele>106.4</ele>
        <time>2022-07-13T08:08:06Z</time>
      </trkpt>
      <trkpt lat="49.78705" lon="2.34204">
        <ele>106.4</ele>
        <time>2022-07-13T08:08:07Z</time>
      </trkpt>
      <trkpt lat="49.78704" lon="2.34203">
        <ele>106.4</ele>
        <time>2022-07-13T08:08:08Z</time>
      </trkpt>
      <trkpt lat="49.78703" lon="2.34202">
        <ele>106.4</ele>
        <time>2022-07-13T08:08:09Z</time>
      </trkpt>
      <trkpt lat="49.78703" lon="2.34201">
        <ele>106.4</ele>
        <time>2022-07-13T08:08:10Z</time>
      </trkpt>
      <trkpt lat="49.78702" lon="2.342">
        <ele>106.4</ele>
        <time>2022-07-13T08:08:11Z</time>
      </trkpt>
      <trkpt lat="49.78701" lon="2.34199">
        <ele>106.4</ele>
        <time>2022-07-13T08:08:12Z</time>
      </trkpt>
      <trkpt lat="49.78699" lon="2.34197">
        <ele>106.5</ele>
        <time>2022-07-13T08:08:13Z</time>
      </trkpt>
      <trkpt lat="49.78699" lon="2.34196">
        <ele>106.5</ele>
        <time>2022-07-13T08:08:14Z</time>
      </trkpt>
      <trkpt lat="49.78698" lon="2.34195">
        <ele>106.5</ele>
        <time>2022-07-13T08:08:15Z</time>
      </trkpt>
      <trkpt lat="49.78697" lon="2.34193">
        <ele>106.5</ele>
        <time>2022-07-13T08:08:17Z</time>
      </trkpt>
      <trkpt lat="49.78696" lon="2.34191">
        <ele>106.5</ele>
        <time>2022-07-13T08:08:18Z</time>
      </trkpt>
      <trkpt lat="49.78695" lon="2.3419">
        <ele>106.5</ele>
        <time>2022-07-13T08:08:19Z</time>
      </trkpt>
      <trkpt lat="49.78695" lon="2.34189">
        <ele>106.5</ele>
        <time>2022-07-13T08:08:20Z</time>
      </trkpt>
      <trkpt lat="49.78694" lon="2.34188">
        <ele>106.5</ele>
        <time>2022-07-13T08:08:21Z</time>
      </trkpt>
      <trkpt lat="49.78693" lon="2.34186">
        <ele>106.6</ele>
        <time>2022-07-13T08:08:22Z</time>
      </trkpt>
      <trkpt lat="49.78692" lon="2.34184">
        <ele>106.6</ele>
        <time>2022-07-13T08:08:23Z</time>
      </trkpt>
      <trkpt lat="49.78691" lon="2.34183">
        <ele>106.6</ele>
        <time>2022-07-13T08:08:25Z</time>
      </trkpt>
      <trkpt lat="49.78691" lon="2.34182">
        <ele>106.6</ele>
        <time>2022-07-13T08:08:26Z</time>
      </trkpt>
      <trkpt lat="49.7869" lon="2.34181">
        <ele>106.6</ele>
        <time>2022-07-13T08:08:27Z</time>
      </trkpt>
      <trkpt lat="49.78688" lon="2.34179">
        <ele>106.6</ele>
        <time>2022-07-13T08:08:29Z</time>
      </trkpt>
      <trkpt lat="49.78688" lon="2.34179">
        <ele>106.6</ele>
        <time>2022-07-13T08:08:30Z</time>
      </trkpt>
      <trkpt lat="49.78687" lon="2.34178">
        <ele>106.6</ele>
        <time>2022-07-13T08:08:31Z</time>
      </trkpt>
      <trkpt lat="49.78686" lon="2.34178">
        <ele>106.7</ele>
        <time>2022-07-13T08:08:32Z</time>
      </trkpt>
      <trkpt lat="49.78685" lon="2.34179">
        <ele>106.7</ele>
        <time>2022-07-13T08:08:33Z</time>
      </trkpt>
      <trkpt lat="49.78685" lon="2.34179">
        <ele>106.7</ele>
        <time>2022-07-13T08:08:34Z</time>
      </trkpt>
      <trkpt lat="49.78685" lon="2.34179">
        <ele>106.7</ele>
        <time>2022-07-13T08:08:35Z</time>
      </trkpt>
      <trkpt lat="49.78685" lon="2.34179">
        <ele>106.7</ele>
        <time>2022-07-13T08:08:36Z</time>
      </trkpt>
      <trkpt lat="49.78685" lon="2.34179">
        <ele>106.7</ele>
        <time>2022-07-13T08:08:37Z</time>
      </trkpt>
      <trkpt lat="49.78685" lon="2.34179">
        <ele>106.7</ele>
        <time>2022-07-13T08:08:39Z</time>
      </trkpt>
      <trkpt lat="49.78685" lon="2.34179">
        <ele>106.7</ele>
        <time>2022-07-13T08:08:40Z</time>
      </trkpt>
      <trkpt lat="49.78685" lon="2.34179">
        <ele>106.7</ele>
        <time>2022-07-13T08:08:41Z</time>
      </trkpt>
      <trkpt lat="49.78685" lon="2.34179">
        <ele>106.7</ele>
        <time>2022-07-13T08:08:42Z</time>
      </trkpt>
      <trkpt lat="49.78685" lon="2.34179">
        <ele>106.7</ele>
        <time>2022-07-13T08:08:43Z</time>
      </trkpt>
      <trkpt lat="49.78685" lon="2.34179">
        <ele>106.7</ele>
        <time>2022-07-13T08:08:44Z</time>
      </trkpt>
      <trkpt lat="49.78685" lon="2.34179">
        <ele>106.7</ele>
        <time>2022-07-13T08:08:45Z</time>
      </trkpt>
      <trkpt lat="49.78685" lon="2.34179">
        <ele>106.7</ele>
        <time>2022-07-13T08:08:46Z</time>
      </trkpt>
      <trkpt lat="49.78685" lon="2.34179">
        <ele>106.7</ele>
        <time>2022-07-13T08:08:47Z</time>
      </trkpt>
      <trkpt lat="49.78685" lon="2.34179">
        <ele>106.7</ele>
        <time>2022-07-13T08:08:48Z</time>
      </trkpt>
      <trkpt lat="49.78686" lon="2.34179">
        <ele>106.7</ele>
        <time>2022-07-13T08:08:49Z</time>
      </trkpt>
      <trkpt lat="49.78686" lon="2.34179">
        <ele>106.7</ele>
        <time>2022-07-13T08:08:50Z</time>
      </trkpt>
      <trkpt lat="49.78686" lon="2.34179">
        <ele>106.7</ele>
        <time>2022-07-13T08:08:51Z</time>
      </trkpt>
      <trkpt lat="49.78686" lon="2.34179">
        <ele>106.7</ele>
        <time>2022-07-13T08:08:52Z</time>
      </trkpt>
      <trkpt lat="49.78686" lon="2.34179">
        <ele>106.7</ele>
        <time>2022-07-13T08:08:53Z</time>
      </trkpt>
      <trkpt lat="49.78686" lon="2.34179">
        <ele>106.7</ele>
        <time>2022-07-13T08:08:54Z</time>
      </trkpt>
      <trkpt lat="49.78686" lon="2.34179">
        <ele>106.7</ele>
        <time>2022-07-13T08:08:55Z</time>
      </trkpt>
      <trkpt lat="49.78686" lon="2.34179">
        <ele>106.7</ele>
        <time>2022-07-13T08:08:56Z</time>
      </trkpt>
      <trkpt lat="49.78686" lon="2.34179">
        <ele>106.7</ele>
        <time>2022-07-13T08:08:57Z</time>
      </trkpt>
      <trkpt lat="49.78686" lon="2.34179">
        <ele>106.7</ele>
        <time>2022-07-13T08:08:58Z</time>
      </trkpt>
      <trkpt lat="49.78686" lon="2.34179">
        <ele>106.7</ele>
        <time>2022-07-13T08:08:59Z</time>
      </trkpt>
      <trkpt lat="49.78686" lon="2.34179">
        <ele>106.7</ele>
        <time>2022-07-13T08:09:00Z</time>
      </trkpt>
      <trkpt lat="49.78686" lon="2.34179">
        <ele>106.7</ele>
        <time>2022-07-13T08:09:01Z</time>
      </trkpt>
      <trkpt lat="49.78686" lon="2.34179">
        <ele>106.7</ele>
        <time>2022-07-13T08:09:02Z</time>
      </trkpt>
      <trkpt lat="49.78686" lon="2.34179">
        <ele>106.7</ele>
        <time>2022-07-13T08:09:03Z</time>
      </trkpt>
      <trkpt lat="49.78686" lon="2.34179">
        <ele>106.7</ele>
        <time>2022-07-13T08:09:04Z</time>
      </trkpt>
      <trkpt lat="49.78686" lon="2.34179">
        <ele>106.7</ele>
        <time>2022-07-13T08:09:05Z</time>
      </trkpt>
      <trkpt lat="49.78686" lon="2.34179">
        <ele>106.7</ele>
        <time>2022-07-13T08:09:06Z</time>
      </trkpt>
      <trkpt lat="49.78686" lon="2.34179">
        <ele>106.7</ele>
        <time>2022-07-13T08:09:07Z</time>
      </trkpt>
      <trkpt lat="49.78686" lon="2.34179">
        <ele>106.7</ele>
        <time>2022-07-13T08:09:08Z</time>
      </trkpt>
      <trkpt lat="49.78686" lon="2.34179">
        <ele>106.7</ele>
        <time>2022-07-13T08:09:09Z</time>
      </trkpt>
      <trkpt lat="49.78686" lon="2.34179">
        <ele>106.7</ele>
        <time>2022-07-13T08:09:10Z</time>
      </trkpt>
      <trkpt lat="49.78686" lon="2.34179">
        <ele>106.7</ele>
        <time>2022-07-13T08:09:11Z</time>
      </trkpt>
      <trkpt lat="49.78686" lon="2.34179">
        <ele>106.7</ele>
        <time>2022-07-13T08:09:12Z</time>
      </trkpt>
      <trkpt lat="49.78686" lon="2.34179">
        <ele>106.7</ele>
        <time>2022-07-13T08:09:13Z</time>
      </trkpt>
      <trkpt lat="49.78686" lon="2.34179">
        <ele>106.7</ele>
        <time>2022-07-13T08:09:14Z</time>
      </trkpt>
      <trkpt lat="49.78686" lon="2.34179">
        <ele>106.7</ele>
        <time>2022-07-13T08:09:15Z</time>
      </trkpt>
      <trkpt lat="49.78686" lon="2.34179">
        <ele>106.7</ele>
        <time>2022-07-13T08:09:16Z</time>
      </trkpt>
      <trkpt lat="49.78686" lon="2.34179">
        <ele>106.7</ele>
        <time>2022-07-13T08:09:17Z</time>
      </trkpt>
      <trkpt lat="49.78686" lon="2.34179">
        <ele>106.7</ele>
        <time>2022-07-13T08:09:18Z</time>
      </trkpt>
      <trkpt lat="49.78686" lon="2.34179">
        <ele>106.7</ele>
        <time>2022-07-13T08:09:19Z</time>
      </trkpt>
      <trkpt lat="49.78686" lon="2.34179">
        <ele>106.7</ele>
        <time>2022-07-13T08:09:20Z</time>
      </trkpt>
      <trkpt lat="49.78686" lon="2.34179">
        <ele>106.7</ele>
        <time>2022-07-13T08:09:21Z</time>
      </trkpt>
      <trkpt lat="49.78686" lon="2.34179">
        <ele>106.7</ele>
        <time>2022-07-13T08:09:22Z</time>
      </trkpt>
      <trkpt lat="49.78686" lon="2.34179">
        <ele>106.7</ele>
        <time>2022-07-13T08:09:23Z</time>
      </trkpt>
      <trkpt lat="49.78686" lon="2.34179">
        <ele>106.7</ele>
        <time>2022-07-13T08:09:24Z</time>
      </trkpt>
      <trkpt lat="49.78686" lon="2.34179">
        <ele>106.7</ele>
        <time>2022-07-13T08:09:25Z</time>
      </trkpt>
      <trkpt lat="49.78686" lon="2.34179">
        <ele>106.7</ele>
        <time>2022-07-13T08:09:26Z</time>
      </trkpt>
      <trkpt lat="49.78686" lon="2.34179">
        <ele>106.7</ele>
        <time>2022-07-13T08:09:27Z</time>
      </trkpt>
      <trkpt lat="49.78686" lon="2.34179">
        <ele>106.7</ele>
        <time>2022-07-13T08:09:28Z</time>
      </trkpt>
      <trkpt lat="49.78686" lon="2.34179">
        <ele>106.7</ele>
        <time>2022-07-13T08:09:29Z</time>
      </trkpt>
      <trkpt lat="49.78686" lon="2.34179">
        <ele>106.7</ele>
        <time>2022-07-13T08:09:30Z</time>
      </trkpt>
      <trkpt lat="49.78686" lon="2.34179">
        <ele>106.7</ele>
        <time>2022-07-13T08:09:31Z</time>
      </trkpt>
      <trkpt lat="49.78686" lon="2.34179">
        <ele>106.7</ele>
        <time>2022-07-13T08:09:32Z</time>
      </trkpt>
      <trkpt lat="49.78686" lon="2.34179">
        <ele>106.7</ele>
        <time>2022-07-13T08:09:33Z</time>
      </trkpt>
      <trkpt lat="49.78686" lon="2.34179">
        <ele>106.7</ele>
        <time>2022-07-13T08:09:34Z</time>
      </trkpt>
      <trkpt lat="49.78686" lon="2.3418">
        <ele>106.7</ele>
        <time>2022-07-13T08:09:35Z</time>
      </trkpt>
      <trkpt lat="49.78686" lon="2.3418">
        <ele>106.7</ele>
        <time>2022-07-13T08:09:36Z</time>
      </trkpt>
      <trkpt lat="49.78686" lon="2.3418">
        <ele>106.7</ele>
        <time>2022-07-13T08:09:37Z</time>
      </trkpt>
      <trkpt lat="49.78686" lon="2.3418">
        <ele>106.7</ele>
        <time>2022-07-13T08:09:38Z</time>
      </trkpt>
      <trkpt lat="49.78686" lon="2.3418">
        <ele>106.7</ele>
        <time>2022-07-13T08:09:39Z</time>
      </trkpt>
      <trkpt lat="49.78686" lon="2.3418">
        <ele>106.7</ele>
        <time>2022-07-13T08:09:40Z</time>
      </trkpt>
      <trkpt lat="49.78686" lon="2.3418">
        <ele>106.7</ele>
        <time>2022-07-13T08:09:41Z</time>
      </trkpt>
      <trkpt lat="49.78686" lon="2.3418">
        <ele>106.7</ele>
        <time>2022-07-13T08:09:42Z</time>
      </trkpt>
      <trkpt lat="49.78686" lon="2.3418">
        <ele>106.7</ele>
        <time>2022-07-13T08:09:43Z</time>
      </trkpt>
      <trkpt lat="49.78686" lon="2.3418">
        <ele>106.7</ele>
        <time>2022-07-13T08:09:44Z</time>
      </trkpt>
      <trkpt lat="49.78687" lon="2.3418">
        <ele>106.7</ele>
        <time>2022-07-13T08:09:45Z</time>
      </trkpt>
      <trkpt lat="49.78687" lon="2.3418">
        <ele>106.7</ele>
        <time>2022-07-13T08:09:46Z</time>
      </trkpt>
      <trkpt lat="49.78687" lon="2.3418">
        <ele>106.7</ele>
        <time>2022-07-13T08:09:47Z</time>
      </trkpt>
      <trkpt lat="49.78687" lon="2.3418">
        <ele>106.7</ele>
        <time>2022-07-13T08:09:48Z</time>
      </trkpt>
      <trkpt lat="49.78687" lon="2.3418">
        <ele>106.7</ele>
        <time>2022-07-13T08:09:49Z</time>
      </trkpt>
      <trkpt lat="49.78687" lon="2.3418">
        <ele>106.7</ele>
        <time>2022-07-13T08:09:50Z</time>
      </trkpt>
      <trkpt lat="49.78687" lon="2.3418">
        <ele>106.7</ele>
        <time>2022-07-13T08:09:51Z</time>
      </trkpt>
      <trkpt lat="49.78687" lon="2.3418">
        <ele>106.7</ele>
        <time>2022-07-13T08:09:52Z</time>
      </trkpt>
      <trkpt lat="49.78687" lon="2.3418">
        <ele>106.7</ele>
        <time>2022-07-13T08:09:53Z</time>
      </trkpt>
      <trkpt lat="49.78687" lon="2.3418">
        <ele>106.7</ele>
        <time>2022-07-13T08:09:54Z</time>
      </trkpt>
      <trkpt lat="49.78687" lon="2.3418">
        <ele>106.7</ele>
        <time>2022-07-13T08:09:55Z</time>
      </trkpt>
      <trkpt lat="49.78687" lon="2.3418">
        <ele>106.7</ele>
        <time>2022-07-13T08:09:56Z</time>
      </trkpt>
      <trkpt lat="49.78687" lon="2.3418">
        <ele>106.7</ele>
        <time>2022-07-13T08:09:57Z</time>
      </trkpt>
      <trkpt lat="49.78687" lon="2.3418">
        <ele>106.7</ele>
        <time>2022-07-13T08:09:58Z</time>
      </trkpt>
      <trkpt lat="49.78687" lon="2.3418">
        <ele>106.7</ele>
        <time>2022-07-13T08:09:59Z</time>
      </trkpt>
      <trkpt lat="49.78687" lon="2.3418">
        <ele>106.7</ele>
        <time>2022-07-13T08:10:00Z</time>
      </trkpt>
      <trkpt lat="49.78687" lon="2.3418">
        <ele>106.7</ele>
        <time>2022-07-13T08:10:01Z</time>
      </trkpt>
      <trkpt lat="49.78687" lon="2.3418">
        <ele>106.7</ele>
        <time>2022-07-13T08:10:02Z</time>
      </trkpt>
      <trkpt lat="49.78687" lon="2.3418">
        <ele>106.7</ele>
        <time>2022-07-13T08:10:03Z</time>
      </trkpt>
      <trkpt lat="49.78687" lon="2.3418">
        <ele>106.7</ele>
        <time>2022-07-13T08:10:04Z</time>
      </trkpt>
      <trkpt lat="49.78687" lon="2.3418">
        <ele>106.7</ele>
        <time>2022-07-13T08:10:05Z</time>
      </trkpt>
      <trkpt lat="49.78687" lon="2.3418">
        <ele>106.7</ele>
        <time>2022-07-13T08:10:06Z</time>
      </trkpt>
      <trkpt lat="49.78687" lon="2.3418">
        <ele>106.7</ele>
        <time>2022-07-13T08:10:07Z</time>
      </trkpt>
      <trkpt lat="49.78687" lon="2.3418">
        <ele>106.7</ele>
        <time>2022-07-13T08:10:08Z</time>
      </trkpt>
      <trkpt lat="49.78687" lon="2.3418">
        <ele>106.7</ele>
        <time>2022-07-13T08:10:09Z</time>
      </trkpt>
      <trkpt lat="49.78687" lon="2.3418">
        <ele>106.7</ele>
        <time>2022-07-13T08:10:10Z</time>
      </trkpt>
      <trkpt lat="49.78687" lon="2.3418">
        <ele>106.7</ele>
        <time>2022-07-13T08:10:11Z</time>
      </trkpt>
      <trkpt lat="49.78687" lon="2.3418">
        <ele>106.7</ele>
        <time>2022-07-13T08:10:12Z</time>
      </trkpt>
      <trkpt lat="49.78687" lon="2.3418">
        <ele>106.7</ele>
        <time>2022-07-13T08:10:13Z</time>
      </trkpt>
      <trkpt lat="49.78687" lon="2.3418">
        <ele>106.7</ele>
        <time>2022-07-13T08:10:14Z</time>
      </trkpt>
      <trkpt lat="49.78687" lon="2.3418">
        <ele>106.7</ele>
        <time>2022-07-13T08:10:15Z</time>
      </trkpt>
      <trkpt lat="49.78687" lon="2.3418">
        <ele>106.7</ele>
        <time>2022-07-13T08:10:16Z</time>
      </trkpt>
      <trkpt lat="49.78687" lon="2.3418">
        <ele>106.7</ele>
        <time>2022-07-13T08:10:17Z</time>
      </trkpt>
      <trkpt lat="49.78687" lon="2.3418">
        <ele>106.7</ele>
        <time>2022-07-13T08:10:18Z</time>
      </trkpt>
      <trkpt lat="49.78687" lon="2.3418">
        <ele>106.7</ele>
        <time>2022-07-13T08:10:19Z</time>
      </trkpt>
      <trkpt lat="49.78687" lon="2.3418">
        <ele>106.7</ele>
        <time>2022-07-13T08:10:20Z</time>
      </trkpt>
      <trkpt lat="49.78687" lon="2.3418">
        <ele>106.7</ele>
        <time>2022-07-13T08:10:21Z</time>
      </trkpt>
      <trkpt lat="49.78687" lon="2.3418">
        <ele>106.7</ele>
        <time>2022-07-13T08:10:22Z</time>
      </trkpt>
      <trkpt lat="49.78687" lon="2.3418">
        <ele>106.7</ele>
        <time>2022-07-13T08:10:23Z</time>
      </trkpt>
      <trkpt lat="49.78687" lon="2.3418">
        <ele>106.7</ele>
        <time>2022-07-13T08:10:24Z</time>
      </trkpt>
      <trkpt lat="49.78687" lon="2.3418">
        <ele>106.7</ele>
        <time>2022-07-13T08:10:25Z</time>
      </trkpt>
      <trkpt lat="49.78687" lon="2.3418">
        <ele>106.7</ele>
        <time>2022-07-13T08:10:26Z</time>
      </trkpt>
      <trkpt lat="49.78687" lon="2.3418">
        <ele>106.7</ele>
        <time>2022-07-13T08:10:27Z</time>
      </trkpt>
      <trkpt lat="49.78687" lon="2.3418">
        <ele>106.7</ele>
        <time>2022-07-13T08:10:28Z</time>
      </trkpt>
      <trkpt lat="49.78687" lon="2.3418">
        <ele>106.7</ele>
        <time>2022-07-13T08:10:29Z</time>
      </trkpt>
      <trkpt lat="49.78687" lon="2.3418">
        <ele>106.7</ele>
        <time>2022-07-13T08:10:30Z</time>
      </trkpt>
      <trkpt lat="49.78687" lon="2.3418">
        <ele>106.7</ele>
        <time>2022-07-13T08:10:31Z</time>
      </trkpt>
      <trkpt lat="49.78687" lon="2.3418">
        <ele>106.7</ele>
        <time>2022-07-13T08:10:32Z</time>
      </trkpt>
      <trkpt lat="49.78687" lon="2.3418">
        <ele>106.7</ele>
        <time>2022-07-13T08:10:33Z</time>
      </trkpt>
      <trkpt lat="49.78687" lon="2.3418">
        <ele>106.7</ele>
        <time>2022-07-13T08:10:34Z</time>
      </trkpt>
      <trkpt lat="49.78687" lon="2.3418">
        <ele>106.7</ele>
        <time>2022-07-13T08:10:35Z</time>
      </trkpt>
      <trkpt lat="49.78687" lon="2.3418">
        <ele>106.7</ele>
        <time>2022-07-13T08:10:36Z</time>
      </trkpt>
      <trkpt lat="49.78687" lon="2.3418">
        <ele>106.7</ele>
        <time>2022-07-13T08:10:37Z</time>
      </trkpt>
      <trkpt lat="49.78687" lon="2.3418">
        <ele>106.7</ele>
        <time>2022-07-13T08:10:38Z</time>
      </trkpt>
      <trkpt lat="49.78687" lon="2.3418">
        <ele>106.7</ele>
        <time>2022-07-13T08:10:39Z</time>
      </trkpt>
      <trkpt lat="49.78688" lon="2.3418">
        <ele>106.7</ele>
        <time>2022-07-13T08:10:40Z</time>
      </trkpt>
      <trkpt lat="49.78688" lon="2.3418">
        <ele>106.7</ele>
        <time>2022-07-13T08:10:41Z</time>
      </trkpt>
      <trkpt lat="49.78688" lon="2.3418">
        <ele>106.7</ele>
        <time>2022-07-13T08:10:42Z</time>
      </trkpt>
      <trkpt lat="49.78688" lon="2.3418">
        <ele>106.7</ele>
        <time>2022-07-13T08:10:43Z</time>
      </trkpt>
      <trkpt lat="49.78688" lon="2.3418">
        <ele>106.7</ele>
        <time>2022-07-13T08:10:44Z</time>
      </trkpt>
      <trkpt lat="49.78688" lon="2.3418">
        <ele>106.7</ele>
        <time>2022-07-13T08:10:45Z</time>
      </trkpt>
      <trkpt lat="49.78688" lon="2.3418">
        <ele>106.7</ele>
        <time>2022-07-13T08:10:46Z</time>
      </trkpt>
      <trkpt lat="49.78688" lon="2.3418">
        <ele>106.7</ele>
        <time>2022-07-13T08:10:47Z</time>
      </trkpt>
      <trkpt lat="49.78688" lon="2.3418">
        <ele>106.7</ele>
        <time>2022-07-13T08:10:48Z</time>
      </trkpt>
      <trkpt lat="49.78688" lon="2.3418">
        <ele>106.7</ele>
        <time>2022-07-13T08:10:49Z</time>
      </trkpt>
      <trkpt lat="49.78688" lon="2.3418">
        <ele>106.7</ele>
        <time>2022-07-13T08:10:50Z</time>
      </trkpt>
      <trkpt lat="49.78688" lon="2.3418">
        <ele>106.7</ele>
        <time>2022-07-13T08:10:51Z</time>
      </trkpt>
      <trkpt lat="49.78688" lon="2.3418">
        <ele>106.7</ele>
        <time>2022-07-13T08:10:52Z</time>
      </trkpt>
      <trkpt lat="49.78688" lon="2.3418">
        <ele>106.7</ele>
        <time>2022-07-13T08:10:53Z</time>
      </trkpt>
      <trkpt lat="49.78688" lon="2.3418">
        <ele>106.7</ele>
        <time>2022-07-13T08:10:54Z</time>
      </trkpt>
      <trkpt lat="49.78688" lon="2.3418">
        <ele>106.7</ele>
        <time>2022-07-13T08:10:55Z</time>
      </trkpt>
      <trkpt lat="49.78688" lon="2.3418">
        <ele>106.7</ele>
        <time>2022-07-13T08:10:56Z</time>
      </trkpt>
      <trkpt lat="49.78688" lon="2.3418">
        <ele>106.7</ele>
        <time>2022-07-13T08:10:57Z</time>
      </trkpt>
      <trkpt lat="49.78688" lon="2.3418">
        <ele>106.7</ele>
        <time>2022-07-13T08:10:58Z</time>
      </trkpt>
      <trkpt lat="49.78688" lon="2.3418">
        <ele>106.7</ele>
        <time>2022-07-13T08:10:59Z</time>
      </trkpt>
      <trkpt lat="49.78688" lon="2.3418">
        <ele>106.7</ele>
        <time>2022-07-13T08:11:00Z</time>
      </trkpt>
      <trkpt lat="49.78688" lon="2.3418">
        <ele>106.7</ele>
        <time>2022-07-13T08:11:01Z</time>
      </trkpt>
      <trkpt lat="49.78688" lon="2.3418">
        <ele>106.7</ele>
        <time>2022-07-13T08:11:02Z</time>
      </trkpt>
      <trkpt lat="49.78688" lon="2.3418">
        <ele>106.7</ele>
        <time>2022-07-13T08:11:03Z</time>
      </trkpt>
      <trkpt lat="49.78688" lon="2.3418">
        <ele>106.7</ele>
        <time>2022-07-13T08:11:04Z</time>
      </trkpt>
      <trkpt lat="49.78688" lon="2.3418">
        <ele>106.7</ele>
        <time>2022-07-13T08:11:05Z</time>
      </trkpt>
      <trkpt lat="49.78688" lon="2.3418">
        <ele>106.7</ele>
        <time>2022-07-13T08:11:06Z</time>
      </trkpt>
      <trkpt lat="49.78688" lon="2.3418">
        <ele>106.7</ele>
        <time>2022-07-13T08:11:07Z</time>
      </trkpt>
      <trkpt lat="49.78688" lon="2.3418">
        <ele>106.7</ele>
        <time>2022-07-13T08:11:08Z</time>
      </trkpt>
      <trkpt lat="49.78688" lon="2.3418">
        <ele>106.7</ele>
        <time>2022-07-13T08:11:09Z</time>
      </trkpt>
      <trkpt lat="49.78688" lon="2.3418">
        <ele>106.7</ele>
        <time>2022-07-13T08:11:10Z</time>
      </trkpt>
      <trkpt lat="49.78688" lon="2.34181">
        <ele>106.7</ele>
        <time>2022-07-13T08:11:11Z</time>
      </trkpt>
      <trkpt lat="49.78688" lon="2.34181">
        <ele>106.7</ele>
        <time>2022-07-13T08:11:12Z</time>
      </trkpt>
      <trkpt lat="49.78688" lon="2.34181">
        <ele>106.7</ele>
        <time>2022-07-13T08:11:13Z</time>
      </trkpt>
      <trkpt lat="49.78688" lon="2.34181">
        <ele>106.7</ele>
        <time>2022-07-13T08:11:14Z</time>
      </trkpt>
      <trkpt lat="49.78688" lon="2.34181">
        <ele>106.7</ele>
        <time>2022-07-13T08:11:15Z</time>
      </trkpt>
      <trkpt lat="49.78688" lon="2.34181">
        <ele>106.7</ele>
        <time>2022-07-13T08:11:16Z</time>
      </trkpt>
      <trkpt lat="49.78688" lon="2.34181">
        <ele>106.7</ele>
        <time>2022-07-13T08:11:17Z</time>
      </trkpt>
      <trkpt lat="49.78688" lon="2.34181">
        <ele>106.7</ele>
        <time>2022-07-13T08:11:18Z</time>
      </trkpt>
      <trkpt lat="49.78688" lon="2.34181">
        <ele>106.7</ele>
        <time>2022-07-13T08:11:19Z</time>
      </trkpt>
      <trkpt lat="49.78688" lon="2.34181">
        <ele>106.7</ele>
        <time>2022-07-13T08:11:20Z</time>
      </trkpt>
      <trkpt lat="49.78688" lon="2.34181">
        <ele>106.7</ele>
        <time>2022-07-13T08:11:21Z</time>
      </trkpt>
      <trkpt lat="49.78688" lon="2.34181">
        <ele>106.7</ele>
        <time>2022-07-13T08:11:22Z</time>
      </trkpt>
      <trkpt lat="49.78688" lon="2.34181">
        <ele>106.7</ele>
        <time>2022-07-13T08:11:23Z</time>
      </trkpt>
      <trkpt lat="49.78688" lon="2.34181">
        <ele>106.7</ele>
        <time>2022-07-13T08:11:24Z</time>
      </trkpt>
      <trkpt lat="49.78688" lon="2.34181">
        <ele>106.7</ele>
        <time>2022-07-13T08:11:25Z</time>
      </trkpt>
      <trkpt lat="49.78688" lon="2.34181">
        <ele>106.7</ele>
        <time>2022-07-13T08:11:26Z</time>
      </trkpt>
      <trkpt lat="49.78688" lon="2.34181">
        <ele>106.7</ele>
        <time>2022-07-13T08:11:27Z</time>
      </trkpt>
      <trkpt lat="49.78688" lon="2.34181">
        <ele>106.7</ele>
        <time>2022-07-13T08:11:28Z</time>
      </trkpt>
      <trkpt lat="49.78688" lon="2.34181">
        <ele>106.7</ele>
        <time>2022-07-13T08:11:29Z</time>
      </trkpt>
      <trkpt lat="49.78688" lon="2.34181">
        <ele>106.7</ele>
        <time>2022-07-13T08:11:30Z</time>
      </trkpt>
      <trkpt lat="49.78688" lon="2.34181">
        <ele>106.7</ele>
        <time>2022-07-13T08:11:31Z</time>
      </trkpt>
      <trkpt lat="49.78688" lon="2.34181">
        <ele>106.7</ele>
        <time>2022-07-13T08:11:32Z</time>
      </trkpt>
      <trkpt lat="49.78688" lon="2.34181">
        <ele>106.7</ele>
        <time>2022-07-13T08:11:33Z</time>
      </trkpt>
      <trkpt lat="49.78688" lon="2.34181">
        <ele>106.7</ele>
        <time>2022-07-13T08:11:34Z</time>
      </trkpt>
      <trkpt lat="49.78688" lon="2.34181">
        <ele>106.7</ele>
        <time>2022-07-13T08:11:35Z</time>
      </trkpt>
      <trkpt lat="49.78689" lon="2.34181">
        <ele>106.7</ele>
        <time>2022-07-13T08:11:36Z</time>
      </trkpt>
      <trkpt lat="49.78689" lon="2.34181">
        <ele>106.7</ele>
        <time>2022-07-13T08:11:37Z</time>
      </trkpt>
      <trkpt lat="49.78689" lon="2.34181">
        <ele>106.7</ele>
        <time>2022-07-13T08:11:38Z</time>
      </trkpt>
      <trkpt lat="49.78689" lon="2.34181">
        <ele>106.7</ele>
        <time>2022-07-13T08:11:39Z</time>
      </trkpt>
      <trkpt lat="49.78689" lon="2.34181">
        <ele>106.7</ele>
        <time>2022-07-13T08:11:40Z</time>
      </trkpt>
      <trkpt lat="49.78689" lon="2.34181">
        <ele>106.7</ele>
        <time>2022-07-13T08:11:41Z</time>
      </trkpt>
      <trkpt lat="49.78689" lon="2.34181">
        <ele>106.7</ele>
        <time>2022-07-13T08:11:42Z</time>
      </trkpt>
      <trkpt lat="49.78689" lon="2.34181">
        <ele>106.7</ele>
        <time>2022-07-13T08:11:43Z</time>
      </trkpt>
      <trkpt lat="49.78689" lon="2.34181">
        <ele>106.7</ele>
        <time>2022-07-13T08:11:44Z</time>
      </trkpt>
      <trkpt lat="49.78689" lon="2.34181">
        <ele>106.7</ele>
        <time>2022-07-13T08:11:45Z</time>
      </trkpt>
      <trkpt lat="49.78689" lon="2.34181">
        <ele>106.7</ele>
        <time>2022-07-13T08:11:46Z</time>
      </trkpt>
      <trkpt lat="49.78689" lon="2.34181">
        <ele>106.7</ele>
        <time>2022-07-13T08:11:47Z</time>
      </trkpt>
      <trkpt lat="49.78689" lon="2.34181">
        <ele>106.7</ele>
        <time>2022-07-13T08:11:48Z</time>
      </trkpt>
      <trkpt lat="49.78689" lon="2.34181">
        <ele>106.7</ele>
        <time>2022-07-13T08:11:49Z</time>
      </trkpt>
      <trkpt lat="49.78689" lon="2.34181">
        <ele>106.7</ele>
        <time>2022-07-13T08:11:50Z</time>
      </trkpt>
      <trkpt lat="49.78689" lon="2.34181">
        <ele>106.7</ele>
        <time>2022-07-13T08:11:51Z</time>
      </trkpt>
      <trkpt lat="49.78689" lon="2.34181">
        <ele>106.7</ele>
        <time>2022-07-13T08:11:52Z</time>
      </trkpt>
      <trkpt lat="49.78689" lon="2.34181">
        <ele>106.7</ele>
        <time>2022-07-13T08:11:53Z</time>
      </trkpt>
      <trkpt lat="49.78689" lon="2.34181">
        <ele>106.7</ele>
        <time>2022-07-13T08:11:54Z</time>
      </trkpt>
      <trkpt lat="49.78689" lon="2.34181">
        <ele>106.7</ele>
        <time>2022-07-13T08:11:55Z</time>
      </trkpt>
      <trkpt lat="49.78689" lon="2.34181">
        <ele>106.7</ele>
        <time>2022-07-13T08:11:56Z</time>
      </trkpt>
      <trkpt lat="49.78689" lon="2.34181">
        <ele>106.7</ele>
        <time>2022-07-13T08:11:57Z</time>
      </trkpt>
      <trkpt lat="49.78689" lon="2.34181">
        <ele>106.7</ele>
        <time>2022-07-13T08:11:58Z</time>
      </trkpt>
      <trkpt lat="49.78689" lon="2.34181">
        <ele>106.7</ele>
        <time>2022-07-13T08:11:59Z</time>
      </trkpt>
      <trkpt lat="49.78689" lon="2.34181">
        <ele>106.7</ele>
        <time>2022-07-13T08:12:00Z</time>
      </trkpt>
      <trkpt lat="49.78689" lon="2.34181">
        <ele>106.7</ele>
        <time>2022-07-13T08:12:01Z</time>
      </trkpt>
      <trkpt lat="49.78689" lon="2.34181">
        <ele>106.7</ele>
        <time>2022-07-13T08:12:02Z</time>
      </trkpt>
      <trkpt lat="49.78689" lon="2.34181">
        <ele>106.7</ele>
        <time>2022-07-13T08:12:03Z</time>
      </trkpt>
      <trkpt lat="49.78689" lon="2.34181">
        <ele>106.7</ele>
        <time>2022-07-13T08:12:04Z</time>
      </trkpt>
      <trkpt lat="49.78689" lon="2.34181">
        <ele>106.7</ele>
        <time>2022-07-13T08:12:05Z</time>
      </trkpt>
      <trkpt lat="49.78689" lon="2.34181">
        <ele>106.7</ele>
        <time>2022-07-13T08:12:06Z</time>
      </trkpt>
      <trkpt lat="49.78689" lon="2.34181">
        <ele>106.7</ele>
        <time>2022-07-13T08:12:07Z</time>
      </trkpt>
      <trkpt lat="49.78689" lon="2.34181">
        <ele>106.7</ele>
        <time>2022-07-13T08:12:08Z</time>
      </trkpt>
      <trkpt lat="49.78689" lon="2.34181">
        <ele>106.7</ele>
        <time>2022-07-13T08:12:09Z</time>
      </trkpt>
      <trkpt lat="49.78689" lon="2.34181">
        <ele>106.7</ele>
        <time>2022-07-13T08:12:10Z</time>
      </trkpt>
      <trkpt lat="49.78689" lon="2.34181">
        <ele>106.7</ele>
        <time>2022-07-13T08:12:11Z</time>
      </trkpt>
      <trkpt lat="49.78689" lon="2.34181">
        <ele>106.7</ele>
        <time>2022-07-13T08:12:12Z</time>
      </trkpt>
      <trkpt lat="49.78689" lon="2.34181">
        <ele>106.7</ele>
        <time>2022-07-13T08:12:13Z</time>
      </trkpt>
      <trkpt lat="49.78689" lon="2.34181">
        <ele>106.7</ele>
        <time>2022-07-13T08:12:14Z</time>
      </trkpt>
      <trkpt lat="49.78689" lon="2.34181">
        <ele>106.7</ele>
        <time>2022-07-13T08:12:15Z</time>
      </trkpt>
      <trkpt lat="49.78689" lon="2.34181">
        <ele>106.7</ele>
        <time>2022-07-13T08:12:16Z</time>
      </trkpt>
      <trkpt lat="49.78689" lon="2.34181">
        <ele>106.7</ele>
        <time>2022-07-13T08:12:17Z</time>
      </trkpt>
      <trkpt lat="49.78689" lon="2.34181">
        <ele>106.7</ele>
        <time>2022-07-13T08:12:18Z</time>
      </trkpt>
      <trkpt lat="49.78689" lon="2.34181">
        <ele>106.7</ele>
        <time>2022-07-13T08:12:19Z</time>
      </trkpt>
      <trkpt lat="49.78689" lon="2.34181">
        <ele>106.7</ele>
        <time>2022-07-13T08:12:20Z</time>
      </trkpt>
      <trkpt lat="49.78689" lon="2.34181">
        <ele>106.7</ele>
        <time>2022-07-13T08:12:21Z</time>
      </trkpt>
      <trkpt lat="49.78691" lon="2.34181">
        <ele>106.7</ele>
        <time>2022-07-13T08:12:22Z</time>
      </trkpt>
      <trkpt lat="49.78691" lon="2.3418">
        <ele>106.7</ele>
        <time>2022-07-13T08:12:24Z</time>
      </trkpt>
      <trkpt lat="49.7869" lon="2.34179">
        <ele>106.7</ele>
        <time>2022-07-13T08:12:25Z</time>
      </trkpt>
      <trkpt lat="49.7869" lon="2.34178">
        <ele>106.7</ele>
        <time>2022-07-13T08:12:26Z</time>
      </trkpt>
      <trkpt lat="49.7869" lon="2.34178">
        <ele>106.7</ele>
        <time>2022-07-13T08:12:27Z</time>
      </trkpt>
      <trkpt lat="49.7869" lon="2.34177">
        <ele>106.7</ele>
        <time>2022-07-13T08:12:28Z</time>
      </trkpt>
      <trkpt lat="49.78689" lon="2.34176">
        <ele>106.8</ele>
        <time>2022-07-13T08:12:29Z</time>
      </trkpt>
      <trkpt lat="49.78689" lon="2.34175">
        <ele>106.8</ele>
        <time>2022-07-13T08:12:30Z</time>
      </trkpt>
      <trkpt lat="49.78689" lon="2.34175">
        <ele>106.8</ele>
        <time>2022-07-13T08:12:31Z</time>
      </trkpt>
      <trkpt lat="49.78688" lon="2.34174">
        <ele>106.8</ele>
        <time>2022-07-13T08:12:33Z</time>
      </trkpt>
      <trkpt lat="49.78688" lon="2.34173">
        <ele>106.8</ele>
        <time>2022-07-13T08:12:34Z</time>
      </trkpt>
      <trkpt lat="49.78686" lon="2.34169">
        <ele>106.8</ele>
        <time>2022-07-13T08:12:35Z</time>
      </trkpt>
      <trkpt lat="49.78684" lon="2.34165">
        <ele>106.8</ele>
        <time>2022-07-13T08:12:36Z</time>
      </trkpt>
      <trkpt lat="49.78683" lon="2.34164">
        <ele>106.8</ele>
        <time>2022-07-13T08:12:37Z</time>
      </trkpt>
      <trkpt lat="49.78682" lon="2.34162">
        <ele>106.9</ele>
        <time>2022-07-13T08:12:38Z</time>
      </trkpt>
      <trkpt lat="49.78681" lon="2.34161">
        <ele>106.9</ele>
        <time>2022-07-13T08:12:39Z</time>
      </trkpt>
      <trkpt lat="49.78679" lon="2.34157">
        <ele>106.9</ele>
        <time>2022-07-13T08:12:40Z</time>
      </trkpt>
      <trkpt lat="49.78679" lon="2.34156">
        <ele>106.9</ele>
        <time>2022-07-13T08:12:41Z</time>
      </trkpt>
      <trkpt lat="49.78678" lon="2.34154">
        <ele>106.9</ele>
        <time>2022-07-13T08:12:43Z</time>
      </trkpt>
      <trkpt lat="49.78677" lon="2.34152">
        <ele>107</ele>
        <time>2022-07-13T08:12:44Z</time>
      </trkpt>
      <trkpt lat="49.78676" lon="2.3415">
        <ele>107</ele>
        <time>2022-07-13T08:12:45Z</time>
      </trkpt>
      <trkpt lat="49.78675" lon="2.34148">
        <ele>107</ele>
        <time>2022-07-13T08:12:46Z</time>
      </trkpt>
      <trkpt lat="49.78674" lon="2.34146">
        <ele>107</ele>
        <time>2022-07-13T08:12:47Z</time>
      </trkpt>
      <trkpt lat="49.78673" lon="2.34144">
        <ele>107</ele>
        <time>2022-07-13T08:12:48Z</time>
      </trkpt>
      <trkpt lat="49.78672" lon="2.34142">
        <ele>107.1</ele>
        <time>2022-07-13T08:12:50Z</time>
      </trkpt>
      <trkpt lat="49.78671" lon="2.3414">
        <ele>107.1</ele>
        <time>2022-07-13T08:12:51Z</time>
      </trkpt>
      <trkpt lat="49.7867" lon="2.34139">
        <ele>107.1</ele>
        <time>2022-07-13T08:12:52Z</time>
      </trkpt>
      <trkpt lat="49.78668" lon="2.34137">
        <ele>107.1</ele>
        <time>2022-07-13T08:12:53Z</time>
      </trkpt>
      <trkpt lat="49.78667" lon="2.34136">
        <ele>107.2</ele>
        <time>2022-07-13T08:12:54Z</time>
      </trkpt>
      <trkpt lat="49.78666" lon="2.34135">
        <ele>107.2</ele>
        <time>2022-07-13T08:12:55Z</time>
      </trkpt>
      <trkpt lat="49.78665" lon="2.34134">
        <ele>107.2</ele>
        <time>2022-07-13T08:12:56Z</time>
      </trkpt>
      <trkpt lat="49.78664" lon="2.34132">
        <ele>107.2</ele>
        <time>2022-07-13T08:12:58Z</time>
      </trkpt>
      <trkpt lat="49.78663" lon="2.34131">
        <ele>107.2</ele>
        <time>2022-07-13T08:12:59Z</time>
      </trkpt>
      <trkpt lat="49.78661" lon="2.3413">
        <ele>107.3</ele>
        <time>2022-07-13T08:13:00Z</time>
      </trkpt>
      <trkpt lat="49.7866" lon="2.34129">
        <ele>107.3</ele>
        <time>2022-07-13T08:13:01Z</time>
      </trkpt>
      <trkpt lat="49.78659" lon="2.34128">
        <ele>107.3</ele>
        <time>2022-07-13T08:13:03Z</time>
      </trkpt>
      <trkpt lat="49.78658" lon="2.34127">
        <ele>107.3</ele>
        <time>2022-07-13T08:13:04Z</time>
      </trkpt>
      <trkpt lat="49.78656" lon="2.34125">
        <ele>107.3</ele>
        <time>2022-07-13T08:13:05Z</time>
      </trkpt>
      <trkpt lat="49.78656" lon="2.34124">
        <ele>107.4</ele>
        <time>2022-07-13T08:13:06Z</time>
      </trkpt>
      <trkpt lat="49.78655" lon="2.34123">
        <ele>107.4</ele>
        <time>2022-07-13T08:13:07Z</time>
      </trkpt>
      <trkpt lat="49.78653" lon="2.34122">
        <ele>107.4</ele>
        <time>2022-07-13T08:13:08Z</time>
      </trkpt>
      <trkpt lat="49.78652" lon="2.34121">
        <ele>107.4</ele>
        <time>2022-07-13T08:13:09Z</time>
      </trkpt>
      <trkpt lat="49.78651" lon="2.34121">
        <ele>107.4</ele>
        <time>2022-07-13T08:13:10Z</time>
      </trkpt>
      <trkpt lat="49.78651" lon="2.3412">
        <ele>107.4</ele>
        <time>2022-07-13T08:13:11Z</time>
      </trkpt>
      <trkpt lat="49.7865" lon="2.34119">
        <ele>107.4</ele>
        <time>2022-07-13T08:13:12Z</time>
      </trkpt>
      <trkpt lat="49.78648" lon="2.34118">
        <ele>107.5</ele>
        <time>2022-07-13T08:13:14Z</time>
      </trkpt>
      <trkpt lat="49.78647" lon="2.34117">
        <ele>107.5</ele>
        <time>2022-07-13T08:13:15Z</time>
      </trkpt>
      <trkpt lat="49.78646" lon="2.34116">
        <ele>107.5</ele>
        <time>2022-07-13T08:13:16Z</time>
      </trkpt>
      <trkpt lat="49.78645" lon="2.34115">
        <ele>107.5</ele>
        <time>2022-07-13T08:13:17Z</time>
      </trkpt>
      <trkpt lat="49.78644" lon="2.34114">
        <ele>107.5</ele>
        <time>2022-07-13T08:13:18Z</time>
      </trkpt>
      <trkpt lat="49.78643" lon="2.34113">
        <ele>107.5</ele>
        <time>2022-07-13T08:13:19Z</time>
      </trkpt>
      <trkpt lat="49.78641" lon="2.34112">
        <ele>107.5</ele>
        <time>2022-07-13T08:13:20Z</time>
      </trkpt>
      <trkpt lat="49.78641" lon="2.34111">
        <ele>107.5</ele>
        <time>2022-07-13T08:13:22Z</time>
      </trkpt>
      <trkpt lat="49.7864" lon="2.34109">
        <ele>107.6</ele>
        <time>2022-07-13T08:13:23Z</time>
      </trkpt>
      <trkpt lat="49.78639" lon="2.34108">
        <ele>107.6</ele>
        <time>2022-07-13T08:13:24Z</time>
      </trkpt>
      <trkpt lat="49.78638" lon="2.34107">
        <ele>107.6</ele>
        <time>2022-07-13T08:13:25Z</time>
      </trkpt>
      <trkpt lat="49.78637" lon="2.34105">
        <ele>107.6</ele>
        <time>2022-07-13T08:13:26Z</time>
      </trkpt>
      <trkpt lat="49.78636" lon="2.34103">
        <ele>107.6</ele>
        <time>2022-07-13T08:13:27Z</time>
      </trkpt>
      <trkpt lat="49.78635" lon="2.34102">
        <ele>107.6</ele>
        <time>2022-07-13T08:13:28Z</time>
      </trkpt>
      <trkpt lat="49.78634" lon="2.341">
        <ele>107.6</ele>
        <time>2022-07-13T08:13:29Z</time>
      </trkpt>
      <trkpt lat="49.78633" lon="2.34099">
        <ele>107.6</ele>
        <time>2022-07-13T08:13:30Z</time>
      </trkpt>
      <trkpt lat="49.78631" lon="2.34097">
        <ele>107.7</ele>
        <time>2022-07-13T08:13:31Z</time>
      </trkpt>
      <trkpt lat="49.7863" lon="2.34094">
        <ele>107.7</ele>
        <time>2022-07-13T08:13:32Z</time>
      </trkpt>
      <trkpt lat="49.7863" lon="2.34093">
        <ele>107.7</ele>
        <time>2022-07-13T08:13:33Z</time>
      </trkpt>
      <trkpt lat="49.78629" lon="2.34092">
        <ele>107.7</ele>
        <time>2022-07-13T08:13:34Z</time>
      </trkpt>
      <trkpt lat="49.78628" lon="2.3409">
        <ele>107.7</ele>
        <time>2022-07-13T08:13:35Z</time>
      </trkpt>
      <trkpt lat="49.78627" lon="2.34088">
        <ele>107.7</ele>
        <time>2022-07-13T08:13:37Z</time>
      </trkpt>
      <trkpt lat="49.78626" lon="2.34086">
        <ele>107.7</ele>
        <time>2022-07-13T08:13:38Z</time>
      </trkpt>
      <trkpt lat="49.78626" lon="2.34085">
        <ele>107.7</ele>
        <time>2022-07-13T08:13:39Z</time>
      </trkpt>
      <trkpt lat="49.78624" lon="2.34081">
        <ele>107.8</ele>
        <time>2022-07-13T08:13:40Z</time>
      </trkpt>
      <trkpt lat="49.78623" lon="2.3408">
        <ele>107.8</ele>
        <time>2022-07-13T08:13:41Z</time>
      </trkpt>
      <trkpt lat="49.78622" lon="2.34076">
        <ele>107.8</ele>
        <time>2022-07-13T08:13:42Z</time>
      </trkpt>
      <trkpt lat="49.78621" lon="2.34074">
        <ele>107.8</ele>
        <time>2022-07-13T08:13:44Z</time>
      </trkpt>
      <trkpt lat="49.7862" lon="2.34072">
        <ele>107.8</ele>
        <time>2022-07-13T08:13:45Z</time>
      </trkpt>
      <trkpt lat="49.7862" lon="2.3407">
        <ele>107.9</ele>
        <time>2022-07-13T08:13:46Z</time>
      </trkpt>
      <trkpt lat="49.78619" lon="2.34068">
        <ele>107.9</ele>
        <time>2022-07-13T08:13:47Z</time>
      </trkpt>
      <trkpt lat="49.78618" lon="2.34066">
        <ele>107.9</ele>
        <time>2022-07-13T08:13:48Z</time>
      </trkpt>
      <trkpt lat="49.78618" lon="2.34065">
        <ele>107.9</ele>
        <time>2022-07-13T08:13:49Z</time>
      </trkpt>
      <trkpt lat="49.78616" lon="2.34061">
        <ele>107.9</ele>
        <time>2022-07-13T08:13:50Z</time>
      </trkpt>
      <trkpt lat="49.78616" lon="2.34059">
        <ele>107.9</ele>
        <time>2022-07-13T08:13:52Z</time>
      </trkpt>
      <trkpt lat="49.78615" lon="2.34058">
        <ele>108</ele>
        <time>2022-07-13T08:13:53Z</time>
      </trkpt>
      <trkpt lat="49.78615" lon="2.34057">
        <ele>108</ele>
        <time>2022-07-13T08:13:54Z</time>
      </trkpt>
      <trkpt lat="49.78614" lon="2.34055">
        <ele>108</ele>
        <time>2022-07-13T08:13:55Z</time>
      </trkpt>
      <trkpt lat="49.78613" lon="2.34052">
        <ele>108</ele>
        <time>2022-07-13T08:13:56Z</time>
      </trkpt>
      <trkpt lat="49.78613" lon="2.34051">
        <ele>108</ele>
        <time>2022-07-13T08:13:57Z</time>
      </trkpt>
      <trkpt lat="49.78612" lon="2.3405">
        <ele>108</ele>
        <time>2022-07-13T08:13:58Z</time>
      </trkpt>
      <trkpt lat="49.78611" lon="2.34048">
        <ele>108.1</ele>
        <time>2022-07-13T08:13:59Z</time>
      </trkpt>
      <trkpt lat="49.7861" lon="2.34047">
        <ele>108.1</ele>
        <time>2022-07-13T08:14:00Z</time>
      </trkpt>
      <trkpt lat="49.78609" lon="2.34045">
        <ele>108.1</ele>
        <time>2022-07-13T08:14:01Z</time>
      </trkpt>
      <trkpt lat="49.78608" lon="2.34043">
        <ele>108.1</ele>
        <time>2022-07-13T08:14:02Z</time>
      </trkpt>
      <trkpt lat="49.78607" lon="2.34042">
        <ele>108.1</ele>
        <time>2022-07-13T08:14:04Z</time>
      </trkpt>
      <trkpt lat="49.78607" lon="2.34041">
        <ele>108.1</ele>
        <time>2022-07-13T08:14:05Z</time>
      </trkpt>
      <trkpt lat="49.78605" lon="2.34039">
        <ele>108.1</ele>
        <time>2022-07-13T08:14:06Z</time>
      </trkpt>
      <trkpt lat="49.78604" lon="2.34038">
        <ele>108.2</ele>
        <time>2022-07-13T08:14:07Z</time>
      </trkpt>
      <trkpt lat="49.78603" lon="2.34037">
        <ele>108.2</ele>
        <time>2022-07-13T08:14:08Z</time>
      </trkpt>
      <trkpt lat="49.78603" lon="2.34035">
        <ele>108.2</ele>
        <time>2022-07-13T08:14:09Z</time>
      </trkpt>
      <trkpt lat="49.78601" lon="2.34032">
        <ele>108.2</ele>
        <time>2022-07-13T08:14:10Z</time>
      </trkpt>
      <trkpt lat="49.786" lon="2.34031">
        <ele>108.2</ele>
        <time>2022-07-13T08:14:12Z</time>
      </trkpt>
      <trkpt lat="49.786" lon="2.3403">
        <ele>108.2</ele>
        <time>2022-07-13T08:14:13Z</time>
      </trkpt>
      <trkpt lat="49.78599" lon="2.34028">
        <ele>108.3</ele>
        <time>2022-07-13T08:14:14Z</time>
      </trkpt>
      <trkpt lat="49.78598" lon="2.34027">
        <ele>108.3</ele>
        <time>2022-07-13T08:14:15Z</time>
      </trkpt>
      <trkpt lat="49.78597" lon="2.34024">
        <ele>108.3</ele>
        <time>2022-07-13T08:14:16Z</time>
      </trkpt>
      <trkpt lat="49.78596" lon="2.34023">
        <ele>108.3</ele>
        <time>2022-07-13T08:14:17Z</time>
      </trkpt>
      <trkpt lat="49.78596" lon="2.34022">
        <ele>108.3</ele>
        <time>2022-07-13T08:14:18Z</time>
      </trkpt>
      <trkpt lat="49.78595" lon="2.34019">
        <ele>108.4</ele>
        <time>2022-07-13T08:14:19Z</time>
      </trkpt>
      <trkpt lat="49.78594" lon="2.34018">
        <ele>108.4</ele>
        <time>2022-07-13T08:14:20Z</time>
      </trkpt>
      <trkpt lat="49.78594" lon="2.34016">
        <ele>108.4</ele>
        <time>2022-07-13T08:14:21Z</time>
      </trkpt>
      <trkpt lat="49.78593" lon="2.34015">
        <ele>108.4</ele>
        <time>2022-07-13T08:14:22Z</time>
      </trkpt>
      <trkpt lat="49.78593" lon="2.34014">
        <ele>108.4</ele>
        <time>2022-07-13T08:14:23Z</time>
      </trkpt>
      <trkpt lat="49.78592" lon="2.34013">
        <ele>108.4</ele>
        <time>2022-07-13T08:14:24Z</time>
      </trkpt>
      <trkpt lat="49.78591" lon="2.34011">
        <ele>108.5</ele>
        <time>2022-07-13T08:14:25Z</time>
      </trkpt>
      <trkpt lat="49.78591" lon="2.34009">
        <ele>108.5</ele>
        <time>2022-07-13T08:14:27Z</time>
      </trkpt>
      <trkpt lat="49.7859" lon="2.34008">
        <ele>108.5</ele>
        <time>2022-07-13T08:14:28Z</time>
      </trkpt>
      <trkpt lat="49.78589" lon="2.34007">
        <ele>108.5</ele>
        <time>2022-07-13T08:14:29Z</time>
      </trkpt>
      <trkpt lat="49.78589" lon="2.34006">
        <ele>108.5</ele>
        <time>2022-07-13T08:14:30Z</time>
      </trkpt>
      <trkpt lat="49.78588" lon="2.34004">
        <ele>108.6</ele>
        <time>2022-07-13T08:14:31Z</time>
      </trkpt>
      <trkpt lat="49.78587" lon="2.34003">
        <ele>108.6</ele>
        <time>2022-07-13T08:14:32Z</time>
      </trkpt>
      <trkpt lat="49.78586" lon="2.34002">
        <ele>108.6</ele>
        <time>2022-07-13T08:14:33Z</time>
      </trkpt>
      <trkpt lat="49.78584" lon="2.34">
        <ele>108.6</ele>
        <time>2022-07-13T08:14:34Z</time>
      </trkpt>
      <trkpt lat="49.78583" lon="2.33999">
        <ele>108.6</ele>
        <time>2022-07-13T08:14:36Z</time>
      </trkpt>
      <trkpt lat="49.78582" lon="2.33997">
        <ele>108.7</ele>
        <time>2022-07-13T08:14:37Z</time>
      </trkpt>
      <trkpt lat="49.78581" lon="2.33996">
        <ele>108.7</ele>
        <time>2022-07-13T08:14:38Z</time>
      </trkpt>
      <trkpt lat="49.7858" lon="2.33995">
        <ele>108.7</ele>
        <time>2022-07-13T08:14:39Z</time>
      </trkpt>
      <trkpt lat="49.78579" lon="2.33994">
        <ele>108.7</ele>
        <time>2022-07-13T08:14:40Z</time>
      </trkpt>
      <trkpt lat="49.78578" lon="2.33993">
        <ele>108.7</ele>
        <time>2022-07-13T08:14:41Z</time>
      </trkpt>
      <trkpt lat="49.78577" lon="2.33991">
        <ele>108.8</ele>
        <time>2022-07-13T08:14:43Z</time>
      </trkpt>
      <trkpt lat="49.78575" lon="2.33989">
        <ele>108.8</ele>
        <time>2022-07-13T08:14:44Z</time>
      </trkpt>
      <trkpt lat="49.78574" lon="2.33988">
        <ele>108.8</ele>
        <time>2022-07-13T08:14:45Z</time>
      </trkpt>
      <trkpt lat="49.78574" lon="2.33987">
        <ele>108.8</ele>
        <time>2022-07-13T08:14:46Z</time>
      </trkpt>
      <trkpt lat="49.78573" lon="2.33986">
        <ele>108.9</ele>
        <time>2022-07-13T08:14:47Z</time>
      </trkpt>
      <trkpt lat="49.78572" lon="2.33984">
        <ele>108.9</ele>
        <time>2022-07-13T08:14:48Z</time>
      </trkpt>
      <trkpt lat="49.78572" lon="2.33983">
        <ele>108.9</ele>
        <time>2022-07-13T08:14:49Z</time>
      </trkpt>
      <trkpt lat="49.78571" lon="2.33982">
        <ele>108.9</ele>
        <time>2022-07-13T08:14:50Z</time>
      </trkpt>
      <trkpt lat="49.7857" lon="2.3398">
        <ele>108.9</ele>
        <time>2022-07-13T08:14:51Z</time>
      </trkpt>
      <trkpt lat="49.78569" lon="2.33978">
        <ele>109</ele>
        <time>2022-07-13T08:14:53Z</time>
      </trkpt>
      <trkpt lat="49.78568" lon="2.33976">
        <ele>109</ele>
        <time>2022-07-13T08:14:54Z</time>
      </trkpt>
      <trkpt lat="49.78567" lon="2.33975">
        <ele>109</ele>
        <time>2022-07-13T08:14:55Z</time>
      </trkpt>
      <trkpt lat="49.78567" lon="2.33974">
        <ele>109</ele>
        <time>2022-07-13T08:14:56Z</time>
      </trkpt>
      <trkpt lat="49.78566" lon="2.33973">
        <ele>109</ele>
        <time>2022-07-13T08:14:57Z</time>
      </trkpt>
      <trkpt lat="49.78565" lon="2.33971">
        <ele>109.1</ele>
        <time>2022-07-13T08:14:58Z</time>
      </trkpt>
      <trkpt lat="49.78564" lon="2.3397">
        <ele>109.1</ele>
        <time>2022-07-13T08:14:59Z</time>
      </trkpt>
      <trkpt lat="49.78563" lon="2.33967">
        <ele>109.1</ele>
        <time>2022-07-13T08:15:00Z</time>
      </trkpt>
      <trkpt lat="49.78562" lon="2.33966">
        <ele>109.2</ele>
        <time>2022-07-13T08:15:01Z</time>
      </trkpt>
      <trkpt lat="49.78562" lon="2.33965">
        <ele>109.2</ele>
        <time>2022-07-13T08:15:02Z</time>
      </trkpt>
      <trkpt lat="49.78561" lon="2.33963">
        <ele>109.2</ele>
        <time>2022-07-13T08:15:04Z</time>
      </trkpt>
      <trkpt lat="49.7856" lon="2.33961">
        <ele>109.2</ele>
        <time>2022-07-13T08:15:05Z</time>
      </trkpt>
      <trkpt lat="49.78559" lon="2.33958">
        <ele>109.3</ele>
        <time>2022-07-13T08:15:06Z</time>
      </trkpt>
      <trkpt lat="49.78559" lon="2.33957">
        <ele>109.3</ele>
        <time>2022-07-13T08:15:07Z</time>
      </trkpt>
      <trkpt lat="49.78559" lon="2.33956">
        <ele>109.3</ele>
        <time>2022-07-13T08:15:08Z</time>
      </trkpt>
      <trkpt lat="49.78558" lon="2.33954">
        <ele>109.3</ele>
        <time>2022-07-13T08:15:09Z</time>
      </trkpt>
      <trkpt lat="49.78558" lon="2.33952">
        <ele>109.4</ele>
        <time>2022-07-13T08:15:10Z</time>
      </trkpt>
      <trkpt lat="49.78558" lon="2.33951">
        <ele>109.4</ele>
        <time>2022-07-13T08:15:11Z</time>
      </trkpt>
      <trkpt lat="49.78558" lon="2.33949">
        <ele>109.4</ele>
        <time>2022-07-13T08:15:12Z</time>
      </trkpt>
      <trkpt lat="49.78557" lon="2.33947">
        <ele>109.4</ele>
        <time>2022-07-13T08:15:13Z</time>
      </trkpt>
      <trkpt lat="49.78557" lon="2.33945">
        <ele>109.5</ele>
        <time>2022-07-13T08:15:15Z</time>
      </trkpt>
      <trkpt lat="49.78557" lon="2.33943">
        <ele>109.5</ele>
        <time>2022-07-13T08:15:16Z</time>
      </trkpt>
      <trkpt lat="49.78556" lon="2.3394">
        <ele>109.5</ele>
        <time>2022-07-13T08:15:17Z</time>
      </trkpt>
      <trkpt lat="49.78556" lon="2.33938">
        <ele>109.5</ele>
        <time>2022-07-13T08:15:18Z</time>
      </trkpt>
      <trkpt lat="49.78556" lon="2.33936">
        <ele>109.6</ele>
        <time>2022-07-13T08:15:19Z</time>
      </trkpt>
      <trkpt lat="49.78556" lon="2.33934">
        <ele>109.6</ele>
        <time>2022-07-13T08:15:20Z</time>
      </trkpt>
      <trkpt lat="49.78556" lon="2.33932">
        <ele>109.6</ele>
        <time>2022-07-13T08:15:21Z</time>
      </trkpt>
      <trkpt lat="49.78556" lon="2.3393">
        <ele>109.7</ele>
        <time>2022-07-13T08:15:22Z</time>
      </trkpt>
      <trkpt lat="49.78556" lon="2.33927">
        <ele>109.7</ele>
        <time>2022-07-13T08:15:23Z</time>
      </trkpt>
      <trkpt lat="49.78556" lon="2.33926">
        <ele>109.7</ele>
        <time>2022-07-13T08:15:25Z</time>
      </trkpt>
      <trkpt lat="49.78556" lon="2.33924">
        <ele>109.7</ele>
        <time>2022-07-13T08:15:26Z</time>
      </trkpt>
      <trkpt lat="49.78556" lon="2.33921">
        <ele>109.8</ele>
        <time>2022-07-13T08:15:27Z</time>
      </trkpt>
      <trkpt lat="49.78556" lon="2.3392">
        <ele>109.8</ele>
        <time>2022-07-13T08:15:28Z</time>
      </trkpt>
      <trkpt lat="49.78557" lon="2.33919">
        <ele>109.8</ele>
        <time>2022-07-13T08:15:29Z</time>
      </trkpt>
      <trkpt lat="49.78557" lon="2.33917">
        <ele>109.8</ele>
        <time>2022-07-13T08:15:30Z</time>
      </trkpt>
      <trkpt lat="49.78557" lon="2.33914">
        <ele>109.8</ele>
        <time>2022-07-13T08:15:31Z</time>
      </trkpt>
      <trkpt lat="49.78558" lon="2.33913">
        <ele>109.9</ele>
        <time>2022-07-13T08:15:32Z</time>
      </trkpt>
      <trkpt lat="49.78558" lon="2.33911">
        <ele>109.9</ele>
        <time>2022-07-13T08:15:33Z</time>
      </trkpt>
      <trkpt lat="49.78558" lon="2.33909">
        <ele>109.9</ele>
        <time>2022-07-13T08:15:34Z</time>
      </trkpt>
      <trkpt lat="49.78558" lon="2.33907">
        <ele>109.9</ele>
        <time>2022-07-13T08:15:35Z</time>
      </trkpt>
      <trkpt lat="49.78558" lon="2.33904">
        <ele>109.9</ele>
        <time>2022-07-13T08:15:36Z</time>
      </trkpt>
      <trkpt lat="49.78558" lon="2.33901">
        <ele>109.9</ele>
        <time>2022-07-13T08:15:37Z</time>
      </trkpt>
      <trkpt lat="49.78558" lon="2.339">
        <ele>110</ele>
        <time>2022-07-13T08:15:38Z</time>
      </trkpt>
      <trkpt lat="49.78558" lon="2.33898">
        <ele>110</ele>
        <time>2022-07-13T08:15:39Z</time>
      </trkpt>
      <trkpt lat="49.78558" lon="2.33894">
        <ele>110</ele>
        <time>2022-07-13T08:15:40Z</time>
      </trkpt>
      <trkpt lat="49.78558" lon="2.33893">
        <ele>110</ele>
        <time>2022-07-13T08:15:41Z</time>
      </trkpt>
      <trkpt lat="49.78558" lon="2.3389">
        <ele>110</ele>
        <time>2022-07-13T08:15:42Z</time>
      </trkpt>
      <trkpt lat="49.78557" lon="2.33889">
        <ele>110</ele>
        <time>2022-07-13T08:15:44Z</time>
      </trkpt>
      <trkpt lat="49.78557" lon="2.33887">
        <ele>110.1</ele>
        <time>2022-07-13T08:15:45Z</time>
      </trkpt>
      <trkpt lat="49.78557" lon="2.33884">
        <ele>110.1</ele>
        <time>2022-07-13T08:15:47Z</time>
      </trkpt>
      <trkpt lat="49.78557" lon="2.33883">
        <ele>110.1</ele>
        <time>2022-07-13T08:15:48Z</time>
      </trkpt>
      <trkpt lat="49.78557" lon="2.33881">
        <ele>110.1</ele>
        <time>2022-07-13T08:15:49Z</time>
      </trkpt>
      <trkpt lat="49.78557" lon="2.33879">
        <ele>110.1</ele>
        <time>2022-07-13T08:15:50Z</time>
      </trkpt>
      <trkpt lat="49.78556" lon="2.33875">
        <ele>110.1</ele>
        <time>2022-07-13T08:15:51Z</time>
      </trkpt>
      <trkpt lat="49.78556" lon="2.33874">
        <ele>110.2</ele>
        <time>2022-07-13T08:15:52Z</time>
      </trkpt>
      <trkpt lat="49.78555" lon="2.33873">
        <ele>110.2</ele>
        <time>2022-07-13T08:15:53Z</time>
      </trkpt>
      <trkpt lat="49.78555" lon="2.33871">
        <ele>110.2</ele>
        <time>2022-07-13T08:15:54Z</time>
      </trkpt>
      <trkpt lat="49.78554" lon="2.33869">
        <ele>110.2</ele>
        <time>2022-07-13T08:15:55Z</time>
      </trkpt>
      <trkpt lat="49.78553" lon="2.33865">
        <ele>110.2</ele>
        <time>2022-07-13T08:15:56Z</time>
      </trkpt>
      <trkpt lat="49.78553" lon="2.33865">
        <ele>110.2</ele>
        <time>2022-07-13T08:15:57Z</time>
      </trkpt>
      <trkpt lat="49.78552" lon="2.33863">
        <ele>110.3</ele>
        <time>2022-07-13T08:15:58Z</time>
      </trkpt>
      <trkpt lat="49.78551" lon="2.33861">
        <ele>110.3</ele>
        <time>2022-07-13T08:15:59Z</time>
      </trkpt>
      <trkpt lat="49.7855" lon="2.33859">
        <ele>110.3</ele>
        <time>2022-07-13T08:16:00Z</time>
      </trkpt>
      <trkpt lat="49.78549" lon="2.33856">
        <ele>110.3</ele>
        <time>2022-07-13T08:16:02Z</time>
      </trkpt>
      <trkpt lat="49.78548" lon="2.33854">
        <ele>110.3</ele>
        <time>2022-07-13T08:16:03Z</time>
      </trkpt>
      <trkpt lat="49.78547" lon="2.33853">
        <ele>110.3</ele>
        <time>2022-07-13T08:16:04Z</time>
      </trkpt>
      <trkpt lat="49.78547" lon="2.33852">
        <ele>110.4</ele>
        <time>2022-07-13T08:16:05Z</time>
      </trkpt>
      <trkpt lat="49.78546" lon="2.33851">
        <ele>110.4</ele>
        <time>2022-07-13T08:16:06Z</time>
      </trkpt>
      <trkpt lat="49.78545" lon="2.33849">
        <ele>110.4</ele>
        <time>2022-07-13T08:16:07Z</time>
      </trkpt>
      <trkpt lat="49.78544" lon="2.33848">
        <ele>110.4</ele>
        <time>2022-07-13T08:16:08Z</time>
      </trkpt>
      <trkpt lat="49.78543" lon="2.33847">
        <ele>110.4</ele>
        <time>2022-07-13T08:16:09Z</time>
      </trkpt>
      <trkpt lat="49.78542" lon="2.33845">
        <ele>110.4</ele>
        <time>2022-07-13T08:16:10Z</time>
      </trkpt>
      <trkpt lat="49.78541" lon="2.33844">
        <ele>110.4</ele>
        <time>2022-07-13T08:16:11Z</time>
      </trkpt>
      <trkpt lat="49.7854" lon="2.33842">
        <ele>110.4</ele>
        <time>2022-07-13T08:16:12Z</time>
      </trkpt>
      <trkpt lat="49.78538" lon="2.3384">
        <ele>110.5</ele>
        <time>2022-07-13T08:16:13Z</time>
      </trkpt>
      <trkpt lat="49.78538" lon="2.33839">
        <ele>110.5</ele>
        <time>2022-07-13T08:16:14Z</time>
      </trkpt>
      <trkpt lat="49.78537" lon="2.33838">
        <ele>110.5</ele>
        <time>2022-07-13T08:16:15Z</time>
      </trkpt>
      <trkpt lat="49.78535" lon="2.33836">
        <ele>110.5</ele>
        <time>2022-07-13T08:16:16Z</time>
      </trkpt>
      <trkpt lat="49.78534" lon="2.33835">
        <ele>110.5</ele>
        <time>2022-07-13T08:16:18Z</time>
      </trkpt>
      <trkpt lat="49.78534" lon="2.33834">
        <ele>110.5</ele>
        <time>2022-07-13T08:16:19Z</time>
      </trkpt>
      <trkpt lat="49.78532" lon="2.33832">
        <ele>110.5</ele>
        <time>2022-07-13T08:16:20Z</time>
      </trkpt>
      <trkpt lat="49.78531" lon="2.33831">
        <ele>110.5</ele>
        <time>2022-07-13T08:16:22Z</time>
      </trkpt>
      <trkpt lat="49.7853" lon="2.3383">
        <ele>110.5</ele>
        <time>2022-07-13T08:16:23Z</time>
      </trkpt>
      <trkpt lat="49.78529" lon="2.33829">
        <ele>110.5</ele>
        <time>2022-07-13T08:16:24Z</time>
      </trkpt>
      <trkpt lat="49.78528" lon="2.33828">
        <ele>110.6</ele>
        <time>2022-07-13T08:16:25Z</time>
      </trkpt>
      <trkpt lat="49.78527" lon="2.33827">
        <ele>110.6</ele>
        <time>2022-07-13T08:16:26Z</time>
      </trkpt>
      <trkpt lat="49.78526" lon="2.33825">
        <ele>110.6</ele>
        <time>2022-07-13T08:16:27Z</time>
      </trkpt>
      <trkpt lat="49.78525" lon="2.33825">
        <ele>110.6</ele>
        <time>2022-07-13T08:16:28Z</time>
      </trkpt>
      <trkpt lat="49.78524" lon="2.33824">
        <ele>110.6</ele>
        <time>2022-07-13T08:16:29Z</time>
      </trkpt>
      <trkpt lat="49.78523" lon="2.33823">
        <ele>110.6</ele>
        <time>2022-07-13T08:16:30Z</time>
      </trkpt>
      <trkpt lat="49.7852" lon="2.3382">
        <ele>110.6</ele>
        <time>2022-07-13T08:16:32Z</time>
      </trkpt>
      <trkpt lat="49.7852" lon="2.33819">
        <ele>110.6</ele>
        <time>2022-07-13T08:16:33Z</time>
      </trkpt>
      <trkpt lat="49.78518" lon="2.33817">
        <ele>110.7</ele>
        <time>2022-07-13T08:16:34Z</time>
      </trkpt>
      <trkpt lat="49.78517" lon="2.33816">
        <ele>110.7</ele>
        <time>2022-07-13T08:16:35Z</time>
      </trkpt>
      <trkpt lat="49.78517" lon="2.33815">
        <ele>110.7</ele>
        <time>2022-07-13T08:16:36Z</time>
      </trkpt>
      <trkpt lat="49.78516" lon="2.33814">
        <ele>110.7</ele>
        <time>2022-07-13T08:16:37Z</time>
      </trkpt>
      <trkpt lat="49.78515" lon="2.33813">
        <ele>110.7</ele>
        <time>2022-07-13T08:16:38Z</time>
      </trkpt>
      <trkpt lat="49.78515" lon="2.33812">
        <ele>110.7</ele>
        <time>2022-07-13T08:16:39Z</time>
      </trkpt>
      <trkpt lat="49.78514" lon="2.33811">
        <ele>110.7</ele>
        <time>2022-07-13T08:16:40Z</time>
      </trkpt>
      <trkpt lat="49.78513" lon="2.3381">
        <ele>110.7</ele>
        <time>2022-07-13T08:16:41Z</time>
      </trkpt>
      <trkpt lat="49.78513" lon="2.33808">
        <ele>110.7</ele>
        <time>2022-07-13T08:16:42Z</time>
      </trkpt>
      <trkpt lat="49.78512" lon="2.33806">
        <ele>110.7</ele>
        <time>2022-07-13T08:16:43Z</time>
      </trkpt>
      <trkpt lat="49.78511" lon="2.33805">
        <ele>110.7</ele>
        <time>2022-07-13T08:16:45Z</time>
      </trkpt>
      <trkpt lat="49.7851" lon="2.33804">
        <ele>110.7</ele>
        <time>2022-07-13T08:16:46Z</time>
      </trkpt>
      <trkpt lat="49.78509" lon="2.33801">
        <ele>110.8</ele>
        <time>2022-07-13T08:16:47Z</time>
      </trkpt>
      <trkpt lat="49.78508" lon="2.338">
        <ele>110.8</ele>
        <time>2022-07-13T08:16:48Z</time>
      </trkpt>
      <trkpt lat="49.78507" lon="2.33798">
        <ele>110.8</ele>
        <time>2022-07-13T08:16:49Z</time>
      </trkpt>
      <trkpt lat="49.78506" lon="2.33797">
        <ele>110.8</ele>
        <time>2022-07-13T08:16:50Z</time>
      </trkpt>
      <trkpt lat="49.78505" lon="2.33795">
        <ele>110.8</ele>
        <time>2022-07-13T08:16:51Z</time>
      </trkpt>
      <trkpt lat="49.78505" lon="2.33794">
        <ele>110.8</ele>
        <time>2022-07-13T08:16:53Z</time>
      </trkpt>
      <trkpt lat="49.78504" lon="2.33793">
        <ele>110.8</ele>
        <time>2022-07-13T08:16:54Z</time>
      </trkpt>
      <trkpt lat="49.78503" lon="2.33791">
        <ele>110.8</ele>
        <time>2022-07-13T08:16:55Z</time>
      </trkpt>
      <trkpt lat="49.78502" lon="2.3379">
        <ele>110.8</ele>
        <time>2022-07-13T08:16:56Z</time>
      </trkpt>
      <trkpt lat="49.78502" lon="2.33788">
        <ele>110.8</ele>
        <time>2022-07-13T08:16:57Z</time>
      </trkpt>
      <trkpt lat="49.78501" lon="2.33787">
        <ele>110.8</ele>
        <time>2022-07-13T08:16:58Z</time>
      </trkpt>
      <trkpt lat="49.785" lon="2.33785">
        <ele>110.8</ele>
        <time>2022-07-13T08:16:59Z</time>
      </trkpt>
      <trkpt lat="49.78499" lon="2.33784">
        <ele>110.8</ele>
        <time>2022-07-13T08:17:00Z</time>
      </trkpt>
      <trkpt lat="49.78499" lon="2.33783">
        <ele>110.8</ele>
        <time>2022-07-13T08:17:01Z</time>
      </trkpt>
      <trkpt lat="49.78497" lon="2.33781">
        <ele>110.8</ele>
        <time>2022-07-13T08:17:02Z</time>
      </trkpt>
      <trkpt lat="49.78496" lon="2.33779">
        <ele>110.8</ele>
        <time>2022-07-13T08:17:03Z</time>
      </trkpt>
      <trkpt lat="49.78495" lon="2.33778">
        <ele>110.8</ele>
        <time>2022-07-13T08:17:05Z</time>
      </trkpt>
      <trkpt lat="49.78494" lon="2.33776">
        <ele>110.9</ele>
        <time>2022-07-13T08:17:06Z</time>
      </trkpt>
      <trkpt lat="49.78492" lon="2.33774">
        <ele>110.9</ele>
        <time>2022-07-13T08:17:07Z</time>
      </trkpt>
      <trkpt lat="49.78492" lon="2.33773">
        <ele>110.9</ele>
        <time>2022-07-13T08:17:08Z</time>
      </trkpt>
      <trkpt lat="49.78491" lon="2.33773">
        <ele>110.9</ele>
        <time>2022-07-13T08:17:09Z</time>
      </trkpt>
      <trkpt lat="49.7849" lon="2.33771">
        <ele>110.9</ele>
        <time>2022-07-13T08:17:10Z</time>
      </trkpt>
      <trkpt lat="49.78488" lon="2.33769">
        <ele>110.9</ele>
        <time>2022-07-13T08:17:12Z</time>
      </trkpt>
      <trkpt lat="49.78487" lon="2.33768">
        <ele>110.9</ele>
        <time>2022-07-13T08:17:13Z</time>
      </trkpt>
      <trkpt lat="49.78486" lon="2.33766">
        <ele>110.9</ele>
        <time>2022-07-13T08:17:14Z</time>
      </trkpt>
      <trkpt lat="49.78485" lon="2.33765">
        <ele>110.9</ele>
        <time>2022-07-13T08:17:15Z</time>
      </trkpt>
      <trkpt lat="49.78484" lon="2.33763">
        <ele>111</ele>
        <time>2022-07-13T08:17:16Z</time>
      </trkpt>
      <trkpt lat="49.78483" lon="2.33762">
        <ele>111</ele>
        <time>2022-07-13T08:17:17Z</time>
      </trkpt>
      <trkpt lat="49.78483" lon="2.33761">
        <ele>111</ele>
        <time>2022-07-13T08:17:18Z</time>
      </trkpt>
      <trkpt lat="49.78482" lon="2.33759">
        <ele>111</ele>
        <time>2022-07-13T08:17:19Z</time>
      </trkpt>
      <trkpt lat="49.78481" lon="2.33757">
        <ele>111</ele>
        <time>2022-07-13T08:17:21Z</time>
      </trkpt>
      <trkpt lat="49.78479" lon="2.33755">
        <ele>111</ele>
        <time>2022-07-13T08:17:22Z</time>
      </trkpt>
      <trkpt lat="49.78479" lon="2.33753">
        <ele>111</ele>
        <time>2022-07-13T08:17:23Z</time>
      </trkpt>
      <trkpt lat="49.78478" lon="2.33752">
        <ele>111.1</ele>
        <time>2022-07-13T08:17:24Z</time>
      </trkpt>
      <trkpt lat="49.78477" lon="2.3375">
        <ele>111.1</ele>
        <time>2022-07-13T08:17:25Z</time>
      </trkpt>
      <trkpt lat="49.78476" lon="2.33749">
        <ele>111.1</ele>
        <time>2022-07-13T08:17:26Z</time>
      </trkpt>
      <trkpt lat="49.78475" lon="2.33747">
        <ele>111.1</ele>
        <time>2022-07-13T08:17:27Z</time>
      </trkpt>
      <trkpt lat="49.78474" lon="2.33746">
        <ele>111.1</ele>
        <time>2022-07-13T08:17:28Z</time>
      </trkpt>
      <trkpt lat="49.78473" lon="2.33744">
        <ele>111.1</ele>
        <time>2022-07-13T08:17:29Z</time>
      </trkpt>
      <trkpt lat="49.78473" lon="2.33743">
        <ele>111.1</ele>
        <time>2022-07-13T08:17:30Z</time>
      </trkpt>
      <trkpt lat="49.78472" lon="2.33741">
        <ele>111.2</ele>
        <time>2022-07-13T08:17:31Z</time>
      </trkpt>
      <trkpt lat="49.78471" lon="2.3374">
        <ele>111.2</ele>
        <time>2022-07-13T08:17:32Z</time>
      </trkpt>
      <trkpt lat="49.78469" lon="2.33737">
        <ele>111.2</ele>
        <time>2022-07-13T08:17:34Z</time>
      </trkpt>
      <trkpt lat="49.78468" lon="2.33736">
        <ele>111.2</ele>
        <time>2022-07-13T08:17:35Z</time>
      </trkpt>
      <trkpt lat="49.78468" lon="2.33735">
        <ele>111.2</ele>
        <time>2022-07-13T08:17:36Z</time>
      </trkpt>
      <trkpt lat="49.78466" lon="2.33733">
        <ele>111.2</ele>
        <time>2022-07-13T08:17:37Z</time>
      </trkpt>
      <trkpt lat="49.78465" lon="2.33732">
        <ele>111.2</ele>
        <time>2022-07-13T08:17:38Z</time>
      </trkpt>
      <trkpt lat="49.78465" lon="2.33732">
        <ele>111.3</ele>
        <time>2022-07-13T08:17:39Z</time>
      </trkpt>
      <trkpt lat="49.78464" lon="2.3373">
        <ele>111.3</ele>
        <time>2022-07-13T08:17:41Z</time>
      </trkpt>
      <trkpt lat="49.78463" lon="2.33728">
        <ele>111.3</ele>
        <time>2022-07-13T08:17:42Z</time>
      </trkpt>
      <trkpt lat="49.78461" lon="2.33725">
        <ele>111.3</ele>
        <time>2022-07-13T08:17:43Z</time>
      </trkpt>
      <trkpt lat="49.78461" lon="2.33724">
        <ele>111.3</ele>
        <time>2022-07-13T08:17:44Z</time>
      </trkpt>
      <trkpt lat="49.7846" lon="2.33723">
        <ele>111.3</ele>
        <time>2022-07-13T08:17:45Z</time>
      </trkpt>
      <trkpt lat="49.78459" lon="2.33722">
        <ele>111.4</ele>
        <time>2022-07-13T08:17:46Z</time>
      </trkpt>
      <trkpt lat="49.78459" lon="2.3372">
        <ele>111.4</ele>
        <time>2022-07-13T08:17:47Z</time>
      </trkpt>
      <trkpt lat="49.78458" lon="2.33718">
        <ele>111.4</ele>
        <time>2022-07-13T08:17:49Z</time>
      </trkpt>
      <trkpt lat="49.78457" lon="2.33717">
        <ele>111.4</ele>
        <time>2022-07-13T08:17:50Z</time>
      </trkpt>
      <trkpt lat="49.78456" lon="2.33716">
        <ele>111.4</ele>
        <time>2022-07-13T08:17:51Z</time>
      </trkpt>
      <trkpt lat="49.78455" lon="2.33714">
        <ele>111.4</ele>
        <time>2022-07-13T08:17:52Z</time>
      </trkpt>
      <trkpt lat="49.78454" lon="2.33714">
        <ele>111.4</ele>
        <time>2022-07-13T08:17:53Z</time>
      </trkpt>
      <trkpt lat="49.78454" lon="2.33713">
        <ele>111.4</ele>
        <time>2022-07-13T08:17:54Z</time>
      </trkpt>
      <trkpt lat="49.78452" lon="2.33711">
        <ele>111.5</ele>
        <time>2022-07-13T08:17:55Z</time>
      </trkpt>
      <trkpt lat="49.78451" lon="2.3371">
        <ele>111.5</ele>
        <time>2022-07-13T08:17:56Z</time>
      </trkpt>
      <trkpt lat="49.7845" lon="2.33709">
        <ele>111.5</ele>
        <time>2022-07-13T08:17:57Z</time>
      </trkpt>
      <trkpt lat="49.7845" lon="2.33708">
        <ele>111.5</ele>
        <time>2022-07-13T08:17:58Z</time>
      </trkpt>
      <trkpt lat="49.78449" lon="2.33707">
        <ele>111.5</ele>
        <time>2022-07-13T08:17:59Z</time>
      </trkpt>
      <trkpt lat="49.78448" lon="2.33705">
        <ele>111.5</ele>
        <time>2022-07-13T08:18:01Z</time>
      </trkpt>
      <trkpt lat="49.78447" lon="2.33704">
        <ele>111.6</ele>
        <time>2022-07-13T08:18:02Z</time>
      </trkpt>
      <trkpt lat="49.78446" lon="2.33702">
        <ele>111.6</ele>
        <time>2022-07-13T08:18:03Z</time>
      </trkpt>
      <trkpt lat="49.78446" lon="2.33701">
        <ele>111.6</ele>
        <time>2022-07-13T08:18:04Z</time>
      </trkpt>
      <trkpt lat="49.78445" lon="2.337">
        <ele>111.6</ele>
        <time>2022-07-13T08:18:05Z</time>
      </trkpt>
      <trkpt lat="49.78444" lon="2.33699">
        <ele>111.6</ele>
        <time>2022-07-13T08:18:06Z</time>
      </trkpt>
      <trkpt lat="49.78443" lon="2.33697">
        <ele>111.6</ele>
        <time>2022-07-13T08:18:07Z</time>
      </trkpt>
      <trkpt lat="49.78443" lon="2.33696">
        <ele>111.7</ele>
        <time>2022-07-13T08:18:09Z</time>
      </trkpt>
      <trkpt lat="49.78442" lon="2.33695">
        <ele>111.7</ele>
        <time>2022-07-13T08:18:10Z</time>
      </trkpt>
      <trkpt lat="49.78441" lon="2.33694">
        <ele>111.7</ele>
        <time>2022-07-13T08:18:11Z</time>
      </trkpt>
      <trkpt lat="49.7844" lon="2.33693">
        <ele>111.7</ele>
        <time>2022-07-13T08:18:12Z</time>
      </trkpt>
      <trkpt lat="49.7844" lon="2.33693">
        <ele>111.7</ele>
        <time>2022-07-13T08:18:13Z</time>
      </trkpt>
      <trkpt lat="49.78439" lon="2.33692">
        <ele>111.7</ele>
        <time>2022-07-13T08:18:14Z</time>
      </trkpt>
      <trkpt lat="49.78439" lon="2.33691">
        <ele>111.7</ele>
        <time>2022-07-13T08:18:15Z</time>
      </trkpt>
      <trkpt lat="49.78439" lon="2.3369">
        <ele>111.7</ele>
        <time>2022-07-13T08:18:17Z</time>
      </trkpt>
      <trkpt lat="49.78439" lon="2.33689">
        <ele>111.7</ele>
        <time>2022-07-13T08:18:18Z</time>
      </trkpt>
      <trkpt lat="49.78438" lon="2.33688">
        <ele>111.7</ele>
        <time>2022-07-13T08:18:19Z</time>
      </trkpt>
      <trkpt lat="49.78438" lon="2.33686">
        <ele>111.7</ele>
        <time>2022-07-13T08:18:21Z</time>
      </trkpt>
      <trkpt lat="49.78439" lon="2.33684">
        <ele>111.7</ele>
        <time>2022-07-13T08:18:22Z</time>
      </trkpt>
      <trkpt lat="49.78439" lon="2.33684">
        <ele>111.7</ele>
        <time>2022-07-13T08:18:23Z</time>
      </trkpt>
      <trkpt lat="49.7844" lon="2.33683">
        <ele>111.7</ele>
        <time>2022-07-13T08:18:24Z</time>
      </trkpt>
      <trkpt lat="49.7844" lon="2.33683">
        <ele>111.7</ele>
        <time>2022-07-13T08:18:25Z</time>
      </trkpt>
      <trkpt lat="49.78441" lon="2.33682">
        <ele>111.7</ele>
        <time>2022-07-13T08:18:26Z</time>
      </trkpt>
      <trkpt lat="49.78442" lon="2.33682">
        <ele>111.7</ele>
        <time>2022-07-13T08:18:29Z</time>
      </trkpt>
      <trkpt lat="49.78442" lon="2.33683">
        <ele>111.7</ele>
        <time>2022-07-13T08:18:30Z</time>
      </trkpt>
      <trkpt lat="49.78443" lon="2.33685">
        <ele>111.7</ele>
        <time>2022-07-13T08:18:32Z</time>
      </trkpt>
      <trkpt lat="49.78443" lon="2.33686">
        <ele>111.7</ele>
        <time>2022-07-13T08:18:33Z</time>
      </trkpt>
      <trkpt lat="49.78443" lon="2.33687">
        <ele>111.7</ele>
        <time>2022-07-13T08:18:35Z</time>
      </trkpt>
      <trkpt lat="49.78443" lon="2.33687">
        <ele>111.7</ele>
        <time>2022-07-13T08:18:36Z</time>
      </trkpt>
      <trkpt lat="49.78443" lon="2.33688">
        <ele>111.7</ele>
        <time>2022-07-13T08:18:38Z</time>
      </trkpt>
      <trkpt lat="49.78443" lon="2.33689">
        <ele>111.7</ele>
        <time>2022-07-13T08:18:39Z</time>
      </trkpt>
      <trkpt lat="49.78442" lon="2.3369">
        <ele>111.7</ele>
        <time>2022-07-13T08:18:40Z</time>
      </trkpt>
      <trkpt lat="49.78442" lon="2.33691">
        <ele>111.7</ele>
        <time>2022-07-13T08:18:41Z</time>
      </trkpt>
      <trkpt lat="49.78442" lon="2.33691">
        <ele>111.7</ele>
        <time>2022-07-13T08:18:42Z</time>
      </trkpt>
      <trkpt lat="49.78443" lon="2.3369">
        <ele>111.7</ele>
        <time>2022-07-13T08:18:43Z</time>
      </trkpt>
      <trkpt lat="49.78443" lon="2.33689">
        <ele>111.7</ele>
        <time>2022-07-13T08:18:45Z</time>
      </trkpt>
      <trkpt lat="49.78443" lon="2.33688">
        <ele>111.7</ele>
        <time>2022-07-13T08:18:46Z</time>
      </trkpt>
      <trkpt lat="49.78442" lon="2.33687">
        <ele>111.7</ele>
        <time>2022-07-13T08:18:47Z</time>
      </trkpt>
      <trkpt lat="49.78441" lon="2.33684">
        <ele>111.7</ele>
        <time>2022-07-13T08:18:49Z</time>
      </trkpt>
      <trkpt lat="49.7844" lon="2.33681">
        <ele>111.7</ele>
        <time>2022-07-13T08:18:50Z</time>
      </trkpt>
      <trkpt lat="49.7844" lon="2.3368">
        <ele>111.7</ele>
        <time>2022-07-13T08:18:51Z</time>
      </trkpt>
      <trkpt lat="49.7844" lon="2.33679">
        <ele>111.7</ele>
        <time>2022-07-13T08:18:52Z</time>
      </trkpt>
      <trkpt lat="49.78439" lon="2.33676">
        <ele>111.7</ele>
        <time>2022-07-13T08:18:54Z</time>
      </trkpt>
      <trkpt lat="49.78439" lon="2.33674">
        <ele>111.7</ele>
        <time>2022-07-13T08:18:55Z</time>
      </trkpt>
      <trkpt lat="49.78439" lon="2.33672">
        <ele>111.7</ele>
        <time>2022-07-13T08:18:56Z</time>
      </trkpt>
      <trkpt lat="49.78439" lon="2.33671">
        <ele>111.7</ele>
        <time>2022-07-13T08:18:57Z</time>
      </trkpt>
      <trkpt lat="49.78441" lon="2.33669">
        <ele>111.7</ele>
        <time>2022-07-13T08:18:59Z</time>
      </trkpt>
      <trkpt lat="49.78441" lon="2.33666">
        <ele>111.7</ele>
        <time>2022-07-13T08:19:00Z</time>
      </trkpt>
      <trkpt lat="49.78441" lon="2.33664">
        <ele>111.7</ele>
        <time>2022-07-13T08:19:01Z</time>
      </trkpt>
      <trkpt lat="49.78441" lon="2.33663">
        <ele>111.7</ele>
        <time>2022-07-13T08:19:02Z</time>
      </trkpt>
      <trkpt lat="49.78442" lon="2.33661">
        <ele>111.7</ele>
        <time>2022-07-13T08:19:03Z</time>
      </trkpt>
      <trkpt lat="49.78442" lon="2.3366">
        <ele>111.7</ele>
        <time>2022-07-13T08:19:04Z</time>
      </trkpt>
      <trkpt lat="49.78443" lon="2.33658">
        <ele>111.7</ele>
        <time>2022-07-13T08:19:05Z</time>
      </trkpt>
      <trkpt lat="49.78443" lon="2.33656">
        <ele>111.7</ele>
        <time>2022-07-13T08:19:06Z</time>
      </trkpt>
      <trkpt lat="49.78444" lon="2.33654">
        <ele>111.7</ele>
        <time>2022-07-13T08:19:07Z</time>
      </trkpt>
      <trkpt lat="49.78445" lon="2.33652">
        <ele>111.7</ele>
        <time>2022-07-13T08:19:09Z</time>
      </trkpt>
      <trkpt lat="49.78445" lon="2.3365">
        <ele>111.7</ele>
        <time>2022-07-13T08:19:10Z</time>
      </trkpt>
      <trkpt lat="49.78446" lon="2.33647">
        <ele>111.7</ele>
        <time>2022-07-13T08:19:11Z</time>
      </trkpt>
      <trkpt lat="49.78447" lon="2.33645">
        <ele>111.7</ele>
        <time>2022-07-13T08:19:12Z</time>
      </trkpt>
      <trkpt lat="49.78448" lon="2.33643">
        <ele>111.7</ele>
        <time>2022-07-13T08:19:13Z</time>
      </trkpt>
      <trkpt lat="49.78448" lon="2.33641">
        <ele>111.8</ele>
        <time>2022-07-13T08:19:14Z</time>
      </trkpt>
      <trkpt lat="49.78449" lon="2.33638">
        <ele>111.8</ele>
        <time>2022-07-13T08:19:15Z</time>
      </trkpt>
      <trkpt lat="49.7845" lon="2.33634">
        <ele>111.8</ele>
        <time>2022-07-13T08:19:17Z</time>
      </trkpt>
      <trkpt lat="49.7845" lon="2.33632">
        <ele>111.8</ele>
        <time>2022-07-13T08:19:18Z</time>
      </trkpt>
      <trkpt lat="49.78451" lon="2.3363">
        <ele>111.8</ele>
        <time>2022-07-13T08:19:19Z</time>
      </trkpt>
      <trkpt lat="49.78451" lon="2.33627">
        <ele>111.8</ele>
        <time>2022-07-13T08:19:20Z</time>
      </trkpt>
      <trkpt lat="49.78452" lon="2.33625">
        <ele>111.8</ele>
        <time>2022-07-13T08:19:21Z</time>
      </trkpt>
      <trkpt lat="49.78453" lon="2.33623">
        <ele>111.8</ele>
        <time>2022-07-13T08:19:22Z</time>
      </trkpt>
      <trkpt lat="49.78453" lon="2.33622">
        <ele>111.8</ele>
        <time>2022-07-13T08:19:23Z</time>
      </trkpt>
      <trkpt lat="49.78454" lon="2.3362">
        <ele>111.8</ele>
        <time>2022-07-13T08:19:24Z</time>
      </trkpt>
      <trkpt lat="49.78454" lon="2.33619">
        <ele>111.8</ele>
        <time>2022-07-13T08:19:25Z</time>
      </trkpt>
      <trkpt lat="49.78455" lon="2.33616">
        <ele>111.8</ele>
        <time>2022-07-13T08:19:26Z</time>
      </trkpt>
      <trkpt lat="49.78455" lon="2.33614">
        <ele>111.8</ele>
        <time>2022-07-13T08:19:27Z</time>
      </trkpt>
      <trkpt lat="49.78456" lon="2.33613">
        <ele>111.8</ele>
        <time>2022-07-13T08:19:28Z</time>
      </trkpt>
      <trkpt lat="49.78456" lon="2.33611">
        <ele>111.8</ele>
        <time>2022-07-13T08:19:29Z</time>
      </trkpt>
      <trkpt lat="49.78457" lon="2.33609">
        <ele>111.8</ele>
        <time>2022-07-13T08:19:30Z</time>
      </trkpt>
      <trkpt lat="49.78457" lon="2.33608">
        <ele>111.9</ele>
        <time>2022-07-13T08:19:32Z</time>
      </trkpt>
      <trkpt lat="49.78457" lon="2.33607">
        <ele>111.9</ele>
        <time>2022-07-13T08:19:33Z</time>
      </trkpt>
      <trkpt lat="49.78458" lon="2.33604">
        <ele>111.9</ele>
        <time>2022-07-13T08:19:34Z</time>
      </trkpt>
      <trkpt lat="49.78458" lon="2.33602">
        <ele>111.9</ele>
        <time>2022-07-13T08:19:35Z</time>
      </trkpt>
      <trkpt lat="49.78459" lon="2.336">
        <ele>111.9</ele>
        <time>2022-07-13T08:19:36Z</time>
      </trkpt>
      <trkpt lat="49.7846" lon="2.33598">
        <ele>111.9</ele>
        <time>2022-07-13T08:19:37Z</time>
      </trkpt>
      <trkpt lat="49.78461" lon="2.33596">
        <ele>111.9</ele>
        <time>2022-07-13T08:19:38Z</time>
      </trkpt>
      <trkpt lat="49.78462" lon="2.33595">
        <ele>111.9</ele>
        <time>2022-07-13T08:19:39Z</time>
      </trkpt>
      <trkpt lat="49.78462" lon="2.33593">
        <ele>111.9</ele>
        <time>2022-07-13T08:19:40Z</time>
      </trkpt>
      <trkpt lat="49.78463" lon="2.33591">
        <ele>111.9</ele>
        <time>2022-07-13T08:19:41Z</time>
      </trkpt>
      <trkpt lat="49.78464" lon="2.33589">
        <ele>111.9</ele>
        <time>2022-07-13T08:19:42Z</time>
      </trkpt>
      <trkpt lat="49.78464" lon="2.33587">
        <ele>112</ele>
        <time>2022-07-13T08:19:43Z</time>
      </trkpt>
      <trkpt lat="49.78465" lon="2.33585">
        <ele>112</ele>
        <time>2022-07-13T08:19:44Z</time>
      </trkpt>
      <trkpt lat="49.78466" lon="2.33583">
        <ele>112</ele>
        <time>2022-07-13T08:19:46Z</time>
      </trkpt>
      <trkpt lat="49.78466" lon="2.33581">
        <ele>112</ele>
        <time>2022-07-13T08:19:47Z</time>
      </trkpt>
      <trkpt lat="49.78467" lon="2.33579">
        <ele>112</ele>
        <time>2022-07-13T08:19:48Z</time>
      </trkpt>
      <trkpt lat="49.78467" lon="2.33579">
        <ele>112</ele>
        <time>2022-07-13T08:19:49Z</time>
      </trkpt>
      <trkpt lat="49.78468" lon="2.33576">
        <ele>112</ele>
        <time>2022-07-13T08:19:50Z</time>
      </trkpt>
      <trkpt lat="49.78468" lon="2.33575">
        <ele>112</ele>
        <time>2022-07-13T08:19:51Z</time>
      </trkpt>
      <trkpt lat="49.78469" lon="2.33574">
        <ele>112</ele>
        <time>2022-07-13T08:19:52Z</time>
      </trkpt>
      <trkpt lat="49.7847" lon="2.33571">
        <ele>112</ele>
        <time>2022-07-13T08:19:53Z</time>
      </trkpt>
      <trkpt lat="49.7847" lon="2.3357">
        <ele>112.1</ele>
        <time>2022-07-13T08:19:54Z</time>
      </trkpt>
      <trkpt lat="49.78471" lon="2.33568">
        <ele>112.1</ele>
        <time>2022-07-13T08:19:55Z</time>
      </trkpt>
      <trkpt lat="49.78471" lon="2.33567">
        <ele>112.1</ele>
        <time>2022-07-13T08:19:56Z</time>
      </trkpt>
      <trkpt lat="49.78471" lon="2.33565">
        <ele>112.1</ele>
        <time>2022-07-13T08:19:57Z</time>
      </trkpt>
      <trkpt lat="49.78471" lon="2.33563">
        <ele>112.1</ele>
        <time>2022-07-13T08:19:59Z</time>
      </trkpt>
      <trkpt lat="49.78472" lon="2.33562">
        <ele>112.1</ele>
        <time>2022-07-13T08:20:00Z</time>
      </trkpt>
      <trkpt lat="49.78472" lon="2.33559">
        <ele>112.1</ele>
        <time>2022-07-13T08:20:01Z</time>
      </trkpt>
      <trkpt lat="49.78473" lon="2.33558">
        <ele>112.1</ele>
        <time>2022-07-13T08:20:02Z</time>
      </trkpt>
      <trkpt lat="49.78473" lon="2.33556">
        <ele>112.1</ele>
        <time>2022-07-13T08:20:03Z</time>
      </trkpt>
      <trkpt lat="49.78473" lon="2.33555">
        <ele>112.1</ele>
        <time>2022-07-13T08:20:04Z</time>
      </trkpt>
      <trkpt lat="49.78474" lon="2.33552">
        <ele>112.1</ele>
        <time>2022-07-13T08:20:06Z</time>
      </trkpt>
      <trkpt lat="49.78474" lon="2.3355">
        <ele>112.1</ele>
        <time>2022-07-13T08:20:07Z</time>
      </trkpt>
      <trkpt lat="49.78474" lon="2.33548">
        <ele>112.2</ele>
        <time>2022-07-13T08:20:08Z</time>
      </trkpt>
      <trkpt lat="49.78475" lon="2.33546">
        <ele>112.2</ele>
        <time>2022-07-13T08:20:09Z</time>
      </trkpt>
      <trkpt lat="49.78475" lon="2.33545">
        <ele>112.2</ele>
        <time>2022-07-13T08:20:10Z</time>
      </trkpt>
      <trkpt lat="49.78476" lon="2.33543">
        <ele>112.2</ele>
        <time>2022-07-13T08:20:11Z</time>
      </trkpt>
      <trkpt lat="49.78476" lon="2.33541">
        <ele>112.2</ele>
        <time>2022-07-13T08:20:13Z</time>
      </trkpt>
      <trkpt lat="49.78477" lon="2.33539">
        <ele>112.2</ele>
        <time>2022-07-13T08:20:14Z</time>
      </trkpt>
      <trkpt lat="49.78477" lon="2.33537">
        <ele>112.2</ele>
        <time>2022-07-13T08:20:15Z</time>
      </trkpt>
      <trkpt lat="49.78478" lon="2.33536">
        <ele>112.2</ele>
        <time>2022-07-13T08:20:16Z</time>
      </trkpt>
      <trkpt lat="49.78479" lon="2.33535">
        <ele>112.2</ele>
        <time>2022-07-13T08:20:17Z</time>
      </trkpt>
      <trkpt lat="49.7848" lon="2.33532">
        <ele>112.2</ele>
        <time>2022-07-13T08:20:18Z</time>
      </trkpt>
      <trkpt lat="49.7848" lon="2.33531">
        <ele>112.2</ele>
        <time>2022-07-13T08:20:19Z</time>
      </trkpt>
      <trkpt lat="49.7848" lon="2.3353">
        <ele>112.2</ele>
        <time>2022-07-13T08:20:20Z</time>
      </trkpt>
      <trkpt lat="49.78481" lon="2.33527">
        <ele>112.3</ele>
        <time>2022-07-13T08:20:21Z</time>
      </trkpt>
      <trkpt lat="49.78482" lon="2.33526">
        <ele>112.3</ele>
        <time>2022-07-13T08:20:22Z</time>
      </trkpt>
      <trkpt lat="49.78482" lon="2.33524">
        <ele>112.3</ele>
        <time>2022-07-13T08:20:23Z</time>
      </trkpt>
      <trkpt lat="49.78483" lon="2.33523">
        <ele>112.3</ele>
        <time>2022-07-13T08:20:25Z</time>
      </trkpt>
      <trkpt lat="49.78483" lon="2.33521">
        <ele>112.3</ele>
        <time>2022-07-13T08:20:26Z</time>
      </trkpt>
      <trkpt lat="49.78483" lon="2.3352">
        <ele>112.3</ele>
        <time>2022-07-13T08:20:27Z</time>
      </trkpt>
      <trkpt lat="49.78484" lon="2.33517">
        <ele>112.3</ele>
        <time>2022-07-13T08:20:28Z</time>
      </trkpt>
      <trkpt lat="49.78484" lon="2.33516">
        <ele>112.3</ele>
        <time>2022-07-13T08:20:29Z</time>
      </trkpt>
      <trkpt lat="49.78485" lon="2.33514">
        <ele>112.3</ele>
        <time>2022-07-13T08:20:30Z</time>
      </trkpt>
      <trkpt lat="49.78486" lon="2.33512">
        <ele>112.3</ele>
        <time>2022-07-13T08:20:31Z</time>
      </trkpt>
      <trkpt lat="49.78486" lon="2.33511">
        <ele>112.3</ele>
        <time>2022-07-13T08:20:32Z</time>
      </trkpt>
      <trkpt lat="49.78487" lon="2.33509">
        <ele>112.3</ele>
        <time>2022-07-13T08:20:33Z</time>
      </trkpt>
      <trkpt lat="49.78488" lon="2.33508">
        <ele>112.4</ele>
        <time>2022-07-13T08:20:34Z</time>
      </trkpt>
      <trkpt lat="49.78488" lon="2.33507">
        <ele>112.4</ele>
        <time>2022-07-13T08:20:35Z</time>
      </trkpt>
      <trkpt lat="49.78489" lon="2.33505">
        <ele>112.4</ele>
        <time>2022-07-13T08:20:37Z</time>
      </trkpt>
      <trkpt lat="49.7849" lon="2.33503">
        <ele>112.4</ele>
        <time>2022-07-13T08:20:38Z</time>
      </trkpt>
      <trkpt lat="49.78491" lon="2.33501">
        <ele>112.4</ele>
        <time>2022-07-13T08:20:39Z</time>
      </trkpt>
      <trkpt lat="49.78491" lon="2.335">
        <ele>112.4</ele>
        <time>2022-07-13T08:20:40Z</time>
      </trkpt>
      <trkpt lat="49.78492" lon="2.33499">
        <ele>112.4</ele>
        <time>2022-07-13T08:20:41Z</time>
      </trkpt>
      <trkpt lat="49.78492" lon="2.33498">
        <ele>112.4</ele>
        <time>2022-07-13T08:20:42Z</time>
      </trkpt>
      <trkpt lat="49.78494" lon="2.33494">
        <ele>112.5</ele>
        <time>2022-07-13T08:20:44Z</time>
      </trkpt>
      <trkpt lat="49.78494" lon="2.33493">
        <ele>112.5</ele>
        <time>2022-07-13T08:20:45Z</time>
      </trkpt>
      <trkpt lat="49.78494" lon="2.33491">
        <ele>112.5</ele>
        <time>2022-07-13T08:20:46Z</time>
      </trkpt>
      <trkpt lat="49.78495" lon="2.33489">
        <ele>112.5</ele>
        <time>2022-07-13T08:20:47Z</time>
      </trkpt>
      <trkpt lat="49.78495" lon="2.33487">
        <ele>112.5</ele>
        <time>2022-07-13T08:20:48Z</time>
      </trkpt>
      <trkpt lat="49.78496" lon="2.33484">
        <ele>112.6</ele>
        <time>2022-07-13T08:20:50Z</time>
      </trkpt>
      <trkpt lat="49.78496" lon="2.33482">
        <ele>112.6</ele>
        <time>2022-07-13T08:20:51Z</time>
      </trkpt>
      <trkpt lat="49.78497" lon="2.3348">
        <ele>112.6</ele>
        <time>2022-07-13T08:20:52Z</time>
      </trkpt>
      <trkpt lat="49.78498" lon="2.33477">
        <ele>112.6</ele>
        <time>2022-07-13T08:20:53Z</time>
      </trkpt>
      <trkpt lat="49.78498" lon="2.33476">
        <ele>112.6</ele>
        <time>2022-07-13T08:20:54Z</time>
      </trkpt>
      <trkpt lat="49.78498" lon="2.33475">
        <ele>112.6</ele>
        <time>2022-07-13T08:20:55Z</time>
      </trkpt>
      <trkpt lat="49.78499" lon="2.33474">
        <ele>112.7</ele>
        <time>2022-07-13T08:20:56Z</time>
      </trkpt>
      <trkpt lat="49.78499" lon="2.33473">
        <ele>112.7</ele>
        <time>2022-07-13T08:20:57Z</time>
      </trkpt>
      <trkpt lat="49.78499" lon="2.33472">
        <ele>112.7</ele>
        <time>2022-07-13T08:20:58Z</time>
      </trkpt>
      <trkpt lat="49.78499" lon="2.33471">
        <ele>112.7</ele>
        <time>2022-07-13T08:20:59Z</time>
      </trkpt>
      <trkpt lat="49.785" lon="2.33469">
        <ele>112.7</ele>
        <time>2022-07-13T08:21:01Z</time>
      </trkpt>
      <trkpt lat="49.785" lon="2.33466">
        <ele>112.7</ele>
        <time>2022-07-13T08:21:02Z</time>
      </trkpt>
      <trkpt lat="49.78501" lon="2.33465">
        <ele>112.7</ele>
        <time>2022-07-13T08:21:03Z</time>
      </trkpt>
      <trkpt lat="49.78501" lon="2.33463">
        <ele>112.7</ele>
        <time>2022-07-13T08:21:04Z</time>
      </trkpt>
      <trkpt lat="49.78501" lon="2.33461">
        <ele>112.7</ele>
        <time>2022-07-13T08:21:05Z</time>
      </trkpt>
      <trkpt lat="49.78502" lon="2.3346">
        <ele>112.7</ele>
        <time>2022-07-13T08:21:06Z</time>
      </trkpt>
      <trkpt lat="49.78502" lon="2.33459">
        <ele>112.7</ele>
        <time>2022-07-13T08:21:07Z</time>
      </trkpt>
      <trkpt lat="49.78502" lon="2.33458">
        <ele>112.7</ele>
        <time>2022-07-13T08:21:08Z</time>
      </trkpt>
      <trkpt lat="49.78503" lon="2.33454">
        <ele>112.7</ele>
        <time>2022-07-13T08:21:09Z</time>
      </trkpt>
      <trkpt lat="49.78503" lon="2.33453">
        <ele>112.7</ele>
        <time>2022-07-13T08:21:10Z</time>
      </trkpt>
      <trkpt lat="49.78503" lon="2.33452">
        <ele>112.7</ele>
        <time>2022-07-13T08:21:11Z</time>
      </trkpt>
      <trkpt lat="49.78504" lon="2.3345">
        <ele>112.8</ele>
        <time>2022-07-13T08:21:12Z</time>
      </trkpt>
      <trkpt lat="49.78504" lon="2.33448">
        <ele>112.8</ele>
        <time>2022-07-13T08:21:13Z</time>
      </trkpt>
      <trkpt lat="49.78505" lon="2.33445">
        <ele>112.8</ele>
        <time>2022-07-13T08:21:14Z</time>
      </trkpt>
      <trkpt lat="49.78505" lon="2.33443">
        <ele>112.8</ele>
        <time>2022-07-13T08:21:15Z</time>
      </trkpt>
      <trkpt lat="49.78506" lon="2.3344">
        <ele>112.8</ele>
        <time>2022-07-13T08:21:16Z</time>
      </trkpt>
      <trkpt lat="49.78506" lon="2.33438">
        <ele>112.8</ele>
        <time>2022-07-13T08:21:18Z</time>
      </trkpt>
      <trkpt lat="49.78506" lon="2.33436">
        <ele>112.8</ele>
        <time>2022-07-13T08:21:19Z</time>
      </trkpt>
      <trkpt lat="49.78507" lon="2.33435">
        <ele>112.8</ele>
        <time>2022-07-13T08:21:20Z</time>
      </trkpt>
      <trkpt lat="49.78507" lon="2.33434">
        <ele>112.9</ele>
        <time>2022-07-13T08:21:21Z</time>
      </trkpt>
      <trkpt lat="49.78507" lon="2.33432">
        <ele>112.9</ele>
        <time>2022-07-13T08:21:22Z</time>
      </trkpt>
      <trkpt lat="49.78508" lon="2.33431">
        <ele>112.9</ele>
        <time>2022-07-13T08:21:23Z</time>
      </trkpt>
      <trkpt lat="49.78509" lon="2.33428">
        <ele>112.9</ele>
        <time>2022-07-13T08:21:24Z</time>
      </trkpt>
      <trkpt lat="49.7851" lon="2.33425">
        <ele>112.9</ele>
        <time>2022-07-13T08:21:25Z</time>
      </trkpt>
      <trkpt lat="49.78511" lon="2.33424">
        <ele>112.9</ele>
        <time>2022-07-13T08:21:26Z</time>
      </trkpt>
      <trkpt lat="49.78511" lon="2.33422">
        <ele>112.9</ele>
        <time>2022-07-13T08:21:28Z</time>
      </trkpt>
      <trkpt lat="49.78512" lon="2.33421">
        <ele>113</ele>
        <time>2022-07-13T08:21:29Z</time>
      </trkpt>
      <trkpt lat="49.78513" lon="2.33419">
        <ele>113</ele>
        <time>2022-07-13T08:21:30Z</time>
      </trkpt>
      <trkpt lat="49.78513" lon="2.33416">
        <ele>113</ele>
        <time>2022-07-13T08:21:31Z</time>
      </trkpt>
      <trkpt lat="49.78514" lon="2.33415">
        <ele>113</ele>
        <time>2022-07-13T08:21:33Z</time>
      </trkpt>
      <trkpt lat="49.78514" lon="2.33413">
        <ele>113</ele>
        <time>2022-07-13T08:21:34Z</time>
      </trkpt>
      <trkpt lat="49.78515" lon="2.3341">
        <ele>113</ele>
        <time>2022-07-13T08:21:35Z</time>
      </trkpt>
      <trkpt lat="49.78515" lon="2.33409">
        <ele>113.1</ele>
        <time>2022-07-13T08:21:36Z</time>
      </trkpt>
      <trkpt lat="49.78516" lon="2.33408">
        <ele>113.1</ele>
        <time>2022-07-13T08:21:37Z</time>
      </trkpt>
      <trkpt lat="49.78516" lon="2.33406">
        <ele>113.1</ele>
        <time>2022-07-13T08:21:38Z</time>
      </trkpt>
      <trkpt lat="49.78516" lon="2.33405">
        <ele>113.1</ele>
        <time>2022-07-13T08:21:39Z</time>
      </trkpt>
      <trkpt lat="49.78517" lon="2.33403">
        <ele>113.1</ele>
        <time>2022-07-13T08:21:40Z</time>
      </trkpt>
      <trkpt lat="49.78517" lon="2.33401">
        <ele>113.1</ele>
        <time>2022-07-13T08:21:41Z</time>
      </trkpt>
      <trkpt lat="49.78518" lon="2.33399">
        <ele>113.1</ele>
        <time>2022-07-13T08:21:42Z</time>
      </trkpt>
      <trkpt lat="49.78518" lon="2.33397">
        <ele>113.1</ele>
        <time>2022-07-13T08:21:43Z</time>
      </trkpt>
      <trkpt lat="49.78519" lon="2.33395">
        <ele>113.2</ele>
        <time>2022-07-13T08:21:44Z</time>
      </trkpt>
      <trkpt lat="49.7852" lon="2.33394">
        <ele>113.2</ele>
        <time>2022-07-13T08:21:46Z</time>
      </trkpt>
      <trkpt lat="49.7852" lon="2.33392">
        <ele>113.2</ele>
        <time>2022-07-13T08:21:47Z</time>
      </trkpt>
      <trkpt lat="49.78521" lon="2.33391">
        <ele>113.2</ele>
        <time>2022-07-13T08:21:48Z</time>
      </trkpt>
      <trkpt lat="49.78522" lon="2.3339">
        <ele>113.2</ele>
        <time>2022-07-13T08:21:49Z</time>
      </trkpt>
      <trkpt lat="49.78522" lon="2.33388">
        <ele>113.2</ele>
        <time>2022-07-13T08:21:50Z</time>
      </trkpt>
      <trkpt lat="49.78522" lon="2.33386">
        <ele>113.2</ele>
        <time>2022-07-13T08:21:51Z</time>
      </trkpt>
      <trkpt lat="49.78523" lon="2.33384">
        <ele>113.2</ele>
        <time>2022-07-13T08:21:53Z</time>
      </trkpt>
      <trkpt lat="49.78524" lon="2.33382">
        <ele>113.2</ele>
        <time>2022-07-13T08:21:54Z</time>
      </trkpt>
      <trkpt lat="49.78524" lon="2.3338">
        <ele>113.3</ele>
        <time>2022-07-13T08:21:55Z</time>
      </trkpt>
      <trkpt lat="49.78525" lon="2.33378">
        <ele>113.3</ele>
        <time>2022-07-13T08:21:56Z</time>
      </trkpt>
      <trkpt lat="49.78526" lon="2.33375">
        <ele>113.3</ele>
        <time>2022-07-13T08:21:57Z</time>
      </trkpt>
      <trkpt lat="49.78526" lon="2.33374">
        <ele>113.3</ele>
        <time>2022-07-13T08:21:58Z</time>
      </trkpt>
      <trkpt lat="49.78527" lon="2.33373">
        <ele>113.3</ele>
        <time>2022-07-13T08:21:59Z</time>
      </trkpt>
      <trkpt lat="49.78528" lon="2.33371">
        <ele>113.3</ele>
        <time>2022-07-13T08:22:00Z</time>
      </trkpt>
      <trkpt lat="49.78528" lon="2.3337">
        <ele>113.3</ele>
        <time>2022-07-13T08:22:01Z</time>
      </trkpt>
      <trkpt lat="49.78529" lon="2.33369">
        <ele>113.3</ele>
        <time>2022-07-13T08:22:02Z</time>
      </trkpt>
      <trkpt lat="49.78529" lon="2.33367">
        <ele>113.4</ele>
        <time>2022-07-13T08:22:03Z</time>
      </trkpt>
      <trkpt lat="49.7853" lon="2.33365">
        <ele>113.4</ele>
        <time>2022-07-13T08:22:04Z</time>
      </trkpt>
      <trkpt lat="49.7853" lon="2.33363">
        <ele>113.4</ele>
        <time>2022-07-13T08:22:06Z</time>
      </trkpt>
      <trkpt lat="49.7853" lon="2.33361">
        <ele>113.4</ele>
        <time>2022-07-13T08:22:07Z</time>
      </trkpt>
      <trkpt lat="49.7853" lon="2.3336">
        <ele>113.4</ele>
        <time>2022-07-13T08:22:08Z</time>
      </trkpt>
      <trkpt lat="49.7853" lon="2.33358">
        <ele>113.4</ele>
        <time>2022-07-13T08:22:09Z</time>
      </trkpt>
      <trkpt lat="49.7853" lon="2.33355">
        <ele>113.4</ele>
        <time>2022-07-13T08:22:10Z</time>
      </trkpt>
      <trkpt lat="49.78531" lon="2.33353">
        <ele>113.4</ele>
        <time>2022-07-13T08:22:11Z</time>
      </trkpt>
      <trkpt lat="49.78531" lon="2.33352">
        <ele>113.5</ele>
        <time>2022-07-13T08:22:12Z</time>
      </trkpt>
      <trkpt lat="49.78531" lon="2.3335">
        <ele>113.5</ele>
        <time>2022-07-13T08:22:13Z</time>
      </trkpt>
      <trkpt lat="49.78532" lon="2.33348">
        <ele>113.5</ele>
        <time>2022-07-13T08:22:15Z</time>
      </trkpt>
      <trkpt lat="49.78533" lon="2.33346">
        <ele>113.5</ele>
        <time>2022-07-13T08:22:16Z</time>
      </trkpt>
      <trkpt lat="49.78534" lon="2.33344">
        <ele>113.5</ele>
        <time>2022-07-13T08:22:17Z</time>
      </trkpt>
      <trkpt lat="49.78534" lon="2.3334">
        <ele>113.6</ele>
        <time>2022-07-13T08:22:18Z</time>
      </trkpt>
      <trkpt lat="49.78535" lon="2.33339">
        <ele>113.6</ele>
        <time>2022-07-13T08:22:19Z</time>
      </trkpt>
      <trkpt lat="49.78535" lon="2.33337">
        <ele>113.6</ele>
        <time>2022-07-13T08:22:20Z</time>
      </trkpt>
      <trkpt lat="49.78535" lon="2.33336">
        <ele>113.6</ele>
        <time>2022-07-13T08:22:21Z</time>
      </trkpt>
      <trkpt lat="49.78536" lon="2.33335">
        <ele>113.6</ele>
        <time>2022-07-13T08:22:22Z</time>
      </trkpt>
      <trkpt lat="49.78536" lon="2.33334">
        <ele>113.6</ele>
        <time>2022-07-13T08:22:23Z</time>
      </trkpt>
      <trkpt lat="49.78536" lon="2.33333">
        <ele>113.6</ele>
        <time>2022-07-13T08:22:25Z</time>
      </trkpt>
      <trkpt lat="49.78537" lon="2.33332">
        <ele>113.6</ele>
        <time>2022-07-13T08:22:26Z</time>
      </trkpt>
      <trkpt lat="49.78537" lon="2.3333">
        <ele>113.7</ele>
        <time>2022-07-13T08:22:27Z</time>
      </trkpt>
      <trkpt lat="49.78538" lon="2.33329">
        <ele>113.7</ele>
        <time>2022-07-13T08:22:28Z</time>
      </trkpt>
      <trkpt lat="49.78538" lon="2.33328">
        <ele>113.7</ele>
        <time>2022-07-13T08:22:29Z</time>
      </trkpt>
      <trkpt lat="49.78538" lon="2.33327">
        <ele>113.7</ele>
        <time>2022-07-13T08:22:30Z</time>
      </trkpt>
      <trkpt lat="49.78539" lon="2.33325">
        <ele>113.7</ele>
        <time>2022-07-13T08:22:31Z</time>
      </trkpt>
      <trkpt lat="49.7854" lon="2.33323">
        <ele>113.7</ele>
        <time>2022-07-13T08:22:32Z</time>
      </trkpt>
      <trkpt lat="49.7854" lon="2.33322">
        <ele>113.8</ele>
        <time>2022-07-13T08:22:33Z</time>
      </trkpt>
      <trkpt lat="49.7854" lon="2.3332">
        <ele>113.8</ele>
        <time>2022-07-13T08:22:34Z</time>
      </trkpt>
      <trkpt lat="49.7854" lon="2.33317">
        <ele>113.8</ele>
        <time>2022-07-13T08:22:36Z</time>
      </trkpt>
      <trkpt lat="49.7854" lon="2.33314">
        <ele>113.8</ele>
        <time>2022-07-13T08:22:37Z</time>
      </trkpt>
      <trkpt lat="49.78541" lon="2.33312">
        <ele>113.8</ele>
        <time>2022-07-13T08:22:38Z</time>
      </trkpt>
      <trkpt lat="49.78541" lon="2.33311">
        <ele>113.9</ele>
        <time>2022-07-13T08:22:39Z</time>
      </trkpt>
      <trkpt lat="49.78541" lon="2.33309">
        <ele>113.9</ele>
        <time>2022-07-13T08:22:40Z</time>
      </trkpt>
      <trkpt lat="49.78542" lon="2.33307">
        <ele>113.9</ele>
        <time>2022-07-13T08:22:42Z</time>
      </trkpt>
      <trkpt lat="49.78543" lon="2.33305">
        <ele>113.9</ele>
        <time>2022-07-13T08:22:43Z</time>
      </trkpt>
      <trkpt lat="49.78543" lon="2.33303">
        <ele>113.9</ele>
        <time>2022-07-13T08:22:44Z</time>
      </trkpt>
      <trkpt lat="49.78544" lon="2.33301">
        <ele>113.9</ele>
        <time>2022-07-13T08:22:45Z</time>
      </trkpt>
      <trkpt lat="49.78542" lon="2.33298">
        <ele>114</ele>
        <time>2022-07-13T08:22:46Z</time>
      </trkpt>
      <trkpt lat="49.78543" lon="2.33295">
        <ele>114</ele>
        <time>2022-07-13T08:22:47Z</time>
      </trkpt>
      <trkpt lat="49.78544" lon="2.33293">
        <ele>114</ele>
        <time>2022-07-13T08:22:49Z</time>
      </trkpt>
      <trkpt lat="49.78544" lon="2.33291">
        <ele>114</ele>
        <time>2022-07-13T08:22:50Z</time>
      </trkpt>
      <trkpt lat="49.78545" lon="2.33289">
        <ele>114</ele>
        <time>2022-07-13T08:22:51Z</time>
      </trkpt>
      <trkpt lat="49.78544" lon="2.33288">
        <ele>114.1</ele>
        <time>2022-07-13T08:22:52Z</time>
      </trkpt>
      <trkpt lat="49.78545" lon="2.33286">
        <ele>114.1</ele>
        <time>2022-07-13T08:22:53Z</time>
      </trkpt>
      <trkpt lat="49.78545" lon="2.33285">
        <ele>114.1</ele>
        <time>2022-07-13T08:22:54Z</time>
      </trkpt>
      <trkpt lat="49.78545" lon="2.33284">
        <ele>114.1</ele>
        <time>2022-07-13T08:22:55Z</time>
      </trkpt>
      <trkpt lat="49.78545" lon="2.33283">
        <ele>114.1</ele>
        <time>2022-07-13T08:22:56Z</time>
      </trkpt>
      <trkpt lat="49.78545" lon="2.33282">
        <ele>114.1</ele>
        <time>2022-07-13T08:22:57Z</time>
      </trkpt>
      <trkpt lat="49.78545" lon="2.3328">
        <ele>114.1</ele>
        <time>2022-07-13T08:22:58Z</time>
      </trkpt>
      <trkpt lat="49.78546" lon="2.33278">
        <ele>114.1</ele>
        <time>2022-07-13T08:23:00Z</time>
      </trkpt>
      <trkpt lat="49.78546" lon="2.33275">
        <ele>114.1</ele>
        <time>2022-07-13T08:23:01Z</time>
      </trkpt>
      <trkpt lat="49.78546" lon="2.33273">
        <ele>114.1</ele>
        <time>2022-07-13T08:23:02Z</time>
      </trkpt>
      <trkpt lat="49.78546" lon="2.33271">
        <ele>114.1</ele>
        <time>2022-07-13T08:23:03Z</time>
      </trkpt>
      <trkpt lat="49.78545" lon="2.33269">
        <ele>114.2</ele>
        <time>2022-07-13T08:23:04Z</time>
      </trkpt>
      <trkpt lat="49.78545" lon="2.33264">
        <ele>114.2</ele>
        <time>2022-07-13T08:23:06Z</time>
      </trkpt>
      <trkpt lat="49.78545" lon="2.33262">
        <ele>114.2</ele>
        <time>2022-07-13T08:23:07Z</time>
      </trkpt>
      <trkpt lat="49.78544" lon="2.33259">
        <ele>114.2</ele>
        <time>2022-07-13T08:23:08Z</time>
      </trkpt>
      <trkpt lat="49.78544" lon="2.33257">
        <ele>114.2</ele>
        <time>2022-07-13T08:23:09Z</time>
      </trkpt>
      <trkpt lat="49.78544" lon="2.33256">
        <ele>114.2</ele>
        <time>2022-07-13T08:23:10Z</time>
      </trkpt>
      <trkpt lat="49.78549" lon="2.33253">
        <ele>114.3</ele>
        <time>2022-07-13T08:23:11Z</time>
      </trkpt>
      <trkpt lat="49.7855" lon="2.3325">
        <ele>114.3</ele>
        <time>2022-07-13T08:23:12Z</time>
      </trkpt>
      <trkpt lat="49.78551" lon="2.33248">
        <ele>114.3</ele>
        <time>2022-07-13T08:23:13Z</time>
      </trkpt>
      <trkpt lat="49.78551" lon="2.33246">
        <ele>114.3</ele>
        <time>2022-07-13T08:23:15Z</time>
      </trkpt>
      <trkpt lat="49.78552" lon="2.33244">
        <ele>114.3</ele>
        <time>2022-07-13T08:23:16Z</time>
      </trkpt>
      <trkpt lat="49.78552" lon="2.33242">
        <ele>114.3</ele>
        <time>2022-07-13T08:23:17Z</time>
      </trkpt>
      <trkpt lat="49.78553" lon="2.33239">
        <ele>114.4</ele>
        <time>2022-07-13T08:23:18Z</time>
      </trkpt>
      <trkpt lat="49.78553" lon="2.33237">
        <ele>114.4</ele>
        <time>2022-07-13T08:23:19Z</time>
      </trkpt>
      <trkpt lat="49.78553" lon="2.33236">
        <ele>114.4</ele>
        <time>2022-07-13T08:23:20Z</time>
      </trkpt>
      <trkpt lat="49.78555" lon="2.33233">
        <ele>114.4</ele>
        <time>2022-07-13T08:23:21Z</time>
      </trkpt>
      <trkpt lat="49.78555" lon="2.33233">
        <ele>114.4</ele>
        <time>2022-07-13T08:23:22Z</time>
      </trkpt>
      <trkpt lat="49.78555" lon="2.33232">
        <ele>114.4</ele>
        <time>2022-07-13T08:23:23Z</time>
      </trkpt>
      <trkpt lat="49.78555" lon="2.33231">
        <ele>114.4</ele>
        <time>2022-07-13T08:23:25Z</time>
      </trkpt>
      <trkpt lat="49.78556" lon="2.3323">
        <ele>114.4</ele>
        <time>2022-07-13T08:23:26Z</time>
      </trkpt>
      <trkpt lat="49.78557" lon="2.33229">
        <ele>114.4</ele>
        <time>2022-07-13T08:23:27Z</time>
      </trkpt>
      <trkpt lat="49.78557" lon="2.33228">
        <ele>114.5</ele>
        <time>2022-07-13T08:23:28Z</time>
      </trkpt>
      <trkpt lat="49.78558" lon="2.33226">
        <ele>114.5</ele>
        <time>2022-07-13T08:23:29Z</time>
      </trkpt>
      <trkpt lat="49.78558" lon="2.33225">
        <ele>114.5</ele>
        <time>2022-07-13T08:23:30Z</time>
      </trkpt>
      <trkpt lat="49.78558" lon="2.33223">
        <ele>114.5</ele>
        <time>2022-07-13T08:23:31Z</time>
      </trkpt>
      <trkpt lat="49.78559" lon="2.33223">
        <ele>114.5</ele>
        <time>2022-07-13T08:23:33Z</time>
      </trkpt>
      <trkpt lat="49.78559" lon="2.33221">
        <ele>114.5</ele>
        <time>2022-07-13T08:23:34Z</time>
      </trkpt>
      <trkpt lat="49.78559" lon="2.3322">
        <ele>114.5</ele>
        <time>2022-07-13T08:23:35Z</time>
      </trkpt>
      <trkpt lat="49.78559" lon="2.33218">
        <ele>114.5</ele>
        <time>2022-07-13T08:23:36Z</time>
      </trkpt>
      <trkpt lat="49.78559" lon="2.33216">
        <ele>114.6</ele>
        <time>2022-07-13T08:23:37Z</time>
      </trkpt>
      <trkpt lat="49.78559" lon="2.33214">
        <ele>114.6</ele>
        <time>2022-07-13T08:23:38Z</time>
      </trkpt>
      <trkpt lat="49.7856" lon="2.33211">
        <ele>114.6</ele>
        <time>2022-07-13T08:23:40Z</time>
      </trkpt>
      <trkpt lat="49.7856" lon="2.3321">
        <ele>114.6</ele>
        <time>2022-07-13T08:23:41Z</time>
      </trkpt>
      <trkpt lat="49.7856" lon="2.33209">
        <ele>114.6</ele>
        <time>2022-07-13T08:23:42Z</time>
      </trkpt>
      <trkpt lat="49.7856" lon="2.33207">
        <ele>114.6</ele>
        <time>2022-07-13T08:23:43Z</time>
      </trkpt>
      <trkpt lat="49.7856" lon="2.33205">
        <ele>114.8</ele>
        <time>2022-07-13T08:23:44Z</time>
      </trkpt>
      <trkpt lat="49.7856" lon="2.33203">
        <ele>114.8</ele>
        <time>2022-07-13T08:23:45Z</time>
      </trkpt>
      <trkpt lat="49.78558" lon="2.33201">
        <ele>114.8</ele>
        <time>2022-07-13T08:23:46Z</time>
      </trkpt>
      <trkpt lat="49.78557" lon="2.33199">
        <ele>114.8</ele>
        <time>2022-07-13T08:23:48Z</time>
      </trkpt>
      <trkpt lat="49.78557" lon="2.33198">
        <ele>114.8</ele>
        <time>2022-07-13T08:23:49Z</time>
      </trkpt>
      <trkpt lat="49.78557" lon="2.33197">
        <ele>114.8</ele>
        <time>2022-07-13T08:23:50Z</time>
      </trkpt>
      <trkpt lat="49.78556" lon="2.33196">
        <ele>114.8</ele>
        <time>2022-07-13T08:23:51Z</time>
      </trkpt>
      <trkpt lat="49.78556" lon="2.33195">
        <ele>114.8</ele>
        <time>2022-07-13T08:23:52Z</time>
      </trkpt>
      <trkpt lat="49.78556" lon="2.33194">
        <ele>114.8</ele>
        <time>2022-07-13T08:23:53Z</time>
      </trkpt>
      <trkpt lat="49.78555" lon="2.33192">
        <ele>114.8</ele>
        <time>2022-07-13T08:23:54Z</time>
      </trkpt>
      <trkpt lat="49.78555" lon="2.33188">
        <ele>114.8</ele>
        <time>2022-07-13T08:23:55Z</time>
      </trkpt>
      <trkpt lat="49.78554" lon="2.33186">
        <ele>114.8</ele>
        <time>2022-07-13T08:23:56Z</time>
      </trkpt>
      <trkpt lat="49.78554" lon="2.33183">
        <ele>114.9</ele>
        <time>2022-07-13T08:23:58Z</time>
      </trkpt>
      <trkpt lat="49.78554" lon="2.33182">
        <ele>114.9</ele>
        <time>2022-07-13T08:23:59Z</time>
      </trkpt>
      <trkpt lat="49.78553" lon="2.33181">
        <ele>114.9</ele>
        <time>2022-07-13T08:24:00Z</time>
      </trkpt>
      <trkpt lat="49.78553" lon="2.33179">
        <ele>114.9</ele>
        <time>2022-07-13T08:24:01Z</time>
      </trkpt>
      <trkpt lat="49.78553" lon="2.33176">
        <ele>114.9</ele>
        <time>2022-07-13T08:24:02Z</time>
      </trkpt>
      <trkpt lat="49.78553" lon="2.33175">
        <ele>114.9</ele>
        <time>2022-07-13T08:24:03Z</time>
      </trkpt>
      <trkpt lat="49.78552" lon="2.33173">
        <ele>114.9</ele>
        <time>2022-07-13T08:24:04Z</time>
      </trkpt>
      <trkpt lat="49.78552" lon="2.33171">
        <ele>114.9</ele>
        <time>2022-07-13T08:24:05Z</time>
      </trkpt>
      <trkpt lat="49.78551" lon="2.33169">
        <ele>115</ele>
        <time>2022-07-13T08:24:06Z</time>
      </trkpt>
      <trkpt lat="49.7855" lon="2.33168">
        <ele>115</ele>
        <time>2022-07-13T08:24:07Z</time>
      </trkpt>
      <trkpt lat="49.78548" lon="2.33166">
        <ele>115</ele>
        <time>2022-07-13T08:24:09Z</time>
      </trkpt>
      <trkpt lat="49.78548" lon="2.33165">
        <ele>115</ele>
        <time>2022-07-13T08:24:10Z</time>
      </trkpt>
      <trkpt lat="49.78547" lon="2.33165">
        <ele>115</ele>
        <time>2022-07-13T08:24:11Z</time>
      </trkpt>
      <trkpt lat="49.78545" lon="2.33167">
        <ele>115.1</ele>
        <time>2022-07-13T08:24:12Z</time>
      </trkpt>
      <trkpt lat="49.78544" lon="2.33168">
        <ele>115.1</ele>
        <time>2022-07-13T08:24:13Z</time>
      </trkpt>
      <trkpt lat="49.78543" lon="2.33168">
        <ele>115.1</ele>
        <time>2022-07-13T08:24:14Z</time>
      </trkpt>
      <trkpt lat="49.78542" lon="2.33168">
        <ele>115.1</ele>
        <time>2022-07-13T08:24:15Z</time>
      </trkpt>
      <trkpt lat="49.78539" lon="2.33169">
        <ele>115.2</ele>
        <time>2022-07-13T08:24:16Z</time>
      </trkpt>
      <trkpt lat="49.78538" lon="2.33169">
        <ele>115.2</ele>
        <time>2022-07-13T08:24:17Z</time>
      </trkpt>
      <trkpt lat="49.78538" lon="2.33169">
        <ele>115.2</ele>
        <time>2022-07-13T08:24:18Z</time>
      </trkpt>
      <trkpt lat="49.78537" lon="2.3317">
        <ele>115.2</ele>
        <time>2022-07-13T08:24:19Z</time>
      </trkpt>
      <trkpt lat="49.78535" lon="2.33171">
        <ele>115.2</ele>
        <time>2022-07-13T08:24:21Z</time>
      </trkpt>
      <trkpt lat="49.78533" lon="2.3317">
        <ele>115.3</ele>
        <time>2022-07-13T08:24:22Z</time>
      </trkpt>
      <trkpt lat="49.78532" lon="2.3317">
        <ele>115.3</ele>
        <time>2022-07-13T08:24:23Z</time>
      </trkpt>
      <trkpt lat="49.78531" lon="2.3317">
        <ele>115.3</ele>
        <time>2022-07-13T08:24:25Z</time>
      </trkpt>
      <trkpt lat="49.7853" lon="2.3317">
        <ele>115.3</ele>
        <time>2022-07-13T08:24:26Z</time>
      </trkpt>
      <trkpt lat="49.78529" lon="2.33171">
        <ele>115.3</ele>
        <time>2022-07-13T08:24:27Z</time>
      </trkpt>
      <trkpt lat="49.78528" lon="2.33171">
        <ele>115.4</ele>
        <time>2022-07-13T08:24:28Z</time>
      </trkpt>
      <trkpt lat="49.78526" lon="2.33171">
        <ele>115.4</ele>
        <time>2022-07-13T08:24:29Z</time>
      </trkpt>
      <trkpt lat="49.78525" lon="2.33171">
        <ele>115.4</ele>
        <time>2022-07-13T08:24:30Z</time>
      </trkpt>
      <trkpt lat="49.78524" lon="2.3317">
        <ele>115.4</ele>
        <time>2022-07-13T08:24:31Z</time>
      </trkpt>
      <trkpt lat="49.78523" lon="2.3317">
        <ele>115.4</ele>
        <time>2022-07-13T08:24:32Z</time>
      </trkpt>
      <trkpt lat="49.78522" lon="2.3317">
        <ele>115.5</ele>
        <time>2022-07-13T08:24:33Z</time>
      </trkpt>
      <trkpt lat="49.78521" lon="2.3317">
        <ele>115.5</ele>
        <time>2022-07-13T08:24:34Z</time>
      </trkpt>
      <trkpt lat="49.78518" lon="2.3317">
        <ele>115.5</ele>
        <time>2022-07-13T08:24:35Z</time>
      </trkpt>
      <trkpt lat="49.78517" lon="2.3317">
        <ele>115.5</ele>
        <time>2022-07-13T08:24:36Z</time>
      </trkpt>
      <trkpt lat="49.78515" lon="2.3317">
        <ele>115.6</ele>
        <time>2022-07-13T08:24:38Z</time>
      </trkpt>
      <trkpt lat="49.78514" lon="2.33171">
        <ele>115.6</ele>
        <time>2022-07-13T08:24:39Z</time>
      </trkpt>
      <trkpt lat="49.78513" lon="2.33171">
        <ele>115.6</ele>
        <time>2022-07-13T08:24:40Z</time>
      </trkpt>
      <trkpt lat="49.78511" lon="2.3317">
        <ele>115.6</ele>
        <time>2022-07-13T08:24:41Z</time>
      </trkpt>
      <trkpt lat="49.78511" lon="2.3317">
        <ele>115.6</ele>
        <time>2022-07-13T08:24:42Z</time>
      </trkpt>
      <trkpt lat="49.78509" lon="2.33171">
        <ele>115.6</ele>
        <time>2022-07-13T08:24:44Z</time>
      </trkpt>
      <trkpt lat="49.78508" lon="2.33171">
        <ele>115.6</ele>
        <time>2022-07-13T08:24:45Z</time>
      </trkpt>
      <trkpt lat="49.78507" lon="2.33171">
        <ele>115.7</ele>
        <time>2022-07-13T08:24:46Z</time>
      </trkpt>
      <trkpt lat="49.78506" lon="2.3317">
        <ele>115.7</ele>
        <time>2022-07-13T08:24:47Z</time>
      </trkpt>
      <trkpt lat="49.78505" lon="2.33171">
        <ele>115.7</ele>
        <time>2022-07-13T08:24:48Z</time>
      </trkpt>
      <trkpt lat="49.78504" lon="2.33171">
        <ele>115.7</ele>
        <time>2022-07-13T08:24:49Z</time>
      </trkpt>
      <trkpt lat="49.78503" lon="2.33172">
        <ele>115.7</ele>
        <time>2022-07-13T08:24:50Z</time>
      </trkpt>
      <trkpt lat="49.78502" lon="2.33172">
        <ele>115.7</ele>
        <time>2022-07-13T08:24:51Z</time>
      </trkpt>
      <trkpt lat="49.78501" lon="2.33172">
        <ele>115.7</ele>
        <time>2022-07-13T08:24:53Z</time>
      </trkpt>
      <trkpt lat="49.785" lon="2.33173">
        <ele>115.7</ele>
        <time>2022-07-13T08:24:54Z</time>
      </trkpt>
      <trkpt lat="49.78499" lon="2.33174">
        <ele>115.7</ele>
        <time>2022-07-13T08:24:55Z</time>
      </trkpt>
      <trkpt lat="49.78498" lon="2.33174">
        <ele>115.7</ele>
        <time>2022-07-13T08:24:56Z</time>
      </trkpt>
      <trkpt lat="49.78497" lon="2.33175">
        <ele>115.7</ele>
        <time>2022-07-13T08:24:57Z</time>
      </trkpt>
      <trkpt lat="49.78496" lon="2.33175">
        <ele>115.7</ele>
        <time>2022-07-13T08:24:58Z</time>
      </trkpt>
      <trkpt lat="49.78494" lon="2.33176">
        <ele>115.7</ele>
        <time>2022-07-13T08:24:59Z</time>
      </trkpt>
      <trkpt lat="49.78493" lon="2.33177">
        <ele>115.7</ele>
        <time>2022-07-13T08:25:00Z</time>
      </trkpt>
      <trkpt lat="49.78492" lon="2.33177">
        <ele>115.8</ele>
        <time>2022-07-13T08:25:01Z</time>
      </trkpt>
      <trkpt lat="49.78491" lon="2.33178">
        <ele>115.8</ele>
        <time>2022-07-13T08:25:02Z</time>
      </trkpt>
      <trkpt lat="49.78489" lon="2.33178">
        <ele>115.8</ele>
        <time>2022-07-13T08:25:03Z</time>
      </trkpt>
      <trkpt lat="49.78488" lon="2.33179">
        <ele>115.8</ele>
        <time>2022-07-13T08:25:04Z</time>
      </trkpt>
      <trkpt lat="49.78486" lon="2.33179">
        <ele>115.8</ele>
        <time>2022-07-13T08:25:05Z</time>
      </trkpt>
      <trkpt lat="49.78484" lon="2.3318">
        <ele>115.8</ele>
        <time>2022-07-13T08:25:07Z</time>
      </trkpt>
      <trkpt lat="49.78483" lon="2.33181">
        <ele>115.8</ele>
        <time>2022-07-13T08:25:08Z</time>
      </trkpt>
      <trkpt lat="49.78482" lon="2.33182">
        <ele>115.7</ele>
        <time>2022-07-13T08:25:09Z</time>
      </trkpt>
      <trkpt lat="49.7848" lon="2.33182">
        <ele>115.7</ele>
        <time>2022-07-13T08:25:10Z</time>
      </trkpt>
      <trkpt lat="49.78477" lon="2.33183">
        <ele>115.7</ele>
        <time>2022-07-13T08:25:12Z</time>
      </trkpt>
      <trkpt lat="49.78477" lon="2.33183">
        <ele>115.7</ele>
        <time>2022-07-13T08:25:13Z</time>
      </trkpt>
      <trkpt lat="49.78476" lon="2.33183">
        <ele>115.7</ele>
        <time>2022-07-13T08:25:14Z</time>
      </trkpt>
      <trkpt lat="49.78474" lon="2.33184">
        <ele>115.7</ele>
        <time>2022-07-13T08:25:15Z</time>
      </trkpt>
      <trkpt lat="49.78473" lon="2.33184">
        <ele>115.7</ele>
        <time>2022-07-13T08:25:17Z</time>
      </trkpt>
      <trkpt lat="49.78472" lon="2.33185">
        <ele>115.7</ele>
        <time>2022-07-13T08:25:18Z</time>
      </trkpt>
      <trkpt lat="49.7847" lon="2.33185">
        <ele>115.7</ele>
        <time>2022-07-13T08:25:19Z</time>
      </trkpt>
      <trkpt lat="49.78469" lon="2.33185">
        <ele>115.7</ele>
        <time>2022-07-13T08:25:20Z</time>
      </trkpt>
      <trkpt lat="49.78468" lon="2.33185">
        <ele>115.7</ele>
        <time>2022-07-13T08:25:21Z</time>
      </trkpt>
      <trkpt lat="49.78466" lon="2.33186">
        <ele>115.7</ele>
        <time>2022-07-13T08:25:22Z</time>
      </trkpt>
      <trkpt lat="49.78464" lon="2.33187">
        <ele>115.7</ele>
        <time>2022-07-13T08:25:23Z</time>
      </trkpt>
      <trkpt lat="49.78463" lon="2.33188">
        <ele>115.7</ele>
        <time>2022-07-13T08:25:25Z</time>
      </trkpt>
      <trkpt lat="49.78462" lon="2.33188">
        <ele>115.7</ele>
        <time>2022-07-13T08:25:26Z</time>
      </trkpt>
      <trkpt lat="49.78461" lon="2.33189">
        <ele>115.7</ele>
        <time>2022-07-13T08:25:27Z</time>
      </trkpt>
      <trkpt lat="49.7846" lon="2.33189">
        <ele>115.6</ele>
        <time>2022-07-13T08:25:28Z</time>
      </trkpt>
      <trkpt lat="49.78459" lon="2.3319">
        <ele>115.6</ele>
        <time>2022-07-13T08:25:30Z</time>
      </trkpt>
      <trkpt lat="49.78457" lon="2.3319">
        <ele>115.6</ele>
        <time>2022-07-13T08:25:31Z</time>
      </trkpt>
      <trkpt lat="49.78455" lon="2.33191">
        <ele>115.6</ele>
        <time>2022-07-13T08:25:32Z</time>
      </trkpt>
      <trkpt lat="49.78454" lon="2.33191">
        <ele>115.6</ele>
        <time>2022-07-13T08:25:33Z</time>
      </trkpt>
      <trkpt lat="49.78452" lon="2.33192">
        <ele>115.6</ele>
        <time>2022-07-13T08:25:34Z</time>
      </trkpt>
      <trkpt lat="49.78452" lon="2.33192">
        <ele>115.6</ele>
        <time>2022-07-13T08:25:35Z</time>
      </trkpt>
      <trkpt lat="49.78451" lon="2.33192">
        <ele>115.6</ele>
        <time>2022-07-13T08:25:36Z</time>
      </trkpt>
      <trkpt lat="49.78448" lon="2.33192">
        <ele>115.6</ele>
        <time>2022-07-13T08:25:37Z</time>
      </trkpt>
      <trkpt lat="49.78447" lon="2.33192">
        <ele>115.6</ele>
        <time>2022-07-13T08:25:39Z</time>
      </trkpt>
      <trkpt lat="49.78446" lon="2.33191">
        <ele>115.6</ele>
        <time>2022-07-13T08:25:40Z</time>
      </trkpt>
      <trkpt lat="49.78445" lon="2.33191">
        <ele>115.6</ele>
        <time>2022-07-13T08:25:41Z</time>
      </trkpt>
      <trkpt lat="49.78444" lon="2.33191">
        <ele>115.6</ele>
        <time>2022-07-13T08:25:42Z</time>
      </trkpt>
      <trkpt lat="49.78443" lon="2.33191">
        <ele>115.6</ele>
        <time>2022-07-13T08:25:43Z</time>
      </trkpt>
      <trkpt lat="49.78442" lon="2.33192">
        <ele>115.6</ele>
        <time>2022-07-13T08:25:44Z</time>
      </trkpt>
      <trkpt lat="49.7844" lon="2.33192">
        <ele>115.5</ele>
        <time>2022-07-13T08:25:45Z</time>
      </trkpt>
      <trkpt lat="49.78439" lon="2.33193">
        <ele>115.5</ele>
        <time>2022-07-13T08:25:46Z</time>
      </trkpt>
      <trkpt lat="49.78437" lon="2.33194">
        <ele>115.5</ele>
        <time>2022-07-13T08:25:47Z</time>
      </trkpt>
      <trkpt lat="49.78436" lon="2.33194">
        <ele>115.5</ele>
        <time>2022-07-13T08:25:48Z</time>
      </trkpt>
      <trkpt lat="49.78435" lon="2.33195">
        <ele>115.5</ele>
        <time>2022-07-13T08:25:49Z</time>
      </trkpt>
      <trkpt lat="49.78433" lon="2.33195">
        <ele>115.5</ele>
        <time>2022-07-13T08:25:50Z</time>
      </trkpt>
      <trkpt lat="49.78432" lon="2.33196">
        <ele>115.5</ele>
        <time>2022-07-13T08:25:51Z</time>
      </trkpt>
      <trkpt lat="49.7843" lon="2.33196">
        <ele>115.5</ele>
        <time>2022-07-13T08:25:52Z</time>
      </trkpt>
      <trkpt lat="49.78428" lon="2.33197">
        <ele>115.5</ele>
        <time>2022-07-13T08:25:54Z</time>
      </trkpt>
      <trkpt lat="49.78427" lon="2.33198">
        <ele>115.5</ele>
        <time>2022-07-13T08:25:55Z</time>
      </trkpt>
      <trkpt lat="49.78426" lon="2.33198">
        <ele>115.5</ele>
        <time>2022-07-13T08:25:56Z</time>
      </trkpt>
      <trkpt lat="49.78424" lon="2.33199">
        <ele>115.5</ele>
        <time>2022-07-13T08:25:57Z</time>
      </trkpt>
      <trkpt lat="49.78424" lon="2.332">
        <ele>115.5</ele>
        <time>2022-07-13T08:25:58Z</time>
      </trkpt>
      <trkpt lat="49.78423" lon="2.332">
        <ele>115.5</ele>
        <time>2022-07-13T08:25:59Z</time>
      </trkpt>
      <trkpt lat="49.78421" lon="2.33201">
        <ele>115.5</ele>
        <time>2022-07-13T08:26:00Z</time>
      </trkpt>
      <trkpt lat="49.7842" lon="2.33202">
        <ele>115.5</ele>
        <time>2022-07-13T08:26:02Z</time>
      </trkpt>
      <trkpt lat="49.78418" lon="2.33203">
        <ele>115.5</ele>
        <time>2022-07-13T08:26:03Z</time>
      </trkpt>
      <trkpt lat="49.78417" lon="2.33203">
        <ele>115.5</ele>
        <time>2022-07-13T08:26:04Z</time>
      </trkpt>
      <trkpt lat="49.78416" lon="2.33204">
        <ele>115.5</ele>
        <time>2022-07-13T08:26:05Z</time>
      </trkpt>
      <trkpt lat="49.78415" lon="2.33204">
        <ele>115.5</ele>
        <time>2022-07-13T08:26:06Z</time>
      </trkpt>
      <trkpt lat="49.78413" lon="2.33205">
        <ele>115.5</ele>
        <time>2022-07-13T08:26:07Z</time>
      </trkpt>
      <trkpt lat="49.78413" lon="2.33206">
        <ele>115.5</ele>
        <time>2022-07-13T08:26:08Z</time>
      </trkpt>
      <trkpt lat="49.78411" lon="2.33206">
        <ele>115.5</ele>
        <time>2022-07-13T08:26:09Z</time>
      </trkpt>
      <trkpt lat="49.7841" lon="2.33206">
        <ele>115.5</ele>
        <time>2022-07-13T08:26:10Z</time>
      </trkpt>
      <trkpt lat="49.78409" lon="2.33207">
        <ele>115.6</ele>
        <time>2022-07-13T08:26:11Z</time>
      </trkpt>
      <trkpt lat="49.78408" lon="2.33207">
        <ele>115.6</ele>
        <time>2022-07-13T08:26:12Z</time>
      </trkpt>
      <trkpt lat="49.78407" lon="2.33207">
        <ele>115.6</ele>
        <time>2022-07-13T08:26:13Z</time>
      </trkpt>
      <trkpt lat="49.78406" lon="2.33207">
        <ele>115.6</ele>
        <time>2022-07-13T08:26:14Z</time>
      </trkpt>
      <trkpt lat="49.78405" lon="2.33208">
        <ele>115.6</ele>
        <time>2022-07-13T08:26:16Z</time>
      </trkpt>
      <trkpt lat="49.78403" lon="2.33208">
        <ele>115.6</ele>
        <time>2022-07-13T08:26:17Z</time>
      </trkpt>
      <trkpt lat="49.78402" lon="2.33209">
        <ele>115.6</ele>
        <time>2022-07-13T08:26:18Z</time>
      </trkpt>
      <trkpt lat="49.78401" lon="2.33209">
        <ele>115.6</ele>
        <time>2022-07-13T08:26:19Z</time>
      </trkpt>
      <trkpt lat="49.78399" lon="2.33209">
        <ele>115.6</ele>
        <time>2022-07-13T08:26:20Z</time>
      </trkpt>
      <trkpt lat="49.78398" lon="2.3321">
        <ele>115.6</ele>
        <time>2022-07-13T08:26:21Z</time>
      </trkpt>
      <trkpt lat="49.78396" lon="2.3321">
        <ele>115.6</ele>
        <time>2022-07-13T08:26:22Z</time>
      </trkpt>
      <trkpt lat="49.78395" lon="2.33211">
        <ele>115.6</ele>
        <time>2022-07-13T08:26:24Z</time>
      </trkpt>
      <trkpt lat="49.78394" lon="2.33211">
        <ele>115.6</ele>
        <time>2022-07-13T08:26:25Z</time>
      </trkpt>
      <trkpt lat="49.78393" lon="2.33212">
        <ele>115.6</ele>
        <time>2022-07-13T08:26:26Z</time>
      </trkpt>
      <trkpt lat="49.78392" lon="2.33212">
        <ele>115.6</ele>
        <time>2022-07-13T08:26:27Z</time>
      </trkpt>
      <trkpt lat="49.78391" lon="2.33212">
        <ele>115.6</ele>
        <time>2022-07-13T08:26:28Z</time>
      </trkpt>
      <trkpt lat="49.7839" lon="2.33213">
        <ele>115.6</ele>
        <time>2022-07-13T08:26:29Z</time>
      </trkpt>
      <trkpt lat="49.78389" lon="2.33213">
        <ele>115.6</ele>
        <time>2022-07-13T08:26:30Z</time>
      </trkpt>
      <trkpt lat="49.78387" lon="2.33214">
        <ele>115.6</ele>
        <time>2022-07-13T08:26:31Z</time>
      </trkpt>
      <trkpt lat="49.78386" lon="2.33214">
        <ele>115.7</ele>
        <time>2022-07-13T08:26:32Z</time>
      </trkpt>
      <trkpt lat="49.78385" lon="2.33215">
        <ele>115.7</ele>
        <time>2022-07-13T08:26:33Z</time>
      </trkpt>
      <trkpt lat="49.78384" lon="2.33215">
        <ele>115.7</ele>
        <time>2022-07-13T08:26:34Z</time>
      </trkpt>
      <trkpt lat="49.78382" lon="2.33216">
        <ele>115.7</ele>
        <time>2022-07-13T08:26:35Z</time>
      </trkpt>
      <trkpt lat="49.78381" lon="2.33216">
        <ele>115.8</ele>
        <time>2022-07-13T08:26:36Z</time>
      </trkpt>
      <trkpt lat="49.7838" lon="2.33217">
        <ele>115.8</ele>
        <time>2022-07-13T08:26:38Z</time>
      </trkpt>
      <trkpt lat="49.78378" lon="2.33217">
        <ele>115.8</ele>
        <time>2022-07-13T08:26:39Z</time>
      </trkpt>
      <trkpt lat="49.78377" lon="2.33218">
        <ele>115.8</ele>
        <time>2022-07-13T08:26:40Z</time>
      </trkpt>
      <trkpt lat="49.78376" lon="2.33218">
        <ele>115.9</ele>
        <time>2022-07-13T08:26:41Z</time>
      </trkpt>
      <trkpt lat="49.78374" lon="2.33219">
        <ele>115.9</ele>
        <time>2022-07-13T08:26:42Z</time>
      </trkpt>
      <trkpt lat="49.78373" lon="2.33219">
        <ele>115.9</ele>
        <time>2022-07-13T08:26:44Z</time>
      </trkpt>
      <trkpt lat="49.78372" lon="2.33219">
        <ele>115.9</ele>
        <time>2022-07-13T08:26:45Z</time>
      </trkpt>
      <trkpt lat="49.78371" lon="2.33219">
        <ele>115.9</ele>
        <time>2022-07-13T08:26:46Z</time>
      </trkpt>
      <trkpt lat="49.7837" lon="2.33219">
        <ele>116</ele>
        <time>2022-07-13T08:26:47Z</time>
      </trkpt>
      <trkpt lat="49.78368" lon="2.33219">
        <ele>116</ele>
        <time>2022-07-13T08:26:48Z</time>
      </trkpt>
      <trkpt lat="49.78367" lon="2.3322">
        <ele>116</ele>
        <time>2022-07-13T08:26:49Z</time>
      </trkpt>
      <trkpt lat="49.78366" lon="2.3322">
        <ele>116</ele>
        <time>2022-07-13T08:26:50Z</time>
      </trkpt>
      <trkpt lat="49.78365" lon="2.3322">
        <ele>116.1</ele>
        <time>2022-07-13T08:26:51Z</time>
      </trkpt>
      <trkpt lat="49.78364" lon="2.3322">
        <ele>116.1</ele>
        <time>2022-07-13T08:26:52Z</time>
      </trkpt>
      <trkpt lat="49.78363" lon="2.3322">
        <ele>116.1</ele>
        <time>2022-07-13T08:26:53Z</time>
      </trkpt>
      <trkpt lat="49.78361" lon="2.33221">
        <ele>116.1</ele>
        <time>2022-07-13T08:26:54Z</time>
      </trkpt>
      <trkpt lat="49.7836" lon="2.33222">
        <ele>116.1</ele>
        <time>2022-07-13T08:26:56Z</time>
      </trkpt>
      <trkpt lat="49.78359" lon="2.33222">
        <ele>116.2</ele>
        <time>2022-07-13T08:26:57Z</time>
      </trkpt>
      <trkpt lat="49.78358" lon="2.33223">
        <ele>116.2</ele>
        <time>2022-07-13T08:26:58Z</time>
      </trkpt>
      <trkpt lat="49.78357" lon="2.33223">
        <ele>116.2</ele>
        <time>2022-07-13T08:26:59Z</time>
      </trkpt>
      <trkpt lat="49.78356" lon="2.33224">
        <ele>116.2</ele>
        <time>2022-07-13T08:27:01Z</time>
      </trkpt>
      <trkpt lat="49.78355" lon="2.33224">
        <ele>116.2</ele>
        <time>2022-07-13T08:27:02Z</time>
      </trkpt>
      <trkpt lat="49.78354" lon="2.33225">
        <ele>116.2</ele>
        <time>2022-07-13T08:27:03Z</time>
      </trkpt>
      <trkpt lat="49.78353" lon="2.33226">
        <ele>116.3</ele>
        <time>2022-07-13T08:27:04Z</time>
      </trkpt>
      <trkpt lat="49.78352" lon="2.33226">
        <ele>116.3</ele>
        <time>2022-07-13T08:27:05Z</time>
      </trkpt>
      <trkpt lat="49.78351" lon="2.33227">
        <ele>116.3</ele>
        <time>2022-07-13T08:27:06Z</time>
      </trkpt>
      <trkpt lat="49.78348" lon="2.33229">
        <ele>116.3</ele>
        <time>2022-07-13T08:27:07Z</time>
      </trkpt>
      <trkpt lat="49.78347" lon="2.33229">
        <ele>116.3</ele>
        <time>2022-07-13T08:27:09Z</time>
      </trkpt>
      <trkpt lat="49.78347" lon="2.3323">
        <ele>116.4</ele>
        <time>2022-07-13T08:27:10Z</time>
      </trkpt>
      <trkpt lat="49.78346" lon="2.3323">
        <ele>116.4</ele>
        <time>2022-07-13T08:27:11Z</time>
      </trkpt>
      <trkpt lat="49.78345" lon="2.33231">
        <ele>116.4</ele>
        <time>2022-07-13T08:27:12Z</time>
      </trkpt>
      <trkpt lat="49.78343" lon="2.33231">
        <ele>116.4</ele>
        <time>2022-07-13T08:27:13Z</time>
      </trkpt>
      <trkpt lat="49.78343" lon="2.33232">
        <ele>116.4</ele>
        <time>2022-07-13T08:27:14Z</time>
      </trkpt>
      <trkpt lat="49.78342" lon="2.33232">
        <ele>116.4</ele>
        <time>2022-07-13T08:27:15Z</time>
      </trkpt>
      <trkpt lat="49.78341" lon="2.33233">
        <ele>116.4</ele>
        <time>2022-07-13T08:27:16Z</time>
      </trkpt>
      <trkpt lat="49.78339" lon="2.33233">
        <ele>116.4</ele>
        <time>2022-07-13T08:27:17Z</time>
      </trkpt>
      <trkpt lat="49.78338" lon="2.33233">
        <ele>116.5</ele>
        <time>2022-07-13T08:27:19Z</time>
      </trkpt>
      <trkpt lat="49.78337" lon="2.33234">
        <ele>116.5</ele>
        <time>2022-07-13T08:27:20Z</time>
      </trkpt>
      <trkpt lat="49.78335" lon="2.33235">
        <ele>116.5</ele>
        <time>2022-07-13T08:27:21Z</time>
      </trkpt>
      <trkpt lat="49.78333" lon="2.33235">
        <ele>116.5</ele>
        <time>2022-07-13T08:27:22Z</time>
      </trkpt>
      <trkpt lat="49.78332" lon="2.33235">
        <ele>116.5</ele>
        <time>2022-07-13T08:27:23Z</time>
      </trkpt>
      <trkpt lat="49.7833" lon="2.33235">
        <ele>116.5</ele>
        <time>2022-07-13T08:27:24Z</time>
      </trkpt>
      <trkpt lat="49.78329" lon="2.33235">
        <ele>116.5</ele>
        <time>2022-07-13T08:27:26Z</time>
      </trkpt>
      <trkpt lat="49.78328" lon="2.33235">
        <ele>116.5</ele>
        <time>2022-07-13T08:27:27Z</time>
      </trkpt>
      <trkpt lat="49.78327" lon="2.33235">
        <ele>116.5</ele>
        <time>2022-07-13T08:27:28Z</time>
      </trkpt>
      <trkpt lat="49.78326" lon="2.33236">
        <ele>116.5</ele>
        <time>2022-07-13T08:27:29Z</time>
      </trkpt>
      <trkpt lat="49.78325" lon="2.33236">
        <ele>116.5</ele>
        <time>2022-07-13T08:27:30Z</time>
      </trkpt>
      <trkpt lat="49.78323" lon="2.33236">
        <ele>116.5</ele>
        <time>2022-07-13T08:27:31Z</time>
      </trkpt>
      <trkpt lat="49.78322" lon="2.33237">
        <ele>116.6</ele>
        <time>2022-07-13T08:27:32Z</time>
      </trkpt>
      <trkpt lat="49.78321" lon="2.33237">
        <ele>116.6</ele>
        <time>2022-07-13T08:27:33Z</time>
      </trkpt>
      <trkpt lat="49.7832" lon="2.33237">
        <ele>116.6</ele>
        <time>2022-07-13T08:27:34Z</time>
      </trkpt>
      <trkpt lat="49.78319" lon="2.33237">
        <ele>116.6</ele>
        <time>2022-07-13T08:27:35Z</time>
      </trkpt>
      <trkpt lat="49.78317" lon="2.33238">
        <ele>116.6</ele>
        <time>2022-07-13T08:27:37Z</time>
      </trkpt>
      <trkpt lat="49.78316" lon="2.33238">
        <ele>116.6</ele>
        <time>2022-07-13T08:27:38Z</time>
      </trkpt>
      <trkpt lat="49.78315" lon="2.33238">
        <ele>116.6</ele>
        <time>2022-07-13T08:27:39Z</time>
      </trkpt>
      <trkpt lat="49.78314" lon="2.33239">
        <ele>116.6</ele>
        <time>2022-07-13T08:27:40Z</time>
      </trkpt>
      <trkpt lat="49.78313" lon="2.33239">
        <ele>116.6</ele>
        <time>2022-07-13T08:27:41Z</time>
      </trkpt>
      <trkpt lat="49.78312" lon="2.3324">
        <ele>116.6</ele>
        <time>2022-07-13T08:27:42Z</time>
      </trkpt>
      <trkpt lat="49.7831" lon="2.3324">
        <ele>116.5</ele>
        <time>2022-07-13T08:27:43Z</time>
      </trkpt>
      <trkpt lat="49.7831" lon="2.33241">
        <ele>116.5</ele>
        <time>2022-07-13T08:27:44Z</time>
      </trkpt>
      <trkpt lat="49.78308" lon="2.33241">
        <ele>116.5</ele>
        <time>2022-07-13T08:27:45Z</time>
      </trkpt>
      <trkpt lat="49.78307" lon="2.33242">
        <ele>116.5</ele>
        <time>2022-07-13T08:27:47Z</time>
      </trkpt>
      <trkpt lat="49.78306" lon="2.33243">
        <ele>116.5</ele>
        <time>2022-07-13T08:27:48Z</time>
      </trkpt>
      <trkpt lat="49.78305" lon="2.33243">
        <ele>116.5</ele>
        <time>2022-07-13T08:27:49Z</time>
      </trkpt>
      <trkpt lat="49.78304" lon="2.33243">
        <ele>116.5</ele>
        <time>2022-07-13T08:27:50Z</time>
      </trkpt>
      <trkpt lat="49.78303" lon="2.33244">
        <ele>116.5</ele>
        <time>2022-07-13T08:27:51Z</time>
      </trkpt>
      <trkpt lat="49.78302" lon="2.33245">
        <ele>116.5</ele>
        <time>2022-07-13T08:27:52Z</time>
      </trkpt>
      <trkpt lat="49.783" lon="2.33247">
        <ele>116.5</ele>
        <time>2022-07-13T08:27:53Z</time>
      </trkpt>
      <trkpt lat="49.78299" lon="2.33247">
        <ele>116.5</ele>
        <time>2022-07-13T08:27:54Z</time>
      </trkpt>
      <trkpt lat="49.78299" lon="2.33248">
        <ele>116.5</ele>
        <time>2022-07-13T08:27:55Z</time>
      </trkpt>
      <trkpt lat="49.78298" lon="2.33248">
        <ele>116.5</ele>
        <time>2022-07-13T08:27:56Z</time>
      </trkpt>
      <trkpt lat="49.78296" lon="2.33249">
        <ele>116.5</ele>
        <time>2022-07-13T08:27:57Z</time>
      </trkpt>
      <trkpt lat="49.78294" lon="2.33251">
        <ele>116.4</ele>
        <time>2022-07-13T08:27:59Z</time>
      </trkpt>
      <trkpt lat="49.78294" lon="2.33251">
        <ele>116.4</ele>
        <time>2022-07-13T08:28:00Z</time>
      </trkpt>
      <trkpt lat="49.78293" lon="2.33252">
        <ele>116.4</ele>
        <time>2022-07-13T08:28:01Z</time>
      </trkpt>
      <trkpt lat="49.78292" lon="2.33252">
        <ele>116.4</ele>
        <time>2022-07-13T08:28:02Z</time>
      </trkpt>
      <trkpt lat="49.7829" lon="2.33253">
        <ele>116.4</ele>
        <time>2022-07-13T08:28:03Z</time>
      </trkpt>
      <trkpt lat="49.78289" lon="2.33254">
        <ele>116.4</ele>
        <time>2022-07-13T08:28:04Z</time>
      </trkpt>
      <trkpt lat="49.78288" lon="2.33254">
        <ele>116.4</ele>
        <time>2022-07-13T08:28:05Z</time>
      </trkpt>
      <trkpt lat="49.78287" lon="2.33255">
        <ele>116.4</ele>
        <time>2022-07-13T08:28:06Z</time>
      </trkpt>
      <trkpt lat="49.78287" lon="2.33256">
        <ele>116.3</ele>
        <time>2022-07-13T08:28:07Z</time>
      </trkpt>
      <trkpt lat="49.78285" lon="2.33257">
        <ele>116.3</ele>
        <time>2022-07-13T08:28:08Z</time>
      </trkpt>
      <trkpt lat="49.78284" lon="2.33258">
        <ele>116.3</ele>
        <time>2022-07-13T08:28:10Z</time>
      </trkpt>
      <trkpt lat="49.78283" lon="2.33259">
        <ele>116.3</ele>
        <time>2022-07-13T08:28:11Z</time>
      </trkpt>
      <trkpt lat="49.78281" lon="2.3326">
        <ele>116.2</ele>
        <time>2022-07-13T08:28:12Z</time>
      </trkpt>
      <trkpt lat="49.78279" lon="2.33261">
        <ele>116.2</ele>
        <time>2022-07-13T08:28:13Z</time>
      </trkpt>
      <trkpt lat="49.78278" lon="2.33261">
        <ele>116.2</ele>
        <time>2022-07-13T08:28:14Z</time>
      </trkpt>
      <trkpt lat="49.78278" lon="2.33262">
        <ele>116.2</ele>
        <time>2022-07-13T08:28:15Z</time>
      </trkpt>
      <trkpt lat="49.78276" lon="2.33263">
        <ele>116.1</ele>
        <time>2022-07-13T08:28:17Z</time>
      </trkpt>
      <trkpt lat="49.78274" lon="2.33264">
        <ele>116.1</ele>
        <time>2022-07-13T08:28:18Z</time>
      </trkpt>
      <trkpt lat="49.78273" lon="2.33264">
        <ele>116.1</ele>
        <time>2022-07-13T08:28:19Z</time>
      </trkpt>
      <trkpt lat="49.78272" lon="2.33265">
        <ele>116.1</ele>
        <time>2022-07-13T08:28:20Z</time>
      </trkpt>
      <trkpt lat="49.78271" lon="2.33265">
        <ele>116</ele>
        <time>2022-07-13T08:28:21Z</time>
      </trkpt>
      <trkpt lat="49.7827" lon="2.33267">
        <ele>116</ele>
        <time>2022-07-13T08:28:22Z</time>
      </trkpt>
      <trkpt lat="49.78268" lon="2.33268">
        <ele>116</ele>
        <time>2022-07-13T08:28:23Z</time>
      </trkpt>
      <trkpt lat="49.78266" lon="2.3327">
        <ele>115.9</ele>
        <time>2022-07-13T08:28:25Z</time>
      </trkpt>
      <trkpt lat="49.78266" lon="2.33271">
        <ele>115.9</ele>
        <time>2022-07-13T08:28:26Z</time>
      </trkpt>
      <trkpt lat="49.78265" lon="2.33272">
        <ele>115.9</ele>
        <time>2022-07-13T08:28:27Z</time>
      </trkpt>
      <trkpt lat="49.78264" lon="2.33274">
        <ele>115.9</ele>
        <time>2022-07-13T08:28:28Z</time>
      </trkpt>
      <trkpt lat="49.78263" lon="2.33275">
        <ele>115.8</ele>
        <time>2022-07-13T08:28:29Z</time>
      </trkpt>
      <trkpt lat="49.78262" lon="2.33276">
        <ele>115.8</ele>
        <time>2022-07-13T08:28:31Z</time>
      </trkpt>
      <trkpt lat="49.78261" lon="2.33277">
        <ele>115.8</ele>
        <time>2022-07-13T08:28:32Z</time>
      </trkpt>
      <trkpt lat="49.7826" lon="2.33279">
        <ele>115.7</ele>
        <time>2022-07-13T08:28:33Z</time>
      </trkpt>
      <trkpt lat="49.78258" lon="2.3328">
        <ele>115.7</ele>
        <time>2022-07-13T08:28:34Z</time>
      </trkpt>
      <trkpt lat="49.78257" lon="2.33282">
        <ele>115.7</ele>
        <time>2022-07-13T08:28:35Z</time>
      </trkpt>
      <trkpt lat="49.78256" lon="2.33283">
        <ele>115.6</ele>
        <time>2022-07-13T08:28:36Z</time>
      </trkpt>
      <trkpt lat="49.78255" lon="2.33284">
        <ele>115.6</ele>
        <time>2022-07-13T08:28:38Z</time>
      </trkpt>
      <trkpt lat="49.78253" lon="2.33285">
        <ele>115.5</ele>
        <time>2022-07-13T08:28:39Z</time>
      </trkpt>
      <trkpt lat="49.78252" lon="2.33286">
        <ele>115.5</ele>
        <time>2022-07-13T08:28:40Z</time>
      </trkpt>
      <trkpt lat="49.7825" lon="2.33288">
        <ele>115.5</ele>
        <time>2022-07-13T08:28:41Z</time>
      </trkpt>
      <trkpt lat="49.78249" lon="2.33289">
        <ele>115.4</ele>
        <time>2022-07-13T08:28:42Z</time>
      </trkpt>
      <trkpt lat="49.78248" lon="2.3329">
        <ele>115.4</ele>
        <time>2022-07-13T08:28:43Z</time>
      </trkpt>
      <trkpt lat="49.78247" lon="2.33291">
        <ele>115.4</ele>
        <time>2022-07-13T08:28:44Z</time>
      </trkpt>
      <trkpt lat="49.78246" lon="2.33292">
        <ele>115.3</ele>
        <time>2022-07-13T08:28:46Z</time>
      </trkpt>
      <trkpt lat="49.78245" lon="2.33293">
        <ele>115.3</ele>
        <time>2022-07-13T08:28:47Z</time>
      </trkpt>
      <trkpt lat="49.78244" lon="2.33294">
        <ele>115.3</ele>
        <time>2022-07-13T08:28:48Z</time>
      </trkpt>
      <trkpt lat="49.78242" lon="2.33295">
        <ele>115.3</ele>
        <time>2022-07-13T08:28:49Z</time>
      </trkpt>
      <trkpt lat="49.7824" lon="2.33296">
        <ele>115.2</ele>
        <time>2022-07-13T08:28:50Z</time>
      </trkpt>
      <trkpt lat="49.78239" lon="2.33297">
        <ele>115.2</ele>
        <time>2022-07-13T08:28:51Z</time>
      </trkpt>
      <trkpt lat="49.78238" lon="2.33297">
        <ele>115.2</ele>
        <time>2022-07-13T08:28:52Z</time>
      </trkpt>
      <trkpt lat="49.78237" lon="2.33299">
        <ele>115.1</ele>
        <time>2022-07-13T08:28:54Z</time>
      </trkpt>
      <trkpt lat="49.78235" lon="2.333">
        <ele>115.1</ele>
        <time>2022-07-13T08:28:55Z</time>
      </trkpt>
      <trkpt lat="49.78234" lon="2.33302">
        <ele>115.1</ele>
        <time>2022-07-13T08:28:56Z</time>
      </trkpt>
      <trkpt lat="49.78233" lon="2.33302">
        <ele>115.1</ele>
        <time>2022-07-13T08:28:57Z</time>
      </trkpt>
      <trkpt lat="49.78232" lon="2.33303">
        <ele>115.1</ele>
        <time>2022-07-13T08:28:58Z</time>
      </trkpt>
      <trkpt lat="49.78231" lon="2.33304">
        <ele>115</ele>
        <time>2022-07-13T08:28:59Z</time>
      </trkpt>
      <trkpt lat="49.7823" lon="2.33305">
        <ele>115</ele>
        <time>2022-07-13T08:29:00Z</time>
      </trkpt>
      <trkpt lat="49.78229" lon="2.33306">
        <ele>115</ele>
        <time>2022-07-13T08:29:01Z</time>
      </trkpt>
      <trkpt lat="49.78228" lon="2.33307">
        <ele>115</ele>
        <time>2022-07-13T08:29:02Z</time>
      </trkpt>
      <trkpt lat="49.78227" lon="2.33308">
        <ele>115</ele>
        <time>2022-07-13T08:29:03Z</time>
      </trkpt>
      <trkpt lat="49.78225" lon="2.33309">
        <ele>114.9</ele>
        <time>2022-07-13T08:29:04Z</time>
      </trkpt>
      <trkpt lat="49.78224" lon="2.3331">
        <ele>114.9</ele>
        <time>2022-07-13T08:29:05Z</time>
      </trkpt>
      <trkpt lat="49.78223" lon="2.33311">
        <ele>114.9</ele>
        <time>2022-07-13T08:29:06Z</time>
      </trkpt>
      <trkpt lat="49.78222" lon="2.33312">
        <ele>114.9</ele>
        <time>2022-07-13T08:29:07Z</time>
      </trkpt>
      <trkpt lat="49.7822" lon="2.33313">
        <ele>114.9</ele>
        <time>2022-07-13T08:29:09Z</time>
      </trkpt>
      <trkpt lat="49.78219" lon="2.33314">
        <ele>114.9</ele>
        <time>2022-07-13T08:29:10Z</time>
      </trkpt>
      <trkpt lat="49.78218" lon="2.33315">
        <ele>114.8</ele>
        <time>2022-07-13T08:29:11Z</time>
      </trkpt>
      <trkpt lat="49.78217" lon="2.33316">
        <ele>114.8</ele>
        <time>2022-07-13T08:29:12Z</time>
      </trkpt>
      <trkpt lat="49.78216" lon="2.33317">
        <ele>114.8</ele>
        <time>2022-07-13T08:29:13Z</time>
      </trkpt>
      <trkpt lat="49.78215" lon="2.33318">
        <ele>114.8</ele>
        <time>2022-07-13T08:29:14Z</time>
      </trkpt>
      <trkpt lat="49.78214" lon="2.33319">
        <ele>114.8</ele>
        <time>2022-07-13T08:29:15Z</time>
      </trkpt>
      <trkpt lat="49.78213" lon="2.3332">
        <ele>114.8</ele>
        <time>2022-07-13T08:29:16Z</time>
      </trkpt>
      <trkpt lat="49.78212" lon="2.33321">
        <ele>114.8</ele>
        <time>2022-07-13T08:29:17Z</time>
      </trkpt>
      <trkpt lat="49.7821" lon="2.33322">
        <ele>114.8</ele>
        <time>2022-07-13T08:29:18Z</time>
      </trkpt>
      <trkpt lat="49.78208" lon="2.33323">
        <ele>114.7</ele>
        <time>2022-07-13T08:29:19Z</time>
      </trkpt>
      <trkpt lat="49.78208" lon="2.33324">
        <ele>114.7</ele>
        <time>2022-07-13T08:29:21Z</time>
      </trkpt>
      <trkpt lat="49.78207" lon="2.33324">
        <ele>114.7</ele>
        <time>2022-07-13T08:29:22Z</time>
      </trkpt>
      <trkpt lat="49.78204" lon="2.33326">
        <ele>114.7</ele>
        <time>2022-07-13T08:29:23Z</time>
      </trkpt>
      <trkpt lat="49.78203" lon="2.33326">
        <ele>114.7</ele>
        <time>2022-07-13T08:29:24Z</time>
      </trkpt>
      <trkpt lat="49.78202" lon="2.33326">
        <ele>114.7</ele>
        <time>2022-07-13T08:29:25Z</time>
      </trkpt>
      <trkpt lat="49.78201" lon="2.33327">
        <ele>114.7</ele>
        <time>2022-07-13T08:29:26Z</time>
      </trkpt>
      <trkpt lat="49.782" lon="2.33328">
        <ele>114.7</ele>
        <time>2022-07-13T08:29:27Z</time>
      </trkpt>
      <trkpt lat="49.78197" lon="2.33329">
        <ele>114.6</ele>
        <time>2022-07-13T08:29:29Z</time>
      </trkpt>
      <trkpt lat="49.78197" lon="2.3333">
        <ele>114.6</ele>
        <time>2022-07-13T08:29:30Z</time>
      </trkpt>
      <trkpt lat="49.78195" lon="2.33331">
        <ele>114.6</ele>
        <time>2022-07-13T08:29:31Z</time>
      </trkpt>
      <trkpt lat="49.78194" lon="2.33331">
        <ele>114.6</ele>
        <time>2022-07-13T08:29:32Z</time>
      </trkpt>
      <trkpt lat="49.78193" lon="2.33332">
        <ele>114.6</ele>
        <time>2022-07-13T08:29:33Z</time>
      </trkpt>
      <trkpt lat="49.78192" lon="2.33333">
        <ele>114.6</ele>
        <time>2022-07-13T08:29:34Z</time>
      </trkpt>
      <trkpt lat="49.78191" lon="2.33334">
        <ele>114.6</ele>
        <time>2022-07-13T08:29:35Z</time>
      </trkpt>
      <trkpt lat="49.78188" lon="2.33335">
        <ele>114.6</ele>
        <time>2022-07-13T08:29:36Z</time>
      </trkpt>
      <trkpt lat="49.78187" lon="2.33336">
        <ele>114.6</ele>
        <time>2022-07-13T08:29:38Z</time>
      </trkpt>
      <trkpt lat="49.78186" lon="2.33337">
        <ele>114.6</ele>
        <time>2022-07-13T08:29:39Z</time>
      </trkpt>
      <trkpt lat="49.78185" lon="2.33337">
        <ele>114.6</ele>
        <time>2022-07-13T08:29:40Z</time>
      </trkpt>
      <trkpt lat="49.78184" lon="2.33338">
        <ele>114.6</ele>
        <time>2022-07-13T08:29:41Z</time>
      </trkpt>
      <trkpt lat="49.78183" lon="2.33339">
        <ele>114.6</ele>
        <time>2022-07-13T08:29:42Z</time>
      </trkpt>
      <trkpt lat="49.78182" lon="2.3334">
        <ele>114.5</ele>
        <time>2022-07-13T08:29:43Z</time>
      </trkpt>
      <trkpt lat="49.78179" lon="2.33341">
        <ele>114.5</ele>
        <time>2022-07-13T08:29:44Z</time>
      </trkpt>
      <trkpt lat="49.78179" lon="2.33341">
        <ele>114.5</ele>
        <time>2022-07-13T08:29:45Z</time>
      </trkpt>
      <trkpt lat="49.78178" lon="2.33341">
        <ele>114.5</ele>
        <time>2022-07-13T08:29:46Z</time>
      </trkpt>
      <trkpt lat="49.78177" lon="2.33342">
        <ele>114.5</ele>
        <time>2022-07-13T08:29:48Z</time>
      </trkpt>
      <trkpt lat="49.78175" lon="2.33343">
        <ele>114.5</ele>
        <time>2022-07-13T08:29:49Z</time>
      </trkpt>
      <trkpt lat="49.78174" lon="2.33343">
        <ele>114.5</ele>
        <time>2022-07-13T08:29:50Z</time>
      </trkpt>
      <trkpt lat="49.78173" lon="2.33344">
        <ele>114.6</ele>
        <time>2022-07-13T08:29:51Z</time>
      </trkpt>
      <trkpt lat="49.78172" lon="2.33345">
        <ele>114.6</ele>
        <time>2022-07-13T08:29:52Z</time>
      </trkpt>
      <trkpt lat="49.7817" lon="2.33346">
        <ele>114.6</ele>
        <time>2022-07-13T08:29:53Z</time>
      </trkpt>
      <trkpt lat="49.78169" lon="2.33347">
        <ele>114.6</ele>
        <time>2022-07-13T08:29:55Z</time>
      </trkpt>
      <trkpt lat="49.78168" lon="2.33348">
        <ele>114.6</ele>
        <time>2022-07-13T08:29:56Z</time>
      </trkpt>
      <trkpt lat="49.78167" lon="2.33349">
        <ele>114.6</ele>
        <time>2022-07-13T08:29:57Z</time>
      </trkpt>
      <trkpt lat="49.78166" lon="2.3335">
        <ele>114.6</ele>
        <time>2022-07-13T08:29:58Z</time>
      </trkpt>
      <trkpt lat="49.78164" lon="2.33351">
        <ele>114.6</ele>
        <time>2022-07-13T08:29:59Z</time>
      </trkpt>
      <trkpt lat="49.78163" lon="2.33352">
        <ele>114.6</ele>
        <time>2022-07-13T08:30:00Z</time>
      </trkpt>
      <trkpt lat="49.78162" lon="2.33352">
        <ele>114.6</ele>
        <time>2022-07-13T08:30:01Z</time>
      </trkpt>
      <trkpt lat="49.78161" lon="2.33353">
        <ele>114.7</ele>
        <time>2022-07-13T08:30:02Z</time>
      </trkpt>
      <trkpt lat="49.7816" lon="2.33354">
        <ele>114.7</ele>
        <time>2022-07-13T08:30:04Z</time>
      </trkpt>
      <trkpt lat="49.78159" lon="2.33356">
        <ele>114.7</ele>
        <time>2022-07-13T08:30:05Z</time>
      </trkpt>
      <trkpt lat="49.78158" lon="2.33357">
        <ele>114.7</ele>
        <time>2022-07-13T08:30:06Z</time>
      </trkpt>
      <trkpt lat="49.78156" lon="2.33358">
        <ele>114.7</ele>
        <time>2022-07-13T08:30:07Z</time>
      </trkpt>
      <trkpt lat="49.78155" lon="2.33359">
        <ele>114.7</ele>
        <time>2022-07-13T08:30:08Z</time>
      </trkpt>
      <trkpt lat="49.78155" lon="2.3336">
        <ele>114.7</ele>
        <time>2022-07-13T08:30:09Z</time>
      </trkpt>
      <trkpt lat="49.78154" lon="2.33361">
        <ele>114.8</ele>
        <time>2022-07-13T08:30:10Z</time>
      </trkpt>
      <trkpt lat="49.78153" lon="2.33362">
        <ele>114.8</ele>
        <time>2022-07-13T08:30:11Z</time>
      </trkpt>
      <trkpt lat="49.78152" lon="2.33363">
        <ele>114.8</ele>
        <time>2022-07-13T08:30:13Z</time>
      </trkpt>
      <trkpt lat="49.7815" lon="2.33364">
        <ele>114.8</ele>
        <time>2022-07-13T08:30:14Z</time>
      </trkpt>
      <trkpt lat="49.78149" lon="2.33365">
        <ele>114.8</ele>
        <time>2022-07-13T08:30:15Z</time>
      </trkpt>
      <trkpt lat="49.78148" lon="2.33365">
        <ele>114.8</ele>
        <time>2022-07-13T08:30:16Z</time>
      </trkpt>
      <trkpt lat="49.78147" lon="2.33366">
        <ele>114.8</ele>
        <time>2022-07-13T08:30:17Z</time>
      </trkpt>
      <trkpt lat="49.78146" lon="2.33367">
        <ele>114.9</ele>
        <time>2022-07-13T08:30:18Z</time>
      </trkpt>
      <trkpt lat="49.78144" lon="2.33368">
        <ele>114.9</ele>
        <time>2022-07-13T08:30:20Z</time>
      </trkpt>
      <trkpt lat="49.78143" lon="2.33368">
        <ele>114.9</ele>
        <time>2022-07-13T08:30:21Z</time>
      </trkpt>
      <trkpt lat="49.78143" lon="2.33369">
        <ele>114.9</ele>
        <time>2022-07-13T08:30:22Z</time>
      </trkpt>
      <trkpt lat="49.78142" lon="2.3337">
        <ele>114.9</ele>
        <time>2022-07-13T08:30:23Z</time>
      </trkpt>
      <trkpt lat="49.7814" lon="2.33371">
        <ele>114.9</ele>
        <time>2022-07-13T08:30:24Z</time>
      </trkpt>
      <trkpt lat="49.7814" lon="2.33371">
        <ele>114.9</ele>
        <time>2022-07-13T08:30:25Z</time>
      </trkpt>
      <trkpt lat="49.78139" lon="2.33371">
        <ele>114.9</ele>
        <time>2022-07-13T08:30:26Z</time>
      </trkpt>
      <trkpt lat="49.78138" lon="2.33372">
        <ele>114.9</ele>
        <time>2022-07-13T08:30:27Z</time>
      </trkpt>
      <trkpt lat="49.78137" lon="2.33373">
        <ele>115</ele>
        <time>2022-07-13T08:30:28Z</time>
      </trkpt>
      <trkpt lat="49.78135" lon="2.33374">
        <ele>115</ele>
        <time>2022-07-13T08:30:29Z</time>
      </trkpt>
      <trkpt lat="49.78134" lon="2.33375">
        <ele>115</ele>
        <time>2022-07-13T08:30:30Z</time>
      </trkpt>
      <trkpt lat="49.78133" lon="2.33377">
        <ele>115</ele>
        <time>2022-07-13T08:30:31Z</time>
      </trkpt>
      <trkpt lat="49.78132" lon="2.33378">
        <ele>115</ele>
        <time>2022-07-13T08:30:32Z</time>
      </trkpt>
      <trkpt lat="49.78132" lon="2.33379">
        <ele>115</ele>
        <time>2022-07-13T08:30:33Z</time>
      </trkpt>
      <trkpt lat="49.7813" lon="2.3338">
        <ele>115.1</ele>
        <time>2022-07-13T08:30:35Z</time>
      </trkpt>
      <trkpt lat="49.78129" lon="2.33381">
        <ele>115.1</ele>
        <time>2022-07-13T08:30:36Z</time>
      </trkpt>
      <trkpt lat="49.78128" lon="2.33384">
        <ele>115.1</ele>
        <time>2022-07-13T08:30:37Z</time>
      </trkpt>
      <trkpt lat="49.78127" lon="2.33385">
        <ele>115.1</ele>
        <time>2022-07-13T08:30:38Z</time>
      </trkpt>
      <trkpt lat="49.78127" lon="2.33386">
        <ele>115.1</ele>
        <time>2022-07-13T08:30:39Z</time>
      </trkpt>
      <trkpt lat="49.78126" lon="2.33387">
        <ele>115.1</ele>
        <time>2022-07-13T08:30:40Z</time>
      </trkpt>
      <trkpt lat="49.78125" lon="2.33388">
        <ele>115.2</ele>
        <time>2022-07-13T08:30:41Z</time>
      </trkpt>
      <trkpt lat="49.78124" lon="2.33389">
        <ele>115.2</ele>
        <time>2022-07-13T08:30:43Z</time>
      </trkpt>
      <trkpt lat="49.78122" lon="2.33391">
        <ele>115.2</ele>
        <time>2022-07-13T08:30:44Z</time>
      </trkpt>
      <trkpt lat="49.78121" lon="2.33392">
        <ele>115.2</ele>
        <time>2022-07-13T08:30:45Z</time>
      </trkpt>
      <trkpt lat="49.78119" lon="2.33393">
        <ele>115.3</ele>
        <time>2022-07-13T08:30:46Z</time>
      </trkpt>
      <trkpt lat="49.78118" lon="2.33394">
        <ele>115.3</ele>
        <time>2022-07-13T08:30:47Z</time>
      </trkpt>
      <trkpt lat="49.78117" lon="2.33394">
        <ele>115.3</ele>
        <time>2022-07-13T08:30:48Z</time>
      </trkpt>
      <trkpt lat="49.78116" lon="2.33395">
        <ele>115.3</ele>
        <time>2022-07-13T08:30:50Z</time>
      </trkpt>
      <trkpt lat="49.78115" lon="2.33396">
        <ele>115.4</ele>
        <time>2022-07-13T08:30:51Z</time>
      </trkpt>
      <trkpt lat="49.78113" lon="2.33398">
        <ele>115.4</ele>
        <time>2022-07-13T08:30:52Z</time>
      </trkpt>
      <trkpt lat="49.78112" lon="2.33398">
        <ele>115.4</ele>
        <time>2022-07-13T08:30:53Z</time>
      </trkpt>
      <trkpt lat="49.78111" lon="2.33399">
        <ele>115.4</ele>
        <time>2022-07-13T08:30:54Z</time>
      </trkpt>
      <trkpt lat="49.7811" lon="2.334">
        <ele>115.4</ele>
        <time>2022-07-13T08:30:55Z</time>
      </trkpt>
      <trkpt lat="49.78109" lon="2.33401">
        <ele>115.5</ele>
        <time>2022-07-13T08:30:56Z</time>
      </trkpt>
      <trkpt lat="49.78108" lon="2.33401">
        <ele>115.5</ele>
        <time>2022-07-13T08:30:57Z</time>
      </trkpt>
      <trkpt lat="49.78107" lon="2.33402">
        <ele>115.5</ele>
        <time>2022-07-13T08:30:58Z</time>
      </trkpt>
      <trkpt lat="49.78106" lon="2.33404">
        <ele>115.6</ele>
        <time>2022-07-13T08:30:59Z</time>
      </trkpt>
      <trkpt lat="49.78104" lon="2.33405">
        <ele>115.6</ele>
        <time>2022-07-13T08:31:00Z</time>
      </trkpt>
      <trkpt lat="49.78103" lon="2.33405">
        <ele>115.6</ele>
        <time>2022-07-13T08:31:01Z</time>
      </trkpt>
      <trkpt lat="49.78103" lon="2.33406">
        <ele>115.6</ele>
        <time>2022-07-13T08:31:02Z</time>
      </trkpt>
      <trkpt lat="49.78102" lon="2.33406">
        <ele>115.6</ele>
        <time>2022-07-13T08:31:03Z</time>
      </trkpt>
      <trkpt lat="49.781" lon="2.33407">
        <ele>115.7</ele>
        <time>2022-07-13T08:31:05Z</time>
      </trkpt>
      <trkpt lat="49.78099" lon="2.33408">
        <ele>115.7</ele>
        <time>2022-07-13T08:31:06Z</time>
      </trkpt>
      <trkpt lat="49.78097" lon="2.33409">
        <ele>115.7</ele>
        <time>2022-07-13T08:31:07Z</time>
      </trkpt>
      <trkpt lat="49.78097" lon="2.3341">
        <ele>115.8</ele>
        <time>2022-07-13T08:31:08Z</time>
      </trkpt>
      <trkpt lat="49.78096" lon="2.3341">
        <ele>115.8</ele>
        <time>2022-07-13T08:31:09Z</time>
      </trkpt>
      <trkpt lat="49.78094" lon="2.33411">
        <ele>115.8</ele>
        <time>2022-07-13T08:31:10Z</time>
      </trkpt>
      <trkpt lat="49.78093" lon="2.33412">
        <ele>115.8</ele>
        <time>2022-07-13T08:31:11Z</time>
      </trkpt>
      <trkpt lat="49.78092" lon="2.33412">
        <ele>115.8</ele>
        <time>2022-07-13T08:31:12Z</time>
      </trkpt>
      <trkpt lat="49.78091" lon="2.33413">
        <ele>115.9</ele>
        <time>2022-07-13T08:31:13Z</time>
      </trkpt>
      <trkpt lat="49.7809" lon="2.33414">
        <ele>115.9</ele>
        <time>2022-07-13T08:31:14Z</time>
      </trkpt>
      <trkpt lat="49.78089" lon="2.33414">
        <ele>115.9</ele>
        <time>2022-07-13T08:31:15Z</time>
      </trkpt>
      <trkpt lat="49.78087" lon="2.33415">
        <ele>116</ele>
        <time>2022-07-13T08:31:16Z</time>
      </trkpt>
      <trkpt lat="49.78086" lon="2.33416">
        <ele>116</ele>
        <time>2022-07-13T08:31:18Z</time>
      </trkpt>
      <trkpt lat="49.78084" lon="2.33417">
        <ele>116</ele>
        <time>2022-07-13T08:31:19Z</time>
      </trkpt>
      <trkpt lat="49.78084" lon="2.33418">
        <ele>116</ele>
        <time>2022-07-13T08:31:20Z</time>
      </trkpt>
      <trkpt lat="49.78083" lon="2.33418">
        <ele>116</ele>
        <time>2022-07-13T08:31:21Z</time>
      </trkpt>
      <trkpt lat="49.78082" lon="2.33419">
        <ele>116.1</ele>
        <time>2022-07-13T08:31:22Z</time>
      </trkpt>
      <trkpt lat="49.78081" lon="2.33419">
        <ele>116.1</ele>
        <time>2022-07-13T08:31:23Z</time>
      </trkpt>
      <trkpt lat="49.7808" lon="2.3342">
        <ele>116.1</ele>
        <time>2022-07-13T08:31:24Z</time>
      </trkpt>
      <trkpt lat="49.78078" lon="2.33422">
        <ele>116.1</ele>
        <time>2022-07-13T08:31:25Z</time>
      </trkpt>
      <trkpt lat="49.78078" lon="2.33423">
        <ele>116.2</ele>
        <time>2022-07-13T08:31:26Z</time>
      </trkpt>
      <trkpt lat="49.78077" lon="2.33423">
        <ele>116.2</ele>
        <time>2022-07-13T08:31:27Z</time>
      </trkpt>
      <trkpt lat="49.78076" lon="2.33424">
        <ele>116.2</ele>
        <time>2022-07-13T08:31:28Z</time>
      </trkpt>
      <trkpt lat="49.78074" lon="2.33426">
        <ele>116.2</ele>
        <time>2022-07-13T08:31:29Z</time>
      </trkpt>
      <trkpt lat="49.78073" lon="2.33427">
        <ele>116.2</ele>
        <time>2022-07-13T08:31:30Z</time>
      </trkpt>
      <trkpt lat="49.78072" lon="2.33428">
        <ele>116.3</ele>
        <time>2022-07-13T08:31:31Z</time>
      </trkpt>
      <trkpt lat="49.78071" lon="2.33429">
        <ele>116.3</ele>
        <time>2022-07-13T08:31:33Z</time>
      </trkpt>
      <trkpt lat="49.78069" lon="2.3343">
        <ele>116.3</ele>
        <time>2022-07-13T08:31:35Z</time>
      </trkpt>
      <trkpt lat="49.78068" lon="2.33431">
        <ele>116.3</ele>
        <time>2022-07-13T08:31:36Z</time>
      </trkpt>
      <trkpt lat="49.78066" lon="2.33432">
        <ele>116.4</ele>
        <time>2022-07-13T08:31:37Z</time>
      </trkpt>
      <trkpt lat="49.78065" lon="2.33433">
        <ele>116.4</ele>
        <time>2022-07-13T08:31:38Z</time>
      </trkpt>
      <trkpt lat="49.78064" lon="2.33433">
        <ele>116.4</ele>
        <time>2022-07-13T08:31:39Z</time>
      </trkpt>
      <trkpt lat="49.78063" lon="2.33435">
        <ele>116.4</ele>
        <time>2022-07-13T08:31:40Z</time>
      </trkpt>
      <trkpt lat="49.78062" lon="2.33436">
        <ele>116.4</ele>
        <time>2022-07-13T08:31:41Z</time>
      </trkpt>
      <trkpt lat="49.78059" lon="2.33437">
        <ele>116.4</ele>
        <time>2022-07-13T08:31:42Z</time>
      </trkpt>
      <trkpt lat="49.78059" lon="2.33437">
        <ele>116.4</ele>
        <time>2022-07-13T08:31:43Z</time>
      </trkpt>
      <trkpt lat="49.78058" lon="2.33438">
        <ele>116.4</ele>
        <time>2022-07-13T08:31:44Z</time>
      </trkpt>
      <trkpt lat="49.78057" lon="2.33439">
        <ele>116.5</ele>
        <time>2022-07-13T08:31:45Z</time>
      </trkpt>
      <trkpt lat="49.78056" lon="2.3344">
        <ele>116.5</ele>
        <time>2022-07-13T08:31:46Z</time>
      </trkpt>
      <trkpt lat="49.78054" lon="2.3344">
        <ele>116.5</ele>
        <time>2022-07-13T08:31:48Z</time>
      </trkpt>
      <trkpt lat="49.78053" lon="2.33441">
        <ele>116.5</ele>
        <time>2022-07-13T08:31:49Z</time>
      </trkpt>
      <trkpt lat="49.78051" lon="2.33443">
        <ele>116.5</ele>
        <time>2022-07-13T08:31:50Z</time>
      </trkpt>
      <trkpt lat="49.78051" lon="2.33443">
        <ele>116.5</ele>
        <time>2022-07-13T08:31:51Z</time>
      </trkpt>
      <trkpt lat="49.78049" lon="2.33444">
        <ele>116.5</ele>
        <time>2022-07-13T08:31:52Z</time>
      </trkpt>
      <trkpt lat="49.78048" lon="2.33445">
        <ele>116.5</ele>
        <time>2022-07-13T08:31:53Z</time>
      </trkpt>
      <trkpt lat="49.78047" lon="2.33446">
        <ele>116.5</ele>
        <time>2022-07-13T08:31:54Z</time>
      </trkpt>
      <trkpt lat="49.78046" lon="2.33447">
        <ele>116.6</ele>
        <time>2022-07-13T08:31:55Z</time>
      </trkpt>
      <trkpt lat="49.78044" lon="2.33448">
        <ele>116.6</ele>
        <time>2022-07-13T08:31:56Z</time>
      </trkpt>
      <trkpt lat="49.78043" lon="2.33449">
        <ele>116.6</ele>
        <time>2022-07-13T08:31:57Z</time>
      </trkpt>
      <trkpt lat="49.78043" lon="2.3345">
        <ele>116.6</ele>
        <time>2022-07-13T08:31:58Z</time>
      </trkpt>
      <trkpt lat="49.78042" lon="2.3345">
        <ele>116.6</ele>
        <time>2022-07-13T08:31:59Z</time>
      </trkpt>
      <trkpt lat="49.7804" lon="2.33452">
        <ele>116.6</ele>
        <time>2022-07-13T08:32:00Z</time>
      </trkpt>
      <trkpt lat="49.78039" lon="2.33452">
        <ele>116.6</ele>
        <time>2022-07-13T08:32:02Z</time>
      </trkpt>
      <trkpt lat="49.78038" lon="2.33453">
        <ele>116.6</ele>
        <time>2022-07-13T08:32:03Z</time>
      </trkpt>
      <trkpt lat="49.78037" lon="2.33454">
        <ele>116.7</ele>
        <time>2022-07-13T08:32:04Z</time>
      </trkpt>
      <trkpt lat="49.78034" lon="2.33455">
        <ele>116.7</ele>
        <time>2022-07-13T08:32:05Z</time>
      </trkpt>
      <trkpt lat="49.78034" lon="2.33456">
        <ele>116.7</ele>
        <time>2022-07-13T08:32:06Z</time>
      </trkpt>
      <trkpt lat="49.78033" lon="2.33456">
        <ele>116.7</ele>
        <time>2022-07-13T08:32:07Z</time>
      </trkpt>
      <trkpt lat="49.78031" lon="2.33457">
        <ele>116.7</ele>
        <time>2022-07-13T08:32:08Z</time>
      </trkpt>
      <trkpt lat="49.7803" lon="2.33458">
        <ele>116.7</ele>
        <time>2022-07-13T08:32:09Z</time>
      </trkpt>
      <trkpt lat="49.7803" lon="2.33459">
        <ele>116.8</ele>
        <time>2022-07-13T08:32:10Z</time>
      </trkpt>
      <trkpt lat="49.78028" lon="2.3346">
        <ele>116.8</ele>
        <time>2022-07-13T08:32:11Z</time>
      </trkpt>
      <trkpt lat="49.78027" lon="2.33461">
        <ele>116.8</ele>
        <time>2022-07-13T08:32:12Z</time>
      </trkpt>
      <trkpt lat="49.78026" lon="2.33462">
        <ele>116.8</ele>
        <time>2022-07-13T08:32:13Z</time>
      </trkpt>
      <trkpt lat="49.78025" lon="2.33463">
        <ele>116.8</ele>
        <time>2022-07-13T08:32:14Z</time>
      </trkpt>
      <trkpt lat="49.78024" lon="2.33464">
        <ele>116.8</ele>
        <time>2022-07-13T08:32:15Z</time>
      </trkpt>
      <trkpt lat="49.78023" lon="2.33465">
        <ele>116.9</ele>
        <time>2022-07-13T08:32:17Z</time>
      </trkpt>
      <trkpt lat="49.78022" lon="2.33467">
        <ele>116.9</ele>
        <time>2022-07-13T08:32:18Z</time>
      </trkpt>
      <trkpt lat="49.78021" lon="2.33468">
        <ele>116.9</ele>
        <time>2022-07-13T08:32:19Z</time>
      </trkpt>
      <trkpt lat="49.7802" lon="2.33469">
        <ele>116.9</ele>
        <time>2022-07-13T08:32:20Z</time>
      </trkpt>
      <trkpt lat="49.78019" lon="2.3347">
        <ele>116.9</ele>
        <time>2022-07-13T08:32:21Z</time>
      </trkpt>
      <trkpt lat="49.78019" lon="2.33471">
        <ele>116.9</ele>
        <time>2022-07-13T08:32:22Z</time>
      </trkpt>
      <trkpt lat="49.78017" lon="2.33473">
        <ele>116.9</ele>
        <time>2022-07-13T08:32:23Z</time>
      </trkpt>
      <trkpt lat="49.78016" lon="2.33473">
        <ele>117</ele>
        <time>2022-07-13T08:32:24Z</time>
      </trkpt>
      <trkpt lat="49.78016" lon="2.33474">
        <ele>117</ele>
        <time>2022-07-13T08:32:25Z</time>
      </trkpt>
      <trkpt lat="49.78015" lon="2.33475">
        <ele>117</ele>
        <time>2022-07-13T08:32:26Z</time>
      </trkpt>
      <trkpt lat="49.78014" lon="2.33476">
        <ele>117</ele>
        <time>2022-07-13T08:32:27Z</time>
      </trkpt>
      <trkpt lat="49.78013" lon="2.33477">
        <ele>117</ele>
        <time>2022-07-13T08:32:28Z</time>
      </trkpt>
      <trkpt lat="49.78012" lon="2.33478">
        <ele>117</ele>
        <time>2022-07-13T08:32:29Z</time>
      </trkpt>
      <trkpt lat="49.7801" lon="2.33479">
        <ele>117.1</ele>
        <time>2022-07-13T08:32:31Z</time>
      </trkpt>
      <trkpt lat="49.78009" lon="2.33481">
        <ele>117.1</ele>
        <time>2022-07-13T08:32:32Z</time>
      </trkpt>
      <trkpt lat="49.78008" lon="2.33482">
        <ele>117.1</ele>
        <time>2022-07-13T08:32:33Z</time>
      </trkpt>
      <trkpt lat="49.78007" lon="2.33483">
        <ele>117.1</ele>
        <time>2022-07-13T08:32:34Z</time>
      </trkpt>
      <trkpt lat="49.78006" lon="2.33484">
        <ele>117.1</ele>
        <time>2022-07-13T08:32:35Z</time>
      </trkpt>
      <trkpt lat="49.78005" lon="2.33484">
        <ele>117.1</ele>
        <time>2022-07-13T08:32:36Z</time>
      </trkpt>
      <trkpt lat="49.78005" lon="2.33485">
        <ele>117.2</ele>
        <time>2022-07-13T08:32:37Z</time>
      </trkpt>
      <trkpt lat="49.78003" lon="2.33487">
        <ele>117.2</ele>
        <time>2022-07-13T08:32:38Z</time>
      </trkpt>
      <trkpt lat="49.78002" lon="2.33488">
        <ele>117.2</ele>
        <time>2022-07-13T08:32:39Z</time>
      </trkpt>
      <trkpt lat="49.78001" lon="2.33489">
        <ele>117.2</ele>
        <time>2022-07-13T08:32:40Z</time>
      </trkpt>
      <trkpt lat="49.78" lon="2.33489">
        <ele>117.2</ele>
        <time>2022-07-13T08:32:41Z</time>
      </trkpt>
      <trkpt lat="49.77999" lon="2.3349">
        <ele>117.2</ele>
        <time>2022-07-13T08:32:42Z</time>
      </trkpt>
      <trkpt lat="49.77998" lon="2.33491">
        <ele>117.3</ele>
        <time>2022-07-13T08:32:44Z</time>
      </trkpt>
      <trkpt lat="49.77996" lon="2.33492">
        <ele>117.3</ele>
        <time>2022-07-13T08:32:45Z</time>
      </trkpt>
      <trkpt lat="49.77995" lon="2.33493">
        <ele>117.3</ele>
        <time>2022-07-13T08:32:46Z</time>
      </trkpt>
      <trkpt lat="49.77994" lon="2.33493">
        <ele>117.3</ele>
        <time>2022-07-13T08:32:47Z</time>
      </trkpt>
      <trkpt lat="49.77993" lon="2.33494">
        <ele>117.3</ele>
        <time>2022-07-13T08:32:48Z</time>
      </trkpt>
      <trkpt lat="49.77992" lon="2.33494">
        <ele>117.3</ele>
        <time>2022-07-13T08:32:49Z</time>
      </trkpt>
      <trkpt lat="49.7799" lon="2.33496">
        <ele>117.4</ele>
        <time>2022-07-13T08:32:50Z</time>
      </trkpt>
      <trkpt lat="49.77989" lon="2.33496">
        <ele>117.4</ele>
        <time>2022-07-13T08:32:51Z</time>
      </trkpt>
      <trkpt lat="49.77988" lon="2.33497">
        <ele>117.4</ele>
        <time>2022-07-13T08:32:52Z</time>
      </trkpt>
      <trkpt lat="49.77986" lon="2.33497">
        <ele>117.4</ele>
        <time>2022-07-13T08:32:53Z</time>
      </trkpt>
      <trkpt lat="49.77985" lon="2.33497">
        <ele>117.4</ele>
        <time>2022-07-13T08:32:54Z</time>
      </trkpt>
      <trkpt lat="49.77984" lon="2.33498">
        <ele>117.4</ele>
        <time>2022-07-13T08:32:55Z</time>
      </trkpt>
      <trkpt lat="49.77982" lon="2.33499">
        <ele>117.4</ele>
        <time>2022-07-13T08:32:56Z</time>
      </trkpt>
      <trkpt lat="49.77982" lon="2.33499">
        <ele>117.4</ele>
        <time>2022-07-13T08:32:58Z</time>
      </trkpt>
      <trkpt lat="49.77981" lon="2.335">
        <ele>117.4</ele>
        <time>2022-07-13T08:32:59Z</time>
      </trkpt>
      <trkpt lat="49.7798" lon="2.33501">
        <ele>117.4</ele>
        <time>2022-07-13T08:33:00Z</time>
      </trkpt>
      <trkpt lat="49.77978" lon="2.33502">
        <ele>117.4</ele>
        <time>2022-07-13T08:33:01Z</time>
      </trkpt>
      <trkpt lat="49.77977" lon="2.33503">
        <ele>117.4</ele>
        <time>2022-07-13T08:33:02Z</time>
      </trkpt>
      <trkpt lat="49.77976" lon="2.33504">
        <ele>117.4</ele>
        <time>2022-07-13T08:33:03Z</time>
      </trkpt>
      <trkpt lat="49.77975" lon="2.33505">
        <ele>117.4</ele>
        <time>2022-07-13T08:33:04Z</time>
      </trkpt>
      <trkpt lat="49.77973" lon="2.33506">
        <ele>117.4</ele>
        <time>2022-07-13T08:33:06Z</time>
      </trkpt>
      <trkpt lat="49.77972" lon="2.33506">
        <ele>117.4</ele>
        <time>2022-07-13T08:33:07Z</time>
      </trkpt>
      <trkpt lat="49.7797" lon="2.33508">
        <ele>117.4</ele>
        <time>2022-07-13T08:33:08Z</time>
      </trkpt>
      <trkpt lat="49.77969" lon="2.33508">
        <ele>117.4</ele>
        <time>2022-07-13T08:33:09Z</time>
      </trkpt>
      <trkpt lat="49.77967" lon="2.33509">
        <ele>117.4</ele>
        <time>2022-07-13T08:33:10Z</time>
      </trkpt>
      <trkpt lat="49.77966" lon="2.3351">
        <ele>117.4</ele>
        <time>2022-07-13T08:33:11Z</time>
      </trkpt>
      <trkpt lat="49.77964" lon="2.33512">
        <ele>117.3</ele>
        <time>2022-07-13T08:33:13Z</time>
      </trkpt>
      <trkpt lat="49.77963" lon="2.33513">
        <ele>117.3</ele>
        <time>2022-07-13T08:33:14Z</time>
      </trkpt>
      <trkpt lat="49.77962" lon="2.33514">
        <ele>117.3</ele>
        <time>2022-07-13T08:33:15Z</time>
      </trkpt>
      <trkpt lat="49.7796" lon="2.33515">
        <ele>117.3</ele>
        <time>2022-07-13T08:33:17Z</time>
      </trkpt>
      <trkpt lat="49.7796" lon="2.33516">
        <ele>117.3</ele>
        <time>2022-07-13T08:33:18Z</time>
      </trkpt>
      <trkpt lat="49.77959" lon="2.33517">
        <ele>117.3</ele>
        <time>2022-07-13T08:33:19Z</time>
      </trkpt>
      <trkpt lat="49.77958" lon="2.33518">
        <ele>117.3</ele>
        <time>2022-07-13T08:33:20Z</time>
      </trkpt>
      <trkpt lat="49.77957" lon="2.3352">
        <ele>117.3</ele>
        <time>2022-07-13T08:33:21Z</time>
      </trkpt>
      <trkpt lat="49.77956" lon="2.3352">
        <ele>117.3</ele>
        <time>2022-07-13T08:33:22Z</time>
      </trkpt>
      <trkpt lat="49.77955" lon="2.33521">
        <ele>117.3</ele>
        <time>2022-07-13T08:33:23Z</time>
      </trkpt>
      <trkpt lat="49.77954" lon="2.33522">
        <ele>117.3</ele>
        <time>2022-07-13T08:33:24Z</time>
      </trkpt>
      <trkpt lat="49.77953" lon="2.33523">
        <ele>117.2</ele>
        <time>2022-07-13T08:33:25Z</time>
      </trkpt>
      <trkpt lat="49.77951" lon="2.33525">
        <ele>117.2</ele>
        <time>2022-07-13T08:33:26Z</time>
      </trkpt>
      <trkpt lat="49.7795" lon="2.33526">
        <ele>117.2</ele>
        <time>2022-07-13T08:33:27Z</time>
      </trkpt>
      <trkpt lat="49.77949" lon="2.33527">
        <ele>117.2</ele>
        <time>2022-07-13T08:33:28Z</time>
      </trkpt>
      <trkpt lat="49.77948" lon="2.33527">
        <ele>117.2</ele>
        <time>2022-07-13T08:33:29Z</time>
      </trkpt>
      <trkpt lat="49.77946" lon="2.33529">
        <ele>117.2</ele>
        <time>2022-07-13T08:33:31Z</time>
      </trkpt>
      <trkpt lat="49.77945" lon="2.3353">
        <ele>117.2</ele>
        <time>2022-07-13T08:33:32Z</time>
      </trkpt>
      <trkpt lat="49.77944" lon="2.3353">
        <ele>117.2</ele>
        <time>2022-07-13T08:33:33Z</time>
      </trkpt>
      <trkpt lat="49.77942" lon="2.33531">
        <ele>117.2</ele>
        <time>2022-07-13T08:33:34Z</time>
      </trkpt>
      <trkpt lat="49.77941" lon="2.33532">
        <ele>117.2</ele>
        <time>2022-07-13T08:33:36Z</time>
      </trkpt>
      <trkpt lat="49.7794" lon="2.33533">
        <ele>117.2</ele>
        <time>2022-07-13T08:33:37Z</time>
      </trkpt>
      <trkpt lat="49.77939" lon="2.33534">
        <ele>117.2</ele>
        <time>2022-07-13T08:33:38Z</time>
      </trkpt>
      <trkpt lat="49.77938" lon="2.33534">
        <ele>117.2</ele>
        <time>2022-07-13T08:33:39Z</time>
      </trkpt>
      <trkpt lat="49.77936" lon="2.33536">
        <ele>117.2</ele>
        <time>2022-07-13T08:33:40Z</time>
      </trkpt>
      <trkpt lat="49.77935" lon="2.33536">
        <ele>117.2</ele>
        <time>2022-07-13T08:33:41Z</time>
      </trkpt>
      <trkpt lat="49.77935" lon="2.33537">
        <ele>117.2</ele>
        <time>2022-07-13T08:33:42Z</time>
      </trkpt>
      <trkpt lat="49.77933" lon="2.33538">
        <ele>117.2</ele>
        <time>2022-07-13T08:33:43Z</time>
      </trkpt>
      <trkpt lat="49.77932" lon="2.33539">
        <ele>117.2</ele>
        <time>2022-07-13T08:33:44Z</time>
      </trkpt>
      <trkpt lat="49.77931" lon="2.3354">
        <ele>117.2</ele>
        <time>2022-07-13T08:33:45Z</time>
      </trkpt>
      <trkpt lat="49.77931" lon="2.3354">
        <ele>117.2</ele>
        <time>2022-07-13T08:33:46Z</time>
      </trkpt>
      <trkpt lat="49.7793" lon="2.33541">
        <ele>117.2</ele>
        <time>2022-07-13T08:33:47Z</time>
      </trkpt>
      <trkpt lat="49.77929" lon="2.33542">
        <ele>117.2</ele>
        <time>2022-07-13T08:33:48Z</time>
      </trkpt>
      <trkpt lat="49.77928" lon="2.33543">
        <ele>117.2</ele>
        <time>2022-07-13T08:33:50Z</time>
      </trkpt>
      <trkpt lat="49.77926" lon="2.33545">
        <ele>117.1</ele>
        <time>2022-07-13T08:33:51Z</time>
      </trkpt>
      <trkpt lat="49.77925" lon="2.33545">
        <ele>117.1</ele>
        <time>2022-07-13T08:33:52Z</time>
      </trkpt>
      <trkpt lat="49.77924" lon="2.33546">
        <ele>117.1</ele>
        <time>2022-07-13T08:33:53Z</time>
      </trkpt>
      <trkpt lat="49.77923" lon="2.33547">
        <ele>117.1</ele>
        <time>2022-07-13T08:33:54Z</time>
      </trkpt>
      <trkpt lat="49.77922" lon="2.33548">
        <ele>117.1</ele>
        <time>2022-07-13T08:33:55Z</time>
      </trkpt>
      <trkpt lat="49.77921" lon="2.3355">
        <ele>117.1</ele>
        <time>2022-07-13T08:33:56Z</time>
      </trkpt>
      <trkpt lat="49.7792" lon="2.33551">
        <ele>117.1</ele>
        <time>2022-07-13T08:33:57Z</time>
      </trkpt>
      <trkpt lat="49.77919" lon="2.33552">
        <ele>117.1</ele>
        <time>2022-07-13T08:33:58Z</time>
      </trkpt>
      <trkpt lat="49.77918" lon="2.33552">
        <ele>117.1</ele>
        <time>2022-07-13T08:33:59Z</time>
      </trkpt>
      <trkpt lat="49.77917" lon="2.33553">
        <ele>117.1</ele>
        <time>2022-07-13T08:34:00Z</time>
      </trkpt>
      <trkpt lat="49.77916" lon="2.33555">
        <ele>117.1</ele>
        <time>2022-07-13T08:34:01Z</time>
      </trkpt>
      <trkpt lat="49.77914" lon="2.33556">
        <ele>117.1</ele>
        <time>2022-07-13T08:34:02Z</time>
      </trkpt>
      <trkpt lat="49.77913" lon="2.33557">
        <ele>117</ele>
        <time>2022-07-13T08:34:04Z</time>
      </trkpt>
      <trkpt lat="49.77912" lon="2.33557">
        <ele>117</ele>
        <time>2022-07-13T08:34:05Z</time>
      </trkpt>
      <trkpt lat="49.7791" lon="2.33558">
        <ele>117</ele>
        <time>2022-07-13T08:34:06Z</time>
      </trkpt>
      <trkpt lat="49.77909" lon="2.33559">
        <ele>117</ele>
        <time>2022-07-13T08:34:07Z</time>
      </trkpt>
      <trkpt lat="49.77908" lon="2.33559">
        <ele>117</ele>
        <time>2022-07-13T08:34:08Z</time>
      </trkpt>
      <trkpt lat="49.77907" lon="2.3356">
        <ele>117</ele>
        <time>2022-07-13T08:34:09Z</time>
      </trkpt>
      <trkpt lat="49.77906" lon="2.3356">
        <ele>117</ele>
        <time>2022-07-13T08:34:10Z</time>
      </trkpt>
      <trkpt lat="49.77904" lon="2.33561">
        <ele>117</ele>
        <time>2022-07-13T08:34:11Z</time>
      </trkpt>
      <trkpt lat="49.77903" lon="2.33561">
        <ele>117</ele>
        <time>2022-07-13T08:34:12Z</time>
      </trkpt>
      <trkpt lat="49.77901" lon="2.33562">
        <ele>117</ele>
        <time>2022-07-13T08:34:13Z</time>
      </trkpt>
      <trkpt lat="49.779" lon="2.33563">
        <ele>117</ele>
        <time>2022-07-13T08:34:14Z</time>
      </trkpt>
      <trkpt lat="49.77899" lon="2.33563">
        <ele>116.9</ele>
        <time>2022-07-13T08:34:15Z</time>
      </trkpt>
      <trkpt lat="49.77897" lon="2.33565">
        <ele>116.9</ele>
        <time>2022-07-13T08:34:16Z</time>
      </trkpt>
      <trkpt lat="49.77897" lon="2.33565">
        <ele>116.9</ele>
        <time>2022-07-13T08:34:17Z</time>
      </trkpt>
      <trkpt lat="49.77896" lon="2.33566">
        <ele>116.9</ele>
        <time>2022-07-13T08:34:18Z</time>
      </trkpt>
      <trkpt lat="49.77895" lon="2.33567">
        <ele>116.9</ele>
        <time>2022-07-13T08:34:20Z</time>
      </trkpt>
      <trkpt lat="49.77894" lon="2.33568">
        <ele>116.9</ele>
        <time>2022-07-13T08:34:21Z</time>
      </trkpt>
      <trkpt lat="49.77893" lon="2.33569">
        <ele>116.9</ele>
        <time>2022-07-13T08:34:22Z</time>
      </trkpt>
      <trkpt lat="49.77892" lon="2.3357">
        <ele>116.9</ele>
        <time>2022-07-13T08:34:23Z</time>
      </trkpt>
      <trkpt lat="49.77891" lon="2.33571">
        <ele>116.9</ele>
        <time>2022-07-13T08:34:24Z</time>
      </trkpt>
      <trkpt lat="49.7789" lon="2.33572">
        <ele>116.9</ele>
        <time>2022-07-13T08:34:25Z</time>
      </trkpt>
      <trkpt lat="49.77889" lon="2.33573">
        <ele>116.9</ele>
        <time>2022-07-13T08:34:26Z</time>
      </trkpt>
      <trkpt lat="49.77888" lon="2.33574">
        <ele>116.9</ele>
        <time>2022-07-13T08:34:27Z</time>
      </trkpt>
      <trkpt lat="49.77887" lon="2.33575">
        <ele>116.9</ele>
        <time>2022-07-13T08:34:28Z</time>
      </trkpt>
      <trkpt lat="49.77886" lon="2.33575">
        <ele>116.9</ele>
        <time>2022-07-13T08:34:29Z</time>
      </trkpt>
      <trkpt lat="49.77885" lon="2.33576">
        <ele>116.9</ele>
        <time>2022-07-13T08:34:30Z</time>
      </trkpt>
      <trkpt lat="49.77883" lon="2.33578">
        <ele>116.9</ele>
        <time>2022-07-13T08:34:31Z</time>
      </trkpt>
      <trkpt lat="49.77882" lon="2.33579">
        <ele>116.9</ele>
        <time>2022-07-13T08:34:33Z</time>
      </trkpt>
      <trkpt lat="49.77882" lon="2.33579">
        <ele>116.9</ele>
        <time>2022-07-13T08:34:34Z</time>
      </trkpt>
      <trkpt lat="49.77881" lon="2.3358">
        <ele>116.9</ele>
        <time>2022-07-13T08:34:35Z</time>
      </trkpt>
      <trkpt lat="49.77879" lon="2.33582">
        <ele>116.9</ele>
        <time>2022-07-13T08:34:36Z</time>
      </trkpt>
      <trkpt lat="49.77879" lon="2.33583">
        <ele>116.9</ele>
        <time>2022-07-13T08:34:37Z</time>
      </trkpt>
      <trkpt lat="49.77878" lon="2.33584">
        <ele>116.9</ele>
        <time>2022-07-13T08:34:38Z</time>
      </trkpt>
      <trkpt lat="49.77877" lon="2.33585">
        <ele>116.9</ele>
        <time>2022-07-13T08:34:39Z</time>
      </trkpt>
      <trkpt lat="49.77875" lon="2.33588">
        <ele>116.9</ele>
        <time>2022-07-13T08:34:41Z</time>
      </trkpt>
      <trkpt lat="49.77874" lon="2.33588">
        <ele>116.9</ele>
        <time>2022-07-13T08:34:42Z</time>
      </trkpt>
      <trkpt lat="49.77872" lon="2.3359">
        <ele>116.9</ele>
        <time>2022-07-13T08:34:43Z</time>
      </trkpt>
      <trkpt lat="49.77871" lon="2.33591">
        <ele>116.9</ele>
        <time>2022-07-13T08:34:44Z</time>
      </trkpt>
      <trkpt lat="49.77871" lon="2.33592">
        <ele>116.8</ele>
        <time>2022-07-13T08:34:45Z</time>
      </trkpt>
      <trkpt lat="49.77869" lon="2.33593">
        <ele>116.8</ele>
        <time>2022-07-13T08:34:46Z</time>
      </trkpt>
      <trkpt lat="49.77868" lon="2.33594">
        <ele>116.8</ele>
        <time>2022-07-13T08:34:47Z</time>
      </trkpt>
      <trkpt lat="49.77866" lon="2.33595">
        <ele>116.8</ele>
        <time>2022-07-13T08:34:49Z</time>
      </trkpt>
      <trkpt lat="49.77865" lon="2.33596">
        <ele>116.8</ele>
        <time>2022-07-13T08:34:50Z</time>
      </trkpt>
      <trkpt lat="49.77865" lon="2.33597">
        <ele>116.8</ele>
        <time>2022-07-13T08:34:51Z</time>
      </trkpt>
      <trkpt lat="49.77863" lon="2.33598">
        <ele>116.8</ele>
        <time>2022-07-13T08:34:52Z</time>
      </trkpt>
      <trkpt lat="49.77863" lon="2.33599">
        <ele>116.8</ele>
        <time>2022-07-13T08:34:53Z</time>
      </trkpt>
      <trkpt lat="49.77862" lon="2.33599">
        <ele>116.8</ele>
        <time>2022-07-13T08:34:54Z</time>
      </trkpt>
      <trkpt lat="49.77861" lon="2.336">
        <ele>116.8</ele>
        <time>2022-07-13T08:34:55Z</time>
      </trkpt>
      <trkpt lat="49.7786" lon="2.33602">
        <ele>116.7</ele>
        <time>2022-07-13T08:34:56Z</time>
      </trkpt>
      <trkpt lat="49.77859" lon="2.33602">
        <ele>116.7</ele>
        <time>2022-07-13T08:34:57Z</time>
      </trkpt>
      <trkpt lat="49.77858" lon="2.33604">
        <ele>116.7</ele>
        <time>2022-07-13T08:34:58Z</time>
      </trkpt>
      <trkpt lat="49.77857" lon="2.33604">
        <ele>116.7</ele>
        <time>2022-07-13T08:34:59Z</time>
      </trkpt>
      <trkpt lat="49.77856" lon="2.33605">
        <ele>116.7</ele>
        <time>2022-07-13T08:35:00Z</time>
      </trkpt>
      <trkpt lat="49.77854" lon="2.33606">
        <ele>116.7</ele>
        <time>2022-07-13T08:35:01Z</time>
      </trkpt>
      <trkpt lat="49.77853" lon="2.33606">
        <ele>116.7</ele>
        <time>2022-07-13T08:35:02Z</time>
      </trkpt>
      <trkpt lat="49.77852" lon="2.33607">
        <ele>116.7</ele>
        <time>2022-07-13T08:35:04Z</time>
      </trkpt>
      <trkpt lat="49.7785" lon="2.33609">
        <ele>116.6</ele>
        <time>2022-07-13T08:35:05Z</time>
      </trkpt>
      <trkpt lat="49.77849" lon="2.33609">
        <ele>116.6</ele>
        <time>2022-07-13T08:35:06Z</time>
      </trkpt>
      <trkpt lat="49.77848" lon="2.3361">
        <ele>116.6</ele>
        <time>2022-07-13T08:35:07Z</time>
      </trkpt>
      <trkpt lat="49.77846" lon="2.3361">
        <ele>116.6</ele>
        <time>2022-07-13T08:35:08Z</time>
      </trkpt>
      <trkpt lat="49.77846" lon="2.33611">
        <ele>116.6</ele>
        <time>2022-07-13T08:35:09Z</time>
      </trkpt>
      <trkpt lat="49.77845" lon="2.33611">
        <ele>116.6</ele>
        <time>2022-07-13T08:35:10Z</time>
      </trkpt>
      <trkpt lat="49.77842" lon="2.33613">
        <ele>116.5</ele>
        <time>2022-07-13T08:35:11Z</time>
      </trkpt>
      <trkpt lat="49.77842" lon="2.33613">
        <ele>116.5</ele>
        <time>2022-07-13T08:35:12Z</time>
      </trkpt>
      <trkpt lat="49.77841" lon="2.33613">
        <ele>116.5</ele>
        <time>2022-07-13T08:35:13Z</time>
      </trkpt>
      <trkpt lat="49.7784" lon="2.33614">
        <ele>116.5</ele>
        <time>2022-07-13T08:35:14Z</time>
      </trkpt>
      <trkpt lat="49.77839" lon="2.33615">
        <ele>116.5</ele>
        <time>2022-07-13T08:35:15Z</time>
      </trkpt>
      <trkpt lat="49.77837" lon="2.33616">
        <ele>116.5</ele>
        <time>2022-07-13T08:35:17Z</time>
      </trkpt>
      <trkpt lat="49.77836" lon="2.33617">
        <ele>116.4</ele>
        <time>2022-07-13T08:35:18Z</time>
      </trkpt>
      <trkpt lat="49.77834" lon="2.33618">
        <ele>116.4</ele>
        <time>2022-07-13T08:35:19Z</time>
      </trkpt>
      <trkpt lat="49.77833" lon="2.33619">
        <ele>116.4</ele>
        <time>2022-07-13T08:35:20Z</time>
      </trkpt>
      <trkpt lat="49.77832" lon="2.33619">
        <ele>116.4</ele>
        <time>2022-07-13T08:35:21Z</time>
      </trkpt>
      <trkpt lat="49.77831" lon="2.3362">
        <ele>116.4</ele>
        <time>2022-07-13T08:35:22Z</time>
      </trkpt>
      <trkpt lat="49.7783" lon="2.3362">
        <ele>116.4</ele>
        <time>2022-07-13T08:35:23Z</time>
      </trkpt>
      <trkpt lat="49.77829" lon="2.33621">
        <ele>116.3</ele>
        <time>2022-07-13T08:35:24Z</time>
      </trkpt>
      <trkpt lat="49.77827" lon="2.33622">
        <ele>116.3</ele>
        <time>2022-07-13T08:35:26Z</time>
      </trkpt>
      <trkpt lat="49.77826" lon="2.33623">
        <ele>116.3</ele>
        <time>2022-07-13T08:35:27Z</time>
      </trkpt>
      <trkpt lat="49.77824" lon="2.33624">
        <ele>116.2</ele>
        <time>2022-07-13T08:35:28Z</time>
      </trkpt>
      <trkpt lat="49.77823" lon="2.33625">
        <ele>116.2</ele>
        <time>2022-07-13T08:35:29Z</time>
      </trkpt>
      <trkpt lat="49.77822" lon="2.33625">
        <ele>116.2</ele>
        <time>2022-07-13T08:35:30Z</time>
      </trkpt>
      <trkpt lat="49.77821" lon="2.33626">
        <ele>116.2</ele>
        <time>2022-07-13T08:35:32Z</time>
      </trkpt>
      <trkpt lat="49.7782" lon="2.33627">
        <ele>116.2</ele>
        <time>2022-07-13T08:35:33Z</time>
      </trkpt>
      <trkpt lat="49.77819" lon="2.33628">
        <ele>116.1</ele>
        <time>2022-07-13T08:35:34Z</time>
      </trkpt>
      <trkpt lat="49.77818" lon="2.33629">
        <ele>116.1</ele>
        <time>2022-07-13T08:35:35Z</time>
      </trkpt>
      <trkpt lat="49.77817" lon="2.3363">
        <ele>116.1</ele>
        <time>2022-07-13T08:35:36Z</time>
      </trkpt>
      <trkpt lat="49.77816" lon="2.33631">
        <ele>116.1</ele>
        <time>2022-07-13T08:35:37Z</time>
      </trkpt>
      <trkpt lat="49.77815" lon="2.33632">
        <ele>116</ele>
        <time>2022-07-13T08:35:38Z</time>
      </trkpt>
      <trkpt lat="49.77814" lon="2.33633">
        <ele>116</ele>
        <time>2022-07-13T08:35:39Z</time>
      </trkpt>
      <trkpt lat="49.77813" lon="2.33634">
        <ele>116</ele>
        <time>2022-07-13T08:35:40Z</time>
      </trkpt>
      <trkpt lat="49.77812" lon="2.33635">
        <ele>115.9</ele>
        <time>2022-07-13T08:35:41Z</time>
      </trkpt>
      <trkpt lat="49.77811" lon="2.33637">
        <ele>115.9</ele>
        <time>2022-07-13T08:35:43Z</time>
      </trkpt>
      <trkpt lat="49.77809" lon="2.33639">
        <ele>115.8</ele>
        <time>2022-07-13T08:35:44Z</time>
      </trkpt>
      <trkpt lat="49.77809" lon="2.3364">
        <ele>115.8</ele>
        <time>2022-07-13T08:35:45Z</time>
      </trkpt>
      <trkpt lat="49.77808" lon="2.3364">
        <ele>115.8</ele>
        <time>2022-07-13T08:35:46Z</time>
      </trkpt>
      <trkpt lat="49.77807" lon="2.33641">
        <ele>115.7</ele>
        <time>2022-07-13T08:35:47Z</time>
      </trkpt>
      <trkpt lat="49.77806" lon="2.33642">
        <ele>115.7</ele>
        <time>2022-07-13T08:35:49Z</time>
      </trkpt>
      <trkpt lat="49.77805" lon="2.33644">
        <ele>115.7</ele>
        <time>2022-07-13T08:35:50Z</time>
      </trkpt>
      <trkpt lat="49.77805" lon="2.33645">
        <ele>115.6</ele>
        <time>2022-07-13T08:35:51Z</time>
      </trkpt>
      <trkpt lat="49.77804" lon="2.33647">
        <ele>115.6</ele>
        <time>2022-07-13T08:35:52Z</time>
      </trkpt>
      <trkpt lat="49.77803" lon="2.33648">
        <ele>115.5</ele>
        <time>2022-07-13T08:35:53Z</time>
      </trkpt>
      <trkpt lat="49.77802" lon="2.33649">
        <ele>115.5</ele>
        <time>2022-07-13T08:35:54Z</time>
      </trkpt>
      <trkpt lat="49.77801" lon="2.3365">
        <ele>115.4</ele>
        <time>2022-07-13T08:35:55Z</time>
      </trkpt>
      <trkpt lat="49.778" lon="2.33652">
        <ele>115.4</ele>
        <time>2022-07-13T08:35:56Z</time>
      </trkpt>
      <trkpt lat="49.77799" lon="2.33653">
        <ele>115.3</ele>
        <time>2022-07-13T08:35:58Z</time>
      </trkpt>
      <trkpt lat="49.77798" lon="2.33654">
        <ele>115.3</ele>
        <time>2022-07-13T08:35:59Z</time>
      </trkpt>
      <trkpt lat="49.77797" lon="2.33655">
        <ele>115.2</ele>
        <time>2022-07-13T08:36:00Z</time>
      </trkpt>
      <trkpt lat="49.77797" lon="2.33656">
        <ele>115.2</ele>
        <time>2022-07-13T08:36:01Z</time>
      </trkpt>
      <trkpt lat="49.77796" lon="2.33658">
        <ele>115.1</ele>
        <time>2022-07-13T08:36:02Z</time>
      </trkpt>
      <trkpt lat="49.77796" lon="2.33659">
        <ele>115.1</ele>
        <time>2022-07-13T08:36:04Z</time>
      </trkpt>
      <trkpt lat="49.77795" lon="2.33661">
        <ele>115.1</ele>
        <time>2022-07-13T08:36:05Z</time>
      </trkpt>
      <trkpt lat="49.77794" lon="2.33663">
        <ele>115</ele>
        <time>2022-07-13T08:36:07Z</time>
      </trkpt>
      <trkpt lat="49.77794" lon="2.33663">
        <ele>115</ele>
        <time>2022-07-13T08:36:08Z</time>
      </trkpt>
      <trkpt lat="49.77793" lon="2.33663">
        <ele>114.9</ele>
        <time>2022-07-13T08:36:09Z</time>
      </trkpt>
      <trkpt lat="49.77793" lon="2.33663">
        <ele>114.9</ele>
        <time>2022-07-13T08:36:10Z</time>
      </trkpt>
      <trkpt lat="49.77792" lon="2.33663">
        <ele>114.9</ele>
        <time>2022-07-13T08:36:11Z</time>
      </trkpt>
      <trkpt lat="49.77792" lon="2.33662">
        <ele>114.9</ele>
        <time>2022-07-13T08:36:12Z</time>
      </trkpt>
      <trkpt lat="49.77792" lon="2.33662">
        <ele>114.9</ele>
        <time>2022-07-13T08:36:13Z</time>
      </trkpt>
      <trkpt lat="49.77793" lon="2.33662">
        <ele>114.9</ele>
        <time>2022-07-13T08:36:14Z</time>
      </trkpt>
      <trkpt lat="49.77793" lon="2.33662">
        <ele>114.9</ele>
        <time>2022-07-13T08:36:15Z</time>
      </trkpt>
      <trkpt lat="49.77793" lon="2.33662">
        <ele>114.9</ele>
        <time>2022-07-13T08:36:17Z</time>
      </trkpt>
      <trkpt lat="49.77793" lon="2.33662">
        <ele>114.9</ele>
        <time>2022-07-13T08:36:18Z</time>
      </trkpt>
      <trkpt lat="49.77793" lon="2.33662">
        <ele>114.9</ele>
        <time>2022-07-13T08:36:19Z</time>
      </trkpt>
      <trkpt lat="49.77792" lon="2.33662">
        <ele>114.9</ele>
        <time>2022-07-13T08:36:20Z</time>
      </trkpt>
      <trkpt lat="49.77792" lon="2.33662">
        <ele>114.8</ele>
        <time>2022-07-13T08:36:22Z</time>
      </trkpt>
      <trkpt lat="49.77792" lon="2.33662">
        <ele>114.8</ele>
        <time>2022-07-13T08:36:23Z</time>
      </trkpt>
      <trkpt lat="49.77792" lon="2.33662">
        <ele>114.8</ele>
        <time>2022-07-13T08:36:24Z</time>
      </trkpt>
      <trkpt lat="49.77793" lon="2.33662">
        <ele>114.8</ele>
        <time>2022-07-13T08:36:25Z</time>
      </trkpt>
      <trkpt lat="49.77793" lon="2.33662">
        <ele>114.8</ele>
        <time>2022-07-13T08:36:26Z</time>
      </trkpt>
      <trkpt lat="49.77793" lon="2.33662">
        <ele>114.8</ele>
        <time>2022-07-13T08:36:27Z</time>
      </trkpt>
      <trkpt lat="49.77793" lon="2.33662">
        <ele>114.8</ele>
        <time>2022-07-13T08:36:28Z</time>
      </trkpt>
      <trkpt lat="49.77793" lon="2.33662">
        <ele>114.8</ele>
        <time>2022-07-13T08:36:29Z</time>
      </trkpt>
      <trkpt lat="49.77793" lon="2.33662">
        <ele>114.8</ele>
        <time>2022-07-13T08:36:30Z</time>
      </trkpt>
      <trkpt lat="49.77793" lon="2.33662">
        <ele>114.8</ele>
        <time>2022-07-13T08:36:31Z</time>
      </trkpt>
      <trkpt lat="49.77793" lon="2.33662">
        <ele>114.8</ele>
        <time>2022-07-13T08:36:32Z</time>
      </trkpt>
      <trkpt lat="49.77793" lon="2.33662">
        <ele>114.8</ele>
        <time>2022-07-13T08:36:33Z</time>
      </trkpt>
      <trkpt lat="49.77793" lon="2.33662">
        <ele>114.8</ele>
        <time>2022-07-13T08:36:34Z</time>
      </trkpt>
      <trkpt lat="49.77793" lon="2.33662">
        <ele>114.8</ele>
        <time>2022-07-13T08:36:35Z</time>
      </trkpt>
      <trkpt lat="49.77793" lon="2.33662">
        <ele>114.8</ele>
        <time>2022-07-13T08:36:36Z</time>
      </trkpt>
      <trkpt lat="49.77793" lon="2.33662">
        <ele>114.8</ele>
        <time>2022-07-13T08:36:37Z</time>
      </trkpt>
      <trkpt lat="49.77793" lon="2.33662">
        <ele>114.8</ele>
        <time>2022-07-13T08:36:38Z</time>
      </trkpt>
      <trkpt lat="49.77793" lon="2.33662">
        <ele>114.8</ele>
        <time>2022-07-13T08:36:39Z</time>
      </trkpt>
      <trkpt lat="49.77793" lon="2.33662">
        <ele>114.8</ele>
        <time>2022-07-13T08:36:40Z</time>
      </trkpt>
      <trkpt lat="49.77793" lon="2.33662">
        <ele>114.8</ele>
        <time>2022-07-13T08:36:41Z</time>
      </trkpt>
      <trkpt lat="49.77793" lon="2.33662">
        <ele>114.8</ele>
        <time>2022-07-13T08:36:42Z</time>
      </trkpt>
      <trkpt lat="49.77793" lon="2.33662">
        <ele>114.8</ele>
        <time>2022-07-13T08:36:43Z</time>
      </trkpt>
      <trkpt lat="49.77793" lon="2.33662">
        <ele>114.8</ele>
        <time>2022-07-13T08:36:44Z</time>
      </trkpt>
      <trkpt lat="49.77793" lon="2.33662">
        <ele>114.8</ele>
        <time>2022-07-13T08:36:45Z</time>
      </trkpt>
      <trkpt lat="49.77793" lon="2.33662">
        <ele>114.8</ele>
        <time>2022-07-13T08:36:46Z</time>
      </trkpt>
      <trkpt lat="49.77793" lon="2.33662">
        <ele>114.8</ele>
        <time>2022-07-13T08:36:47Z</time>
      </trkpt>
      <trkpt lat="49.77793" lon="2.33662">
        <ele>114.8</ele>
        <time>2022-07-13T08:36:48Z</time>
      </trkpt>
      <trkpt lat="49.77793" lon="2.33662">
        <ele>114.8</ele>
        <time>2022-07-13T08:36:49Z</time>
      </trkpt>
      <trkpt lat="49.77793" lon="2.33662">
        <ele>114.8</ele>
        <time>2022-07-13T08:36:50Z</time>
      </trkpt>
      <trkpt lat="49.77793" lon="2.33662">
        <ele>114.8</ele>
        <time>2022-07-13T08:36:51Z</time>
      </trkpt>
      <trkpt lat="49.77793" lon="2.33662">
        <ele>114.8</ele>
        <time>2022-07-13T08:36:52Z</time>
      </trkpt>
      <trkpt lat="49.77793" lon="2.33662">
        <ele>114.8</ele>
        <time>2022-07-13T08:36:53Z</time>
      </trkpt>
      <trkpt lat="49.77793" lon="2.33662">
        <ele>114.8</ele>
        <time>2022-07-13T08:36:54Z</time>
      </trkpt>
      <trkpt lat="49.77793" lon="2.33662">
        <ele>114.8</ele>
        <time>2022-07-13T08:36:55Z</time>
      </trkpt>
      <trkpt lat="49.77793" lon="2.33662">
        <ele>114.8</ele>
        <time>2022-07-13T08:36:56Z</time>
      </trkpt>
      <trkpt lat="49.77793" lon="2.33662">
        <ele>114.8</ele>
        <time>2022-07-13T08:36:57Z</time>
      </trkpt>
      <trkpt lat="49.77793" lon="2.33662">
        <ele>114.8</ele>
        <time>2022-07-13T08:36:58Z</time>
      </trkpt>
      <trkpt lat="49.77793" lon="2.33662">
        <ele>114.8</ele>
        <time>2022-07-13T08:36:59Z</time>
      </trkpt>
      <trkpt lat="49.77793" lon="2.33662">
        <ele>114.8</ele>
        <time>2022-07-13T08:37:00Z</time>
      </trkpt>
      <trkpt lat="49.77793" lon="2.33662">
        <ele>114.8</ele>
        <time>2022-07-13T08:37:01Z</time>
      </trkpt>
      <trkpt lat="49.77793" lon="2.33662">
        <ele>114.8</ele>
        <time>2022-07-13T08:37:02Z</time>
      </trkpt>
      <trkpt lat="49.77793" lon="2.33662">
        <ele>114.8</ele>
        <time>2022-07-13T08:37:03Z</time>
      </trkpt>
      <trkpt lat="49.77793" lon="2.33662">
        <ele>114.8</ele>
        <time>2022-07-13T08:37:04Z</time>
      </trkpt>
      <trkpt lat="49.77793" lon="2.33662">
        <ele>114.8</ele>
        <time>2022-07-13T08:37:05Z</time>
      </trkpt>
      <trkpt lat="49.77793" lon="2.33662">
        <ele>114.8</ele>
        <time>2022-07-13T08:37:06Z</time>
      </trkpt>
      <trkpt lat="49.77793" lon="2.33662">
        <ele>114.8</ele>
        <time>2022-07-13T08:37:07Z</time>
      </trkpt>
      <trkpt lat="49.77793" lon="2.33662">
        <ele>114.8</ele>
        <time>2022-07-13T08:37:08Z</time>
      </trkpt>
      <trkpt lat="49.77793" lon="2.33662">
        <ele>114.8</ele>
        <time>2022-07-13T08:37:09Z</time>
      </trkpt>
      <trkpt lat="49.77793" lon="2.33662">
        <ele>114.8</ele>
        <time>2022-07-13T08:37:10Z</time>
      </trkpt>
      <trkpt lat="49.77793" lon="2.33662">
        <ele>114.8</ele>
        <time>2022-07-13T08:37:11Z</time>
      </trkpt>
      <trkpt lat="49.77793" lon="2.33662">
        <ele>114.8</ele>
        <time>2022-07-13T08:37:12Z</time>
      </trkpt>
      <trkpt lat="49.77793" lon="2.33662">
        <ele>114.8</ele>
        <time>2022-07-13T08:37:13Z</time>
      </trkpt>
      <trkpt lat="49.77793" lon="2.33662">
        <ele>114.8</ele>
        <time>2022-07-13T08:37:14Z</time>
      </trkpt>
      <trkpt lat="49.77793" lon="2.33662">
        <ele>114.8</ele>
        <time>2022-07-13T08:37:15Z</time>
      </trkpt>
      <trkpt lat="49.77793" lon="2.33662">
        <ele>114.8</ele>
        <time>2022-07-13T08:37:16Z</time>
      </trkpt>
      <trkpt lat="49.77793" lon="2.33662">
        <ele>114.8</ele>
        <time>2022-07-13T08:37:17Z</time>
      </trkpt>
      <trkpt lat="49.77793" lon="2.33662">
        <ele>114.8</ele>
        <time>2022-07-13T08:37:18Z</time>
      </trkpt>
      <trkpt lat="49.77793" lon="2.33662">
        <ele>114.8</ele>
        <time>2022-07-13T08:37:19Z</time>
      </trkpt>
      <trkpt lat="49.77793" lon="2.33662">
        <ele>114.8</ele>
        <time>2022-07-13T08:37:20Z</time>
      </trkpt>
      <trkpt lat="49.77793" lon="2.33662">
        <ele>114.8</ele>
        <time>2022-07-13T08:37:21Z</time>
      </trkpt>
      <trkpt lat="49.77793" lon="2.33662">
        <ele>114.8</ele>
        <time>2022-07-13T08:37:22Z</time>
      </trkpt>
      <trkpt lat="49.77793" lon="2.33662">
        <ele>114.8</ele>
        <time>2022-07-13T08:37:23Z</time>
      </trkpt>
      <trkpt lat="49.77793" lon="2.33662">
        <ele>114.8</ele>
        <time>2022-07-13T08:37:24Z</time>
      </trkpt>
      <trkpt lat="49.77793" lon="2.33662">
        <ele>114.8</ele>
        <time>2022-07-13T08:37:25Z</time>
      </trkpt>
      <trkpt lat="49.77793" lon="2.33662">
        <ele>114.8</ele>
        <time>2022-07-13T08:37:26Z</time>
      </trkpt>
      <trkpt lat="49.77793" lon="2.33662">
        <ele>114.8</ele>
        <time>2022-07-13T08:37:27Z</time>
      </trkpt>
      <trkpt lat="49.77793" lon="2.33662">
        <ele>114.8</ele>
        <time>2022-07-13T08:37:28Z</time>
      </trkpt>
      <trkpt lat="49.77793" lon="2.33662">
        <ele>114.8</ele>
        <time>2022-07-13T08:37:29Z</time>
      </trkpt>
      <trkpt lat="49.77793" lon="2.33662">
        <ele>114.8</ele>
        <time>2022-07-13T08:37:30Z</time>
      </trkpt>
      <trkpt lat="49.77793" lon="2.33662">
        <ele>114.8</ele>
        <time>2022-07-13T08:37:31Z</time>
      </trkpt>
      <trkpt lat="49.77793" lon="2.33662">
        <ele>114.8</ele>
        <time>2022-07-13T08:37:32Z</time>
      </trkpt>
      <trkpt lat="49.77793" lon="2.33662">
        <ele>114.8</ele>
        <time>2022-07-13T08:37:33Z</time>
      </trkpt>
      <trkpt lat="49.77793" lon="2.33662">
        <ele>114.8</ele>
        <time>2022-07-13T08:37:34Z</time>
      </trkpt>
      <trkpt lat="49.77793" lon="2.33662">
        <ele>114.8</ele>
        <time>2022-07-13T08:37:35Z</time>
      </trkpt>
      <trkpt lat="49.77793" lon="2.33662">
        <ele>114.8</ele>
        <time>2022-07-13T08:37:36Z</time>
      </trkpt>
      <trkpt lat="49.77793" lon="2.33662">
        <ele>114.8</ele>
        <time>2022-07-13T08:37:37Z</time>
      </trkpt>
      <trkpt lat="49.77793" lon="2.33662">
        <ele>114.8</ele>
        <time>2022-07-13T08:37:38Z</time>
      </trkpt>
      <trkpt lat="49.77793" lon="2.33662">
        <ele>114.8</ele>
        <time>2022-07-13T08:37:39Z</time>
      </trkpt>
      <trkpt lat="49.77793" lon="2.33662">
        <ele>114.8</ele>
        <time>2022-07-13T08:37:40Z</time>
      </trkpt>
      <trkpt lat="49.77793" lon="2.33662">
        <ele>114.8</ele>
        <time>2022-07-13T08:37:41Z</time>
      </trkpt>
      <trkpt lat="49.77793" lon="2.33662">
        <ele>114.8</ele>
        <time>2022-07-13T08:37:42Z</time>
      </trkpt>
      <trkpt lat="49.77793" lon="2.33662">
        <ele>114.8</ele>
        <time>2022-07-13T08:37:43Z</time>
      </trkpt>
      <trkpt lat="49.77793" lon="2.33662">
        <ele>114.8</ele>
        <time>2022-07-13T08:37:44Z</time>
      </trkpt>
      <trkpt lat="49.77793" lon="2.33662">
        <ele>114.8</ele>
        <time>2022-07-13T08:37:45Z</time>
      </trkpt>
      <trkpt lat="49.77793" lon="2.33662">
        <ele>114.8</ele>
        <time>2022-07-13T08:37:46Z</time>
      </trkpt>
      <trkpt lat="49.77793" lon="2.33662">
        <ele>114.8</ele>
        <time>2022-07-13T08:37:47Z</time>
      </trkpt>
      <trkpt lat="49.77793" lon="2.33662">
        <ele>114.8</ele>
        <time>2022-07-13T08:37:48Z</time>
      </trkpt>
      <trkpt lat="49.77793" lon="2.33662">
        <ele>114.8</ele>
        <time>2022-07-13T08:37:49Z</time>
      </trkpt>
      <trkpt lat="49.77793" lon="2.33662">
        <ele>114.8</ele>
        <time>2022-07-13T08:37:50Z</time>
      </trkpt>
      <trkpt lat="49.77793" lon="2.33662">
        <ele>114.8</ele>
        <time>2022-07-13T08:37:51Z</time>
      </trkpt>
      <trkpt lat="49.77793" lon="2.33662">
        <ele>114.8</ele>
        <time>2022-07-13T08:37:52Z</time>
      </trkpt>
      <trkpt lat="49.77793" lon="2.33662">
        <ele>114.8</ele>
        <time>2022-07-13T08:37:53Z</time>
      </trkpt>
      <trkpt lat="49.77793" lon="2.33662">
        <ele>114.8</ele>
        <time>2022-07-13T08:37:54Z</time>
      </trkpt>
      <trkpt lat="49.77793" lon="2.33662">
        <ele>114.8</ele>
        <time>2022-07-13T08:37:55Z</time>
      </trkpt>
      <trkpt lat="49.77793" lon="2.33662">
        <ele>114.8</ele>
        <time>2022-07-13T08:37:56Z</time>
      </trkpt>
      <trkpt lat="49.77793" lon="2.33662">
        <ele>114.8</ele>
        <time>2022-07-13T08:37:57Z</time>
      </trkpt>
      <trkpt lat="49.77793" lon="2.33662">
        <ele>114.8</ele>
        <time>2022-07-13T08:37:58Z</time>
      </trkpt>
      <trkpt lat="49.77793" lon="2.33662">
        <ele>114.8</ele>
        <time>2022-07-13T08:37:59Z</time>
      </trkpt>
      <trkpt lat="49.77793" lon="2.33662">
        <ele>114.8</ele>
        <time>2022-07-13T08:38:00Z</time>
      </trkpt>
      <trkpt lat="49.77793" lon="2.33662">
        <ele>114.8</ele>
        <time>2022-07-13T08:38:01Z</time>
      </trkpt>
      <trkpt lat="49.77793" lon="2.33662">
        <ele>114.8</ele>
        <time>2022-07-13T08:38:02Z</time>
      </trkpt>
      <trkpt lat="49.77793" lon="2.33662">
        <ele>114.8</ele>
        <time>2022-07-13T08:38:03Z</time>
      </trkpt>
      <trkpt lat="49.77793" lon="2.33662">
        <ele>114.8</ele>
        <time>2022-07-13T08:38:04Z</time>
      </trkpt>
      <trkpt lat="49.77793" lon="2.33662">
        <ele>114.8</ele>
        <time>2022-07-13T08:38:05Z</time>
      </trkpt>
      <trkpt lat="49.77793" lon="2.33662">
        <ele>114.8</ele>
        <time>2022-07-13T08:38:06Z</time>
      </trkpt>
      <trkpt lat="49.77793" lon="2.33662">
        <ele>114.8</ele>
        <time>2022-07-13T08:38:07Z</time>
      </trkpt>
      <trkpt lat="49.77793" lon="2.33662">
        <ele>114.8</ele>
        <time>2022-07-13T08:38:08Z</time>
      </trkpt>
      <trkpt lat="49.77793" lon="2.33662">
        <ele>114.8</ele>
        <time>2022-07-13T08:38:09Z</time>
      </trkpt>
      <trkpt lat="49.77793" lon="2.33662">
        <ele>114.8</ele>
        <time>2022-07-13T08:38:10Z</time>
      </trkpt>
      <trkpt lat="49.77793" lon="2.33662">
        <ele>114.8</ele>
        <time>2022-07-13T08:38:11Z</time>
      </trkpt>
      <trkpt lat="49.77793" lon="2.33662">
        <ele>114.8</ele>
        <time>2022-07-13T08:38:12Z</time>
      </trkpt>
      <trkpt lat="49.77793" lon="2.33662">
        <ele>114.8</ele>
        <time>2022-07-13T08:38:13Z</time>
      </trkpt>
      <trkpt lat="49.77793" lon="2.33662">
        <ele>114.8</ele>
        <time>2022-07-13T08:38:14Z</time>
      </trkpt>
      <trkpt lat="49.77793" lon="2.33662">
        <ele>114.8</ele>
        <time>2022-07-13T08:38:15Z</time>
      </trkpt>
      <trkpt lat="49.77793" lon="2.33662">
        <ele>114.8</ele>
        <time>2022-07-13T08:38:16Z</time>
      </trkpt>
      <trkpt lat="49.77793" lon="2.33662">
        <ele>114.8</ele>
        <time>2022-07-13T08:38:17Z</time>
      </trkpt>
      <trkpt lat="49.77793" lon="2.33662">
        <ele>114.8</ele>
        <time>2022-07-13T08:38:18Z</time>
      </trkpt>
      <trkpt lat="49.77793" lon="2.33662">
        <ele>114.8</ele>
        <time>2022-07-13T08:38:19Z</time>
      </trkpt>
      <trkpt lat="49.77793" lon="2.33662">
        <ele>114.8</ele>
        <time>2022-07-13T08:38:20Z</time>
      </trkpt>
      <trkpt lat="49.77793" lon="2.33662">
        <ele>114.8</ele>
        <time>2022-07-13T08:38:21Z</time>
      </trkpt>
      <trkpt lat="49.77793" lon="2.33662">
        <ele>114.8</ele>
        <time>2022-07-13T08:38:22Z</time>
      </trkpt>
      <trkpt lat="49.77793" lon="2.33662">
        <ele>114.8</ele>
        <time>2022-07-13T08:38:23Z</time>
      </trkpt>
      <trkpt lat="49.77793" lon="2.33662">
        <ele>114.8</ele>
        <time>2022-07-13T08:38:24Z</time>
      </trkpt>
      <trkpt lat="49.77793" lon="2.33662">
        <ele>114.8</ele>
        <time>2022-07-13T08:38:25Z</time>
      </trkpt>
      <trkpt lat="49.77793" lon="2.33662">
        <ele>114.8</ele>
        <time>2022-07-13T08:38:26Z</time>
      </trkpt>
      <trkpt lat="49.77793" lon="2.33662">
        <ele>114.8</ele>
        <time>2022-07-13T08:38:27Z</time>
      </trkpt>
      <trkpt lat="49.77793" lon="2.33662">
        <ele>114.8</ele>
        <time>2022-07-13T08:38:28Z</time>
      </trkpt>
      <trkpt lat="49.77793" lon="2.33662">
        <ele>114.8</ele>
        <time>2022-07-13T08:38:29Z</time>
      </trkpt>
      <trkpt lat="49.77793" lon="2.33662">
        <ele>114.8</ele>
        <time>2022-07-13T08:38:30Z</time>
      </trkpt>
      <trkpt lat="49.77793" lon="2.33662">
        <ele>114.8</ele>
        <time>2022-07-13T08:38:31Z</time>
      </trkpt>
      <trkpt lat="49.77793" lon="2.33662">
        <ele>114.8</ele>
        <time>2022-07-13T08:38:32Z</time>
      </trkpt>
      <trkpt lat="49.77793" lon="2.33662">
        <ele>114.8</ele>
        <time>2022-07-13T08:38:33Z</time>
      </trkpt>
      <trkpt lat="49.77793" lon="2.33662">
        <ele>114.8</ele>
        <time>2022-07-13T08:38:34Z</time>
      </trkpt>
      <trkpt lat="49.77793" lon="2.33662">
        <ele>114.8</ele>
        <time>2022-07-13T08:38:35Z</time>
      </trkpt>
      <trkpt lat="49.77793" lon="2.33662">
        <ele>114.8</ele>
        <time>2022-07-13T08:38:36Z</time>
      </trkpt>
      <trkpt lat="49.77793" lon="2.33662">
        <ele>114.8</ele>
        <time>2022-07-13T08:38:37Z</time>
      </trkpt>
      <trkpt lat="49.77793" lon="2.33662">
        <ele>114.8</ele>
        <time>2022-07-13T08:38:38Z</time>
      </trkpt>
      <trkpt lat="49.77793" lon="2.33662">
        <ele>114.8</ele>
        <time>2022-07-13T08:38:39Z</time>
      </trkpt>
      <trkpt lat="49.77793" lon="2.33662">
        <ele>114.8</ele>
        <time>2022-07-13T08:38:40Z</time>
      </trkpt>
      <trkpt lat="49.77793" lon="2.33662">
        <ele>114.8</ele>
        <time>2022-07-13T08:38:41Z</time>
      </trkpt>
      <trkpt lat="49.77793" lon="2.33662">
        <ele>114.8</ele>
        <time>2022-07-13T08:38:42Z</time>
      </trkpt>
      <trkpt lat="49.77793" lon="2.33662">
        <ele>114.8</ele>
        <time>2022-07-13T08:38:43Z</time>
      </trkpt>
      <trkpt lat="49.77793" lon="2.33662">
        <ele>114.8</ele>
        <time>2022-07-13T08:38:44Z</time>
      </trkpt>
      <trkpt lat="49.77793" lon="2.33662">
        <ele>114.8</ele>
        <time>2022-07-13T08:38:45Z</time>
      </trkpt>
      <trkpt lat="49.77793" lon="2.33662">
        <ele>114.8</ele>
        <time>2022-07-13T08:38:46Z</time>
      </trkpt>
      <trkpt lat="49.77793" lon="2.33662">
        <ele>114.8</ele>
        <time>2022-07-13T08:38:47Z</time>
      </trkpt>
      <trkpt lat="49.77793" lon="2.33662">
        <ele>114.8</ele>
        <time>2022-07-13T08:38:48Z</time>
      </trkpt>
      <trkpt lat="49.77793" lon="2.33662">
        <ele>114.8</ele>
        <time>2022-07-13T08:38:49Z</time>
      </trkpt>
      <trkpt lat="49.77793" lon="2.33662">
        <ele>114.8</ele>
        <time>2022-07-13T08:38:50Z</time>
      </trkpt>
      <trkpt lat="49.77793" lon="2.33662">
        <ele>114.8</ele>
        <time>2022-07-13T08:38:51Z</time>
      </trkpt>
      <trkpt lat="49.77793" lon="2.33662">
        <ele>114.8</ele>
        <time>2022-07-13T08:38:52Z</time>
      </trkpt>
      <trkpt lat="49.77793" lon="2.33662">
        <ele>114.8</ele>
        <time>2022-07-13T08:38:53Z</time>
      </trkpt>
      <trkpt lat="49.77793" lon="2.33662">
        <ele>114.8</ele>
        <time>2022-07-13T08:38:54Z</time>
      </trkpt>
      <trkpt lat="49.77793" lon="2.33662">
        <ele>114.8</ele>
        <time>2022-07-13T08:38:55Z</time>
      </trkpt>
      <trkpt lat="49.77793" lon="2.33662">
        <ele>114.8</ele>
        <time>2022-07-13T08:38:56Z</time>
      </trkpt>
      <trkpt lat="49.77793" lon="2.33662">
        <ele>114.8</ele>
        <time>2022-07-13T08:38:57Z</time>
      </trkpt>
      <trkpt lat="49.77793" lon="2.33662">
        <ele>114.8</ele>
        <time>2022-07-13T08:38:58Z</time>
      </trkpt>
      <trkpt lat="49.77793" lon="2.33662">
        <ele>114.8</ele>
        <time>2022-07-13T08:38:59Z</time>
      </trkpt>
      <trkpt lat="49.77793" lon="2.33662">
        <ele>114.8</ele>
        <time>2022-07-13T08:39:00Z</time>
      </trkpt>
      <trkpt lat="49.77793" lon="2.33662">
        <ele>114.8</ele>
        <time>2022-07-13T08:39:01Z</time>
      </trkpt>
      <trkpt lat="49.77793" lon="2.33662">
        <ele>114.8</ele>
        <time>2022-07-13T08:39:02Z</time>
      </trkpt>
      <trkpt lat="49.77793" lon="2.33662">
        <ele>114.8</ele>
        <time>2022-07-13T08:39:03Z</time>
      </trkpt>
      <trkpt lat="49.77793" lon="2.33662">
        <ele>114.8</ele>
        <time>2022-07-13T08:39:04Z</time>
      </trkpt>
      <trkpt lat="49.77793" lon="2.33662">
        <ele>114.8</ele>
        <time>2022-07-13T08:39:05Z</time>
      </trkpt>
      <trkpt lat="49.77793" lon="2.33662">
        <ele>114.8</ele>
        <time>2022-07-13T08:39:06Z</time>
      </trkpt>
      <trkpt lat="49.77793" lon="2.33662">
        <ele>114.8</ele>
        <time>2022-07-13T08:39:07Z</time>
      </trkpt>
      <trkpt lat="49.77793" lon="2.33662">
        <ele>114.8</ele>
        <time>2022-07-13T08:39:08Z</time>
      </trkpt>
      <trkpt lat="49.77793" lon="2.33662">
        <ele>114.8</ele>
        <time>2022-07-13T08:39:09Z</time>
      </trkpt>
      <trkpt lat="49.77793" lon="2.33662">
        <ele>114.8</ele>
        <time>2022-07-13T08:39:10Z</time>
      </trkpt>
      <trkpt lat="49.77793" lon="2.33662">
        <ele>114.8</ele>
        <time>2022-07-13T08:39:11Z</time>
      </trkpt>
      <trkpt lat="49.77793" lon="2.33662">
        <ele>114.8</ele>
        <time>2022-07-13T08:39:12Z</time>
      </trkpt>
      <trkpt lat="49.77793" lon="2.33662">
        <ele>114.8</ele>
        <time>2022-07-13T08:39:13Z</time>
      </trkpt>
      <trkpt lat="49.77795" lon="2.3366">
        <ele>114.7</ele>
        <time>2022-07-13T08:39:14Z</time>
      </trkpt>
      <trkpt lat="49.77797" lon="2.33659">
        <ele>114.6</ele>
        <time>2022-07-13T08:39:15Z</time>
      </trkpt>
      <trkpt lat="49.77797" lon="2.33659">
        <ele>114.6</ele>
        <time>2022-07-13T08:39:16Z</time>
      </trkpt>
      <trkpt lat="49.77796" lon="2.3366">
        <ele>114.6</ele>
        <time>2022-07-13T08:39:17Z</time>
      </trkpt>
      <trkpt lat="49.77795" lon="2.33661">
        <ele>114.5</ele>
        <time>2022-07-13T08:39:18Z</time>
      </trkpt>
      <trkpt lat="49.77795" lon="2.33663">
        <ele>114.5</ele>
        <time>2022-07-13T08:39:19Z</time>
      </trkpt>
      <trkpt lat="49.77794" lon="2.33663">
        <ele>114.4</ele>
        <time>2022-07-13T08:39:20Z</time>
      </trkpt>
      <trkpt lat="49.77794" lon="2.33664">
        <ele>114.4</ele>
        <time>2022-07-13T08:39:21Z</time>
      </trkpt>
      <trkpt lat="49.77792" lon="2.33666">
        <ele>114.3</ele>
        <time>2022-07-13T08:39:22Z</time>
      </trkpt>
      <trkpt lat="49.77792" lon="2.33667">
        <ele>114.3</ele>
        <time>2022-07-13T08:39:23Z</time>
      </trkpt>
      <trkpt lat="49.77792" lon="2.33668">
        <ele>114.2</ele>
        <time>2022-07-13T08:39:24Z</time>
      </trkpt>
      <trkpt lat="49.77791" lon="2.3367">
        <ele>114.2</ele>
        <time>2022-07-13T08:39:26Z</time>
      </trkpt>
      <trkpt lat="49.7779" lon="2.33671">
        <ele>114.1</ele>
        <time>2022-07-13T08:39:27Z</time>
      </trkpt>
      <trkpt lat="49.77789" lon="2.33671">
        <ele>114.1</ele>
        <time>2022-07-13T08:39:28Z</time>
      </trkpt>
      <trkpt lat="49.77789" lon="2.33671">
        <ele>114</ele>
        <time>2022-07-13T08:39:29Z</time>
      </trkpt>
      <trkpt lat="49.77788" lon="2.33673">
        <ele>114</ele>
        <time>2022-07-13T08:39:30Z</time>
      </trkpt>
      <trkpt lat="49.77788" lon="2.33674">
        <ele>114</ele>
        <time>2022-07-13T08:39:31Z</time>
      </trkpt>
      <trkpt lat="49.77787" lon="2.33675">
        <ele>113.9</ele>
        <time>2022-07-13T08:39:33Z</time>
      </trkpt>
      <trkpt lat="49.77787" lon="2.33677">
        <ele>113.9</ele>
        <time>2022-07-13T08:39:34Z</time>
      </trkpt>
      <trkpt lat="49.77787" lon="2.33678">
        <ele>113.8</ele>
        <time>2022-07-13T08:39:35Z</time>
      </trkpt>
      <trkpt lat="49.77786" lon="2.33679">
        <ele>113.8</ele>
        <time>2022-07-13T08:39:36Z</time>
      </trkpt>
      <trkpt lat="49.77786" lon="2.3368">
        <ele>113.7</ele>
        <time>2022-07-13T08:39:37Z</time>
      </trkpt>
      <trkpt lat="49.77785" lon="2.33683">
        <ele>113.6</ele>
        <time>2022-07-13T08:39:39Z</time>
      </trkpt>
      <trkpt lat="49.77785" lon="2.33684">
        <ele>113.6</ele>
        <time>2022-07-13T08:39:40Z</time>
      </trkpt>
      <trkpt lat="49.77784" lon="2.33685">
        <ele>113.5</ele>
        <time>2022-07-13T08:39:41Z</time>
      </trkpt>
      <trkpt lat="49.77784" lon="2.33686">
        <ele>113.5</ele>
        <time>2022-07-13T08:39:42Z</time>
      </trkpt>
      <trkpt lat="49.77783" lon="2.33687">
        <ele>113.5</ele>
        <time>2022-07-13T08:39:43Z</time>
      </trkpt>
      <trkpt lat="49.77783" lon="2.33688">
        <ele>113.4</ele>
        <time>2022-07-13T08:39:44Z</time>
      </trkpt>
      <trkpt lat="49.77782" lon="2.33689">
        <ele>113.4</ele>
        <time>2022-07-13T08:39:46Z</time>
      </trkpt>
      <trkpt lat="49.77782" lon="2.3369">
        <ele>113.3</ele>
        <time>2022-07-13T08:39:47Z</time>
      </trkpt>
      <trkpt lat="49.77781" lon="2.33691">
        <ele>113.3</ele>
        <time>2022-07-13T08:39:48Z</time>
      </trkpt>
      <trkpt lat="49.77779" lon="2.33694">
        <ele>113.2</ele>
        <time>2022-07-13T08:39:49Z</time>
      </trkpt>
      <trkpt lat="49.77779" lon="2.33694">
        <ele>113.1</ele>
        <time>2022-07-13T08:39:50Z</time>
      </trkpt>
      <trkpt lat="49.77778" lon="2.33695">
        <ele>113.1</ele>
        <time>2022-07-13T08:39:51Z</time>
      </trkpt>
      <trkpt lat="49.77777" lon="2.33697">
        <ele>113</ele>
        <time>2022-07-13T08:39:52Z</time>
      </trkpt>
      <trkpt lat="49.77776" lon="2.33698">
        <ele>112.9</ele>
        <time>2022-07-13T08:39:53Z</time>
      </trkpt>
      <trkpt lat="49.77775" lon="2.33699">
        <ele>112.9</ele>
        <time>2022-07-13T08:39:54Z</time>
      </trkpt>
      <trkpt lat="49.77774" lon="2.33702">
        <ele>112.8</ele>
        <time>2022-07-13T08:39:56Z</time>
      </trkpt>
      <trkpt lat="49.77773" lon="2.33703">
        <ele>112.8</ele>
        <time>2022-07-13T08:39:57Z</time>
      </trkpt>
      <trkpt lat="49.77773" lon="2.33704">
        <ele>112.7</ele>
        <time>2022-07-13T08:39:58Z</time>
      </trkpt>
      <trkpt lat="49.77771" lon="2.33706">
        <ele>112.6</ele>
        <time>2022-07-13T08:39:59Z</time>
      </trkpt>
      <trkpt lat="49.77771" lon="2.33708">
        <ele>112.5</ele>
        <time>2022-07-13T08:40:00Z</time>
      </trkpt>
      <trkpt lat="49.7777" lon="2.33709">
        <ele>112.5</ele>
        <time>2022-07-13T08:40:01Z</time>
      </trkpt>
      <trkpt lat="49.77769" lon="2.33711">
        <ele>112.4</ele>
        <time>2022-07-13T08:40:02Z</time>
      </trkpt>
      <trkpt lat="49.77768" lon="2.33713">
        <ele>112.3</ele>
        <time>2022-07-13T08:40:03Z</time>
      </trkpt>
      <trkpt lat="49.77767" lon="2.33715">
        <ele>112.2</ele>
        <time>2022-07-13T08:40:04Z</time>
      </trkpt>
      <trkpt lat="49.77766" lon="2.33718">
        <ele>112.1</ele>
        <time>2022-07-13T08:40:06Z</time>
      </trkpt>
      <trkpt lat="49.77765" lon="2.33719">
        <ele>112.1</ele>
        <time>2022-07-13T08:40:07Z</time>
      </trkpt>
      <trkpt lat="49.77765" lon="2.3372">
        <ele>112</ele>
        <time>2022-07-13T08:40:08Z</time>
      </trkpt>
      <trkpt lat="49.77763" lon="2.33723">
        <ele>111.9</ele>
        <time>2022-07-13T08:40:09Z</time>
      </trkpt>
      <trkpt lat="49.77763" lon="2.33725">
        <ele>111.8</ele>
        <time>2022-07-13T08:40:10Z</time>
      </trkpt>
      <trkpt lat="49.77761" lon="2.33726">
        <ele>111.7</ele>
        <time>2022-07-13T08:40:12Z</time>
      </trkpt>
      <trkpt lat="49.7776" lon="2.33728">
        <ele>111.6</ele>
        <time>2022-07-13T08:40:13Z</time>
      </trkpt>
      <trkpt lat="49.77758" lon="2.33732">
        <ele>111.4</ele>
        <time>2022-07-13T08:40:14Z</time>
      </trkpt>
      <trkpt lat="49.77758" lon="2.33733">
        <ele>111.4</ele>
        <time>2022-07-13T08:40:15Z</time>
      </trkpt>
      <trkpt lat="49.77757" lon="2.33734">
        <ele>111.3</ele>
        <time>2022-07-13T08:40:17Z</time>
      </trkpt>
      <trkpt lat="49.77756" lon="2.33737">
        <ele>111.2</ele>
        <time>2022-07-13T08:40:18Z</time>
      </trkpt>
      <trkpt lat="49.77755" lon="2.33738">
        <ele>111.1</ele>
        <time>2022-07-13T08:40:19Z</time>
      </trkpt>
      <trkpt lat="49.77754" lon="2.3374">
        <ele>111</ele>
        <time>2022-07-13T08:40:20Z</time>
      </trkpt>
      <trkpt lat="49.77753" lon="2.33741">
        <ele>110.9</ele>
        <time>2022-07-13T08:40:22Z</time>
      </trkpt>
      <trkpt lat="49.77752" lon="2.33744">
        <ele>110.8</ele>
        <time>2022-07-13T08:40:23Z</time>
      </trkpt>
      <trkpt lat="49.77751" lon="2.33745">
        <ele>110.7</ele>
        <time>2022-07-13T08:40:24Z</time>
      </trkpt>
      <trkpt lat="49.7775" lon="2.33746">
        <ele>110.6</ele>
        <time>2022-07-13T08:40:25Z</time>
      </trkpt>
      <trkpt lat="49.77749" lon="2.33747">
        <ele>110.5</ele>
        <time>2022-07-13T08:40:26Z</time>
      </trkpt>
      <trkpt lat="49.77748" lon="2.33748">
        <ele>110.4</ele>
        <time>2022-07-13T08:40:28Z</time>
      </trkpt>
      <trkpt lat="49.77746" lon="2.33751">
        <ele>110.3</ele>
        <time>2022-07-13T08:40:29Z</time>
      </trkpt>
      <trkpt lat="49.77746" lon="2.33751">
        <ele>110.2</ele>
        <time>2022-07-13T08:40:30Z</time>
      </trkpt>
      <trkpt lat="49.77744" lon="2.33753">
        <ele>110.1</ele>
        <time>2022-07-13T08:40:31Z</time>
      </trkpt>
      <trkpt lat="49.77744" lon="2.33754">
        <ele>110</ele>
        <time>2022-07-13T08:40:32Z</time>
      </trkpt>
      <trkpt lat="49.77743" lon="2.33755">
        <ele>110</ele>
        <time>2022-07-13T08:40:33Z</time>
      </trkpt>
      <trkpt lat="49.77742" lon="2.33756">
        <ele>109.9</ele>
        <time>2022-07-13T08:40:34Z</time>
      </trkpt>
      <trkpt lat="49.77742" lon="2.33756">
        <ele>109.8</ele>
        <time>2022-07-13T08:40:35Z</time>
      </trkpt>
      <trkpt lat="49.77741" lon="2.33758">
        <ele>109.7</ele>
        <time>2022-07-13T08:40:36Z</time>
      </trkpt>
      <trkpt lat="49.7774" lon="2.3376">
        <ele>109.6</ele>
        <time>2022-07-13T08:40:38Z</time>
      </trkpt>
      <trkpt lat="49.77738" lon="2.33762">
        <ele>109.5</ele>
        <time>2022-07-13T08:40:39Z</time>
      </trkpt>
      <trkpt lat="49.77737" lon="2.33763">
        <ele>109.4</ele>
        <time>2022-07-13T08:40:40Z</time>
      </trkpt>
      <trkpt lat="49.77736" lon="2.33765">
        <ele>109.3</ele>
        <time>2022-07-13T08:40:41Z</time>
      </trkpt>
      <trkpt lat="49.77735" lon="2.33766">
        <ele>109.2</ele>
        <time>2022-07-13T08:40:42Z</time>
      </trkpt>
      <trkpt lat="49.77734" lon="2.33768">
        <ele>109.1</ele>
        <time>2022-07-13T08:40:44Z</time>
      </trkpt>
      <trkpt lat="49.77733" lon="2.3377">
        <ele>108.9</ele>
        <time>2022-07-13T08:40:45Z</time>
      </trkpt>
      <trkpt lat="49.77732" lon="2.33771">
        <ele>108.8</ele>
        <time>2022-07-13T08:40:46Z</time>
      </trkpt>
      <trkpt lat="49.77731" lon="2.33773">
        <ele>108.7</ele>
        <time>2022-07-13T08:40:47Z</time>
      </trkpt>
      <trkpt lat="49.77731" lon="2.33774">
        <ele>108.7</ele>
        <time>2022-07-13T08:40:48Z</time>
      </trkpt>
      <trkpt lat="49.77729" lon="2.33777">
        <ele>108.5</ele>
        <time>2022-07-13T08:40:50Z</time>
      </trkpt>
      <trkpt lat="49.77729" lon="2.33778">
        <ele>108.4</ele>
        <time>2022-07-13T08:40:51Z</time>
      </trkpt>
      <trkpt lat="49.77727" lon="2.33781">
        <ele>108.3</ele>
        <time>2022-07-13T08:40:52Z</time>
      </trkpt>
      <trkpt lat="49.77727" lon="2.33782">
        <ele>108.2</ele>
        <time>2022-07-13T08:40:53Z</time>
      </trkpt>
      <trkpt lat="49.77726" lon="2.33783">
        <ele>108.1</ele>
        <time>2022-07-13T08:40:54Z</time>
      </trkpt>
      <trkpt lat="49.77725" lon="2.33785">
        <ele>108</ele>
        <time>2022-07-13T08:40:56Z</time>
      </trkpt>
      <trkpt lat="49.77725" lon="2.33786">
        <ele>108</ele>
        <time>2022-07-13T08:40:57Z</time>
      </trkpt>
      <trkpt lat="49.77724" lon="2.33787">
        <ele>107.9</ele>
        <time>2022-07-13T08:40:58Z</time>
      </trkpt>
      <trkpt lat="49.77723" lon="2.33789">
        <ele>107.8</ele>
        <time>2022-07-13T08:40:59Z</time>
      </trkpt>
      <trkpt lat="49.77723" lon="2.33789">
        <ele>107.7</ele>
        <time>2022-07-13T08:41:00Z</time>
      </trkpt>
      <trkpt lat="49.77722" lon="2.3379">
        <ele>107.7</ele>
        <time>2022-07-13T08:41:01Z</time>
      </trkpt>
      <trkpt lat="49.77722" lon="2.33791">
        <ele>107.6</ele>
        <time>2022-07-13T08:41:03Z</time>
      </trkpt>
      <trkpt lat="49.77721" lon="2.33793">
        <ele>107.5</ele>
        <time>2022-07-13T08:41:04Z</time>
      </trkpt>
      <trkpt lat="49.7772" lon="2.33794">
        <ele>107.4</ele>
        <time>2022-07-13T08:41:05Z</time>
      </trkpt>
      <trkpt lat="49.77719" lon="2.33795">
        <ele>107.3</ele>
        <time>2022-07-13T08:41:06Z</time>
      </trkpt>
      <trkpt lat="49.77719" lon="2.33796">
        <ele>107.3</ele>
        <time>2022-07-13T08:41:07Z</time>
      </trkpt>
      <trkpt lat="49.77718" lon="2.33798">
        <ele>107.2</ele>
        <time>2022-07-13T08:41:08Z</time>
      </trkpt>
      <trkpt lat="49.77717" lon="2.33801">
        <ele>107</ele>
        <time>2022-07-13T08:41:09Z</time>
      </trkpt>
      <trkpt lat="49.77716" lon="2.33801">
        <ele>106.9</ele>
        <time>2022-07-13T08:41:10Z</time>
      </trkpt>
      <trkpt lat="49.77716" lon="2.33802">
        <ele>106.9</ele>
        <time>2022-07-13T08:41:11Z</time>
      </trkpt>
      <trkpt lat="49.77715" lon="2.33805">
        <ele>106.7</ele>
        <time>2022-07-13T08:41:12Z</time>
      </trkpt>
      <trkpt lat="49.77714" lon="2.33806">
        <ele>106.7</ele>
        <time>2022-07-13T08:41:13Z</time>
      </trkpt>
      <trkpt lat="49.77714" lon="2.33807">
        <ele>106.6</ele>
        <time>2022-07-13T08:41:14Z</time>
      </trkpt>
      <trkpt lat="49.77713" lon="2.33809">
        <ele>106.4</ele>
        <time>2022-07-13T08:41:15Z</time>
      </trkpt>
      <trkpt lat="49.77712" lon="2.3381">
        <ele>106.4</ele>
        <time>2022-07-13T08:41:17Z</time>
      </trkpt>
      <trkpt lat="49.77711" lon="2.33811">
        <ele>106.3</ele>
        <time>2022-07-13T08:41:18Z</time>
      </trkpt>
      <trkpt lat="49.77711" lon="2.33812">
        <ele>106.2</ele>
        <time>2022-07-13T08:41:19Z</time>
      </trkpt>
      <trkpt lat="49.7771" lon="2.33814">
        <ele>106.1</ele>
        <time>2022-07-13T08:41:20Z</time>
      </trkpt>
      <trkpt lat="49.77709" lon="2.33815">
        <ele>106</ele>
        <time>2022-07-13T08:41:21Z</time>
      </trkpt>
      <trkpt lat="49.77709" lon="2.33815">
        <ele>106</ele>
        <time>2022-07-13T08:41:22Z</time>
      </trkpt>
      <trkpt lat="49.77708" lon="2.33816">
        <ele>105.9</ele>
        <time>2022-07-13T08:41:23Z</time>
      </trkpt>
      <trkpt lat="49.77707" lon="2.33818">
        <ele>105.8</ele>
        <time>2022-07-13T08:41:24Z</time>
      </trkpt>
      <trkpt lat="49.77706" lon="2.3382">
        <ele>105.7</ele>
        <time>2022-07-13T08:41:25Z</time>
      </trkpt>
      <trkpt lat="49.77705" lon="2.33822">
        <ele>105.5</ele>
        <time>2022-07-13T08:41:27Z</time>
      </trkpt>
      <trkpt lat="49.77704" lon="2.33824">
        <ele>105.4</ele>
        <time>2022-07-13T08:41:28Z</time>
      </trkpt>
      <trkpt lat="49.77703" lon="2.33826">
        <ele>105.3</ele>
        <time>2022-07-13T08:41:29Z</time>
      </trkpt>
      <trkpt lat="49.77701" lon="2.3383">
        <ele>105.1</ele>
        <time>2022-07-13T08:41:30Z</time>
      </trkpt>
      <trkpt lat="49.777" lon="2.33831">
        <ele>105</ele>
        <time>2022-07-13T08:41:31Z</time>
      </trkpt>
      <trkpt lat="49.777" lon="2.33833">
        <ele>104.9</ele>
        <time>2022-07-13T08:41:32Z</time>
      </trkpt>
      <trkpt lat="49.77699" lon="2.33834">
        <ele>104.8</ele>
        <time>2022-07-13T08:41:33Z</time>
      </trkpt>
      <trkpt lat="49.77698" lon="2.33836">
        <ele>104.6</ele>
        <time>2022-07-13T08:41:34Z</time>
      </trkpt>
      <trkpt lat="49.77697" lon="2.33838">
        <ele>104.5</ele>
        <time>2022-07-13T08:41:35Z</time>
      </trkpt>
      <trkpt lat="49.77696" lon="2.33839">
        <ele>104.4</ele>
        <time>2022-07-13T08:41:36Z</time>
      </trkpt>
      <trkpt lat="49.77696" lon="2.3384">
        <ele>104.4</ele>
        <time>2022-07-13T08:41:37Z</time>
      </trkpt>
      <trkpt lat="49.77695" lon="2.3384">
        <ele>104.3</ele>
        <time>2022-07-13T08:41:39Z</time>
      </trkpt>
      <trkpt lat="49.77694" lon="2.33842">
        <ele>104.2</ele>
        <time>2022-07-13T08:41:40Z</time>
      </trkpt>
      <trkpt lat="49.77693" lon="2.33843">
        <ele>104.2</ele>
        <time>2022-07-13T08:41:41Z</time>
      </trkpt>
      <trkpt lat="49.77693" lon="2.33845">
        <ele>104.1</ele>
        <time>2022-07-13T08:41:42Z</time>
      </trkpt>
      <trkpt lat="49.77692" lon="2.33846">
        <ele>104</ele>
        <time>2022-07-13T08:41:43Z</time>
      </trkpt>
      <trkpt lat="49.77691" lon="2.33848">
        <ele>103.9</ele>
        <time>2022-07-13T08:41:44Z</time>
      </trkpt>
      <trkpt lat="49.7769" lon="2.3385">
        <ele>103.8</ele>
        <time>2022-07-13T08:41:46Z</time>
      </trkpt>
      <trkpt lat="49.77689" lon="2.33853">
        <ele>103.6</ele>
        <time>2022-07-13T08:41:47Z</time>
      </trkpt>
      <trkpt lat="49.77689" lon="2.33855">
        <ele>103.5</ele>
        <time>2022-07-13T08:41:48Z</time>
      </trkpt>
      <trkpt lat="49.77688" lon="2.33856">
        <ele>103.4</ele>
        <time>2022-07-13T08:41:49Z</time>
      </trkpt>
      <trkpt lat="49.77688" lon="2.33856">
        <ele>103.4</ele>
        <time>2022-07-13T08:41:50Z</time>
      </trkpt>
      <trkpt lat="49.77688" lon="2.33857">
        <ele>103.4</ele>
        <time>2022-07-13T08:41:51Z</time>
      </trkpt>
      <trkpt lat="49.77687" lon="2.3386">
        <ele>103.2</ele>
        <time>2022-07-13T08:41:53Z</time>
      </trkpt>
      <trkpt lat="49.77686" lon="2.33861">
        <ele>103.1</ele>
        <time>2022-07-13T08:41:54Z</time>
      </trkpt>
      <trkpt lat="49.77686" lon="2.33863">
        <ele>103</ele>
        <time>2022-07-13T08:41:55Z</time>
      </trkpt>
      <trkpt lat="49.77685" lon="2.33864">
        <ele>103</ele>
        <time>2022-07-13T08:41:56Z</time>
      </trkpt>
      <trkpt lat="49.77684" lon="2.33866">
        <ele>102.8</ele>
        <time>2022-07-13T08:41:57Z</time>
      </trkpt>
      <trkpt lat="49.77684" lon="2.33867">
        <ele>102.8</ele>
        <time>2022-07-13T08:41:58Z</time>
      </trkpt>
      <trkpt lat="49.77683" lon="2.33869">
        <ele>102.7</ele>
        <time>2022-07-13T08:41:59Z</time>
      </trkpt>
      <trkpt lat="49.77682" lon="2.33871">
        <ele>102.5</ele>
        <time>2022-07-13T08:42:01Z</time>
      </trkpt>
      <trkpt lat="49.77682" lon="2.33873">
        <ele>102.4</ele>
        <time>2022-07-13T08:42:02Z</time>
      </trkpt>
      <trkpt lat="49.77681" lon="2.33875">
        <ele>102.3</ele>
        <time>2022-07-13T08:42:03Z</time>
      </trkpt>
      <trkpt lat="49.7768" lon="2.33877">
        <ele>102.2</ele>
        <time>2022-07-13T08:42:04Z</time>
      </trkpt>
      <trkpt lat="49.7768" lon="2.33879">
        <ele>102.1</ele>
        <time>2022-07-13T08:42:05Z</time>
      </trkpt>
      <trkpt lat="49.77679" lon="2.33882">
        <ele>102</ele>
        <time>2022-07-13T08:42:06Z</time>
      </trkpt>
      <trkpt lat="49.77678" lon="2.33884">
        <ele>101.9</ele>
        <time>2022-07-13T08:42:07Z</time>
      </trkpt>
      <trkpt lat="49.77678" lon="2.33886">
        <ele>101.8</ele>
        <time>2022-07-13T08:42:08Z</time>
      </trkpt>
      <trkpt lat="49.77677" lon="2.33888">
        <ele>101.7</ele>
        <time>2022-07-13T08:42:09Z</time>
      </trkpt>
      <trkpt lat="49.77676" lon="2.3389">
        <ele>101.7</ele>
        <time>2022-07-13T08:42:10Z</time>
      </trkpt>
      <trkpt lat="49.77676" lon="2.33892">
        <ele>101.6</ele>
        <time>2022-07-13T08:42:12Z</time>
      </trkpt>
      <trkpt lat="49.77675" lon="2.33894">
        <ele>101.6</ele>
        <time>2022-07-13T08:42:13Z</time>
      </trkpt>
      <trkpt lat="49.77674" lon="2.33896">
        <ele>101.5</ele>
        <time>2022-07-13T08:42:14Z</time>
      </trkpt>
      <trkpt lat="49.77674" lon="2.33898">
        <ele>101.5</ele>
        <time>2022-07-13T08:42:15Z</time>
      </trkpt>
      <trkpt lat="49.77674" lon="2.33899">
        <ele>101.5</ele>
        <time>2022-07-13T08:42:16Z</time>
      </trkpt>
      <trkpt lat="49.77674" lon="2.339">
        <ele>101.4</ele>
        <time>2022-07-13T08:42:17Z</time>
      </trkpt>
      <trkpt lat="49.77674" lon="2.33901">
        <ele>101.4</ele>
        <time>2022-07-13T08:42:18Z</time>
      </trkpt>
      <trkpt lat="49.77673" lon="2.33904">
        <ele>101.4</ele>
        <time>2022-07-13T08:42:20Z</time>
      </trkpt>
      <trkpt lat="49.77673" lon="2.33905">
        <ele>101.3</ele>
        <time>2022-07-13T08:42:21Z</time>
      </trkpt>
      <trkpt lat="49.77672" lon="2.33908">
        <ele>101.3</ele>
        <time>2022-07-13T08:42:22Z</time>
      </trkpt>
      <trkpt lat="49.77672" lon="2.33909">
        <ele>101.2</ele>
        <time>2022-07-13T08:42:23Z</time>
      </trkpt>
      <trkpt lat="49.77672" lon="2.33911">
        <ele>101.2</ele>
        <time>2022-07-13T08:42:24Z</time>
      </trkpt>
      <trkpt lat="49.77672" lon="2.33913">
        <ele>101.2</ele>
        <time>2022-07-13T08:42:25Z</time>
      </trkpt>
      <trkpt lat="49.77671" lon="2.33916">
        <ele>101.1</ele>
        <time>2022-07-13T08:42:27Z</time>
      </trkpt>
      <trkpt lat="49.77671" lon="2.33918">
        <ele>101</ele>
        <time>2022-07-13T08:42:28Z</time>
      </trkpt>
      <trkpt lat="49.77671" lon="2.3392">
        <ele>101</ele>
        <time>2022-07-13T08:42:29Z</time>
      </trkpt>
      <trkpt lat="49.7767" lon="2.33922">
        <ele>100.9</ele>
        <time>2022-07-13T08:42:30Z</time>
      </trkpt>
      <trkpt lat="49.7767" lon="2.33923">
        <ele>100.9</ele>
        <time>2022-07-13T08:42:31Z</time>
      </trkpt>
      <trkpt lat="49.77669" lon="2.33923">
        <ele>100.9</ele>
        <time>2022-07-13T08:42:32Z</time>
      </trkpt>
      <trkpt lat="49.77669" lon="2.33924">
        <ele>100.8</ele>
        <time>2022-07-13T08:42:33Z</time>
      </trkpt>
      <trkpt lat="49.77669" lon="2.33926">
        <ele>100.8</ele>
        <time>2022-07-13T08:42:34Z</time>
      </trkpt>
      <trkpt lat="49.77668" lon="2.33928">
        <ele>100.8</ele>
        <time>2022-07-13T08:42:35Z</time>
      </trkpt>
      <trkpt lat="49.77668" lon="2.33929">
        <ele>100.7</ele>
        <time>2022-07-13T08:42:36Z</time>
      </trkpt>
      <trkpt lat="49.77667" lon="2.3393">
        <ele>100.7</ele>
        <time>2022-07-13T08:42:37Z</time>
      </trkpt>
      <trkpt lat="49.77666" lon="2.33932">
        <ele>100.6</ele>
        <time>2022-07-13T08:42:38Z</time>
      </trkpt>
      <trkpt lat="49.77665" lon="2.33936">
        <ele>100.5</ele>
        <time>2022-07-13T08:42:40Z</time>
      </trkpt>
      <trkpt lat="49.77665" lon="2.33937">
        <ele>100.5</ele>
        <time>2022-07-13T08:42:41Z</time>
      </trkpt>
      <trkpt lat="49.77664" lon="2.33939">
        <ele>100.5</ele>
        <time>2022-07-13T08:42:42Z</time>
      </trkpt>
      <trkpt lat="49.77664" lon="2.3394">
        <ele>100.4</ele>
        <time>2022-07-13T08:42:43Z</time>
      </trkpt>
      <trkpt lat="49.77663" lon="2.33941">
        <ele>100.4</ele>
        <time>2022-07-13T08:42:44Z</time>
      </trkpt>
      <trkpt lat="49.77662" lon="2.33944">
        <ele>100.3</ele>
        <time>2022-07-13T08:42:45Z</time>
      </trkpt>
      <trkpt lat="49.77661" lon="2.33946">
        <ele>100.3</ele>
        <time>2022-07-13T08:42:47Z</time>
      </trkpt>
      <trkpt lat="49.7766" lon="2.33948">
        <ele>100.2</ele>
        <time>2022-07-13T08:42:48Z</time>
      </trkpt>
      <trkpt lat="49.7766" lon="2.33949">
        <ele>100.2</ele>
        <time>2022-07-13T08:42:49Z</time>
      </trkpt>
      <trkpt lat="49.77659" lon="2.33951">
        <ele>100.1</ele>
        <time>2022-07-13T08:42:50Z</time>
      </trkpt>
      <trkpt lat="49.77659" lon="2.33953">
        <ele>100.1</ele>
        <time>2022-07-13T08:42:51Z</time>
      </trkpt>
      <trkpt lat="49.77658" lon="2.33954">
        <ele>100</ele>
        <time>2022-07-13T08:42:52Z</time>
      </trkpt>
      <trkpt lat="49.77658" lon="2.33957">
        <ele>100</ele>
        <time>2022-07-13T08:42:54Z</time>
      </trkpt>
      <trkpt lat="49.77657" lon="2.3396">
        <ele>99.9</ele>
        <time>2022-07-13T08:42:55Z</time>
      </trkpt>
      <trkpt lat="49.77656" lon="2.33962">
        <ele>99.8</ele>
        <time>2022-07-13T08:42:56Z</time>
      </trkpt>
      <trkpt lat="49.77656" lon="2.33965">
        <ele>99.8</ele>
        <time>2022-07-13T08:42:57Z</time>
      </trkpt>
      <trkpt lat="49.77656" lon="2.33967">
        <ele>99.6</ele>
        <time>2022-07-13T08:42:58Z</time>
      </trkpt>
      <trkpt lat="49.77656" lon="2.33968">
        <ele>99.6</ele>
        <time>2022-07-13T08:42:59Z</time>
      </trkpt>
      <trkpt lat="49.77655" lon="2.33971">
        <ele>99.5</ele>
        <time>2022-07-13T08:43:01Z</time>
      </trkpt>
      <trkpt lat="49.77655" lon="2.33972">
        <ele>99.5</ele>
        <time>2022-07-13T08:43:02Z</time>
      </trkpt>
      <trkpt lat="49.77655" lon="2.33974">
        <ele>99.4</ele>
        <time>2022-07-13T08:43:03Z</time>
      </trkpt>
      <trkpt lat="49.77655" lon="2.33977">
        <ele>99.3</ele>
        <time>2022-07-13T08:43:04Z</time>
      </trkpt>
      <trkpt lat="49.77655" lon="2.33979">
        <ele>99.2</ele>
        <time>2022-07-13T08:43:05Z</time>
      </trkpt>
      <trkpt lat="49.77655" lon="2.33981">
        <ele>99.2</ele>
        <time>2022-07-13T08:43:06Z</time>
      </trkpt>
      <trkpt lat="49.77655" lon="2.33983">
        <ele>99.1</ele>
        <time>2022-07-13T08:43:08Z</time>
      </trkpt>
      <trkpt lat="49.77655" lon="2.33986">
        <ele>99</ele>
        <time>2022-07-13T08:43:09Z</time>
      </trkpt>
      <trkpt lat="49.77654" lon="2.33989">
        <ele>98.9</ele>
        <time>2022-07-13T08:43:10Z</time>
      </trkpt>
      <trkpt lat="49.77654" lon="2.33992">
        <ele>98.8</ele>
        <time>2022-07-13T08:43:11Z</time>
      </trkpt>
      <trkpt lat="49.77654" lon="2.33993">
        <ele>98.8</ele>
        <time>2022-07-13T08:43:12Z</time>
      </trkpt>
      <trkpt lat="49.77654" lon="2.33995">
        <ele>98.7</ele>
        <time>2022-07-13T08:43:13Z</time>
      </trkpt>
      <trkpt lat="49.77654" lon="2.33998">
        <ele>98.6</ele>
        <time>2022-07-13T08:43:14Z</time>
      </trkpt>
      <trkpt lat="49.77654" lon="2.34">
        <ele>98.5</ele>
        <time>2022-07-13T08:43:15Z</time>
      </trkpt>
      <trkpt lat="49.77654" lon="2.34002">
        <ele>98.5</ele>
        <time>2022-07-13T08:43:16Z</time>
      </trkpt>
      <trkpt lat="49.77654" lon="2.34005">
        <ele>98.4</ele>
        <time>2022-07-13T08:43:18Z</time>
      </trkpt>
      <trkpt lat="49.77654" lon="2.34006">
        <ele>98.3</ele>
        <time>2022-07-13T08:43:19Z</time>
      </trkpt>
      <trkpt lat="49.77654" lon="2.34008">
        <ele>98.3</ele>
        <time>2022-07-13T08:43:20Z</time>
      </trkpt>
      <trkpt lat="49.77654" lon="2.34011">
        <ele>98.1</ele>
        <time>2022-07-13T08:43:21Z</time>
      </trkpt>
      <trkpt lat="49.77654" lon="2.34013">
        <ele>98.1</ele>
        <time>2022-07-13T08:43:22Z</time>
      </trkpt>
      <trkpt lat="49.77654" lon="2.34014">
        <ele>98</ele>
        <time>2022-07-13T08:43:23Z</time>
      </trkpt>
      <trkpt lat="49.77654" lon="2.34018">
        <ele>97.9</ele>
        <time>2022-07-13T08:43:25Z</time>
      </trkpt>
      <trkpt lat="49.77655" lon="2.3402">
        <ele>97.8</ele>
        <time>2022-07-13T08:43:26Z</time>
      </trkpt>
      <trkpt lat="49.77654" lon="2.34023">
        <ele>97.7</ele>
        <time>2022-07-13T08:43:27Z</time>
      </trkpt>
      <trkpt lat="49.77654" lon="2.34024">
        <ele>97.6</ele>
        <time>2022-07-13T08:43:28Z</time>
      </trkpt>
      <trkpt lat="49.77654" lon="2.34025">
        <ele>97.6</ele>
        <time>2022-07-13T08:43:29Z</time>
      </trkpt>
      <trkpt lat="49.77654" lon="2.34027">
        <ele>97.5</ele>
        <time>2022-07-13T08:43:30Z</time>
      </trkpt>
      <trkpt lat="49.77615" lon="2.36958">
        <ele>44</ele>
        <time>2022-07-13T09:21:22Z</time>
      </trkpt>
      <trkpt lat="49.77615" lon="2.36958">
        <ele>44</ele>
        <time>2022-07-13T09:21:23Z</time>
      </trkpt>
      <trkpt lat="49.77615" lon="2.36958">
        <ele>44</ele>
        <time>2022-07-13T09:21:24Z</time>
      </trkpt>
      <trkpt lat="49.77615" lon="2.36958">
        <ele>44</ele>
        <time>2022-07-13T09:21:25Z</time>
      </trkpt>
      <trkpt lat="49.77615" lon="2.36958">
        <ele>44</ele>
        <time>2022-07-13T09:21:26Z</time>
      </trkpt>
      <trkpt lat="49.77615" lon="2.36958">
        <ele>44</ele>
        <time>2022-07-13T09:21:27Z</time>
      </trkpt>
      <trkpt lat="49.77615" lon="2.36958">
        <ele>44</ele>
        <time>2022-07-13T09:21:28Z</time>
      </trkpt>
      <trkpt lat="49.77615" lon="2.36958">
        <ele>44</ele>
        <time>2022-07-13T09:21:29Z</time>
      </trkpt>
      <trkpt lat="49.77615" lon="2.36958">
        <ele>44</ele>
        <time>2022-07-13T09:21:30Z</time>
      </trkpt>
      <trkpt lat="49.77615" lon="2.36958">
        <ele>44</ele>
        <time>2022-07-13T09:21:31Z</time>
      </trkpt>
      <trkpt lat="49.77615" lon="2.36958">
        <ele>44</ele>
        <time>2022-07-13T09:21:32Z</time>
      </trkpt>
      <trkpt lat="49.77615" lon="2.36958">
        <ele>44</ele>
        <time>2022-07-13T09:21:33Z</time>
      </trkpt>
      <trkpt lat="49.77615" lon="2.36958">
        <ele>44</ele>
        <time>2022-07-13T09:21:34Z</time>
      </trkpt>
      <trkpt lat="49.77615" lon="2.36958">
        <ele>44</ele>
        <time>2022-07-13T09:21:35Z</time>
      </trkpt>
      <trkpt lat="49.77615" lon="2.36958">
        <ele>44</ele>
        <time>2022-07-13T09:21:36Z</time>
      </trkpt>
      <trkpt lat="49.77615" lon="2.36958">
        <ele>44</ele>
        <time>2022-07-13T09:21:37Z</time>
      </trkpt>
      <trkpt lat="49.77615" lon="2.36958">
        <ele>44</ele>
        <time>2022-07-13T09:21:38Z</time>
      </trkpt>
      <trkpt lat="49.77615" lon="2.36958">
        <ele>44</ele>
        <time>2022-07-13T09:21:39Z</time>
      </trkpt>
      <trkpt lat="49.77615" lon="2.36958">
        <ele>44</ele>
        <time>2022-07-13T09:21:40Z</time>
      </trkpt>
      <trkpt lat="49.77615" lon="2.36958">
        <ele>44</ele>
        <time>2022-07-13T09:21:41Z</time>
      </trkpt>
      <trkpt lat="49.77615" lon="2.36958">
        <ele>44</ele>
        <time>2022-07-13T09:21:42Z</time>
      </trkpt>
      <trkpt lat="49.77615" lon="2.36958">
        <ele>44</ele>
        <time>2022-07-13T09:21:43Z</time>
      </trkpt>
      <trkpt lat="49.77615" lon="2.36958">
        <ele>44</ele>
        <time>2022-07-13T09:21:44Z</time>
      </trkpt>
      <trkpt lat="49.77615" lon="2.36958">
        <ele>44</ele>
        <time>2022-07-13T09:21:45Z</time>
      </trkpt>
      <trkpt lat="49.77615" lon="2.36958">
        <ele>44</ele>
        <time>2022-07-13T09:21:46Z</time>
      </trkpt>
      <trkpt lat="49.77615" lon="2.36958">
        <ele>44</ele>
        <time>2022-07-13T09:21:47Z</time>
      </trkpt>
      <trkpt lat="49.77615" lon="2.36958">
        <ele>44</ele>
        <time>2022-07-13T09:21:48Z</time>
      </trkpt>
      <trkpt lat="49.77615" lon="2.36958">
        <ele>44</ele>
        <time>2022-07-13T09:21:49Z</time>
      </trkpt>
      <trkpt lat="49.77615" lon="2.36958">
        <ele>44</ele>
        <time>2022-07-13T09:21:50Z</time>
      </trkpt>
      <trkpt lat="49.77615" lon="2.36958">
        <ele>44</ele>
        <time>2022-07-13T09:21:51Z</time>
      </trkpt>
      <trkpt lat="49.77615" lon="2.36958">
        <ele>44</ele>
        <time>2022-07-13T09:21:52Z</time>
      </trkpt>
      <trkpt lat="49.77615" lon="2.36958">
        <ele>44</ele>
        <time>2022-07-13T09:21:53Z</time>
      </trkpt>
      <trkpt lat="49.77615" lon="2.36958">
        <ele>44</ele>
        <time>2022-07-13T09:21:54Z</time>
      </trkpt>
      <trkpt lat="49.77615" lon="2.36958">
        <ele>44</ele>
        <time>2022-07-13T09:21:55Z</time>
      </trkpt>
      <trkpt lat="49.77615" lon="2.36958">
        <ele>44</ele>
        <time>2022-07-13T09:21:56Z</time>
      </trkpt>
      <trkpt lat="49.77615" lon="2.36958">
        <ele>44</ele>
        <time>2022-07-13T09:21:57Z</time>
      </trkpt>
      <trkpt lat="49.77615" lon="2.36958">
        <ele>44</ele>
        <time>2022-07-13T09:21:58Z</time>
      </trkpt>
      <trkpt lat="49.77615" lon="2.36958">
        <ele>44</ele>
        <time>2022-07-13T09:21:59Z</time>
      </trkpt>
      <trkpt lat="49.77615" lon="2.36959">
        <ele>44</ele>
        <time>2022-07-13T09:22:00Z</time>
      </trkpt>
      <trkpt lat="49.77615" lon="2.3696">
        <ele>44</ele>
        <time>2022-07-13T09:22:01Z</time>
      </trkpt>
      <trkpt lat="49.77615" lon="2.36961">
        <ele>44</ele>
        <time>2022-07-13T09:22:02Z</time>
      </trkpt>
      <trkpt lat="49.77615" lon="2.36962">
        <ele>44</ele>
        <time>2022-07-13T09:22:03Z</time>
      </trkpt>
      <trkpt lat="49.77615" lon="2.36962">
        <ele>44</ele>
        <time>2022-07-13T09:22:04Z</time>
      </trkpt>
      <trkpt lat="49.77615" lon="2.36963">
        <ele>44</ele>
        <time>2022-07-13T09:22:05Z</time>
      </trkpt>
      <trkpt lat="49.77615" lon="2.36964">
        <ele>44</ele>
        <time>2022-07-13T09:22:06Z</time>
      </trkpt>
      <trkpt lat="49.77615" lon="2.36965">
        <ele>44</ele>
        <time>2022-07-13T09:22:07Z</time>
      </trkpt>
      <trkpt lat="49.77615" lon="2.36965">
        <ele>44</ele>
        <time>2022-07-13T09:22:08Z</time>
      </trkpt>
      <trkpt lat="49.77615" lon="2.36966">
        <ele>44</ele>
        <time>2022-07-13T09:22:09Z</time>
      </trkpt>
      <trkpt lat="49.77614" lon="2.36967">
        <ele>44</ele>
        <time>2022-07-13T09:22:10Z</time>
      </trkpt>
      <trkpt lat="49.77614" lon="2.36968">
        <ele>44</ele>
        <time>2022-07-13T09:22:11Z</time>
      </trkpt>
      <trkpt lat="49.77614" lon="2.3697">
        <ele>44</ele>
        <time>2022-07-13T09:22:12Z</time>
      </trkpt>
      <trkpt lat="49.77613" lon="2.36972">
        <ele>44</ele>
        <time>2022-07-13T09:22:13Z</time>
      </trkpt>
      <trkpt lat="49.77613" lon="2.36974">
        <ele>44</ele>
        <time>2022-07-13T09:22:14Z</time>
      </trkpt>
      <trkpt lat="49.77613" lon="2.36976">
        <ele>44</ele>
        <time>2022-07-13T09:22:15Z</time>
      </trkpt>
      <trkpt lat="49.77612" lon="2.36977">
        <ele>44</ele>
        <time>2022-07-13T09:22:17Z</time>
      </trkpt>
      <trkpt lat="49.77612" lon="2.36977">
        <ele>44</ele>
        <time>2022-07-13T09:22:18Z</time>
      </trkpt>
      <trkpt lat="49.77611" lon="2.36979">
        <ele>44</ele>
        <time>2022-07-13T09:22:19Z</time>
      </trkpt>
      <trkpt lat="49.7761" lon="2.36981">
        <ele>44</ele>
        <time>2022-07-13T09:22:20Z</time>
      </trkpt>
      <trkpt lat="49.7761" lon="2.36983">
        <ele>44</ele>
        <time>2022-07-13T09:22:21Z</time>
      </trkpt>
      <trkpt lat="49.7761" lon="2.36984">
        <ele>44</ele>
        <time>2022-07-13T09:22:22Z</time>
      </trkpt>
      <trkpt lat="49.7761" lon="2.36986">
        <ele>44</ele>
        <time>2022-07-13T09:22:24Z</time>
      </trkpt>
      <trkpt lat="49.77609" lon="2.36988">
        <ele>44</ele>
        <time>2022-07-13T09:22:25Z</time>
      </trkpt>
      <trkpt lat="49.77609" lon="2.3699">
        <ele>44</ele>
        <time>2022-07-13T09:22:26Z</time>
      </trkpt>
      <trkpt lat="49.77609" lon="2.36992">
        <ele>44</ele>
        <time>2022-07-13T09:22:28Z</time>
      </trkpt>
      <trkpt lat="49.77608" lon="2.36994">
        <ele>44</ele>
        <time>2022-07-13T09:22:29Z</time>
      </trkpt>
      <trkpt lat="49.77608" lon="2.36995">
        <ele>44</ele>
        <time>2022-07-13T09:22:30Z</time>
      </trkpt>
      <trkpt lat="49.77608" lon="2.36996">
        <ele>44</ele>
        <time>2022-07-13T09:22:31Z</time>
      </trkpt>
      <trkpt lat="49.77608" lon="2.36995">
        <ele>44</ele>
        <time>2022-07-13T09:22:32Z</time>
      </trkpt>
      <trkpt lat="49.77608" lon="2.36994">
        <ele>44</ele>
        <time>2022-07-13T09:22:33Z</time>
      </trkpt>
      <trkpt lat="49.77607" lon="2.36994">
        <ele>44</ele>
        <time>2022-07-13T09:22:35Z</time>
      </trkpt>
      <trkpt lat="49.77607" lon="2.36994">
        <ele>44</ele>
        <time>2022-07-13T09:22:36Z</time>
      </trkpt>
      <trkpt lat="49.77607" lon="2.36994">
        <ele>44</ele>
        <time>2022-07-13T09:22:37Z</time>
      </trkpt>
      <trkpt lat="49.77607" lon="2.36994">
        <ele>44</ele>
        <time>2022-07-13T09:22:38Z</time>
      </trkpt>
      <trkpt lat="49.77607" lon="2.36994">
        <ele>44</ele>
        <time>2022-07-13T09:22:39Z</time>
      </trkpt>
      <trkpt lat="49.77607" lon="2.36995">
        <ele>44</ele>
        <time>2022-07-13T09:22:40Z</time>
      </trkpt>
      <trkpt lat="49.77607" lon="2.36994">
        <ele>44</ele>
        <time>2022-07-13T09:22:41Z</time>
      </trkpt>
      <trkpt lat="49.77607" lon="2.36995">
        <ele>44</ele>
        <time>2022-07-13T09:22:43Z</time>
      </trkpt>
      <trkpt lat="49.77607" lon="2.36994">
        <ele>44</ele>
        <time>2022-07-13T09:22:44Z</time>
      </trkpt>
      <trkpt lat="49.77607" lon="2.36994">
        <ele>44</ele>
        <time>2022-07-13T09:22:45Z</time>
      </trkpt>
      <trkpt lat="49.77608" lon="2.36994">
        <ele>44</ele>
        <time>2022-07-13T09:22:46Z</time>
      </trkpt>
      <trkpt lat="49.77608" lon="2.36995">
        <ele>44</ele>
        <time>2022-07-13T09:22:47Z</time>
      </trkpt>
      <trkpt lat="49.77608" lon="2.36996">
        <ele>44</ele>
        <time>2022-07-13T09:22:49Z</time>
      </trkpt>
      <trkpt lat="49.77609" lon="2.36997">
        <ele>44</ele>
        <time>2022-07-13T09:22:50Z</time>
      </trkpt>
      <trkpt lat="49.77611" lon="2.37">
        <ele>44</ele>
        <time>2022-07-13T09:22:51Z</time>
      </trkpt>
      <trkpt lat="49.77612" lon="2.37002">
        <ele>44</ele>
        <time>2022-07-13T09:22:53Z</time>
      </trkpt>
      <trkpt lat="49.77613" lon="2.37004">
        <ele>43.9</ele>
        <time>2022-07-13T09:22:54Z</time>
      </trkpt>
      <trkpt lat="49.77614" lon="2.37005">
        <ele>43.9</ele>
        <time>2022-07-13T09:22:55Z</time>
      </trkpt>
      <trkpt lat="49.77615" lon="2.37007">
        <ele>43.9</ele>
        <time>2022-07-13T09:22:56Z</time>
      </trkpt>
      <trkpt lat="49.77616" lon="2.37009">
        <ele>43.9</ele>
        <time>2022-07-13T09:22:57Z</time>
      </trkpt>
      <trkpt lat="49.77617" lon="2.37011">
        <ele>43.9</ele>
        <time>2022-07-13T09:22:58Z</time>
      </trkpt>
      <trkpt lat="49.77617" lon="2.37013">
        <ele>43.9</ele>
        <time>2022-07-13T09:22:59Z</time>
      </trkpt>
      <trkpt lat="49.77619" lon="2.37017">
        <ele>43.9</ele>
        <time>2022-07-13T09:23:00Z</time>
      </trkpt>
      <trkpt lat="49.77619" lon="2.37018">
        <ele>43.8</ele>
        <time>2022-07-13T09:23:02Z</time>
      </trkpt>
      <trkpt lat="49.7762" lon="2.3702">
        <ele>43.8</ele>
        <time>2022-07-13T09:23:03Z</time>
      </trkpt>
      <trkpt lat="49.7762" lon="2.37021">
        <ele>43.8</ele>
        <time>2022-07-13T09:23:04Z</time>
      </trkpt>
      <trkpt lat="49.77621" lon="2.37023">
        <ele>43.8</ele>
        <time>2022-07-13T09:23:05Z</time>
      </trkpt>
      <trkpt lat="49.77621" lon="2.37024">
        <ele>43.8</ele>
        <time>2022-07-13T09:23:06Z</time>
      </trkpt>
      <trkpt lat="49.77621" lon="2.37026">
        <ele>43.8</ele>
        <time>2022-07-13T09:23:07Z</time>
      </trkpt>
      <trkpt lat="49.77622" lon="2.37027">
        <ele>43.8</ele>
        <time>2022-07-13T09:23:08Z</time>
      </trkpt>
      <trkpt lat="49.77622" lon="2.37029">
        <ele>43.8</ele>
        <time>2022-07-13T09:23:09Z</time>
      </trkpt>
      <trkpt lat="49.77622" lon="2.37029">
        <ele>43.8</ele>
        <time>2022-07-13T09:23:10Z</time>
      </trkpt>
      <trkpt lat="49.77622" lon="2.3703">
        <ele>43.7</ele>
        <time>2022-07-13T09:23:11Z</time>
      </trkpt>
      <trkpt lat="49.77623" lon="2.37032">
        <ele>43.7</ele>
        <time>2022-07-13T09:23:13Z</time>
      </trkpt>
      <trkpt lat="49.77624" lon="2.37034">
        <ele>43.7</ele>
        <time>2022-07-13T09:23:14Z</time>
      </trkpt>
      <trkpt lat="49.77625" lon="2.37036">
        <ele>43.7</ele>
        <time>2022-07-13T09:23:15Z</time>
      </trkpt>
      <trkpt lat="49.77626" lon="2.37038">
        <ele>43.7</ele>
        <time>2022-07-13T09:23:16Z</time>
      </trkpt>
      <trkpt lat="49.77626" lon="2.37039">
        <ele>43.6</ele>
        <time>2022-07-13T09:23:17Z</time>
      </trkpt>
      <trkpt lat="49.77627" lon="2.37041">
        <ele>43.6</ele>
        <time>2022-07-13T09:23:18Z</time>
      </trkpt>
      <trkpt lat="49.77628" lon="2.37043">
        <ele>43.6</ele>
        <time>2022-07-13T09:23:19Z</time>
      </trkpt>
      <trkpt lat="49.77629" lon="2.37045">
        <ele>43.6</ele>
        <time>2022-07-13T09:23:20Z</time>
      </trkpt>
      <trkpt lat="49.7763" lon="2.37046">
        <ele>43.6</ele>
        <time>2022-07-13T09:23:21Z</time>
      </trkpt>
      <trkpt lat="49.77631" lon="2.37048">
        <ele>43.5</ele>
        <time>2022-07-13T09:23:22Z</time>
      </trkpt>
      <trkpt lat="49.77632" lon="2.3705">
        <ele>43.5</ele>
        <time>2022-07-13T09:23:24Z</time>
      </trkpt>
      <trkpt lat="49.77633" lon="2.37052">
        <ele>43.5</ele>
        <time>2022-07-13T09:23:25Z</time>
      </trkpt>
      <trkpt lat="49.77633" lon="2.37053">
        <ele>43.5</ele>
        <time>2022-07-13T09:23:26Z</time>
      </trkpt>
      <trkpt lat="49.77635" lon="2.37056">
        <ele>43.5</ele>
        <time>2022-07-13T09:23:27Z</time>
      </trkpt>
      <trkpt lat="49.77635" lon="2.37057">
        <ele>43.5</ele>
        <time>2022-07-13T09:23:28Z</time>
      </trkpt>
      <trkpt lat="49.77635" lon="2.37058">
        <ele>43.4</ele>
        <time>2022-07-13T09:23:29Z</time>
      </trkpt>
      <trkpt lat="49.77636" lon="2.37061">
        <ele>43.4</ele>
        <time>2022-07-13T09:23:31Z</time>
      </trkpt>
      <trkpt lat="49.77637" lon="2.37063">
        <ele>43.4</ele>
        <time>2022-07-13T09:23:32Z</time>
      </trkpt>
      <trkpt lat="49.77637" lon="2.37065">
        <ele>43.4</ele>
        <time>2022-07-13T09:23:33Z</time>
      </trkpt>
      <trkpt lat="49.77637" lon="2.37066">
        <ele>43.4</ele>
        <time>2022-07-13T09:23:34Z</time>
      </trkpt>
      <trkpt lat="49.77638" lon="2.37067">
        <ele>43.4</ele>
        <time>2022-07-13T09:23:35Z</time>
      </trkpt>
      <trkpt lat="49.77638" lon="2.37069">
        <ele>43.4</ele>
        <time>2022-07-13T09:23:36Z</time>
      </trkpt>
      <trkpt lat="49.77638" lon="2.3707">
        <ele>43.4</ele>
        <time>2022-07-13T09:23:37Z</time>
      </trkpt>
      <trkpt lat="49.77639" lon="2.37072">
        <ele>43.4</ele>
        <time>2022-07-13T09:23:38Z</time>
      </trkpt>
      <trkpt lat="49.77639" lon="2.37073">
        <ele>43.3</ele>
        <time>2022-07-13T09:23:39Z</time>
      </trkpt>
      <trkpt lat="49.7764" lon="2.37076">
        <ele>43.3</ele>
        <time>2022-07-13T09:23:41Z</time>
      </trkpt>
      <trkpt lat="49.77641" lon="2.37079">
        <ele>43.3</ele>
        <time>2022-07-13T09:23:42Z</time>
      </trkpt>
      <trkpt lat="49.77641" lon="2.3708">
        <ele>43.3</ele>
        <time>2022-07-13T09:23:43Z</time>
      </trkpt>
      <trkpt lat="49.77642" lon="2.37082">
        <ele>43.3</ele>
        <time>2022-07-13T09:23:44Z</time>
      </trkpt>
      <trkpt lat="49.77643" lon="2.37083">
        <ele>43.3</ele>
        <time>2022-07-13T09:23:45Z</time>
      </trkpt>
      <trkpt lat="49.77643" lon="2.37085">
        <ele>43.3</ele>
        <time>2022-07-13T09:23:46Z</time>
      </trkpt>
      <trkpt lat="49.77644" lon="2.37088">
        <ele>43.3</ele>
        <time>2022-07-13T09:23:48Z</time>
      </trkpt>
      <trkpt lat="49.77644" lon="2.3709">
        <ele>43.3</ele>
        <time>2022-07-13T09:23:49Z</time>
      </trkpt>
      <trkpt lat="49.77645" lon="2.37094">
        <ele>43.3</ele>
        <time>2022-07-13T09:23:50Z</time>
      </trkpt>
      <trkpt lat="49.77645" lon="2.37095">
        <ele>43.3</ele>
        <time>2022-07-13T09:23:51Z</time>
      </trkpt>
      <trkpt lat="49.77645" lon="2.37097">
        <ele>43.2</ele>
        <time>2022-07-13T09:23:52Z</time>
      </trkpt>
      <trkpt lat="49.77645" lon="2.37099">
        <ele>43.2</ele>
        <time>2022-07-13T09:23:53Z</time>
      </trkpt>
      <trkpt lat="49.77646" lon="2.371">
        <ele>43.2</ele>
        <time>2022-07-13T09:23:54Z</time>
      </trkpt>
      <trkpt lat="49.77646" lon="2.37102">
        <ele>43.2</ele>
        <time>2022-07-13T09:23:55Z</time>
      </trkpt>
      <trkpt lat="49.77646" lon="2.37106">
        <ele>43.2</ele>
        <time>2022-07-13T09:23:56Z</time>
      </trkpt>
      <trkpt lat="49.77646" lon="2.37108">
        <ele>43.2</ele>
        <time>2022-07-13T09:23:58Z</time>
      </trkpt>
      <trkpt lat="49.77646" lon="2.37109">
        <ele>43.2</ele>
        <time>2022-07-13T09:23:59Z</time>
      </trkpt>
      <trkpt lat="49.77647" lon="2.37111">
        <ele>43.2</ele>
        <time>2022-07-13T09:24:00Z</time>
      </trkpt>
      <trkpt lat="49.77647" lon="2.37113">
        <ele>43.2</ele>
        <time>2022-07-13T09:24:01Z</time>
      </trkpt>
      <trkpt lat="49.77647" lon="2.37116">
        <ele>43.2</ele>
        <time>2022-07-13T09:24:02Z</time>
      </trkpt>
      <trkpt lat="49.77648" lon="2.37117">
        <ele>43.2</ele>
        <time>2022-07-13T09:24:03Z</time>
      </trkpt>
      <trkpt lat="49.77648" lon="2.3712">
        <ele>43.2</ele>
        <time>2022-07-13T09:24:04Z</time>
      </trkpt>
      <trkpt lat="49.77649" lon="2.37121">
        <ele>43.2</ele>
        <time>2022-07-13T09:24:06Z</time>
      </trkpt>
      <trkpt lat="49.77649" lon="2.37123">
        <ele>43.2</ele>
        <time>2022-07-13T09:24:07Z</time>
      </trkpt>
      <trkpt lat="49.7765" lon="2.37125">
        <ele>43.2</ele>
        <time>2022-07-13T09:24:08Z</time>
      </trkpt>
      <trkpt lat="49.77651" lon="2.37126">
        <ele>43.1</ele>
        <time>2022-07-13T09:24:09Z</time>
      </trkpt>
      <trkpt lat="49.77651" lon="2.37128">
        <ele>43.1</ele>
        <time>2022-07-13T09:24:10Z</time>
      </trkpt>
      <trkpt lat="49.77652" lon="2.3713">
        <ele>43.1</ele>
        <time>2022-07-13T09:24:11Z</time>
      </trkpt>
      <trkpt lat="49.77653" lon="2.37135">
        <ele>43.1</ele>
        <time>2022-07-13T09:24:13Z</time>
      </trkpt>
      <trkpt lat="49.77654" lon="2.37136">
        <ele>43.1</ele>
        <time>2022-07-13T09:24:14Z</time>
      </trkpt>
      <trkpt lat="49.77654" lon="2.37138">
        <ele>43.1</ele>
        <time>2022-07-13T09:24:15Z</time>
      </trkpt>
      <trkpt lat="49.77655" lon="2.3714">
        <ele>43.1</ele>
        <time>2022-07-13T09:24:17Z</time>
      </trkpt>
      <trkpt lat="49.77656" lon="2.37142">
        <ele>43.1</ele>
        <time>2022-07-13T09:24:18Z</time>
      </trkpt>
      <trkpt lat="49.77657" lon="2.37144">
        <ele>43.1</ele>
        <time>2022-07-13T09:24:19Z</time>
      </trkpt>
      <trkpt lat="49.77657" lon="2.37145">
        <ele>43.1</ele>
        <time>2022-07-13T09:24:20Z</time>
      </trkpt>
      <trkpt lat="49.77658" lon="2.37147">
        <ele>43.1</ele>
        <time>2022-07-13T09:24:21Z</time>
      </trkpt>
      <trkpt lat="49.77659" lon="2.37148">
        <ele>43.1</ele>
        <time>2022-07-13T09:24:22Z</time>
      </trkpt>
      <trkpt lat="49.77659" lon="2.37149">
        <ele>43.1</ele>
        <time>2022-07-13T09:24:23Z</time>
      </trkpt>
      <trkpt lat="49.77659" lon="2.3715">
        <ele>43.1</ele>
        <time>2022-07-13T09:24:24Z</time>
      </trkpt>
      <trkpt lat="49.7766" lon="2.37151">
        <ele>43.1</ele>
        <time>2022-07-13T09:24:25Z</time>
      </trkpt>
      <trkpt lat="49.7766" lon="2.37152">
        <ele>43.1</ele>
        <time>2022-07-13T09:24:26Z</time>
      </trkpt>
      <trkpt lat="49.77661" lon="2.37154">
        <ele>43.1</ele>
        <time>2022-07-13T09:24:27Z</time>
      </trkpt>
      <trkpt lat="49.77661" lon="2.37154">
        <ele>43.2</ele>
        <time>2022-07-13T09:24:28Z</time>
      </trkpt>
      <trkpt lat="49.77661" lon="2.37156">
        <ele>43.2</ele>
        <time>2022-07-13T09:24:30Z</time>
      </trkpt>
      <trkpt lat="49.77662" lon="2.37158">
        <ele>43.2</ele>
        <time>2022-07-13T09:24:31Z</time>
      </trkpt>
      <trkpt lat="49.77663" lon="2.3716">
        <ele>43.2</ele>
        <time>2022-07-13T09:24:32Z</time>
      </trkpt>
      <trkpt lat="49.77663" lon="2.37161">
        <ele>43.2</ele>
        <time>2022-07-13T09:24:33Z</time>
      </trkpt>
      <trkpt lat="49.77663" lon="2.37163">
        <ele>43.2</ele>
        <time>2022-07-13T09:24:34Z</time>
      </trkpt>
      <trkpt lat="49.77663" lon="2.37164">
        <ele>43.2</ele>
        <time>2022-07-13T09:24:35Z</time>
      </trkpt>
      <trkpt lat="49.77664" lon="2.37166">
        <ele>43.2</ele>
        <time>2022-07-13T09:24:37Z</time>
      </trkpt>
      <trkpt lat="49.77664" lon="2.3717">
        <ele>43.2</ele>
        <time>2022-07-13T09:24:38Z</time>
      </trkpt>
      <trkpt lat="49.77665" lon="2.37171">
        <ele>43.2</ele>
        <time>2022-07-13T09:24:39Z</time>
      </trkpt>
      <trkpt lat="49.77665" lon="2.37172">
        <ele>43.2</ele>
        <time>2022-07-13T09:24:40Z</time>
      </trkpt>
      <trkpt lat="49.77665" lon="2.37173">
        <ele>43.2</ele>
        <time>2022-07-13T09:24:41Z</time>
      </trkpt>
      <trkpt lat="49.77666" lon="2.37176">
        <ele>43.3</ele>
        <time>2022-07-13T09:24:43Z</time>
      </trkpt>
      <trkpt lat="49.77666" lon="2.37177">
        <ele>43.3</ele>
        <time>2022-07-13T09:24:44Z</time>
      </trkpt>
      <trkpt lat="49.77667" lon="2.37178">
        <ele>43.3</ele>
        <time>2022-07-13T09:24:45Z</time>
      </trkpt>
      <trkpt lat="49.77667" lon="2.3718">
        <ele>43.3</ele>
        <time>2022-07-13T09:24:46Z</time>
      </trkpt>
      <trkpt lat="49.77668" lon="2.37182">
        <ele>43.3</ele>
        <time>2022-07-13T09:24:47Z</time>
      </trkpt>
      <trkpt lat="49.77667" lon="2.37183">
        <ele>43.3</ele>
        <time>2022-07-13T09:24:48Z</time>
      </trkpt>
      <trkpt lat="49.77668" lon="2.37184">
        <ele>43.3</ele>
        <time>2022-07-13T09:24:49Z</time>
      </trkpt>
      <trkpt lat="49.77668" lon="2.37185">
        <ele>43.3</ele>
        <time>2022-07-13T09:24:50Z</time>
      </trkpt>
      <trkpt lat="49.77668" lon="2.37187">
        <ele>43.3</ele>
        <time>2022-07-13T09:24:51Z</time>
      </trkpt>
      <trkpt lat="49.77668" lon="2.37189">
        <ele>43.3</ele>
        <time>2022-07-13T09:24:52Z</time>
      </trkpt>
      <trkpt lat="49.77668" lon="2.3719">
        <ele>43.4</ele>
        <time>2022-07-13T09:24:54Z</time>
      </trkpt>
      <trkpt lat="49.77668" lon="2.37192">
        <ele>43.4</ele>
        <time>2022-07-13T09:24:55Z</time>
      </trkpt>
      <trkpt lat="49.77668" lon="2.37194">
        <ele>43.4</ele>
        <time>2022-07-13T09:24:56Z</time>
      </trkpt>
      <trkpt lat="49.77668" lon="2.37197">
        <ele>43.4</ele>
        <time>2022-07-13T09:24:58Z</time>
      </trkpt>
      <trkpt lat="49.77668" lon="2.37198">
        <ele>43.4</ele>
        <time>2022-07-13T09:24:59Z</time>
      </trkpt>
      <trkpt lat="49.77668" lon="2.372">
        <ele>43.4</ele>
        <time>2022-07-13T09:25:00Z</time>
      </trkpt>
      <trkpt lat="49.77668" lon="2.37202">
        <ele>43.5</ele>
        <time>2022-07-13T09:25:01Z</time>
      </trkpt>
      <trkpt lat="49.77668" lon="2.37205">
        <ele>43.5</ele>
        <time>2022-07-13T09:25:02Z</time>
      </trkpt>
      <trkpt lat="49.77668" lon="2.37206">
        <ele>43.5</ele>
        <time>2022-07-13T09:25:04Z</time>
      </trkpt>
      <trkpt lat="49.77668" lon="2.37208">
        <ele>43.5</ele>
        <time>2022-07-13T09:25:05Z</time>
      </trkpt>
      <trkpt lat="49.77668" lon="2.3721">
        <ele>43.5</ele>
        <time>2022-07-13T09:25:06Z</time>
      </trkpt>
      <trkpt lat="49.77667" lon="2.37212">
        <ele>43.5</ele>
        <time>2022-07-13T09:25:08Z</time>
      </trkpt>
      <trkpt lat="49.77667" lon="2.37214">
        <ele>43.6</ele>
        <time>2022-07-13T09:25:09Z</time>
      </trkpt>
      <trkpt lat="49.77667" lon="2.37215">
        <ele>43.6</ele>
        <time>2022-07-13T09:25:10Z</time>
      </trkpt>
      <trkpt lat="49.77667" lon="2.37217">
        <ele>43.6</ele>
        <time>2022-07-13T09:25:12Z</time>
      </trkpt>
      <trkpt lat="49.77668" lon="2.37219">
        <ele>43.6</ele>
        <time>2022-07-13T09:25:13Z</time>
      </trkpt>
      <trkpt lat="49.77668" lon="2.3722">
        <ele>43.6</ele>
        <time>2022-07-13T09:25:14Z</time>
      </trkpt>
      <trkpt lat="49.77668" lon="2.3722">
        <ele>43.6</ele>
        <time>2022-07-13T09:25:15Z</time>
      </trkpt>
      <trkpt lat="49.77668" lon="2.37222">
        <ele>43.6</ele>
        <time>2022-07-13T09:25:16Z</time>
      </trkpt>
      <trkpt lat="49.77669" lon="2.37224">
        <ele>43.6</ele>
        <time>2022-07-13T09:25:18Z</time>
      </trkpt>
      <trkpt lat="49.77669" lon="2.37225">
        <ele>43.7</ele>
        <time>2022-07-13T09:25:19Z</time>
      </trkpt>
      <trkpt lat="49.7767" lon="2.37226">
        <ele>43.7</ele>
        <time>2022-07-13T09:25:20Z</time>
      </trkpt>
      <trkpt lat="49.7767" lon="2.37228">
        <ele>43.7</ele>
        <time>2022-07-13T09:25:21Z</time>
      </trkpt>
      <trkpt lat="49.7767" lon="2.3723">
        <ele>43.7</ele>
        <time>2022-07-13T09:25:23Z</time>
      </trkpt>
      <trkpt lat="49.7767" lon="2.37231">
        <ele>43.7</ele>
        <time>2022-07-13T09:25:24Z</time>
      </trkpt>
      <trkpt lat="49.7767" lon="2.37232">
        <ele>43.7</ele>
        <time>2022-07-13T09:25:25Z</time>
      </trkpt>
      <trkpt lat="49.7767" lon="2.37233">
        <ele>43.7</ele>
        <time>2022-07-13T09:25:26Z</time>
      </trkpt>
      <trkpt lat="49.7767" lon="2.37234">
        <ele>43.7</ele>
        <time>2022-07-13T09:25:27Z</time>
      </trkpt>
      <trkpt lat="49.7767" lon="2.37236">
        <ele>43.8</ele>
        <time>2022-07-13T09:25:28Z</time>
      </trkpt>
      <trkpt lat="49.7767" lon="2.37237">
        <ele>43.8</ele>
        <time>2022-07-13T09:25:29Z</time>
      </trkpt>
      <trkpt lat="49.7767" lon="2.37238">
        <ele>43.8</ele>
        <time>2022-07-13T09:25:30Z</time>
      </trkpt>
      <trkpt lat="49.7767" lon="2.37239">
        <ele>43.7</ele>
        <time>2022-07-13T09:25:32Z</time>
      </trkpt>
      <trkpt lat="49.7767" lon="2.37241">
        <ele>43.7</ele>
        <time>2022-07-13T09:25:33Z</time>
      </trkpt>
      <trkpt lat="49.7767" lon="2.37243">
        <ele>43.7</ele>
        <time>2022-07-13T09:25:34Z</time>
      </trkpt>
      <trkpt lat="49.7767" lon="2.37244">
        <ele>43.7</ele>
        <time>2022-07-13T09:25:35Z</time>
      </trkpt>
      <trkpt lat="49.7767" lon="2.37245">
        <ele>43.7</ele>
        <time>2022-07-13T09:25:36Z</time>
      </trkpt>
      <trkpt lat="49.77671" lon="2.37248">
        <ele>43.8</ele>
        <time>2022-07-13T09:25:38Z</time>
      </trkpt>
      <trkpt lat="49.77671" lon="2.37248">
        <ele>43.8</ele>
        <time>2022-07-13T09:25:39Z</time>
      </trkpt>
      <trkpt lat="49.77672" lon="2.37249">
        <ele>43.8</ele>
        <time>2022-07-13T09:25:40Z</time>
      </trkpt>
      <trkpt lat="49.77672" lon="2.3725">
        <ele>43.8</ele>
        <time>2022-07-13T09:25:41Z</time>
      </trkpt>
      <trkpt lat="49.77673" lon="2.37251">
        <ele>43.8</ele>
        <time>2022-07-13T09:25:42Z</time>
      </trkpt>
      <trkpt lat="49.77675" lon="2.37253">
        <ele>43.9</ele>
        <time>2022-07-13T09:25:43Z</time>
      </trkpt>
      <trkpt lat="49.77676" lon="2.37253">
        <ele>43.9</ele>
        <time>2022-07-13T09:25:44Z</time>
      </trkpt>
      <trkpt lat="49.77676" lon="2.37253">
        <ele>43.9</ele>
        <time>2022-07-13T09:25:45Z</time>
      </trkpt>
      <trkpt lat="49.77679" lon="2.37253">
        <ele>43.9</ele>
        <time>2022-07-13T09:25:46Z</time>
      </trkpt>
      <trkpt lat="49.7768" lon="2.37253">
        <ele>43.9</ele>
        <time>2022-07-13T09:25:47Z</time>
      </trkpt>
      <trkpt lat="49.77681" lon="2.37253">
        <ele>43.9</ele>
        <time>2022-07-13T09:25:48Z</time>
      </trkpt>
      <trkpt lat="49.77682" lon="2.37252">
        <ele>43.9</ele>
        <time>2022-07-13T09:25:49Z</time>
      </trkpt>
      <trkpt lat="49.77683" lon="2.37252">
        <ele>43.9</ele>
        <time>2022-07-13T09:25:50Z</time>
      </trkpt>
      <trkpt lat="49.77684" lon="2.37251">
        <ele>44</ele>
        <time>2022-07-13T09:25:52Z</time>
      </trkpt>
      <trkpt lat="49.77685" lon="2.37252">
        <ele>44</ele>
        <time>2022-07-13T09:25:53Z</time>
      </trkpt>
      <trkpt lat="49.77686" lon="2.37252">
        <ele>44</ele>
        <time>2022-07-13T09:25:54Z</time>
      </trkpt>
      <trkpt lat="49.77687" lon="2.37252">
        <ele>44</ele>
        <time>2022-07-13T09:25:55Z</time>
      </trkpt>
      <trkpt lat="49.77688" lon="2.37252">
        <ele>44</ele>
        <time>2022-07-13T09:25:56Z</time>
      </trkpt>
      <trkpt lat="49.7769" lon="2.37252">
        <ele>44</ele>
        <time>2022-07-13T09:25:58Z</time>
      </trkpt>
      <trkpt lat="49.7769" lon="2.37253">
        <ele>44</ele>
        <time>2022-07-13T09:25:59Z</time>
      </trkpt>
      <trkpt lat="49.77691" lon="2.37253">
        <ele>44</ele>
        <time>2022-07-13T09:26:00Z</time>
      </trkpt>
      <trkpt lat="49.77692" lon="2.37253">
        <ele>44</ele>
        <time>2022-07-13T09:26:01Z</time>
      </trkpt>
      <trkpt lat="49.77692" lon="2.37253">
        <ele>44</ele>
        <time>2022-07-13T09:26:02Z</time>
      </trkpt>
      <trkpt lat="49.77693" lon="2.37253">
        <ele>44</ele>
        <time>2022-07-13T09:26:03Z</time>
      </trkpt>
      <trkpt lat="49.77693" lon="2.37253">
        <ele>44</ele>
        <time>2022-07-13T09:26:05Z</time>
      </trkpt>
      <trkpt lat="49.77693" lon="2.37253">
        <ele>44</ele>
        <time>2022-07-13T09:26:06Z</time>
      </trkpt>
      <trkpt lat="49.77694" lon="2.37253">
        <ele>44.1</ele>
        <time>2022-07-13T09:26:07Z</time>
      </trkpt>
      <trkpt lat="49.77695" lon="2.37253">
        <ele>44.1</ele>
        <time>2022-07-13T09:26:09Z</time>
      </trkpt>
      <trkpt lat="49.77695" lon="2.37253">
        <ele>44.1</ele>
        <time>2022-07-13T09:26:10Z</time>
      </trkpt>
      <trkpt lat="49.77696" lon="2.37253">
        <ele>44.1</ele>
        <time>2022-07-13T09:26:11Z</time>
      </trkpt>
      <trkpt lat="49.77696" lon="2.37253">
        <ele>44.1</ele>
        <time>2022-07-13T09:26:12Z</time>
      </trkpt>
      <trkpt lat="49.77696" lon="2.37253">
        <ele>44.1</ele>
        <time>2022-07-13T09:26:14Z</time>
      </trkpt>
      <trkpt lat="49.77697" lon="2.37253">
        <ele>44.1</ele>
        <time>2022-07-13T09:26:15Z</time>
      </trkpt>
      <trkpt lat="49.77697" lon="2.37252">
        <ele>44.1</ele>
        <time>2022-07-13T09:26:16Z</time>
      </trkpt>
      <trkpt lat="49.77698" lon="2.37252">
        <ele>44.1</ele>
        <time>2022-07-13T09:26:17Z</time>
      </trkpt>
      <trkpt lat="49.77699" lon="2.37252">
        <ele>44.1</ele>
        <time>2022-07-13T09:26:18Z</time>
      </trkpt>
      <trkpt lat="49.77699" lon="2.37252">
        <ele>44.1</ele>
        <time>2022-07-13T09:26:19Z</time>
      </trkpt>
      <trkpt lat="49.777" lon="2.37253">
        <ele>44.1</ele>
        <time>2022-07-13T09:26:21Z</time>
      </trkpt>
      <trkpt lat="49.77701" lon="2.37253">
        <ele>44.1</ele>
        <time>2022-07-13T09:26:22Z</time>
      </trkpt>
      <trkpt lat="49.77702" lon="2.37254">
        <ele>44.1</ele>
        <time>2022-07-13T09:26:23Z</time>
      </trkpt>
      <trkpt lat="49.77703" lon="2.37254">
        <ele>44.1</ele>
        <time>2022-07-13T09:26:24Z</time>
      </trkpt>
      <trkpt lat="49.77704" lon="2.37255">
        <ele>44.1</ele>
        <time>2022-07-13T09:26:25Z</time>
      </trkpt>
      <trkpt lat="49.77705" lon="2.37256">
        <ele>44.1</ele>
        <time>2022-07-13T09:26:27Z</time>
      </trkpt>
      <trkpt lat="49.77706" lon="2.37256">
        <ele>44</ele>
        <time>2022-07-13T09:26:28Z</time>
      </trkpt>
      <trkpt lat="49.77707" lon="2.37256">
        <ele>44</ele>
        <time>2022-07-13T09:26:30Z</time>
      </trkpt>
      <trkpt lat="49.77708" lon="2.37256">
        <ele>44</ele>
        <time>2022-07-13T09:26:31Z</time>
      </trkpt>
      <trkpt lat="49.77708" lon="2.37255">
        <ele>44</ele>
        <time>2022-07-13T09:26:32Z</time>
      </trkpt>
      <trkpt lat="49.7771" lon="2.37255">
        <ele>44</ele>
        <time>2022-07-13T09:26:33Z</time>
      </trkpt>
      <trkpt lat="49.7771" lon="2.37256">
        <ele>44</ele>
        <time>2022-07-13T09:26:35Z</time>
      </trkpt>
      <trkpt lat="49.77711" lon="2.37256">
        <ele>44</ele>
        <time>2022-07-13T09:26:36Z</time>
      </trkpt>
      <trkpt lat="49.77711" lon="2.37256">
        <ele>44</ele>
        <time>2022-07-13T09:26:37Z</time>
      </trkpt>
      <trkpt lat="49.7771" lon="2.37256">
        <ele>44</ele>
        <time>2022-07-13T09:26:38Z</time>
      </trkpt>
      <trkpt lat="49.7771" lon="2.37256">
        <ele>44</ele>
        <time>2022-07-13T09:26:40Z</time>
      </trkpt>
      <trkpt lat="49.77709" lon="2.37256">
        <ele>44</ele>
        <time>2022-07-13T09:26:41Z</time>
      </trkpt>
      <trkpt lat="49.7771" lon="2.37256">
        <ele>44</ele>
        <time>2022-07-13T09:26:42Z</time>
      </trkpt>
      <trkpt lat="49.7771" lon="2.37256">
        <ele>44</ele>
        <time>2022-07-13T09:26:43Z</time>
      </trkpt>
      <trkpt lat="49.77711" lon="2.37256">
        <ele>44</ele>
        <time>2022-07-13T09:26:44Z</time>
      </trkpt>
      <trkpt lat="49.77711" lon="2.37256">
        <ele>44</ele>
        <time>2022-07-13T09:26:45Z</time>
      </trkpt>
      <trkpt lat="49.77712" lon="2.37256">
        <ele>44</ele>
        <time>2022-07-13T09:26:46Z</time>
      </trkpt>
      <trkpt lat="49.77713" lon="2.37257">
        <ele>44</ele>
        <time>2022-07-13T09:26:47Z</time>
      </trkpt>
      <trkpt lat="49.77714" lon="2.37258">
        <ele>43.9</ele>
        <time>2022-07-13T09:26:49Z</time>
      </trkpt>
      <trkpt lat="49.77715" lon="2.37258">
        <ele>43.9</ele>
        <time>2022-07-13T09:26:50Z</time>
      </trkpt>
      <trkpt lat="49.77716" lon="2.37258">
        <ele>43.9</ele>
        <time>2022-07-13T09:26:51Z</time>
      </trkpt>
      <trkpt lat="49.77717" lon="2.37259">
        <ele>43.9</ele>
        <time>2022-07-13T09:26:52Z</time>
      </trkpt>
      <trkpt lat="49.77718" lon="2.37259">
        <ele>43.9</ele>
        <time>2022-07-13T09:26:53Z</time>
      </trkpt>
      <trkpt lat="49.77719" lon="2.37259">
        <ele>43.9</ele>
        <time>2022-07-13T09:26:54Z</time>
      </trkpt>
      <trkpt lat="49.7772" lon="2.3726">
        <ele>43.9</ele>
        <time>2022-07-13T09:26:55Z</time>
      </trkpt>
      <trkpt lat="49.77721" lon="2.37261">
        <ele>43.9</ele>
        <time>2022-07-13T09:26:56Z</time>
      </trkpt>
      <trkpt lat="49.77722" lon="2.37262">
        <ele>43.9</ele>
        <time>2022-07-13T09:26:57Z</time>
      </trkpt>
      <trkpt lat="49.77724" lon="2.37264">
        <ele>43.8</ele>
        <time>2022-07-13T09:26:59Z</time>
      </trkpt>
      <trkpt lat="49.77724" lon="2.37265">
        <ele>43.8</ele>
        <time>2022-07-13T09:27:00Z</time>
      </trkpt>
      <trkpt lat="49.77726" lon="2.37266">
        <ele>43.8</ele>
        <time>2022-07-13T09:27:01Z</time>
      </trkpt>
      <trkpt lat="49.77728" lon="2.37269">
        <ele>43.8</ele>
        <time>2022-07-13T09:27:02Z</time>
      </trkpt>
      <trkpt lat="49.77729" lon="2.3727">
        <ele>43.8</ele>
        <time>2022-07-13T09:27:03Z</time>
      </trkpt>
      <trkpt lat="49.7773" lon="2.37271">
        <ele>43.8</ele>
        <time>2022-07-13T09:27:04Z</time>
      </trkpt>
      <trkpt lat="49.77731" lon="2.37272">
        <ele>43.8</ele>
        <time>2022-07-13T09:27:05Z</time>
      </trkpt>
      <trkpt lat="49.77733" lon="2.37273">
        <ele>43.7</ele>
        <time>2022-07-13T09:27:07Z</time>
      </trkpt>
      <trkpt lat="49.77735" lon="2.37274">
        <ele>43.7</ele>
        <time>2022-07-13T09:27:08Z</time>
      </trkpt>
      <trkpt lat="49.77737" lon="2.37276">
        <ele>43.7</ele>
        <time>2022-07-13T09:27:09Z</time>
      </trkpt>
      <trkpt lat="49.77737" lon="2.37276">
        <ele>43.7</ele>
        <time>2022-07-13T09:27:10Z</time>
      </trkpt>
      <trkpt lat="49.77738" lon="2.37277">
        <ele>43.7</ele>
        <time>2022-07-13T09:27:11Z</time>
      </trkpt>
      <trkpt lat="49.77739" lon="2.37279">
        <ele>43.7</ele>
        <time>2022-07-13T09:27:12Z</time>
      </trkpt>
      <trkpt lat="49.7774" lon="2.3728">
        <ele>43.7</ele>
        <time>2022-07-13T09:27:13Z</time>
      </trkpt>
      <trkpt lat="49.77741" lon="2.37282">
        <ele>43.7</ele>
        <time>2022-07-13T09:27:15Z</time>
      </trkpt>
      <trkpt lat="49.77741" lon="2.37283">
        <ele>43.7</ele>
        <time>2022-07-13T09:27:16Z</time>
      </trkpt>
      <trkpt lat="49.77741" lon="2.37284">
        <ele>43.7</ele>
        <time>2022-07-13T09:27:17Z</time>
      </trkpt>
      <trkpt lat="49.77742" lon="2.37285">
        <ele>43.7</ele>
        <time>2022-07-13T09:27:18Z</time>
      </trkpt>
      <trkpt lat="49.77742" lon="2.37286">
        <ele>43.7</ele>
        <time>2022-07-13T09:27:19Z</time>
      </trkpt>
      <trkpt lat="49.77744" lon="2.37289">
        <ele>43.7</ele>
        <time>2022-07-13T09:27:21Z</time>
      </trkpt>
      <trkpt lat="49.77744" lon="2.3729">
        <ele>43.7</ele>
        <time>2022-07-13T09:27:22Z</time>
      </trkpt>
      <trkpt lat="49.77745" lon="2.37291">
        <ele>43.7</ele>
        <time>2022-07-13T09:27:23Z</time>
      </trkpt>
      <trkpt lat="49.77746" lon="2.37293">
        <ele>43.7</ele>
        <time>2022-07-13T09:27:24Z</time>
      </trkpt>
      <trkpt lat="49.77747" lon="2.37295">
        <ele>43.7</ele>
        <time>2022-07-13T09:27:25Z</time>
      </trkpt>
      <trkpt lat="49.77747" lon="2.37296">
        <ele>43.7</ele>
        <time>2022-07-13T09:27:26Z</time>
      </trkpt>
      <trkpt lat="49.77749" lon="2.37298">
        <ele>43.7</ele>
        <time>2022-07-13T09:27:28Z</time>
      </trkpt>
      <trkpt lat="49.7775" lon="2.373">
        <ele>43.7</ele>
        <time>2022-07-13T09:27:29Z</time>
      </trkpt>
      <trkpt lat="49.77751" lon="2.373">
        <ele>43.7</ele>
        <time>2022-07-13T09:27:30Z</time>
      </trkpt>
      <trkpt lat="49.77751" lon="2.373">
        <ele>43.7</ele>
        <time>2022-07-13T09:27:31Z</time>
      </trkpt>
      <trkpt lat="49.77751" lon="2.37301">
        <ele>43.7</ele>
        <time>2022-07-13T09:27:33Z</time>
      </trkpt>
      <trkpt lat="49.77752" lon="2.37301">
        <ele>43.7</ele>
        <time>2022-07-13T09:27:34Z</time>
      </trkpt>
      <trkpt lat="49.77752" lon="2.37302">
        <ele>43.7</ele>
        <time>2022-07-13T09:27:35Z</time>
      </trkpt>
      <trkpt lat="49.77753" lon="2.37302">
        <ele>43.7</ele>
        <time>2022-07-13T09:27:36Z</time>
      </trkpt>
      <trkpt lat="49.77754" lon="2.37303">
        <ele>43.7</ele>
        <time>2022-07-13T09:27:37Z</time>
      </trkpt>
      <trkpt lat="49.77755" lon="2.37304">
        <ele>43.7</ele>
        <time>2022-07-13T09:27:38Z</time>
      </trkpt>
      <trkpt lat="49.77757" lon="2.37306">
        <ele>43.7</ele>
        <time>2022-07-13T09:27:39Z</time>
      </trkpt>
      <trkpt lat="49.77758" lon="2.37308">
        <ele>43.7</ele>
        <time>2022-07-13T09:27:40Z</time>
      </trkpt>
      <trkpt lat="49.77759" lon="2.37309">
        <ele>43.7</ele>
        <time>2022-07-13T09:27:42Z</time>
      </trkpt>
      <trkpt lat="49.77759" lon="2.3731">
        <ele>43.7</ele>
        <time>2022-07-13T09:27:43Z</time>
      </trkpt>
      <trkpt lat="49.77761" lon="2.37312">
        <ele>43.7</ele>
        <time>2022-07-13T09:27:44Z</time>
      </trkpt>
      <trkpt lat="49.77761" lon="2.37313">
        <ele>43.7</ele>
        <time>2022-07-13T09:27:45Z</time>
      </trkpt>
      <trkpt lat="49.77762" lon="2.37314">
        <ele>43.7</ele>
        <time>2022-07-13T09:27:46Z</time>
      </trkpt>
      <trkpt lat="49.77762" lon="2.37315">
        <ele>43.7</ele>
        <time>2022-07-13T09:27:47Z</time>
      </trkpt>
      <trkpt lat="49.77763" lon="2.37317">
        <ele>43.7</ele>
        <time>2022-07-13T09:27:48Z</time>
      </trkpt>
      <trkpt lat="49.77763" lon="2.37318">
        <ele>43.7</ele>
        <time>2022-07-13T09:27:49Z</time>
      </trkpt>
      <trkpt lat="49.77764" lon="2.37319">
        <ele>43.7</ele>
        <time>2022-07-13T09:27:50Z</time>
      </trkpt>
      <trkpt lat="49.77765" lon="2.37321">
        <ele>43.7</ele>
        <time>2022-07-13T09:27:52Z</time>
      </trkpt>
      <trkpt lat="49.77765" lon="2.37321">
        <ele>43.7</ele>
        <time>2022-07-13T09:27:53Z</time>
      </trkpt>
      <trkpt lat="49.77766" lon="2.37322">
        <ele>43.7</ele>
        <time>2022-07-13T09:27:54Z</time>
      </trkpt>
      <trkpt lat="49.77767" lon="2.37323">
        <ele>43.7</ele>
        <time>2022-07-13T09:27:55Z</time>
      </trkpt>
      <trkpt lat="49.77767" lon="2.37324">
        <ele>43.7</ele>
        <time>2022-07-13T09:27:56Z</time>
      </trkpt>
      <trkpt lat="49.77769" lon="2.37326">
        <ele>43.7</ele>
        <time>2022-07-13T09:27:57Z</time>
      </trkpt>
      <trkpt lat="49.7777" lon="2.37327">
        <ele>43.7</ele>
        <time>2022-07-13T09:27:58Z</time>
      </trkpt>
      <trkpt lat="49.77771" lon="2.37327">
        <ele>43.7</ele>
        <time>2022-07-13T09:27:59Z</time>
      </trkpt>
      <trkpt lat="49.77773" lon="2.37328">
        <ele>43.7</ele>
        <time>2022-07-13T09:28:01Z</time>
      </trkpt>
      <trkpt lat="49.77774" lon="2.37329">
        <ele>43.7</ele>
        <time>2022-07-13T09:28:02Z</time>
      </trkpt>
      <trkpt lat="49.77776" lon="2.3733">
        <ele>43.7</ele>
        <time>2022-07-13T09:28:03Z</time>
      </trkpt>
      <trkpt lat="49.77777" lon="2.37331">
        <ele>43.7</ele>
        <time>2022-07-13T09:28:04Z</time>
      </trkpt>
      <trkpt lat="49.77778" lon="2.37331">
        <ele>43.7</ele>
        <time>2022-07-13T09:28:05Z</time>
      </trkpt>
      <trkpt lat="49.77779" lon="2.37331">
        <ele>43.7</ele>
        <time>2022-07-13T09:28:06Z</time>
      </trkpt>
      <trkpt lat="49.77781" lon="2.37331">
        <ele>43.7</ele>
        <time>2022-07-13T09:28:07Z</time>
      </trkpt>
      <trkpt lat="49.77782" lon="2.37331">
        <ele>43.7</ele>
        <time>2022-07-13T09:28:09Z</time>
      </trkpt>
      <trkpt lat="49.77784" lon="2.37332">
        <ele>43.7</ele>
        <time>2022-07-13T09:28:10Z</time>
      </trkpt>
      <trkpt lat="49.77785" lon="2.37333">
        <ele>43.7</ele>
        <time>2022-07-13T09:28:11Z</time>
      </trkpt>
      <trkpt lat="49.77786" lon="2.37334">
        <ele>43.8</ele>
        <time>2022-07-13T09:28:12Z</time>
      </trkpt>
      <trkpt lat="49.77787" lon="2.37335">
        <ele>43.8</ele>
        <time>2022-07-13T09:28:13Z</time>
      </trkpt>
      <trkpt lat="49.77788" lon="2.37336">
        <ele>43.8</ele>
        <time>2022-07-13T09:28:14Z</time>
      </trkpt>
      <trkpt lat="49.7779" lon="2.37338">
        <ele>43.8</ele>
        <time>2022-07-13T09:28:16Z</time>
      </trkpt>
      <trkpt lat="49.77791" lon="2.3734">
        <ele>43.8</ele>
        <time>2022-07-13T09:28:17Z</time>
      </trkpt>
      <trkpt lat="49.77792" lon="2.37341">
        <ele>43.8</ele>
        <time>2022-07-13T09:28:18Z</time>
      </trkpt>
      <trkpt lat="49.77793" lon="2.37343">
        <ele>43.8</ele>
        <time>2022-07-13T09:28:19Z</time>
      </trkpt>
      <trkpt lat="49.77794" lon="2.37345">
        <ele>43.8</ele>
        <time>2022-07-13T09:28:21Z</time>
      </trkpt>
      <trkpt lat="49.77795" lon="2.37347">
        <ele>43.8</ele>
        <time>2022-07-13T09:28:22Z</time>
      </trkpt>
      <trkpt lat="49.77796" lon="2.37348">
        <ele>43.8</ele>
        <time>2022-07-13T09:28:23Z</time>
      </trkpt>
      <trkpt lat="49.77797" lon="2.37351">
        <ele>43.8</ele>
        <time>2022-07-13T09:28:24Z</time>
      </trkpt>
      <trkpt lat="49.77798" lon="2.37353">
        <ele>43.8</ele>
        <time>2022-07-13T09:28:26Z</time>
      </trkpt>
      <trkpt lat="49.77799" lon="2.37355">
        <ele>43.8</ele>
        <time>2022-07-13T09:28:27Z</time>
      </trkpt>
      <trkpt lat="49.778" lon="2.37356">
        <ele>43.8</ele>
        <time>2022-07-13T09:28:28Z</time>
      </trkpt>
      <trkpt lat="49.77801" lon="2.37357">
        <ele>43.8</ele>
        <time>2022-07-13T09:28:29Z</time>
      </trkpt>
      <trkpt lat="49.77801" lon="2.37358">
        <ele>43.8</ele>
        <time>2022-07-13T09:28:30Z</time>
      </trkpt>
      <trkpt lat="49.77802" lon="2.37359">
        <ele>43.8</ele>
        <time>2022-07-13T09:28:31Z</time>
      </trkpt>
      <trkpt lat="49.77803" lon="2.3736">
        <ele>43.8</ele>
        <time>2022-07-13T09:28:33Z</time>
      </trkpt>
      <trkpt lat="49.77803" lon="2.37361">
        <ele>43.8</ele>
        <time>2022-07-13T09:28:34Z</time>
      </trkpt>
      <trkpt lat="49.77804" lon="2.37363">
        <ele>43.8</ele>
        <time>2022-07-13T09:28:35Z</time>
      </trkpt>
      <trkpt lat="49.77805" lon="2.37364">
        <ele>43.8</ele>
        <time>2022-07-13T09:28:36Z</time>
      </trkpt>
      <trkpt lat="49.77805" lon="2.37365">
        <ele>43.8</ele>
        <time>2022-07-13T09:28:37Z</time>
      </trkpt>
      <trkpt lat="49.77806" lon="2.37367">
        <ele>43.8</ele>
        <time>2022-07-13T09:28:38Z</time>
      </trkpt>
      <trkpt lat="49.77807" lon="2.37369">
        <ele>43.8</ele>
        <time>2022-07-13T09:28:40Z</time>
      </trkpt>
      <trkpt lat="49.77808" lon="2.3737">
        <ele>43.8</ele>
        <time>2022-07-13T09:28:41Z</time>
      </trkpt>
      <trkpt lat="49.77809" lon="2.3737">
        <ele>43.8</ele>
        <time>2022-07-13T09:28:42Z</time>
      </trkpt>
      <trkpt lat="49.77809" lon="2.37371">
        <ele>43.8</ele>
        <time>2022-07-13T09:28:43Z</time>
      </trkpt>
      <trkpt lat="49.7781" lon="2.37372">
        <ele>43.8</ele>
        <time>2022-07-13T09:28:44Z</time>
      </trkpt>
      <trkpt lat="49.7781" lon="2.37372">
        <ele>43.9</ele>
        <time>2022-07-13T09:28:45Z</time>
      </trkpt>
      <trkpt lat="49.7781" lon="2.37373">
        <ele>43.9</ele>
        <time>2022-07-13T09:28:47Z</time>
      </trkpt>
      <trkpt lat="49.77811" lon="2.37376">
        <ele>43.9</ele>
        <time>2022-07-13T09:28:48Z</time>
      </trkpt>
      <trkpt lat="49.77812" lon="2.37378">
        <ele>43.9</ele>
        <time>2022-07-13T09:28:49Z</time>
      </trkpt>
      <trkpt lat="49.77812" lon="2.37379">
        <ele>43.9</ele>
        <time>2022-07-13T09:28:51Z</time>
      </trkpt>
      <trkpt lat="49.77813" lon="2.3738">
        <ele>43.9</ele>
        <time>2022-07-13T09:28:52Z</time>
      </trkpt>
      <trkpt lat="49.77813" lon="2.37381">
        <ele>43.9</ele>
        <time>2022-07-13T09:28:53Z</time>
      </trkpt>
      <trkpt lat="49.77815" lon="2.37384">
        <ele>43.9</ele>
        <time>2022-07-13T09:28:54Z</time>
      </trkpt>
      <trkpt lat="49.77815" lon="2.37384">
        <ele>43.8</ele>
        <time>2022-07-13T09:28:55Z</time>
      </trkpt>
      <trkpt lat="49.77816" lon="2.37386">
        <ele>43.8</ele>
        <time>2022-07-13T09:28:57Z</time>
      </trkpt>
      <trkpt lat="49.77817" lon="2.37388">
        <ele>43.8</ele>
        <time>2022-07-13T09:28:58Z</time>
      </trkpt>
      <trkpt lat="49.77818" lon="2.37389">
        <ele>43.8</ele>
        <time>2022-07-13T09:28:59Z</time>
      </trkpt>
      <trkpt lat="49.77819" lon="2.37391">
        <ele>43.8</ele>
        <time>2022-07-13T09:29:00Z</time>
      </trkpt>
      <trkpt lat="49.77819" lon="2.37392">
        <ele>43.8</ele>
        <time>2022-07-13T09:29:01Z</time>
      </trkpt>
      <trkpt lat="49.7782" lon="2.37394">
        <ele>43.8</ele>
        <time>2022-07-13T09:29:02Z</time>
      </trkpt>
      <trkpt lat="49.77822" lon="2.37396">
        <ele>43.8</ele>
        <time>2022-07-13T09:29:04Z</time>
      </trkpt>
      <trkpt lat="49.77822" lon="2.37397">
        <ele>43.8</ele>
        <time>2022-07-13T09:29:05Z</time>
      </trkpt>
      <trkpt lat="49.77823" lon="2.37397">
        <ele>43.8</ele>
        <time>2022-07-13T09:29:06Z</time>
      </trkpt>
      <trkpt lat="49.77824" lon="2.37398">
        <ele>43.8</ele>
        <time>2022-07-13T09:29:08Z</time>
      </trkpt>
      <trkpt lat="49.77826" lon="2.37398">
        <ele>43.8</ele>
        <time>2022-07-13T09:29:09Z</time>
      </trkpt>
      <trkpt lat="49.77827" lon="2.37397">
        <ele>43.8</ele>
        <time>2022-07-13T09:29:10Z</time>
      </trkpt>
      <trkpt lat="49.77828" lon="2.37396">
        <ele>43.7</ele>
        <time>2022-07-13T09:29:11Z</time>
      </trkpt>
      <trkpt lat="49.77829" lon="2.37396">
        <ele>43.7</ele>
        <time>2022-07-13T09:29:12Z</time>
      </trkpt>
      <trkpt lat="49.7783" lon="2.37396">
        <ele>43.7</ele>
        <time>2022-07-13T09:29:13Z</time>
      </trkpt>
      <trkpt lat="49.77831" lon="2.37396">
        <ele>43.7</ele>
        <time>2022-07-13T09:29:15Z</time>
      </trkpt>
      <trkpt lat="49.77832" lon="2.37397">
        <ele>43.7</ele>
        <time>2022-07-13T09:29:16Z</time>
      </trkpt>
      <trkpt lat="49.77833" lon="2.37397">
        <ele>43.7</ele>
        <time>2022-07-13T09:29:17Z</time>
      </trkpt>
      <trkpt lat="49.77834" lon="2.37397">
        <ele>43.7</ele>
        <time>2022-07-13T09:29:18Z</time>
      </trkpt>
      <trkpt lat="49.77835" lon="2.37398">
        <ele>43.7</ele>
        <time>2022-07-13T09:29:19Z</time>
      </trkpt>
      <trkpt lat="49.77835" lon="2.37399">
        <ele>43.7</ele>
        <time>2022-07-13T09:29:20Z</time>
      </trkpt>
      <trkpt lat="49.77837" lon="2.374">
        <ele>43.7</ele>
        <time>2022-07-13T09:29:22Z</time>
      </trkpt>
      <trkpt lat="49.77837" lon="2.37401">
        <ele>43.7</ele>
        <time>2022-07-13T09:29:23Z</time>
      </trkpt>
      <trkpt lat="49.77838" lon="2.37403">
        <ele>43.7</ele>
        <time>2022-07-13T09:29:24Z</time>
      </trkpt>
      <trkpt lat="49.77839" lon="2.37404">
        <ele>43.6</ele>
        <time>2022-07-13T09:29:25Z</time>
      </trkpt>
      <trkpt lat="49.7784" lon="2.37405">
        <ele>43.6</ele>
        <time>2022-07-13T09:29:26Z</time>
      </trkpt>
      <trkpt lat="49.7784" lon="2.37406">
        <ele>43.6</ele>
        <time>2022-07-13T09:29:27Z</time>
      </trkpt>
      <trkpt lat="49.7784" lon="2.37406">
        <ele>43.6</ele>
        <time>2022-07-13T09:29:28Z</time>
      </trkpt>
      <trkpt lat="49.77841" lon="2.37407">
        <ele>43.6</ele>
        <time>2022-07-13T09:29:30Z</time>
      </trkpt>
      <trkpt lat="49.77842" lon="2.37408">
        <ele>43.6</ele>
        <time>2022-07-13T09:29:31Z</time>
      </trkpt>
      <trkpt lat="49.77843" lon="2.37408">
        <ele>43.6</ele>
        <time>2022-07-13T09:29:32Z</time>
      </trkpt>
      <trkpt lat="49.77844" lon="2.37408">
        <ele>43.6</ele>
        <time>2022-07-13T09:29:34Z</time>
      </trkpt>
      <trkpt lat="49.77845" lon="2.37408">
        <ele>43.6</ele>
        <time>2022-07-13T09:29:35Z</time>
      </trkpt>
      <trkpt lat="49.77845" lon="2.37408">
        <ele>43.6</ele>
        <time>2022-07-13T09:29:36Z</time>
      </trkpt>
      <trkpt lat="49.77846" lon="2.37409">
        <ele>43.6</ele>
        <time>2022-07-13T09:29:37Z</time>
      </trkpt>
      <trkpt lat="49.77847" lon="2.3741">
        <ele>43.6</ele>
        <time>2022-07-13T09:29:38Z</time>
      </trkpt>
      <trkpt lat="49.77848" lon="2.37412">
        <ele>43.6</ele>
        <time>2022-07-13T09:29:39Z</time>
      </trkpt>
      <trkpt lat="49.77849" lon="2.37413">
        <ele>43.6</ele>
        <time>2022-07-13T09:29:40Z</time>
      </trkpt>
      <trkpt lat="49.77851" lon="2.37415">
        <ele>43.6</ele>
        <time>2022-07-13T09:29:41Z</time>
      </trkpt>
      <trkpt lat="49.77851" lon="2.37416">
        <ele>43.6</ele>
        <time>2022-07-13T09:29:43Z</time>
      </trkpt>
      <trkpt lat="49.77852" lon="2.37417">
        <ele>43.6</ele>
        <time>2022-07-13T09:29:44Z</time>
      </trkpt>
      <trkpt lat="49.77852" lon="2.37417">
        <ele>43.6</ele>
        <time>2022-07-13T09:29:45Z</time>
      </trkpt>
      <trkpt lat="49.77853" lon="2.37418">
        <ele>43.6</ele>
        <time>2022-07-13T09:29:46Z</time>
      </trkpt>
      <trkpt lat="49.77853" lon="2.37419">
        <ele>43.6</ele>
        <time>2022-07-13T09:29:47Z</time>
      </trkpt>
      <trkpt lat="49.77854" lon="2.3742">
        <ele>43.6</ele>
        <time>2022-07-13T09:29:48Z</time>
      </trkpt>
      <trkpt lat="49.77856" lon="2.37421">
        <ele>43.6</ele>
        <time>2022-07-13T09:29:49Z</time>
      </trkpt>
      <trkpt lat="49.77857" lon="2.37423">
        <ele>43.6</ele>
        <time>2022-07-13T09:29:51Z</time>
      </trkpt>
      <trkpt lat="49.77858" lon="2.37424">
        <ele>43.6</ele>
        <time>2022-07-13T09:29:52Z</time>
      </trkpt>
      <trkpt lat="49.77859" lon="2.37426">
        <ele>43.6</ele>
        <time>2022-07-13T09:29:53Z</time>
      </trkpt>
      <trkpt lat="49.7786" lon="2.37428">
        <ele>43.6</ele>
        <time>2022-07-13T09:29:54Z</time>
      </trkpt>
      <trkpt lat="49.77861" lon="2.3743">
        <ele>43.6</ele>
        <time>2022-07-13T09:29:55Z</time>
      </trkpt>
      <trkpt lat="49.77862" lon="2.37431">
        <ele>43.6</ele>
        <time>2022-07-13T09:29:56Z</time>
      </trkpt>
      <trkpt lat="49.77863" lon="2.37431">
        <ele>43.6</ele>
        <time>2022-07-13T09:29:58Z</time>
      </trkpt>
      <trkpt lat="49.77864" lon="2.37432">
        <ele>43.6</ele>
        <time>2022-07-13T09:29:59Z</time>
      </trkpt>
      <trkpt lat="49.77864" lon="2.37433">
        <ele>43.6</ele>
        <time>2022-07-13T09:30:00Z</time>
      </trkpt>
      <trkpt lat="49.77864" lon="2.37433">
        <ele>43.6</ele>
        <time>2022-07-13T09:30:01Z</time>
      </trkpt>
      <trkpt lat="49.77865" lon="2.37435">
        <ele>43.6</ele>
        <time>2022-07-13T09:30:02Z</time>
      </trkpt>
      <trkpt lat="49.77865" lon="2.37436">
        <ele>43.6</ele>
        <time>2022-07-13T09:30:03Z</time>
      </trkpt>
      <trkpt lat="49.77866" lon="2.37437">
        <ele>43.6</ele>
        <time>2022-07-13T09:30:04Z</time>
      </trkpt>
      <trkpt lat="49.77867" lon="2.37439">
        <ele>43.6</ele>
        <time>2022-07-13T09:30:05Z</time>
      </trkpt>
      <trkpt lat="49.77868" lon="2.37441">
        <ele>43.6</ele>
        <time>2022-07-13T09:30:06Z</time>
      </trkpt>
      <trkpt lat="49.77868" lon="2.37443">
        <ele>43.6</ele>
        <time>2022-07-13T09:30:08Z</time>
      </trkpt>
      <trkpt lat="49.77869" lon="2.37443">
        <ele>43.6</ele>
        <time>2022-07-13T09:30:09Z</time>
      </trkpt>
      <trkpt lat="49.7787" lon="2.37445">
        <ele>43.6</ele>
        <time>2022-07-13T09:30:10Z</time>
      </trkpt>
      <trkpt lat="49.77871" lon="2.37445">
        <ele>43.6</ele>
        <time>2022-07-13T09:30:11Z</time>
      </trkpt>
      <trkpt lat="49.77872" lon="2.37446">
        <ele>43.6</ele>
        <time>2022-07-13T09:30:12Z</time>
      </trkpt>
      <trkpt lat="49.77873" lon="2.37446">
        <ele>43.6</ele>
        <time>2022-07-13T09:30:13Z</time>
      </trkpt>
      <trkpt lat="49.77875" lon="2.37447">
        <ele>43.7</ele>
        <time>2022-07-13T09:30:14Z</time>
      </trkpt>
      <trkpt lat="49.77876" lon="2.37447">
        <ele>43.7</ele>
        <time>2022-07-13T09:30:16Z</time>
      </trkpt>
      <trkpt lat="49.77877" lon="2.37448">
        <ele>43.7</ele>
        <time>2022-07-13T09:30:17Z</time>
      </trkpt>
      <trkpt lat="49.77878" lon="2.37449">
        <ele>43.7</ele>
        <time>2022-07-13T09:30:18Z</time>
      </trkpt>
      <trkpt lat="49.77879" lon="2.37449">
        <ele>43.7</ele>
        <time>2022-07-13T09:30:20Z</time>
      </trkpt>
      <trkpt lat="49.77879" lon="2.37449">
        <ele>43.7</ele>
        <time>2022-07-13T09:30:21Z</time>
      </trkpt>
      <trkpt lat="49.7788" lon="2.37449">
        <ele>43.7</ele>
        <time>2022-07-13T09:30:22Z</time>
      </trkpt>
      <trkpt lat="49.77881" lon="2.37449">
        <ele>43.7</ele>
        <time>2022-07-13T09:30:23Z</time>
      </trkpt>
      <trkpt lat="49.77881" lon="2.37449">
        <ele>43.7</ele>
        <time>2022-07-13T09:30:24Z</time>
      </trkpt>
      <trkpt lat="49.77882" lon="2.3745">
        <ele>43.7</ele>
        <time>2022-07-13T09:30:26Z</time>
      </trkpt>
      <trkpt lat="49.77883" lon="2.3745">
        <ele>43.7</ele>
        <time>2022-07-13T09:30:27Z</time>
      </trkpt>
      <trkpt lat="49.77884" lon="2.3745">
        <ele>43.7</ele>
        <time>2022-07-13T09:30:28Z</time>
      </trkpt>
      <trkpt lat="49.77885" lon="2.3745">
        <ele>43.7</ele>
        <time>2022-07-13T09:30:29Z</time>
      </trkpt>
      <trkpt lat="49.77886" lon="2.3745">
        <ele>43.7</ele>
        <time>2022-07-13T09:30:30Z</time>
      </trkpt>
      <trkpt lat="49.77886" lon="2.3745">
        <ele>43.7</ele>
        <time>2022-07-13T09:30:31Z</time>
      </trkpt>
      <trkpt lat="49.77887" lon="2.3745">
        <ele>43.8</ele>
        <time>2022-07-13T09:30:32Z</time>
      </trkpt>
      <trkpt lat="49.77887" lon="2.3745">
        <ele>43.8</ele>
        <time>2022-07-13T09:30:33Z</time>
      </trkpt>
      <trkpt lat="49.77888" lon="2.3745">
        <ele>43.8</ele>
        <time>2022-07-13T09:30:34Z</time>
      </trkpt>
      <trkpt lat="49.77889" lon="2.37449">
        <ele>43.8</ele>
        <time>2022-07-13T09:30:35Z</time>
      </trkpt>
      <trkpt lat="49.7789" lon="2.37449">
        <ele>43.8</ele>
        <time>2022-07-13T09:30:37Z</time>
      </trkpt>
      <trkpt lat="49.77891" lon="2.37448">
        <ele>43.8</ele>
        <time>2022-07-13T09:30:38Z</time>
      </trkpt>
      <trkpt lat="49.77892" lon="2.37448">
        <ele>43.8</ele>
        <time>2022-07-13T09:30:39Z</time>
      </trkpt>
      <trkpt lat="49.77893" lon="2.37448">
        <ele>43.8</ele>
        <time>2022-07-13T09:30:40Z</time>
      </trkpt>
      <trkpt lat="49.77894" lon="2.37447">
        <ele>43.8</ele>
        <time>2022-07-13T09:30:42Z</time>
      </trkpt>
      <trkpt lat="49.77896" lon="2.37448">
        <ele>43.8</ele>
        <time>2022-07-13T09:30:43Z</time>
      </trkpt>
      <trkpt lat="49.77897" lon="2.37449">
        <ele>43.8</ele>
        <time>2022-07-13T09:30:44Z</time>
      </trkpt>
      <trkpt lat="49.77898" lon="2.37449">
        <ele>43.8</ele>
        <time>2022-07-13T09:30:45Z</time>
      </trkpt>
      <trkpt lat="49.77898" lon="2.3745">
        <ele>43.9</ele>
        <time>2022-07-13T09:30:47Z</time>
      </trkpt>
      <trkpt lat="49.77899" lon="2.37451">
        <ele>43.9</ele>
        <time>2022-07-13T09:30:48Z</time>
      </trkpt>
      <trkpt lat="49.779" lon="2.37451">
        <ele>43.9</ele>
        <time>2022-07-13T09:30:49Z</time>
      </trkpt>
      <trkpt lat="49.77901" lon="2.37452">
        <ele>43.9</ele>
        <time>2022-07-13T09:30:50Z</time>
      </trkpt>
      <trkpt lat="49.77902" lon="2.37454">
        <ele>43.9</ele>
        <time>2022-07-13T09:30:51Z</time>
      </trkpt>
      <trkpt lat="49.77902" lon="2.37456">
        <ele>43.9</ele>
        <time>2022-07-13T09:30:52Z</time>
      </trkpt>
      <trkpt lat="49.77903" lon="2.37459">
        <ele>43.9</ele>
        <time>2022-07-13T09:30:53Z</time>
      </trkpt>
      <trkpt lat="49.77903" lon="2.3746">
        <ele>43.9</ele>
        <time>2022-07-13T09:30:54Z</time>
      </trkpt>
      <trkpt lat="49.77903" lon="2.37461">
        <ele>43.9</ele>
        <time>2022-07-13T09:30:55Z</time>
      </trkpt>
      <trkpt lat="49.77904" lon="2.37464">
        <ele>43.9</ele>
        <time>2022-07-13T09:30:57Z</time>
      </trkpt>
      <trkpt lat="49.77905" lon="2.37465">
        <ele>43.9</ele>
        <time>2022-07-13T09:30:58Z</time>
      </trkpt>
      <trkpt lat="49.77905" lon="2.37466">
        <ele>43.9</ele>
        <time>2022-07-13T09:30:59Z</time>
      </trkpt>
      <trkpt lat="49.77906" lon="2.3747">
        <ele>43.9</ele>
        <time>2022-07-13T09:31:00Z</time>
      </trkpt>
      <trkpt lat="49.77907" lon="2.37471">
        <ele>43.9</ele>
        <time>2022-07-13T09:31:01Z</time>
      </trkpt>
      <trkpt lat="49.77907" lon="2.37472">
        <ele>43.9</ele>
        <time>2022-07-13T09:31:02Z</time>
      </trkpt>
      <trkpt lat="49.77908" lon="2.37473">
        <ele>43.9</ele>
        <time>2022-07-13T09:31:03Z</time>
      </trkpt>
      <trkpt lat="49.77908" lon="2.37475">
        <ele>43.9</ele>
        <time>2022-07-13T09:31:04Z</time>
      </trkpt>
      <trkpt lat="49.7791" lon="2.37478">
        <ele>43.9</ele>
        <time>2022-07-13T09:31:06Z</time>
      </trkpt>
      <trkpt lat="49.7791" lon="2.37479">
        <ele>43.9</ele>
        <time>2022-07-13T09:31:07Z</time>
      </trkpt>
      <trkpt lat="49.77911" lon="2.37481">
        <ele>43.9</ele>
        <time>2022-07-13T09:31:08Z</time>
      </trkpt>
      <trkpt lat="49.77912" lon="2.37482">
        <ele>43.9</ele>
        <time>2022-07-13T09:31:09Z</time>
      </trkpt>
      <trkpt lat="49.77913" lon="2.37482">
        <ele>43.9</ele>
        <time>2022-07-13T09:31:10Z</time>
      </trkpt>
      <trkpt lat="49.77914" lon="2.37482">
        <ele>43.9</ele>
        <time>2022-07-13T09:31:11Z</time>
      </trkpt>
      <trkpt lat="49.77914" lon="2.37482">
        <ele>43.9</ele>
        <time>2022-07-13T09:31:13Z</time>
      </trkpt>
      <trkpt lat="49.77915" lon="2.37483">
        <ele>43.9</ele>
        <time>2022-07-13T09:31:14Z</time>
      </trkpt>
      <trkpt lat="49.77916" lon="2.37483">
        <ele>43.9</ele>
        <time>2022-07-13T09:31:15Z</time>
      </trkpt>
      <trkpt lat="49.77917" lon="2.37484">
        <ele>43.9</ele>
        <time>2022-07-13T09:31:16Z</time>
      </trkpt>
      <trkpt lat="49.77918" lon="2.37484">
        <ele>43.9</ele>
        <time>2022-07-13T09:31:17Z</time>
      </trkpt>
      <trkpt lat="49.77919" lon="2.37484">
        <ele>43.9</ele>
        <time>2022-07-13T09:31:18Z</time>
      </trkpt>
      <trkpt lat="49.7792" lon="2.37484">
        <ele>43.9</ele>
        <time>2022-07-13T09:31:19Z</time>
      </trkpt>
      <trkpt lat="49.77921" lon="2.37483">
        <ele>43.9</ele>
        <time>2022-07-13T09:31:20Z</time>
      </trkpt>
      <trkpt lat="49.77921" lon="2.37483">
        <ele>43.9</ele>
        <time>2022-07-13T09:31:22Z</time>
      </trkpt>
      <trkpt lat="49.77921" lon="2.37483">
        <ele>43.9</ele>
        <time>2022-07-13T09:31:23Z</time>
      </trkpt>
      <trkpt lat="49.77922" lon="2.37483">
        <ele>43.9</ele>
        <time>2022-07-13T09:31:24Z</time>
      </trkpt>
      <trkpt lat="49.77923" lon="2.37483">
        <ele>43.9</ele>
        <time>2022-07-13T09:31:25Z</time>
      </trkpt>
      <trkpt lat="49.77924" lon="2.37484">
        <ele>43.9</ele>
        <time>2022-07-13T09:31:26Z</time>
      </trkpt>
      <trkpt lat="49.77924" lon="2.37485">
        <ele>43.8</ele>
        <time>2022-07-13T09:31:27Z</time>
      </trkpt>
      <trkpt lat="49.77925" lon="2.37485">
        <ele>43.8</ele>
        <time>2022-07-13T09:31:28Z</time>
      </trkpt>
      <trkpt lat="49.77926" lon="2.37486">
        <ele>43.8</ele>
        <time>2022-07-13T09:31:29Z</time>
      </trkpt>
      <trkpt lat="49.77927" lon="2.37487">
        <ele>43.8</ele>
        <time>2022-07-13T09:31:30Z</time>
      </trkpt>
      <trkpt lat="49.77928" lon="2.37489">
        <ele>43.8</ele>
        <time>2022-07-13T09:31:32Z</time>
      </trkpt>
      <trkpt lat="49.77929" lon="2.3749">
        <ele>43.8</ele>
        <time>2022-07-13T09:31:33Z</time>
      </trkpt>
      <trkpt lat="49.77931" lon="2.37492">
        <ele>43.8</ele>
        <time>2022-07-13T09:31:34Z</time>
      </trkpt>
      <trkpt lat="49.77932" lon="2.37493">
        <ele>43.8</ele>
        <time>2022-07-13T09:31:35Z</time>
      </trkpt>
      <trkpt lat="49.77932" lon="2.37493">
        <ele>43.8</ele>
        <time>2022-07-13T09:31:36Z</time>
      </trkpt>
      <trkpt lat="49.77934" lon="2.37495">
        <ele>43.8</ele>
        <time>2022-07-13T09:31:37Z</time>
      </trkpt>
      <trkpt lat="49.77935" lon="2.37495">
        <ele>43.8</ele>
        <time>2022-07-13T09:31:38Z</time>
      </trkpt>
      <trkpt lat="49.77936" lon="2.37496">
        <ele>43.8</ele>
        <time>2022-07-13T09:31:40Z</time>
      </trkpt>
      <trkpt lat="49.77937" lon="2.37497">
        <ele>43.8</ele>
        <time>2022-07-13T09:31:41Z</time>
      </trkpt>
      <trkpt lat="49.77937" lon="2.37498">
        <ele>43.8</ele>
        <time>2022-07-13T09:31:43Z</time>
      </trkpt>
      <trkpt lat="49.77938" lon="2.375">
        <ele>43.8</ele>
        <time>2022-07-13T09:31:44Z</time>
      </trkpt>
      <trkpt lat="49.77939" lon="2.37501">
        <ele>43.8</ele>
        <time>2022-07-13T09:31:45Z</time>
      </trkpt>
      <trkpt lat="49.7794" lon="2.37504">
        <ele>43.8</ele>
        <time>2022-07-13T09:31:46Z</time>
      </trkpt>
      <trkpt lat="49.7794" lon="2.37505">
        <ele>43.8</ele>
        <time>2022-07-13T09:31:47Z</time>
      </trkpt>
      <trkpt lat="49.77941" lon="2.37507">
        <ele>43.8</ele>
        <time>2022-07-13T09:31:48Z</time>
      </trkpt>
      <trkpt lat="49.77941" lon="2.37508">
        <ele>43.8</ele>
        <time>2022-07-13T09:31:49Z</time>
      </trkpt>
      <trkpt lat="49.77942" lon="2.3751">
        <ele>43.8</ele>
        <time>2022-07-13T09:31:50Z</time>
      </trkpt>
      <trkpt lat="49.77943" lon="2.37511">
        <ele>43.7</ele>
        <time>2022-07-13T09:31:52Z</time>
      </trkpt>
      <trkpt lat="49.77944" lon="2.37512">
        <ele>43.7</ele>
        <time>2022-07-13T09:31:53Z</time>
      </trkpt>
      <trkpt lat="49.77944" lon="2.37512">
        <ele>43.7</ele>
        <time>2022-07-13T09:31:54Z</time>
      </trkpt>
      <trkpt lat="49.77945" lon="2.37513">
        <ele>43.7</ele>
        <time>2022-07-13T09:31:55Z</time>
      </trkpt>
      <trkpt lat="49.77946" lon="2.37514">
        <ele>43.7</ele>
        <time>2022-07-13T09:31:56Z</time>
      </trkpt>
      <trkpt lat="49.77946" lon="2.37515">
        <ele>43.7</ele>
        <time>2022-07-13T09:31:57Z</time>
      </trkpt>
      <trkpt lat="49.77946" lon="2.37516">
        <ele>43.7</ele>
        <time>2022-07-13T09:31:59Z</time>
      </trkpt>
      <trkpt lat="49.77947" lon="2.37518">
        <ele>43.7</ele>
        <time>2022-07-13T09:32:00Z</time>
      </trkpt>
      <trkpt lat="49.77947" lon="2.3752">
        <ele>43.7</ele>
        <time>2022-07-13T09:32:01Z</time>
      </trkpt>
      <trkpt lat="49.77948" lon="2.37521">
        <ele>43.7</ele>
        <time>2022-07-13T09:32:02Z</time>
      </trkpt>
      <trkpt lat="49.77948" lon="2.37522">
        <ele>43.7</ele>
        <time>2022-07-13T09:32:03Z</time>
      </trkpt>
      <trkpt lat="49.77948" lon="2.37523">
        <ele>43.7</ele>
        <time>2022-07-13T09:32:04Z</time>
      </trkpt>
      <trkpt lat="49.77948" lon="2.37524">
        <ele>43.7</ele>
        <time>2022-07-13T09:32:05Z</time>
      </trkpt>
      <trkpt lat="49.77948" lon="2.37525">
        <ele>43.7</ele>
        <time>2022-07-13T09:32:06Z</time>
      </trkpt>
      <trkpt lat="49.77948" lon="2.37525">
        <ele>43.7</ele>
        <time>2022-07-13T09:32:07Z</time>
      </trkpt>
      <trkpt lat="49.77948" lon="2.37526">
        <ele>43.7</ele>
        <time>2022-07-13T09:32:09Z</time>
      </trkpt>
      <trkpt lat="49.77948" lon="2.37527">
        <ele>43.7</ele>
        <time>2022-07-13T09:32:10Z</time>
      </trkpt>
      <trkpt lat="49.7795" lon="2.37531">
        <ele>43.7</ele>
        <time>2022-07-13T09:32:11Z</time>
      </trkpt>
      <trkpt lat="49.77951" lon="2.37532">
        <ele>43.7</ele>
        <time>2022-07-13T09:32:13Z</time>
      </trkpt>
      <trkpt lat="49.77952" lon="2.37533">
        <ele>43.7</ele>
        <time>2022-07-13T09:32:14Z</time>
      </trkpt>
      <trkpt lat="49.77953" lon="2.37533">
        <ele>43.7</ele>
        <time>2022-07-13T09:32:15Z</time>
      </trkpt>
      <trkpt lat="49.77953" lon="2.37534">
        <ele>43.7</ele>
        <time>2022-07-13T09:32:16Z</time>
      </trkpt>
      <trkpt lat="49.77954" lon="2.37535">
        <ele>43.7</ele>
        <time>2022-07-13T09:32:17Z</time>
      </trkpt>
      <trkpt lat="49.77956" lon="2.37535">
        <ele>43.7</ele>
        <time>2022-07-13T09:32:18Z</time>
      </trkpt>
      <trkpt lat="49.77957" lon="2.37535">
        <ele>43.7</ele>
        <time>2022-07-13T09:32:20Z</time>
      </trkpt>
      <trkpt lat="49.77958" lon="2.37534">
        <ele>43.7</ele>
        <time>2022-07-13T09:32:21Z</time>
      </trkpt>
      <trkpt lat="49.77959" lon="2.37533">
        <ele>43.7</ele>
        <time>2022-07-13T09:32:22Z</time>
      </trkpt>
      <trkpt lat="49.7796" lon="2.37532">
        <ele>43.7</ele>
        <time>2022-07-13T09:32:23Z</time>
      </trkpt>
      <trkpt lat="49.77961" lon="2.37531">
        <ele>43.7</ele>
        <time>2022-07-13T09:32:24Z</time>
      </trkpt>
      <trkpt lat="49.77962" lon="2.37529">
        <ele>43.7</ele>
        <time>2022-07-13T09:32:25Z</time>
      </trkpt>
      <trkpt lat="49.77963" lon="2.37527">
        <ele>43.7</ele>
        <time>2022-07-13T09:32:26Z</time>
      </trkpt>
      <trkpt lat="49.77964" lon="2.37525">
        <ele>43.7</ele>
        <time>2022-07-13T09:32:28Z</time>
      </trkpt>
      <trkpt lat="49.77965" lon="2.37524">
        <ele>43.6</ele>
        <time>2022-07-13T09:32:29Z</time>
      </trkpt>
      <trkpt lat="49.77966" lon="2.37523">
        <ele>43.6</ele>
        <time>2022-07-13T09:32:30Z</time>
      </trkpt>
      <trkpt lat="49.77967" lon="2.37523">
        <ele>43.6</ele>
        <time>2022-07-13T09:32:31Z</time>
      </trkpt>
      <trkpt lat="49.77967" lon="2.37522">
        <ele>43.6</ele>
        <time>2022-07-13T09:32:32Z</time>
      </trkpt>
      <trkpt lat="49.77968" lon="2.37522">
        <ele>43.6</ele>
        <time>2022-07-13T09:32:33Z</time>
      </trkpt>
      <trkpt lat="49.7797" lon="2.37522">
        <ele>43.6</ele>
        <time>2022-07-13T09:32:34Z</time>
      </trkpt>
      <trkpt lat="49.77972" lon="2.37522">
        <ele>43.6</ele>
        <time>2022-07-13T09:32:35Z</time>
      </trkpt>
      <trkpt lat="49.77973" lon="2.37522">
        <ele>43.6</ele>
        <time>2022-07-13T09:32:37Z</time>
      </trkpt>
      <trkpt lat="49.77974" lon="2.37522">
        <ele>43.6</ele>
        <time>2022-07-13T09:32:38Z</time>
      </trkpt>
      <trkpt lat="49.77975" lon="2.37522">
        <ele>43.6</ele>
        <time>2022-07-13T09:32:39Z</time>
      </trkpt>
      <trkpt lat="49.77976" lon="2.37523">
        <ele>43.6</ele>
        <time>2022-07-13T09:32:40Z</time>
      </trkpt>
      <trkpt lat="49.77977" lon="2.37524">
        <ele>43.6</ele>
        <time>2022-07-13T09:32:41Z</time>
      </trkpt>
      <trkpt lat="49.77978" lon="2.37525">
        <ele>43.6</ele>
        <time>2022-07-13T09:32:42Z</time>
      </trkpt>
      <trkpt lat="49.7798" lon="2.37527">
        <ele>43.6</ele>
        <time>2022-07-13T09:32:44Z</time>
      </trkpt>
      <trkpt lat="49.77981" lon="2.37528">
        <ele>43.6</ele>
        <time>2022-07-13T09:32:45Z</time>
      </trkpt>
      <trkpt lat="49.77983" lon="2.3753">
        <ele>43.6</ele>
        <time>2022-07-13T09:32:46Z</time>
      </trkpt>
      <trkpt lat="49.77984" lon="2.37532">
        <ele>43.6</ele>
        <time>2022-07-13T09:32:48Z</time>
      </trkpt>
      <trkpt lat="49.77985" lon="2.37534">
        <ele>43.6</ele>
        <time>2022-07-13T09:32:49Z</time>
      </trkpt>
      <trkpt lat="49.77986" lon="2.37536">
        <ele>43.6</ele>
        <time>2022-07-13T09:32:50Z</time>
      </trkpt>
      <trkpt lat="49.77987" lon="2.37537">
        <ele>43.6</ele>
        <time>2022-07-13T09:32:51Z</time>
      </trkpt>
      <trkpt lat="49.77988" lon="2.37539">
        <ele>43.6</ele>
        <time>2022-07-13T09:32:52Z</time>
      </trkpt>
      <trkpt lat="49.7799" lon="2.37541">
        <ele>43.6</ele>
        <time>2022-07-13T09:32:53Z</time>
      </trkpt>
      <trkpt lat="49.77991" lon="2.37542">
        <ele>43.6</ele>
        <time>2022-07-13T09:32:54Z</time>
      </trkpt>
      <trkpt lat="49.77991" lon="2.37542">
        <ele>43.6</ele>
        <time>2022-07-13T09:32:55Z</time>
      </trkpt>
      <trkpt lat="49.77992" lon="2.37543">
        <ele>43.6</ele>
        <time>2022-07-13T09:32:56Z</time>
      </trkpt>
      <trkpt lat="49.77993" lon="2.37544">
        <ele>43.6</ele>
        <time>2022-07-13T09:32:58Z</time>
      </trkpt>
      <trkpt lat="49.77994" lon="2.37545">
        <ele>43.6</ele>
        <time>2022-07-13T09:32:59Z</time>
      </trkpt>
      <trkpt lat="49.77994" lon="2.37546">
        <ele>43.6</ele>
        <time>2022-07-13T09:33:00Z</time>
      </trkpt>
      <trkpt lat="49.77995" lon="2.37547">
        <ele>43.6</ele>
        <time>2022-07-13T09:33:01Z</time>
      </trkpt>
      <trkpt lat="49.77996" lon="2.37548">
        <ele>43.6</ele>
        <time>2022-07-13T09:33:02Z</time>
      </trkpt>
      <trkpt lat="49.77997" lon="2.3755">
        <ele>43.6</ele>
        <time>2022-07-13T09:33:03Z</time>
      </trkpt>
      <trkpt lat="49.77998" lon="2.37551">
        <ele>43.6</ele>
        <time>2022-07-13T09:33:04Z</time>
      </trkpt>
      <trkpt lat="49.77998" lon="2.37551">
        <ele>43.6</ele>
        <time>2022-07-13T09:33:05Z</time>
      </trkpt>
      <trkpt lat="49.77999" lon="2.37552">
        <ele>43.6</ele>
        <time>2022-07-13T09:33:07Z</time>
      </trkpt>
      <trkpt lat="49.77999" lon="2.37554">
        <ele>43.6</ele>
        <time>2022-07-13T09:33:08Z</time>
      </trkpt>
      <trkpt lat="49.78" lon="2.37555">
        <ele>43.6</ele>
        <time>2022-07-13T09:33:09Z</time>
      </trkpt>
      <trkpt lat="49.78001" lon="2.37554">
        <ele>43.6</ele>
        <time>2022-07-13T09:33:10Z</time>
      </trkpt>
      <trkpt lat="49.78002" lon="2.37555">
        <ele>43.6</ele>
        <time>2022-07-13T09:33:11Z</time>
      </trkpt>
      <trkpt lat="49.78003" lon="2.37556">
        <ele>43.6</ele>
        <time>2022-07-13T09:33:12Z</time>
      </trkpt>
      <trkpt lat="49.78004" lon="2.37558">
        <ele>43.6</ele>
        <time>2022-07-13T09:33:13Z</time>
      </trkpt>
      <trkpt lat="49.78004" lon="2.37559">
        <ele>43.6</ele>
        <time>2022-07-13T09:33:14Z</time>
      </trkpt>
      <trkpt lat="49.78005" lon="2.3756">
        <ele>43.6</ele>
        <time>2022-07-13T09:33:16Z</time>
      </trkpt>
      <trkpt lat="49.78005" lon="2.37562">
        <ele>43.6</ele>
        <time>2022-07-13T09:33:17Z</time>
      </trkpt>
      <trkpt lat="49.78005" lon="2.37564">
        <ele>43.6</ele>
        <time>2022-07-13T09:33:18Z</time>
      </trkpt>
      <trkpt lat="49.78006" lon="2.37566">
        <ele>43.5</ele>
        <time>2022-07-13T09:33:20Z</time>
      </trkpt>
      <trkpt lat="49.78007" lon="2.37569">
        <ele>43.5</ele>
        <time>2022-07-13T09:33:21Z</time>
      </trkpt>
      <trkpt lat="49.78008" lon="2.3757">
        <ele>43.5</ele>
        <time>2022-07-13T09:33:22Z</time>
      </trkpt>
      <trkpt lat="49.78008" lon="2.37571">
        <ele>43.5</ele>
        <time>2022-07-13T09:33:23Z</time>
      </trkpt>
      <trkpt lat="49.7801" lon="2.37572">
        <ele>43.5</ele>
        <time>2022-07-13T09:33:24Z</time>
      </trkpt>
      <trkpt lat="49.78011" lon="2.37573">
        <ele>43.5</ele>
        <time>2022-07-13T09:33:25Z</time>
      </trkpt>
      <trkpt lat="49.78012" lon="2.37574">
        <ele>43.5</ele>
        <time>2022-07-13T09:33:26Z</time>
      </trkpt>
      <trkpt lat="49.78013" lon="2.37575">
        <ele>43.5</ele>
        <time>2022-07-13T09:33:28Z</time>
      </trkpt>
      <trkpt lat="49.78014" lon="2.37576">
        <ele>43.5</ele>
        <time>2022-07-13T09:33:29Z</time>
      </trkpt>
      <trkpt lat="49.78016" lon="2.37578">
        <ele>43.5</ele>
        <time>2022-07-13T09:33:30Z</time>
      </trkpt>
      <trkpt lat="49.78016" lon="2.37579">
        <ele>43.4</ele>
        <time>2022-07-13T09:33:31Z</time>
      </trkpt>
      <trkpt lat="49.78017" lon="2.3758">
        <ele>43.4</ele>
        <time>2022-07-13T09:33:32Z</time>
      </trkpt>
      <trkpt lat="49.78018" lon="2.37582">
        <ele>43.4</ele>
        <time>2022-07-13T09:33:33Z</time>
      </trkpt>
      <trkpt lat="49.78018" lon="2.37583">
        <ele>43.4</ele>
        <time>2022-07-13T09:33:34Z</time>
      </trkpt>
      <trkpt lat="49.78019" lon="2.37585">
        <ele>43.4</ele>
        <time>2022-07-13T09:33:36Z</time>
      </trkpt>
      <trkpt lat="49.7802" lon="2.37587">
        <ele>43.4</ele>
        <time>2022-07-13T09:33:37Z</time>
      </trkpt>
      <trkpt lat="49.78021" lon="2.37589">
        <ele>43.3</ele>
        <time>2022-07-13T09:33:38Z</time>
      </trkpt>
      <trkpt lat="49.78021" lon="2.3759">
        <ele>43.3</ele>
        <time>2022-07-13T09:33:40Z</time>
      </trkpt>
      <trkpt lat="49.78021" lon="2.37592">
        <ele>43.3</ele>
        <time>2022-07-13T09:33:41Z</time>
      </trkpt>
      <trkpt lat="49.78022" lon="2.37593">
        <ele>43.3</ele>
        <time>2022-07-13T09:33:42Z</time>
      </trkpt>
      <trkpt lat="49.78022" lon="2.37594">
        <ele>43.2</ele>
        <time>2022-07-13T09:33:43Z</time>
      </trkpt>
      <trkpt lat="49.78023" lon="2.37596">
        <ele>43.2</ele>
        <time>2022-07-13T09:33:44Z</time>
      </trkpt>
      <trkpt lat="49.78023" lon="2.37597">
        <ele>43.2</ele>
        <time>2022-07-13T09:33:45Z</time>
      </trkpt>
      <trkpt lat="49.78023" lon="2.37598">
        <ele>43.2</ele>
        <time>2022-07-13T09:33:47Z</time>
      </trkpt>
      <trkpt lat="49.78024" lon="2.37599">
        <ele>43.2</ele>
        <time>2022-07-13T09:33:48Z</time>
      </trkpt>
      <trkpt lat="49.78024" lon="2.37601">
        <ele>43.1</ele>
        <time>2022-07-13T09:33:49Z</time>
      </trkpt>
      <trkpt lat="49.78025" lon="2.37602">
        <ele>43.1</ele>
        <time>2022-07-13T09:33:50Z</time>
      </trkpt>
      <trkpt lat="49.78026" lon="2.37603">
        <ele>43.1</ele>
        <time>2022-07-13T09:33:51Z</time>
      </trkpt>
      <trkpt lat="49.78027" lon="2.37603">
        <ele>43.1</ele>
        <time>2022-07-13T09:33:52Z</time>
      </trkpt>
      <trkpt lat="49.78029" lon="2.37604">
        <ele>43</ele>
        <time>2022-07-13T09:33:54Z</time>
      </trkpt>
      <trkpt lat="49.7803" lon="2.37604">
        <ele>43</ele>
        <time>2022-07-13T09:33:55Z</time>
      </trkpt>
      <trkpt lat="49.78031" lon="2.37604">
        <ele>43</ele>
        <time>2022-07-13T09:33:56Z</time>
      </trkpt>
      <trkpt lat="49.78032" lon="2.37604">
        <ele>43</ele>
        <time>2022-07-13T09:33:57Z</time>
      </trkpt>
      <trkpt lat="49.78033" lon="2.37604">
        <ele>43</ele>
        <time>2022-07-13T09:33:58Z</time>
      </trkpt>
      <trkpt lat="49.78033" lon="2.37605">
        <ele>43</ele>
        <time>2022-07-13T09:33:59Z</time>
      </trkpt>
      <trkpt lat="49.78032" lon="2.37605">
        <ele>43</ele>
        <time>2022-07-13T09:34:00Z</time>
      </trkpt>
      <trkpt lat="49.78031" lon="2.37606">
        <ele>42.9</ele>
        <time>2022-07-13T09:34:01Z</time>
      </trkpt>
      <trkpt lat="49.78031" lon="2.37606">
        <ele>42.9</ele>
        <time>2022-07-13T09:34:02Z</time>
      </trkpt>
      <trkpt lat="49.78029" lon="2.37606">
        <ele>42.9</ele>
        <time>2022-07-13T09:34:04Z</time>
      </trkpt>
      <trkpt lat="49.78029" lon="2.37606">
        <ele>42.9</ele>
        <time>2022-07-13T09:34:05Z</time>
      </trkpt>
      <trkpt lat="49.78028" lon="2.37606">
        <ele>42.9</ele>
        <time>2022-07-13T09:34:06Z</time>
      </trkpt>
      <trkpt lat="49.78028" lon="2.37606">
        <ele>42.9</ele>
        <time>2022-07-13T09:34:07Z</time>
      </trkpt>
      <trkpt lat="49.78028" lon="2.37605">
        <ele>42.9</ele>
        <time>2022-07-13T09:34:08Z</time>
      </trkpt>
      <trkpt lat="49.78028" lon="2.37605">
        <ele>42.9</ele>
        <time>2022-07-13T09:34:09Z</time>
      </trkpt>
      <trkpt lat="49.78028" lon="2.37605">
        <ele>42.9</ele>
        <time>2022-07-13T09:34:10Z</time>
      </trkpt>
      <trkpt lat="49.78028" lon="2.37605">
        <ele>42.9</ele>
        <time>2022-07-13T09:34:11Z</time>
      </trkpt>
      <trkpt lat="49.78028" lon="2.37606">
        <ele>42.9</ele>
        <time>2022-07-13T09:34:12Z</time>
      </trkpt>
      <trkpt lat="49.78028" lon="2.37606">
        <ele>42.9</ele>
        <time>2022-07-13T09:34:14Z</time>
      </trkpt>
      <trkpt lat="49.78028" lon="2.37606">
        <ele>42.9</ele>
        <time>2022-07-13T09:34:15Z</time>
      </trkpt>
      <trkpt lat="49.78027" lon="2.37606">
        <ele>42.9</ele>
        <time>2022-07-13T09:34:16Z</time>
      </trkpt>
      <trkpt lat="49.78027" lon="2.37606">
        <ele>42.9</ele>
        <time>2022-07-13T09:34:17Z</time>
      </trkpt>
      <trkpt lat="49.78027" lon="2.37606">
        <ele>42.9</ele>
        <time>2022-07-13T09:34:18Z</time>
      </trkpt>
      <trkpt lat="49.78027" lon="2.37605">
        <ele>42.9</ele>
        <time>2022-07-13T09:34:19Z</time>
      </trkpt>
      <trkpt lat="49.78027" lon="2.37605">
        <ele>42.9</ele>
        <time>2022-07-13T09:34:20Z</time>
      </trkpt>
      <trkpt lat="49.78027" lon="2.37605">
        <ele>42.9</ele>
        <time>2022-07-13T09:34:21Z</time>
      </trkpt>
      <trkpt lat="49.78027" lon="2.37605">
        <ele>42.9</ele>
        <time>2022-07-13T09:34:22Z</time>
      </trkpt>
      <trkpt lat="49.78027" lon="2.37605">
        <ele>42.9</ele>
        <time>2022-07-13T09:34:23Z</time>
      </trkpt>
      <trkpt lat="49.78027" lon="2.37605">
        <ele>42.9</ele>
        <time>2022-07-13T09:34:24Z</time>
      </trkpt>
      <trkpt lat="49.78027" lon="2.37605">
        <ele>42.9</ele>
        <time>2022-07-13T09:34:25Z</time>
      </trkpt>
      <trkpt lat="49.78026" lon="2.37603">
        <ele>42.9</ele>
        <time>2022-07-13T09:34:26Z</time>
      </trkpt>
      <trkpt lat="49.78026" lon="2.37602">
        <ele>42.8</ele>
        <time>2022-07-13T09:34:27Z</time>
      </trkpt>
      <trkpt lat="49.78025" lon="2.37602">
        <ele>42.8</ele>
        <time>2022-07-13T09:34:28Z</time>
      </trkpt>
      <trkpt lat="49.78026" lon="2.37602">
        <ele>42.8</ele>
        <time>2022-07-13T09:34:29Z</time>
      </trkpt>
      <trkpt lat="49.78026" lon="2.37602">
        <ele>42.8</ele>
        <time>2022-07-13T09:34:30Z</time>
      </trkpt>
      <trkpt lat="49.78026" lon="2.37602">
        <ele>42.8</ele>
        <time>2022-07-13T09:34:31Z</time>
      </trkpt>
      <trkpt lat="49.78025" lon="2.37602">
        <ele>42.8</ele>
        <time>2022-07-13T09:34:32Z</time>
      </trkpt>
      <trkpt lat="49.78026" lon="2.37602">
        <ele>42.8</ele>
        <time>2022-07-13T09:34:33Z</time>
      </trkpt>
      <trkpt lat="49.78026" lon="2.37602">
        <ele>42.8</ele>
        <time>2022-07-13T09:34:34Z</time>
      </trkpt>
      <trkpt lat="49.78027" lon="2.37602">
        <ele>42.8</ele>
        <time>2022-07-13T09:34:35Z</time>
      </trkpt>
      <trkpt lat="49.78027" lon="2.37602">
        <ele>42.8</ele>
        <time>2022-07-13T09:34:36Z</time>
      </trkpt>
      <trkpt lat="49.78028" lon="2.37603">
        <ele>42.8</ele>
        <time>2022-07-13T09:34:37Z</time>
      </trkpt>
      <trkpt lat="49.78028" lon="2.37603">
        <ele>42.8</ele>
        <time>2022-07-13T09:34:38Z</time>
      </trkpt>
      <trkpt lat="49.78029" lon="2.37603">
        <ele>42.8</ele>
        <time>2022-07-13T09:34:39Z</time>
      </trkpt>
      <trkpt lat="49.78029" lon="2.37603">
        <ele>42.8</ele>
        <time>2022-07-13T09:34:40Z</time>
      </trkpt>
      <trkpt lat="49.7803" lon="2.37603">
        <ele>42.8</ele>
        <time>2022-07-13T09:34:41Z</time>
      </trkpt>
      <trkpt lat="49.7803" lon="2.37603">
        <ele>42.8</ele>
        <time>2022-07-13T09:34:42Z</time>
      </trkpt>
      <trkpt lat="49.7803" lon="2.37603">
        <ele>42.8</ele>
        <time>2022-07-13T09:34:43Z</time>
      </trkpt>
      <trkpt lat="49.7803" lon="2.37603">
        <ele>42.8</ele>
        <time>2022-07-13T09:34:44Z</time>
      </trkpt>
      <trkpt lat="49.78031" lon="2.37603">
        <ele>42.8</ele>
        <time>2022-07-13T09:34:45Z</time>
      </trkpt>
      <trkpt lat="49.78031" lon="2.37603">
        <ele>42.8</ele>
        <time>2022-07-13T09:34:46Z</time>
      </trkpt>
      <trkpt lat="49.78031" lon="2.37603">
        <ele>42.8</ele>
        <time>2022-07-13T09:34:47Z</time>
      </trkpt>
      <trkpt lat="49.78031" lon="2.37603">
        <ele>42.8</ele>
        <time>2022-07-13T09:34:48Z</time>
      </trkpt>
      <trkpt lat="49.78031" lon="2.37603">
        <ele>42.8</ele>
        <time>2022-07-13T09:34:49Z</time>
      </trkpt>
      <trkpt lat="49.78031" lon="2.37603">
        <ele>42.8</ele>
        <time>2022-07-13T09:34:50Z</time>
      </trkpt>
      <trkpt lat="49.78031" lon="2.37603">
        <ele>42.8</ele>
        <time>2022-07-13T09:34:51Z</time>
      </trkpt>
      <trkpt lat="49.78031" lon="2.37603">
        <ele>42.8</ele>
        <time>2022-07-13T09:34:52Z</time>
      </trkpt>
      <trkpt lat="49.78031" lon="2.37603">
        <ele>42.8</ele>
        <time>2022-07-13T09:34:53Z</time>
      </trkpt>
      <trkpt lat="49.78031" lon="2.37603">
        <ele>42.8</ele>
        <time>2022-07-13T09:34:54Z</time>
      </trkpt>
      <trkpt lat="49.78031" lon="2.37603">
        <ele>42.8</ele>
        <time>2022-07-13T09:34:55Z</time>
      </trkpt>
      <trkpt lat="49.78031" lon="2.37603">
        <ele>42.8</ele>
        <time>2022-07-13T09:34:56Z</time>
      </trkpt>
      <trkpt lat="49.78031" lon="2.37603">
        <ele>42.8</ele>
        <time>2022-07-13T09:34:57Z</time>
      </trkpt>
      <trkpt lat="49.78031" lon="2.37603">
        <ele>42.8</ele>
        <time>2022-07-13T09:34:58Z</time>
      </trkpt>
      <trkpt lat="49.7803" lon="2.37603">
        <ele>42.8</ele>
        <time>2022-07-13T09:34:59Z</time>
      </trkpt>
      <trkpt lat="49.7803" lon="2.37603">
        <ele>42.8</ele>
        <time>2022-07-13T09:35:00Z</time>
      </trkpt>
      <trkpt lat="49.7803" lon="2.37603">
        <ele>42.8</ele>
        <time>2022-07-13T09:35:01Z</time>
      </trkpt>
      <trkpt lat="49.7803" lon="2.37603">
        <ele>42.8</ele>
        <time>2022-07-13T09:35:02Z</time>
      </trkpt>
      <trkpt lat="49.7803" lon="2.37603">
        <ele>42.8</ele>
        <time>2022-07-13T09:35:03Z</time>
      </trkpt>
      <trkpt lat="49.78029" lon="2.37605">
        <ele>42.8</ele>
        <time>2022-07-13T09:35:04Z</time>
      </trkpt>
      <trkpt lat="49.78029" lon="2.37606">
        <ele>42.8</ele>
        <time>2022-07-13T09:35:05Z</time>
      </trkpt>
      <trkpt lat="49.78029" lon="2.37606">
        <ele>42.8</ele>
        <time>2022-07-13T09:35:06Z</time>
      </trkpt>
      <trkpt lat="49.78029" lon="2.37606">
        <ele>42.8</ele>
        <time>2022-07-13T09:35:07Z</time>
      </trkpt>
      <trkpt lat="49.78029" lon="2.37606">
        <ele>42.8</ele>
        <time>2022-07-13T09:35:08Z</time>
      </trkpt>
      <trkpt lat="49.78029" lon="2.37606">
        <ele>42.8</ele>
        <time>2022-07-13T09:35:09Z</time>
      </trkpt>
      <trkpt lat="49.78029" lon="2.37606">
        <ele>42.8</ele>
        <time>2022-07-13T09:35:10Z</time>
      </trkpt>
      <trkpt lat="49.78029" lon="2.37606">
        <ele>42.8</ele>
        <time>2022-07-13T09:35:11Z</time>
      </trkpt>
      <trkpt lat="49.78029" lon="2.37606">
        <ele>42.8</ele>
        <time>2022-07-13T09:35:12Z</time>
      </trkpt>
      <trkpt lat="49.78029" lon="2.37606">
        <ele>42.8</ele>
        <time>2022-07-13T09:35:13Z</time>
      </trkpt>
      <trkpt lat="49.78029" lon="2.37606">
        <ele>42.8</ele>
        <time>2022-07-13T09:35:14Z</time>
      </trkpt>
      <trkpt lat="49.78029" lon="2.37606">
        <ele>42.8</ele>
        <time>2022-07-13T09:35:15Z</time>
      </trkpt>
      <trkpt lat="49.78029" lon="2.37606">
        <ele>42.8</ele>
        <time>2022-07-13T09:35:16Z</time>
      </trkpt>
      <trkpt lat="49.78029" lon="2.37606">
        <ele>42.8</ele>
        <time>2022-07-13T09:35:17Z</time>
      </trkpt>
      <trkpt lat="49.78029" lon="2.37606">
        <ele>42.8</ele>
        <time>2022-07-13T09:35:18Z</time>
      </trkpt>
      <trkpt lat="49.78029" lon="2.37606">
        <ele>42.8</ele>
        <time>2022-07-13T09:35:19Z</time>
      </trkpt>
      <trkpt lat="49.78029" lon="2.37606">
        <ele>42.8</ele>
        <time>2022-07-13T09:35:20Z</time>
      </trkpt>
      <trkpt lat="49.78029" lon="2.37606">
        <ele>42.8</ele>
        <time>2022-07-13T09:35:21Z</time>
      </trkpt>
      <trkpt lat="49.78029" lon="2.37606">
        <ele>42.8</ele>
        <time>2022-07-13T09:35:22Z</time>
      </trkpt>
      <trkpt lat="49.78029" lon="2.37606">
        <ele>42.8</ele>
        <time>2022-07-13T09:35:23Z</time>
      </trkpt>
      <trkpt lat="49.78029" lon="2.37606">
        <ele>42.8</ele>
        <time>2022-07-13T09:35:24Z</time>
      </trkpt>
      <trkpt lat="49.78029" lon="2.37606">
        <ele>42.8</ele>
        <time>2022-07-13T09:35:25Z</time>
      </trkpt>
      <trkpt lat="49.78029" lon="2.37606">
        <ele>42.8</ele>
        <time>2022-07-13T09:35:26Z</time>
      </trkpt>
      <trkpt lat="49.78029" lon="2.37606">
        <ele>42.8</ele>
        <time>2022-07-13T09:35:27Z</time>
      </trkpt>
      <trkpt lat="49.78029" lon="2.37606">
        <ele>42.8</ele>
        <time>2022-07-13T09:35:28Z</time>
      </trkpt>
      <trkpt lat="49.78029" lon="2.37606">
        <ele>42.8</ele>
        <time>2022-07-13T09:35:29Z</time>
      </trkpt>
      <trkpt lat="49.78029" lon="2.37606">
        <ele>42.8</ele>
        <time>2022-07-13T09:35:30Z</time>
      </trkpt>
      <trkpt lat="49.78029" lon="2.37606">
        <ele>42.8</ele>
        <time>2022-07-13T09:35:31Z</time>
      </trkpt>
      <trkpt lat="49.78029" lon="2.37606">
        <ele>42.8</ele>
        <time>2022-07-13T09:35:32Z</time>
      </trkpt>
      <trkpt lat="49.78029" lon="2.37606">
        <ele>42.8</ele>
        <time>2022-07-13T09:35:33Z</time>
      </trkpt>
      <trkpt lat="49.78029" lon="2.37606">
        <ele>42.8</ele>
        <time>2022-07-13T09:35:34Z</time>
      </trkpt>
      <trkpt lat="49.78029" lon="2.37606">
        <ele>42.8</ele>
        <time>2022-07-13T09:35:35Z</time>
      </trkpt>
      <trkpt lat="49.78029" lon="2.37606">
        <ele>42.8</ele>
        <time>2022-07-13T09:35:36Z</time>
      </trkpt>
      <trkpt lat="49.78029" lon="2.37606">
        <ele>42.8</ele>
        <time>2022-07-13T09:35:37Z</time>
      </trkpt>
      <trkpt lat="49.78029" lon="2.37606">
        <ele>42.8</ele>
        <time>2022-07-13T09:35:38Z</time>
      </trkpt>
      <trkpt lat="49.78029" lon="2.37606">
        <ele>42.8</ele>
        <time>2022-07-13T09:35:39Z</time>
      </trkpt>
      <trkpt lat="49.78029" lon="2.37606">
        <ele>42.8</ele>
        <time>2022-07-13T09:35:40Z</time>
      </trkpt>
      <trkpt lat="49.78029" lon="2.37606">
        <ele>42.8</ele>
        <time>2022-07-13T09:35:41Z</time>
      </trkpt>
      <trkpt lat="49.78029" lon="2.37606">
        <ele>42.8</ele>
        <time>2022-07-13T09:35:42Z</time>
      </trkpt>
      <trkpt lat="49.78029" lon="2.37606">
        <ele>42.8</ele>
        <time>2022-07-13T09:35:43Z</time>
      </trkpt>
      <trkpt lat="49.78029" lon="2.37606">
        <ele>42.8</ele>
        <time>2022-07-13T09:35:44Z</time>
      </trkpt>
      <trkpt lat="49.78029" lon="2.37606">
        <ele>42.8</ele>
        <time>2022-07-13T09:35:45Z</time>
      </trkpt>
      <trkpt lat="49.78029" lon="2.37606">
        <ele>42.8</ele>
        <time>2022-07-13T09:35:46Z</time>
      </trkpt>
      <trkpt lat="49.78029" lon="2.37606">
        <ele>42.8</ele>
        <time>2022-07-13T09:35:47Z</time>
      </trkpt>
      <trkpt lat="49.78029" lon="2.37606">
        <ele>42.8</ele>
        <time>2022-07-13T09:35:48Z</time>
      </trkpt>
      <trkpt lat="49.78029" lon="2.37606">
        <ele>42.8</ele>
        <time>2022-07-13T09:35:49Z</time>
      </trkpt>
      <trkpt lat="49.78029" lon="2.37606">
        <ele>42.8</ele>
        <time>2022-07-13T09:35:50Z</time>
      </trkpt>
      <trkpt lat="49.78029" lon="2.37606">
        <ele>42.8</ele>
        <time>2022-07-13T09:35:51Z</time>
      </trkpt>
      <trkpt lat="49.78029" lon="2.37606">
        <ele>42.8</ele>
        <time>2022-07-13T09:35:52Z</time>
      </trkpt>
      <trkpt lat="49.78029" lon="2.37606">
        <ele>42.8</ele>
        <time>2022-07-13T09:35:53Z</time>
      </trkpt>
      <trkpt lat="49.78029" lon="2.37606">
        <ele>42.8</ele>
        <time>2022-07-13T09:35:54Z</time>
      </trkpt>
      <trkpt lat="49.78029" lon="2.37606">
        <ele>42.8</ele>
        <time>2022-07-13T09:35:55Z</time>
      </trkpt>
      <trkpt lat="49.78029" lon="2.37606">
        <ele>42.8</ele>
        <time>2022-07-13T09:35:56Z</time>
      </trkpt>
      <trkpt lat="49.78029" lon="2.37606">
        <ele>42.8</ele>
        <time>2022-07-13T09:35:57Z</time>
      </trkpt>
      <trkpt lat="49.78029" lon="2.37606">
        <ele>42.8</ele>
        <time>2022-07-13T09:35:58Z</time>
      </trkpt>
      <trkpt lat="49.78029" lon="2.37606">
        <ele>42.8</ele>
        <time>2022-07-13T09:35:59Z</time>
      </trkpt>
      <trkpt lat="49.78029" lon="2.37606">
        <ele>42.8</ele>
        <time>2022-07-13T09:36:00Z</time>
      </trkpt>
      <trkpt lat="49.78029" lon="2.37606">
        <ele>42.8</ele>
        <time>2022-07-13T09:36:01Z</time>
      </trkpt>
      <trkpt lat="49.78029" lon="2.37606">
        <ele>42.8</ele>
        <time>2022-07-13T09:36:02Z</time>
      </trkpt>
      <trkpt lat="49.78029" lon="2.37606">
        <ele>42.8</ele>
        <time>2022-07-13T09:36:03Z</time>
      </trkpt>
      <trkpt lat="49.78029" lon="2.37606">
        <ele>42.8</ele>
        <time>2022-07-13T09:36:04Z</time>
      </trkpt>
      <trkpt lat="49.78029" lon="2.37606">
        <ele>42.8</ele>
        <time>2022-07-13T09:36:05Z</time>
      </trkpt>
      <trkpt lat="49.78029" lon="2.37606">
        <ele>42.8</ele>
        <time>2022-07-13T09:36:06Z</time>
      </trkpt>
      <trkpt lat="49.78029" lon="2.37606">
        <ele>42.8</ele>
        <time>2022-07-13T09:36:07Z</time>
      </trkpt>
      <trkpt lat="49.78029" lon="2.37606">
        <ele>42.8</ele>
        <time>2022-07-13T09:36:08Z</time>
      </trkpt>
      <trkpt lat="49.78029" lon="2.37606">
        <ele>42.8</ele>
        <time>2022-07-13T09:36:09Z</time>
      </trkpt>
      <trkpt lat="49.78029" lon="2.37606">
        <ele>42.8</ele>
        <time>2022-07-13T09:36:10Z</time>
      </trkpt>
      <trkpt lat="49.78029" lon="2.37606">
        <ele>42.8</ele>
        <time>2022-07-13T09:36:11Z</time>
      </trkpt>
      <trkpt lat="49.78029" lon="2.37606">
        <ele>42.8</ele>
        <time>2022-07-13T09:36:12Z</time>
      </trkpt>
      <trkpt lat="49.78029" lon="2.37606">
        <ele>42.8</ele>
        <time>2022-07-13T09:36:13Z</time>
      </trkpt>
      <trkpt lat="49.78029" lon="2.37606">
        <ele>42.8</ele>
        <time>2022-07-13T09:36:14Z</time>
      </trkpt>
      <trkpt lat="49.78029" lon="2.37606">
        <ele>42.8</ele>
        <time>2022-07-13T09:36:15Z</time>
      </trkpt>
      <trkpt lat="49.78029" lon="2.37606">
        <ele>42.8</ele>
        <time>2022-07-13T09:36:16Z</time>
      </trkpt>
      <trkpt lat="49.78029" lon="2.37606">
        <ele>42.8</ele>
        <time>2022-07-13T09:36:17Z</time>
      </trkpt>
      <trkpt lat="49.78029" lon="2.37606">
        <ele>42.8</ele>
        <time>2022-07-13T09:36:18Z</time>
      </trkpt>
      <trkpt lat="49.78029" lon="2.37606">
        <ele>42.8</ele>
        <time>2022-07-13T09:36:19Z</time>
      </trkpt>
      <trkpt lat="49.78029" lon="2.37606">
        <ele>42.8</ele>
        <time>2022-07-13T09:36:20Z</time>
      </trkpt>
      <trkpt lat="49.78029" lon="2.37606">
        <ele>42.8</ele>
        <time>2022-07-13T09:36:21Z</time>
      </trkpt>
      <trkpt lat="49.7803" lon="2.37606">
        <ele>42.8</ele>
        <time>2022-07-13T09:36:22Z</time>
      </trkpt>
      <trkpt lat="49.78032" lon="2.37606">
        <ele>42.8</ele>
        <time>2022-07-13T09:36:23Z</time>
      </trkpt>
      <trkpt lat="49.78033" lon="2.37606">
        <ele>42.8</ele>
        <time>2022-07-13T09:36:24Z</time>
      </trkpt>
      <trkpt lat="49.78033" lon="2.37606">
        <ele>42.8</ele>
        <time>2022-07-13T09:36:25Z</time>
      </trkpt>
      <trkpt lat="49.78033" lon="2.37606">
        <ele>42.8</ele>
        <time>2022-07-13T09:36:26Z</time>
      </trkpt>
      <trkpt lat="49.78033" lon="2.37606">
        <ele>42.8</ele>
        <time>2022-07-13T09:36:27Z</time>
      </trkpt>
      <trkpt lat="49.78033" lon="2.37606">
        <ele>42.8</ele>
        <time>2022-07-13T09:36:28Z</time>
      </trkpt>
      <trkpt lat="49.78033" lon="2.37606">
        <ele>42.8</ele>
        <time>2022-07-13T09:36:30Z</time>
      </trkpt>
      <trkpt lat="49.78034" lon="2.37606">
        <ele>42.8</ele>
        <time>2022-07-13T09:36:31Z</time>
      </trkpt>
      <trkpt lat="49.78034" lon="2.37606">
        <ele>42.8</ele>
        <time>2022-07-13T09:36:32Z</time>
      </trkpt>
      <trkpt lat="49.78034" lon="2.37606">
        <ele>42.8</ele>
        <time>2022-07-13T09:36:33Z</time>
      </trkpt>
      <trkpt lat="49.78034" lon="2.37606">
        <ele>42.8</ele>
        <time>2022-07-13T09:36:34Z</time>
      </trkpt>
      <trkpt lat="49.78034" lon="2.37606">
        <ele>42.8</ele>
        <time>2022-07-13T09:36:35Z</time>
      </trkpt>
      <trkpt lat="49.78034" lon="2.37606">
        <ele>42.8</ele>
        <time>2022-07-13T09:36:36Z</time>
      </trkpt>
      <trkpt lat="49.78034" lon="2.37606">
        <ele>42.8</ele>
        <time>2022-07-13T09:36:37Z</time>
      </trkpt>
      <trkpt lat="49.78034" lon="2.37606">
        <ele>42.8</ele>
        <time>2022-07-13T09:36:38Z</time>
      </trkpt>
      <trkpt lat="49.78034" lon="2.37606">
        <ele>42.8</ele>
        <time>2022-07-13T09:36:40Z</time>
      </trkpt>
      <trkpt lat="49.78034" lon="2.37606">
        <ele>42.8</ele>
        <time>2022-07-13T09:36:41Z</time>
      </trkpt>
      <trkpt lat="49.78034" lon="2.37606">
        <ele>42.8</ele>
        <time>2022-07-13T09:36:42Z</time>
      </trkpt>
      <trkpt lat="49.78035" lon="2.37605">
        <ele>42.8</ele>
        <time>2022-07-13T09:36:43Z</time>
      </trkpt>
      <trkpt lat="49.78035" lon="2.37605">
        <ele>42.8</ele>
        <time>2022-07-13T09:36:44Z</time>
      </trkpt>
      <trkpt lat="49.78035" lon="2.37605">
        <ele>42.8</ele>
        <time>2022-07-13T09:36:45Z</time>
      </trkpt>
      <trkpt lat="49.78035" lon="2.37605">
        <ele>42.7</ele>
        <time>2022-07-13T09:36:46Z</time>
      </trkpt>
      <trkpt lat="49.78035" lon="2.37605">
        <ele>42.7</ele>
        <time>2022-07-13T09:36:47Z</time>
      </trkpt>
      <trkpt lat="49.78035" lon="2.37605">
        <ele>42.7</ele>
        <time>2022-07-13T09:36:48Z</time>
      </trkpt>
      <trkpt lat="49.78035" lon="2.37605">
        <ele>42.7</ele>
        <time>2022-07-13T09:36:49Z</time>
      </trkpt>
      <trkpt lat="49.78035" lon="2.37605">
        <ele>42.7</ele>
        <time>2022-07-13T09:36:50Z</time>
      </trkpt>
      <trkpt lat="49.78035" lon="2.37605">
        <ele>42.7</ele>
        <time>2022-07-13T09:36:51Z</time>
      </trkpt>
      <trkpt lat="49.78035" lon="2.37605">
        <ele>42.7</ele>
        <time>2022-07-13T09:36:53Z</time>
      </trkpt>
      <trkpt lat="49.78035" lon="2.37605">
        <ele>42.7</ele>
        <time>2022-07-13T09:36:55Z</time>
      </trkpt>
      <trkpt lat="49.78036" lon="2.37605">
        <ele>42.7</ele>
        <time>2022-07-13T09:36:57Z</time>
      </trkpt>
      <trkpt lat="49.78036" lon="2.37605">
        <ele>42.7</ele>
        <time>2022-07-13T09:36:58Z</time>
      </trkpt>
      <trkpt lat="49.78036" lon="2.37605">
        <ele>42.7</ele>
        <time>2022-07-13T09:36:59Z</time>
      </trkpt>
      <trkpt lat="49.78036" lon="2.37605">
        <ele>42.7</ele>
        <time>2022-07-13T09:37:00Z</time>
      </trkpt>
      <trkpt lat="49.78039" lon="2.37605">
        <ele>42.7</ele>
        <time>2022-07-13T09:37:01Z</time>
      </trkpt>
      <trkpt lat="49.7804" lon="2.37605">
        <ele>42.7</ele>
        <time>2022-07-13T09:37:02Z</time>
      </trkpt>
      <trkpt lat="49.78042" lon="2.37605">
        <ele>42.7</ele>
        <time>2022-07-13T09:37:03Z</time>
      </trkpt>
      <trkpt lat="49.78044" lon="2.37606">
        <ele>42.7</ele>
        <time>2022-07-13T09:37:04Z</time>
      </trkpt>
      <trkpt lat="49.78045" lon="2.37606">
        <ele>42.7</ele>
        <time>2022-07-13T09:37:05Z</time>
      </trkpt>
      <trkpt lat="49.78046" lon="2.37607">
        <ele>42.7</ele>
        <time>2022-07-13T09:37:06Z</time>
      </trkpt>
      <trkpt lat="49.78046" lon="2.37608">
        <ele>42.7</ele>
        <time>2022-07-13T09:37:07Z</time>
      </trkpt>
      <trkpt lat="49.78048" lon="2.3761">
        <ele>42.7</ele>
        <time>2022-07-13T09:37:08Z</time>
      </trkpt>
      <trkpt lat="49.78048" lon="2.37611">
        <ele>42.7</ele>
        <time>2022-07-13T09:37:09Z</time>
      </trkpt>
      <trkpt lat="49.78049" lon="2.37612">
        <ele>42.7</ele>
        <time>2022-07-13T09:37:10Z</time>
      </trkpt>
      <trkpt lat="49.7805" lon="2.37613">
        <ele>42.7</ele>
        <time>2022-07-13T09:37:12Z</time>
      </trkpt>
      <trkpt lat="49.7805" lon="2.37614">
        <ele>42.6</ele>
        <time>2022-07-13T09:37:13Z</time>
      </trkpt>
      <trkpt lat="49.7805" lon="2.37615">
        <ele>42.6</ele>
        <time>2022-07-13T09:37:14Z</time>
      </trkpt>
      <trkpt lat="49.78051" lon="2.37616">
        <ele>42.6</ele>
        <time>2022-07-13T09:37:15Z</time>
      </trkpt>
      <trkpt lat="49.78052" lon="2.37617">
        <ele>42.6</ele>
        <time>2022-07-13T09:37:16Z</time>
      </trkpt>
      <trkpt lat="49.78053" lon="2.37618">
        <ele>42.6</ele>
        <time>2022-07-13T09:37:17Z</time>
      </trkpt>
      <trkpt lat="49.78054" lon="2.3762">
        <ele>42.6</ele>
        <time>2022-07-13T09:37:18Z</time>
      </trkpt>
      <trkpt lat="49.78055" lon="2.37621">
        <ele>42.6</ele>
        <time>2022-07-13T09:37:20Z</time>
      </trkpt>
      <trkpt lat="49.78055" lon="2.37622">
        <ele>42.6</ele>
        <time>2022-07-13T09:37:21Z</time>
      </trkpt>
      <trkpt lat="49.78056" lon="2.37623">
        <ele>42.6</ele>
        <time>2022-07-13T09:37:22Z</time>
      </trkpt>
      <trkpt lat="49.78058" lon="2.37624">
        <ele>42.5</ele>
        <time>2022-07-13T09:37:23Z</time>
      </trkpt>
      <trkpt lat="49.78059" lon="2.37625">
        <ele>42.5</ele>
        <time>2022-07-13T09:37:24Z</time>
      </trkpt>
      <trkpt lat="49.78059" lon="2.37626">
        <ele>42.5</ele>
        <time>2022-07-13T09:37:25Z</time>
      </trkpt>
      <trkpt lat="49.7806" lon="2.37627">
        <ele>42.5</ele>
        <time>2022-07-13T09:37:26Z</time>
      </trkpt>
      <trkpt lat="49.78061" lon="2.37628">
        <ele>42.5</ele>
        <time>2022-07-13T09:37:27Z</time>
      </trkpt>
      <trkpt lat="49.78062" lon="2.37629">
        <ele>42.5</ele>
        <time>2022-07-13T09:37:29Z</time>
      </trkpt>
      <trkpt lat="49.78063" lon="2.3763">
        <ele>42.4</ele>
        <time>2022-07-13T09:37:30Z</time>
      </trkpt>
      <trkpt lat="49.78064" lon="2.37632">
        <ele>42.4</ele>
        <time>2022-07-13T09:37:31Z</time>
      </trkpt>
      <trkpt lat="49.78065" lon="2.37635">
        <ele>42.4</ele>
        <time>2022-07-13T09:37:32Z</time>
      </trkpt>
      <trkpt lat="49.78066" lon="2.37635">
        <ele>42.4</ele>
        <time>2022-07-13T09:37:33Z</time>
      </trkpt>
      <trkpt lat="49.78067" lon="2.37636">
        <ele>42.4</ele>
        <time>2022-07-13T09:37:34Z</time>
      </trkpt>
      <trkpt lat="49.78069" lon="2.3764">
        <ele>42.3</ele>
        <time>2022-07-13T09:37:35Z</time>
      </trkpt>
      <trkpt lat="49.78069" lon="2.37641">
        <ele>42.3</ele>
        <time>2022-07-13T09:37:37Z</time>
      </trkpt>
      <trkpt lat="49.7807" lon="2.37642">
        <ele>42.3</ele>
        <time>2022-07-13T09:37:38Z</time>
      </trkpt>
      <trkpt lat="49.78071" lon="2.37643">
        <ele>42.2</ele>
        <time>2022-07-13T09:37:39Z</time>
      </trkpt>
      <trkpt lat="49.78071" lon="2.37644">
        <ele>42.2</ele>
        <time>2022-07-13T09:37:40Z</time>
      </trkpt>
      <trkpt lat="49.78073" lon="2.37647">
        <ele>42.2</ele>
        <time>2022-07-13T09:37:41Z</time>
      </trkpt>
      <trkpt lat="49.78074" lon="2.37648">
        <ele>42.2</ele>
        <time>2022-07-13T09:37:42Z</time>
      </trkpt>
      <trkpt lat="49.78076" lon="2.3765">
        <ele>42.2</ele>
        <time>2022-07-13T09:37:43Z</time>
      </trkpt>
      <trkpt lat="49.78076" lon="2.3765">
        <ele>42.2</ele>
        <time>2022-07-13T09:37:44Z</time>
      </trkpt>
      <trkpt lat="49.78077" lon="2.37651">
        <ele>42.1</ele>
        <time>2022-07-13T09:37:45Z</time>
      </trkpt>
      <trkpt lat="49.78078" lon="2.37652">
        <ele>42.1</ele>
        <time>2022-07-13T09:37:46Z</time>
      </trkpt>
      <trkpt lat="49.78079" lon="2.37654">
        <ele>42.1</ele>
        <time>2022-07-13T09:37:47Z</time>
      </trkpt>
      <trkpt lat="49.7808" lon="2.37656">
        <ele>42.1</ele>
        <time>2022-07-13T09:37:48Z</time>
      </trkpt>
      <trkpt lat="49.78081" lon="2.37657">
        <ele>42.1</ele>
        <time>2022-07-13T09:37:50Z</time>
      </trkpt>
      <trkpt lat="49.78082" lon="2.37659">
        <ele>42.1</ele>
        <time>2022-07-13T09:37:51Z</time>
      </trkpt>
      <trkpt lat="49.78083" lon="2.3766">
        <ele>42.1</ele>
        <time>2022-07-13T09:37:52Z</time>
      </trkpt>
      <trkpt lat="49.78084" lon="2.37661">
        <ele>42.1</ele>
        <time>2022-07-13T09:37:53Z</time>
      </trkpt>
      <trkpt lat="49.78085" lon="2.37663">
        <ele>42.1</ele>
        <time>2022-07-13T09:37:54Z</time>
      </trkpt>
      <trkpt lat="49.78085" lon="2.37664">
        <ele>42.1</ele>
        <time>2022-07-13T09:37:55Z</time>
      </trkpt>
      <trkpt lat="49.78087" lon="2.37665">
        <ele>42.1</ele>
        <time>2022-07-13T09:37:56Z</time>
      </trkpt>
      <trkpt lat="49.78088" lon="2.37667">
        <ele>42.1</ele>
        <time>2022-07-13T09:37:57Z</time>
      </trkpt>
      <trkpt lat="49.78089" lon="2.37668">
        <ele>42.1</ele>
        <time>2022-07-13T09:37:58Z</time>
      </trkpt>
      <trkpt lat="49.7809" lon="2.3767">
        <ele>42.1</ele>
        <time>2022-07-13T09:37:59Z</time>
      </trkpt>
      <trkpt lat="49.78092" lon="2.37672">
        <ele>42.1</ele>
        <time>2022-07-13T09:38:00Z</time>
      </trkpt>
      <trkpt lat="49.78092" lon="2.37673">
        <ele>42.1</ele>
        <time>2022-07-13T09:38:02Z</time>
      </trkpt>
      <trkpt lat="49.78093" lon="2.37674">
        <ele>42.1</ele>
        <time>2022-07-13T09:38:03Z</time>
      </trkpt>
      <trkpt lat="49.78094" lon="2.37677">
        <ele>42.1</ele>
        <time>2022-07-13T09:38:04Z</time>
      </trkpt>
      <trkpt lat="49.78095" lon="2.37678">
        <ele>42.1</ele>
        <time>2022-07-13T09:38:05Z</time>
      </trkpt>
      <trkpt lat="49.78096" lon="2.3768">
        <ele>42.1</ele>
        <time>2022-07-13T09:38:06Z</time>
      </trkpt>
      <trkpt lat="49.78097" lon="2.37681">
        <ele>42.1</ele>
        <time>2022-07-13T09:38:07Z</time>
      </trkpt>
      <trkpt lat="49.78098" lon="2.37684">
        <ele>42.1</ele>
        <time>2022-07-13T09:38:09Z</time>
      </trkpt>
      <trkpt lat="49.78099" lon="2.37685">
        <ele>42.1</ele>
        <time>2022-07-13T09:38:10Z</time>
      </trkpt>
      <trkpt lat="49.781" lon="2.37686">
        <ele>42.1</ele>
        <time>2022-07-13T09:38:11Z</time>
      </trkpt>
      <trkpt lat="49.781" lon="2.37687">
        <ele>42.1</ele>
        <time>2022-07-13T09:38:12Z</time>
      </trkpt>
      <trkpt lat="49.78101" lon="2.37688">
        <ele>42.1</ele>
        <time>2022-07-13T09:38:13Z</time>
      </trkpt>
      <trkpt lat="49.78102" lon="2.3769">
        <ele>42.1</ele>
        <time>2022-07-13T09:38:14Z</time>
      </trkpt>
      <trkpt lat="49.78103" lon="2.37691">
        <ele>42.1</ele>
        <time>2022-07-13T09:38:15Z</time>
      </trkpt>
      <trkpt lat="49.78105" lon="2.37693">
        <ele>42.1</ele>
        <time>2022-07-13T09:38:17Z</time>
      </trkpt>
      <trkpt lat="49.78106" lon="2.37694">
        <ele>42.1</ele>
        <time>2022-07-13T09:38:18Z</time>
      </trkpt>
      <trkpt lat="49.78107" lon="2.37694">
        <ele>42.1</ele>
        <time>2022-07-13T09:38:19Z</time>
      </trkpt>
      <trkpt lat="49.78108" lon="2.37695">
        <ele>42.1</ele>
        <time>2022-07-13T09:38:20Z</time>
      </trkpt>
      <trkpt lat="49.78109" lon="2.37695">
        <ele>42.1</ele>
        <time>2022-07-13T09:38:21Z</time>
      </trkpt>
      <trkpt lat="49.7811" lon="2.37696">
        <ele>42</ele>
        <time>2022-07-13T09:38:22Z</time>
      </trkpt>
      <trkpt lat="49.78112" lon="2.37696">
        <ele>42</ele>
        <time>2022-07-13T09:38:24Z</time>
      </trkpt>
      <trkpt lat="49.78113" lon="2.37697">
        <ele>42</ele>
        <time>2022-07-13T09:38:25Z</time>
      </trkpt>
      <trkpt lat="49.78114" lon="2.37697">
        <ele>42</ele>
        <time>2022-07-13T09:38:26Z</time>
      </trkpt>
      <trkpt lat="49.78116" lon="2.37697">
        <ele>42</ele>
        <time>2022-07-13T09:38:27Z</time>
      </trkpt>
      <trkpt lat="49.78117" lon="2.37697">
        <ele>42</ele>
        <time>2022-07-13T09:38:28Z</time>
      </trkpt>
      <trkpt lat="49.78119" lon="2.37697">
        <ele>42</ele>
        <time>2022-07-13T09:38:29Z</time>
      </trkpt>
      <trkpt lat="49.78119" lon="2.37698">
        <ele>42</ele>
        <time>2022-07-13T09:38:30Z</time>
      </trkpt>
      <trkpt lat="49.7812" lon="2.37698">
        <ele>42</ele>
        <time>2022-07-13T09:38:31Z</time>
      </trkpt>
      <trkpt lat="49.78121" lon="2.37699">
        <ele>42</ele>
        <time>2022-07-13T09:38:33Z</time>
      </trkpt>
      <trkpt lat="49.78122" lon="2.37701">
        <ele>42</ele>
        <time>2022-07-13T09:38:34Z</time>
      </trkpt>
      <trkpt lat="49.78123" lon="2.37702">
        <ele>42</ele>
        <time>2022-07-13T09:38:35Z</time>
      </trkpt>
      <trkpt lat="49.78124" lon="2.37703">
        <ele>42</ele>
        <time>2022-07-13T09:38:36Z</time>
      </trkpt>
      <trkpt lat="49.78125" lon="2.37704">
        <ele>42</ele>
        <time>2022-07-13T09:38:37Z</time>
      </trkpt>
      <trkpt lat="49.78126" lon="2.37705">
        <ele>42</ele>
        <time>2022-07-13T09:38:38Z</time>
      </trkpt>
      <trkpt lat="49.78128" lon="2.37707">
        <ele>41.9</ele>
        <time>2022-07-13T09:38:39Z</time>
      </trkpt>
      <trkpt lat="49.78129" lon="2.37708">
        <ele>41.9</ele>
        <time>2022-07-13T09:38:40Z</time>
      </trkpt>
      <trkpt lat="49.7813" lon="2.37709">
        <ele>41.9</ele>
        <time>2022-07-13T09:38:41Z</time>
      </trkpt>
      <trkpt lat="49.78131" lon="2.37711">
        <ele>41.9</ele>
        <time>2022-07-13T09:38:43Z</time>
      </trkpt>
      <trkpt lat="49.78133" lon="2.37713">
        <ele>41.9</ele>
        <time>2022-07-13T09:38:44Z</time>
      </trkpt>
      <trkpt lat="49.78133" lon="2.37714">
        <ele>41.9</ele>
        <time>2022-07-13T09:38:45Z</time>
      </trkpt>
      <trkpt lat="49.78133" lon="2.37715">
        <ele>41.9</ele>
        <time>2022-07-13T09:38:46Z</time>
      </trkpt>
      <trkpt lat="49.78134" lon="2.37717">
        <ele>41.8</ele>
        <time>2022-07-13T09:38:47Z</time>
      </trkpt>
      <trkpt lat="49.78134" lon="2.37719">
        <ele>41.8</ele>
        <time>2022-07-13T09:38:48Z</time>
      </trkpt>
      <trkpt lat="49.78135" lon="2.37723">
        <ele>41.8</ele>
        <time>2022-07-13T09:38:49Z</time>
      </trkpt>
      <trkpt lat="49.78136" lon="2.37724">
        <ele>41.8</ele>
        <time>2022-07-13T09:38:51Z</time>
      </trkpt>
      <trkpt lat="49.78137" lon="2.37726">
        <ele>41.8</ele>
        <time>2022-07-13T09:38:52Z</time>
      </trkpt>
      <trkpt lat="49.78137" lon="2.37727">
        <ele>41.8</ele>
        <time>2022-07-13T09:38:53Z</time>
      </trkpt>
      <trkpt lat="49.78138" lon="2.37729">
        <ele>41.8</ele>
        <time>2022-07-13T09:38:54Z</time>
      </trkpt>
      <trkpt lat="49.78138" lon="2.3773">
        <ele>41.8</ele>
        <time>2022-07-13T09:38:55Z</time>
      </trkpt>
      <trkpt lat="49.78139" lon="2.37731">
        <ele>41.7</ele>
        <time>2022-07-13T09:38:57Z</time>
      </trkpt>
      <trkpt lat="49.78139" lon="2.37733">
        <ele>41.7</ele>
        <time>2022-07-13T09:38:58Z</time>
      </trkpt>
      <trkpt lat="49.7814" lon="2.37734">
        <ele>41.7</ele>
        <time>2022-07-13T09:38:59Z</time>
      </trkpt>
      <trkpt lat="49.7814" lon="2.37736">
        <ele>41.7</ele>
        <time>2022-07-13T09:39:00Z</time>
      </trkpt>
      <trkpt lat="49.78141" lon="2.37737">
        <ele>41.7</ele>
        <time>2022-07-13T09:39:01Z</time>
      </trkpt>
      <trkpt lat="49.78141" lon="2.37739">
        <ele>41.7</ele>
        <time>2022-07-13T09:39:02Z</time>
      </trkpt>
      <trkpt lat="49.78141" lon="2.3774">
        <ele>41.7</ele>
        <time>2022-07-13T09:39:03Z</time>
      </trkpt>
      <trkpt lat="49.78141" lon="2.37742">
        <ele>41.7</ele>
        <time>2022-07-13T09:39:04Z</time>
      </trkpt>
      <trkpt lat="49.78141" lon="2.37743">
        <ele>41.7</ele>
        <time>2022-07-13T09:39:05Z</time>
      </trkpt>
      <trkpt lat="49.78141" lon="2.37744">
        <ele>41.7</ele>
        <time>2022-07-13T09:39:06Z</time>
      </trkpt>
      <trkpt lat="49.78142" lon="2.37746">
        <ele>41.7</ele>
        <time>2022-07-13T09:39:07Z</time>
      </trkpt>
      <trkpt lat="49.78142" lon="2.37747">
        <ele>41.7</ele>
        <time>2022-07-13T09:39:08Z</time>
      </trkpt>
      <trkpt lat="49.78143" lon="2.37749">
        <ele>41.6</ele>
        <time>2022-07-13T09:39:09Z</time>
      </trkpt>
      <trkpt lat="49.78144" lon="2.37751">
        <ele>41.6</ele>
        <time>2022-07-13T09:39:10Z</time>
      </trkpt>
      <trkpt lat="49.78145" lon="2.37752">
        <ele>41.6</ele>
        <time>2022-07-13T09:39:12Z</time>
      </trkpt>
      <trkpt lat="49.78145" lon="2.37753">
        <ele>41.6</ele>
        <time>2022-07-13T09:39:13Z</time>
      </trkpt>
      <trkpt lat="49.78146" lon="2.37755">
        <ele>41.6</ele>
        <time>2022-07-13T09:39:14Z</time>
      </trkpt>
      <trkpt lat="49.78147" lon="2.37756">
        <ele>41.6</ele>
        <time>2022-07-13T09:39:15Z</time>
      </trkpt>
      <trkpt lat="49.78147" lon="2.37757">
        <ele>41.6</ele>
        <time>2022-07-13T09:39:16Z</time>
      </trkpt>
      <trkpt lat="49.78148" lon="2.37758">
        <ele>41.6</ele>
        <time>2022-07-13T09:39:17Z</time>
      </trkpt>
      <trkpt lat="49.78148" lon="2.3776">
        <ele>41.6</ele>
        <time>2022-07-13T09:39:18Z</time>
      </trkpt>
      <trkpt lat="49.78149" lon="2.37761">
        <ele>41.6</ele>
        <time>2022-07-13T09:39:19Z</time>
      </trkpt>
      <trkpt lat="49.7815" lon="2.37763">
        <ele>41.6</ele>
        <time>2022-07-13T09:39:20Z</time>
      </trkpt>
      <trkpt lat="49.78151" lon="2.37764">
        <ele>41.6</ele>
        <time>2022-07-13T09:39:21Z</time>
      </trkpt>
      <trkpt lat="49.78151" lon="2.37765">
        <ele>41.6</ele>
        <time>2022-07-13T09:39:22Z</time>
      </trkpt>
      <trkpt lat="49.78152" lon="2.37766">
        <ele>41.6</ele>
        <time>2022-07-13T09:39:24Z</time>
      </trkpt>
      <trkpt lat="49.78153" lon="2.37768">
        <ele>41.6</ele>
        <time>2022-07-13T09:39:25Z</time>
      </trkpt>
      <trkpt lat="49.78154" lon="2.37769">
        <ele>41.6</ele>
        <time>2022-07-13T09:39:26Z</time>
      </trkpt>
      <trkpt lat="49.78154" lon="2.37771">
        <ele>41.6</ele>
        <time>2022-07-13T09:39:27Z</time>
      </trkpt>
      <trkpt lat="49.78155" lon="2.37772">
        <ele>41.6</ele>
        <time>2022-07-13T09:39:28Z</time>
      </trkpt>
      <trkpt lat="49.78157" lon="2.37776">
        <ele>41.6</ele>
        <time>2022-07-13T09:39:30Z</time>
      </trkpt>
      <trkpt lat="49.78158" lon="2.37778">
        <ele>41.6</ele>
        <time>2022-07-13T09:39:31Z</time>
      </trkpt>
      <trkpt lat="49.78159" lon="2.37779">
        <ele>41.6</ele>
        <time>2022-07-13T09:39:32Z</time>
      </trkpt>
      <trkpt lat="49.78159" lon="2.3778">
        <ele>41.6</ele>
        <time>2022-07-13T09:39:33Z</time>
      </trkpt>
      <trkpt lat="49.7816" lon="2.37782">
        <ele>41.6</ele>
        <time>2022-07-13T09:39:34Z</time>
      </trkpt>
      <trkpt lat="49.78161" lon="2.37784">
        <ele>41.6</ele>
        <time>2022-07-13T09:39:35Z</time>
      </trkpt>
      <trkpt lat="49.78162" lon="2.37787">
        <ele>41.6</ele>
        <time>2022-07-13T09:39:36Z</time>
      </trkpt>
      <trkpt lat="49.78162" lon="2.37788">
        <ele>41.6</ele>
        <time>2022-07-13T09:39:38Z</time>
      </trkpt>
      <trkpt lat="49.78162" lon="2.3779">
        <ele>41.6</ele>
        <time>2022-07-13T09:39:39Z</time>
      </trkpt>
      <trkpt lat="49.78163" lon="2.37792">
        <ele>41.6</ele>
        <time>2022-07-13T09:39:40Z</time>
      </trkpt>
      <trkpt lat="49.78163" lon="2.37794">
        <ele>41.6</ele>
        <time>2022-07-13T09:39:41Z</time>
      </trkpt>
      <trkpt lat="49.78163" lon="2.37797">
        <ele>41.6</ele>
        <time>2022-07-13T09:39:42Z</time>
      </trkpt>
      <trkpt lat="49.78163" lon="2.37798">
        <ele>41.6</ele>
        <time>2022-07-13T09:39:43Z</time>
      </trkpt>
      <trkpt lat="49.78163" lon="2.378">
        <ele>41.6</ele>
        <time>2022-07-13T09:39:44Z</time>
      </trkpt>
      <trkpt lat="49.78164" lon="2.37803">
        <ele>41.6</ele>
        <time>2022-07-13T09:39:45Z</time>
      </trkpt>
      <trkpt lat="49.78164" lon="2.37804">
        <ele>41.6</ele>
        <time>2022-07-13T09:39:46Z</time>
      </trkpt>
      <trkpt lat="49.78164" lon="2.37806">
        <ele>41.7</ele>
        <time>2022-07-13T09:39:47Z</time>
      </trkpt>
      <trkpt lat="49.78164" lon="2.37808">
        <ele>41.7</ele>
        <time>2022-07-13T09:39:48Z</time>
      </trkpt>
      <trkpt lat="49.78164" lon="2.3781">
        <ele>41.7</ele>
        <time>2022-07-13T09:39:49Z</time>
      </trkpt>
      <trkpt lat="49.78163" lon="2.37813">
        <ele>41.7</ele>
        <time>2022-07-13T09:39:51Z</time>
      </trkpt>
      <trkpt lat="49.78163" lon="2.37814">
        <ele>41.7</ele>
        <time>2022-07-13T09:39:52Z</time>
      </trkpt>
      <trkpt lat="49.78163" lon="2.37817">
        <ele>41.7</ele>
        <time>2022-07-13T09:39:53Z</time>
      </trkpt>
      <trkpt lat="49.78163" lon="2.37819">
        <ele>41.7</ele>
        <time>2022-07-13T09:39:54Z</time>
      </trkpt>
      <trkpt lat="49.78163" lon="2.3782">
        <ele>41.7</ele>
        <time>2022-07-13T09:39:55Z</time>
      </trkpt>
      <trkpt lat="49.78162" lon="2.37822">
        <ele>41.7</ele>
        <time>2022-07-13T09:39:56Z</time>
      </trkpt>
      <trkpt lat="49.78162" lon="2.37823">
        <ele>41.7</ele>
        <time>2022-07-13T09:39:57Z</time>
      </trkpt>
      <trkpt lat="49.78162" lon="2.37824">
        <ele>41.7</ele>
        <time>2022-07-13T09:39:58Z</time>
      </trkpt>
      <trkpt lat="49.78161" lon="2.37825">
        <ele>41.7</ele>
        <time>2022-07-13T09:39:59Z</time>
      </trkpt>
      <trkpt lat="49.78161" lon="2.37828">
        <ele>41.7</ele>
        <time>2022-07-13T09:40:00Z</time>
      </trkpt>
      <trkpt lat="49.7816" lon="2.37829">
        <ele>41.7</ele>
        <time>2022-07-13T09:40:01Z</time>
      </trkpt>
      <trkpt lat="49.7816" lon="2.3783">
        <ele>41.7</ele>
        <time>2022-07-13T09:40:03Z</time>
      </trkpt>
      <trkpt lat="49.7816" lon="2.37832">
        <ele>41.7</ele>
        <time>2022-07-13T09:40:04Z</time>
      </trkpt>
      <trkpt lat="49.78159" lon="2.37833">
        <ele>41.7</ele>
        <time>2022-07-13T09:40:05Z</time>
      </trkpt>
      <trkpt lat="49.78159" lon="2.37833">
        <ele>41.7</ele>
        <time>2022-07-13T09:40:06Z</time>
      </trkpt>
      <trkpt lat="49.78159" lon="2.37834">
        <ele>41.7</ele>
        <time>2022-07-13T09:40:07Z</time>
      </trkpt>
      <trkpt lat="49.78159" lon="2.37837">
        <ele>41.7</ele>
        <time>2022-07-13T09:40:09Z</time>
      </trkpt>
      <trkpt lat="49.78159" lon="2.37839">
        <ele>41.7</ele>
        <time>2022-07-13T09:40:10Z</time>
      </trkpt>
      <trkpt lat="49.78158" lon="2.3784">
        <ele>41.7</ele>
        <time>2022-07-13T09:40:11Z</time>
      </trkpt>
      <trkpt lat="49.78158" lon="2.37842">
        <ele>41.7</ele>
        <time>2022-07-13T09:40:12Z</time>
      </trkpt>
      <trkpt lat="49.78157" lon="2.37845">
        <ele>41.7</ele>
        <time>2022-07-13T09:40:13Z</time>
      </trkpt>
      <trkpt lat="49.78157" lon="2.37846">
        <ele>41.7</ele>
        <time>2022-07-13T09:40:14Z</time>
      </trkpt>
      <trkpt lat="49.78157" lon="2.37847">
        <ele>41.7</ele>
        <time>2022-07-13T09:40:15Z</time>
      </trkpt>
      <trkpt lat="49.78156" lon="2.37849">
        <ele>41.8</ele>
        <time>2022-07-13T09:40:16Z</time>
      </trkpt>
      <trkpt lat="49.78156" lon="2.37849">
        <ele>41.8</ele>
        <time>2022-07-13T09:40:18Z</time>
      </trkpt>
      <trkpt lat="49.78155" lon="2.37848">
        <ele>41.8</ele>
        <time>2022-07-13T09:40:19Z</time>
      </trkpt>
      <trkpt lat="49.78154" lon="2.37849">
        <ele>41.8</ele>
        <time>2022-07-13T09:40:20Z</time>
      </trkpt>
      <trkpt lat="49.78153" lon="2.37851">
        <ele>41.8</ele>
        <time>2022-07-13T09:40:21Z</time>
      </trkpt>
      <trkpt lat="49.78153" lon="2.37853">
        <ele>41.8</ele>
        <time>2022-07-13T09:40:22Z</time>
      </trkpt>
      <trkpt lat="49.78153" lon="2.37854">
        <ele>41.8</ele>
        <time>2022-07-13T09:40:23Z</time>
      </trkpt>
      <trkpt lat="49.78152" lon="2.37857">
        <ele>41.8</ele>
        <time>2022-07-13T09:40:24Z</time>
      </trkpt>
      <trkpt lat="49.78152" lon="2.37858">
        <ele>41.8</ele>
        <time>2022-07-13T09:40:25Z</time>
      </trkpt>
      <trkpt lat="49.78151" lon="2.3786">
        <ele>41.8</ele>
        <time>2022-07-13T09:40:26Z</time>
      </trkpt>
      <trkpt lat="49.78151" lon="2.37861">
        <ele>41.8</ele>
        <time>2022-07-13T09:40:27Z</time>
      </trkpt>
      <trkpt lat="49.7815" lon="2.37863">
        <ele>41.8</ele>
        <time>2022-07-13T09:40:28Z</time>
      </trkpt>
      <trkpt lat="49.78149" lon="2.37865">
        <ele>41.8</ele>
        <time>2022-07-13T09:40:29Z</time>
      </trkpt>
      <trkpt lat="49.78148" lon="2.37866">
        <ele>41.8</ele>
        <time>2022-07-13T09:40:30Z</time>
      </trkpt>
      <trkpt lat="49.78148" lon="2.37868">
        <ele>41.8</ele>
        <time>2022-07-13T09:40:32Z</time>
      </trkpt>
      <trkpt lat="49.78147" lon="2.3787">
        <ele>41.8</ele>
        <time>2022-07-13T09:40:33Z</time>
      </trkpt>
      <trkpt lat="49.78146" lon="2.37872">
        <ele>41.8</ele>
        <time>2022-07-13T09:40:34Z</time>
      </trkpt>
      <trkpt lat="49.78146" lon="2.37874">
        <ele>41.8</ele>
        <time>2022-07-13T09:40:35Z</time>
      </trkpt>
      <trkpt lat="49.78146" lon="2.37876">
        <ele>41.9</ele>
        <time>2022-07-13T09:40:36Z</time>
      </trkpt>
      <trkpt lat="49.78145" lon="2.37877">
        <ele>41.9</ele>
        <time>2022-07-13T09:40:38Z</time>
      </trkpt>
      <trkpt lat="49.78145" lon="2.37879">
        <ele>41.9</ele>
        <time>2022-07-13T09:40:39Z</time>
      </trkpt>
      <trkpt lat="49.78144" lon="2.37881">
        <ele>41.9</ele>
        <time>2022-07-13T09:40:40Z</time>
      </trkpt>
      <trkpt lat="49.78143" lon="2.37884">
        <ele>41.9</ele>
        <time>2022-07-13T09:40:41Z</time>
      </trkpt>
      <trkpt lat="49.78143" lon="2.37885">
        <ele>41.9</ele>
        <time>2022-07-13T09:40:42Z</time>
      </trkpt>
      <trkpt lat="49.78143" lon="2.37886">
        <ele>41.9</ele>
        <time>2022-07-13T09:40:43Z</time>
      </trkpt>
      <trkpt lat="49.78142" lon="2.37889">
        <ele>41.9</ele>
        <time>2022-07-13T09:40:44Z</time>
      </trkpt>
      <trkpt lat="49.78142" lon="2.3789">
        <ele>42</ele>
        <time>2022-07-13T09:40:45Z</time>
      </trkpt>
      <trkpt lat="49.78141" lon="2.37893">
        <ele>42</ele>
        <time>2022-07-13T09:40:46Z</time>
      </trkpt>
      <trkpt lat="49.7814" lon="2.37896">
        <ele>42</ele>
        <time>2022-07-13T09:40:47Z</time>
      </trkpt>
      <trkpt lat="49.7814" lon="2.37897">
        <ele>42</ele>
        <time>2022-07-13T09:40:49Z</time>
      </trkpt>
      <trkpt lat="49.78139" lon="2.37898">
        <ele>42</ele>
        <time>2022-07-13T09:40:50Z</time>
      </trkpt>
      <trkpt lat="49.78139" lon="2.37901">
        <ele>42.1</ele>
        <time>2022-07-13T09:40:51Z</time>
      </trkpt>
      <trkpt lat="49.78138" lon="2.37902">
        <ele>42.1</ele>
        <time>2022-07-13T09:40:52Z</time>
      </trkpt>
      <trkpt lat="49.78138" lon="2.37904">
        <ele>42.1</ele>
        <time>2022-07-13T09:40:53Z</time>
      </trkpt>
      <trkpt lat="49.78137" lon="2.37906">
        <ele>42.1</ele>
        <time>2022-07-13T09:40:54Z</time>
      </trkpt>
      <trkpt lat="49.78136" lon="2.37908">
        <ele>42.1</ele>
        <time>2022-07-13T09:40:55Z</time>
      </trkpt>
      <trkpt lat="49.78136" lon="2.37909">
        <ele>42.1</ele>
        <time>2022-07-13T09:40:56Z</time>
      </trkpt>
      <trkpt lat="49.78135" lon="2.37911">
        <ele>42.1</ele>
        <time>2022-07-13T09:40:57Z</time>
      </trkpt>
      <trkpt lat="49.78135" lon="2.37913">
        <ele>42.2</ele>
        <time>2022-07-13T09:40:58Z</time>
      </trkpt>
      <trkpt lat="49.78134" lon="2.37915">
        <ele>42.2</ele>
        <time>2022-07-13T09:41:00Z</time>
      </trkpt>
      <trkpt lat="49.78134" lon="2.37917">
        <ele>42.2</ele>
        <time>2022-07-13T09:41:01Z</time>
      </trkpt>
      <trkpt lat="49.78133" lon="2.37918">
        <ele>42.2</ele>
        <time>2022-07-13T09:41:02Z</time>
      </trkpt>
      <trkpt lat="49.78133" lon="2.3792">
        <ele>42.2</ele>
        <time>2022-07-13T09:41:03Z</time>
      </trkpt>
      <trkpt lat="49.78132" lon="2.37924">
        <ele>42.3</ele>
        <time>2022-07-13T09:41:04Z</time>
      </trkpt>
      <trkpt lat="49.78132" lon="2.37925">
        <ele>42.3</ele>
        <time>2022-07-13T09:41:05Z</time>
      </trkpt>
      <trkpt lat="49.78132" lon="2.37926">
        <ele>42.3</ele>
        <time>2022-07-13T09:41:06Z</time>
      </trkpt>
      <trkpt lat="49.78132" lon="2.37929">
        <ele>42.3</ele>
        <time>2022-07-13T09:41:07Z</time>
      </trkpt>
      <trkpt lat="49.78132" lon="2.3793">
        <ele>42.4</ele>
        <time>2022-07-13T09:41:08Z</time>
      </trkpt>
      <trkpt lat="49.78131" lon="2.37931">
        <ele>42.4</ele>
        <time>2022-07-13T09:41:09Z</time>
      </trkpt>
      <trkpt lat="49.78131" lon="2.37933">
        <ele>42.4</ele>
        <time>2022-07-13T09:41:11Z</time>
      </trkpt>
      <trkpt lat="49.78131" lon="2.37935">
        <ele>42.4</ele>
        <time>2022-07-13T09:41:12Z</time>
      </trkpt>
      <trkpt lat="49.78132" lon="2.37936">
        <ele>42.4</ele>
        <time>2022-07-13T09:41:13Z</time>
      </trkpt>
      <trkpt lat="49.78133" lon="2.37938">
        <ele>42.5</ele>
        <time>2022-07-13T09:41:14Z</time>
      </trkpt>
      <trkpt lat="49.78133" lon="2.37939">
        <ele>42.5</ele>
        <time>2022-07-13T09:41:15Z</time>
      </trkpt>
      <trkpt lat="49.78133" lon="2.37941">
        <ele>42.5</ele>
        <time>2022-07-13T09:41:16Z</time>
      </trkpt>
      <trkpt lat="49.78133" lon="2.37945">
        <ele>42.6</ele>
        <time>2022-07-13T09:41:17Z</time>
      </trkpt>
      <trkpt lat="49.78134" lon="2.37946">
        <ele>42.6</ele>
        <time>2022-07-13T09:41:18Z</time>
      </trkpt>
      <trkpt lat="49.78134" lon="2.37948">
        <ele>42.6</ele>
        <time>2022-07-13T09:41:19Z</time>
      </trkpt>
      <trkpt lat="49.78135" lon="2.3795">
        <ele>42.6</ele>
        <time>2022-07-13T09:41:21Z</time>
      </trkpt>
      <trkpt lat="49.78135" lon="2.37952">
        <ele>42.6</ele>
        <time>2022-07-13T09:41:22Z</time>
      </trkpt>
      <trkpt lat="49.78135" lon="2.37953">
        <ele>42.7</ele>
        <time>2022-07-13T09:41:23Z</time>
      </trkpt>
      <trkpt lat="49.78136" lon="2.37954">
        <ele>42.7</ele>
        <time>2022-07-13T09:41:24Z</time>
      </trkpt>
      <trkpt lat="49.78137" lon="2.37957">
        <ele>42.7</ele>
        <time>2022-07-13T09:41:25Z</time>
      </trkpt>
      <trkpt lat="49.78138" lon="2.37959">
        <ele>42.7</ele>
        <time>2022-07-13T09:41:26Z</time>
      </trkpt>
      <trkpt lat="49.78138" lon="2.3796">
        <ele>42.7</ele>
        <time>2022-07-13T09:41:27Z</time>
      </trkpt>
      <trkpt lat="49.78139" lon="2.37963">
        <ele>42.8</ele>
        <time>2022-07-13T09:41:29Z</time>
      </trkpt>
      <trkpt lat="49.7814" lon="2.37965">
        <ele>42.8</ele>
        <time>2022-07-13T09:41:30Z</time>
      </trkpt>
      <trkpt lat="49.78141" lon="2.37967">
        <ele>42.8</ele>
        <time>2022-07-13T09:41:31Z</time>
      </trkpt>
      <trkpt lat="49.78143" lon="2.37969">
        <ele>42.8</ele>
        <time>2022-07-13T09:41:32Z</time>
      </trkpt>
      <trkpt lat="49.78144" lon="2.3797">
        <ele>42.8</ele>
        <time>2022-07-13T09:41:33Z</time>
      </trkpt>
      <trkpt lat="49.78144" lon="2.37971">
        <ele>42.8</ele>
        <time>2022-07-13T09:41:34Z</time>
      </trkpt>
      <trkpt lat="49.78145" lon="2.37972">
        <ele>42.8</ele>
        <time>2022-07-13T09:41:35Z</time>
      </trkpt>
      <trkpt lat="49.78145" lon="2.37973">
        <ele>42.8</ele>
        <time>2022-07-13T09:41:36Z</time>
      </trkpt>
      <trkpt lat="49.78145" lon="2.37975">
        <ele>42.8</ele>
        <time>2022-07-13T09:41:37Z</time>
      </trkpt>
      <trkpt lat="49.78145" lon="2.37977">
        <ele>42.8</ele>
        <time>2022-07-13T09:41:39Z</time>
      </trkpt>
      <trkpt lat="49.78146" lon="2.3798">
        <ele>42.8</ele>
        <time>2022-07-13T09:41:40Z</time>
      </trkpt>
      <trkpt lat="49.78146" lon="2.37981">
        <ele>42.8</ele>
        <time>2022-07-13T09:41:41Z</time>
      </trkpt>
      <trkpt lat="49.78146" lon="2.37983">
        <ele>42.8</ele>
        <time>2022-07-13T09:41:42Z</time>
      </trkpt>
      <trkpt lat="49.78147" lon="2.37985">
        <ele>42.8</ele>
        <time>2022-07-13T09:41:43Z</time>
      </trkpt>
      <trkpt lat="49.78148" lon="2.37987">
        <ele>42.8</ele>
        <time>2022-07-13T09:41:44Z</time>
      </trkpt>
      <trkpt lat="49.78148" lon="2.37989">
        <ele>42.8</ele>
        <time>2022-07-13T09:41:45Z</time>
      </trkpt>
      <trkpt lat="49.78149" lon="2.3799">
        <ele>42.8</ele>
        <time>2022-07-13T09:41:46Z</time>
      </trkpt>
      <trkpt lat="49.78149" lon="2.37991">
        <ele>42.8</ele>
        <time>2022-07-13T09:41:47Z</time>
      </trkpt>
      <trkpt lat="49.7815" lon="2.37993">
        <ele>42.8</ele>
        <time>2022-07-13T09:41:49Z</time>
      </trkpt>
      <trkpt lat="49.78151" lon="2.37995">
        <ele>42.8</ele>
        <time>2022-07-13T09:41:50Z</time>
      </trkpt>
      <trkpt lat="49.78151" lon="2.37996">
        <ele>42.8</ele>
        <time>2022-07-13T09:41:51Z</time>
      </trkpt>
      <trkpt lat="49.78152" lon="2.37998">
        <ele>42.8</ele>
        <time>2022-07-13T09:41:52Z</time>
      </trkpt>
      <trkpt lat="49.78152" lon="2.37999">
        <ele>42.8</ele>
        <time>2022-07-13T09:41:53Z</time>
      </trkpt>
      <trkpt lat="49.78152" lon="2.38002">
        <ele>42.8</ele>
        <time>2022-07-13T09:41:54Z</time>
      </trkpt>
      <trkpt lat="49.78152" lon="2.38003">
        <ele>42.8</ele>
        <time>2022-07-13T09:41:55Z</time>
      </trkpt>
      <trkpt lat="49.78152" lon="2.38004">
        <ele>42.8</ele>
        <time>2022-07-13T09:41:56Z</time>
      </trkpt>
      <trkpt lat="49.78152" lon="2.38006">
        <ele>42.8</ele>
        <time>2022-07-13T09:41:58Z</time>
      </trkpt>
      <trkpt lat="49.78152" lon="2.38008">
        <ele>42.8</ele>
        <time>2022-07-13T09:41:59Z</time>
      </trkpt>
      <trkpt lat="49.78152" lon="2.3801">
        <ele>42.8</ele>
        <time>2022-07-13T09:42:00Z</time>
      </trkpt>
      <trkpt lat="49.78152" lon="2.38012">
        <ele>42.8</ele>
        <time>2022-07-13T09:42:01Z</time>
      </trkpt>
      <trkpt lat="49.78152" lon="2.38013">
        <ele>42.8</ele>
        <time>2022-07-13T09:42:02Z</time>
      </trkpt>
      <trkpt lat="49.78152" lon="2.38015">
        <ele>42.8</ele>
        <time>2022-07-13T09:42:03Z</time>
      </trkpt>
      <trkpt lat="49.78153" lon="2.38017">
        <ele>42.8</ele>
        <time>2022-07-13T09:42:04Z</time>
      </trkpt>
      <trkpt lat="49.78153" lon="2.38019">
        <ele>42.8</ele>
        <time>2022-07-13T09:42:06Z</time>
      </trkpt>
      <trkpt lat="49.78154" lon="2.38022">
        <ele>42.9</ele>
        <time>2022-07-13T09:42:07Z</time>
      </trkpt>
      <trkpt lat="49.78154" lon="2.38023">
        <ele>42.9</ele>
        <time>2022-07-13T09:42:08Z</time>
      </trkpt>
      <trkpt lat="49.78155" lon="2.38025">
        <ele>42.9</ele>
        <time>2022-07-13T09:42:09Z</time>
      </trkpt>
      <trkpt lat="49.78155" lon="2.38026">
        <ele>42.9</ele>
        <time>2022-07-13T09:42:11Z</time>
      </trkpt>
      <trkpt lat="49.78155" lon="2.38028">
        <ele>42.9</ele>
        <time>2022-07-13T09:42:12Z</time>
      </trkpt>
      <trkpt lat="49.78155" lon="2.38029">
        <ele>42.9</ele>
        <time>2022-07-13T09:42:13Z</time>
      </trkpt>
      <trkpt lat="49.78156" lon="2.38031">
        <ele>42.9</ele>
        <time>2022-07-13T09:42:14Z</time>
      </trkpt>
      <trkpt lat="49.78156" lon="2.38034">
        <ele>42.9</ele>
        <time>2022-07-13T09:42:15Z</time>
      </trkpt>
      <trkpt lat="49.78156" lon="2.38037">
        <ele>42.9</ele>
        <time>2022-07-13T09:42:16Z</time>
      </trkpt>
      <trkpt lat="49.78157" lon="2.38038">
        <ele>42.9</ele>
        <time>2022-07-13T09:42:17Z</time>
      </trkpt>
      <trkpt lat="49.78157" lon="2.38039">
        <ele>42.9</ele>
        <time>2022-07-13T09:42:18Z</time>
      </trkpt>
      <trkpt lat="49.78157" lon="2.38042">
        <ele>42.9</ele>
        <time>2022-07-13T09:42:20Z</time>
      </trkpt>
      <trkpt lat="49.78158" lon="2.38044">
        <ele>42.9</ele>
        <time>2022-07-13T09:42:21Z</time>
      </trkpt>
      <trkpt lat="49.78158" lon="2.38045">
        <ele>42.9</ele>
        <time>2022-07-13T09:42:22Z</time>
      </trkpt>
      <trkpt lat="49.78159" lon="2.38047">
        <ele>42.9</ele>
        <time>2022-07-13T09:42:23Z</time>
      </trkpt>
      <trkpt lat="49.78159" lon="2.38049">
        <ele>42.9</ele>
        <time>2022-07-13T09:42:24Z</time>
      </trkpt>
      <trkpt lat="49.7816" lon="2.38051">
        <ele>42.9</ele>
        <time>2022-07-13T09:42:25Z</time>
      </trkpt>
      <trkpt lat="49.7816" lon="2.38052">
        <ele>42.9</ele>
        <time>2022-07-13T09:42:26Z</time>
      </trkpt>
      <trkpt lat="49.78161" lon="2.38053">
        <ele>42.9</ele>
        <time>2022-07-13T09:42:27Z</time>
      </trkpt>
      <trkpt lat="49.78161" lon="2.38055">
        <ele>42.9</ele>
        <time>2022-07-13T09:42:29Z</time>
      </trkpt>
      <trkpt lat="49.78162" lon="2.38058">
        <ele>43</ele>
        <time>2022-07-13T09:42:30Z</time>
      </trkpt>
      <trkpt lat="49.78162" lon="2.38059">
        <ele>43</ele>
        <time>2022-07-13T09:42:31Z</time>
      </trkpt>
      <trkpt lat="49.78163" lon="2.38061">
        <ele>43</ele>
        <time>2022-07-13T09:42:32Z</time>
      </trkpt>
      <trkpt lat="49.78164" lon="2.38062">
        <ele>43</ele>
        <time>2022-07-13T09:42:33Z</time>
      </trkpt>
      <trkpt lat="49.78165" lon="2.38063">
        <ele>43</ele>
        <time>2022-07-13T09:42:34Z</time>
      </trkpt>
      <trkpt lat="49.78166" lon="2.38065">
        <ele>43</ele>
        <time>2022-07-13T09:42:35Z</time>
      </trkpt>
      <trkpt lat="49.78167" lon="2.38066">
        <ele>43</ele>
        <time>2022-07-13T09:42:37Z</time>
      </trkpt>
      <trkpt lat="49.78168" lon="2.38068">
        <ele>43.1</ele>
        <time>2022-07-13T09:42:38Z</time>
      </trkpt>
      <trkpt lat="49.7817" lon="2.3807">
        <ele>43.1</ele>
        <time>2022-07-13T09:42:39Z</time>
      </trkpt>
      <trkpt lat="49.78171" lon="2.38071">
        <ele>43.1</ele>
        <time>2022-07-13T09:42:40Z</time>
      </trkpt>
      <trkpt lat="49.78172" lon="2.38072">
        <ele>43.1</ele>
        <time>2022-07-13T09:42:41Z</time>
      </trkpt>
      <trkpt lat="49.78174" lon="2.38073">
        <ele>43.2</ele>
        <time>2022-07-13T09:42:42Z</time>
      </trkpt>
      <trkpt lat="49.78175" lon="2.38074">
        <ele>43.2</ele>
        <time>2022-07-13T09:42:43Z</time>
      </trkpt>
      <trkpt lat="49.78176" lon="2.38076">
        <ele>43.2</ele>
        <time>2022-07-13T09:42:45Z</time>
      </trkpt>
      <trkpt lat="49.78178" lon="2.38077">
        <ele>43.2</ele>
        <time>2022-07-13T09:42:46Z</time>
      </trkpt>
      <trkpt lat="49.78179" lon="2.38079">
        <ele>43.2</ele>
        <time>2022-07-13T09:42:47Z</time>
      </trkpt>
      <trkpt lat="49.7818" lon="2.3808">
        <ele>43.3</ele>
        <time>2022-07-13T09:42:48Z</time>
      </trkpt>
      <trkpt lat="49.78181" lon="2.38081">
        <ele>43.3</ele>
        <time>2022-07-13T09:42:49Z</time>
      </trkpt>
      <trkpt lat="49.78183" lon="2.38083">
        <ele>43.3</ele>
        <time>2022-07-13T09:42:50Z</time>
      </trkpt>
      <trkpt lat="49.78184" lon="2.38084">
        <ele>43.3</ele>
        <time>2022-07-13T09:42:51Z</time>
      </trkpt>
      <trkpt lat="49.78185" lon="2.38086">
        <ele>43.4</ele>
        <time>2022-07-13T09:42:52Z</time>
      </trkpt>
      <trkpt lat="49.78186" lon="2.38087">
        <ele>43.4</ele>
        <time>2022-07-13T09:42:54Z</time>
      </trkpt>
      <trkpt lat="49.78187" lon="2.38088">
        <ele>43.4</ele>
        <time>2022-07-13T09:42:55Z</time>
      </trkpt>
      <trkpt lat="49.78188" lon="2.38089">
        <ele>43.4</ele>
        <time>2022-07-13T09:42:56Z</time>
      </trkpt>
      <trkpt lat="49.78189" lon="2.3809">
        <ele>43.4</ele>
        <time>2022-07-13T09:42:57Z</time>
      </trkpt>
      <trkpt lat="49.78189" lon="2.38092">
        <ele>43.4</ele>
        <time>2022-07-13T09:42:58Z</time>
      </trkpt>
      <trkpt lat="49.7819" lon="2.38094">
        <ele>43.5</ele>
        <time>2022-07-13T09:42:59Z</time>
      </trkpt>
      <trkpt lat="49.7819" lon="2.38096">
        <ele>43.5</ele>
        <time>2022-07-13T09:43:00Z</time>
      </trkpt>
      <trkpt lat="49.78191" lon="2.38097">
        <ele>43.5</ele>
        <time>2022-07-13T09:43:01Z</time>
      </trkpt>
      <trkpt lat="49.78191" lon="2.38099">
        <ele>43.5</ele>
        <time>2022-07-13T09:43:03Z</time>
      </trkpt>
      <trkpt lat="49.78192" lon="2.38101">
        <ele>43.5</ele>
        <time>2022-07-13T09:43:04Z</time>
      </trkpt>
      <trkpt lat="49.78192" lon="2.38102">
        <ele>43.6</ele>
        <time>2022-07-13T09:43:05Z</time>
      </trkpt>
      <trkpt lat="49.78193" lon="2.38104">
        <ele>43.6</ele>
        <time>2022-07-13T09:43:06Z</time>
      </trkpt>
      <trkpt lat="49.78193" lon="2.38106">
        <ele>43.6</ele>
        <time>2022-07-13T09:43:07Z</time>
      </trkpt>
      <trkpt lat="49.78193" lon="2.38107">
        <ele>43.6</ele>
        <time>2022-07-13T09:43:08Z</time>
      </trkpt>
      <trkpt lat="49.78194" lon="2.38109">
        <ele>43.7</ele>
        <time>2022-07-13T09:43:09Z</time>
      </trkpt>
      <trkpt lat="49.78194" lon="2.3811">
        <ele>43.7</ele>
        <time>2022-07-13T09:43:10Z</time>
      </trkpt>
      <trkpt lat="49.78194" lon="2.38112">
        <ele>43.7</ele>
        <time>2022-07-13T09:43:11Z</time>
      </trkpt>
      <trkpt lat="49.78194" lon="2.38114">
        <ele>43.7</ele>
        <time>2022-07-13T09:43:13Z</time>
      </trkpt>
      <trkpt lat="49.78195" lon="2.38116">
        <ele>43.8</ele>
        <time>2022-07-13T09:43:14Z</time>
      </trkpt>
      <trkpt lat="49.78195" lon="2.38118">
        <ele>43.8</ele>
        <time>2022-07-13T09:43:15Z</time>
      </trkpt>
      <trkpt lat="49.78195" lon="2.3812">
        <ele>43.8</ele>
        <time>2022-07-13T09:43:16Z</time>
      </trkpt>
      <trkpt lat="49.78195" lon="2.38121">
        <ele>43.8</ele>
        <time>2022-07-13T09:43:17Z</time>
      </trkpt>
      <trkpt lat="49.78196" lon="2.38123">
        <ele>43.8</ele>
        <time>2022-07-13T09:43:18Z</time>
      </trkpt>
      <trkpt lat="49.78196" lon="2.38124">
        <ele>43.9</ele>
        <time>2022-07-13T09:43:19Z</time>
      </trkpt>
      <trkpt lat="49.78195" lon="2.38125">
        <ele>43.9</ele>
        <time>2022-07-13T09:43:20Z</time>
      </trkpt>
      <trkpt lat="49.78195" lon="2.38126">
        <ele>43.9</ele>
        <time>2022-07-13T09:43:22Z</time>
      </trkpt>
      <trkpt lat="49.78195" lon="2.38128">
        <ele>43.9</ele>
        <time>2022-07-13T09:43:23Z</time>
      </trkpt>
      <trkpt lat="49.78195" lon="2.3813">
        <ele>44</ele>
        <time>2022-07-13T09:43:24Z</time>
      </trkpt>
      <trkpt lat="49.78194" lon="2.38131">
        <ele>44.1</ele>
        <time>2022-07-13T09:43:25Z</time>
      </trkpt>
      <trkpt lat="49.78193" lon="2.38133">
        <ele>44.1</ele>
        <time>2022-07-13T09:43:26Z</time>
      </trkpt>
      <trkpt lat="49.78192" lon="2.38134">
        <ele>44.2</ele>
        <time>2022-07-13T09:43:27Z</time>
      </trkpt>
      <trkpt lat="49.78191" lon="2.38135">
        <ele>44.3</ele>
        <time>2022-07-13T09:43:28Z</time>
      </trkpt>
      <trkpt lat="49.7819" lon="2.38136">
        <ele>44.3</ele>
        <time>2022-07-13T09:43:30Z</time>
      </trkpt>
      <trkpt lat="49.78189" lon="2.38138">
        <ele>44.4</ele>
        <time>2022-07-13T09:43:31Z</time>
      </trkpt>
      <trkpt lat="49.78188" lon="2.38139">
        <ele>44.5</ele>
        <time>2022-07-13T09:43:32Z</time>
      </trkpt>
      <trkpt lat="49.78187" lon="2.3814">
        <ele>44.6</ele>
        <time>2022-07-13T09:43:33Z</time>
      </trkpt>
      <trkpt lat="49.78186" lon="2.38142">
        <ele>44.6</ele>
        <time>2022-07-13T09:43:34Z</time>
      </trkpt>
      <trkpt lat="49.78185" lon="2.38145">
        <ele>44.8</ele>
        <time>2022-07-13T09:43:35Z</time>
      </trkpt>
      <trkpt lat="49.78185" lon="2.38146">
        <ele>44.8</ele>
        <time>2022-07-13T09:43:37Z</time>
      </trkpt>
      <trkpt lat="49.78184" lon="2.38147">
        <ele>44.9</ele>
        <time>2022-07-13T09:43:38Z</time>
      </trkpt>
      <trkpt lat="49.78183" lon="2.38149">
        <ele>45</ele>
        <time>2022-07-13T09:43:39Z</time>
      </trkpt>
      <trkpt lat="49.78183" lon="2.3815">
        <ele>45</ele>
        <time>2022-07-13T09:43:40Z</time>
      </trkpt>
      <trkpt lat="49.78182" lon="2.38152">
        <ele>45.1</ele>
        <time>2022-07-13T09:43:41Z</time>
      </trkpt>
      <trkpt lat="49.78181" lon="2.38154">
        <ele>45.2</ele>
        <time>2022-07-13T09:43:43Z</time>
      </trkpt>
      <trkpt lat="49.7818" lon="2.38156">
        <ele>45.3</ele>
        <time>2022-07-13T09:43:44Z</time>
      </trkpt>
      <trkpt lat="49.78179" lon="2.38157">
        <ele>45.4</ele>
        <time>2022-07-13T09:43:45Z</time>
      </trkpt>
      <trkpt lat="49.78178" lon="2.38158">
        <ele>45.5</ele>
        <time>2022-07-13T09:43:46Z</time>
      </trkpt>
      <trkpt lat="49.78177" lon="2.38159">
        <ele>45.5</ele>
        <time>2022-07-13T09:43:47Z</time>
      </trkpt>
      <trkpt lat="49.78176" lon="2.3816">
        <ele>45.6</ele>
        <time>2022-07-13T09:43:48Z</time>
      </trkpt>
      <trkpt lat="49.78175" lon="2.38161">
        <ele>45.7</ele>
        <time>2022-07-13T09:43:50Z</time>
      </trkpt>
      <trkpt lat="49.78174" lon="2.38161">
        <ele>45.7</ele>
        <time>2022-07-13T09:43:51Z</time>
      </trkpt>
      <trkpt lat="49.78173" lon="2.38164">
        <ele>45.9</ele>
        <time>2022-07-13T09:43:52Z</time>
      </trkpt>
      <trkpt lat="49.78173" lon="2.38165">
        <ele>45.9</ele>
        <time>2022-07-13T09:43:53Z</time>
      </trkpt>
      <trkpt lat="49.78172" lon="2.38166">
        <ele>46</ele>
        <time>2022-07-13T09:43:54Z</time>
      </trkpt>
      <trkpt lat="49.78171" lon="2.38167">
        <ele>46.1</ele>
        <time>2022-07-13T09:43:55Z</time>
      </trkpt>
      <trkpt lat="49.78169" lon="2.38167">
        <ele>46.2</ele>
        <time>2022-07-13T09:43:57Z</time>
      </trkpt>
      <trkpt lat="49.78168" lon="2.38168">
        <ele>46.2</ele>
        <time>2022-07-13T09:43:58Z</time>
      </trkpt>
      <trkpt lat="49.78168" lon="2.3817">
        <ele>46.3</ele>
        <time>2022-07-13T09:43:59Z</time>
      </trkpt>
      <trkpt lat="49.78167" lon="2.38171">
        <ele>46.4</ele>
        <time>2022-07-13T09:44:00Z</time>
      </trkpt>
      <trkpt lat="49.78166" lon="2.38172">
        <ele>46.5</ele>
        <time>2022-07-13T09:44:01Z</time>
      </trkpt>
      <trkpt lat="49.78165" lon="2.38174">
        <ele>46.5</ele>
        <time>2022-07-13T09:44:02Z</time>
      </trkpt>
      <trkpt lat="49.78165" lon="2.38175">
        <ele>46.6</ele>
        <time>2022-07-13T09:44:03Z</time>
      </trkpt>
      <trkpt lat="49.78164" lon="2.38178">
        <ele>46.8</ele>
        <time>2022-07-13T09:44:05Z</time>
      </trkpt>
      <trkpt lat="49.78164" lon="2.3818">
        <ele>46.8</ele>
        <time>2022-07-13T09:44:06Z</time>
      </trkpt>
      <trkpt lat="49.78164" lon="2.38181">
        <ele>46.9</ele>
        <time>2022-07-13T09:44:07Z</time>
      </trkpt>
      <trkpt lat="49.78164" lon="2.38184">
        <ele>47</ele>
        <time>2022-07-13T09:44:08Z</time>
      </trkpt>
      <trkpt lat="49.78164" lon="2.38187">
        <ele>47</ele>
        <time>2022-07-13T09:44:09Z</time>
      </trkpt>
      <trkpt lat="49.78164" lon="2.38188">
        <ele>47</ele>
        <time>2022-07-13T09:44:11Z</time>
      </trkpt>
      <trkpt lat="49.78164" lon="2.38191">
        <ele>47.1</ele>
        <time>2022-07-13T09:44:12Z</time>
      </trkpt>
      <trkpt lat="49.78164" lon="2.38191">
        <ele>47.1</ele>
        <time>2022-07-13T09:44:13Z</time>
      </trkpt>
      <trkpt lat="49.78164" lon="2.38192">
        <ele>47.1</ele>
        <time>2022-07-13T09:44:14Z</time>
      </trkpt>
      <trkpt lat="49.78164" lon="2.38193">
        <ele>47.1</ele>
        <time>2022-07-13T09:44:16Z</time>
      </trkpt>
      <trkpt lat="49.78165" lon="2.38196">
        <ele>47.1</ele>
        <time>2022-07-13T09:44:17Z</time>
      </trkpt>
      <trkpt lat="49.78165" lon="2.38199">
        <ele>47.2</ele>
        <time>2022-07-13T09:44:18Z</time>
      </trkpt>
      <trkpt lat="49.78166" lon="2.38201">
        <ele>47.2</ele>
        <time>2022-07-13T09:44:20Z</time>
      </trkpt>
      <trkpt lat="49.78166" lon="2.38203">
        <ele>47.2</ele>
        <time>2022-07-13T09:44:21Z</time>
      </trkpt>
      <trkpt lat="49.78167" lon="2.38205">
        <ele>47.3</ele>
        <time>2022-07-13T09:44:22Z</time>
      </trkpt>
      <trkpt lat="49.78167" lon="2.38206">
        <ele>47.3</ele>
        <time>2022-07-13T09:44:23Z</time>
      </trkpt>
      <trkpt lat="49.78167" lon="2.38208">
        <ele>47.3</ele>
        <time>2022-07-13T09:44:24Z</time>
      </trkpt>
      <trkpt lat="49.78167" lon="2.38209">
        <ele>47.3</ele>
        <time>2022-07-13T09:44:25Z</time>
      </trkpt>
      <trkpt lat="49.78168" lon="2.38211">
        <ele>47.4</ele>
        <time>2022-07-13T09:44:27Z</time>
      </trkpt>
      <trkpt lat="49.78169" lon="2.38212">
        <ele>47.4</ele>
        <time>2022-07-13T09:44:28Z</time>
      </trkpt>
      <trkpt lat="49.78169" lon="2.38213">
        <ele>47.4</ele>
        <time>2022-07-13T09:44:29Z</time>
      </trkpt>
      <trkpt lat="49.78169" lon="2.38214">
        <ele>47.4</ele>
        <time>2022-07-13T09:44:31Z</time>
      </trkpt>
      <trkpt lat="49.78171" lon="2.38214">
        <ele>47.5</ele>
        <time>2022-07-13T09:44:32Z</time>
      </trkpt>
      <trkpt lat="49.78171" lon="2.38215">
        <ele>47.5</ele>
        <time>2022-07-13T09:44:34Z</time>
      </trkpt>
      <trkpt lat="49.7817" lon="2.38216">
        <ele>47.5</ele>
        <time>2022-07-13T09:44:35Z</time>
      </trkpt>
      <trkpt lat="49.7817" lon="2.38218">
        <ele>47.5</ele>
        <time>2022-07-13T09:44:36Z</time>
      </trkpt>
      <trkpt lat="49.78169" lon="2.38219">
        <ele>47.5</ele>
        <time>2022-07-13T09:44:37Z</time>
      </trkpt>
      <trkpt lat="49.78169" lon="2.3822">
        <ele>47.6</ele>
        <time>2022-07-13T09:44:38Z</time>
      </trkpt>
      <trkpt lat="49.78169" lon="2.38221">
        <ele>47.6</ele>
        <time>2022-07-13T09:44:40Z</time>
      </trkpt>
      <trkpt lat="49.78169" lon="2.38223">
        <ele>47.6</ele>
        <time>2022-07-13T09:44:41Z</time>
      </trkpt>
      <trkpt lat="49.78171" lon="2.38223">
        <ele>47.6</ele>
        <time>2022-07-13T09:44:43Z</time>
      </trkpt>
      <trkpt lat="49.78172" lon="2.38225">
        <ele>47.7</ele>
        <time>2022-07-13T09:44:44Z</time>
      </trkpt>
      <trkpt lat="49.78173" lon="2.38227">
        <ele>47.7</ele>
        <time>2022-07-13T09:44:47Z</time>
      </trkpt>
      <trkpt lat="49.78173" lon="2.38228">
        <ele>47.7</ele>
        <time>2022-07-13T09:44:48Z</time>
      </trkpt>
      <trkpt lat="49.78174" lon="2.38229">
        <ele>47.7</ele>
        <time>2022-07-13T09:44:50Z</time>
      </trkpt>
      <trkpt lat="49.78175" lon="2.38228">
        <ele>47.8</ele>
        <time>2022-07-13T09:44:51Z</time>
      </trkpt>
      <trkpt lat="49.78175" lon="2.38228">
        <ele>47.8</ele>
        <time>2022-07-13T09:44:52Z</time>
      </trkpt>
      <trkpt lat="49.78176" lon="2.38228">
        <ele>47.8</ele>
        <time>2022-07-13T09:44:53Z</time>
      </trkpt>
      <trkpt lat="49.78176" lon="2.38229">
        <ele>47.8</ele>
        <time>2022-07-13T09:44:54Z</time>
      </trkpt>
      <trkpt lat="49.78175" lon="2.38229">
        <ele>47.8</ele>
        <time>2022-07-13T09:44:55Z</time>
      </trkpt>
      <trkpt lat="49.78174" lon="2.38228">
        <ele>47.8</ele>
        <time>2022-07-13T09:44:57Z</time>
      </trkpt>
      <trkpt lat="49.78174" lon="2.38228">
        <ele>47.8</ele>
        <time>2022-07-13T09:44:58Z</time>
      </trkpt>
      <trkpt lat="49.78174" lon="2.38228">
        <ele>47.8</ele>
        <time>2022-07-13T09:44:59Z</time>
      </trkpt>
      <trkpt lat="49.78175" lon="2.38228">
        <ele>47.8</ele>
        <time>2022-07-13T09:45:00Z</time>
      </trkpt>
      <trkpt lat="49.78175" lon="2.38228">
        <ele>47.8</ele>
        <time>2022-07-13T09:45:01Z</time>
      </trkpt>
      <trkpt lat="49.78173" lon="2.38227">
        <ele>47.9</ele>
        <time>2022-07-13T09:45:02Z</time>
      </trkpt>
      <trkpt lat="49.78173" lon="2.38227">
        <ele>47.9</ele>
        <time>2022-07-13T09:45:03Z</time>
      </trkpt>
      <trkpt lat="49.78172" lon="2.38228">
        <ele>47.9</ele>
        <time>2022-07-13T09:45:04Z</time>
      </trkpt>
      <trkpt lat="49.78172" lon="2.38228">
        <ele>47.9</ele>
        <time>2022-07-13T09:45:05Z</time>
      </trkpt>
      <trkpt lat="49.78172" lon="2.38229">
        <ele>47.9</ele>
        <time>2022-07-13T09:45:06Z</time>
      </trkpt>
      <trkpt lat="49.78171" lon="2.38229">
        <ele>48</ele>
        <time>2022-07-13T09:45:07Z</time>
      </trkpt>
      <trkpt lat="49.78171" lon="2.38229">
        <ele>48</ele>
        <time>2022-07-13T09:45:08Z</time>
      </trkpt>
      <trkpt lat="49.7817" lon="2.3823">
        <ele>48</ele>
        <time>2022-07-13T09:45:09Z</time>
      </trkpt>
      <trkpt lat="49.7817" lon="2.3823">
        <ele>48</ele>
        <time>2022-07-13T09:45:10Z</time>
      </trkpt>
      <trkpt lat="49.78169" lon="2.3823">
        <ele>48</ele>
        <time>2022-07-13T09:45:11Z</time>
      </trkpt>
      <trkpt lat="49.78168" lon="2.38228">
        <ele>48</ele>
        <time>2022-07-13T09:45:13Z</time>
      </trkpt>
      <trkpt lat="49.78168" lon="2.38228">
        <ele>48</ele>
        <time>2022-07-13T09:45:14Z</time>
      </trkpt>
      <trkpt lat="49.78168" lon="2.38228">
        <ele>48</ele>
        <time>2022-07-13T09:45:15Z</time>
      </trkpt>
      <trkpt lat="49.78168" lon="2.38226">
        <ele>48.1</ele>
        <time>2022-07-13T09:45:16Z</time>
      </trkpt>
      <trkpt lat="49.78168" lon="2.38226">
        <ele>48.1</ele>
        <time>2022-07-13T09:45:17Z</time>
      </trkpt>
      <trkpt lat="49.78168" lon="2.38226">
        <ele>48.1</ele>
        <time>2022-07-13T09:45:18Z</time>
      </trkpt>
      <trkpt lat="49.78168" lon="2.38226">
        <ele>48.1</ele>
        <time>2022-07-13T09:45:19Z</time>
      </trkpt>
      <trkpt lat="49.78168" lon="2.38226">
        <ele>48.1</ele>
        <time>2022-07-13T09:45:21Z</time>
      </trkpt>
      <trkpt lat="49.78169" lon="2.38227">
        <ele>48.1</ele>
        <time>2022-07-13T09:45:22Z</time>
      </trkpt>
      <trkpt lat="49.78169" lon="2.38226">
        <ele>48.1</ele>
        <time>2022-07-13T09:45:23Z</time>
      </trkpt>
      <trkpt lat="49.78169" lon="2.38226">
        <ele>48.1</ele>
        <time>2022-07-13T09:45:24Z</time>
      </trkpt>
      <trkpt lat="49.78169" lon="2.38227">
        <ele>48.1</ele>
        <time>2022-07-13T09:45:26Z</time>
      </trkpt>
      <trkpt lat="49.78169" lon="2.38227">
        <ele>48.1</ele>
        <time>2022-07-13T09:45:27Z</time>
      </trkpt>
      <trkpt lat="49.78169" lon="2.38228">
        <ele>48.1</ele>
        <time>2022-07-13T09:45:28Z</time>
      </trkpt>
      <trkpt lat="49.78168" lon="2.38228">
        <ele>48.2</ele>
        <time>2022-07-13T09:45:29Z</time>
      </trkpt>
      <trkpt lat="49.78168" lon="2.38229">
        <ele>48.2</ele>
        <time>2022-07-13T09:45:30Z</time>
      </trkpt>
      <trkpt lat="49.78167" lon="2.38229">
        <ele>48.2</ele>
        <time>2022-07-13T09:45:31Z</time>
      </trkpt>
      <trkpt lat="49.78167" lon="2.38228">
        <ele>48.2</ele>
        <time>2022-07-13T09:45:32Z</time>
      </trkpt>
      <trkpt lat="49.78167" lon="2.38227">
        <ele>48.2</ele>
        <time>2022-07-13T09:45:33Z</time>
      </trkpt>
      <trkpt lat="49.78167" lon="2.38225">
        <ele>48.2</ele>
        <time>2022-07-13T09:45:35Z</time>
      </trkpt>
      <trkpt lat="49.78167" lon="2.38224">
        <ele>48.2</ele>
        <time>2022-07-13T09:45:36Z</time>
      </trkpt>
      <trkpt lat="49.78168" lon="2.38223">
        <ele>48.3</ele>
        <time>2022-07-13T09:45:38Z</time>
      </trkpt>
      <trkpt lat="49.78168" lon="2.38222">
        <ele>48.3</ele>
        <time>2022-07-13T09:45:39Z</time>
      </trkpt>
      <trkpt lat="49.78168" lon="2.38222">
        <ele>48.3</ele>
        <time>2022-07-13T09:45:40Z</time>
      </trkpt>
      <trkpt lat="49.78168" lon="2.38222">
        <ele>48.3</ele>
        <time>2022-07-13T09:45:41Z</time>
      </trkpt>
      <trkpt lat="49.78168" lon="2.38222">
        <ele>48.3</ele>
        <time>2022-07-13T09:45:42Z</time>
      </trkpt>
      <trkpt lat="49.78168" lon="2.38222">
        <ele>48.3</ele>
        <time>2022-07-13T09:45:43Z</time>
      </trkpt>
      <trkpt lat="49.78168" lon="2.38223">
        <ele>48.3</ele>
        <time>2022-07-13T09:45:44Z</time>
      </trkpt>
      <trkpt lat="49.78168" lon="2.38223">
        <ele>48.3</ele>
        <time>2022-07-13T09:45:45Z</time>
      </trkpt>
      <trkpt lat="49.78168" lon="2.38223">
        <ele>48.3</ele>
        <time>2022-07-13T09:45:46Z</time>
      </trkpt>
      <trkpt lat="49.78169" lon="2.38223">
        <ele>48.3</ele>
        <time>2022-07-13T09:45:47Z</time>
      </trkpt>
      <trkpt lat="49.78169" lon="2.38223">
        <ele>48.3</ele>
        <time>2022-07-13T09:45:48Z</time>
      </trkpt>
      <trkpt lat="49.78169" lon="2.38223">
        <ele>48.3</ele>
        <time>2022-07-13T09:45:49Z</time>
      </trkpt>
      <trkpt lat="49.78169" lon="2.38223">
        <ele>48.3</ele>
        <time>2022-07-13T09:45:50Z</time>
      </trkpt>
      <trkpt lat="49.78169" lon="2.38227">
        <ele>48.4</ele>
        <time>2022-07-13T09:45:51Z</time>
      </trkpt>
      <trkpt lat="49.78169" lon="2.38228">
        <ele>48.4</ele>
        <time>2022-07-13T09:45:52Z</time>
      </trkpt>
      <trkpt lat="49.78169" lon="2.38229">
        <ele>48.4</ele>
        <time>2022-07-13T09:45:53Z</time>
      </trkpt>
      <trkpt lat="49.78169" lon="2.38229">
        <ele>48.4</ele>
        <time>2022-07-13T09:45:54Z</time>
      </trkpt>
      <trkpt lat="49.78169" lon="2.38229">
        <ele>48.4</ele>
        <time>2022-07-13T09:45:55Z</time>
      </trkpt>
      <trkpt lat="49.78169" lon="2.38229">
        <ele>48.4</ele>
        <time>2022-07-13T09:45:56Z</time>
      </trkpt>
      <trkpt lat="49.78169" lon="2.38229">
        <ele>48.4</ele>
        <time>2022-07-13T09:45:57Z</time>
      </trkpt>
      <trkpt lat="49.78169" lon="2.38229">
        <ele>48.4</ele>
        <time>2022-07-13T09:45:58Z</time>
      </trkpt>
      <trkpt lat="49.78169" lon="2.38229">
        <ele>48.4</ele>
        <time>2022-07-13T09:45:59Z</time>
      </trkpt>
      <trkpt lat="49.78169" lon="2.38229">
        <ele>48.4</ele>
        <time>2022-07-13T09:46:00Z</time>
      </trkpt>
      <trkpt lat="49.78169" lon="2.38229">
        <ele>48.4</ele>
        <time>2022-07-13T09:46:01Z</time>
      </trkpt>
      <trkpt lat="49.78169" lon="2.38229">
        <ele>48.4</ele>
        <time>2022-07-13T09:46:02Z</time>
      </trkpt>
      <trkpt lat="49.78169" lon="2.38229">
        <ele>48.4</ele>
        <time>2022-07-13T09:46:03Z</time>
      </trkpt>
      <trkpt lat="49.78169" lon="2.38229">
        <ele>48.4</ele>
        <time>2022-07-13T09:46:04Z</time>
      </trkpt>
      <trkpt lat="49.78169" lon="2.38229">
        <ele>48.4</ele>
        <time>2022-07-13T09:46:05Z</time>
      </trkpt>
      <trkpt lat="49.78169" lon="2.38229">
        <ele>48.4</ele>
        <time>2022-07-13T09:46:06Z</time>
      </trkpt>
    </trkseg>
  </trk>
</gpx>